
Distance (Route):
Temperature : 16.3°C
Humidity : 73.6%
Pressure : 972.7hPa| Receiver | Frames | First received | Last received |
|---|---|---|---|
| OE5MMP-10 | 987 | 2026-09-01 23:11:37 | 2026-09-02 02:09:32 |
| DO3MHA-11 | 757 | 2026-09-01 22:46:07 | 2026-09-02 02:00:37 |
| BAUMI2-15 | 466 | 2026-09-01 23:31:40 | 2026-09-02 01:14:38 |
| OE5WHR-10 | 434 | 2026-09-01 23:03:25 | 2026-09-02 02:06:17 |
| OE3JTB-15 | 419 | 2026-09-01 22:56:36 | 2026-09-02 02:08:37 |
| OE5DRO-10 | 398 | 2026-09-01 22:57:53 | 2026-09-02 02:06:01 |
| OE5DXL-15 | 314 | 2026-09-01 22:55:46 | 2026-09-02 02:09:25 |
| PG1ADW-2 | 310 | 2026-09-01 23:03:11 | 2026-09-02 02:03:05 |
| OE5HKT-10 | 308 | 2026-09-01 23:32:47 | 2026-09-02 02:04:53 |
| OE5FHM-15 | 240 | 2026-09-01 23:18:56 | 2026-09-02 02:07:17 |
| PETON7-10 | 213 | 2026-09-01 23:36:37 | 2026-09-02 01:23:34 |
| OE5REO-15 | 205 | 2026-09-01 23:33:44 | 2026-09-02 02:00:23 |
| DG1MFX-10 | 195 | 2026-09-01 22:48:42 | 2026-09-02 01:51:36 |
| DL6DJ-15 | 193 | 2026-09-01 22:51:36 | 2026-09-02 01:40:55 |
| DO7DH-14 | 104 | 2026-09-01 23:42:28 | 2026-09-02 01:06:37 |
| DF3TZ-5 | 50 | 2026-09-01 23:01:13 | 2026-09-02 01:09:03 |
| OE8JPQ-2 | 37 | 2026-09-02 00:08:15 | 2026-09-02 00:47:41 |
| DK5PH-5 | 30 | 2026-09-02 00:31:42 | 2026-09-02 01:15:28 |
| OM5KV | 20 | 2026-09-02 00:53:05 | 2026-09-02 00:56:50 |
| DB0UT-7 | 15 | 2026-09-01 23:05:43 | 2026-09-02 00:57:16 |
| NBG1-10 | 7 | 2026-09-01 23:06:25 | 2026-09-02 00:44:41 |
| DO8TBO-1 | 6 | 2026-09-02 00:10:27 | 2026-09-02 00:22:14 |
| DH7VM-15 | 4 | 2026-09-01 23:22:30 | 2026-09-02 01:00:18 |
| DB0ND-19 | 4 | 2026-09-02 01:08:13 | 2026-09-02 01:17:00 |
| DF7PN | 2 | 2026-09-02 00:08:46 | 2026-09-02 00:09:17 |
| HSKMA3-T | 1 | 2026-09-02 00:32:10 | 2026-09-02 00:32:10 |
| OE9MKV-15 | 1 | 2026-09-02 00:37:05 | 2026-09-02 00:37:05 |
| Receiver | Date | Latitude | Longitude | Direction | Speed | Altitude | Climb | Temperature | Humidity | Pressure | Voltage | Killtimer | Uptime | BKT | XDATA |
|---|---|---|---|---|---|---|---|---|---|---|---|---|---|---|---|
| OE5MMP-10 | 2026-09-02 02:09:32 | 48.38388 | 13.52995 | 74° | 5km/h | 445m | -2.9m/s | 16.3°C | 73.6% | 972.7hPa | 2.7V | 00:00:00 | 03:40:21 | 00:00:00 | |
| OE5MMP-10 | 2026-09-02 02:09:30 | 48.38387 | 13.52991 | 62° | 4km/h | 450m | -2.4m/s | 16.3°C | 73.9% | 972.1hPa | 2.7V | 06:56:00 | 03:40:19 | 00:00:00 | |
| OE5MMP-10 | 2026-09-02 02:09:28 | 48.38386 | 13.52989 | 49° | 2km/h | 455m | -2.8m/s | 16.3°C | 74.1% | 971.4hPa | 2.7V | 00:00:00 | 03:40:17 | 00:00:00 | |
| OE5MMP-10 | 2026-09-02 02:09:26 | 48.38386 | 13.52988 | 15° | 0km/h | 461m | -2.8m/s | 16.3°C | 74.1% | 970.9hPa | 2.7V | 00:00:00 | 03:40:15 | 00:00:00 | |
| OE5DXL-15 | 2026-09-02 02:09:25 | 48.38386 | 13.52988 | 194° | 2km/h | 464m | -2.5m/s | 16.3°C | 74.1% | 970.6hPa | 2.7V | 06:56:00 | 00:00:00 | 00:00:00 | |
| OE5MMP-10 | 2026-09-02 02:09:24 | 48.38386 | 13.52989 | 266° | 0km/h | 466m | -2.4m/s | 16.3°C | 74.0% | 970.3hPa | 2.7V | 00:00:00 | 03:40:13 | 00:00:00 | |
| OE5DXL-15 | 2026-09-02 02:09:23 | 48.38386 | 13.52989 | 146° | 2km/h | 469m | -2.6m/s | 16.3°C | 74.1% | 970.1hPa | 2.7V | 00:00:00 | 00:00:00 | 00:00:00 | |
| OE5MMP-10 | 2026-09-02 02:09:22 | 48.38386 | 13.52989 | 198° | 2km/h | 472m | -3.0m/s | 16.3°C | 74.1% | 969.7hPa | 2.7V | 00:00:00 | 03:40:11 | 00:00:00 | |
| OE5DXL-15 | 2026-09-02 02:09:21 | 48.38387 | 13.52989 | 215° | 2km/h | 475m | -2.5m/s | 16.3°C | 74.0% | 969.6hPa | 2.7V | 00:00:00 | 00:00:00 | 00:00:00 | |
| OE5MMP-10 | 2026-09-02 02:09:20 | 48.38387 | 13.52990 | 210° | 2km/h | 477m | -2.7m/s | 16.3°C | 74.0% | 969.2hPa | 2.7V | 00:00:00 | 03:40:09 | 00:00:00 | |
| OE5DXL-15 | 2026-09-02 02:09:19 | 48.38388 | 13.52990 | 113° | 2km/h | 480m | -2.8m/s | 16.3°C | 74.1% | 968.8hPa | 2.7V | 00:00:00 | 00:00:00 | 00:00:00 | |
| OE5MMP-10 | 2026-09-02 02:09:18 | 48.38388 | 13.52989 | 66° | 2km/h | 483m | -2.5m/s | 16.3°C | 74.1% | 968.7hPa | 2.7V | 00:00:00 | 03:40:07 | 00:00:00 | |
| OE5DXL-15 | 2026-09-02 02:09:17 | 48.38387 | 13.52989 | 4° | 2km/h | 485m | -2.6m/s | 16.4°C | 73.9% | 968.1hPa | 2.7V | 00:00:00 | 00:00:00 | 00:00:00 | |
| OE5MMP-10 | 2026-09-02 02:09:16 | 48.38387 | 13.52989 | 80° | 4km/h | 488m | -2.5m/s | 16.5°C | 73.8% | 968.1hPa | 2.7V | 06:56:00 | 03:40:05 | 00:00:00 | |
| OE5DXL-15 | 2026-09-02 02:09:15 | 48.38386 | 13.52988 | 52° | 5km/h | 490m | -2.5m/s | 16.6°C | 73.0% | 967.7hPa | 2.7V | 00:00:00 | 00:00:00 | 00:00:00 | |
| OE5MMP-10 | 2026-09-02 02:09:14 | 48.38386 | 13.52986 | 40° | 5km/h | 493m | -2.7m/s | 16.8°C | 70.0% | 967.3hPa | 2.7V | 00:00:00 | 03:40:03 | 00:00:00 | |
| OE5DXL-15 | 2026-09-02 02:09:13 | 48.38385 | 13.52985 | 64° | 7km/h | 496m | -2.7m/s | 16.9°C | 69.5% | 967.0hPa | 2.7V | 00:00:00 | 00:00:00 | 00:00:00 | |
| OE5MMP-10 | 2026-09-02 02:09:12 | 48.38384 | 13.52982 | 46° | 7km/h | 499m | -2.5m/s | 16.9°C | 69.0% | 966.7hPa | 2.7V | 00:00:00 | 03:40:01 | 00:00:00 | |
| OE5DXL-15 | 2026-09-02 02:09:11 | 48.38383 | 13.52980 | 69° | 7km/h | 501m | -2.5m/s | 17.0°C | 67.7% | 966.5hPa | 2.7V | 06:57:00 | 00:00:00 | 00:00:00 | |
| OE5MMP-10 | 2026-09-02 02:09:10 | 48.38382 | 13.52978 | 46° | 9km/h | 504m | -2.4m/s | 17.0°C | 67.5% | 966.4hPa | 2.7V | 00:00:00 | 03:39:59 | 00:00:00 | |
| OE5DXL-15 | 2026-09-02 02:09:09 | 48.38381 | 13.52976 | 64° | 7km/h | 506m | -2.6m/s | 17.0°C | 67.6% | 965.9hPa | 2.7V | 00:00:00 | 00:00:00 | 00:00:00 | |
| OE5MMP-10 | 2026-09-02 02:09:08 | 48.38380 | 13.52973 | 66° | 7km/h | 508m | -2.7m/s | 17.0°C | 67.6% | 965.6hPa | 2.7V | 00:00:00 | 03:39:57 | 00:00:00 | |
| OE5DXL-15 | 2026-09-02 02:09:07 | 48.38379 | 13.52971 | 46° | 7km/h | 511m | -2.5m/s | 16.9°C | 67.6% | 965.5hPa | 2.7V | 00:00:00 | 00:00:00 | 00:00:00 | |
| OE5MMP-10 | 2026-09-02 02:09:06 | 48.38378 | 13.52969 | 38° | 7km/h | 514m | -2.4m/s | 16.9°C | 67.7% | 965.1hPa | 2.7V | 00:00:00 | 03:39:55 | 00:00:00 | |
| OE5DXL-15 | 2026-09-02 02:09:05 | 48.38377 | 13.52967 | 40° | 9km/h | 516m | -2.5m/s | 16.9°C | 68.3% | 964.8hPa | 2.7V | 00:00:00 | 00:00:00 | 00:00:00 | |
| OE5MMP-10 | 2026-09-02 02:09:04 | 48.38375 | 13.52965 | 46° | 9km/h | 519m | -2.4m/s | 16.9°C | 68.7% | 964.5hPa | 2.7V | 00:00:00 | 03:39:53 | 00:00:00 | |
| OE5DXL-15 | 2026-09-02 02:09:03 | 48.38374 | 13.52963 | 40° | 7km/h | 521m | -2.6m/s | 16.9°C | 69.1% | 964.2hPa | 2.7V | 00:00:00 | 00:00:00 | 00:00:00 | |
| OE5MMP-10 | 2026-09-02 02:09:02 | 48.38372 | 13.52961 | 32° | 7km/h | 523m | -2.6m/s | 16.9°C | 69.7% | 963.9hPa | 2.7V | 06:57:00 | 03:39:51 | 00:00:00 | |
| OE5DXL-15 | 2026-09-02 02:09:01 | 48.38370 | 13.52959 | 30° | 7km/h | 526m | -2.4m/s | 16.9°C | 69.8% | 963.7hPa | 2.7V | 00:00:00 | 00:00:00 | 00:00:00 | |
| OE5MMP-10 | 2026-09-02 02:09:00 | 48.38369 | 13.52958 | 40° | 7km/h | 528m | -2.5m/s | 16.9°C | 70.4% | 963.3hPa | 2.7V | 00:00:00 | 03:39:49 | 00:00:00 | |
| OE5DXL-15 | 2026-09-02 02:08:59 | 48.38368 | 13.52956 | 61° | 7km/h | 531m | -2.5m/s | 16.9°C | 71.2% | 963.3hPa | 2.7V | 00:00:00 | 00:00:00 | 00:00:00 | |
| OE5MMP-10 | 2026-09-02 02:08:58 | 48.38367 | 13.52953 | 62° | 9km/h | 533m | -2.5m/s | 16.9°C | 71.6% | 962.9hPa | 2.7V | 00:00:00 | 03:39:47 | 00:00:00 | |
| OE5DXL-15 | 2026-09-02 02:08:57 | 48.38365 | 13.52951 | 51° | 9km/h | 536m | -2.2m/s | 16.9°C | 71.8% | 962.5hPa | 2.7V | 06:57:00 | 03:39:46 | 00:00:00 | |
| OE5MMP-10 | 2026-09-02 02:08:56 | 48.38364 | 13.52949 | 30° | 7km/h | 538m | -2.3m/s | 17.0°C | 71.4% | 962.1hPa | 2.7V | 00:00:00 | 03:39:45 | 00:00:00 | |
| OE5DXL-15 | 2026-09-02 02:08:55 | 48.38362 | 13.52947 | 50° | 5km/h | 540m | -2.6m/s | 17.1°C | 70.3% | 962.0hPa | 2.7V | 00:00:00 | 00:00:00 | 00:00:00 | |
| OE5MMP-10 | 2026-09-02 02:08:54 | 48.38361 | 13.52945 | 51° | 7km/h | 543m | -2.6m/s | 17.2°C | 67.7% | 961.6hPa | 2.7V | 00:00:00 | 03:39:43 | 00:00:00 | |
| OE5DXL-15 | 2026-09-02 02:08:53 | 48.38360 | 13.52943 | 40° | 5km/h | 545m | -2.7m/s | 17.3°C | 68.0% | 961.2hPa | 2.7V | 00:00:00 | 00:00:00 | 00:00:00 | |
| OE5MMP-10 | 2026-09-02 02:08:52 | 48.38359 | 13.52942 | 30° | 5km/h | 548m | -2.6m/s | 17.3°C | 68.7% | 961.0hPa | 2.7V | 00:00:00 | 03:39:41 | 00:00:00 | |
| OE5DXL-15 | 2026-09-02 02:08:51 | 48.38358 | 13.52941 | 27° | 4km/h | 550m | -2.7m/s | 17.4°C | 67.6% | 960.8hPa | 2.7V | 00:00:00 | 00:00:00 | 00:00:00 | |
| OE5MMP-10 | 2026-09-02 02:08:50 | 48.38357 | 13.52941 | 342° | 5km/h | 553m | -2.6m/s | 17.3°C | 67.4% | 960.7hPa | 2.7V | 00:00:00 | 03:39:39 | 00:00:00 | |
| OE5DXL-15 | 2026-09-02 02:08:49 | 48.38356 | 13.52942 | 349° | 5km/h | 556m | -2.5m/s | 17.4°C | 67.4% | 960.2hPa | 2.7V | 00:00:00 | 00:00:00 | 00:00:00 | |
| OE5MMP-10 | 2026-09-02 02:08:48 | 48.38354 | 13.52942 | 6° | 5km/h | 558m | -2.8m/s | 17.5°C | 65.5% | 960.0hPa | 2.7V | 06:57:00 | 03:39:37 | 00:00:00 | |
| OE5DXL-15 | 2026-09-02 02:08:47 | 48.38353 | 13.52942 | 352° | 7km/h | 561m | -2.4m/s | 17.6°C | 63.8% | 959.7hPa | 2.7V | 00:00:00 | 00:00:00 | 00:00:00 | |
| OE5MMP-10 | 2026-09-02 02:08:46 | 48.38351 | 13.52942 | 23° | 5km/h | 564m | -2.6m/s | 17.7°C | 62.8% | 959.4hPa | 2.7V | 00:00:00 | 03:39:35 | 00:00:00 | |
| OE5DXL-15 | 2026-09-02 02:08:45 | 48.38350 | 13.52941 | 7° | 7km/h | 566m | -2.4m/s | 17.7°C | 62.7% | 959.1hPa | 2.7V | 00:00:00 | 00:00:00 | 00:00:00 | |
| OE5MMP-10 | 2026-09-02 02:08:44 | 48.38348 | 13.52940 | 25° | 7km/h | 568m | -2.4m/s | 17.8°C | 62.6% | 958.7hPa | 2.7V | 00:00:00 | 03:39:33 | 00:00:00 | |
| OE5DXL-15 | 2026-09-02 02:08:43 | 48.38347 | 13.52939 | 37° | 7km/h | 571m | -2.2m/s | 17.9°C | 61.7% | 958.6hPa | 2.7V | 06:57:00 | 00:00:00 | 00:00:00 | |
| OE5MMP-10 | 2026-09-02 02:08:42 | 48.38345 | 13.52937 | 33° | 9km/h | 573m | -2.3m/s | 18.0°C | 60.4% | 958.1hPa | 2.7V | 00:00:00 | 03:39:31 | 00:00:00 | |
| OE5DXL-15 | 2026-09-02 02:08:41 | 48.38343 | 13.52936 | 25° | 9km/h | 575m | -2.2m/s | 18.0°C | 60.2% | 958.0hPa | 2.7V | 00:00:00 | 00:00:00 | 00:00:00 | |
| OE5MMP-10 | 2026-09-02 02:08:40 | 48.38341 | 13.52934 | 31° | 9km/h | 577m | -2.3m/s | 18.0°C | 60.0% | 957.7hPa | 2.7V | 00:00:00 | 03:39:29 | 00:00:00 | |
| OE5DXL-15 | 2026-09-02 02:08:39 | 48.38339 | 13.52932 | 33° | 9km/h | 580m | -2.8m/s | 18.0°C | 60.1% | 957.4hPa | 2.7V | 00:00:00 | 00:00:00 | 00:00:00 | |
| OE5MMP-10 | 2026-09-02 02:08:38 | 48.38338 | 13.52930 | 46° | 9km/h | 582m | -2.1m/s | 18.0°C | 59.8% | 957.2hPa | 2.7V | 00:00:00 | 03:39:27 | 00:00:00 | |
| OE3JTB-15 | 2026-09-02 02:08:37 | 48.38336 | 13.52928 | 56° | 9km/h | 585m | -1.9m/s | 18.1°C | 59.6% | 956.9hPa | 2.7V | 00:00:00 | 00:00:00 | 00:00:00 | |
| OE5DXL-15 | 2026-09-02 02:08:37 | 48.38336 | 13.52928 | 56° | 9km/h | 585m | -1.9m/s | 18.1°C | 59.6% | 956.9hPa | 2.7V | 00:00:00 | 00:00:00 | 00:00:00 | |
| OE5MMP-10 | 2026-09-02 02:08:36 | 48.38335 | 13.52925 | 62° | 9km/h | 586m | -2.1m/s | 18.1°C | 59.4% | 956.6hPa | 2.7V | 00:00:00 | 03:39:25 | 00:00:00 | |
| OE5DXL-15 | 2026-09-02 02:08:35 | 48.38334 | 13.52922 | 72° | 9km/h | 589m | -2.1m/s | 18.1°C | 59.4% | 956.6hPa | 2.7V | 00:00:00 | 00:00:00 | 00:00:00 | |
| OE5MMP-10 | 2026-09-02 02:08:34 | 48.38334 | 13.52919 | 80° | 9km/h | 591m | -2.3m/s | 18.1°C | 59.5% | 956.2hPa | 2.7V | 06:57:00 | 03:39:23 | 00:00:00 | |
| OE3JTB-15 | 2026-09-02 02:08:34 | 48.38334 | 13.52919 | 80° | 9km/h | 591m | -2.3m/s | 18.1°C | 59.5% | 956.2hPa | 2.7V | 00:00:00 | 00:00:00 | 00:00:00 | |
| OE5DXL-15 | 2026-09-02 02:08:33 | 48.38333 | 13.52915 | 86° | 9km/h | 593m | -2.4m/s | 18.0°C | 59.4% | 956.1hPa | 2.7V | 00:00:00 | 00:00:00 | 00:00:00 | |
| OE3JTB-15 | 2026-09-02 02:08:32 | 48.38333 | 13.52912 | 89° | 9km/h | 596m | -2.3m/s | 18.1°C | 59.1% | 955.8hPa | 2.7V | 00:00:00 | 03:39:21 | 00:00:00 | |
| OE5MMP-10 | 2026-09-02 02:08:32 | 48.38333 | 13.52912 | 89° | 9km/h | 596m | -2.3m/s | 18.1°C | 59.1% | 955.8hPa | 2.7V | 00:00:00 | 03:39:21 | 00:00:00 | |
| OE5DXL-15 | 2026-09-02 02:08:31 | 48.38333 | 13.52908 | 94° | 9km/h | 598m | -2.4m/s | 18.1°C | 59.0% | 955.4hPa | 2.7V | 00:00:00 | 00:00:00 | 00:00:00 | |
| OE3JTB-15 | 2026-09-02 02:08:30 | 48.38333 | 13.52905 | 93° | 9km/h | 601m | -2.3m/s | 18.1°C | 58.8% | 955.2hPa | 2.7V | 00:00:00 | 00:00:00 | 00:00:00 | |
| OE5MMP-10 | 2026-09-02 02:08:30 | 48.38333 | 13.52905 | 93° | 9km/h | 601m | -2.3m/s | 18.1°C | 58.8% | 955.2hPa | 2.7V | 00:00:00 | 03:39:19 | 00:00:00 | |
| OE5DXL-15 | 2026-09-02 02:08:29 | 48.38334 | 13.52901 | 105° | 9km/h | 603m | -2.3m/s | 18.1°C | 58.7% | 954.9hPa | 2.7V | 06:57:00 | 00:00:00 | 00:00:00 | |
| OE3JTB-15 | 2026-09-02 02:08:28 | 48.38334 | 13.52898 | 102° | 9km/h | 605m | -2.4m/s | 18.1°C | 58.4% | 954.7hPa | 2.7V | 06:57:00 | 00:00:00 | 00:00:00 | |
| OE5MMP-10 | 2026-09-02 02:08:28 | 48.38334 | 13.52898 | 102° | 9km/h | 605m | -2.4m/s | 18.1°C | 58.4% | 954.7hPa | 2.7V | 00:00:00 | 03:39:17 | 00:00:00 | |
| OE5DXL-15 | 2026-09-02 02:08:27 | 48.38334 | 13.52894 | 103° | 9km/h | 608m | -2.7m/s | 18.2°C | 58.0% | 954.5hPa | 2.7V | 00:00:00 | 00:00:00 | 00:00:00 | |
| OE3JTB-15 | 2026-09-02 02:08:26 | 48.38335 | 13.52891 | 104° | 9km/h | 611m | -2.4m/s | 18.2°C | 57.8% | 954.0hPa | 2.7V | 00:00:00 | 03:39:15 | 00:00:00 | |
| OE5MMP-10 | 2026-09-02 02:08:26 | 48.38335 | 13.52891 | 104° | 9km/h | 611m | -2.4m/s | 18.2°C | 57.8% | 954.0hPa | 2.7V | 00:00:00 | 03:39:15 | 00:00:00 | |
| OE3JTB-15 | 2026-09-02 02:08:24 | 48.38336 | 13.52884 | 99° | 9km/h | 615m | -2.2m/s | 18.3°C | 57.0% | 953.5hPa | 2.7V | 00:00:00 | 00:00:00 | 00:00:00 | |
| OE5MMP-10 | 2026-09-02 02:08:24 | 48.38336 | 13.52884 | 99° | 9km/h | 615m | -2.2m/s | 18.3°C | 57.0% | 953.5hPa | 2.7V | 00:00:00 | 03:39:13 | 00:00:00 | |
| OE3JTB-15 | 2026-09-02 02:08:22 | 48.38336 | 13.52877 | 104° | 9km/h | 620m | -2.5m/s | 18.2°C | 57.1% | 952.9hPa | 2.7V | 00:00:00 | 00:00:00 | 00:00:00 | |
| OE5MMP-10 | 2026-09-02 02:08:22 | 48.38336 | 13.52877 | 104° | 9km/h | 620m | -2.5m/s | 18.2°C | 57.1% | 952.9hPa | 2.7V | 00:00:00 | 03:39:11 | 00:00:00 | |
| OE5DXL-15 | 2026-09-02 02:08:21 | 48.38337 | 13.52874 | 117° | 9km/h | 622m | -2.8m/s | 18.3°C | 56.9% | 952.6hPa | 2.7V | 00:00:00 | 00:00:00 | 00:00:00 | |
| OE5MMP-10 | 2026-09-02 02:08:20 | 48.38338 | 13.52870 | 107° | 11km/h | 625m | -3.0m/s | 18.2°C | 56.9% | 952.3hPa | 2.7V | 06:57:00 | 03:39:09 | 00:00:00 | |
| OE3JTB-15 | 2026-09-02 02:08:20 | 48.38338 | 13.52870 | 107° | 11km/h | 625m | -3.0m/s | 18.2°C | 56.9% | 952.3hPa | 2.7V | 00:00:00 | 03:39:09 | 00:00:00 | |
| OE3JTB-15 | 2026-09-02 02:08:18 | 48.38340 | 13.52864 | 109° | 9km/h | 631m | -2.6m/s | 18.2°C | 56.7% | 951.6hPa | 2.7V | 00:00:00 | 00:00:00 | 00:00:00 | |
| OE5MMP-10 | 2026-09-02 02:08:18 | 48.38340 | 13.52864 | 109° | 9km/h | 631m | -2.6m/s | 18.2°C | 56.7% | 951.6hPa | 2.7V | 00:00:00 | 03:39:07 | 00:00:00 | |
| OE3JTB-15 | 2026-09-02 02:08:16 | 48.38341 | 13.52858 | 117° | 7km/h | 636m | -2.8m/s | 18.2°C | 56.5% | 951.1hPa | 2.7V | 00:00:00 | 00:00:00 | 00:00:00 | |
| OE5MMP-10 | 2026-09-02 02:08:16 | 48.38341 | 13.52858 | 117° | 7km/h | 636m | -2.8m/s | 18.2°C | 56.5% | 951.1hPa | 2.7V | 00:00:00 | 03:39:05 | 00:00:00 | |
| OE5DXL-15 | 2026-09-02 02:08:15 | 48.38342 | 13.52856 | 135° | 7km/h | 639m | -2.8m/s | 18.2°C | 56.6% | 950.8hPa | 2.7V | 00:00:00 | 00:00:00 | 00:00:00 | |
| OE3JTB-15 | 2026-09-02 02:08:14 | 48.38343 | 13.52853 | 119° | 7km/h | 642m | -3.0m/s | 18.2°C | 56.2% | 950.5hPa | 2.7V | 06:58:00 | 03:39:03 | 00:00:00 | |
| OE5MMP-10 | 2026-09-02 02:08:14 | 48.38343 | 13.52853 | 119° | 7km/h | 642m | -3.0m/s | 18.2°C | 56.2% | 950.5hPa | 2.7V | 00:00:00 | 03:39:03 | 00:00:00 | |
| OE3JTB-15 | 2026-09-02 02:08:12 | 48.38345 | 13.52849 | 120° | 7km/h | 647m | -2.8m/s | 18.4°C | 54.9% | 950.1hPa | 2.7V | 00:00:00 | 00:00:00 | 00:00:00 | |
| OE5MMP-10 | 2026-09-02 02:08:12 | 48.38345 | 13.52849 | 120° | 7km/h | 647m | -2.8m/s | 18.4°C | 54.9% | 950.1hPa | 2.7V | 00:00:00 | 03:39:01 | 00:00:00 | |
| OE3JTB-15 | 2026-09-02 02:08:10 | 48.38348 | 13.52845 | 125° | 5km/h | 653m | -2.7m/s | 18.4°C | 54.9% | 949.2hPa | 2.7V | 00:00:00 | 00:00:00 | 00:00:00 | |
| OE5MMP-10 | 2026-09-02 02:08:10 | 48.38348 | 13.52845 | 125° | 5km/h | 653m | -2.7m/s | 18.4°C | 54.9% | 949.2hPa | 2.7V | 00:00:00 | 03:38:59 | 00:00:00 | |
| OE5DXL-15 | 2026-09-02 02:08:09 | 48.38349 | 13.52843 | 146° | 5km/h | 655m | -2.6m/s | 18.4°C | 55.0% | 949.1hPa | 2.7V | 00:00:00 | 00:00:00 | 00:00:00 | |
| OE3JTB-15 | 2026-09-02 02:08:08 | 48.38350 | 13.52842 | 136° | 5km/h | 658m | -2.5m/s | 18.4°C | 55.0% | 948.9hPa | 2.7V | 00:00:00 | 03:38:57 | 00:00:00 | |
| OE5MMP-10 | 2026-09-02 02:08:08 | 48.38350 | 13.52842 | 136° | 5km/h | 658m | -2.5m/s | 18.4°C | 55.0% | 948.9hPa | 2.7V | 00:00:00 | 03:38:57 | 00:00:00 | |
| OE3JTB-15 | 2026-09-02 02:08:06 | 48.38353 | 13.52840 | 140° | 5km/h | 663m | -2.3m/s | 18.4°C | 55.2% | 948.3hPa | 2.7V | 00:00:00 | 00:00:00 | 00:00:00 | |
| OE5MMP-10 | 2026-09-02 02:08:06 | 48.38353 | 13.52840 | 140° | 5km/h | 663m | -2.3m/s | 18.4°C | 55.2% | 948.3hPa | 2.7V | 06:58:00 | 03:38:55 | 00:00:00 | |
| OE3JTB-15 | 2026-09-02 02:08:04 | 48.38355 | 13.52837 | 145° | 5km/h | 668m | -2.5m/s | 18.3°C | 55.5% | 947.7hPa | 2.7V | 00:00:00 | 00:00:00 | 00:00:00 | |
| OE5MMP-10 | 2026-09-02 02:08:04 | 48.38355 | 13.52837 | 145° | 5km/h | 668m | -2.5m/s | 18.3°C | 55.5% | 947.7hPa | 2.7V | 00:00:00 | 03:38:53 | 00:00:00 | |
| OE5DXL-15 | 2026-09-02 02:08:03 | 48.38356 | 13.52836 | 158° | 5km/h | 671m | -2.8m/s | 18.3°C | 55.4% | 947.4hPa | 2.7V | 00:00:00 | 00:00:00 | 00:00:00 | |
| OE3JTB-15 | 2026-09-02 02:08:02 | 48.38358 | 13.52836 | 151° | 5km/h | 673m | -2.7m/s | 18.3°C | 55.5% | 947.0hPa | 2.7V | 00:00:00 | 03:38:51 | 00:00:00 | |
| OE5MMP-10 | 2026-09-02 02:08:02 | 48.38358 | 13.52836 | 151° | 5km/h | 673m | -2.7m/s | 18.3°C | 55.5% | 947.0hPa | 2.7V | 00:00:00 | 03:38:51 | 00:00:00 | |
| OE5MMP-10 | 2026-09-02 02:08:00 | 48.38360 | 13.52834 | 147° | 5km/h | 679m | -3.0m/s | 18.2°C | 55.7% | 946.6hPa | 2.7V | 00:00:00 | 03:38:49 | 00:00:00 | |
| OE3JTB-15 | 2026-09-02 02:08:00 | 48.38360 | 13.52834 | 147° | 5km/h | 679m | -3.0m/s | 18.2°C | 55.7% | 946.6hPa | 2.7V | 06:58:00 | 00:00:00 | 00:00:00 | |
| OE3JTB-15 | 2026-09-02 02:07:58 | 48.38362 | 13.52833 | 172° | 5km/h | 685m | -2.8m/s | 18.2°C | 55.8% | 946.0hPa | 2.7V | 00:00:00 | 00:00:00 | 00:00:00 | |
| OE5MMP-10 | 2026-09-02 02:07:58 | 48.38362 | 13.52833 | 172° | 5km/h | 685m | -2.8m/s | 18.2°C | 55.8% | 946.0hPa | 2.7V | 00:00:00 | 03:38:47 | 00:00:00 | |
| OE5DXL-15 | 2026-09-02 02:07:57 | 48.38364 | 13.52832 | 159° | 5km/h | 688m | -2.8m/s | 18.2°C | 55.7% | 945.6hPa | 2.7V | 00:00:00 | 00:00:00 | 00:00:00 | |
| OE3JTB-15 | 2026-09-02 02:07:56 | 48.38365 | 13.52832 | 159° | 4km/h | 691m | -2.4m/s | 18.2°C | 55.9% | 945.2hPa | 2.7V | 00:00:00 | 03:38:45 | 00:00:00 | |
| OE5MMP-10 | 2026-09-02 02:07:56 | 48.38365 | 13.52832 | 159° | 4km/h | 691m | -2.4m/s | 18.2°C | 55.9% | 945.2hPa | 2.7V | 00:00:00 | 03:38:45 | 00:00:00 | |
| OE3JTB-15 | 2026-09-02 02:07:54 | 48.38367 | 13.52831 | 176° | 5km/h | 696m | -2.5m/s | 18.1°C | 55.7% | 944.7hPa | 2.7V | 00:00:00 | 00:00:00 | 00:00:00 | |
| OE5MMP-10 | 2026-09-02 02:07:54 | 48.38367 | 13.52831 | 176° | 5km/h | 696m | -2.5m/s | 18.1°C | 55.7% | 944.7hPa | 2.7V | 00:00:00 | 03:38:43 | 00:00:00 | |
| OE5MMP-10 | 2026-09-02 02:07:52 | 48.38369 | 13.52830 | 183° | 4km/h | 701m | -2.5m/s | 18.1°C | 55.9% | 944.2hPa | 2.7V | 06:58:00 | 03:38:41 | 00:00:00 | |
| OE3JTB-15 | 2026-09-02 02:07:52 | 48.38369 | 13.52830 | 183° | 4km/h | 701m | -2.5m/s | 18.1°C | 55.9% | 944.2hPa | 2.7V | 00:00:00 | 00:00:00 | 00:00:00 | |
| OE5DXL-15 | 2026-09-02 02:07:51 | 48.38370 | 13.52830 | 197° | 2km/h | 703m | -2.7m/s | 18.1°C | 55.7% | 944.0hPa | 2.7V | 06:58:00 | 00:00:00 | 00:00:00 | |
| OE5MMP-10 | 2026-09-02 02:07:50 | 48.38371 | 13.52830 | 189° | 2km/h | 706m | -2.5m/s | 18.1°C | 55.6% | 943.6hPa | 2.7V | 00:00:00 | 03:38:39 | 00:00:00 | |
| OE3JTB-15 | 2026-09-02 02:07:50 | 48.38371 | 13.52830 | 189° | 2km/h | 706m | -2.5m/s | 18.1°C | 55.6% | 943.6hPa | 2.7V | 00:00:00 | 03:38:39 | 00:00:00 | |
| OE3JTB-15 | 2026-09-02 02:07:48 | 48.38372 | 13.52831 | 277° | 2km/h | 711m | -2.3m/s | 18.1°C | 55.7% | 943.1hPa | 2.7V | 00:00:00 | 00:00:00 | 00:00:00 | |
| OE5MMP-10 | 2026-09-02 02:07:48 | 48.38372 | 13.52831 | 277° | 2km/h | 711m | -2.3m/s | 18.1°C | 55.7% | 943.1hPa | 2.7V | 00:00:00 | 03:38:37 | 00:00:00 | |
| OE3JTB-15 | 2026-09-02 02:07:46 | 48.38372 | 13.52833 | 249° | 2km/h | 716m | -2.5m/s | 18.1°C | 55.5% | 942.5hPa | 2.7V | 06:58:00 | 00:00:00 | 00:00:00 | |
| OE5MMP-10 | 2026-09-02 02:07:46 | 48.38372 | 13.52833 | 249° | 2km/h | 716m | -2.5m/s | 18.1°C | 55.5% | 942.5hPa | 2.7V | 00:00:00 | 03:38:35 | 00:00:00 | |
| OE5DXL-15 | 2026-09-02 02:07:45 | 48.38372 | 13.52834 | 282° | 4km/h | 718m | -2.6m/s | 18.1°C | 55.5% | 942.2hPa | 2.7V | 00:00:00 | 00:00:00 | 00:00:00 | |
| OE5MMP-10 | 2026-09-02 02:07:44 | 48.38371 | 13.52834 | 324° | 2km/h | 721m | -2.5m/s | 18.1°C | 55.5% | 942.0hPa | 2.7V | 00:00:00 | 03:38:33 | 00:00:00 | |
| OE3JTB-15 | 2026-09-02 02:07:44 | 48.38371 | 13.52834 | 324° | 2km/h | 721m | -2.5m/s | 18.1°C | 55.5% | 942.0hPa | 2.7V | 00:00:00 | 03:38:33 | 00:00:00 | |
| OE3JTB-15 | 2026-09-02 02:07:42 | 48.38371 | 13.52836 | 313° | 4km/h | 726m | -2.3m/s | 18.2°C | 55.3% | 941.6hPa | 2.7V | 00:00:00 | 00:00:00 | 00:00:00 | |
| OE5MMP-10 | 2026-09-02 02:07:42 | 48.38371 | 13.52836 | 313° | 4km/h | 726m | -2.3m/s | 18.2°C | 55.3% | 941.6hPa | 2.7V | 00:00:00 | 03:38:31 | 00:00:00 | |
| OE5DXL-15 | 2026-09-02 02:07:39 | 48.38368 | 13.52839 | 332° | 4km/h | 733m | -2.6m/s | 18.1°C | 55.2% | 940.7hPa | 2.7V | 00:00:00 | 00:00:00 | 00:00:00 | |
| OE3JTB-15 | 2026-09-02 02:07:38 | 48.38367 | 13.52839 | 351° | 5km/h | 737m | -2.3m/s | 18.1°C | 55.3% | 940.3hPa | 2.7V | 00:00:00 | 03:38:27 | 00:00:00 | |
| OE5MMP-10 | 2026-09-02 02:07:38 | 48.38367 | 13.52839 | 351° | 5km/h | 737m | -2.3m/s | 18.1°C | 55.3% | 940.3hPa | 2.7V | 06:58:00 | 03:38:27 | 00:00:00 | |
| OE5MMP-10 | 2026-09-02 02:07:36 | 48.38365 | 13.52841 | 312° | 4km/h | 742m | -2.7m/s | 18.1°C | 55.0% | 939.8hPa | 2.7V | 00:00:00 | 03:38:25 | 00:00:00 | |
| OE3JTB-15 | 2026-09-02 02:07:36 | 48.38365 | 13.52841 | 312° | 4km/h | 742m | -2.7m/s | 18.1°C | 55.0% | 939.8hPa | 2.7V | 00:00:00 | 00:00:00 | 00:00:00 | |
| OE5MMP-10 | 2026-09-02 02:07:34 | 48.38364 | 13.52843 | 343° | 5km/h | 747m | -2.3m/s | 18.1°C | 55.1% | 939.3hPa | 2.7V | 00:00:00 | 03:38:23 | 00:00:00 | |
| OE3JTB-15 | 2026-09-02 02:07:34 | 48.38364 | 13.52843 | 343° | 5km/h | 747m | -2.3m/s | 18.1°C | 55.1% | 939.3hPa | 2.7V | 00:00:00 | 00:00:00 | 00:00:00 | |
| OE5DXL-15 | 2026-09-02 02:07:33 | 48.38362 | 13.52843 | 340° | 5km/h | 749m | -2.5m/s | 18.1°C | 55.0% | 939.1hPa | 2.7V | 00:00:00 | 00:00:00 | 00:00:00 | |
| OE3JTB-15 | 2026-09-02 02:07:32 | 48.38361 | 13.52845 | 332° | 5km/h | 752m | -2.4m/s | 18.1°C | 55.0% | 938.7hPa | 2.7V | 06:58:00 | 03:38:21 | 00:00:00 | |
| OE5MMP-10 | 2026-09-02 02:07:32 | 48.38361 | 13.52845 | 332° | 5km/h | 752m | -2.4m/s | 18.1°C | 55.0% | 938.7hPa | 2.7V | 00:00:00 | 03:38:21 | 00:00:00 | |
| OE3JTB-15 | 2026-09-02 02:07:30 | 48.38358 | 13.52845 | 350° | 7km/h | 757m | -2.3m/s | 18.1°C | 55.0% | 938.3hPa | 2.7V | 00:00:00 | 00:00:00 | 00:00:00 | |
| OE5MMP-10 | 2026-09-02 02:07:30 | 48.38358 | 13.52845 | 350° | 7km/h | 757m | -2.3m/s | 18.1°C | 55.0% | 938.3hPa | 2.7V | 00:00:00 | 03:38:19 | 00:00:00 | |
| OE5MMP-10 | 2026-09-02 02:07:28 | 48.38355 | 13.52846 | 3° | 7km/h | 762m | -2.4m/s | 18.0°C | 55.2% | 937.7hPa | 2.7V | 00:00:00 | 03:38:17 | 00:00:00 | |
| OE3JTB-15 | 2026-09-02 02:07:28 | 48.38355 | 13.52846 | 3° | 7km/h | 762m | -2.4m/s | 18.0°C | 55.2% | 937.7hPa | 2.7V | 00:00:00 | 00:00:00 | 00:00:00 | |
| OE5DXL-15 | 2026-09-02 02:07:27 | 48.38353 | 13.52846 | 349° | 7km/h | 764m | -2.6m/s | 18.0°C | 55.2% | 937.3hPa | 2.7V | 00:00:00 | 00:00:00 | 00:00:00 | |
| OE5MMP-10 | 2026-09-02 02:07:26 | 48.38351 | 13.52846 | 350° | 5km/h | 767m | -2.6m/s | 18.0°C | 55.3% | 937.1hPa | 2.7V | 00:00:00 | 03:38:15 | 00:00:00 | |
| OE3JTB-15 | 2026-09-02 02:07:26 | 48.38351 | 13.52846 | 350° | 5km/h | 767m | -2.6m/s | 18.0°C | 55.3% | 937.1hPa | 2.7V | 00:00:00 | 03:38:15 | 00:00:00 | |
| OE3JTB-15 | 2026-09-02 02:07:24 | 48.38347 | 13.52847 | 350° | 7km/h | 772m | -2.5m/s | 18.0°C | 55.3% | 936.5hPa | 2.7V | 00:00:00 | 00:00:00 | 00:00:00 | |
| OE5MMP-10 | 2026-09-02 02:07:24 | 48.38347 | 13.52847 | 350° | 7km/h | 772m | -2.5m/s | 18.0°C | 55.3% | 936.5hPa | 2.7V | 06:58:00 | 03:38:13 | 00:00:00 | |
| OE3JTB-15 | 2026-09-02 02:07:22 | 48.38344 | 13.52847 | 13° | 9km/h | 777m | -2.5m/s | 17.9°C | 55.5% | 935.9hPa | 2.7V | 00:00:00 | 00:00:00 | 00:00:00 | |
| OE5MMP-10 | 2026-09-02 02:07:22 | 48.38344 | 13.52847 | 13° | 9km/h | 777m | -2.5m/s | 17.9°C | 55.5% | 935.9hPa | 2.7V | 00:00:00 | 03:38:11 | 00:00:00 | |
| OE5DXL-15 | 2026-09-02 02:07:21 | 48.38342 | 13.52847 | 4° | 9km/h | 779m | -2.3m/s | 17.9°C | 55.5% | 935.7hPa | 2.7V | 00:00:00 | 00:00:00 | 00:00:00 | |
| OE3JTB-15 | 2026-09-02 02:07:20 | 48.38339 | 13.52846 | 11° | 9km/h | 782m | -2.4m/s | 17.9°C | 55.6% | 935.4hPa | 2.7V | 00:00:00 | 03:38:09 | 00:00:00 | |
| OE5MMP-10 | 2026-09-02 02:07:20 | 48.38339 | 13.52846 | 11° | 9km/h | 782m | -2.4m/s | 17.9°C | 55.6% | 935.4hPa | 2.7V | 00:00:00 | 03:38:09 | 00:00:00 | |
| OE5MMP-10 | 2026-09-02 02:07:18 | 48.38335 | 13.52844 | 23° | 11km/h | 787m | -2.5m/s | 17.9°C | 55.6% | 935.0hPa | 2.7V | 00:00:00 | 03:38:07 | 00:00:00 | |
| OE3JTB-15 | 2026-09-02 02:07:18 | 48.38335 | 13.52844 | 23° | 11km/h | 787m | -2.5m/s | 17.9°C | 55.6% | 935.0hPa | 2.7V | 06:58:00 | 00:00:00 | 00:00:00 | |
| OE5FHM-15 | 2026-09-02 02:07:17 | 48.38333 | 13.52842 | 25° | 11km/h | 789m | -2.5m/s | 17.9°C | 55.6% | 934.6hPa | 2.7V | 00:00:00 | 03:38:06 | 00:00:00 | |
| OE3JTB-15 | 2026-09-02 02:07:16 | 48.38331 | 13.52840 | 38° | 9km/h | 792m | -2.2m/s | 17.9°C | 55.7% | 934.3hPa | 2.7V | 00:00:00 | 00:00:00 | 00:00:00 | |
| OE5MMP-10 | 2026-09-02 02:07:16 | 48.38331 | 13.52840 | 38° | 9km/h | 792m | -2.2m/s | 17.9°C | 55.7% | 934.3hPa | 2.7V | 00:00:00 | 03:38:05 | 00:00:00 | |
| OE3JTB-15 | 2026-09-02 02:07:14 | 48.38326 | 13.52836 | 25° | 9km/h | 797m | -2.5m/s | 17.8°C | 55.9% | 933.6hPa | 2.7V | 00:00:00 | 03:38:03 | 00:00:00 | |
| OE5MMP-10 | 2026-09-02 02:07:14 | 48.38326 | 13.52836 | 25° | 9km/h | 797m | -2.5m/s | 17.8°C | 55.9% | 933.6hPa | 2.7V | 00:00:00 | 03:38:03 | 00:00:00 | |
| OE3JTB-15 | 2026-09-02 02:07:12 | 48.38322 | 13.52832 | 36° | 11km/h | 802m | -2.7m/s | 17.8°C | 56.0% | 933.1hPa | 2.7V | 00:00:00 | 00:00:00 | 00:00:00 | |
| OE5MMP-10 | 2026-09-02 02:07:12 | 48.38322 | 13.52832 | 36° | 11km/h | 802m | -2.7m/s | 17.8°C | 56.0% | 933.1hPa | 2.7V | 00:00:00 | 03:38:01 | 00:00:00 | |
| OE3JTB-15 | 2026-09-02 02:07:10 | 48.38317 | 13.52828 | 24° | 11km/h | 807m | -2.5m/s | 17.8°C | 56.1% | 932.7hPa | 2.7V | 00:00:00 | 00:00:00 | 00:00:00 | |
| OE5MMP-10 | 2026-09-02 02:07:10 | 48.38317 | 13.52828 | 24° | 11km/h | 807m | -2.5m/s | 17.8°C | 56.1% | 932.7hPa | 2.7V | 06:59:00 | 03:37:59 | 00:00:00 | |
| OE5DXL-15 | 2026-09-02 02:07:09 | 48.38315 | 13.52826 | 35° | 11km/h | 810m | -2.6m/s | 17.8°C | 55.9% | 932.2hPa | 2.7V | 06:59:00 | 00:00:00 | 00:00:00 | |
| OE5MMP-10 | 2026-09-02 02:07:08 | 48.38313 | 13.52823 | 37° | 11km/h | 813m | -2.7m/s | 17.8°C | 56.0% | 931.8hPa | 2.7V | 00:00:00 | 03:37:57 | 00:00:00 | |
| OE3JTB-15 | 2026-09-02 02:07:08 | 48.38313 | 13.52823 | 37° | 11km/h | 813m | -2.7m/s | 17.8°C | 56.0% | 931.8hPa | 2.7V | 00:00:00 | 03:37:57 | 00:00:00 | |
| OE3JTB-15 | 2026-09-02 02:07:06 | 48.38308 | 13.52819 | 25° | 11km/h | 818m | -2.5m/s | 17.7°C | 55.9% | 931.3hPa | 2.7V | 00:00:00 | 00:00:00 | 00:00:00 | |
| OE5MMP-10 | 2026-09-02 02:07:06 | 48.38308 | 13.52819 | 25° | 11km/h | 818m | -2.5m/s | 17.7°C | 55.9% | 931.3hPa | 2.7V | 00:00:00 | 03:37:55 | 00:00:00 | |
| OE3JTB-15 | 2026-09-02 02:07:04 | 48.38304 | 13.52815 | 36° | 11km/h | 823m | -2.7m/s | 17.7°C | 56.1% | 930.8hPa | 2.7V | 06:59:00 | 00:00:00 | 00:00:00 | |
| OE5MMP-10 | 2026-09-02 02:07:04 | 48.38304 | 13.52815 | 36° | 11km/h | 823m | -2.7m/s | 17.7°C | 56.1% | 930.8hPa | 2.7V | 00:00:00 | 03:37:53 | 00:00:00 | |
| OE5DXL-15 | 2026-09-02 02:07:03 | 48.38301 | 13.52812 | 27° | 11km/h | 826m | -2.4m/s | 17.7°C | 56.2% | 930.6hPa | 2.7V | 00:00:00 | 00:00:00 | 00:00:00 | |
| OE3JTB-15 | 2026-09-02 02:07:02 | 48.38299 | 13.52810 | 39° | 11km/h | 828m | -2.5m/s | 17.6°C | 56.3% | 930.3hPa | 2.7V | 00:00:00 | 03:37:51 | 00:00:00 | |
| OE5MMP-10 | 2026-09-02 02:07:02 | 48.38299 | 13.52810 | 39° | 11km/h | 828m | -2.5m/s | 17.6°C | 56.3% | 930.3hPa | 2.7V | 00:00:00 | 03:37:51 | 00:00:00 | |
| OE3JTB-15 | 2026-09-02 02:07:00 | 48.38295 | 13.52805 | 30° | 11km/h | 834m | -2.7m/s | 17.6°C | 56.3% | 929.9hPa | 2.7V | 00:00:00 | 00:00:00 | 00:00:00 | |
| OE5MMP-10 | 2026-09-02 02:07:00 | 48.38295 | 13.52805 | 30° | 11km/h | 834m | -2.7m/s | 17.6°C | 56.3% | 929.9hPa | 2.7V | 00:00:00 | 03:37:49 | 00:00:00 | |
| OE3JTB-15 | 2026-09-02 02:06:58 | 48.38290 | 13.52801 | 38° | 11km/h | 839m | -2.5m/s | 17.6°C | 56.6% | 929.1hPa | 2.7V | 00:00:00 | 00:00:00 | 00:00:00 | |
| OE5MMP-10 | 2026-09-02 02:06:58 | 48.38290 | 13.52801 | 38° | 11km/h | 839m | -2.5m/s | 17.6°C | 56.6% | 929.1hPa | 2.7V | 00:00:00 | 03:37:47 | 00:00:00 | |
| OE5DXL-15 | 2026-09-02 02:06:57 | 48.38288 | 13.52799 | 37° | 11km/h | 841m | -2.7m/s | 17.6°C | 56.5% | 928.9hPa | 2.7V | 00:00:00 | 00:00:00 | 00:00:00 | |
| OE3JTB-15 | 2026-09-02 02:06:56 | 48.38286 | 13.52797 | 28° | 11km/h | 844m | -2.7m/s | 17.5°C | 56.6% | 928.6hPa | 2.7V | 00:00:00 | 03:37:45 | 00:00:00 | |
| OE5MMP-10 | 2026-09-02 02:06:56 | 48.38286 | 13.52797 | 28° | 11km/h | 844m | -2.7m/s | 17.5°C | 56.6% | 928.6hPa | 2.7V | 06:59:00 | 03:37:45 | 00:00:00 | |
| OE5MMP-10 | 2026-09-02 02:06:54 | 48.38281 | 13.52793 | 34° | 11km/h | 849m | -2.5m/s | 17.5°C | 56.7% | 928.1hPa | 2.7V | 00:00:00 | 03:37:43 | 00:00:00 | |
| OE3JTB-15 | 2026-09-02 02:06:54 | 48.38281 | 13.52793 | 34° | 11km/h | 849m | -2.5m/s | 17.5°C | 56.7% | 928.1hPa | 2.7V | 00:00:00 | 00:00:00 | 00:00:00 | |
| OE5FHM-15 | 2026-09-02 02:06:54 | 48.38281 | 13.52793 | 34° | 11km/h | 849m | -2.5m/s | 17.5°C | 56.7% | 928.1hPa | 2.7V | 00:00:00 | 03:37:43 | 00:00:00 | |
| OE3JTB-15 | 2026-09-02 02:06:52 | 48.38277 | 13.52788 | 35° | 11km/h | 854m | -2.7m/s | 17.5°C | 56.7% | 927.4hPa | 2.7V | 00:00:00 | 00:00:00 | 00:00:00 | |
| OE5MMP-10 | 2026-09-02 02:06:52 | 48.38277 | 13.52788 | 35° | 11km/h | 854m | -2.7m/s | 17.5°C | 56.7% | 927.4hPa | 2.7V | 00:00:00 | 03:37:41 | 00:00:00 | |
| OE5DXL-15 | 2026-09-02 02:06:51 | 48.38274 | 13.52786 | 30° | 11km/h | 857m | -2.4m/s | 17.5°C | 56.7% | 927.1hPa | 2.7V | 00:00:00 | 00:00:00 | 00:00:00 | |
| OE3JTB-15 | 2026-09-02 02:06:50 | 48.38272 | 13.52784 | 42° | 11km/h | 860m | -2.6m/s | 17.5°C | 56.7% | 926.9hPa | 2.7V | 06:59:00 | 03:37:39 | 00:00:00 | |
| OE5MMP-10 | 2026-09-02 02:06:50 | 48.38272 | 13.52784 | 42° | 11km/h | 860m | -2.6m/s | 17.5°C | 56.7% | 926.9hPa | 2.7V | 00:00:00 | 03:37:39 | 00:00:00 | |
| OE3JTB-15 | 2026-09-02 02:06:48 | 48.38268 | 13.52777 | 49° | 13km/h | 865m | -2.5m/s | 17.4°C | 56.8% | 926.3hPa | 2.7V | 00:00:00 | 00:00:00 | 00:00:00 | |
| OE5MMP-10 | 2026-09-02 02:06:48 | 48.38268 | 13.52777 | 49° | 13km/h | 865m | -2.5m/s | 17.4°C | 56.8% | 926.3hPa | 2.7V | 00:00:00 | 03:37:37 | 00:00:00 | |
| OE5DXL-15 | 2026-09-02 02:06:45 | 48.38262 | 13.52768 | 53° | 11km/h | 872m | -2.5m/s | 17.4°C | 57.0% | 925.4hPa | 2.7V | 00:00:00 | 00:00:00 | 00:00:00 | |
| OE3JTB-15 | 2026-09-02 02:06:44 | 48.38260 | 13.52764 | 53° | 13km/h | 875m | -2.7m/s | 17.4°C | 57.0% | 925.2hPa | 2.7V | 00:00:00 | 03:37:33 | 00:00:00 | |
| OE5MMP-10 | 2026-09-02 02:06:44 | 48.38260 | 13.52764 | 53° | 13km/h | 875m | -2.7m/s | 17.4°C | 57.0% | 925.2hPa | 2.7V | 00:00:00 | 03:37:33 | 00:00:00 | |
| OE3JTB-15 | 2026-09-02 02:06:42 | 48.38256 | 13.52758 | 58° | 11km/h | 881m | -2.8m/s | 17.3°C | 57.1% | 924.7hPa | 2.7V | 00:00:00 | 00:00:00 | 00:00:00 | |
| OE5MMP-10 | 2026-09-02 02:06:42 | 48.38256 | 13.52758 | 58° | 11km/h | 881m | -2.8m/s | 17.3°C | 57.1% | 924.7hPa | 2.7V | 06:59:00 | 03:37:31 | 00:00:00 | |
| OE3JTB-15 | 2026-09-02 02:06:40 | 48.38254 | 13.52749 | 71° | 11km/h | 886m | -2.6m/s | 17.3°C | 57.2% | 924.0hPa | 2.7V | 00:00:00 | 00:00:00 | 00:00:00 | |
| OE5MMP-10 | 2026-09-02 02:06:40 | 48.38254 | 13.52749 | 71° | 11km/h | 886m | -2.6m/s | 17.3°C | 57.2% | 924.0hPa | 2.7V | 00:00:00 | 03:37:29 | 00:00:00 | |
| OE5FHM-15 | 2026-09-02 02:06:39 | 48.38253 | 13.52745 | 70° | 9km/h | 888m | -2.5m/s | 17.3°C | 57.2% | 923.7hPa | 2.7V | 06:59:00 | 03:37:28 | 00:00:00 | |
| OE5DXL-15 | 2026-09-02 02:06:39 | 48.38253 | 13.52745 | 70° | 11km/h | 888m | -2.5m/s | 17.3°C | 57.2% | 923.7hPa | 2.7V | 00:00:00 | 00:00:00 | 00:00:00 | |
| OE3JTB-15 | 2026-09-02 02:06:38 | 48.38252 | 13.52741 | 72° | 9km/h | 891m | -2.7m/s | 17.2°C | 57.4% | 923.5hPa | 2.7V | 00:00:00 | 03:37:27 | 00:00:00 | |
| OE5MMP-10 | 2026-09-02 02:06:38 | 48.38252 | 13.52741 | 72° | 9km/h | 891m | -2.7m/s | 17.2°C | 57.4% | 923.5hPa | 2.7V | 00:00:00 | 03:37:27 | 00:00:00 | |
| OE5MMP-10 | 2026-09-02 02:06:36 | 48.38252 | 13.52734 | 90° | 11km/h | 896m | -2.6m/s | 17.2°C | 57.5% | 922.9hPa | 2.7V | 00:00:00 | 03:37:25 | 00:00:00 | |
| OE3JTB-15 | 2026-09-02 02:06:36 | 48.38252 | 13.52734 | 90° | 11km/h | 896m | -2.6m/s | 17.2°C | 57.5% | 922.9hPa | 2.7V | 06:59:00 | 00:00:00 | 00:00:00 | |
| OE5MMP-10 | 2026-09-02 02:06:34 | 48.38252 | 13.52726 | 95° | 7km/h | 901m | -2.7m/s | 17.1°C | 57.6% | 922.4hPa | 2.7V | 00:00:00 | 03:37:23 | 00:00:00 | |
| OE3JTB-15 | 2026-09-02 02:06:34 | 48.38252 | 13.52726 | 95° | 7km/h | 901m | -2.7m/s | 17.1°C | 57.6% | 922.4hPa | 2.7V | 00:00:00 | 00:00:00 | 00:00:00 | |
| OE5DXL-15 | 2026-09-02 02:06:33 | 48.38252 | 13.52723 | 101° | 7km/h | 903m | -2.9m/s | 17.1°C | 57.8% | 922.1hPa | 2.7V | 00:00:00 | 00:00:00 | 00:00:00 | |
| OE3JTB-15 | 2026-09-02 02:06:32 | 48.38253 | 13.52720 | 115° | 9km/h | 906m | -2.8m/s | 17.1°C | 57.8% | 921.8hPa | 2.7V | 00:00:00 | 03:37:21 | 00:00:00 | |
| OE5MMP-10 | 2026-09-02 02:06:32 | 48.38253 | 13.52720 | 115° | 9km/h | 906m | -2.8m/s | 17.1°C | 57.8% | 921.8hPa | 2.7V | 00:00:00 | 03:37:21 | 00:00:00 | |
| OE3JTB-15 | 2026-09-02 02:06:30 | 48.38255 | 13.52714 | 109° | 7km/h | 912m | -2.6m/s | 17.1°C | 57.9% | 921.3hPa | 2.7V | 00:00:00 | 00:00:00 | 00:00:00 | |
| OE5MMP-10 | 2026-09-02 02:06:30 | 48.38255 | 13.52714 | 109° | 7km/h | 912m | -2.6m/s | 17.1°C | 57.9% | 921.3hPa | 2.7V | 00:00:00 | 03:37:19 | 00:00:00 | |
| OE5MMP-10 | 2026-09-02 02:06:28 | 48.38256 | 13.52709 | 126° | 9km/h | 917m | -2.6m/s | 17.0°C | 58.1% | 920.7hPa | 2.7V | 06:59:00 | 03:37:17 | 00:00:00 | |
| OE3JTB-15 | 2026-09-02 02:06:28 | 48.38256 | 13.52709 | 126° | 9km/h | 917m | -2.6m/s | 17.0°C | 58.1% | 920.7hPa | 2.7V | 00:00:00 | 00:00:00 | 00:00:00 | |
| OE5DXL-15 | 2026-09-02 02:06:27 | 48.38257 | 13.52706 | 110° | 7km/h | 919m | -2.6m/s | 17.0°C | 58.1% | 920.3hPa | 2.7V | 06:59:00 | 00:00:00 | 00:00:00 | |
| OE5MMP-10 | 2026-09-02 02:06:26 | 48.38258 | 13.52703 | 111° | 7km/h | 922m | -2.4m/s | 17.0°C | 58.3% | 920.0hPa | 2.7V | 00:00:00 | 03:37:15 | 00:00:00 | |
| OE3JTB-15 | 2026-09-02 02:06:26 | 48.38258 | 13.52703 | 111° | 7km/h | 922m | -2.4m/s | 17.0°C | 58.3% | 920.0hPa | 2.7V | 00:00:00 | 03:37:15 | 00:00:00 | |
| OE3JTB-15 | 2026-09-02 02:06:24 | 48.38260 | 13.52699 | 131° | 7km/h | 927m | -2.8m/s | 16.9°C | 58.3% | 919.5hPa | 2.7V | 00:00:00 | 00:00:00 | 00:00:00 | |
| OE5MMP-10 | 2026-09-02 02:06:24 | 48.38260 | 13.52699 | 131° | 7km/h | 927m | -2.8m/s | 16.9°C | 58.3% | 919.5hPa | 2.7V | 00:00:00 | 03:37:13 | 00:00:00 | |
| OE3JTB-15 | 2026-09-02 02:06:22 | 48.38262 | 13.52694 | 135° | 5km/h | 932m | -2.8m/s | 16.9°C | 58.5% | 918.9hPa | 2.7V | 06:59:00 | 00:00:00 | 00:00:00 | |
| OE5MMP-10 | 2026-09-02 02:06:22 | 48.38262 | 13.52694 | 135° | 5km/h | 932m | -2.8m/s | 16.9°C | 58.5% | 918.9hPa | 2.7V | 00:00:00 | 03:37:11 | 00:00:00 | |
| OE5DXL-15 | 2026-09-02 02:06:21 | 48.38263 | 13.52693 | 131° | 4km/h | 935m | -2.3m/s | 16.9°C | 58.5% | 918.6hPa | 2.7V | 00:00:00 | 00:00:00 | 00:00:00 | |
| OE3JTB-15 | 2026-09-02 02:06:20 | 48.38264 | 13.52692 | 132° | 4km/h | 938m | -2.4m/s | 16.8°C | 58.6% | 918.3hPa | 2.7V | 00:00:00 | 03:37:09 | 00:00:00 | |
| OE5MMP-10 | 2026-09-02 02:06:20 | 48.38264 | 13.52692 | 132° | 4km/h | 938m | -2.4m/s | 16.8°C | 58.6% | 918.3hPa | 2.7V | 00:00:00 | 03:37:09 | 00:00:00 | |
| OE5MMP-10 | 2026-09-02 02:06:18 | 48.38265 | 13.52690 | 153° | 4km/h | 943m | -2.6m/s | 16.8°C | 58.7% | 918.0hPa | 2.7V | 00:00:00 | 03:37:07 | 00:00:00 | |
| OE3JTB-15 | 2026-09-02 02:06:18 | 48.38265 | 13.52690 | 153° | 4km/h | 943m | -2.6m/s | 16.8°C | 58.7% | 918.0hPa | 2.7V | 00:00:00 | 00:00:00 | 00:00:00 | |
| OE5WHR-10 | 2026-09-02 02:06:17 | 48.38266 | 13.52689 | 159° | 2km/h | 945m | -2.3m/s | 16.8°C | 58.7% | 917.5hPa | 2.7V | 00:00:00 | 00:00:00 | 00:00:00 | |
| OE3JTB-15 | 2026-09-02 02:06:16 | 48.38267 | 13.52689 | 176° | 4km/h | 948m | -2.6m/s | 16.8°C | 58.8% | 917.2hPa | 2.7V | 00:00:00 | 00:00:00 | 00:00:00 | |
| OE5MMP-10 | 2026-09-02 02:06:16 | 48.38267 | 13.52689 | 176° | 4km/h | 948m | -2.6m/s | 16.8°C | 58.8% | 917.2hPa | 2.7V | 00:00:00 | 03:37:05 | 00:00:00 | |
| OE5DXL-15 | 2026-09-02 02:06:15 | 48.38267 | 13.52688 | 167° | 4km/h | 950m | -2.8m/s | 16.7°C | 58.8% | 916.8hPa | 2.7V | 00:00:00 | 00:00:00 | 00:00:00 | |
| OE3JTB-15 | 2026-09-02 02:06:14 | 48.38268 | 13.52688 | 216° | 0km/h | 953m | -2.5m/s | 16.7°C | 58.8% | 916.7hPa | 2.7V | 00:00:00 | 03:37:03 | 00:00:00 | |
| OE5MMP-10 | 2026-09-02 02:06:14 | 48.38268 | 13.52688 | 216° | 0km/h | 953m | -2.5m/s | 16.7°C | 58.8% | 916.7hPa | 2.7V | 00:00:00 | 03:37:03 | 00:00:00 | |
| OE3JTB-15 | 2026-09-02 02:06:12 | 48.38268 | 13.52689 | 333° | 4km/h | 958m | -2.1m/s | 16.7°C | 58.8% | 916.2hPa | 2.7V | 00:00:00 | 00:00:00 | 00:00:00 | |
| OE5MMP-10 | 2026-09-02 02:06:12 | 48.38268 | 13.52689 | 333° | 4km/h | 958m | -2.1m/s | 16.7°C | 58.8% | 916.2hPa | 2.7V | 07:00:00 | 03:37:01 | 00:00:00 | |
| OE5WHR-10 | 2026-09-02 02:06:12 | 48.38268 | 13.52689 | 333° | 5km/h | 958m | -2.1m/s | 16.7°C | 58.8% | 916.2hPa | 2.7V | 07:00:00 | 00:00:00 | 00:00:00 | |
| OE5MMP-10 | 2026-09-02 02:06:10 | 48.38266 | 13.52689 | 1° | 7km/h | 963m | -2.1m/s | 16.6°C | 59.0% | 915.7hPa | 2.7V | 00:00:00 | 03:36:59 | 00:00:00 | |
| OE3JTB-15 | 2026-09-02 02:06:10 | 48.38266 | 13.52689 | 1° | 7km/h | 963m | -2.1m/s | 16.6°C | 59.0% | 915.7hPa | 2.7V | 00:00:00 | 00:00:00 | 00:00:00 | |
| OE5DXL-15 | 2026-09-02 02:06:09 | 48.38264 | 13.52689 | 15° | 7km/h | 965m | -2.7m/s | 16.6°C | 59.1% | 915.6hPa | 2.7V | 00:00:00 | 00:00:00 | 00:00:00 | |
| OE5WHR-10 | 2026-09-02 02:06:09 | 48.38264 | 13.52689 | 15° | 7km/h | 965m | -2.7m/s | 16.6°C | 59.1% | 915.6hPa | 2.7V | 00:00:00 | 03:36:58 | 00:00:00 | |
| OE3JTB-15 | 2026-09-02 02:06:08 | 48.38262 | 13.52688 | 11° | 9km/h | 968m | -2.5m/s | 16.6°C | 59.1% | 915.1hPa | 2.7V | 00:00:00 | 03:36:57 | 00:00:00 | |
| OE5MMP-10 | 2026-09-02 02:06:08 | 48.38262 | 13.52688 | 11° | 9km/h | 968m | -2.5m/s | 16.6°C | 59.1% | 915.1hPa | 2.7V | 00:00:00 | 03:36:57 | 00:00:00 | |
| OE3JTB-15 | 2026-09-02 02:06:06 | 48.38258 | 13.52686 | 15° | 7km/h | 973m | -2.6m/s | 16.5°C | 59.2% | 914.6hPa | 2.7V | 00:00:00 | 00:00:00 | 00:00:00 | |
| OE5FHM-15 | 2026-09-02 02:06:06 | 48.38258 | 13.52686 | 15° | 7km/h | 973m | -2.6m/s | 16.5°C | 59.2% | 914.6hPa | 2.7V | 00:00:00 | 03:36:55 | 00:00:00 | |
| OE5MMP-10 | 2026-09-02 02:06:06 | 48.38258 | 13.52686 | 15° | 7km/h | 973m | -2.6m/s | 16.5°C | 59.2% | 914.6hPa | 2.7V | 00:00:00 | 03:36:55 | 00:00:00 | |
| OE5WHR-10 | 2026-09-02 02:06:06 | 48.38258 | 13.52686 | 15° | 7km/h | 973m | -2.6m/s | 16.5°C | 59.2% | 914.6hPa | 2.7V | 00:00:00 | 00:00:00 | 00:00:00 | |
| OE5MMP-10 | 2026-09-02 02:06:04 | 48.38254 | 13.52685 | 18° | 9km/h | 977m | -2.6m/s | 16.5°C | 59.3% | 914.0hPa | 2.7V | 00:00:00 | 03:36:53 | 00:00:00 | |
| OE3JTB-15 | 2026-09-02 02:06:04 | 48.38254 | 13.52685 | 18° | 9km/h | 977m | -2.6m/s | 16.5°C | 59.3% | 914.0hPa | 2.7V | 07:00:00 | 00:00:00 | 00:00:00 | |
| OE5DXL-15 | 2026-09-02 02:06:03 | 48.38252 | 13.52684 | 22° | 7km/h | 980m | -2.7m/s | 16.5°C | 59.5% | 913.7hPa | 2.7V | 00:00:00 | 00:00:00 | 00:00:00 | |
| OE5WHR-10 | 2026-09-02 02:06:03 | 48.38252 | 13.52684 | 22° | 7km/h | 980m | -2.7m/s | 16.5°C | 59.5% | 913.7hPa | 2.7V | 00:00:00 | 00:00:00 | 00:00:00 | |
| OE3JTB-15 | 2026-09-02 02:06:02 | 48.38250 | 13.52682 | 19° | 7km/h | 983m | -2.5m/s | 16.4°C | 59.5% | 913.4hPa | 2.7V | 00:00:00 | 03:36:51 | 00:00:00 | |
| OE5MMP-10 | 2026-09-02 02:06:02 | 48.38250 | 13.52682 | 19° | 7km/h | 983m | -2.5m/s | 16.4°C | 59.5% | 913.4hPa | 2.7V | 00:00:00 | 03:36:51 | 00:00:00 | |
| OE5DRO-10 | 2026-09-02 02:06:01 | 48.38248 | 13.52682 | 16° | 7km/h | 986m | -2.5m/s | 16.4°C | 59.5% | 913.2hPa | 2.7V | 00:00:00 | 00:00:00 | 00:00:00 | |
| OE5FHM-15 | 2026-09-02 02:06:01 | 48.38248 | 13.52682 | 16° | 7km/h | 986m | -2.5m/s | 16.4°C | 59.5% | 913.2hPa | 2.7V | 00:00:00 | 03:36:50 | 00:00:00 | |
| OE3JTB-15 | 2026-09-02 02:06:00 | 48.38246 | 13.52681 | 17° | 7km/h | 988m | -2.7m/s | 16.4°C | 59.6% | 913.0hPa | 2.7V | 00:00:00 | 00:00:00 | 00:00:00 | |
| OE5MMP-10 | 2026-09-02 02:06:00 | 48.38246 | 13.52681 | 17° | 7km/h | 988m | -2.7m/s | 16.4°C | 59.6% | 913.0hPa | 2.7V | 00:00:00 | 03:36:49 | 00:00:00 | |
| OE5WHR-10 | 2026-09-02 02:06:00 | 48.38246 | 13.52681 | 17° | 9km/h | 988m | -2.7m/s | 16.4°C | 59.6% | 913.0hPa | 2.7V | 00:00:00 | 03:36:49 | 00:00:00 | |
| OE5DRO-10 | 2026-09-02 02:05:59 | 48.38244 | 13.52680 | 15° | 9km/h | 991m | -2.7m/s | 16.4°C | 59.7% | 912.7hPa | 2.7V | 00:00:00 | 00:00:00 | 00:00:00 | |
| OE3JTB-15 | 2026-09-02 02:05:58 | 48.38242 | 13.52679 | 18° | 9km/h | 994m | -2.7m/s | 16.3°C | 59.7% | 912.4hPa | 2.7V | 00:00:00 | 00:00:00 | 00:00:00 | |
| OE5MMP-10 | 2026-09-02 02:05:58 | 48.38242 | 13.52679 | 18° | 9km/h | 994m | -2.7m/s | 16.3°C | 59.7% | 912.4hPa | 2.7V | 00:00:00 | 03:36:47 | 00:00:00 | |
| OE5WHR-10 | 2026-09-02 02:05:57 | 48.38240 | 13.52678 | 25° | 9km/h | 996m | -2.5m/s | 16.3°C | 59.9% | 912.0hPa | 2.7V | 00:00:00 | 00:00:00 | 00:00:00 | |
| OE5DXL-15 | 2026-09-02 02:05:57 | 48.38240 | 13.52678 | 25° | 11km/h | 996m | -2.5m/s | 16.3°C | 59.9% | 912.0hPa | 2.7V | 00:00:00 | 00:00:00 | 00:00:00 | |
| OE5DRO-10 | 2026-09-02 02:05:56 | 48.38238 | 13.52676 | 34° | 9km/h | 999m | -2.5m/s | 16.3°C | 59.9% | 911.7hPa | 2.7V | 00:00:00 | 00:00:00 | 00:00:00 | |
| OE3JTB-15 | 2026-09-02 02:05:56 | 48.38238 | 13.52676 | 34° | 9km/h | 999m | -2.5m/s | 16.3°C | 59.9% | 911.7hPa | 2.7V | 00:00:00 | 03:36:45 | 00:00:00 | |
| OE5MMP-10 | 2026-09-02 02:05:56 | 48.38238 | 13.52676 | 34° | 11km/h | 999m | -2.5m/s | 16.3°C | 59.9% | 911.7hPa | 2.7V | 07:00:00 | 03:36:45 | 00:00:00 | |
| OE5FHM-15 | 2026-09-02 02:05:56 | 48.38238 | 13.52676 | 34° | 11km/h | 999m | -2.5m/s | 16.3°C | 59.9% | 911.7hPa | 2.7V | 00:00:00 | 03:36:45 | 00:00:00 | |
| OE3JTB-15 | 2026-09-02 02:05:54 | 48.38234 | 13.52671 | 40° | 11km/h | 1004m | -2.9m/s | 16.2°C | 60.0% | 911.4hPa | 2.7V | 00:00:00 | 00:00:00 | 00:00:00 | |
| OE5DRO-10 | 2026-09-02 02:05:54 | 48.38234 | 13.52671 | 40° | 11km/h | 1004m | -2.9m/s | 16.2°C | 60.0% | 911.4hPa | 2.7V | 00:00:00 | 00:00:00 | 00:00:00 | |
| OE5WHR-10 | 2026-09-02 02:05:54 | 48.38234 | 13.52671 | 40° | 11km/h | 1004m | -2.9m/s | 16.2°C | 60.0% | 911.4hPa | 2.7V | 00:00:00 | 00:00:00 | 00:00:00 | |
| OE5MMP-10 | 2026-09-02 02:05:52 | 48.38230 | 13.52666 | 36° | 11km/h | 1009m | -2.3m/s | 16.2°C | 60.0% | 910.7hPa | 2.7V | 00:00:00 | 03:36:41 | 00:00:00 | |
| OE5DRO-10 | 2026-09-02 02:05:52 | 48.38230 | 13.52666 | 36° | 11km/h | 1009m | -2.3m/s | 16.2°C | 60.0% | 910.7hPa | 2.7V | 00:00:00 | 00:00:00 | 00:00:00 | |
| OE3JTB-15 | 2026-09-02 02:05:52 | 48.38230 | 13.52666 | 36° | 11km/h | 1009m | -2.3m/s | 16.2°C | 60.0% | 910.7hPa | 2.7V | 00:00:00 | 00:00:00 | 00:00:00 | |
| OE5WHR-10 | 2026-09-02 02:05:51 | 48.38227 | 13.52663 | 46° | 11km/h | 1012m | -2.7m/s | 16.2°C | 60.1% | 910.4hPa | 2.7V | 00:00:00 | 03:36:40 | 00:00:00 | |
| OE5FHM-15 | 2026-09-02 02:05:51 | 48.38227 | 13.52663 | 46° | 11km/h | 1012m | -2.7m/s | 16.2°C | 60.1% | 910.4hPa | 2.7V | 00:00:00 | 03:36:40 | 00:00:00 | |
| OE5DXL-15 | 2026-09-02 02:05:51 | 48.38227 | 13.52663 | 46° | 11km/h | 1012m | -2.7m/s | 16.2°C | 60.1% | 910.4hPa | 2.7V | 07:00:00 | 00:00:00 | 00:00:00 | |
| OE5DRO-10 | 2026-09-02 02:05:50 | 48.38226 | 13.52660 | 52° | 11km/h | 1014m | -2.6m/s | 16.1°C | 60.2% | 910.2hPa | 2.7V | 00:00:00 | 00:00:00 | 00:00:00 | |
| OE3JTB-15 | 2026-09-02 02:05:50 | 48.38226 | 13.52660 | 52° | 11km/h | 1014m | -2.6m/s | 16.1°C | 60.2% | 910.2hPa | 2.7V | 00:00:00 | 03:36:39 | 00:00:00 | |
| OE5DRO-10 | 2026-09-02 02:05:48 | 48.38222 | 13.52653 | 45° | 13km/h | 1020m | -2.5m/s | 16.1°C | 60.2% | 909.5hPa | 2.7V | 00:00:00 | 00:00:00 | 00:00:00 | |
| OE3JTB-15 | 2026-09-02 02:05:48 | 48.38222 | 13.52653 | 45° | 13km/h | 1020m | -2.5m/s | 16.1°C | 60.2% | 909.5hPa | 2.7V | 07:00:00 | 00:00:00 | 00:00:00 | |
| OE5WHR-10 | 2026-09-02 02:05:48 | 48.38222 | 13.52653 | 45° | 11km/h | 1020m | -2.5m/s | 16.1°C | 60.2% | 909.5hPa | 2.7V | 07:00:00 | 00:00:00 | 00:00:00 | |
| OE5MMP-10 | 2026-09-02 02:05:47 | 48.38220 | 13.52650 | 47° | 13km/h | 1022m | -2.6m/s | 16.1°C | 60.0% | 909.4hPa | 2.7V | 00:00:00 | 03:36:36 | 00:00:00 | |
| OE3JTB-15 | 2026-09-02 02:05:46 | 48.38218 | 13.52647 | 61° | 11km/h | 1024m | -2.5m/s | 16.1°C | 60.1% | 908.8hPa | 2.7V | 00:00:00 | 00:00:00 | 00:00:00 | |
| OE5DRO-10 | 2026-09-02 02:05:46 | 48.38218 | 13.52647 | 61° | 11km/h | 1024m | -2.5m/s | 16.1°C | 60.1% | 908.8hPa | 2.7V | 07:00:00 | 00:00:00 | 00:00:00 | |
| OE5DXL-15 | 2026-09-02 02:05:45 | 48.38217 | 13.52643 | 63° | 13km/h | 1027m | -2.7m/s | 16.0°C | 60.2% | 908.9hPa | 2.7V | 00:00:00 | 00:00:00 | 00:00:00 | |
| OE5WHR-10 | 2026-09-02 02:05:45 | 48.38217 | 13.52643 | 63° | 13km/h | 1027m | -2.7m/s | 16.0°C | 60.2% | 908.9hPa | 2.7V | 00:00:00 | 00:00:00 | 00:00:00 | |
| OE5DRO-10 | 2026-09-02 02:05:44 | 48.38215 | 13.52638 | 65° | 13km/h | 1030m | -2.5m/s | 16.0°C | 60.1% | 908.6hPa | 2.7V | 00:00:00 | 00:00:00 | 00:00:00 | |
| OE3JTB-15 | 2026-09-02 02:05:44 | 48.38215 | 13.52638 | 65° | 13km/h | 1030m | -2.5m/s | 16.0°C | 60.1% | 908.6hPa | 2.7V | 00:00:00 | 03:36:33 | 00:00:00 | |
| OE3JTB-15 | 2026-09-02 02:05:42 | 48.38213 | 13.52630 | 68° | 13km/h | 1035m | -2.8m/s | 16.0°C | 59.9% | 907.9hPa | 2.7V | 00:00:00 | 00:00:00 | 00:00:00 | |
| OE5DRO-10 | 2026-09-02 02:05:42 | 48.38213 | 13.52630 | 68° | 13km/h | 1035m | -2.8m/s | 16.0°C | 59.9% | 907.9hPa | 2.7V | 00:00:00 | 00:00:00 | 00:00:00 | |
| OE5MMP-10 | 2026-09-02 02:05:42 | 48.38213 | 13.52630 | 68° | 13km/h | 1035m | -2.8m/s | 16.0°C | 59.9% | 907.9hPa | 2.7V | 00:00:00 | 03:36:31 | 00:00:00 | |
| OE5WHR-10 | 2026-09-02 02:05:42 | 48.38213 | 13.52630 | 68° | 13km/h | 1035m | -2.8m/s | 16.0°C | 59.9% | 907.9hPa | 2.7V | 00:00:00 | 03:36:31 | 00:00:00 | |
| OE3JTB-15 | 2026-09-02 02:05:40 | 48.38211 | 13.52621 | 76° | 13km/h | 1040m | -2.6m/s | 15.9°C | 59.9% | 907.3hPa | 2.7V | 00:00:00 | 00:00:00 | 00:00:00 | |
| OE5FHM-15 | 2026-09-02 02:05:39 | 48.38210 | 13.52616 | 83° | 11km/h | 1043m | -2.6m/s | 15.9°C | 59.9% | 907.2hPa | 2.7V | 00:00:00 | 03:36:28 | 00:00:00 | |
| OE5DRO-10 | 2026-09-02 02:05:39 | 48.38210 | 13.52616 | 83° | 13km/h | 1043m | -2.6m/s | 15.9°C | 59.9% | 907.2hPa | 2.7V | 00:00:00 | 00:00:00 | 00:00:00 | |
| OE5DXL-15 | 2026-09-02 02:05:39 | 48.38210 | 13.52616 | 83° | 11km/h | 1043m | -2.6m/s | 15.9°C | 59.9% | 907.2hPa | 2.7V | 00:00:00 | 00:00:00 | 00:00:00 | |
| OE5WHR-10 | 2026-09-02 02:05:39 | 48.38210 | 13.52616 | 83° | 13km/h | 1043m | -2.6m/s | 15.9°C | 59.9% | 907.2hPa | 2.7V | 00:00:00 | 00:00:00 | 00:00:00 | |
| OE3JTB-15 | 2026-09-02 02:05:38 | 48.38210 | 13.52611 | 87° | 13km/h | 1045m | -2.4m/s | 15.9°C | 60.1% | 907.0hPa | 2.7V | 00:00:00 | 03:36:27 | 00:00:00 | |
| OE5DRO-10 | 2026-09-02 02:05:37 | 48.38210 | 13.52606 | 90° | 11km/h | 1048m | -2.6m/s | 15.9°C | 60.2% | 906.7hPa | 2.7V | 00:00:00 | 00:00:00 | 00:00:00 | |
| OE5MMP-10 | 2026-09-02 02:05:37 | 48.38210 | 13.52606 | 90° | 11km/h | 1048m | -2.6m/s | 15.9°C | 60.2% | 906.7hPa | 2.7V | 00:00:00 | 03:36:26 | 00:00:00 | |
| OE3JTB-15 | 2026-09-02 02:05:36 | 48.38210 | 13.52602 | 101° | 11km/h | 1051m | -2.3m/s | 15.9°C | 60.3% | 906.3hPa | 2.7V | 00:00:00 | 00:00:00 | 00:00:00 | |
| OE5WHR-10 | 2026-09-02 02:05:36 | 48.38210 | 13.52602 | 101° | 11km/h | 1051m | -2.3m/s | 15.9°C | 60.3% | 906.3hPa | 2.7V | 00:00:00 | 00:00:00 | 00:00:00 | |
| OE5DRO-10 | 2026-09-02 02:05:35 | 48.38211 | 13.52598 | 105° | 11km/h | 1053m | -2.4m/s | 15.8°C | 60.4% | 906.0hPa | 2.7V | 00:00:00 | 00:00:00 | 00:00:00 | |
| OE3JTB-15 | 2026-09-02 02:05:34 | 48.38212 | 13.52594 | 100° | 9km/h | 1056m | -2.4m/s | 15.8°C | 60.5% | 905.7hPa | 2.7V | 00:00:00 | 00:00:00 | 00:00:00 | |
| OE5DRO-10 | 2026-09-02 02:05:33 | 48.38212 | 13.52590 | 99° | 9km/h | 1058m | -2.3m/s | 15.8°C | 60.5% | 905.5hPa | 2.7V | 00:00:00 | 00:00:00 | 00:00:00 | |
| OE5WHR-10 | 2026-09-02 02:05:33 | 48.38212 | 13.52590 | 99° | 9km/h | 1058m | -2.3m/s | 15.8°C | 60.5% | 905.5hPa | 2.7V | 00:00:00 | 03:36:22 | 00:00:00 | |
| OE5DXL-15 | 2026-09-02 02:05:33 | 48.38212 | 13.52590 | 99° | 9km/h | 1058m | -2.3m/s | 15.8°C | 60.5% | 905.5hPa | 2.7V | 00:00:00 | 03:36:22 | 00:00:00 | |
| OE5MMP-10 | 2026-09-02 02:05:32 | 48.38213 | 13.52586 | 96° | 9km/h | 1061m | -2.0m/s | 15.8°C | 60.5% | 905.2hPa | 2.7V | 00:00:00 | 03:36:21 | 00:00:00 | |
| OE3JTB-15 | 2026-09-02 02:05:32 | 48.38213 | 13.52586 | 96° | 9km/h | 1061m | -2.0m/s | 15.8°C | 60.5% | 905.2hPa | 2.7V | 07:00:00 | 03:36:21 | 00:00:00 | |
| OE5DRO-10 | 2026-09-02 02:05:31 | 48.38213 | 13.52582 | 97° | 9km/h | 1063m | -2.2m/s | 15.7°C | 60.6% | 905.1hPa | 2.7V | 00:00:00 | 00:00:00 | 00:00:00 | |
| OE3JTB-15 | 2026-09-02 02:05:30 | 48.38213 | 13.52578 | 96° | 11km/h | 1065m | -2.1m/s | 15.7°C | 60.7% | 904.8hPa | 2.7V | 00:00:00 | 00:00:00 | 00:00:00 | |
| OE5WHR-10 | 2026-09-02 02:05:30 | 48.38213 | 13.52578 | 96° | 11km/h | 1065m | -2.1m/s | 15.7°C | 60.7% | 904.8hPa | 2.7V | 00:00:00 | 00:00:00 | 00:00:00 | |
| OE5DRO-10 | 2026-09-02 02:05:29 | 48.38214 | 13.52574 | 96° | 11km/h | 1067m | -2.1m/s | 15.7°C | 60.7% | 904.5hPa | 2.7V | 07:00:00 | 00:00:00 | 00:00:00 | |
| OE3JTB-15 | 2026-09-02 02:05:28 | 48.38214 | 13.52570 | 96° | 9km/h | 1069m | -2.1m/s | 15.7°C | 60.7% | 904.3hPa | 2.7V | 00:00:00 | 00:00:00 | 00:00:00 | |
| OE5DRO-10 | 2026-09-02 02:05:27 | 48.38214 | 13.52567 | 97° | 9km/h | 1071m | -2.2m/s | 15.7°C | 60.7% | 903.9hPa | 2.7V | 00:00:00 | 00:00:00 | 00:00:00 | |
| OE5MMP-10 | 2026-09-02 02:05:27 | 48.38214 | 13.52567 | 97° | 9km/h | 1071m | -2.2m/s | 15.7°C | 60.7% | 903.9hPa | 2.7V | 00:00:00 | 03:36:16 | 00:00:00 | |
| OE5WHR-10 | 2026-09-02 02:05:27 | 48.38214 | 13.52567 | 97° | 9km/h | 1071m | -2.2m/s | 15.7°C | 60.7% | 903.9hPa | 2.7V | 00:00:00 | 00:00:00 | 00:00:00 | |
| OE5DXL-15 | 2026-09-02 02:05:27 | 48.38214 | 13.52567 | 97° | 9km/h | 1071m | -2.2m/s | 15.7°C | 60.7% | 903.9hPa | 2.7V | 00:00:00 | 00:00:00 | 00:00:00 | |
| OE3JTB-15 | 2026-09-02 02:05:26 | 48.38214 | 13.52563 | 99° | 9km/h | 1074m | -2.4m/s | 15.6°C | 60.9% | 903.6hPa | 2.7V | 00:00:00 | 03:36:15 | 00:00:00 | |
| OE5DRO-10 | 2026-09-02 02:05:25 | 48.38215 | 13.52560 | 110° | 9km/h | 1076m | -2.7m/s | 15.6°C | 60.9% | 903.3hPa | 2.7V | 00:00:00 | 00:00:00 | 00:00:00 | |
| OE3JTB-15 | 2026-09-02 02:05:24 | 48.38216 | 13.52556 | 120° | 11km/h | 1079m | -2.6m/s | 15.6°C | 60.8% | 903.0hPa | 2.7V | 00:00:00 | 00:00:00 | 00:00:00 | |
| OE5WHR-10 | 2026-09-02 02:05:24 | 48.38216 | 13.52556 | 120° | 11km/h | 1079m | -2.6m/s | 15.6°C | 60.8% | 903.0hPa | 2.7V | 07:00:00 | 03:36:13 | 00:00:00 | |
| OE5DRO-10 | 2026-09-02 02:05:23 | 48.38217 | 13.52553 | 114° | 11km/h | 1081m | -2.8m/s | 15.6°C | 60.7% | 902.8hPa | 2.7V | 00:00:00 | 00:00:00 | 00:00:00 | |
| OE5MMP-10 | 2026-09-02 02:05:22 | 48.38218 | 13.52549 | 109° | 11km/h | 1084m | -2.6m/s | 15.6°C | 60.6% | 902.5hPa | 2.7V | 00:00:00 | 03:36:11 | 00:00:00 | |
| OE3JTB-15 | 2026-09-02 02:05:22 | 48.38218 | 13.52549 | 109° | 11km/h | 1084m | -2.6m/s | 15.6°C | 60.6% | 902.5hPa | 2.7V | 00:00:00 | 00:00:00 | 00:00:00 | |
| OE5DRO-10 | 2026-09-02 02:05:21 | 48.38219 | 13.52545 | 108° | 9km/h | 1087m | -2.4m/s | 15.5°C | 60.7% | 902.3hPa | 2.7V | 00:00:00 | 00:00:00 | 00:00:00 | |
| OE5WHR-10 | 2026-09-02 02:05:21 | 48.38219 | 13.52545 | 108° | 9km/h | 1087m | -2.4m/s | 15.5°C | 60.7% | 902.3hPa | 2.7V | 00:00:00 | 00:00:00 | 00:00:00 | |
| OE5DXL-15 | 2026-09-02 02:05:21 | 48.38219 | 13.52545 | 108° | 9km/h | 1087m | -2.4m/s | 15.5°C | 60.7% | 902.3hPa | 2.7V | 00:00:00 | 00:00:00 | 00:00:00 | |
| OE3JTB-15 | 2026-09-02 02:05:20 | 48.38220 | 13.52542 | 116° | 9km/h | 1089m | -2.7m/s | 15.5°C | 60.8% | 901.9hPa | 2.7V | 00:00:00 | 03:36:09 | 00:00:00 | |
| OE5DRO-10 | 2026-09-02 02:05:19 | 48.38221 | 13.52538 | 119° | 11km/h | 1092m | -2.7m/s | 15.5°C | 60.6% | 901.7hPa | 2.7V | 00:00:00 | 00:00:00 | 00:00:00 | |
| OE3JTB-15 | 2026-09-02 02:05:18 | 48.38222 | 13.52535 | 111° | 9km/h | 1095m | -2.8m/s | 15.5°C | 60.7% | 901.3hPa | 2.7V | 00:00:00 | 00:00:00 | 00:00:00 | |
| OE5WHR-10 | 2026-09-02 02:05:18 | 48.38222 | 13.52535 | 111° | 9km/h | 1095m | -2.8m/s | 15.5°C | 60.7% | 901.3hPa | 2.7V | 00:00:00 | 00:00:00 | 00:00:00 | |
| OE5DRO-10 | 2026-09-02 02:05:17 | 48.38223 | 13.52531 | 112° | 9km/h | 1097m | -2.6m/s | 15.5°C | 60.9% | 901.2hPa | 2.7V | 00:00:00 | 00:00:00 | 00:00:00 | |
| OE5MMP-10 | 2026-09-02 02:05:17 | 48.38223 | 13.52531 | 112° | 9km/h | 1097m | -2.6m/s | 15.5°C | 60.9% | 901.2hPa | 2.7V | 07:00:00 | 03:36:06 | 00:00:00 | |
| OE3JTB-15 | 2026-09-02 02:05:16 | 48.38224 | 13.52528 | 119° | 9km/h | 1100m | -2.8m/s | 15.4°C | 60.9% | 900.9hPa | 2.7V | 07:00:00 | 00:00:00 | 00:00:00 | |
| OE5DRO-10 | 2026-09-02 02:05:15 | 48.38225 | 13.52525 | 111° | 9km/h | 1102m | -2.7m/s | 15.4°C | 61.0% | 900.5hPa | 2.7V | 00:00:00 | 00:00:00 | 00:00:00 | |
| OE5DXL-15 | 2026-09-02 02:05:15 | 48.38225 | 13.52525 | 111° | 9km/h | 1102m | -2.7m/s | 15.4°C | 61.0% | 900.5hPa | 2.7V | 00:00:00 | 00:00:00 | 00:00:00 | |
| OE5WHR-10 | 2026-09-02 02:05:15 | 48.38225 | 13.52525 | 111° | 9km/h | 1102m | -2.7m/s | 15.4°C | 61.0% | 900.5hPa | 2.7V | 00:00:00 | 03:36:04 | 00:00:00 | |
| OE5FHM-15 | 2026-09-02 02:05:14 | 48.38226 | 13.52522 | 122° | 7km/h | 1105m | -2.8m/s | 15.4°C | 61.1% | 900.3hPa | 2.7V | 00:00:00 | 03:36:03 | 00:00:00 | |
| OE3JTB-15 | 2026-09-02 02:05:14 | 48.38226 | 13.52522 | 122° | 9km/h | 1105m | -2.8m/s | 15.4°C | 61.1% | 900.3hPa | 2.7V | 00:00:00 | 03:36:03 | 00:00:00 | |
| OE5DRO-10 | 2026-09-02 02:05:13 | 48.38227 | 13.52518 | 115° | 9km/h | 1108m | -2.8m/s | 15.4°C | 61.1% | 900.0hPa | 2.7V | 07:01:00 | 00:00:00 | 00:00:00 | |
| OE3JTB-15 | 2026-09-02 02:05:12 | 48.38229 | 13.52515 | 114° | 9km/h | 1111m | -2.6m/s | 15.4°C | 61.2% | 899.6hPa | 2.7V | 00:00:00 | 00:00:00 | 00:00:00 | |
| OE5WHR-10 | 2026-09-02 02:05:12 | 48.38229 | 13.52515 | 114° | 9km/h | 1111m | -2.6m/s | 15.4°C | 61.2% | 899.6hPa | 2.7V | 00:00:00 | 00:00:00 | 00:00:00 | |
| OE5MMP-10 | 2026-09-02 02:05:12 | 48.38229 | 13.52515 | 114° | 7km/h | 1111m | -2.6m/s | 15.4°C | 61.2% | 899.6hPa | 2.7V | 00:00:00 | 03:36:01 | 00:00:00 | |
| OE5DRO-10 | 2026-09-02 02:05:11 | 48.38230 | 13.52512 | 130° | 9km/h | 1113m | -2.8m/s | 15.3°C | 61.2% | 899.6hPa | 2.7V | 00:00:00 | 00:00:00 | 00:00:00 | |
| OE3JTB-15 | 2026-09-02 02:05:10 | 48.38231 | 13.52510 | 124° | 9km/h | 1116m | -2.9m/s | 15.3°C | 61.2% | 899.2hPa | 2.7V | 00:00:00 | 00:00:00 | 00:00:00 | |
| OE5DRO-10 | 2026-09-02 02:05:09 | 48.38232 | 13.52507 | 125° | 7km/h | 1119m | -2.8m/s | 15.3°C | 61.3% | 899.0hPa | 2.7V | 00:00:00 | 00:00:00 | 00:00:00 | |
| OE5WHR-10 | 2026-09-02 02:05:09 | 48.38232 | 13.52507 | 125° | 5km/h | 1119m | -2.8m/s | 15.3°C | 61.3% | 899.0hPa | 2.7V | 00:00:00 | 00:00:00 | 00:00:00 | |
| OE5DXL-15 | 2026-09-02 02:05:09 | 48.38232 | 13.52507 | 125° | 5km/h | 1119m | -2.8m/s | 15.3°C | 61.3% | 899.0hPa | 2.7V | 00:00:00 | 00:00:00 | 00:00:00 | |
| OE3JTB-15 | 2026-09-02 02:05:08 | 48.38233 | 13.52505 | 125° | 5km/h | 1122m | -2.2m/s | 15.3°C | 61.4% | 898.6hPa | 2.7V | 00:00:00 | 03:35:57 | 00:00:00 | |
| OE5DRO-10 | 2026-09-02 02:05:07 | 48.38234 | 13.52503 | 137° | 5km/h | 1124m | -2.7m/s | 15.2°C | 61.5% | 898.3hPa | 2.7V | 00:00:00 | 00:00:00 | 00:00:00 | |
| OE5MMP-10 | 2026-09-02 02:05:07 | 48.38234 | 13.52503 | 137° | 4km/h | 1124m | -2.7m/s | 15.2°C | 61.5% | 898.3hPa | 2.7V | 00:00:00 | 03:35:56 | 00:00:00 | |
| OE5WHR-10 | 2026-09-02 02:05:06 | 48.38235 | 13.52502 | 142° | 5km/h | 1127m | -2.6m/s | 15.2°C | 61.4% | 898.1hPa | 2.7V | 00:00:00 | 03:35:55 | 00:00:00 | |
| OE3JTB-15 | 2026-09-02 02:05:06 | 48.38235 | 13.52502 | 142° | 5km/h | 1127m | -2.6m/s | 15.2°C | 61.4% | 898.1hPa | 2.7V | 00:00:00 | 00:00:00 | 00:00:00 | |
| OE5DRO-10 | 2026-09-02 02:05:05 | 48.38236 | 13.52501 | 140° | 4km/h | 1129m | -2.4m/s | 15.2°C | 61.5% | 897.8hPa | 2.7V | 00:00:00 | 00:00:00 | 00:00:00 | |
| OE3JTB-15 | 2026-09-02 02:05:04 | 48.38237 | 13.52500 | 145° | 4km/h | 1131m | -2.7m/s | 15.2°C | 61.4% | 897.5hPa | 2.7V | 00:00:00 | 00:00:00 | 00:00:00 | |
| OE5FHM-15 | 2026-09-02 02:05:04 | 48.38237 | 13.52500 | 145° | 4km/h | 1131m | -2.7m/s | 15.2°C | 61.4% | 897.5hPa | 2.7V | 07:01:00 | 03:35:53 | 00:00:00 | |
| OE5DRO-10 | 2026-09-02 02:05:03 | 48.38238 | 13.52499 | 141° | 2km/h | 1134m | -2.8m/s | 15.2°C | 61.4% | 897.3hPa | 2.7V | 00:00:00 | 00:00:00 | 00:00:00 | |
| OE5WHR-10 | 2026-09-02 02:05:03 | 48.38238 | 13.52499 | 141° | 2km/h | 1134m | -2.8m/s | 15.2°C | 61.4% | 897.3hPa | 2.7V | 00:00:00 | 00:00:00 | 00:00:00 | |
| OE5DXL-15 | 2026-09-02 02:05:03 | 48.38238 | 13.52499 | 141° | 2km/h | 1134m | -2.8m/s | 15.2°C | 61.4% | 897.3hPa | 2.7V | 07:01:00 | 00:00:00 | 00:00:00 | |
| OE3JTB-15 | 2026-09-02 02:05:02 | 48.38238 | 13.52499 | 159° | 2km/h | 1137m | -2.8m/s | 15.1°C | 61.3% | 896.9hPa | 2.7V | 00:00:00 | 03:35:51 | 00:00:00 | |
| OE5MMP-10 | 2026-09-02 02:05:02 | 48.38238 | 13.52499 | 159° | 2km/h | 1137m | -2.8m/s | 15.1°C | 61.3% | 896.9hPa | 2.7V | 00:00:00 | 03:35:51 | 00:00:00 | |
| OE5DRO-10 | 2026-09-02 02:05:01 | 48.38238 | 13.52499 | 351° | 0km/h | 1140m | -2.7m/s | 15.1°C | 61.4% | 896.7hPa | 2.7V | 00:00:00 | 00:00:00 | 00:00:00 | |
| OE3JTB-15 | 2026-09-02 02:05:00 | 48.38238 | 13.52499 | 343° | 2km/h | 1142m | -2.6m/s | 15.1°C | 61.3% | 896.5hPa | 2.7V | 07:01:00 | 00:00:00 | 00:00:00 | |
| OE5WHR-10 | 2026-09-02 02:05:00 | 48.38238 | 13.52499 | 343° | 2km/h | 1142m | -2.6m/s | 15.1°C | 61.3% | 896.5hPa | 2.7V | 07:01:00 | 00:00:00 | 00:00:00 | |
| OE5DRO-10 | 2026-09-02 02:04:59 | 48.38238 | 13.52499 | 356° | 4km/h | 1145m | -2.5m/s | 15.1°C | 61.5% | 896.1hPa | 2.7V | 00:00:00 | 00:00:00 | 00:00:00 | |
| OE3JTB-15 | 2026-09-02 02:04:58 | 48.38237 | 13.52499 | 11° | 5km/h | 1148m | -2.6m/s | 15.1°C | 61.6% | 895.9hPa | 2.7V | 00:00:00 | 00:00:00 | 00:00:00 | |
| OE5DRO-10 | 2026-09-02 02:04:57 | 48.38236 | 13.52499 | 2° | 5km/h | 1150m | -2.3m/s | 15.0°C | 61.6% | 895.8hPa | 2.7V | 07:01:00 | 00:00:00 | 00:00:00 | |
| OE5MMP-10 | 2026-09-02 02:04:57 | 48.38236 | 13.52499 | 2° | 5km/h | 1150m | -2.3m/s | 15.0°C | 61.6% | 895.8hPa | 2.7V | 00:00:00 | 03:35:46 | 00:00:00 | |
| OE5WHR-10 | 2026-09-02 02:04:57 | 48.38236 | 13.52499 | 2° | 5km/h | 1150m | -2.3m/s | 15.0°C | 61.6% | 895.8hPa | 2.7V | 00:00:00 | 03:35:46 | 00:00:00 | |
| OE5DXL-15 | 2026-09-02 02:04:57 | 48.38236 | 13.52499 | 2° | 5km/h | 1150m | -2.3m/s | 15.0°C | 61.6% | 895.8hPa | 2.7V | 00:00:00 | 00:00:00 | 00:00:00 | |
| OE3JTB-15 | 2026-09-02 02:04:56 | 48.38234 | 13.52499 | 21° | 5km/h | 1153m | -2.4m/s | 15.0°C | 61.9% | 895.4hPa | 2.7V | 00:00:00 | 03:35:45 | 00:00:00 | |
| OE5DRO-10 | 2026-09-02 02:04:55 | 48.38233 | 13.52498 | 4° | 4km/h | 1155m | -2.5m/s | 15.0°C | 61.9% | 895.3hPa | 2.7V | 00:00:00 | 00:00:00 | 00:00:00 | |
| OE3JTB-15 | 2026-09-02 02:04:54 | 48.38232 | 13.52498 | 4° | 5km/h | 1158m | -2.4m/s | 15.0°C | 62.1% | 895.1hPa | 2.7V | 00:00:00 | 00:00:00 | 00:00:00 | |
| OE5WHR-10 | 2026-09-02 02:04:54 | 48.38232 | 13.52498 | 4° | 5km/h | 1158m | -2.4m/s | 15.0°C | 62.1% | 895.1hPa | 2.7V | 00:00:00 | 00:00:00 | 00:00:00 | |
| OE5DRO-10 | 2026-09-02 02:04:53 | 48.38231 | 13.52498 | 21° | 5km/h | 1160m | -2.4m/s | 14.9°C | 62.2% | 894.8hPa | 2.7V | 00:00:00 | 00:00:00 | 00:00:00 | |
| OE5FHM-15 | 2026-09-02 02:04:53 | 48.38231 | 13.52498 | 21° | 7km/h | 1160m | -2.4m/s | 14.9°C | 62.2% | 894.8hPa | 2.7V | 00:00:00 | 03:35:42 | 00:00:00 | |
| OE5HKT-10 | 2026-09-02 02:04:53 | 48.38231 | 13.52498 | 21° | 5km/h | 1160m | -2.4m/s | 14.9°C | 62.2% | 894.8hPa | 2.7V | 00:00:00 | 03:35:42 | 00:00:00 | |
| OE3JTB-15 | 2026-09-02 02:04:52 | 48.38230 | 13.52497 | 12° | 5km/h | 1163m | -2.4m/s | 14.9°C | 62.3% | 894.3hPa | 2.7V | 00:00:00 | 00:00:00 | 00:00:00 | |
| OE5MMP-10 | 2026-09-02 02:04:52 | 48.38230 | 13.52497 | 12° | 7km/h | 1163m | -2.4m/s | 14.9°C | 62.3% | 894.3hPa | 2.7V | 00:00:00 | 03:35:41 | 00:00:00 | |
| OE5DRO-10 | 2026-09-02 02:04:51 | 48.38229 | 13.52497 | 12° | 7km/h | 1165m | -2.4m/s | 14.9°C | 62.4% | 894.1hPa | 2.7V | 00:00:00 | 00:00:00 | 00:00:00 | |
| OE5DXL-15 | 2026-09-02 02:04:51 | 48.38229 | 13.52497 | 12° | 7km/h | 1165m | -2.4m/s | 14.9°C | 62.4% | 894.1hPa | 2.7V | 00:00:00 | 00:00:00 | 00:00:00 | |
| OE5WHR-10 | 2026-09-02 02:04:51 | 48.38229 | 13.52497 | 12° | 7km/h | 1165m | -2.4m/s | 14.9°C | 62.4% | 894.1hPa | 2.7V | 00:00:00 | 00:00:00 | 00:00:00 | |
| OE5HKT-10 | 2026-09-02 02:04:50 | 48.38227 | 13.52496 | 18° | 7km/h | 1168m | -2.4m/s | 14.9°C | 62.4% | 893.9hPa | 2.7V | 00:00:00 | 00:00:00 | 00:00:00 | |
| OE3JTB-15 | 2026-09-02 02:04:50 | 48.38227 | 13.52496 | 18° | 7km/h | 1168m | -2.4m/s | 14.9°C | 62.4% | 893.9hPa | 2.7V | 00:00:00 | 03:35:39 | 00:00:00 | |
| OE5DRO-10 | 2026-09-02 02:04:49 | 48.38225 | 13.52495 | 26° | 7km/h | 1170m | -2.5m/s | 14.8°C | 62.6% | 893.5hPa | 2.7V | 00:00:00 | 00:00:00 | 00:00:00 | |
| OE3JTB-15 | 2026-09-02 02:04:48 | 48.38224 | 13.52494 | 33° | 9km/h | 1173m | -2.5m/s | 14.8°C | 62.8% | 893.2hPa | 2.7V | 00:00:00 | 00:00:00 | 00:00:00 | |
| OE5WHR-10 | 2026-09-02 02:04:48 | 48.38224 | 13.52494 | 33° | 9km/h | 1173m | -2.5m/s | 14.8°C | 62.8% | 893.2hPa | 2.7V | 00:00:00 | 03:35:37 | 00:00:00 | |
| OE5DRO-10 | 2026-09-02 02:04:47 | 48.38222 | 13.52492 | 36° | 9km/h | 1175m | -2.4m/s | 14.8°C | 62.9% | 892.9hPa | 2.7V | 00:00:00 | 00:00:00 | 00:00:00 | |
| OE5HKT-10 | 2026-09-02 02:04:47 | 48.38222 | 13.52492 | 36° | 9km/h | 1175m | -2.4m/s | 14.8°C | 62.9% | 892.9hPa | 2.7V | 00:00:00 | 00:00:00 | 00:00:00 | |
| OE5MMP-10 | 2026-09-02 02:04:47 | 48.38222 | 13.52492 | 36° | 9km/h | 1175m | -2.4m/s | 14.8°C | 62.9% | 892.9hPa | 2.7V | 00:00:00 | 03:35:36 | 00:00:00 | |
| OE3JTB-15 | 2026-09-02 02:04:46 | 48.38220 | 13.52491 | 36° | 9km/h | 1178m | -2.5m/s | 14.8°C | 63.0% | 892.7hPa | 2.7V | 00:00:00 | 00:00:00 | 00:00:00 | |
| OE5DRO-10 | 2026-09-02 02:04:45 | 48.38218 | 13.52489 | 30° | 9km/h | 1180m | -2.5m/s | 14.8°C | 63.1% | 892.5hPa | 2.7V | 00:00:00 | 00:00:00 | 00:00:00 | |
| OE5WHR-10 | 2026-09-02 02:04:45 | 48.38218 | 13.52489 | 30° | 9km/h | 1180m | -2.5m/s | 14.8°C | 63.1% | 892.5hPa | 2.7V | 00:00:00 | 00:00:00 | 00:00:00 | |
| OE5DXL-15 | 2026-09-02 02:04:45 | 48.38218 | 13.52489 | 30° | 9km/h | 1180m | -2.5m/s | 14.8°C | 63.1% | 892.5hPa | 2.7V | 00:00:00 | 00:00:00 | 00:00:00 | |
| OE3JTB-15 | 2026-09-02 02:04:44 | 48.38216 | 13.52487 | 25° | 9km/h | 1183m | -2.2m/s | 14.7°C | 63.2% | 892.2hPa | 2.7V | 07:01:00 | 03:35:33 | 00:00:00 | |
| OE5DRO-10 | 2026-09-02 02:04:43 | 48.38214 | 13.52486 | 30° | 7km/h | 1185m | -2.5m/s | 14.7°C | 63.4% | 891.9hPa | 2.7V | 00:00:00 | 00:00:00 | 00:00:00 | |
| OE5FHM-15 | 2026-09-02 02:04:43 | 48.38214 | 13.52486 | 30° | 9km/h | 1185m | -2.5m/s | 14.7°C | 63.4% | 891.9hPa | 2.7V | 00:00:00 | 03:35:32 | 00:00:00 | |
| OE5HKT-10 | 2026-09-02 02:04:43 | 48.38214 | 13.52486 | 30° | 9km/h | 1185m | -2.5m/s | 14.7°C | 63.4% | 891.9hPa | 2.7V | 00:00:00 | 03:35:32 | 00:00:00 | |
| OE3JTB-15 | 2026-09-02 02:04:42 | 48.38212 | 13.52484 | 38° | 9km/h | 1188m | -2.6m/s | 14.7°C | 63.6% | 891.7hPa | 2.7V | 00:00:00 | 00:00:00 | 00:00:00 | |
| OE5WHR-10 | 2026-09-02 02:04:42 | 48.38212 | 13.52484 | 38° | 9km/h | 1188m | -2.6m/s | 14.7°C | 63.6% | 891.7hPa | 2.7V | 00:00:00 | 00:00:00 | 00:00:00 | |
| OE5MMP-10 | 2026-09-02 02:04:42 | 48.38212 | 13.52484 | 38° | 9km/h | 1188m | -2.6m/s | 14.7°C | 63.6% | 891.7hPa | 2.7V | 00:00:00 | 03:35:31 | 00:00:00 | |
| OE5DRO-10 | 2026-09-02 02:04:41 | 48.38210 | 13.52482 | 33° | 9km/h | 1191m | -2.6m/s | 14.7°C | 63.7% | 891.5hPa | 2.7V | 07:01:00 | 00:00:00 | 00:00:00 | |
| OE3JTB-15 | 2026-09-02 02:04:40 | 48.38208 | 13.52481 | 20° | 9km/h | 1193m | -2.3m/s | 14.6°C | 63.8% | 891.0hPa | 2.7V | 00:00:00 | 00:00:00 | 00:00:00 | |
| OE5HKT-10 | 2026-09-02 02:04:40 | 48.38208 | 13.52481 | 20° | 9km/h | 1193m | -2.3m/s | 14.6°C | 63.8% | 891.0hPa | 2.7V | 00:00:00 | 00:00:00 | 00:00:00 | |
| OE5DRO-10 | 2026-09-02 02:04:39 | 48.38206 | 13.52480 | 32° | 9km/h | 1196m | -2.6m/s | 14.6°C | 63.8% | 890.8hPa | 2.7V | 00:00:00 | 00:00:00 | 00:00:00 | |
| OE5WHR-10 | 2026-09-02 02:04:39 | 48.38206 | 13.52480 | 32° | 9km/h | 1196m | -2.6m/s | 14.6°C | 63.8% | 890.8hPa | 2.7V | 00:00:00 | 03:35:28 | 00:00:00 | |
| OE5DXL-15 | 2026-09-02 02:04:39 | 48.38206 | 13.52480 | 32° | 9km/h | 1196m | -2.6m/s | 14.6°C | 63.8% | 890.8hPa | 2.7V | 00:00:00 | 00:00:00 | 00:00:00 | |
| OE3JTB-15 | 2026-09-02 02:04:38 | 48.38205 | 13.52478 | 39° | 11km/h | 1198m | -2.6m/s | 14.6°C | 64.0% | 890.7hPa | 2.7V | 00:00:00 | 03:35:27 | 00:00:00 | |
| OE5DRO-10 | 2026-09-02 02:04:37 | 48.38202 | 13.52476 | 24° | 9km/h | 1201m | -2.4m/s | 14.6°C | 64.0% | 890.5hPa | 2.7V | 00:00:00 | 00:00:00 | 00:00:00 | |
| OE5MMP-10 | 2026-09-02 02:04:37 | 48.38202 | 13.52476 | 24° | 11km/h | 1201m | -2.4m/s | 14.6°C | 64.0% | 890.5hPa | 2.7V | 07:01:00 | 03:35:26 | 00:00:00 | |
| OE5HKT-10 | 2026-09-02 02:04:37 | 48.38202 | 13.52476 | 24° | 9km/h | 1201m | -2.4m/s | 14.6°C | 64.0% | 890.5hPa | 2.7V | 00:00:00 | 00:00:00 | 00:00:00 | |
| OE3JTB-15 | 2026-09-02 02:04:36 | 48.38200 | 13.52474 | 39° | 9km/h | 1203m | -2.8m/s | 14.6°C | 64.1% | 890.0hPa | 2.7V | 00:00:00 | 00:00:00 | 00:00:00 | |
| OE5WHR-10 | 2026-09-02 02:04:36 | 48.38200 | 13.52474 | 39° | 11km/h | 1203m | -2.8m/s | 14.6°C | 64.1% | 890.0hPa | 2.7V | 07:01:00 | 00:00:00 | 00:00:00 | |
| OE3JTB-15 | 2026-09-02 02:04:34 | 48.38196 | 13.52470 | 25° | 11km/h | 1209m | -2.4m/s | 14.5°C | 64.2% | 889.5hPa | 2.7V | 00:00:00 | 00:00:00 | 00:00:00 | |
| OE5HKT-10 | 2026-09-02 02:04:34 | 48.38196 | 13.52470 | 25° | 11km/h | 1209m | -2.4m/s | 14.5°C | 64.2% | 889.5hPa | 2.7V | 00:00:00 | 03:35:23 | 00:00:00 | |
| OE5DRO-10 | 2026-09-02 02:04:33 | 48.38194 | 13.52468 | 40° | 11km/h | 1211m | -2.7m/s | 14.5°C | 64.3% | 889.3hPa | 2.7V | 00:00:00 | 00:00:00 | 00:00:00 | |
| OE5WHR-10 | 2026-09-02 02:04:33 | 48.38194 | 13.52468 | 40° | 11km/h | 1211m | -2.7m/s | 14.5°C | 64.3% | 889.3hPa | 2.7V | 00:00:00 | 00:00:00 | 00:00:00 | |
| OE5DXL-15 | 2026-09-02 02:04:33 | 48.38194 | 13.52468 | 40° | 11km/h | 1211m | -2.7m/s | 14.5°C | 64.3% | 889.3hPa | 2.7V | 00:00:00 | 00:00:00 | 00:00:00 | |
| OE5FHM-15 | 2026-09-02 02:04:33 | 48.38194 | 13.52468 | 40° | 11km/h | 1211m | -2.7m/s | 14.5°C | 64.3% | 889.3hPa | 2.7V | 00:00:00 | 03:35:22 | 00:00:00 | |
| OE3JTB-15 | 2026-09-02 02:04:32 | 48.38192 | 13.52466 | 35° | 11km/h | 1214m | -2.7m/s | 14.5°C | 64.4% | 888.9hPa | 2.7V | 00:00:00 | 03:35:21 | 00:00:00 | |
| OE5MMP-10 | 2026-09-02 02:04:32 | 48.38192 | 13.52466 | 35° | 11km/h | 1214m | -2.7m/s | 14.5°C | 64.4% | 888.9hPa | 2.7V | 00:00:00 | 03:35:21 | 00:00:00 | |
| OE5DRO-10 | 2026-09-02 02:04:31 | 48.38190 | 13.52464 | 32° | 11km/h | 1216m | -2.6m/s | 14.4°C | 64.4% | 888.7hPa | 2.7V | 00:00:00 | 00:00:00 | 00:00:00 | |
| OE5HKT-10 | 2026-09-02 02:04:31 | 48.38190 | 13.52464 | 32° | 11km/h | 1216m | -2.6m/s | 14.4°C | 64.4% | 888.7hPa | 2.7V | 07:01:00 | 00:00:00 | 00:00:00 | |
| OE3JTB-15 | 2026-09-02 02:04:30 | 48.38187 | 13.52462 | 40° | 11km/h | 1219m | -2.6m/s | 14.4°C | 64.6% | 888.5hPa | 2.7V | 00:00:00 | 00:00:00 | 00:00:00 | |
| OE5WHR-10 | 2026-09-02 02:04:30 | 48.38187 | 13.52462 | 40° | 11km/h | 1219m | -2.6m/s | 14.4°C | 64.6% | 888.5hPa | 2.7V | 00:00:00 | 03:35:19 | 00:00:00 | |
| OE5DRO-10 | 2026-09-02 02:04:29 | 48.38185 | 13.52459 | 32° | 11km/h | 1222m | -2.3m/s | 14.4°C | 64.6% | 888.0hPa | 2.7V | 00:00:00 | 00:00:00 | 00:00:00 | |
| OE5HKT-10 | 2026-09-02 02:04:28 | 48.38183 | 13.52457 | 43° | 13km/h | 1224m | -2.6m/s | 14.4°C | 64.8% | 887.8hPa | 2.7V | 00:00:00 | 00:00:00 | 00:00:00 | |
| OE3JTB-15 | 2026-09-02 02:04:28 | 48.38183 | 13.52457 | 43° | 11km/h | 1224m | -2.6m/s | 14.4°C | 64.8% | 887.8hPa | 2.7V | 07:01:00 | 00:00:00 | 00:00:00 | |
| OE5DRO-10 | 2026-09-02 02:04:27 | 48.38181 | 13.52454 | 48° | 13km/h | 1227m | -2.4m/s | 14.3°C | 65.1% | 887.6hPa | 2.7V | 00:00:00 | 00:00:00 | 00:00:00 | |
| OE5DXL-15 | 2026-09-02 02:04:27 | 48.38181 | 13.52454 | 48° | 15km/h | 1227m | -2.4m/s | 14.3°C | 65.1% | 887.6hPa | 2.7V | 00:00:00 | 00:00:00 | 00:00:00 | |
| OE5MMP-10 | 2026-09-02 02:04:27 | 48.38181 | 13.52454 | 48° | 15km/h | 1227m | -2.4m/s | 14.3°C | 65.1% | 887.6hPa | 2.7V | 00:00:00 | 03:35:16 | 00:00:00 | |
| OE5WHR-10 | 2026-09-02 02:04:27 | 48.38181 | 13.52454 | 48° | 13km/h | 1227m | -2.4m/s | 14.3°C | 65.1% | 887.6hPa | 2.7V | 00:00:00 | 00:00:00 | 00:00:00 | |
| OE3JTB-15 | 2026-09-02 02:04:26 | 48.38178 | 13.52451 | 43° | 13km/h | 1229m | -2.4m/s | 14.3°C | 65.0% | 887.2hPa | 2.7V | 00:00:00 | 03:35:15 | 00:00:00 | |
| OE5DRO-10 | 2026-09-02 02:04:25 | 48.38176 | 13.52447 | 61° | 13km/h | 1231m | -2.7m/s | 14.3°C | 65.2% | 887.1hPa | 2.7V | 07:01:00 | 00:00:00 | 00:00:00 | |
| OE5HKT-10 | 2026-09-02 02:04:25 | 48.38176 | 13.52447 | 61° | 15km/h | 1231m | -2.7m/s | 14.3°C | 65.2% | 887.1hPa | 2.7V | 00:00:00 | 03:35:14 | 00:00:00 | |
| OE5WHR-10 | 2026-09-02 02:04:24 | 48.38175 | 13.52442 | 63° | 15km/h | 1234m | -2.5m/s | 14.3°C | 65.4% | 886.8hPa | 2.7V | 00:00:00 | 00:00:00 | 00:00:00 | |
| OE3JTB-15 | 2026-09-02 02:04:24 | 48.38175 | 13.52442 | 63° | 15km/h | 1234m | -2.5m/s | 14.3°C | 65.4% | 886.8hPa | 2.7V | 00:00:00 | 00:00:00 | 00:00:00 | |
| OE5DRO-10 | 2026-09-02 02:04:23 | 48.38173 | 13.52438 | 68° | 15km/h | 1237m | -2.4m/s | 14.3°C | 65.3% | 886.5hPa | 2.7V | 00:00:00 | 00:00:00 | 00:00:00 | |
| OE5FHM-15 | 2026-09-02 02:04:23 | 48.38173 | 13.52438 | 68° | 15km/h | 1237m | -2.4m/s | 14.3°C | 65.3% | 886.5hPa | 2.7V | 00:00:00 | 03:35:12 | 00:00:00 | |
| OE3JTB-15 | 2026-09-02 02:04:22 | 48.38172 | 13.52432 | 72° | 15km/h | 1239m | -2.6m/s | 14.2°C | 65.6% | 886.3hPa | 2.7V | 00:00:00 | 00:00:00 | 00:00:00 | |
| OE5HKT-10 | 2026-09-02 02:04:22 | 48.38172 | 13.52432 | 72° | 15km/h | 1239m | -2.6m/s | 14.2°C | 65.6% | 886.3hPa | 2.7V | 00:00:00 | 00:00:00 | 00:00:00 | |
| OE5MMP-10 | 2026-09-02 02:04:22 | 48.38172 | 13.52432 | 72° | 15km/h | 1239m | -2.6m/s | 14.2°C | 65.6% | 886.3hPa | 2.7V | 00:00:00 | 03:35:11 | 00:00:00 | |
| OE5DRO-10 | 2026-09-02 02:04:21 | 48.38171 | 13.52427 | 76° | 15km/h | 1242m | -2.9m/s | 14.2°C | 65.7% | 886.0hPa | 2.7V | 00:00:00 | 00:00:00 | 00:00:00 | |
| OE5WHR-10 | 2026-09-02 02:04:21 | 48.38171 | 13.52427 | 76° | 15km/h | 1242m | -2.9m/s | 14.2°C | 65.7% | 886.0hPa | 2.7V | 00:00:00 | 03:35:10 | 00:00:00 | |
| OE5DXL-15 | 2026-09-02 02:04:21 | 48.38171 | 13.52427 | 76° | 15km/h | 1242m | -2.9m/s | 14.2°C | 65.7% | 886.0hPa | 2.7V | 00:00:00 | 00:00:00 | 00:00:00 | |
| OE3JTB-15 | 2026-09-02 02:04:20 | 48.38170 | 13.52422 | 79° | 15km/h | 1244m | -2.8m/s | 14.2°C | 65.7% | 885.7hPa | 2.7V | 00:00:00 | 03:35:09 | 00:00:00 | |
| OE5DRO-10 | 2026-09-02 02:04:19 | 48.38169 | 13.52417 | 84° | 15km/h | 1247m | -2.7m/s | 14.2°C | 65.8% | 885.6hPa | 2.7V | 00:00:00 | 00:00:00 | 00:00:00 | |
| OE5HKT-10 | 2026-09-02 02:04:19 | 48.38169 | 13.52417 | 84° | 15km/h | 1247m | -2.7m/s | 14.2°C | 65.8% | 885.6hPa | 2.7V | 00:00:00 | 00:00:00 | 00:00:00 | |
| OE3JTB-15 | 2026-09-02 02:04:18 | 48.38169 | 13.52412 | 88° | 15km/h | 1250m | -2.6m/s | 14.2°C | 65.9% | 885.2hPa | 2.7V | 00:00:00 | 00:00:00 | 00:00:00 | |
| OE5WHR-10 | 2026-09-02 02:04:18 | 48.38169 | 13.52412 | 88° | 15km/h | 1250m | -2.6m/s | 14.2°C | 65.9% | 885.2hPa | 2.7V | 00:00:00 | 00:00:00 | 00:00:00 | |
| OE5DRO-10 | 2026-09-02 02:04:17 | 48.38169 | 13.52406 | 93° | 15km/h | 1253m | -2.4m/s | 14.1°C | 65.9% | 885.1hPa | 2.7V | 00:00:00 | 00:00:00 | 00:00:00 | |
| OE5MMP-10 | 2026-09-02 02:04:17 | 48.38169 | 13.52406 | 93° | 15km/h | 1253m | -2.4m/s | 14.1°C | 65.9% | 885.1hPa | 2.7V | 00:00:00 | 03:35:06 | 00:00:00 | |
| OE5HKT-10 | 2026-09-02 02:04:16 | 48.38169 | 13.52401 | 94° | 15km/h | 1255m | -2.3m/s | 14.1°C | 65.9% | 884.7hPa | 2.7V | 00:00:00 | 03:35:05 | 00:00:00 | |
| OE3JTB-15 | 2026-09-02 02:04:16 | 48.38169 | 13.52401 | 94° | 15km/h | 1255m | -2.3m/s | 14.1°C | 65.9% | 884.7hPa | 2.7V | 00:00:00 | 00:00:00 | 00:00:00 | |
| OE5DRO-10 | 2026-09-02 02:04:15 | 48.38170 | 13.52395 | 95° | 15km/h | 1258m | -2.3m/s | 14.1°C | 66.0% | 884.4hPa | 2.7V | 00:00:00 | 00:00:00 | 00:00:00 | |
| OE5WHR-10 | 2026-09-02 02:04:15 | 48.38170 | 13.52395 | 95° | 15km/h | 1258m | -2.3m/s | 14.1°C | 66.0% | 884.4hPa | 2.7V | 00:00:00 | 00:00:00 | 00:00:00 | |
| OE5DXL-15 | 2026-09-02 02:04:15 | 48.38170 | 13.52395 | 95° | 15km/h | 1258m | -2.3m/s | 14.1°C | 66.0% | 884.4hPa | 2.7V | 07:01:00 | 00:00:00 | 00:00:00 | |
| OE3JTB-15 | 2026-09-02 02:04:14 | 48.38170 | 13.52390 | 95° | 15km/h | 1260m | -2.4m/s | 14.1°C | 66.0% | 884.1hPa | 2.7V | 00:00:00 | 03:35:03 | 00:00:00 | |
| OE5DRO-10 | 2026-09-02 02:04:13 | 48.38171 | 13.52385 | 95° | 15km/h | 1262m | -2.5m/s | 14.1°C | 65.9% | 883.9hPa | 2.7V | 00:00:00 | 00:00:00 | 00:00:00 | |
| OE5FHM-15 | 2026-09-02 02:04:13 | 48.38171 | 13.52385 | 95° | 15km/h | 1262m | -2.5m/s | 14.1°C | 65.9% | 883.9hPa | 2.7V | 00:00:00 | 03:35:02 | 00:00:00 | |
| OE5HKT-10 | 2026-09-02 02:04:13 | 48.38171 | 13.52385 | 95° | 15km/h | 1262m | -2.5m/s | 14.1°C | 65.9% | 883.9hPa | 2.7V | 00:00:00 | 00:00:00 | 00:00:00 | |
| OE3JTB-15 | 2026-09-02 02:04:12 | 48.38171 | 13.52380 | 94° | 15km/h | 1265m | -2.5m/s | 14.0°C | 65.8% | 883.6hPa | 2.7V | 07:02:00 | 00:00:00 | 00:00:00 | |
| OE5MMP-10 | 2026-09-02 02:04:12 | 48.38171 | 13.52380 | 94° | 15km/h | 1265m | -2.5m/s | 14.0°C | 65.8% | 883.6hPa | 2.7V | 00:00:00 | 03:35:01 | 00:00:00 | |
| OE5WHR-10 | 2026-09-02 02:04:12 | 48.38171 | 13.52380 | 94° | 15km/h | 1265m | -2.5m/s | 14.0°C | 65.8% | 883.6hPa | 2.7V | 07:02:00 | 03:35:01 | 00:00:00 | |
| OE5DRO-10 | 2026-09-02 02:04:11 | 48.38171 | 13.52375 | 94° | 15km/h | 1268m | -2.4m/s | 14.0°C | 65.9% | 883.3hPa | 2.7V | 00:00:00 | 00:00:00 | 00:00:00 | |
| OE5HKT-10 | 2026-09-02 02:04:10 | 48.38171 | 13.52369 | 93° | 15km/h | 1270m | -2.3m/s | 14.0°C | 65.9% | 883.0hPa | 2.7V | 00:00:00 | 00:00:00 | 00:00:00 | |
| OE3JTB-15 | 2026-09-02 02:04:10 | 48.38171 | 13.52369 | 93° | 15km/h | 1270m | -2.3m/s | 14.0°C | 65.9% | 883.0hPa | 2.7V | 00:00:00 | 00:00:00 | 00:00:00 | |
| OE5DRO-10 | 2026-09-02 02:04:09 | 48.38171 | 13.52364 | 91° | 15km/h | 1273m | -2.5m/s | 14.0°C | 66.0% | 882.8hPa | 2.7V | 07:02:00 | 00:00:00 | 00:00:00 | |
| OE5DXL-15 | 2026-09-02 02:04:09 | 48.38171 | 13.52364 | 91° | 15km/h | 1273m | -2.5m/s | 14.0°C | 66.0% | 882.8hPa | 2.7V | 00:00:00 | 00:00:00 | 00:00:00 | |
| OE5WHR-10 | 2026-09-02 02:04:09 | 48.38171 | 13.52364 | 91° | 15km/h | 1273m | -2.5m/s | 14.0°C | 66.0% | 882.8hPa | 2.7V | 00:00:00 | 00:00:00 | 00:00:00 | |
| OE3JTB-15 | 2026-09-02 02:04:08 | 48.38171 | 13.52358 | 90° | 15km/h | 1275m | -2.8m/s | 13.9°C | 66.1% | 882.6hPa | 2.7V | 00:00:00 | 03:34:57 | 00:00:00 | |
| OE5DRO-10 | 2026-09-02 02:04:07 | 48.38171 | 13.52353 | 89° | 13km/h | 1278m | -2.5m/s | 13.9°C | 66.2% | 882.2hPa | 2.7V | 00:00:00 | 00:00:00 | 00:00:00 | |
| OE5HKT-10 | 2026-09-02 02:04:07 | 48.38171 | 13.52353 | 89° | 13km/h | 1278m | -2.5m/s | 13.9°C | 66.2% | 882.2hPa | 2.7V | 07:02:00 | 03:34:56 | 00:00:00 | |
| OE5MMP-10 | 2026-09-02 02:04:07 | 48.38171 | 13.52353 | 89° | 13km/h | 1278m | -2.5m/s | 13.9°C | 66.2% | 882.2hPa | 2.7V | 00:00:00 | 03:34:56 | 00:00:00 | |
| OE3JTB-15 | 2026-09-02 02:04:06 | 48.38171 | 13.52348 | 85° | 13km/h | 1281m | -2.4m/s | 13.9°C | 66.3% | 882.1hPa | 2.7V | 00:00:00 | 00:00:00 | 00:00:00 | |
| OE5WHR-10 | 2026-09-02 02:04:06 | 48.38171 | 13.52348 | 85° | 13km/h | 1281m | -2.4m/s | 13.9°C | 66.3% | 882.1hPa | 2.7V | 00:00:00 | 00:00:00 | 00:00:00 | |
| OE5DRO-10 | 2026-09-02 02:04:05 | 48.38171 | 13.52343 | 81° | 13km/h | 1283m | -2.4m/s | 13.9°C | 66.4% | 881.7hPa | 2.7V | 00:00:00 | 00:00:00 | 00:00:00 | |
| OE5DRO-10 | 2026-09-02 02:04:03 | 48.38170 | 13.52333 | 94° | 15km/h | 1288m | -2.4m/s | 13.8°C | 66.7% | 881.2hPa | 2.7V | 00:00:00 | 00:00:00 | 00:00:00 | |
| OE5FHM-15 | 2026-09-02 02:04:03 | 48.38170 | 13.52333 | 94° | 15km/h | 1288m | -2.4m/s | 13.8°C | 66.7% | 881.2hPa | 2.7V | 00:00:00 | 03:34:52 | 00:00:00 | |
| OE5DXL-15 | 2026-09-02 02:04:03 | 48.38170 | 13.52333 | 94° | 15km/h | 1288m | -2.4m/s | 13.8°C | 66.7% | 881.2hPa | 2.7V | 00:00:00 | 00:00:00 | 00:00:00 | |
| OE5WHR-10 | 2026-09-02 02:04:03 | 48.38170 | 13.52333 | 94° | 15km/h | 1288m | -2.4m/s | 13.8°C | 66.7% | 881.2hPa | 2.7V | 00:00:00 | 03:34:52 | 00:00:00 | |
| OE3JTB-15 | 2026-09-02 02:04:02 | 48.38170 | 13.52327 | 88° | 15km/h | 1291m | -2.7m/s | 13.8°C | 66.7% | 880.9hPa | 2.7V | 00:00:00 | 03:34:51 | 00:00:00 | |
| OE5MMP-10 | 2026-09-02 02:04:02 | 48.38170 | 13.52327 | 88° | 15km/h | 1291m | -2.7m/s | 13.8°C | 66.7% | 880.9hPa | 2.7V | 00:00:00 | 03:34:51 | 00:00:00 | |
| OE5DRO-10 | 2026-09-02 02:04:01 | 48.38170 | 13.52321 | 87° | 15km/h | 1294m | -2.6m/s | 13.8°C | 66.7% | 880.8hPa | 2.7V | 00:00:00 | 00:00:00 | 00:00:00 | |
| OE5HKT-10 | 2026-09-02 02:04:01 | 48.38170 | 13.52321 | 87° | 15km/h | 1294m | -2.6m/s | 13.8°C | 66.7% | 880.8hPa | 2.7V | 00:00:00 | 00:00:00 | 00:00:00 | |
| OE5WHR-10 | 2026-09-02 02:04:00 | 48.38170 | 13.52316 | 82° | 13km/h | 1297m | -2.4m/s | 13.7°C | 66.9% | 880.4hPa | 2.7V | 00:00:00 | 00:00:00 | 00:00:00 | |
| OE3JTB-15 | 2026-09-02 02:04:00 | 48.38170 | 13.52316 | 82° | 13km/h | 1297m | -2.4m/s | 13.7°C | 66.9% | 880.4hPa | 2.7V | 00:00:00 | 00:00:00 | 00:00:00 | |
| OE5DRO-10 | 2026-09-02 02:03:59 | 48.38169 | 13.52311 | 88° | 13km/h | 1299m | -2.5m/s | 13.7°C | 67.0% | 880.0hPa | 2.7V | 00:00:00 | 00:00:00 | 00:00:00 | |
| OE5HKT-10 | 2026-09-02 02:03:58 | 48.38169 | 13.52306 | 98° | 15km/h | 1302m | -2.5m/s | 13.7°C | 67.1% | 879.8hPa | 2.7V | 00:00:00 | 03:34:47 | 00:00:00 | |
| OE3JTB-15 | 2026-09-02 02:03:58 | 48.38169 | 13.52306 | 98° | 15km/h | 1302m | -2.5m/s | 13.7°C | 67.1% | 879.8hPa | 2.7V | 00:00:00 | 00:00:00 | 00:00:00 | |
| OE5DRO-10 | 2026-09-02 02:03:57 | 48.38170 | 13.52300 | 92° | 15km/h | 1305m | -2.4m/s | 13.7°C | 67.1% | 879.6hPa | 2.7V | 00:00:00 | 00:00:00 | 00:00:00 | |
| OE5DXL-15 | 2026-09-02 02:03:57 | 48.38170 | 13.52300 | 92° | 15km/h | 1305m | -2.4m/s | 13.7°C | 67.1% | 879.6hPa | 2.7V | 00:00:00 | 00:00:00 | 00:00:00 | |
| OE5MMP-10 | 2026-09-02 02:03:57 | 48.38170 | 13.52300 | 92° | 15km/h | 1305m | -2.4m/s | 13.7°C | 67.1% | 879.6hPa | 2.7V | 07:02:00 | 03:34:46 | 00:00:00 | |
| OE5WHR-10 | 2026-09-02 02:03:57 | 48.38170 | 13.52300 | 92° | 15km/h | 1305m | -2.4m/s | 13.7°C | 67.1% | 879.6hPa | 2.7V | 00:00:00 | 00:00:00 | 00:00:00 | |
| OE3JTB-15 | 2026-09-02 02:03:56 | 48.38170 | 13.52295 | 87° | 13km/h | 1307m | -2.4m/s | 13.6°C | 67.2% | 879.4hPa | 2.7V | 07:02:00 | 03:34:45 | 00:00:00 | |
| OE5DRO-10 | 2026-09-02 02:03:55 | 48.38170 | 13.52290 | 97° | 15km/h | 1310m | -2.6m/s | 13.6°C | 67.4% | 879.0hPa | 2.7V | 00:00:00 | 00:00:00 | 00:00:00 | |
| OE5HKT-10 | 2026-09-02 02:03:55 | 48.38170 | 13.52290 | 97° | 15km/h | 1310m | -2.6m/s | 13.6°C | 67.4% | 879.0hPa | 2.7V | 00:00:00 | 00:00:00 | 00:00:00 | |
| OE5WHR-10 | 2026-09-02 02:03:54 | 48.38170 | 13.52284 | 90° | 15km/h | 1312m | -2.7m/s | 13.6°C | 67.4% | 878.9hPa | 2.7V | 00:00:00 | 03:34:43 | 00:00:00 | |
| OE3JTB-15 | 2026-09-02 02:03:54 | 48.38170 | 13.52284 | 90° | 15km/h | 1312m | -2.7m/s | 13.6°C | 67.4% | 878.9hPa | 2.7V | 00:00:00 | 00:00:00 | 00:00:00 | |
| OE5DRO-10 | 2026-09-02 02:03:53 | 48.38170 | 13.52279 | 85° | 13km/h | 1315m | -2.4m/s | 13.6°C | 67.6% | 878.5hPa | 2.7V | 07:02:00 | 00:00:00 | 00:00:00 | |
| OE5FHM-15 | 2026-09-02 02:03:53 | 48.38170 | 13.52279 | 85° | 15km/h | 1315m | -2.4m/s | 13.6°C | 67.6% | 878.5hPa | 2.7V | 00:00:00 | 03:34:42 | 00:00:00 | |
| OE3JTB-15 | 2026-09-02 02:03:52 | 48.38170 | 13.52274 | 97° | 15km/h | 1317m | -2.7m/s | 13.6°C | 67.8% | 878.0hPa | 2.7V | 00:00:00 | 00:00:00 | 00:00:00 | |
| OE5HKT-10 | 2026-09-02 02:03:52 | 48.38170 | 13.52274 | 97° | 13km/h | 1317m | -2.7m/s | 13.6°C | 67.8% | 878.0hPa | 2.7V | 00:00:00 | 00:00:00 | 00:00:00 | |
| OE5MMP-10 | 2026-09-02 02:03:52 | 48.38170 | 13.52274 | 97° | 15km/h | 1317m | -2.7m/s | 13.6°C | 67.8% | 878.0hPa | 2.7V | 00:00:00 | 03:34:41 | 00:00:00 | |
| OE5DRO-10 | 2026-09-02 02:03:51 | 48.38170 | 13.52269 | 89° | 13km/h | 1320m | -2.7m/s | 13.5°C | 67.7% | 878.0hPa | 2.7V | 00:00:00 | 00:00:00 | 00:00:00 | |
| OE5WHR-10 | 2026-09-02 02:03:51 | 48.38170 | 13.52269 | 89° | 15km/h | 1320m | -2.7m/s | 13.5°C | 67.7% | 878.0hPa | 2.7V | 00:00:00 | 00:00:00 | 00:00:00 | |
| OE5DXL-15 | 2026-09-02 02:03:51 | 48.38170 | 13.52269 | 89° | 15km/h | 1320m | -2.7m/s | 13.5°C | 67.7% | 878.0hPa | 2.7V | 00:00:00 | 00:00:00 | 00:00:00 | |
| OE3JTB-15 | 2026-09-02 02:03:50 | 48.38170 | 13.52264 | 95° | 15km/h | 1323m | -2.7m/s | 13.5°C | 67.9% | 877.6hPa | 2.7V | 00:00:00 | 03:34:39 | 00:00:00 | |
| OE5DRO-10 | 2026-09-02 02:03:49 | 48.38170 | 13.52258 | 89° | 15km/h | 1326m | -2.7m/s | 13.5°C | 68.0% | 877.4hPa | 2.7V | 00:00:00 | 00:00:00 | 00:00:00 | |
| OE5HKT-10 | 2026-09-02 02:03:49 | 48.38170 | 13.52258 | 89° | 15km/h | 1326m | -2.7m/s | 13.5°C | 68.0% | 877.4hPa | 2.7V | 00:00:00 | 03:34:38 | 00:00:00 | |
| OE3JTB-15 | 2026-09-02 02:03:48 | 48.38170 | 13.52253 | 84° | 15km/h | 1329m | -2.4m/s | 13.5°C | 68.2% | 877.1hPa | 2.7V | 00:00:00 | 00:00:00 | 00:00:00 | |
| OE5WHR-10 | 2026-09-02 02:03:48 | 48.38170 | 13.52253 | 84° | 15km/h | 1329m | -2.4m/s | 13.5°C | 68.2% | 877.1hPa | 2.7V | 07:02:00 | 00:00:00 | 00:00:00 | |
| OE5DRO-10 | 2026-09-02 02:03:47 | 48.38170 | 13.52248 | 87° | 15km/h | 1331m | -2.8m/s | 13.4°C | 68.2% | 876.8hPa | 2.7V | 00:00:00 | 00:00:00 | 00:00:00 | |
| OE5MMP-10 | 2026-09-02 02:03:47 | 48.38170 | 13.52248 | 87° | 15km/h | 1331m | -2.8m/s | 13.4°C | 68.2% | 876.8hPa | 2.7V | 00:00:00 | 03:34:36 | 00:00:00 | |
| OE5HKT-10 | 2026-09-02 02:03:46 | 48.38169 | 13.52242 | 79° | 15km/h | 1334m | -2.5m/s | 13.4°C | 68.3% | 876.5hPa | 2.7V | 00:00:00 | 00:00:00 | 00:00:00 | |
| OE3JTB-15 | 2026-09-02 02:03:46 | 48.38169 | 13.52242 | 79° | 15km/h | 1334m | -2.5m/s | 13.4°C | 68.3% | 876.5hPa | 2.7V | 00:00:00 | 00:00:00 | 00:00:00 | |
| OE5DRO-10 | 2026-09-02 02:03:45 | 48.38169 | 13.52237 | 85° | 15km/h | 1337m | -2.8m/s | 13.4°C | 68.4% | 876.2hPa | 2.7V | 00:00:00 | 00:00:00 | 00:00:00 | |
| OE5WHR-10 | 2026-09-02 02:03:45 | 48.38169 | 13.52237 | 85° | 15km/h | 1337m | -2.8m/s | 13.4°C | 68.4% | 876.2hPa | 2.7V | 00:00:00 | 03:34:34 | 00:00:00 | |
| OE5DXL-15 | 2026-09-02 02:03:45 | 48.38169 | 13.52237 | 85° | 15km/h | 1337m | -2.8m/s | 13.4°C | 68.4% | 876.2hPa | 2.7V | 00:00:00 | 00:00:00 | 00:00:00 | |
| OE3JTB-15 | 2026-09-02 02:03:44 | 48.38168 | 13.52231 | 78° | 15km/h | 1340m | -2.7m/s | 13.4°C | 68.4% | 875.9hPa | 2.7V | 00:00:00 | 03:34:33 | 00:00:00 | |
| OE5DRO-10 | 2026-09-02 02:03:43 | 48.38167 | 13.52225 | 79° | 15km/h | 1342m | -2.5m/s | 13.3°C | 68.6% | 875.7hPa | 2.7V | 00:00:00 | 00:00:00 | 00:00:00 | |
| OE5HKT-10 | 2026-09-02 02:03:43 | 48.38167 | 13.52225 | 79° | 15km/h | 1342m | -2.5m/s | 13.3°C | 68.6% | 875.7hPa | 2.7V | 07:02:00 | 00:00:00 | 00:00:00 | |
| OE5FHM-15 | 2026-09-02 02:03:43 | 48.38167 | 13.52225 | 79° | 15km/h | 1342m | -2.5m/s | 13.3°C | 68.6% | 875.7hPa | 2.7V | 07:02:00 | 03:34:32 | 00:00:00 | |
| OE5MMP-10 | 2026-09-02 02:03:42 | 48.38166 | 13.52220 | 79° | 15km/h | 1345m | -2.6m/s | 13.3°C | 68.6% | 875.5hPa | 2.7V | 00:00:00 | 03:34:31 | 00:00:00 | |
| OE5WHR-10 | 2026-09-02 02:03:42 | 48.38166 | 13.52220 | 79° | 16km/h | 1345m | -2.6m/s | 13.3°C | 68.6% | 875.5hPa | 2.7V | 00:00:00 | 00:00:00 | 00:00:00 | |
| OE3JTB-15 | 2026-09-02 02:03:42 | 48.38166 | 13.52220 | 79° | 15km/h | 1345m | -2.6m/s | 13.3°C | 68.6% | 875.5hPa | 2.7V | 00:00:00 | 00:00:00 | 00:00:00 | |
| OE5DRO-10 | 2026-09-02 02:03:41 | 48.38165 | 13.52214 | 74° | 15km/h | 1348m | -2.5m/s | 13.3°C | 68.7% | 875.1hPa | 2.7V | 00:00:00 | 00:00:00 | 00:00:00 | |
| OE3JTB-15 | 2026-09-02 02:03:40 | 48.38164 | 13.52208 | 83° | 15km/h | 1351m | -2.7m/s | 13.3°C | 68.8% | 874.9hPa | 2.7V | 07:02:00 | 00:00:00 | 00:00:00 | |
| OE5HKT-10 | 2026-09-02 02:03:40 | 48.38164 | 13.52208 | 83° | 15km/h | 1351m | -2.7m/s | 13.3°C | 68.8% | 874.9hPa | 2.7V | 00:00:00 | 03:34:29 | 00:00:00 | |
| OE5DRO-10 | 2026-09-02 02:03:39 | 48.38164 | 13.52203 | 78° | 15km/h | 1354m | -2.2m/s | 13.3°C | 68.7% | 874.6hPa | 2.7V | 00:00:00 | 00:00:00 | 00:00:00 | |
| OE5WHR-10 | 2026-09-02 02:03:39 | 48.38164 | 13.52203 | 78° | 15km/h | 1354m | -2.2m/s | 13.3°C | 68.7% | 874.6hPa | 2.7V | 00:00:00 | 00:00:00 | 00:00:00 | |
| OE5DXL-15 | 2026-09-02 02:03:39 | 48.38164 | 13.52203 | 78° | 15km/h | 1354m | -2.2m/s | 13.3°C | 68.7% | 874.6hPa | 2.7V | 00:00:00 | 00:00:00 | 00:00:00 | |
| OE3JTB-15 | 2026-09-02 02:03:38 | 48.38163 | 13.52197 | 91° | 15km/h | 1356m | -2.5m/s | 13.2°C | 68.7% | 874.3hPa | 2.7V | 00:00:00 | 03:34:27 | 00:00:00 | |
| OE5DRO-10 | 2026-09-02 02:03:37 | 48.38163 | 13.52192 | 82° | 15km/h | 1359m | -2.2m/s | 13.2°C | 68.7% | 874.0hPa | 2.7V | 07:02:00 | 00:00:00 | 00:00:00 | |
| OE5MMP-10 | 2026-09-02 02:03:37 | 48.38163 | 13.52192 | 82° | 15km/h | 1359m | -2.2m/s | 13.2°C | 68.7% | 874.0hPa | 2.7V | 00:00:00 | 03:34:26 | 00:00:00 | |
| OE5HKT-10 | 2026-09-02 02:03:37 | 48.38163 | 13.52192 | 82° | 15km/h | 1359m | -2.2m/s | 13.2°C | 68.7% | 874.0hPa | 2.7V | 00:00:00 | 00:00:00 | 00:00:00 | |
| OE3JTB-15 | 2026-09-02 02:03:36 | 48.38163 | 13.52186 | 92° | 15km/h | 1362m | -2.6m/s | 13.2°C | 68.9% | 873.8hPa | 2.7V | 00:00:00 | 00:00:00 | 00:00:00 | |
| OE5WHR-10 | 2026-09-02 02:03:36 | 48.38163 | 13.52186 | 92° | 15km/h | 1362m | -2.6m/s | 13.2°C | 68.9% | 873.8hPa | 2.7V | 00:00:00 | 03:34:25 | 00:00:00 | |
| OE5DRO-10 | 2026-09-02 02:03:35 | 48.38163 | 13.52180 | 84° | 15km/h | 1364m | -2.5m/s | 13.2°C | 68.9% | 873.5hPa | 2.7V | 00:00:00 | 00:00:00 | 00:00:00 | |
| OE5HKT-10 | 2026-09-02 02:03:34 | 48.38162 | 13.52175 | 98° | 15km/h | 1367m | -2.7m/s | 13.1°C | 69.1% | 873.3hPa | 2.7V | 00:00:00 | 00:00:00 | 00:00:00 | |
| OE3JTB-15 | 2026-09-02 02:03:34 | 48.38162 | 13.52175 | 98° | 15km/h | 1367m | -2.7m/s | 13.1°C | 69.1% | 873.3hPa | 2.7V | 00:00:00 | 00:00:00 | 00:00:00 | |
| OE5DRO-10 | 2026-09-02 02:03:33 | 48.38163 | 13.52169 | 88° | 15km/h | 1369m | -3.0m/s | 13.1°C | 69.1% | 873.2hPa | 2.7V | 00:00:00 | 00:00:00 | 00:00:00 | |
| OE5DXL-15 | 2026-09-02 02:03:33 | 48.38163 | 13.52169 | 88° | 15km/h | 1369m | -3.0m/s | 13.1°C | 69.1% | 873.2hPa | 2.7V | 00:00:00 | 00:00:00 | 00:00:00 | |
| OE5WHR-10 | 2026-09-02 02:03:33 | 48.38163 | 13.52169 | 88° | 15km/h | 1369m | -3.0m/s | 13.1°C | 69.1% | 873.2hPa | 2.7V | 00:00:00 | 00:00:00 | 00:00:00 | |
| OE5FHM-15 | 2026-09-02 02:03:33 | 48.38163 | 13.52169 | 88° | 15km/h | 1369m | -3.0m/s | 13.1°C | 69.1% | 873.2hPa | 2.7V | 00:00:00 | 03:34:22 | 00:00:00 | |
| OE3JTB-15 | 2026-09-02 02:03:32 | 48.38163 | 13.52164 | 100° | 15km/h | 1372m | -2.6m/s | 13.1°C | 69.2% | 872.6hPa | 2.7V | 00:00:00 | 03:34:21 | 00:00:00 | |
| OE5MMP-10 | 2026-09-02 02:03:32 | 48.38163 | 13.52164 | 100° | 15km/h | 1372m | -2.6m/s | 13.1°C | 69.2% | 872.6hPa | 2.7V | 00:00:00 | 03:34:21 | 00:00:00 | |
| OE5HKT-10 | 2026-09-02 02:03:31 | 48.38163 | 13.52159 | 91° | 15km/h | 1375m | -2.8m/s | 13.1°C | 69.2% | 872.4hPa | 2.7V | 00:00:00 | 03:34:20 | 00:00:00 | |
| OE3JTB-15 | 2026-09-02 02:03:30 | 48.38164 | 13.52154 | 103° | 15km/h | 1377m | -2.6m/s | 13.1°C | 69.4% | 872.3hPa | 2.7V | 00:00:00 | 00:00:00 | 00:00:00 | |
| OE5WHR-10 | 2026-09-02 02:03:30 | 48.38164 | 13.52154 | 103° | 15km/h | 1377m | -2.6m/s | 13.1°C | 69.4% | 872.3hPa | 2.7V | 00:00:00 | 00:00:00 | 00:00:00 | |
| OE5HKT-10 | 2026-09-02 02:03:28 | 48.38164 | 13.52143 | 97° | 15km/h | 1382m | -2.5m/s | 13.0°C | 69.5% | 871.5hPa | 2.7V | 00:00:00 | 00:00:00 | 00:00:00 | |
| OE3JTB-15 | 2026-09-02 02:03:28 | 48.38164 | 13.52143 | 97° | 15km/h | 1382m | -2.5m/s | 13.0°C | 69.5% | 871.5hPa | 2.7V | 00:00:00 | 00:00:00 | 00:00:00 | |
| OE5DRO-10 | 2026-09-02 02:03:27 | 48.38165 | 13.52138 | 104° | 15km/h | 1384m | -2.8m/s | 13.0°C | 69.7% | 871.3hPa | 2.7V | 00:00:00 | 00:00:00 | 00:00:00 | |
| OE5MMP-10 | 2026-09-02 02:03:27 | 48.38165 | 13.52138 | 104° | 15km/h | 1384m | -2.8m/s | 13.0°C | 69.7% | 871.3hPa | 2.7V | 00:00:00 | 03:34:16 | 00:00:00 | |
| OE5DXL-15 | 2026-09-02 02:03:27 | 48.38165 | 13.52138 | 104° | 15km/h | 1384m | -2.8m/s | 13.0°C | 69.7% | 871.3hPa | 2.7V | 07:02:00 | 00:00:00 | 00:00:00 | |
| OE5WHR-10 | 2026-09-02 02:03:27 | 48.38165 | 13.52138 | 104° | 15km/h | 1384m | -2.8m/s | 13.0°C | 69.7% | 871.3hPa | 2.7V | 00:00:00 | 03:34:16 | 00:00:00 | |
| OE3JTB-15 | 2026-09-02 02:03:26 | 48.38166 | 13.52133 | 98° | 15km/h | 1387m | -2.7m/s | 13.0°C | 69.9% | 871.0hPa | 2.7V | 00:00:00 | 03:34:15 | 00:00:00 | |
| OE5HKT-10 | 2026-09-02 02:03:25 | 48.38166 | 13.52128 | 90° | 16km/h | 1390m | -2.5m/s | 12.9°C | 69.9% | 870.8hPa | 2.7V | 00:00:00 | 00:00:00 | 00:00:00 | |
| OE5DRO-10 | 2026-09-02 02:03:25 | 48.38166 | 13.52128 | 90° | 15km/h | 1390m | -2.5m/s | 12.9°C | 69.9% | 870.8hPa | 2.7V | 00:00:00 | 00:00:00 | 00:00:00 | |
| OE3JTB-15 | 2026-09-02 02:03:24 | 48.38166 | 13.52123 | 94° | 16km/h | 1392m | -2.7m/s | 12.9°C | 70.0% | 870.5hPa | 2.7V | 07:02:00 | 00:00:00 | 00:00:00 | |
| OE5WHR-10 | 2026-09-02 02:03:24 | 48.38166 | 13.52123 | 94° | 16km/h | 1392m | -2.7m/s | 12.9°C | 70.0% | 870.5hPa | 2.7V | 07:02:00 | 00:00:00 | 00:00:00 | |
| OE5DRO-10 | 2026-09-02 02:03:23 | 48.38167 | 13.52116 | 94° | 16km/h | 1394m | -3.0m/s | 12.9°C | 70.2% | 870.3hPa | 2.7V | 00:00:00 | 00:00:00 | 00:00:00 | |
| OE5FHM-15 | 2026-09-02 02:03:23 | 48.38167 | 13.52116 | 94° | 16km/h | 1394m | -3.0m/s | 12.9°C | 70.2% | 870.3hPa | 2.7V | 00:00:00 | 03:34:12 | 00:00:00 | |
| OE3JTB-15 | 2026-09-02 02:03:22 | 48.38167 | 13.52110 | 97° | 16km/h | 1397m | -3.1m/s | 12.9°C | 70.4% | 870.0hPa | 2.7V | 00:00:00 | 00:00:00 | 00:00:00 | |
| OE5HKT-10 | 2026-09-02 02:03:22 | 48.38167 | 13.52110 | 97° | 16km/h | 1397m | -3.1m/s | 12.9°C | 70.4% | 870.0hPa | 2.7V | 00:00:00 | 03:34:11 | 00:00:00 | |
| OE5MMP-10 | 2026-09-02 02:03:22 | 48.38167 | 13.52110 | 97° | 16km/h | 1397m | -3.1m/s | 12.9°C | 70.4% | 870.0hPa | 2.7V | 00:00:00 | 03:34:11 | 00:00:00 | |
| OE5WHR-10 | 2026-09-02 02:03:21 | 48.38167 | 13.52104 | 99° | 16km/h | 1400m | -3.0m/s | 12.9°C | 70.5% | 869.8hPa | 2.7V | 00:00:00 | 00:00:00 | 00:00:00 | |
| OE5DRO-10 | 2026-09-02 02:03:21 | 48.38167 | 13.52104 | 99° | 16km/h | 1400m | -3.0m/s | 12.9°C | 70.5% | 869.8hPa | 2.7V | 07:02:00 | 00:00:00 | 00:00:00 | |
| OE5DXL-15 | 2026-09-02 02:03:21 | 48.38167 | 13.52104 | 99° | 16km/h | 1400m | -3.0m/s | 12.9°C | 70.5% | 869.8hPa | 2.7V | 00:00:00 | 00:00:00 | 00:00:00 | |
| OE3JTB-15 | 2026-09-02 02:03:20 | 48.38168 | 13.52098 | 100° | 16km/h | 1403m | -2.8m/s | 12.8°C | 70.6% | 869.4hPa | 2.7V | 00:00:00 | 03:34:09 | 00:00:00 | |
| OE5DRO-10 | 2026-09-02 02:03:19 | 48.38169 | 13.52092 | 99° | 16km/h | 1405m | -2.9m/s | 12.8°C | 70.8% | 869.1hPa | 2.7V | 00:00:00 | 00:00:00 | 00:00:00 | |
| OE5HKT-10 | 2026-09-02 02:03:19 | 48.38169 | 13.52092 | 99° | 16km/h | 1405m | -2.9m/s | 12.8°C | 70.8% | 869.1hPa | 2.7V | 07:02:00 | 00:00:00 | 00:00:00 | |
| OE3JTB-15 | 2026-09-02 02:03:18 | 48.38169 | 13.52086 | 98° | 16km/h | 1408m | -2.9m/s | 12.8°C | 70.9% | 868.9hPa | 2.7V | 00:00:00 | 00:00:00 | 00:00:00 | |
| OE5WHR-10 | 2026-09-02 02:03:18 | 48.38169 | 13.52086 | 98° | 16km/h | 1408m | -2.9m/s | 12.8°C | 70.9% | 868.9hPa | 2.7V | 00:00:00 | 03:34:07 | 00:00:00 | |
| OE5DRO-10 | 2026-09-02 02:03:17 | 48.38170 | 13.52080 | 98° | 16km/h | 1411m | -2.7m/s | 12.8°C | 71.2% | 868.8hPa | 2.7V | 00:00:00 | 00:00:00 | 00:00:00 | |
| OE5MMP-10 | 2026-09-02 02:03:17 | 48.38170 | 13.52080 | 98° | 16km/h | 1411m | -2.7m/s | 12.8°C | 71.2% | 868.8hPa | 2.7V | 07:02:00 | 03:34:06 | 00:00:00 | |
| OE5HKT-10 | 2026-09-02 02:03:16 | 48.38171 | 13.52073 | 97° | 16km/h | 1413m | -2.5m/s | 12.7°C | 71.1% | 868.4hPa | 2.7V | 00:00:00 | 00:00:00 | 00:00:00 | |
| OE3JTB-15 | 2026-09-02 02:03:16 | 48.38171 | 13.52073 | 97° | 16km/h | 1413m | -2.5m/s | 12.7°C | 71.1% | 868.4hPa | 2.7V | 00:00:00 | 00:00:00 | 00:00:00 | |
| OE5DRO-10 | 2026-09-02 02:03:15 | 48.38171 | 13.52067 | 95° | 15km/h | 1416m | -2.7m/s | 12.7°C | 71.2% | 868.0hPa | 2.7V | 00:00:00 | 00:00:00 | 00:00:00 | |
| OE5DXL-15 | 2026-09-02 02:03:15 | 48.38171 | 13.52067 | 95° | 16km/h | 1416m | -2.7m/s | 12.7°C | 71.2% | 868.0hPa | 2.7V | 00:00:00 | 00:00:00 | 00:00:00 | |
| OE5WHR-10 | 2026-09-02 02:03:15 | 48.38171 | 13.52067 | 95° | 15km/h | 1416m | -2.7m/s | 12.7°C | 71.2% | 868.0hPa | 2.7V | 00:00:00 | 00:00:00 | 00:00:00 | |
| OE3JTB-15 | 2026-09-02 02:03:14 | 48.38171 | 13.52062 | 97° | 15km/h | 1418m | -2.5m/s | 12.7°C | 71.5% | 867.8hPa | 2.7V | 00:00:00 | 03:34:03 | 00:00:00 | |
| OE5HKT-10 | 2026-09-02 02:03:13 | 48.38172 | 13.52056 | 99° | 16km/h | 1421m | -2.7m/s | 12.7°C | 71.5% | 867.4hPa | 2.7V | 00:00:00 | 03:34:02 | 00:00:00 | |
| OE5FHM-15 | 2026-09-02 02:03:13 | 48.38172 | 13.52056 | 99° | 16km/h | 1421m | -2.7m/s | 12.7°C | 71.5% | 867.4hPa | 2.7V | 00:00:00 | 03:34:02 | 00:00:00 | |
| OE5DRO-10 | 2026-09-02 02:03:12 | 48.38173 | 13.52051 | 108° | 16km/h | 1423m | -2.9m/s | 12.7°C | 71.7% | 867.1hPa | 2.7V | 00:00:00 | 00:00:00 | 00:00:00 | |
| OE3JTB-15 | 2026-09-02 02:03:12 | 48.38173 | 13.52051 | 108° | 16km/h | 1423m | -2.9m/s | 12.7°C | 71.7% | 867.1hPa | 2.7V | 00:00:00 | 00:00:00 | 00:00:00 | |
| OE5MMP-10 | 2026-09-02 02:03:12 | 48.38173 | 13.52051 | 108° | 16km/h | 1423m | -2.9m/s | 12.7°C | 71.7% | 867.1hPa | 2.7V | 00:00:00 | 03:34:01 | 00:00:00 | |
| OE5WHR-10 | 2026-09-02 02:03:12 | 48.38173 | 13.52051 | 108° | 16km/h | 1423m | -2.9m/s | 12.7°C | 71.7% | 867.1hPa | 2.7V | 00:00:00 | 00:00:00 | 00:00:00 | |
| OE3JTB-15 | 2026-09-02 02:03:10 | 48.38175 | 13.52038 | 100° | 16km/h | 1428m | -2.7m/s | 12.6°C | 71.8% | 866.6hPa | 2.7V | 00:00:00 | 00:00:00 | 00:00:00 | |
| OE5HKT-10 | 2026-09-02 02:03:10 | 48.38175 | 13.52038 | 100° | 16km/h | 1428m | -2.7m/s | 12.6°C | 71.8% | 866.6hPa | 2.7V | 00:00:00 | 00:00:00 | 00:00:00 | |
| OE3JTB-15 | 2026-09-02 02:03:08 | 48.38177 | 13.52026 | 100° | 15km/h | 1433m | -2.5m/s | 12.6°C | 71.9% | 866.1hPa | 2.7V | 07:03:00 | 03:33:57 | 00:00:00 | |
| OE5MMP-10 | 2026-09-02 02:03:07 | 48.38177 | 13.52021 | 110° | 16km/h | 1436m | -2.5m/s | 12.5°C | 72.0% | 865.8hPa | 2.7V | 00:00:00 | 03:33:56 | 00:00:00 | |
| OE3JTB-15 | 2026-09-02 02:03:06 | 48.38179 | 13.52015 | 116° | 16km/h | 1438m | -2.5m/s | 12.5°C | 72.1% | 865.6hPa | 2.7V | 00:00:00 | 00:00:00 | 00:00:00 | |
| OE5WHR-10 | 2026-09-02 02:03:06 | 48.38179 | 13.52015 | 116° | 16km/h | 1438m | -2.5m/s | 12.5°C | 72.1% | 865.6hPa | 2.7V | 00:00:00 | 03:33:55 | 00:00:00 | |
| OE5DRO-10 | 2026-09-02 02:03:05 | 48.38181 | 13.52009 | 108° | 16km/h | 1441m | -2.3m/s | 12.5°C | 72.1% | 865.4hPa | 2.7V | 00:00:00 | 00:00:00 | 00:00:00 | |
| PG1ADW-2 | 2026-09-02 02:03:05 | 48.38181 | 13.52009 | 108° | 16km/h | 1441m | -2.3m/s | 12.5°C | 72.1% | 865.4hPa | 2.7V | 00:00:00 | 03:33:54 | 00:00:00 | |
| OE3JTB-15 | 2026-09-02 02:03:04 | 48.38182 | 13.52003 | 109° | 16km/h | 1443m | -2.0m/s | 12.5°C | 72.1% | 865.1hPa | 2.7V | 00:00:00 | 00:00:00 | 00:00:00 | |
| OE5HKT-10 | 2026-09-02 02:03:04 | 48.38182 | 13.52003 | 109° | 16km/h | 1443m | -2.0m/s | 12.5°C | 72.1% | 865.1hPa | 2.7V | 00:00:00 | 00:00:00 | 00:00:00 | |
| OE5FHM-15 | 2026-09-02 02:03:03 | 48.38183 | 13.51997 | 108° | 16km/h | 1445m | -2.4m/s | 12.5°C | 72.2% | 864.9hPa | 2.7V | 00:00:00 | 03:33:52 | 00:00:00 | |
| OE3JTB-15 | 2026-09-02 02:03:02 | 48.38185 | 13.51992 | 111° | 16km/h | 1448m | -2.8m/s | 12.4°C | 72.1% | 864.7hPa | 2.7V | 00:00:00 | 03:33:51 | 00:00:00 | |
| OE5MMP-10 | 2026-09-02 02:03:02 | 48.38185 | 13.51992 | 111° | 16km/h | 1448m | -2.8m/s | 12.4°C | 72.1% | 864.7hPa | 2.7V | 00:00:00 | 03:33:51 | 00:00:00 | |
| OE5DXL-15 | 2026-09-02 02:03:01 | 48.38186 | 13.51986 | 120° | 16km/h | 1451m | -2.4m/s | 12.4°C | 72.3% | 864.4hPa | 2.7V | 00:00:00 | 00:00:00 | 00:00:00 | |
| OE3JTB-15 | 2026-09-02 02:03:00 | 48.38188 | 13.51981 | 108° | 15km/h | 1453m | -2.0m/s | 12.4°C | 72.3% | 864.2hPa | 2.7V | 00:00:00 | 00:00:00 | 00:00:00 | |
| OE5WHR-10 | 2026-09-02 02:03:00 | 48.38188 | 13.51981 | 108° | 15km/h | 1453m | -2.0m/s | 12.4°C | 72.3% | 864.2hPa | 2.7V | 00:00:00 | 00:00:00 | 00:00:00 | |
| PG1ADW-2 | 2026-09-02 02:02:59 | 48.38189 | 13.51975 | 108° | 16km/h | 1455m | -2.5m/s | 12.4°C | 72.2% | 864.0hPa | 2.7V | 00:00:00 | 00:00:00 | 00:00:00 | |
| OE5HKT-10 | 2026-09-02 02:02:58 | 48.38191 | 13.51970 | 119° | 16km/h | 1458m | -2.4m/s | 12.3°C | 72.4% | 863.6hPa | 2.7V | 00:00:00 | 03:33:47 | 00:00:00 | |
| OE5DRO-10 | 2026-09-02 02:02:58 | 48.38191 | 13.51970 | 119° | 16km/h | 1458m | -2.4m/s | 12.3°C | 72.4% | 863.6hPa | 2.7V | 00:00:00 | 00:00:00 | 00:00:00 | |
| OE3JTB-15 | 2026-09-02 02:02:58 | 48.38191 | 13.51970 | 119° | 15km/h | 1458m | -2.4m/s | 12.3°C | 72.4% | 863.6hPa | 2.7V | 00:00:00 | 00:00:00 | 00:00:00 | |
| OE5MMP-10 | 2026-09-02 02:02:57 | 48.38192 | 13.51964 | 105° | 16km/h | 1460m | -2.4m/s | 12.3°C | 72.4% | 863.4hPa | 2.7V | 00:00:00 | 03:33:46 | 00:00:00 | |
| OE3JTB-15 | 2026-09-02 02:02:56 | 48.38193 | 13.51959 | 109° | 16km/h | 1462m | -3.1m/s | 12.3°C | 72.4% | 863.1hPa | 2.7V | 00:00:00 | 03:33:45 | 00:00:00 | |
| OE3JTB-15 | 2026-09-02 02:02:54 | 48.38195 | 13.51947 | 104° | 18km/h | 1468m | -2.9m/s | 12.3°C | 71.6% | 862.6hPa | 2.7V | 00:00:00 | 00:00:00 | 00:00:00 | |
| OE5WHR-10 | 2026-09-02 02:02:54 | 48.38195 | 13.51947 | 104° | 18km/h | 1468m | -2.9m/s | 12.3°C | 71.6% | 862.6hPa | 2.7V | 00:00:00 | 00:00:00 | 00:00:00 | |
| OE5FHM-15 | 2026-09-02 02:02:53 | 48.38197 | 13.51940 | 106° | 16km/h | 1471m | -2.6m/s | 12.3°C | 71.8% | 862.2hPa | 2.7V | 00:00:00 | 03:33:42 | 00:00:00 | |
| PG1ADW-2 | 2026-09-02 02:02:53 | 48.38197 | 13.51940 | 106° | 18km/h | 1471m | -2.6m/s | 12.3°C | 71.8% | 862.2hPa | 2.7V | 00:00:00 | 00:00:00 | 00:00:00 | |
| OE5HKT-10 | 2026-09-02 02:02:52 | 48.38197 | 13.51934 | 100° | 18km/h | 1473m | -2.7m/s | 12.3°C | 71.0% | 862.0hPa | 2.7V | 00:00:00 | 00:00:00 | 00:00:00 | |
| OE5MMP-10 | 2026-09-02 02:02:52 | 48.38197 | 13.51934 | 100° | 18km/h | 1473m | -2.7m/s | 12.3°C | 71.0% | 862.0hPa | 2.7V | 00:00:00 | 03:33:41 | 00:00:00 | |
| OE3JTB-15 | 2026-09-02 02:02:52 | 48.38197 | 13.51934 | 100° | 18km/h | 1473m | -2.7m/s | 12.3°C | 71.0% | 862.0hPa | 2.7V | 07:03:00 | 00:00:00 | 00:00:00 | |
| OE5DRO-10 | 2026-09-02 02:02:51 | 48.38198 | 13.51927 | 98° | 16km/h | 1476m | -2.7m/s | 12.3°C | 71.2% | 861.7hPa | 2.7V | 00:00:00 | 00:00:00 | 00:00:00 | |
| OE3JTB-15 | 2026-09-02 02:02:50 | 48.38199 | 13.51921 | 104° | 18km/h | 1479m | -3.0m/s | 12.3°C | 70.5% | 861.4hPa | 2.7V | 00:00:00 | 03:33:39 | 00:00:00 | |
| OE5WHR-10 | 2026-09-02 02:02:48 | 48.38201 | 13.51908 | 112° | 16km/h | 1484m | -3.0m/s | 12.2°C | 70.6% | 860.8hPa | 2.7V | 07:03:00 | 03:33:37 | 00:00:00 | |
| OE3JTB-15 | 2026-09-02 02:02:48 | 48.38201 | 13.51908 | 112° | 16km/h | 1484m | -3.0m/s | 12.2°C | 70.6% | 860.8hPa | 2.7V | 00:00:00 | 00:00:00 | 00:00:00 | |
| OE5MMP-10 | 2026-09-02 02:02:47 | 48.38203 | 13.51901 | 105° | 16km/h | 1487m | -2.5m/s | 12.2°C | 70.6% | 860.5hPa | 2.7V | 00:00:00 | 03:33:36 | 00:00:00 | |
| PG1ADW-2 | 2026-09-02 02:02:47 | 48.38203 | 13.51901 | 105° | 16km/h | 1487m | -2.5m/s | 12.2°C | 70.6% | 860.5hPa | 2.7V | 00:00:00 | 00:00:00 | 00:00:00 | |
| OE3JTB-15 | 2026-09-02 02:02:46 | 48.38204 | 13.51895 | 110° | 16km/h | 1490m | -3.0m/s | 12.2°C | 70.8% | 860.3hPa | 2.7V | 00:00:00 | 00:00:00 | 00:00:00 | |
| OE5HKT-10 | 2026-09-02 02:02:46 | 48.38204 | 13.51895 | 110° | 16km/h | 1490m | -3.0m/s | 12.2°C | 70.8% | 860.3hPa | 2.7V | 00:00:00 | 00:00:00 | 00:00:00 | |
| OE5DRO-10 | 2026-09-02 02:02:44 | 48.38208 | 13.51883 | 115° | 15km/h | 1496m | -2.5m/s | 12.1°C | 70.9% | 859.7hPa | 2.7V | 07:03:00 | 00:00:00 | 00:00:00 | |
| OE3JTB-15 | 2026-09-02 02:02:44 | 48.38208 | 13.51883 | 115° | 16km/h | 1496m | -2.5m/s | 12.1°C | 70.9% | 859.7hPa | 2.7V | 00:00:00 | 03:33:33 | 00:00:00 | |
| OE5MMP-10 | 2026-09-02 02:02:42 | 48.38212 | 13.51873 | 122° | 15km/h | 1501m | -2.5m/s | 12.1°C | 71.0% | 859.2hPa | 2.7V | 00:00:00 | 03:33:31 | 00:00:00 | |
| OE3JTB-15 | 2026-09-02 02:02:42 | 48.38212 | 13.51873 | 122° | 15km/h | 1501m | -2.5m/s | 12.1°C | 71.0% | 859.2hPa | 2.7V | 00:00:00 | 00:00:00 | 00:00:00 | |
| OE5WHR-10 | 2026-09-02 02:02:42 | 48.38212 | 13.51873 | 122° | 15km/h | 1501m | -2.5m/s | 12.1°C | 71.0% | 859.2hPa | 2.7V | 00:00:00 | 00:00:00 | 00:00:00 | |
| OE5DXL-15 | 2026-09-02 02:02:41 | 48.38214 | 13.51869 | 129° | 11km/h | 1503m | -2.4m/s | 12.1°C | 71.3% | 859.0hPa | 2.7V | 00:00:00 | 00:00:00 | 00:00:00 | |
| PG1ADW-2 | 2026-09-02 02:02:41 | 48.38214 | 13.51869 | 129° | 15km/h | 1503m | -2.4m/s | 12.1°C | 71.3% | 859.0hPa | 2.7V | 00:00:00 | 03:33:30 | 00:00:00 | |
| OE3JTB-15 | 2026-09-02 02:02:40 | 48.38216 | 13.51864 | 129° | 13km/h | 1506m | -2.8m/s | 12.0°C | 71.2% | 858.7hPa | 2.7V | 00:00:00 | 00:00:00 | 00:00:00 | |
| OE5HKT-10 | 2026-09-02 02:02:40 | 48.38216 | 13.51864 | 129° | 15km/h | 1506m | -2.8m/s | 12.0°C | 71.2% | 858.7hPa | 2.7V | 07:03:00 | 03:33:29 | 00:00:00 | |
| OE3JTB-15 | 2026-09-02 02:02:38 | 48.38221 | 13.51856 | 129° | 15km/h | 1511m | -2.9m/s | 12.0°C | 71.5% | 858.1hPa | 2.7V | 00:00:00 | 03:33:27 | 00:00:00 | |
| OE5DRO-10 | 2026-09-02 02:02:37 | 48.38223 | 13.51852 | 128° | 15km/h | 1514m | -2.3m/s | 12.0°C | 71.8% | 857.9hPa | 2.7V | 00:00:00 | 00:00:00 | 00:00:00 | |
| OE5MMP-10 | 2026-09-02 02:02:37 | 48.38223 | 13.51852 | 128° | 15km/h | 1514m | -2.3m/s | 12.0°C | 71.8% | 857.9hPa | 2.7V | 07:03:00 | 03:33:26 | 00:00:00 | |
| OE5WHR-10 | 2026-09-02 02:02:36 | 48.38225 | 13.51848 | 128° | 15km/h | 1516m | -2.7m/s | 11.9°C | 71.9% | 857.6hPa | 2.7V | 00:00:00 | 00:00:00 | 00:00:00 | |
| OE3JTB-15 | 2026-09-02 02:02:36 | 48.38225 | 13.51848 | 128° | 15km/h | 1516m | -2.7m/s | 11.9°C | 71.9% | 857.6hPa | 2.7V | 07:03:00 | 00:00:00 | 00:00:00 | |
| PG1ADW-2 | 2026-09-02 02:02:35 | 48.38227 | 13.51844 | 126° | 13km/h | 1519m | -2.3m/s | 11.9°C | 72.2% | 857.3hPa | 2.7V | 00:00:00 | 00:00:00 | 00:00:00 | |
| OE3JTB-15 | 2026-09-02 02:02:34 | 48.38229 | 13.51840 | 128° | 15km/h | 1522m | -2.8m/s | 11.9°C | 72.0% | 857.1hPa | 2.7V | 00:00:00 | 00:00:00 | 00:00:00 | |
| OE5HKT-10 | 2026-09-02 02:02:34 | 48.38229 | 13.51840 | 128° | 13km/h | 1522m | -2.8m/s | 11.9°C | 72.0% | 857.1hPa | 2.7V | 00:00:00 | 00:00:00 | 00:00:00 | |
| OE3JTB-15 | 2026-09-02 02:02:32 | 48.38234 | 13.51831 | 136° | 15km/h | 1527m | -2.8m/s | 11.8°C | 72.6% | 856.4hPa | 2.7V | 00:00:00 | 03:33:21 | 00:00:00 | |
| OE5MMP-10 | 2026-09-02 02:02:32 | 48.38234 | 13.51831 | 136° | 13km/h | 1527m | -2.8m/s | 11.8°C | 72.6% | 856.4hPa | 2.7V | 00:00:00 | 03:33:21 | 00:00:00 | |
| OE5DRO-10 | 2026-09-02 02:02:30 | 48.38238 | 13.51824 | 134° | 11km/h | 1532m | -2.6m/s | 11.7°C | 72.9% | 855.8hPa | 2.7V | 00:00:00 | 00:00:00 | 00:00:00 | |
| OE3JTB-15 | 2026-09-02 02:02:30 | 48.38238 | 13.51824 | 134° | 13km/h | 1532m | -2.6m/s | 11.7°C | 72.9% | 855.8hPa | 2.7V | 00:00:00 | 00:00:00 | 00:00:00 | |
| OE5WHR-10 | 2026-09-02 02:02:30 | 48.38238 | 13.51824 | 134° | 11km/h | 1532m | -2.6m/s | 11.7°C | 72.9% | 855.8hPa | 2.7V | 00:00:00 | 03:33:19 | 00:00:00 | |
| PG1ADW-2 | 2026-09-02 02:02:29 | 48.38240 | 13.51821 | 141° | 11km/h | 1535m | -2.6m/s | 11.7°C | 72.8% | 855.6hPa | 2.7V | 07:03:00 | 00:00:00 | 00:00:00 | |
| OE5HKT-10 | 2026-09-02 02:02:28 | 48.38243 | 13.51818 | 130° | 9km/h | 1537m | -2.6m/s | 11.7°C | 72.9% | 855.4hPa | 2.7V | 00:00:00 | 00:00:00 | 00:00:00 | |
| OE3JTB-15 | 2026-09-02 02:02:28 | 48.38243 | 13.51818 | 130° | 11km/h | 1537m | -2.6m/s | 11.7°C | 72.9% | 855.4hPa | 2.7V | 00:00:00 | 00:00:00 | 00:00:00 | |
| OE5MMP-10 | 2026-09-02 02:02:27 | 48.38245 | 13.51814 | 129° | 9km/h | 1540m | -2.4m/s | 11.7°C | 73.1% | 855.2hPa | 2.7V | 00:00:00 | 03:33:16 | 00:00:00 | |
| OE3JTB-15 | 2026-09-02 02:02:26 | 48.38246 | 13.51811 | 127° | 9km/h | 1543m | -2.4m/s | 11.6°C | 73.3% | 854.9hPa | 2.7V | 00:00:00 | 03:33:15 | 00:00:00 | |
| OE3JTB-15 | 2026-09-02 02:02:24 | 48.38248 | 13.51806 | 118° | 7km/h | 1547m | -2.5m/s | 11.6°C | 73.6% | 854.2hPa | 2.7V | 00:00:00 | 00:00:00 | 00:00:00 | |
| OE5WHR-10 | 2026-09-02 02:02:24 | 48.38248 | 13.51806 | 118° | 7km/h | 1547m | -2.5m/s | 11.6°C | 73.6% | 854.2hPa | 2.7V | 00:00:00 | 00:00:00 | 00:00:00 | |
| OE5DRO-10 | 2026-09-02 02:02:23 | 48.38249 | 13.51803 | 124° | 5km/h | 1550m | -2.7m/s | 11.6°C | 73.5% | 854.2hPa | 2.7V | 00:00:00 | 00:00:00 | 00:00:00 | |
| PG1ADW-2 | 2026-09-02 02:02:23 | 48.38249 | 13.51803 | 124° | 7km/h | 1550m | -2.7m/s | 11.6°C | 73.5% | 854.2hPa | 2.7V | 00:00:00 | 00:00:00 | 00:00:00 | |
| OE5HKT-10 | 2026-09-02 02:02:22 | 48.38250 | 13.51801 | 116° | 5km/h | 1553m | -2.7m/s | 11.6°C | 73.5% | 853.9hPa | 2.7V | 00:00:00 | 03:33:11 | 00:00:00 | |
| OE5MMP-10 | 2026-09-02 02:02:22 | 48.38250 | 13.51801 | 116° | 5km/h | 1553m | -2.7m/s | 11.6°C | 73.5% | 853.9hPa | 2.7V | 00:00:00 | 03:33:11 | 00:00:00 | |
| OE3JTB-15 | 2026-09-02 02:02:22 | 48.38250 | 13.51801 | 116° | 5km/h | 1553m | -2.7m/s | 11.6°C | 73.5% | 853.9hPa | 2.7V | 00:00:00 | 00:00:00 | 00:00:00 | |
| OE5DXL-15 | 2026-09-02 02:02:21 | 48.38251 | 13.51799 | 95° | 11km/h | 1555m | -2.5m/s | 11.5°C | 73.6% | 853.5hPa | 2.7V | 00:00:00 | 00:00:00 | 00:00:00 | |
| OE3JTB-15 | 2026-09-02 02:02:20 | 48.38251 | 13.51797 | 97° | 7km/h | 1558m | -2.6m/s | 11.5°C | 73.7% | 853.4hPa | 2.7V | 07:03:00 | 03:33:09 | 00:00:00 | |
| OE5WHR-10 | 2026-09-02 02:02:18 | 48.38251 | 13.51791 | 96° | 7km/h | 1563m | -2.6m/s | 11.5°C | 73.9% | 852.8hPa | 2.7V | 00:00:00 | 00:00:00 | 00:00:00 | |
| OE3JTB-15 | 2026-09-02 02:02:18 | 48.38251 | 13.51791 | 96° | 7km/h | 1563m | -2.6m/s | 11.5°C | 73.9% | 852.8hPa | 2.7V | 00:00:00 | 00:00:00 | 00:00:00 | |
| OE5MMP-10 | 2026-09-02 02:02:17 | 48.38251 | 13.51789 | 83° | 7km/h | 1566m | -2.6m/s | 11.4°C | 73.9% | 852.6hPa | 2.7V | 00:00:00 | 03:33:06 | 00:00:00 | |
| OE5DRO-10 | 2026-09-02 02:02:16 | 48.38250 | 13.51786 | 75° | 9km/h | 1569m | -2.4m/s | 11.4°C | 74.0% | 852.3hPa | 2.7V | 00:00:00 | 00:00:00 | 00:00:00 | |
| PG1ADW-2 | 2026-09-02 02:02:16 | 48.38250 | 13.51786 | 75° | 9km/h | 1569m | -2.4m/s | 11.4°C | 74.0% | 852.3hPa | 2.7V | 00:00:00 | 03:33:05 | 00:00:00 | |
| OE3JTB-15 | 2026-09-02 02:02:16 | 48.38250 | 13.51786 | 75° | 7km/h | 1569m | -2.4m/s | 11.4°C | 74.0% | 852.3hPa | 2.7V | 00:00:00 | 00:00:00 | 00:00:00 | |
| OE5HKT-10 | 2026-09-02 02:02:16 | 48.38250 | 13.51786 | 75° | 9km/h | 1569m | -2.4m/s | 11.4°C | 74.0% | 852.3hPa | 2.7V | 00:00:00 | 00:00:00 | 00:00:00 | |
| OE3JTB-15 | 2026-09-02 02:02:14 | 48.38249 | 13.51780 | 85° | 7km/h | 1574m | -2.5m/s | 11.4°C | 74.3% | 851.9hPa | 2.7V | 00:00:00 | 03:33:03 | 00:00:00 | |
| OE3JTB-15 | 2026-09-02 02:02:12 | 48.38248 | 13.51775 | 79° | 9km/h | 1579m | -2.8m/s | 11.3°C | 74.5% | 851.2hPa | 2.7V | 00:00:00 | 00:00:00 | 00:00:00 | |
| OE5WHR-10 | 2026-09-02 02:02:12 | 48.38248 | 13.51775 | 79° | 13km/h | 1579m | -2.8m/s | 11.3°C | 74.5% | 851.2hPa | 2.7V | 00:00:00 | 03:33:01 | 00:00:00 | |
| OE5MMP-10 | 2026-09-02 02:02:12 | 48.38248 | 13.51775 | 79° | 11km/h | 1579m | -2.8m/s | 11.3°C | 74.5% | 851.2hPa | 2.7V | 00:00:00 | 03:33:01 | 00:00:00 | |
| PG1ADW-2 | 2026-09-02 02:02:10 | 48.38247 | 13.51767 | 72° | 15km/h | 1585m | -2.6m/s | 11.3°C | 74.6% | 850.6hPa | 2.7V | 00:00:00 | 00:00:00 | 00:00:00 | |
| OE3JTB-15 | 2026-09-02 02:02:10 | 48.38247 | 13.51767 | 72° | 11km/h | 1585m | -2.6m/s | 11.3°C | 74.6% | 850.6hPa | 2.7V | 00:00:00 | 00:00:00 | 00:00:00 | |
| OE5HKT-10 | 2026-09-02 02:02:10 | 48.38247 | 13.51767 | 72° | 15km/h | 1585m | -2.6m/s | 11.3°C | 74.6% | 850.6hPa | 2.7V | 00:00:00 | 00:00:00 | 00:00:00 | |
| OE5DRO-10 | 2026-09-02 02:02:09 | 48.38246 | 13.51763 | 75° | 16km/h | 1587m | -2.8m/s | 11.2°C | 74.6% | 850.4hPa | 2.7V | 00:00:00 | 00:00:00 | 00:00:00 | |
| OE3JTB-15 | 2026-09-02 02:02:08 | 48.38245 | 13.51758 | 79° | 15km/h | 1590m | -2.7m/s | 11.2°C | 74.7% | 850.1hPa | 2.7V | 00:00:00 | 03:32:57 | 00:00:00 | |
| OE5FHM-15 | 2026-09-02 02:02:07 | 48.38245 | 13.51752 | 82° | 18km/h | 1593m | -2.4m/s | 11.2°C | 74.6% | 849.8hPa | 2.7V | 00:00:00 | 03:32:56 | 00:00:00 | |
| OE5MMP-10 | 2026-09-02 02:02:07 | 48.38245 | 13.51752 | 82° | 18km/h | 1593m | -2.4m/s | 11.2°C | 74.6% | 849.8hPa | 2.7V | 00:00:00 | 03:32:56 | 00:00:00 | |
| OE5WHR-10 | 2026-09-02 02:02:06 | 48.38244 | 13.51746 | 88° | 18km/h | 1595m | -2.3m/s | 11.2°C | 74.7% | 849.5hPa | 2.7V | 00:00:00 | 00:00:00 | 00:00:00 | |
| OE3JTB-15 | 2026-09-02 02:02:06 | 48.38244 | 13.51746 | 88° | 16km/h | 1595m | -2.3m/s | 11.2°C | 74.7% | 849.5hPa | 2.7V | 00:00:00 | 00:00:00 | 00:00:00 | |
| OE3JTB-15 | 2026-09-02 02:02:04 | 48.38245 | 13.51733 | 98° | 18km/h | 1601m | -2.4m/s | 11.1°C | 74.9% | 849.1hPa | 2.7V | 07:04:00 | 00:00:00 | 00:00:00 | |
| PG1ADW-2 | 2026-09-02 02:02:04 | 48.38245 | 13.51733 | 98° | 20km/h | 1601m | -2.4m/s | 11.1°C | 74.9% | 849.1hPa | 2.7V | 00:00:00 | 00:00:00 | 00:00:00 | |
| OE5HKT-10 | 2026-09-02 02:02:04 | 48.38245 | 13.51733 | 98° | 20km/h | 1601m | -2.4m/s | 11.1°C | 74.9% | 849.1hPa | 2.7V | 00:00:00 | 03:32:53 | 00:00:00 | |
| OE5DRO-10 | 2026-09-02 02:02:02 | 48.38246 | 13.51719 | 103° | 20km/h | 1605m | -2.4m/s | 11.1°C | 74.9% | 848.6hPa | 2.7V | 00:00:00 | 00:00:00 | 00:00:00 | |
| OE3JTB-15 | 2026-09-02 02:02:02 | 48.38246 | 13.51719 | 103° | 20km/h | 1605m | -2.4m/s | 11.1°C | 74.9% | 848.6hPa | 2.7V | 00:00:00 | 03:32:51 | 00:00:00 | |
| OE5MMP-10 | 2026-09-02 02:02:02 | 48.38246 | 13.51719 | 103° | 20km/h | 1605m | -2.4m/s | 11.1°C | 74.9% | 848.6hPa | 2.7V | 00:00:00 | 03:32:51 | 00:00:00 | |
| OE5DXL-15 | 2026-09-02 02:02:01 | 48.38247 | 13.51711 | 104° | 20km/h | 1608m | -2.5m/s | 11.1°C | 74.0% | 848.3hPa | 2.7V | 00:00:00 | 00:00:00 | 00:00:00 | |
| OE5WHR-10 | 2026-09-02 02:02:00 | 48.38249 | 13.51704 | 104° | 20km/h | 1610m | -2.6m/s | 11.1°C | 74.1% | 848.2hPa | 2.7V | 07:04:00 | 00:00:00 | 00:00:00 | |
| OE3JTB-15 | 2026-09-02 02:02:00 | 48.38249 | 13.51704 | 104° | 20km/h | 1610m | -2.6m/s | 11.1°C | 74.1% | 848.2hPa | 2.7V | 00:00:00 | 00:00:00 | 00:00:00 | |
| PG1ADW-2 | 2026-09-02 02:01:58 | 48.38250 | 13.51690 | 100° | 20km/h | 1615m | -2.6m/s | 11.1°C | 74.3% | 847.5hPa | 2.7V | 00:00:00 | 00:00:00 | 00:00:00 | |
| OE5HKT-10 | 2026-09-02 02:01:58 | 48.38250 | 13.51690 | 100° | 20km/h | 1615m | -2.6m/s | 11.1°C | 74.3% | 847.5hPa | 2.7V | 00:00:00 | 00:00:00 | 00:00:00 | |
| OE3JTB-15 | 2026-09-02 02:01:58 | 48.38250 | 13.51690 | 100° | 20km/h | 1615m | -2.6m/s | 11.1°C | 74.3% | 847.5hPa | 2.7V | 00:00:00 | 00:00:00 | 00:00:00 | |
| OE5MMP-10 | 2026-09-02 02:01:57 | 48.38251 | 13.51682 | 98° | 20km/h | 1618m | -2.6m/s | 11.0°C | 74.0% | 847.3hPa | 2.7V | 07:04:00 | 03:32:46 | 00:00:00 | |
| OE5FHM-15 | 2026-09-02 02:01:57 | 48.38251 | 13.51682 | 98° | 20km/h | 1618m | -2.6m/s | 11.0°C | 74.0% | 847.3hPa | 2.7V | 00:00:00 | 03:32:46 | 00:00:00 | |
| OE3JTB-15 | 2026-09-02 02:01:56 | 48.38252 | 13.51675 | 97° | 20km/h | 1621m | -2.4m/s | 11.0°C | 74.2% | 847.0hPa | 2.7V | 00:00:00 | 03:32:45 | 00:00:00 | |
| OE5DRO-10 | 2026-09-02 02:01:55 | 48.38252 | 13.51668 | 97° | 20km/h | 1623m | -2.5m/s | 11.0°C | 74.3% | 846.8hPa | 2.7V | 00:00:00 | 00:00:00 | 00:00:00 | |
| OE3JTB-15 | 2026-09-02 02:01:54 | 48.38253 | 13.51660 | 97° | 20km/h | 1625m | -2.5m/s | 11.0°C | 74.1% | 846.5hPa | 2.7V | 00:00:00 | 00:00:00 | 00:00:00 | |
| OE5WHR-10 | 2026-09-02 02:01:54 | 48.38253 | 13.51660 | 97° | 20km/h | 1625m | -2.5m/s | 11.0°C | 74.1% | 846.5hPa | 2.7V | 00:00:00 | 03:32:43 | 00:00:00 | |
| OE5HKT-10 | 2026-09-02 02:01:52 | 48.38254 | 13.51645 | 99° | 20km/h | 1631m | -2.6m/s | 10.9°C | 74.0% | 846.0hPa | 2.7V | 07:04:00 | 00:00:00 | 00:00:00 | |
| OE3JTB-15 | 2026-09-02 02:01:52 | 48.38254 | 13.51645 | 99° | 20km/h | 1631m | -2.6m/s | 10.9°C | 74.0% | 846.0hPa | 2.7V | 00:00:00 | 00:00:00 | 00:00:00 | |
| OE5MMP-10 | 2026-09-02 02:01:52 | 48.38254 | 13.51645 | 99° | 20km/h | 1631m | -2.6m/s | 10.9°C | 74.0% | 846.0hPa | 2.7V | 00:00:00 | 03:32:41 | 00:00:00 | |
| PG1ADW-2 | 2026-09-02 02:01:52 | 48.38254 | 13.51645 | 99° | 20km/h | 1631m | -2.6m/s | 10.9°C | 74.0% | 846.0hPa | 2.7V | 00:00:00 | 03:32:41 | 00:00:00 | |
| OE3JTB-15 | 2026-09-02 02:01:50 | 48.38256 | 13.51631 | 101° | 20km/h | 1636m | -2.7m/s | 10.9°C | 74.5% | 845.4hPa | 2.7V | 00:00:00 | 03:32:39 | 00:00:00 | |
| OE5DRO-10 | 2026-09-02 02:01:48 | 48.38257 | 13.51616 | 99° | 18km/h | 1642m | -2.6m/s | 10.8°C | 74.5% | 844.8hPa | 2.7V | 07:04:00 | 00:00:00 | 00:00:00 | |
| OE5WHR-10 | 2026-09-02 02:01:48 | 48.38257 | 13.51616 | 99° | 18km/h | 1642m | -2.6m/s | 10.8°C | 74.5% | 844.8hPa | 2.7V | 00:00:00 | 00:00:00 | 00:00:00 | |
| OE3JTB-15 | 2026-09-02 02:01:48 | 48.38257 | 13.51616 | 99° | 20km/h | 1642m | -2.6m/s | 10.8°C | 74.5% | 844.8hPa | 2.7V | 07:04:00 | 00:00:00 | 00:00:00 | |
| OE5MMP-10 | 2026-09-02 02:01:47 | 48.38258 | 13.51608 | 97° | 18km/h | 1644m | -2.5m/s | 10.8°C | 74.9% | 844.8hPa | 2.7V | 00:00:00 | 03:32:36 | 00:00:00 | |
| OE5FHM-15 | 2026-09-02 02:01:47 | 48.38258 | 13.51608 | 97° | 18km/h | 1644m | -2.5m/s | 10.8°C | 74.9% | 844.8hPa | 2.7V | 07:04:00 | 03:32:36 | 00:00:00 | |
| OE3JTB-15 | 2026-09-02 02:01:46 | 48.38258 | 13.51601 | 94° | 18km/h | 1647m | -2.5m/s | 10.8°C | 74.3% | 844.4hPa | 2.7V | 00:00:00 | 00:00:00 | 00:00:00 | |
| PG1ADW-2 | 2026-09-02 02:01:46 | 48.38258 | 13.51601 | 94° | 18km/h | 1647m | -2.5m/s | 10.8°C | 74.3% | 844.4hPa | 2.7V | 00:00:00 | 00:00:00 | 00:00:00 | |
| OE5HKT-10 | 2026-09-02 02:01:46 | 48.38258 | 13.51601 | 94° | 18km/h | 1647m | -2.5m/s | 10.8°C | 74.3% | 844.4hPa | 2.7V | 00:00:00 | 03:32:35 | 00:00:00 | |
| OE3JTB-15 | 2026-09-02 02:01:44 | 48.38259 | 13.51586 | 89° | 18km/h | 1652m | -2.4m/s | 10.7°C | 74.5% | 843.7hPa | 2.7V | 00:00:00 | 03:32:33 | 00:00:00 | |
| OE3JTB-15 | 2026-09-02 02:01:42 | 48.38258 | 13.51573 | 88° | 18km/h | 1657m | -2.5m/s | 10.7°C | 74.2% | 843.3hPa | 2.7V | 00:00:00 | 00:00:00 | 00:00:00 | |
| OE5WHR-10 | 2026-09-02 02:01:42 | 48.38258 | 13.51573 | 88° | 18km/h | 1657m | -2.5m/s | 10.7°C | 74.2% | 843.3hPa | 2.7V | 00:00:00 | 00:00:00 | 00:00:00 | |
| OE5MMP-10 | 2026-09-02 02:01:42 | 48.38258 | 13.51573 | 88° | 18km/h | 1657m | -2.5m/s | 10.7°C | 74.2% | 843.3hPa | 2.7V | 00:00:00 | 03:32:31 | 00:00:00 | |
| OE5DRO-10 | 2026-09-02 02:01:41 | 48.38258 | 13.51566 | 87° | 18km/h | 1660m | -2.3m/s | 10.7°C | 73.8% | 843.0hPa | 2.7V | 00:00:00 | 00:00:00 | 00:00:00 | |
| OE5DXL-15 | 2026-09-02 02:01:41 | 48.38258 | 13.51566 | 87° | 20km/h | 1660m | -2.3m/s | 10.7°C | 73.8% | 843.0hPa | 2.7V | 00:00:00 | 00:00:00 | 00:00:00 | |
| OE3JTB-15 | 2026-09-02 02:01:40 | 48.38258 | 13.51560 | 87° | 18km/h | 1662m | -2.4m/s | 10.7°C | 74.1% | 842.8hPa | 2.7V | 00:00:00 | 00:00:00 | 00:00:00 | |
| PG1ADW-2 | 2026-09-02 02:01:40 | 48.38258 | 13.51560 | 87° | 18km/h | 1662m | -2.4m/s | 10.7°C | 74.1% | 842.8hPa | 2.7V | 07:04:00 | 00:00:00 | 00:00:00 | |
| OE5HKT-10 | 2026-09-02 02:01:40 | 48.38258 | 13.51560 | 87° | 18km/h | 1662m | -2.4m/s | 10.7°C | 74.1% | 842.8hPa | 2.7V | 00:00:00 | 00:00:00 | 00:00:00 | |
| OE3JTB-15 | 2026-09-02 02:01:38 | 48.38257 | 13.51546 | 90° | 18km/h | 1667m | -2.6m/s | 10.6°C | 74.0% | 842.3hPa | 2.7V | 00:00:00 | 03:32:27 | 00:00:00 | |
| OE5MMP-10 | 2026-09-02 02:01:37 | 48.38258 | 13.51539 | 92° | 20km/h | 1670m | -2.4m/s | 10.6°C | 74.2% | 842.0hPa | 2.7V | 00:00:00 | 03:32:26 | 00:00:00 | |
| OE5FHM-15 | 2026-09-02 02:01:37 | 48.38258 | 13.51539 | 92° | 20km/h | 1670m | -2.4m/s | 10.6°C | 74.2% | 842.0hPa | 2.7V | 00:00:00 | 03:32:26 | 00:00:00 | |
| OE5WHR-10 | 2026-09-02 02:01:36 | 48.38258 | 13.51532 | 94° | 20km/h | 1672m | -2.7m/s | 10.6°C | 74.1% | 841.7hPa | 2.7V | 00:00:00 | 03:32:25 | 00:00:00 | |
| OE3JTB-15 | 2026-09-02 02:01:36 | 48.38258 | 13.51532 | 94° | 20km/h | 1672m | -2.7m/s | 10.6°C | 74.1% | 841.7hPa | 2.7V | 00:00:00 | 00:00:00 | 00:00:00 | |
| OE5DRO-10 | 2026-09-02 02:01:34 | 48.38258 | 13.51517 | 96° | 20km/h | 1678m | -2.7m/s | 10.5°C | 73.9% | 841.3hPa | 2.7V | 00:00:00 | 00:00:00 | 00:00:00 | |
| OE3JTB-15 | 2026-09-02 02:01:34 | 48.38258 | 13.51517 | 96° | 20km/h | 1678m | -2.7m/s | 10.5°C | 73.9% | 841.3hPa | 2.7V | 00:00:00 | 00:00:00 | 00:00:00 | |
| PG1ADW-2 | 2026-09-02 02:01:34 | 48.38258 | 13.51517 | 96° | 20km/h | 1678m | -2.7m/s | 10.5°C | 73.9% | 841.3hPa | 2.7V | 00:00:00 | 00:00:00 | 00:00:00 | |
| OE5HKT-10 | 2026-09-02 02:01:34 | 48.38258 | 13.51517 | 96° | 20km/h | 1678m | -2.7m/s | 10.5°C | 73.9% | 841.3hPa | 2.7V | 00:00:00 | 00:00:00 | 00:00:00 | |
| OE3JTB-15 | 2026-09-02 02:01:32 | 48.38259 | 13.51502 | 94° | 20km/h | 1683m | -2.6m/s | 10.5°C | 74.3% | 840.6hPa | 2.7V | 07:04:00 | 03:32:21 | 00:00:00 | |
| OE5MMP-10 | 2026-09-02 02:01:32 | 48.38259 | 13.51502 | 94° | 20km/h | 1683m | -2.6m/s | 10.5°C | 74.3% | 840.6hPa | 2.7V | 00:00:00 | 03:32:21 | 00:00:00 | |
| OE3JTB-15 | 2026-09-02 02:01:30 | 48.38260 | 13.51488 | 94° | 20km/h | 1689m | -2.7m/s | 10.4°C | 74.3% | 840.1hPa | 2.7V | 00:00:00 | 00:00:00 | 00:00:00 | |
| OE5WHR-10 | 2026-09-02 02:01:30 | 48.38260 | 13.51488 | 94° | 20km/h | 1689m | -2.7m/s | 10.4°C | 74.3% | 840.1hPa | 2.7V | 00:00:00 | 00:00:00 | 00:00:00 | |
| OE5HKT-10 | 2026-09-02 02:01:28 | 48.38260 | 13.51473 | 92° | 20km/h | 1694m | -2.7m/s | 10.4°C | 74.8% | 839.5hPa | 2.7V | 00:00:00 | 03:32:17 | 00:00:00 | |
| OE3JTB-15 | 2026-09-02 02:01:28 | 48.38260 | 13.51473 | 92° | 20km/h | 1694m | -2.7m/s | 10.4°C | 74.8% | 839.5hPa | 2.7V | 00:00:00 | 00:00:00 | 00:00:00 | |
| PG1ADW-2 | 2026-09-02 02:01:28 | 48.38260 | 13.51473 | 92° | 20km/h | 1694m | -2.7m/s | 10.4°C | 74.8% | 839.5hPa | 2.7V | 00:00:00 | 03:32:17 | 00:00:00 | |
| OE5DRO-10 | 2026-09-02 02:01:27 | 48.38260 | 13.51466 | 91° | 20km/h | 1697m | -2.6m/s | 10.4°C | 75.3% | 839.3hPa | 2.7V | 00:00:00 | 00:00:00 | 00:00:00 | |
| OE5FHM-15 | 2026-09-02 02:01:27 | 48.38260 | 13.51466 | 91° | 20km/h | 1697m | -2.6m/s | 10.4°C | 75.3% | 839.3hPa | 2.7V | 00:00:00 | 03:32:16 | 00:00:00 | |
| OE5MMP-10 | 2026-09-02 02:01:27 | 48.38260 | 13.51466 | 91° | 20km/h | 1697m | -2.6m/s | 10.4°C | 75.3% | 839.3hPa | 2.7V | 00:00:00 | 03:32:16 | 00:00:00 | |
| OE3JTB-15 | 2026-09-02 02:01:26 | 48.38260 | 13.51458 | 92° | 20km/h | 1699m | -2.7m/s | 10.4°C | 75.2% | 839.0hPa | 2.7V | 00:00:00 | 03:32:15 | 00:00:00 | |
| OE3JTB-15 | 2026-09-02 02:01:24 | 48.38261 | 13.51443 | 95° | 20km/h | 1705m | -2.7m/s | 10.3°C | 75.4% | 838.4hPa | 2.7V | 00:00:00 | 00:00:00 | 00:00:00 | |
| OE5WHR-10 | 2026-09-02 02:01:24 | 48.38261 | 13.51443 | 95° | 20km/h | 1705m | -2.7m/s | 10.3°C | 75.4% | 838.4hPa | 2.7V | 00:00:00 | 00:00:00 | 00:00:00 | |
| OE3JTB-15 | 2026-09-02 02:01:22 | 48.38262 | 13.51428 | 98° | 22km/h | 1710m | -2.6m/s | 10.2°C | 75.8% | 837.9hPa | 2.7V | 00:00:00 | 00:00:00 | 00:00:00 | |
| OE5HKT-10 | 2026-09-02 02:01:22 | 48.38262 | 13.51428 | 98° | 20km/h | 1710m | -2.6m/s | 10.2°C | 75.8% | 837.9hPa | 2.7V | 00:00:00 | 00:00:00 | 00:00:00 | |
| PG1ADW-2 | 2026-09-02 02:01:22 | 48.38262 | 13.51428 | 98° | 20km/h | 1710m | -2.6m/s | 10.2°C | 75.8% | 837.9hPa | 2.7V | 00:00:00 | 00:00:00 | 00:00:00 | |
| OE5MMP-10 | 2026-09-02 02:01:22 | 48.38262 | 13.51428 | 98° | 20km/h | 1710m | -2.6m/s | 10.2°C | 75.8% | 837.9hPa | 2.7V | 00:00:00 | 03:32:11 | 00:00:00 | |
| OE5DXL-15 | 2026-09-02 02:01:21 | 48.38263 | 13.51420 | 99° | 20km/h | 1713m | -2.6m/s | 10.2°C | 75.7% | 837.7hPa | 2.7V | 07:04:00 | 00:00:00 | 00:00:00 | |
| OE5DRO-10 | 2026-09-02 02:01:20 | 48.38263 | 13.51412 | 97° | 20km/h | 1715m | -2.7m/s | 10.2°C | 75.9% | 837.5hPa | 2.7V | 00:00:00 | 00:00:00 | 00:00:00 | |
| OE3JTB-15 | 2026-09-02 02:01:20 | 48.38263 | 13.51412 | 97° | 20km/h | 1715m | -2.7m/s | 10.2°C | 75.9% | 837.5hPa | 2.7V | 00:00:00 | 03:32:09 | 00:00:00 | |
| OE5WHR-10 | 2026-09-02 02:01:18 | 48.38264 | 13.51396 | 94° | 20km/h | 1721m | -2.6m/s | 10.1°C | 76.4% | 836.9hPa | 2.7V | 00:00:00 | 03:32:07 | 00:00:00 | |
| OE3JTB-15 | 2026-09-02 02:01:18 | 48.38264 | 13.51396 | 94° | 20km/h | 1721m | -2.6m/s | 10.1°C | 76.4% | 836.9hPa | 2.7V | 00:00:00 | 00:00:00 | 00:00:00 | |
| OE5MMP-10 | 2026-09-02 02:01:17 | 48.38264 | 13.51388 | 93° | 20km/h | 1724m | -2.7m/s | 10.1°C | 76.5% | 836.7hPa | 2.7V | 07:04:00 | 03:32:06 | 00:00:00 | |
| OE5FHM-15 | 2026-09-02 02:01:17 | 48.38264 | 13.51388 | 93° | 20km/h | 1724m | -2.7m/s | 10.1°C | 76.5% | 836.7hPa | 2.7V | 00:00:00 | 03:32:06 | 00:00:00 | |
| OE3JTB-15 | 2026-09-02 02:01:16 | 48.38265 | 13.51380 | 92° | 20km/h | 1726m | -2.7m/s | 10.1°C | 76.4% | 836.5hPa | 2.7V | 07:04:00 | 00:00:00 | 00:00:00 | |
| PG1ADW-2 | 2026-09-02 02:01:16 | 48.38265 | 13.51380 | 92° | 20km/h | 1726m | -2.7m/s | 10.1°C | 76.4% | 836.5hPa | 2.7V | 00:00:00 | 00:00:00 | 00:00:00 | |
| OE5HKT-10 | 2026-09-02 02:01:16 | 48.38265 | 13.51380 | 92° | 20km/h | 1726m | -2.7m/s | 10.1°C | 76.4% | 836.5hPa | 2.7V | 00:00:00 | 00:00:00 | 00:00:00 | |
| OE3JTB-15 | 2026-09-02 02:01:14 | 48.38265 | 13.51365 | 92° | 20km/h | 1732m | -2.7m/s | 10.1°C | 77.1% | 835.9hPa | 2.7V | 00:00:00 | 03:32:03 | 00:00:00 | |
| OE5DRO-10 | 2026-09-02 02:01:13 | 48.38265 | 13.51357 | 93° | 22km/h | 1734m | -2.6m/s | 10.0°C | 77.0% | 835.5hPa | 2.7V | 00:00:00 | 00:00:00 | 00:00:00 | |
| OE3JTB-15 | 2026-09-02 02:01:12 | 48.38266 | 13.51349 | 95° | 22km/h | 1737m | -2.5m/s | 10.0°C | 77.3% | 835.4hPa | 2.7V | 00:00:00 | 00:00:00 | 00:00:00 | |
| OE5MMP-10 | 2026-09-02 02:01:12 | 48.38266 | 13.51349 | 95° | 22km/h | 1737m | -2.5m/s | 10.0°C | 77.3% | 835.4hPa | 2.7V | 00:00:00 | 03:32:01 | 00:00:00 | |
| OE5WHR-10 | 2026-09-02 02:01:12 | 48.38266 | 13.51349 | 95° | 22km/h | 1737m | -2.5m/s | 10.0°C | 77.3% | 835.4hPa | 2.7V | 07:05:00 | 00:00:00 | 00:00:00 | |
| OE5HKT-10 | 2026-09-02 02:01:10 | 48.38266 | 13.51333 | 94° | 20km/h | 1743m | -2.5m/s | 9.9°C | 77.8% | 834.7hPa | 2.7V | 00:00:00 | 03:31:59 | 00:00:00 | |
| OE3JTB-15 | 2026-09-02 02:01:10 | 48.38266 | 13.51333 | 94° | 22km/h | 1743m | -2.5m/s | 9.9°C | 77.8% | 834.7hPa | 2.7V | 00:00:00 | 00:00:00 | 00:00:00 | |
| PG1ADW-2 | 2026-09-02 02:01:10 | 48.38266 | 13.51333 | 94° | 20km/h | 1743m | -2.5m/s | 9.9°C | 77.8% | 834.7hPa | 2.7V | 00:00:00 | 00:00:00 | 00:00:00 | |
| OE3JTB-15 | 2026-09-02 02:01:08 | 48.38267 | 13.51317 | 94° | 22km/h | 1748m | -2.5m/s | 9.9°C | 77.8% | 834.3hPa | 2.7V | 00:00:00 | 03:31:57 | 00:00:00 | |
| OE5MMP-10 | 2026-09-02 02:01:07 | 48.38267 | 13.51309 | 94° | 20km/h | 1750m | -2.7m/s | 9.9°C | 77.8% | 834.0hPa | 2.7V | 00:00:00 | 03:31:56 | 00:00:00 | |
| OE5FHM-15 | 2026-09-02 02:01:07 | 48.38267 | 13.51309 | 94° | 22km/h | 1750m | -2.7m/s | 9.9°C | 77.8% | 834.0hPa | 2.7V | 00:00:00 | 03:31:56 | 00:00:00 | |
| OE3JTB-15 | 2026-09-02 02:01:06 | 48.38268 | 13.51301 | 92° | 20km/h | 1753m | -2.7m/s | 9.9°C | 78.1% | 833.8hPa | 2.7V | 00:00:00 | 00:00:00 | 00:00:00 | |
| OE5DRO-10 | 2026-09-02 02:01:06 | 48.38268 | 13.51301 | 92° | 22km/h | 1753m | -2.7m/s | 9.9°C | 78.1% | 833.8hPa | 2.7V | 00:00:00 | 00:00:00 | 00:00:00 | |
| OE5WHR-10 | 2026-09-02 02:01:06 | 48.38268 | 13.51301 | 92° | 22km/h | 1753m | -2.7m/s | 9.9°C | 78.1% | 833.8hPa | 2.7V | 00:00:00 | 00:00:00 | 00:00:00 | |
| OE5HKT-10 | 2026-09-02 02:01:04 | 48.38268 | 13.51285 | 92° | 22km/h | 1758m | -2.6m/s | 9.8°C | 78.6% | 833.2hPa | 2.7V | 07:05:00 | 00:00:00 | 00:00:00 | |
| OE3JTB-15 | 2026-09-02 02:01:04 | 48.38268 | 13.51285 | 92° | 22km/h | 1758m | -2.6m/s | 9.8°C | 78.6% | 833.2hPa | 2.7V | 00:00:00 | 00:00:00 | 00:00:00 | |
| PG1ADW-2 | 2026-09-02 02:01:04 | 48.38268 | 13.51285 | 92° | 22km/h | 1758m | -2.6m/s | 9.8°C | 78.6% | 833.2hPa | 2.7V | 00:00:00 | 03:31:53 | 00:00:00 | |
| OE5MMP-10 | 2026-09-02 02:01:02 | 48.38268 | 13.51269 | 92° | 22km/h | 1764m | -2.6m/s | 9.7°C | 78.9% | 832.5hPa | 2.7V | 00:00:00 | 03:31:51 | 00:00:00 | |
| OE3JTB-15 | 2026-09-02 02:01:02 | 48.38268 | 13.51269 | 92° | 22km/h | 1764m | -2.6m/s | 9.7°C | 78.9% | 832.5hPa | 2.7V | 00:00:00 | 03:31:51 | 00:00:00 | |
| OE5DXL-15 | 2026-09-02 02:01:01 | 48.38268 | 13.51261 | 93° | 24km/h | 1767m | -2.7m/s | 9.7°C | 79.5% | 832.2hPa | 2.7V | 00:00:00 | 00:00:00 | 00:00:00 | |
| OE5WHR-10 | 2026-09-02 02:01:00 | 48.38269 | 13.51252 | 94° | 24km/h | 1769m | -2.8m/s | 9.7°C | 79.9% | 832.1hPa | 2.7V | 00:00:00 | 03:31:49 | 00:00:00 | |
| OE3JTB-15 | 2026-09-02 02:01:00 | 48.38269 | 13.51252 | 94° | 22km/h | 1769m | -2.8m/s | 9.7°C | 79.9% | 832.1hPa | 2.7V | 07:05:00 | 00:00:00 | 00:00:00 | |
| OE5DRO-10 | 2026-09-02 02:00:59 | 48.38269 | 13.51244 | 94° | 24km/h | 1772m | -2.8m/s | 9.7°C | 80.3% | 831.8hPa | 2.7V | 00:00:00 | 00:00:00 | 00:00:00 | |
| OE3JTB-15 | 2026-09-02 02:00:58 | 48.38269 | 13.51235 | 94° | 24km/h | 1775m | -2.9m/s | 9.6°C | 80.6% | 831.4hPa | 2.7V | 00:00:00 | 00:00:00 | 00:00:00 | |
| PG1ADW-2 | 2026-09-02 02:00:58 | 48.38269 | 13.51235 | 94° | 24km/h | 1775m | -2.9m/s | 9.6°C | 80.6% | 831.4hPa | 2.7V | 00:00:00 | 00:00:00 | 00:00:00 | |
| OE5HKT-10 | 2026-09-02 02:00:58 | 48.38269 | 13.51235 | 94° | 24km/h | 1775m | -2.9m/s | 9.6°C | 80.6% | 831.4hPa | 2.7V | 00:00:00 | 00:00:00 | 00:00:00 | |
| OE5MMP-10 | 2026-09-02 02:00:57 | 48.38269 | 13.51226 | 93° | 24km/h | 1778m | -2.8m/s | 9.6°C | 81.3% | 831.2hPa | 2.7V | 00:00:00 | 03:31:46 | 00:00:00 | |
| OE5FHM-15 | 2026-09-02 02:00:57 | 48.38269 | 13.51226 | 93° | 24km/h | 1778m | -2.8m/s | 9.6°C | 81.3% | 831.2hPa | 2.7V | 00:00:00 | 03:31:46 | 00:00:00 | |
| OE3JTB-15 | 2026-09-02 02:00:56 | 48.38270 | 13.51218 | 93° | 24km/h | 1781m | -2.9m/s | 9.6°C | 81.9% | 831.0hPa | 2.7V | 00:00:00 | 03:31:45 | 00:00:00 | |
| OE3JTB-15 | 2026-09-02 02:00:54 | 48.38270 | 13.51200 | 94° | 24km/h | 1787m | -2.6m/s | 9.5°C | 82.4% | 830.4hPa | 2.7V | 00:00:00 | 00:00:00 | 00:00:00 | |
| OE5WHR-10 | 2026-09-02 02:00:54 | 48.38270 | 13.51200 | 94° | 24km/h | 1787m | -2.6m/s | 9.5°C | 82.4% | 830.4hPa | 2.7V | 00:00:00 | 00:00:00 | 00:00:00 | |
| OE5DRO-10 | 2026-09-02 02:00:52 | 48.38271 | 13.51182 | 94° | 24km/h | 1792m | -2.8m/s | 9.5°C | 83.2% | 829.6hPa | 2.7V | 07:05:00 | 00:00:00 | 00:00:00 | |
| OE3JTB-15 | 2026-09-02 02:00:52 | 48.38271 | 13.51182 | 94° | 24km/h | 1792m | -2.8m/s | 9.5°C | 83.2% | 829.6hPa | 2.7V | 00:00:00 | 00:00:00 | 00:00:00 | |
| PG1ADW-2 | 2026-09-02 02:00:52 | 48.38271 | 13.51182 | 94° | 24km/h | 1792m | -2.8m/s | 9.5°C | 83.2% | 829.6hPa | 2.7V | 07:05:00 | 00:00:00 | 00:00:00 | |
| OE5HKT-10 | 2026-09-02 02:00:52 | 48.38271 | 13.51182 | 94° | 24km/h | 1792m | -2.8m/s | 9.5°C | 83.2% | 829.6hPa | 2.7V | 00:00:00 | 03:31:41 | 00:00:00 | |
| OE5MMP-10 | 2026-09-02 02:00:52 | 48.38271 | 13.51182 | 94° | 24km/h | 1792m | -2.8m/s | 9.5°C | 83.2% | 829.6hPa | 2.7V | 00:00:00 | 03:31:41 | 00:00:00 | |
| OE3JTB-15 | 2026-09-02 02:00:50 | 48.38272 | 13.51163 | 94° | 24km/h | 1798m | -2.9m/s | 9.4°C | 83.3% | 829.3hPa | 2.7V | 00:00:00 | 03:31:39 | 00:00:00 | |
| OE3JTB-15 | 2026-09-02 02:00:48 | 48.38273 | 13.51145 | 96° | 24km/h | 1804m | -2.8m/s | 9.4°C | 83.7% | 828.8hPa | 2.7V | 00:00:00 | 00:00:00 | 00:00:00 | |
| OE5WHR-10 | 2026-09-02 02:00:48 | 48.38273 | 13.51145 | 96° | 24km/h | 1804m | -2.8m/s | 9.4°C | 83.7% | 828.8hPa | 2.6V | 00:00:00 | 00:00:00 | 00:00:00 | |
| OE5FHM-15 | 2026-09-02 02:00:47 | 48.38274 | 13.51136 | 97° | 24km/h | 1806m | -2.9m/s | 9.3°C | 83.8% | 828.3hPa | 2.6V | 00:00:00 | 03:31:36 | 00:00:00 | |
| OE5MMP-10 | 2026-09-02 02:00:47 | 48.38274 | 13.51136 | 97° | 24km/h | 1806m | -2.9m/s | 9.3°C | 83.8% | 828.3hPa | 2.6V | 00:00:00 | 03:31:36 | 00:00:00 | |
| OE5HKT-10 | 2026-09-02 02:00:46 | 48.38274 | 13.51127 | 98° | 24km/h | 1809m | -2.9m/s | 9.3°C | 84.1% | 827.9hPa | 2.6V | 00:00:00 | 00:00:00 | 00:00:00 | |
| OE3JTB-15 | 2026-09-02 02:00:46 | 48.38274 | 13.51127 | 98° | 24km/h | 1809m | -2.9m/s | 9.3°C | 84.1% | 827.9hPa | 2.7V | 00:00:00 | 00:00:00 | 00:00:00 | |
| PG1ADW-2 | 2026-09-02 02:00:46 | 48.38274 | 13.51127 | 98° | 24km/h | 1809m | -2.9m/s | 9.3°C | 84.1% | 827.9hPa | 2.7V | 00:00:00 | 00:00:00 | 00:00:00 | |
| OE5DRO-10 | 2026-09-02 02:00:45 | 48.38275 | 13.51118 | 99° | 24km/h | 1812m | -3.0m/s | 9.3°C | 84.3% | 827.8hPa | 2.7V | 00:00:00 | 00:00:00 | 00:00:00 | |
| OE3JTB-15 | 2026-09-02 02:00:44 | 48.38276 | 13.51109 | 99° | 24km/h | 1815m | -2.9m/s | 9.2°C | 84.5% | 827.6hPa | 2.7V | 07:05:00 | 03:31:33 | 00:00:00 | |
| OE3JTB-15 | 2026-09-02 02:00:42 | 48.38278 | 13.51092 | 100° | 24km/h | 1821m | -2.6m/s | 9.2°C | 84.7% | 826.9hPa | 2.7V | 00:00:00 | 00:00:00 | 00:00:00 | |
| OE5MMP-10 | 2026-09-02 02:00:42 | 48.38278 | 13.51092 | 100° | 24km/h | 1821m | -2.6m/s | 9.2°C | 84.7% | 826.9hPa | 2.7V | 00:00:00 | 03:31:31 | 00:00:00 | |
| OE5WHR-10 | 2026-09-02 02:00:42 | 48.38278 | 13.51092 | 100° | 24km/h | 1821m | -2.6m/s | 9.2°C | 84.7% | 826.9hPa | 2.7V | 00:00:00 | 03:31:31 | 00:00:00 | |
| OE5DXL-15 | 2026-09-02 02:00:41 | 48.38279 | 13.51083 | 99° | 26km/h | 1824m | -2.6m/s | 9.2°C | 84.9% | 826.6hPa | 2.7V | 00:00:00 | 00:00:00 | 00:00:00 | |
| OE5HKT-10 | 2026-09-02 02:00:40 | 48.38280 | 13.51074 | 98° | 24km/h | 1826m | -2.5m/s | 9.1°C | 85.5% | 826.3hPa | 2.7V | 00:00:00 | 00:00:00 | 00:00:00 | |
| OE3JTB-15 | 2026-09-02 02:00:40 | 48.38280 | 13.51074 | 98° | 24km/h | 1826m | -2.5m/s | 9.1°C | 85.5% | 826.3hPa | 2.7V | 00:00:00 | 00:00:00 | 00:00:00 | |
| PG1ADW-2 | 2026-09-02 02:00:40 | 48.38280 | 13.51074 | 98° | 24km/h | 1826m | -2.5m/s | 9.1°C | 85.5% | 826.3hPa | 2.7V | 00:00:00 | 03:31:29 | 00:00:00 | |
| OE5DRO-10 | 2026-09-02 02:00:38 | 48.38281 | 13.51055 | 96° | 26km/h | 1832m | -2.7m/s | 9.1°C | 87.3% | 825.9hPa | 2.7V | 00:00:00 | 00:00:00 | 00:00:00 | |
| OE3JTB-15 | 2026-09-02 02:00:38 | 48.38281 | 13.51055 | 96° | 26km/h | 1832m | -2.7m/s | 9.1°C | 87.3% | 825.9hPa | 2.7V | 00:00:00 | 03:31:27 | 00:00:00 | |
| DO3MHA-11 | 2026-09-02 02:00:37 | 48.38282 | 13.51046 | 95° | 26km/h | 1834m | -2.7m/s | 9.1°C | 87.3% | 825.6hPa | 2.7V | 00:00:00 | 03:31:26 | 00:00:00 | |
| OE5MMP-10 | 2026-09-02 02:00:37 | 48.38282 | 13.51046 | 95° | 26km/h | 1834m | -2.7m/s | 9.1°C | 87.3% | 825.6hPa | 2.7V | 07:05:00 | 03:31:26 | 00:00:00 | |
| OE5FHM-15 | 2026-09-02 02:00:37 | 48.38282 | 13.51046 | 95° | 26km/h | 1834m | -2.7m/s | 9.1°C | 87.3% | 825.6hPa | 2.7V | 00:00:00 | 03:31:26 | 00:00:00 | |
| OE3JTB-15 | 2026-09-02 02:00:36 | 48.38282 | 13.51036 | 94° | 26km/h | 1837m | -2.7m/s | 9.2°C | 87.1% | 825.2hPa | 2.7V | 00:00:00 | 00:00:00 | 00:00:00 | |
| OE5WHR-10 | 2026-09-02 02:00:36 | 48.38282 | 13.51036 | 94° | 26km/h | 1837m | -2.7m/s | 9.2°C | 87.1% | 825.2hPa | 2.7V | 00:00:00 | 00:00:00 | 00:00:00 | |
| PG1ADW-2 | 2026-09-02 02:00:34 | 48.38283 | 13.51018 | 92° | 26km/h | 1842m | -2.5m/s | 9.1°C | 87.3% | 824.8hPa | 2.6V | 00:00:00 | 00:00:00 | 00:00:00 | |
| OE3JTB-15 | 2026-09-02 02:00:34 | 48.38283 | 13.51018 | 92° | 26km/h | 1842m | -2.5m/s | 9.1°C | 87.3% | 824.8hPa | 2.7V | 00:00:00 | 00:00:00 | 00:00:00 | |
| OE5HKT-10 | 2026-09-02 02:00:34 | 48.38283 | 13.51018 | 92° | 26km/h | 1842m | -2.5m/s | 9.1°C | 87.3% | 824.8hPa | 2.7V | 00:00:00 | 03:31:23 | 00:00:00 | |
| OE5MMP-10 | 2026-09-02 02:00:32 | 48.38283 | 13.50998 | 90° | 26km/h | 1848m | -2.6m/s | 9.1°C | 87.7% | 824.2hPa | 2.7V | 00:00:00 | 03:31:21 | 00:00:00 | |
| OE3JTB-15 | 2026-09-02 02:00:32 | 48.38283 | 13.50998 | 90° | 26km/h | 1848m | -2.6m/s | 9.1°C | 87.7% | 824.2hPa | 2.7V | 00:00:00 | 03:31:21 | 00:00:00 | |
| DO3MHA-11 | 2026-09-02 02:00:32 | 48.38283 | 13.50998 | 90° | 26km/h | 1848m | -2.6m/s | 9.1°C | 87.7% | 824.2hPa | 2.7V | 00:00:00 | 03:31:21 | 00:00:00 | |
| OE5DRO-10 | 2026-09-02 02:00:31 | 48.38283 | 13.50988 | 89° | 27km/h | 1850m | -2.6m/s | 9.0°C | 87.9% | 824.0hPa | 2.7V | 00:00:00 | 00:00:00 | 00:00:00 | |
| OE5WHR-10 | 2026-09-02 02:00:30 | 48.38282 | 13.50979 | 88° | 27km/h | 1853m | -2.7m/s | 9.0°C | 88.0% | 823.6hPa | 2.7V | 00:00:00 | 00:00:00 | 00:00:00 | |
| OE3JTB-15 | 2026-09-02 02:00:30 | 48.38282 | 13.50979 | 88° | 26km/h | 1853m | -2.7m/s | 9.0°C | 88.0% | 823.6hPa | 2.7V | 00:00:00 | 00:00:00 | 00:00:00 | |
| OE3JTB-15 | 2026-09-02 02:00:28 | 48.38282 | 13.50958 | 89° | 27km/h | 1858m | -2.6m/s | 9.0°C | 88.4% | 823.2hPa | 2.7V | 07:05:00 | 00:00:00 | 00:00:00 | |
| PG1ADW-2 | 2026-09-02 02:00:28 | 48.38282 | 13.50958 | 89° | 27km/h | 1858m | -2.6m/s | 9.0°C | 88.4% | 823.2hPa | 2.7V | 00:00:00 | 00:00:00 | 00:00:00 | |
| OE5HKT-10 | 2026-09-02 02:00:28 | 48.38282 | 13.50958 | 89° | 27km/h | 1858m | -2.6m/s | 9.0°C | 88.4% | 823.2hPa | 2.7V | 00:00:00 | 00:00:00 | 00:00:00 | |
| OE5MMP-10 | 2026-09-02 02:00:27 | 48.38282 | 13.50948 | 90° | 27km/h | 1861m | -2.9m/s | 8.9°C | 88.3% | 822.8hPa | 2.7V | 00:00:00 | 03:31:16 | 00:00:00 | |
| OE5FHM-15 | 2026-09-02 02:00:27 | 48.38282 | 13.50948 | 90° | 27km/h | 1861m | -2.9m/s | 8.9°C | 88.3% | 822.8hPa | 2.7V | 07:05:00 | 03:31:16 | 00:00:00 | |
| DO3MHA-11 | 2026-09-02 02:00:27 | 48.38282 | 13.50948 | 90° | 27km/h | 1861m | -2.9m/s | 8.9°C | 88.3% | 822.8hPa | 2.7V | 00:00:00 | 03:31:16 | 00:00:00 | |
| OE3JTB-15 | 2026-09-02 02:00:26 | 48.38282 | 13.50938 | 91° | 27km/h | 1864m | -3.2m/s | 8.9°C | 88.4% | 822.6hPa | 2.7V | 00:00:00 | 03:31:15 | 00:00:00 | |
| OE5DRO-10 | 2026-09-02 02:00:24 | 48.38282 | 13.50917 | 91° | 27km/h | 1871m | -3.2m/s | 8.9°C | 89.0% | 822.0hPa | 2.7V | 00:00:00 | 00:00:00 | 00:00:00 | |
| OE5WHR-10 | 2026-09-02 02:00:24 | 48.38282 | 13.50917 | 91° | 27km/h | 1871m | -3.2m/s | 8.9°C | 89.0% | 822.0hPa | 2.7V | 07:05:00 | 03:31:13 | 00:00:00 | |
| OE3JTB-15 | 2026-09-02 02:00:24 | 48.38282 | 13.50917 | 91° | 27km/h | 1871m | -3.2m/s | 8.9°C | 89.0% | 822.0hPa | 2.7V | 00:00:00 | 00:00:00 | 00:00:00 | |
| OE5REO-15 | 2026-09-02 02:00:23 | 48.38282 | 13.50917 | 92° | 27km/h | 1871m | -3.2m/s | 8.9°C | 88.7% | 822.1hPa | 2.6V | 07:06:00 | 00:00:00 | 00:00:00 | |
| OE5HKT-10 | 2026-09-02 02:00:22 | 48.38282 | 13.50896 | 92° | 27km/h | 1877m | -3.3m/s | 8.8°C | 88.8% | 821.3hPa | 2.6V | 00:00:00 | 00:00:00 | 00:00:00 | |
| PG1ADW-2 | 2026-09-02 02:00:22 | 48.38282 | 13.50896 | 92° | 27km/h | 1877m | -3.3m/s | 8.8°C | 88.8% | 821.3hPa | 2.6V | 00:00:00 | 00:00:00 | 00:00:00 | |
| OE5MMP-10 | 2026-09-02 02:00:22 | 48.38282 | 13.50896 | 92° | 27km/h | 1877m | -3.3m/s | 8.8°C | 88.8% | 821.3hPa | 2.6V | 00:00:00 | 03:31:11 | 00:00:00 | |
| OE3JTB-15 | 2026-09-02 02:00:22 | 48.38282 | 13.50896 | 92° | 27km/h | 1877m | -3.3m/s | 8.8°C | 88.8% | 821.3hPa | 2.6V | 00:00:00 | 00:00:00 | 00:00:00 | |
| DO3MHA-11 | 2026-09-02 02:00:22 | 48.38282 | 13.50896 | 92° | 27km/h | 1877m | -3.3m/s | 8.8°C | 88.8% | 821.3hPa | 2.6V | 00:00:00 | 03:31:11 | 00:00:00 | |
| OE5DXL-15 | 2026-09-02 02:00:21 | 48.38283 | 13.50885 | 92° | 27km/h | 1881m | -3.4m/s | 8.8°C | 88.5% | 821.0hPa | 2.7V | 00:00:00 | 00:00:00 | 00:00:00 | |
| OE3JTB-15 | 2026-09-02 02:00:20 | 48.38283 | 13.50875 | 92° | 27km/h | 1884m | -3.1m/s | 8.8°C | 88.8% | 820.7hPa | 2.7V | 00:00:00 | 03:31:09 | 00:00:00 | |
| OE3JTB-15 | 2026-09-02 02:00:18 | 48.38284 | 13.50853 | 94° | 27km/h | 1890m | -3.0m/s | 8.7°C | 89.4% | 820.0hPa | 2.7V | 00:00:00 | 00:00:00 | 00:00:00 | |
| OE5WHR-10 | 2026-09-02 02:00:18 | 48.38284 | 13.50853 | 94° | 27km/h | 1890m | -3.0m/s | 8.7°C | 89.4% | 820.0hPa | 2.7V | 00:00:00 | 00:00:00 | 00:00:00 | |
| OE5DRO-10 | 2026-09-02 02:00:17 | 48.38284 | 13.50843 | 95° | 27km/h | 1893m | -3.0m/s | 8.7°C | 89.5% | 819.8hPa | 2.7V | 00:00:00 | 00:00:00 | 00:00:00 | |
| OE5MMP-10 | 2026-09-02 02:00:17 | 48.38284 | 13.50843 | 95° | 27km/h | 1893m | -3.0m/s | 8.7°C | 89.5% | 819.8hPa | 2.7V | 00:00:00 | 03:31:06 | 00:00:00 | |
| OE5FHM-15 | 2026-09-02 02:00:17 | 48.38284 | 13.50843 | 95° | 27km/h | 1893m | -3.0m/s | 8.7°C | 89.5% | 819.8hPa | 2.7V | 00:00:00 | 03:31:06 | 00:00:00 | |
| DO3MHA-11 | 2026-09-02 02:00:17 | 48.38284 | 13.50843 | 95° | 27km/h | 1893m | -3.0m/s | 8.7°C | 89.5% | 819.8hPa | 2.7V | 00:00:00 | 03:31:06 | 00:00:00 | |
| OE5HKT-10 | 2026-09-02 02:00:16 | 48.38285 | 13.50832 | 95° | 29km/h | 1896m | -2.9m/s | 8.7°C | 89.5% | 819.3hPa | 2.7V | 07:05:00 | 03:31:05 | 00:00:00 | |
| PG1ADW-2 | 2026-09-02 02:00:16 | 48.38285 | 13.50832 | 95° | 29km/h | 1896m | -2.9m/s | 8.7°C | 89.5% | 819.3hPa | 2.7V | 00:00:00 | 03:31:05 | 00:00:00 | |
| OE3JTB-15 | 2026-09-02 02:00:16 | 48.38285 | 13.50832 | 95° | 27km/h | 1896m | -2.9m/s | 8.7°C | 89.5% | 819.3hPa | 2.7V | 00:00:00 | 00:00:00 | 00:00:00 | |
| OE3JTB-15 | 2026-09-02 02:00:14 | 48.38286 | 13.50811 | 94° | 29km/h | 1902m | -2.8m/s | 8.6°C | 90.0% | 818.7hPa | 2.7V | 00:00:00 | 03:31:03 | 00:00:00 | |
| OE3JTB-15 | 2026-09-02 02:00:12 | 48.38287 | 13.50789 | 93° | 29km/h | 1908m | -2.9m/s | 8.5°C | 90.3% | 818.3hPa | 2.7V | 07:06:00 | 00:00:00 | 00:00:00 | |
| OE5WHR-10 | 2026-09-02 02:00:12 | 48.38287 | 13.50789 | 93° | 27km/h | 1908m | -2.9m/s | 8.5°C | 90.3% | 818.3hPa | 2.7V | 00:00:00 | 00:00:00 | 00:00:00 | |
| DO3MHA-11 | 2026-09-02 02:00:12 | 48.38287 | 13.50789 | 93° | 27km/h | 1908m | -2.9m/s | 8.5°C | 90.3% | 818.3hPa | 2.7V | 07:06:00 | 03:31:01 | 00:00:00 | |
| OE5MMP-10 | 2026-09-02 02:00:12 | 48.38287 | 13.50789 | 93° | 27km/h | 1908m | -2.9m/s | 8.5°C | 90.3% | 818.3hPa | 2.7V | 00:00:00 | 03:31:01 | 00:00:00 | |
| OE3JTB-15 | 2026-09-02 02:00:10 | 48.38287 | 13.50768 | 93° | 27km/h | 1914m | -2.6m/s | 8.4°C | 90.6% | 817.7hPa | 2.7V | 00:00:00 | 00:00:00 | 00:00:00 | |
| OE5DRO-10 | 2026-09-02 02:00:10 | 48.38287 | 13.50768 | 93° | 27km/h | 1914m | -2.6m/s | 8.4°C | 90.6% | 817.7hPa | 2.7V | 00:00:00 | 00:00:00 | 00:00:00 | |
| PG1ADW-2 | 2026-09-02 02:00:10 | 48.38287 | 13.50768 | 93° | 27km/h | 1914m | -2.6m/s | 8.4°C | 90.6% | 817.7hPa | 2.7V | 00:00:00 | 00:00:00 | 00:00:00 | |
| OE5HKT-10 | 2026-09-02 02:00:10 | 48.38287 | 13.50768 | 93° | 27km/h | 1914m | -2.6m/s | 8.4°C | 90.6% | 817.7hPa | 2.7V | 00:00:00 | 00:00:00 | 00:00:00 | |
| OE3JTB-15 | 2026-09-02 02:00:08 | 48.38288 | 13.50746 | 90° | 27km/h | 1919m | -2.7m/s | 8.4°C | 90.5% | 817.2hPa | 2.7V | 00:00:00 | 03:30:57 | 00:00:00 | |
| OE5REO-15 | 2026-09-02 02:00:08 | 48.38288 | 13.50746 | 90° | 27km/h | 1919m | -2.7m/s | 8.5°C | 90.2% | 817.3hPa | 2.7V | 07:06:00 | 00:00:00 | 00:00:00 | |
| OE5FHM-15 | 2026-09-02 02:00:08 | 48.38287 | 13.50736 | 88° | 27km/h | 1922m | -2.5m/s | 8.4°C | 90.8% | 816.9hPa | 2.7V | 00:00:00 | 03:30:56 | 00:00:00 | |
| DO3MHA-11 | 2026-09-02 02:00:07 | 48.38287 | 13.50736 | 88° | 27km/h | 1922m | -2.5m/s | 8.4°C | 90.8% | 816.9hPa | 2.7V | 00:00:00 | 03:30:56 | 00:00:00 | |
| OE5MMP-10 | 2026-09-02 02:00:07 | 48.38287 | 13.50736 | 88° | 27km/h | 1922m | -2.5m/s | 8.4°C | 90.8% | 816.9hPa | 2.7V | 00:00:00 | 03:30:56 | 00:00:00 | |
| OE3JTB-15 | 2026-09-02 02:00:06 | 48.38287 | 13.50725 | 87° | 27km/h | 1924m | -2.6m/s | 8.3°C | 91.2% | 816.7hPa | 2.7V | 00:00:00 | 00:00:00 | 00:00:00 | |
| OE5WHR-10 | 2026-09-02 02:00:06 | 48.38287 | 13.50725 | 87° | 27km/h | 1924m | -2.6m/s | 8.3°C | 91.2% | 816.7hPa | 2.7V | 00:00:00 | 03:30:55 | 00:00:00 | |
| OE3JTB-15 | 2026-09-02 02:00:04 | 48.38286 | 13.50704 | 84° | 27km/h | 1929m | -2.5m/s | 8.3°C | 91.4% | 816.3hPa | 2.7V | 00:00:00 | 00:00:00 | 00:00:00 | |
| PG1ADW-2 | 2026-09-02 02:00:04 | 48.38286 | 13.50704 | 84° | 27km/h | 1929m | -2.5m/s | 8.3°C | 91.4% | 816.3hPa | 2.7V | 07:06:00 | 00:00:00 | 00:00:00 | |
| OE5HKT-10 | 2026-09-02 02:00:04 | 48.38286 | 13.50704 | 84° | 27km/h | 1929m | -2.5m/s | 8.3°C | 91.4% | 816.3hPa | 2.7V | 00:00:00 | 00:00:00 | 00:00:00 | |
| DO3MHA-11 | 2026-09-02 02:00:02 | 48.38284 | 13.50683 | 81° | 27km/h | 1935m | -2.5m/s | 8.3°C | 91.6% | 815.6hPa | 2.7V | 00:00:00 | 03:30:51 | 00:00:00 | |
| OE5MMP-10 | 2026-09-02 02:00:02 | 48.38284 | 13.50683 | 81° | 27km/h | 1935m | -2.5m/s | 8.3°C | 91.6% | 815.6hPa | 2.7V | 00:00:00 | 03:30:51 | 00:00:00 | |
| OE5DXL-15 | 2026-09-02 02:00:01 | 48.38282 | 13.50672 | 81° | 26km/h | 1937m | -2.4m/s | 8.2°C | 91.8% | 815.5hPa | 2.7V | 00:00:00 | 00:00:00 | 00:00:00 | |
| OE5WHR-10 | 2026-09-02 02:00:00 | 48.38281 | 13.50662 | 80° | 26km/h | 1939m | -2.4m/s | 8.2°C | 91.8% | 815.1hPa | 2.7V | 00:00:00 | 00:00:00 | 00:00:00 | |
| OE5HKT-10 | 2026-09-02 01:59:58 | 48.38279 | 13.50642 | 79° | 26km/h | 1944m | -2.4m/s | 8.2°C | 91.6% | 814.8hPa | 2.6V | 00:00:00 | 03:30:47 | 00:00:00 | |
| OE3JTB-15 | 2026-09-02 01:59:57 | 48.38277 | 13.50633 | 78° | 26km/h | 1947m | -2.4m/s | 8.3°C | 90.6% | 814.5hPa | 2.6V | 00:00:00 | 03:30:46 | 00:00:00 | |
| DO3MHA-11 | 2026-09-02 01:59:57 | 48.38277 | 13.50633 | 78° | 26km/h | 1947m | -2.4m/s | 8.3°C | 90.6% | 814.5hPa | 2.6V | 00:00:00 | 03:30:46 | 00:00:00 | |
| OE5MMP-10 | 2026-09-02 01:59:57 | 48.38277 | 13.50633 | 78° | 26km/h | 1947m | -2.4m/s | 8.3°C | 90.6% | 814.5hPa | 2.6V | 07:06:00 | 03:30:46 | 00:00:00 | |
| OE5FHM-15 | 2026-09-02 01:59:57 | 48.38277 | 13.50633 | 78° | 26km/h | 1947m | -2.4m/s | 8.3°C | 90.6% | 814.5hPa | 2.6V | 00:00:00 | 03:30:46 | 00:00:00 | |
| OE5DRO-10 | 2026-09-02 01:59:56 | 48.38276 | 13.50623 | 78° | 26km/h | 1949m | -2.4m/s | 8.3°C | 90.2% | 814.3hPa | 2.7V | 07:06:00 | 00:00:00 | 00:00:00 | |
| PG1ADW-2 | 2026-09-02 01:59:54 | 48.38273 | 13.50604 | 77° | 27km/h | 1954m | -2.4m/s | 8.2°C | 90.4% | 813.6hPa | 2.7V | 00:00:00 | 00:00:00 | 00:00:00 | |
| OE5WHR-10 | 2026-09-02 01:59:54 | 48.38273 | 13.50604 | 77° | 26km/h | 1954m | -2.4m/s | 8.2°C | 90.4% | 813.6hPa | 2.7V | 00:00:00 | 00:00:00 | 00:00:00 | |
| OE5REO-15 | 2026-09-02 01:59:52 | 48.38272 | 13.50595 | 78° | 26km/h | 1957m | -2.5m/s | 8.3°C | 89.9% | 813.5hPa | 2.7V | 07:07:00 | 00:00:00 | 00:00:00 | |
| OE5HKT-10 | 2026-09-02 01:59:52 | 48.38270 | 13.50586 | 77° | 26km/h | 1959m | -2.5m/s | 8.2°C | 90.5% | 813.3hPa | 2.7V | 00:00:00 | 00:00:00 | 00:00:00 | |
| OE5MMP-10 | 2026-09-02 01:59:52 | 48.38270 | 13.50586 | 77° | 26km/h | 1959m | -2.5m/s | 8.2°C | 90.5% | 813.3hPa | 2.7V | 00:00:00 | 03:30:41 | 00:00:00 | |
| DO3MHA-11 | 2026-09-02 01:59:52 | 48.38270 | 13.50586 | 77° | 26km/h | 1959m | -2.5m/s | 8.2°C | 90.5% | 813.3hPa | 2.7V | 00:00:00 | 03:30:41 | 00:00:00 | |
| OE5DRO-10 | 2026-09-02 01:59:49 | 48.38266 | 13.50558 | 78° | 27km/h | 1967m | -2.6m/s | 8.1°C | 90.7% | 812.3hPa | 2.7V | 00:00:00 | 00:00:00 | 00:00:00 | |
| OE3JTB-15 | 2026-09-02 01:59:48 | 48.38264 | 13.50548 | 78° | 27km/h | 1970m | -2.7m/s | 8.1°C | 90.7% | 812.2hPa | 2.7V | 00:00:00 | 00:00:00 | 00:00:00 | |
| OE5WHR-10 | 2026-09-02 01:59:48 | 48.38264 | 13.50548 | 78° | 27km/h | 1970m | -2.7m/s | 8.1°C | 90.7% | 812.2hPa | 2.7V | 00:00:00 | 03:30:37 | 00:00:00 | |
| OE5MMP-10 | 2026-09-02 01:59:47 | 48.38263 | 13.50538 | 78° | 27km/h | 1972m | -2.6m/s | 8.1°C | 90.3% | 811.9hPa | 2.7V | 00:00:00 | 03:30:36 | 00:00:00 | |
| OE5FHM-15 | 2026-09-02 01:59:47 | 48.38263 | 13.50538 | 78° | 29km/h | 1972m | -2.6m/s | 8.1°C | 90.3% | 811.9hPa | 2.7V | 00:00:00 | 03:30:36 | 00:00:00 | |
| DO3MHA-11 | 2026-09-02 01:59:47 | 48.38263 | 13.50538 | 78° | 27km/h | 1972m | -2.6m/s | 8.1°C | 90.3% | 811.9hPa | 2.7V | 00:00:00 | 03:30:36 | 00:00:00 | |
| OE5HKT-10 | 2026-09-02 01:59:46 | 48.38262 | 13.50529 | 79° | 27km/h | 1975m | -2.5m/s | 8.1°C | 90.5% | 811.7hPa | 2.7V | 00:00:00 | 00:00:00 | 00:00:00 | |
| OE5DRO-10 | 2026-09-02 01:59:42 | 48.38257 | 13.50488 | 82° | 29km/h | 1985m | -2.6m/s | 8.1°C | 89.9% | 810.7hPa | 2.7V | 00:00:00 | 00:00:00 | 00:00:00 | |
| OE5WHR-10 | 2026-09-02 01:59:42 | 48.38257 | 13.50488 | 82° | 29km/h | 1985m | -2.6m/s | 8.1°C | 89.9% | 810.7hPa | 2.7V | 00:00:00 | 00:00:00 | 00:00:00 | |
| OE5MMP-10 | 2026-09-02 01:59:42 | 48.38257 | 13.50488 | 82° | 29km/h | 1985m | -2.6m/s | 8.1°C | 89.9% | 810.7hPa | 2.7V | 00:00:00 | 03:30:31 | 00:00:00 | |
| DO3MHA-11 | 2026-09-02 01:59:42 | 48.38257 | 13.50488 | 82° | 29km/h | 1985m | -2.6m/s | 8.1°C | 89.9% | 810.7hPa | 2.7V | 00:00:00 | 03:30:31 | 00:00:00 | |
| OE5DXL-15 | 2026-09-02 01:59:41 | 48.38256 | 13.50477 | 83° | 29km/h | 1988m | -2.5m/s | 8.1°C | 89.8% | 810.4hPa | 2.7V | 00:00:00 | 00:00:00 | 00:00:00 | |
| OE5HKT-10 | 2026-09-02 01:59:40 | 48.38255 | 13.50466 | 84° | 31km/h | 1991m | -2.4m/s | 8.1°C | 89.4% | 810.1hPa | 2.7V | 00:00:00 | 03:30:29 | 00:00:00 | |
| OE3JTB-15 | 2026-09-02 01:59:39 | 48.38254 | 13.50454 | 85° | 29km/h | 1993m | -2.4m/s | 8.1°C | 89.2% | 809.9hPa | 2.7V | 00:00:00 | 00:00:00 | 00:00:00 | |
| OE5MMP-10 | 2026-09-02 01:59:37 | 48.38253 | 13.50431 | 85° | 29km/h | 1999m | -2.6m/s | 8.0°C | 89.3% | 809.4hPa | 2.7V | 00:00:00 | 03:30:26 | 00:00:00 | |
| OE5FHM-15 | 2026-09-02 01:59:37 | 48.38253 | 13.50431 | 85° | 27km/h | 1999m | -2.6m/s | 8.0°C | 89.3% | 809.4hPa | 2.7V | 00:00:00 | 03:30:26 | 00:00:00 | |
| DO3MHA-11 | 2026-09-02 01:59:37 | 48.38253 | 13.50431 | 85° | 29km/h | 1999m | -2.6m/s | 8.0°C | 89.3% | 809.4hPa | 2.7V | 00:00:00 | 03:30:26 | 00:00:00 | |
| OE5REO-15 | 2026-09-02 01:59:36 | 48.38253 | 13.50431 | 85° | 31km/h | 1999m | -2.6m/s | 8.1°C | 88.9% | 809.5hPa | 2.7V | 07:07:00 | 00:00:00 | 00:00:00 | |
| OE5WHR-10 | 2026-09-02 01:59:36 | 48.38252 | 13.50419 | 84° | 29km/h | 2001m | -2.7m/s | 8.0°C | 89.5% | 809.2hPa | 2.7V | 07:06:00 | 00:00:00 | 00:00:00 | |
| OE5DRO-10 | 2026-09-02 01:59:35 | 48.38251 | 13.50408 | 83° | 29km/h | 2004m | -2.7m/s | 8.0°C | 89.6% | 808.8hPa | 2.7V | 00:00:00 | 00:00:00 | 00:00:00 | |
| PG1ADW-2 | 2026-09-02 01:59:34 | 48.38250 | 13.50397 | 84° | 27km/h | 2007m | -2.6m/s | 8.0°C | 89.6% | 808.7hPa | 2.7V | 00:00:00 | 03:30:23 | 00:00:00 | |
| DO3MHA-11 | 2026-09-02 01:59:32 | 48.38248 | 13.50374 | 83° | 29km/h | 2012m | -2.7m/s | 7.9°C | 89.7% | 808.0hPa | 2.7V | 07:06:00 | 03:30:21 | 00:00:00 | |
| OE3JTB-15 | 2026-09-02 01:59:30 | 48.38246 | 13.50352 | 81° | 26km/h | 2017m | -2.5m/s | 7.9°C | 90.1% | 807.6hPa | 2.7V | 07:06:00 | 03:30:19 | 00:00:00 | |
| OE5MMP-10 | 2026-09-02 01:59:29 | 48.38245 | 13.50342 | 81° | 26km/h | 2020m | -2.6m/s | 7.8°C | 89.8% | 807.3hPa | 2.7V | 00:00:00 | 03:30:18 | 00:00:00 | |
| OE5HKT-10 | 2026-09-02 01:59:28 | 48.38243 | 13.50331 | 81° | 26km/h | 2023m | -2.7m/s | 7.8°C | 90.1% | 807.1hPa | 2.7V | 07:06:00 | 00:00:00 | 00:00:00 | |
| OE5WHR-10 | 2026-09-02 01:59:24 | 48.38238 | 13.50293 | 80° | 26km/h | 2033m | -2.5m/s | 7.7°C | 90.3% | 806.0hPa | 2.7V | 00:00:00 | 00:00:00 | 00:00:00 | |
| OE5HKT-10 | 2026-09-02 01:59:22 | 48.38236 | 13.50274 | 81° | 26km/h | 2038m | -2.6m/s | 7.7°C | 90.4% | 805.3hPa | 2.7V | 00:00:00 | 03:30:11 | 00:00:00 | |
| OE5DXL-15 | 2026-09-02 01:59:21 | 48.38235 | 13.50264 | 80° | 26km/h | 2041m | -2.6m/s | 7.7°C | 90.7% | 805.2hPa | 2.7V | 00:00:00 | 00:00:00 | 00:00:00 | |
| OE5REO-15 | 2026-09-02 01:59:20 | 48.38235 | 13.50264 | 81° | 26km/h | 2041m | -2.7m/s | 7.7°C | 90.3% | 805.2hPa | 2.7V | 07:07:00 | 00:00:00 | 00:00:00 | |
| DO3MHA-11 | 2026-09-02 01:59:19 | 48.38233 | 13.50245 | 81° | 26km/h | 2046m | -2.4m/s | 7.6°C | 90.7% | 804.7hPa | 2.7V | 00:00:00 | 03:30:08 | 00:00:00 | |
| OE5WHR-10 | 2026-09-02 01:59:18 | 48.38232 | 13.50236 | 80° | 26km/h | 2049m | -2.6m/s | 7.6°C | 90.6% | 804.3hPa | 2.7V | 00:00:00 | 00:00:00 | 00:00:00 | |
| OE5HKT-10 | 2026-09-02 01:59:16 | 48.38230 | 13.50217 | 81° | 26km/h | 2054m | -2.4m/s | 7.6°C | 91.0% | 803.9hPa | 2.7V | 00:00:00 | 00:00:00 | 00:00:00 | |
| PG1ADW-2 | 2026-09-02 01:59:14 | 48.38227 | 13.50198 | 82° | 26km/h | 2059m | -2.5m/s | 7.5°C | 91.2% | 803.5hPa | 2.7V | 00:00:00 | 00:00:00 | 00:00:00 | |
| OE5WHR-10 | 2026-09-02 01:59:12 | 48.38225 | 13.50178 | 82° | 27km/h | 2064m | -2.5m/s | 7.5°C | 91.2% | 803.1hPa | 2.7V | 00:00:00 | 03:30:01 | 00:00:00 | |
| OE5MMP-10 | 2026-09-02 01:59:09 | 48.38222 | 13.50148 | 82° | 26km/h | 2072m | -2.5m/s | 7.4°C | 91.3% | 802.3hPa | 2.7V | 00:00:00 | 03:29:58 | 00:00:00 | |
| DO3MHA-11 | 2026-09-02 01:59:07 | 48.38220 | 13.50128 | 82° | 26km/h | 2077m | -2.6m/s | 7.4°C | 91.5% | 801.7hPa | 2.7V | 00:00:00 | 03:29:56 | 00:00:00 | |
| OE5WHR-10 | 2026-09-02 01:59:06 | 48.38219 | 13.50118 | 82° | 26km/h | 2080m | -2.6m/s | 7.3°C | 91.4% | 801.5hPa | 2.7V | 00:00:00 | 00:00:00 | 00:00:00 | |
| OE5REO-15 | 2026-09-02 01:59:04 | 48.38218 | 13.50108 | 82° | 26km/h | 2083m | -2.7m/s | 7.4°C | 90.6% | 801.2hPa | 2.7V | 00:00:00 | 00:00:00 | 00:00:00 | |
| OE3JTB-15 | 2026-09-02 01:59:03 | 48.38216 | 13.50089 | 81° | 26km/h | 2088m | -2.5m/s | 7.3°C | 90.0% | 800.8hPa | 2.7V | 00:00:00 | 03:29:52 | 00:00:00 | |
| DO3MHA-11 | 2026-09-02 01:59:02 | 48.38215 | 13.50080 | 82° | 26km/h | 2091m | -2.7m/s | 7.3°C | 89.7% | 800.4hPa | 2.7V | 00:00:00 | 03:29:51 | 00:00:00 | |
| OE5DXL-15 | 2026-09-02 01:59:01 | 48.38214 | 13.50070 | 82° | 27km/h | 2093m | -2.6m/s | 7.3°C | 90.0% | 800.2hPa | 2.7V | 00:00:00 | 00:00:00 | 00:00:00 | |
| OE5WHR-10 | 2026-09-02 01:59:00 | 48.38214 | 13.50061 | 81° | 26km/h | 2096m | -2.4m/s | 7.2°C | 90.5% | 800.0hPa | 2.7V | 00:00:00 | 00:00:00 | 00:00:00 | |
| OE5MMP-10 | 2026-09-02 01:58:59 | 48.38212 | 13.50051 | 82° | 27km/h | 2099m | -2.5m/s | 7.2°C | 90.1% | 799.7hPa | 2.7V | 07:07:00 | 03:29:48 | 00:00:00 | |
| OE5FHM-15 | 2026-09-02 01:58:58 | 48.38212 | 13.50042 | 82° | 27km/h | 2101m | -2.7m/s | 7.2°C | 87.6% | 799.5hPa | 2.7V | 00:00:00 | 03:29:47 | 00:00:00 | |
| DO3MHA-11 | 2026-09-02 01:58:57 | 48.38211 | 13.50033 | 83° | 26km/h | 2104m | -2.6m/s | 7.2°C | 86.9% | 799.2hPa | 2.7V | 00:00:00 | 03:29:46 | 00:00:00 | |
| OE5HKT-10 | 2026-09-02 01:58:56 | 48.38210 | 13.50023 | 83° | 27km/h | 2106m | -2.5m/s | 7.2°C | 85.7% | 798.9hPa | 2.7V | 00:00:00 | 03:29:45 | 00:00:00 | |
| OE5WHR-10 | 2026-09-02 01:58:54 | 48.38208 | 13.50004 | 84° | 29km/h | 2112m | -2.6m/s | 7.2°C | 85.7% | 798.4hPa | 2.7V | 00:00:00 | 03:29:43 | 00:00:00 | |
| OE5DRO-10 | 2026-09-02 01:58:53 | 48.38208 | 13.49993 | 84° | 29km/h | 2114m | -2.7m/s | 7.1°C | 84.9% | 798.0hPa | 2.7V | 00:00:00 | 00:00:00 | 00:00:00 | |
| DO3MHA-11 | 2026-09-02 01:58:52 | 48.38207 | 13.49983 | 85° | 29km/h | 2117m | -2.6m/s | 7.1°C | 85.9% | 797.8hPa | 2.7V | 00:00:00 | 03:29:41 | 00:00:00 | |
| OE5HKT-10 | 2026-09-02 01:58:50 | 48.38206 | 13.49961 | 85° | 29km/h | 2122m | -2.5m/s | 7.1°C | 86.3% | 797.3hPa | 2.7V | 00:00:00 | 00:00:00 | 00:00:00 | |
| OE5MMP-10 | 2026-09-02 01:58:49 | 48.38205 | 13.49950 | 85° | 27km/h | 2125m | -2.6m/s | 7.0°C | 86.3% | 797.0hPa | 2.6V | 00:00:00 | 03:29:38 | 00:00:00 | |
| OE5WHR-10 | 2026-09-02 01:58:48 | 48.38204 | 13.49939 | 85° | 29km/h | 2128m | -2.7m/s | 7.0°C | 86.4% | 796.8hPa | 2.6V | 07:07:00 | 00:00:00 | 00:00:00 | |
| DO3MHA-11 | 2026-09-02 01:58:47 | 48.38203 | 13.49928 | 85° | 27km/h | 2130m | -2.6m/s | 7.0°C | 86.2% | 796.5hPa | 2.6V | 07:07:00 | 03:29:36 | 00:00:00 | |
| OE5DRO-10 | 2026-09-02 01:58:46 | 48.38203 | 13.49917 | 85° | 27km/h | 2133m | -2.8m/s | 7.0°C | 86.7% | 796.5hPa | 2.6V | 00:00:00 | 00:00:00 | 00:00:00 | |
| OE3JTB-15 | 2026-09-02 01:58:45 | 48.38202 | 13.49906 | 85° | 27km/h | 2136m | -2.9m/s | 7.0°C | 86.7% | 796.0hPa | 2.6V | 00:00:00 | 00:00:00 | 00:00:00 | |
| OE5HKT-10 | 2026-09-02 01:58:44 | 48.38201 | 13.49895 | 84° | 27km/h | 2138m | -2.6m/s | 6.9°C | 85.5% | 795.8hPa | 2.6V | 00:00:00 | 00:00:00 | 00:00:00 | |
| DO3MHA-11 | 2026-09-02 01:58:42 | 48.38200 | 13.49875 | 84° | 27km/h | 2144m | -2.6m/s | 6.9°C | 84.9% | 795.2hPa | 2.6V | 00:00:00 | 03:29:31 | 00:00:00 | |
| OE5DXL-15 | 2026-09-02 01:58:41 | 48.38199 | 13.49865 | 84° | 31km/h | 2147m | -2.9m/s | 6.9°C | 85.3% | 794.9hPa | 2.6V | 07:07:00 | 00:00:00 | 00:00:00 | |
| OE5DRO-10 | 2026-09-02 01:58:39 | 48.38198 | 13.49845 | 84° | 31km/h | 2152m | -2.7m/s | 6.8°C | 85.4% | 794.5hPa | 2.6V | 00:00:00 | 00:00:00 | 00:00:00 | |
| OE5HKT-10 | 2026-09-02 01:58:38 | 48.38197 | 13.49834 | 85° | 31km/h | 2155m | -2.8m/s | 6.8°C | 85.1% | 794.2hPa | 2.6V | 00:00:00 | 03:29:27 | 00:00:00 | |
| DO3MHA-11 | 2026-09-02 01:58:37 | 48.38196 | 13.49823 | 85° | 31km/h | 2158m | -2.7m/s | 6.8°C | 85.5% | 793.8hPa | 2.6V | 00:00:00 | 03:29:26 | 00:00:00 | |
| OE5WHR-10 | 2026-09-02 01:58:36 | 48.38196 | 13.49812 | 87° | 33km/h | 2161m | -2.8m/s | 6.7°C | 85.4% | 793.6hPa | 2.6V | 00:00:00 | 03:29:25 | 00:00:00 | |
| PG1ADW-2 | 2026-09-02 01:58:34 | 48.38195 | 13.49788 | 90° | 35km/h | 2166m | -2.7m/s | 6.7°C | 85.6% | 793.0hPa | 2.6V | 00:00:00 | 00:00:00 | 00:00:00 | |
| DO3MHA-11 | 2026-09-02 01:58:32 | 48.38196 | 13.49763 | 95° | 33km/h | 2172m | -2.6m/s | 6.6°C | 86.4% | 792.5hPa | 2.6V | 00:00:00 | 03:29:21 | 00:00:00 | |
| OE5MMP-10 | 2026-09-02 01:58:29 | 48.38198 | 13.49725 | 96° | 35km/h | 2180m | -2.4m/s | 6.6°C | 85.8% | 791.8hPa | 2.7V | 00:00:00 | 03:29:18 | 00:00:00 | |
| DO3MHA-11 | 2026-09-02 01:58:27 | 48.38200 | 13.49700 | 96° | 35km/h | 2186m | -2.9m/s | 6.8°C | 74.3% | 791.3hPa | 2.7V | 00:00:00 | 03:29:16 | 00:00:00 | |
| OE5HKT-10 | 2026-09-02 01:58:26 | 48.38201 | 13.49687 | 96° | 35km/h | 2189m | -2.7m/s | 6.7°C | 74.5% | 791.0hPa | 2.7V | 00:00:00 | 00:00:00 | 00:00:00 | |
| OE5DRO-10 | 2026-09-02 01:58:25 | 48.38202 | 13.49674 | 96° | 35km/h | 2192m | -2.7m/s | 6.7°C | 74.0% | 790.8hPa | 2.7V | 00:00:00 | 00:00:00 | 00:00:00 | |
| OE5WHR-10 | 2026-09-02 01:58:24 | 48.38203 | 13.49661 | 96° | 35km/h | 2194m | -2.8m/s | 6.6°C | 77.4% | 790.3hPa | 2.7V | 00:00:00 | 00:00:00 | 00:00:00 | |
| DO3MHA-11 | 2026-09-02 01:58:22 | 48.38204 | 13.49635 | 95° | 35km/h | 2200m | -2.8m/s | 6.6°C | 79.1% | 790.0hPa | 2.7V | 00:00:00 | 03:29:11 | 00:00:00 | |
| OE5DXL-15 | 2026-09-02 01:58:21 | 48.38205 | 13.49622 | 95° | 33km/h | 2203m | -2.9m/s | 6.5°C | 79.7% | 789.5hPa | 2.7V | 00:00:00 | 00:00:00 | 00:00:00 | |
| OE5HKT-10 | 2026-09-02 01:58:20 | 48.38206 | 13.49608 | 95° | 35km/h | 2206m | -2.7m/s | 6.5°C | 79.9% | 789.4hPa | 2.7V | 00:00:00 | 03:29:09 | 00:00:00 | |
| OE5MMP-10 | 2026-09-02 01:58:19 | 48.38206 | 13.49595 | 95° | 35km/h | 2209m | -2.7m/s | 6.5°C | 80.1% | 788.9hPa | 2.7V | 00:00:00 | 03:29:08 | 00:00:00 | |
| OE5FHM-15 | 2026-09-02 01:58:18 | 48.38207 | 13.49582 | 95° | 33km/h | 2211m | -2.7m/s | 6.5°C | 79.9% | 788.8hPa | 2.7V | 00:00:00 | 03:29:07 | 00:00:00 | |
| DO3MHA-11 | 2026-09-02 01:58:17 | 48.38208 | 13.49569 | 95° | 35km/h | 2214m | -2.8m/s | 6.4°C | 80.2% | 788.4hPa | 2.7V | 00:00:00 | 03:29:06 | 00:00:00 | |
| PG1ADW-2 | 2026-09-02 01:58:14 | 48.38211 | 13.49530 | 99° | 31km/h | 2223m | -2.8m/s | 6.3°C | 79.7% | 787.8hPa | 2.7V | 00:00:00 | 03:29:03 | 00:00:00 | |
| DO3MHA-11 | 2026-09-02 01:58:12 | 48.38214 | 13.49503 | 100° | 35km/h | 2228m | -2.8m/s | 6.3°C | 81.4% | 787.2hPa | 2.7V | 00:00:00 | 03:29:01 | 00:00:00 | |
| OE5DRO-10 | 2026-09-02 01:58:11 | 48.38215 | 13.49490 | 101° | 33km/h | 2231m | -3.1m/s | 6.3°C | 80.3% | 787.0hPa | 2.7V | 00:00:00 | 00:00:00 | 00:00:00 | |
| OE5MMP-10 | 2026-09-02 01:58:09 | 48.38218 | 13.49464 | 103° | 31km/h | 2237m | -2.9m/s | 6.2°C | 80.0% | 786.3hPa | 2.7V | 00:00:00 | 03:28:58 | 00:00:00 | |
| OE5HKT-10 | 2026-09-02 01:58:08 | 48.38220 | 13.49452 | 104° | 33km/h | 2240m | -2.9m/s | 6.2°C | 79.5% | 786.2hPa | 2.7V | 00:00:00 | 00:00:00 | 00:00:00 | |
| DO3MHA-11 | 2026-09-02 01:58:07 | 48.38222 | 13.49439 | 105° | 31km/h | 2243m | -3.0m/s | 6.2°C | 79.4% | 785.8hPa | 2.7V | 07:08:00 | 03:28:56 | 00:00:00 | |
| OE5WHR-10 | 2026-09-02 01:58:06 | 48.38224 | 13.49427 | 106° | 31km/h | 2246m | -3.3m/s | 6.1°C | 81.5% | 785.5hPa | 2.7V | 00:00:00 | 00:00:00 | 00:00:00 | |
| OE5DRO-10 | 2026-09-02 01:58:04 | 48.38229 | 13.49404 | 108° | 29km/h | 2252m | -3.0m/s | 6.1°C | 81.6% | 784.8hPa | 2.7V | 07:08:00 | 00:00:00 | 00:00:00 | |
| DO3MHA-11 | 2026-09-02 01:58:02 | 48.38234 | 13.49382 | 109° | 27km/h | 2258m | -2.6m/s | 6.0°C | 82.2% | 784.3hPa | 2.7V | 00:00:00 | 03:28:51 | 00:00:00 | |
| OE5DXL-15 | 2026-09-02 01:58:01 | 48.38236 | 13.49372 | 109° | 26km/h | 2261m | -2.6m/s | 6.0°C | 82.1% | 784.1hPa | 2.6V | 00:00:00 | 00:00:00 | 00:00:00 | |
| OE5WHR-10 | 2026-09-02 01:58:00 | 48.38238 | 13.49362 | 108° | 26km/h | 2264m | -2.9m/s | 5.9°C | 82.5% | 783.8hPa | 2.6V | 07:08:00 | 03:28:49 | 00:00:00 | |
| OE5MMP-10 | 2026-09-02 01:57:59 | 48.38240 | 13.49352 | 109° | 26km/h | 2267m | -3.1m/s | 5.9°C | 82.8% | 783.5hPa | 2.6V | 00:00:00 | 03:28:48 | 00:00:00 | |
| OE5FHM-15 | 2026-09-02 01:57:58 | 48.38242 | 13.49342 | 110° | 24km/h | 2270m | -2.8m/s | 5.9°C | 82.7% | 783.1hPa | 2.6V | 00:00:00 | 03:28:47 | 00:00:00 | |
| DO3MHA-11 | 2026-09-02 01:57:57 | 48.38245 | 13.49333 | 110° | 26km/h | 2273m | -2.8m/s | 5.9°C | 83.1% | 782.7hPa | 2.6V | 00:00:00 | 03:28:46 | 00:00:00 | |
| OE5HKT-10 | 2026-09-02 01:57:56 | 48.38247 | 13.49324 | 111° | 26km/h | 2276m | -3.0m/s | 5.8°C | 82.5% | 782.6hPa | 2.6V | 00:00:00 | 00:00:00 | 00:00:00 | |
| PG1ADW-2 | 2026-09-02 01:57:54 | 48.38251 | 13.49306 | 109° | 24km/h | 2281m | -2.9m/s | 5.8°C | 83.0% | 782.1hPa | 2.7V | 00:00:00 | 00:00:00 | 00:00:00 | |
| DO3MHA-11 | 2026-09-02 01:57:52 | 48.38255 | 13.49287 | 109° | 26km/h | 2287m | -2.7m/s | 5.7°C | 83.6% | 781.5hPa | 2.7V | 00:00:00 | 03:28:41 | 00:00:00 | |
| OE3JTB-15 | 2026-09-02 01:57:51 | 48.38258 | 13.49277 | 109° | 24km/h | 2290m | -2.7m/s | 5.7°C | 83.9% | 781.2hPa | 2.7V | 00:00:00 | 00:00:00 | 00:00:00 | |
| OE5HKT-10 | 2026-09-02 01:57:50 | 48.38260 | 13.49268 | 110° | 24km/h | 2293m | -3.0m/s | 5.7°C | 83.9% | 781.0hPa | 2.7V | 00:00:00 | 00:00:00 | 00:00:00 | |
| OE5MMP-10 | 2026-09-02 01:57:49 | 48.38262 | 13.49258 | 109° | 22km/h | 2296m | -2.6m/s | 5.6°C | 84.5% | 780.7hPa | 2.7V | 00:00:00 | 03:28:38 | 00:00:00 | |
| OE5WHR-10 | 2026-09-02 01:57:48 | 48.38264 | 13.49249 | 108° | 24km/h | 2298m | -2.3m/s | 5.6°C | 84.7% | 780.4hPa | 2.7V | 00:00:00 | 00:00:00 | 00:00:00 | |
| DO3MHA-11 | 2026-09-02 01:57:47 | 48.38266 | 13.49241 | 107° | 22km/h | 2301m | -2.4m/s | 5.6°C | 85.0% | 780.1hPa | 2.7V | 00:00:00 | 03:28:36 | 00:00:00 | |
| OE5HKT-10 | 2026-09-02 01:57:44 | 48.38270 | 13.49216 | 103° | 22km/h | 2308m | -2.5m/s | 5.5°C | 85.0% | 779.5hPa | 2.7V | 07:08:00 | 03:28:33 | 00:00:00 | |
| OE5DRO-10 | 2026-09-02 01:57:43 | 48.38271 | 13.49207 | 101° | 22km/h | 2311m | -2.5m/s | 5.5°C | 85.4% | 779.2hPa | 2.7V | 00:00:00 | 00:00:00 | 00:00:00 | |
| OE5WHR-10 | 2026-09-02 01:57:42 | 48.38272 | 13.49199 | 101° | 22km/h | 2313m | -2.6m/s | 5.5°C | 85.6% | 778.9hPa | 2.7V | 00:00:00 | 03:28:31 | 00:00:00 | |
| OE5DXL-15 | 2026-09-02 01:57:41 | 48.38273 | 13.49191 | 101° | 29km/h | 2316m | -2.7m/s | 5.4°C | 85.5% | 778.7hPa | 2.7V | 00:00:00 | 00:00:00 | 00:00:00 | |
| OE5MMP-10 | 2026-09-02 01:57:39 | 48.38275 | 13.49175 | 100° | 26km/h | 2321m | -2.5m/s | 5.4°C | 85.3% | 778.3hPa | 2.7V | 07:08:00 | 03:28:28 | 00:00:00 | |
| OE5HKT-10 | 2026-09-02 01:57:38 | 48.38276 | 13.49167 | 101° | 26km/h | 2324m | -2.5m/s | 5.4°C | 85.4% | 778.1hPa | 2.7V | 00:00:00 | 00:00:00 | 00:00:00 | |
| DO3MHA-11 | 2026-09-02 01:57:37 | 48.38277 | 13.49158 | 103° | 26km/h | 2326m | -2.4m/s | 5.3°C | 85.6% | 777.8hPa | 2.6V | 00:00:00 | 03:28:26 | 00:00:00 | |
| OE5WHR-10 | 2026-09-02 01:57:36 | 48.38278 | 13.49149 | 105° | 26km/h | 2329m | -2.7m/s | 5.3°C | 85.7% | 777.5hPa | 2.6V | 00:00:00 | 00:00:00 | 00:00:00 | |
| PG1ADW-2 | 2026-09-02 01:57:34 | 48.38282 | 13.49131 | 110° | 33km/h | 2334m | -2.7m/s | 5.3°C | 85.9% | 777.0hPa | 2.7V | 07:08:00 | 00:00:00 | 00:00:00 | |
| OE3JTB-15 | 2026-09-02 01:57:33 | 48.38284 | 13.49122 | 112° | 31km/h | 2337m | -2.5m/s | 5.2°C | 86.7% | 776.8hPa | 2.7V | 00:00:00 | 00:00:00 | 00:00:00 | |
| DO3MHA-11 | 2026-09-02 01:57:32 | 48.38287 | 13.49112 | 113° | 29km/h | 2340m | -2.9m/s | 5.2°C | 86.9% | 776.6hPa | 2.7V | 00:00:00 | 03:28:21 | 00:00:00 | |
| OE5WHR-10 | 2026-09-02 01:57:30 | 48.38293 | 13.49092 | 113° | 33km/h | 2345m | -2.7m/s | 5.1°C | 86.5% | 776.1hPa | 2.7V | 00:00:00 | 00:00:00 | 00:00:00 | |
| OE5MMP-10 | 2026-09-02 01:57:29 | 48.38295 | 13.49081 | 113° | 35km/h | 2348m | -2.9m/s | 5.1°C | 86.8% | 775.8hPa | 2.7V | 00:00:00 | 03:28:18 | 00:00:00 | |
| DO3MHA-11 | 2026-09-02 01:57:27 | 48.38301 | 13.49058 | 111° | 35km/h | 2354m | -2.9m/s | 5.1°C | 87.2% | 775.2hPa | 2.7V | 07:08:00 | 03:28:16 | 00:00:00 | |
| OE5HKT-10 | 2026-09-02 01:57:26 | 48.38304 | 13.49047 | 110° | 35km/h | 2357m | -2.7m/s | 5.0°C | 86.4% | 774.9hPa | 2.7V | 00:00:00 | 03:28:15 | 00:00:00 | |
| OE5WHR-10 | 2026-09-02 01:57:24 | 48.38309 | 13.49022 | 107° | 37km/h | 2363m | -2.8m/s | 5.0°C | 85.4% | 774.4hPa | 2.7V | 00:00:00 | 03:28:13 | 00:00:00 | |
| DO3MHA-11 | 2026-09-02 01:57:22 | 48.38314 | 13.48996 | 104° | 37km/h | 2368m | -2.5m/s | 5.0°C | 86.1% | 773.8hPa | 2.7V | 00:00:00 | 03:28:11 | 00:00:00 | |
| OE5DXL-15 | 2026-09-02 01:57:21 | 48.38316 | 13.48983 | 104° | 37km/h | 2371m | -2.9m/s | 4.9°C | 86.4% | 773.7hPa | 2.7V | 00:00:00 | 00:00:00 | 00:00:00 | |
| OE5HKT-10 | 2026-09-02 01:57:20 | 48.38318 | 13.48969 | 102° | 37km/h | 2373m | -2.8m/s | 4.9°C | 86.6% | 773.3hPa | 2.7V | 00:00:00 | 00:00:00 | 00:00:00 | |
| OE5MMP-10 | 2026-09-02 01:57:19 | 48.38320 | 13.48956 | 101° | 37km/h | 2377m | -2.9m/s | 4.9°C | 87.4% | 773.0hPa | 2.7V | 00:00:00 | 03:28:08 | 00:00:00 | |
| OE5WHR-10 | 2026-09-02 01:57:18 | 48.38322 | 13.48942 | 99° | 37km/h | 2380m | -3.2m/s | 4.8°C | 87.4% | 772.7hPa | 2.7V | 00:00:00 | 00:00:00 | 00:00:00 | |
| DO3MHA-11 | 2026-09-02 01:57:17 | 48.38323 | 13.48928 | 99° | 37km/h | 2383m | -3.1m/s | 4.8°C | 87.5% | 772.4hPa | 2.7V | 00:00:00 | 03:28:06 | 00:00:00 | |
| OE3JTB-15 | 2026-09-02 01:57:15 | 48.38325 | 13.48899 | 96° | 37km/h | 2389m | -3.3m/s | 4.7°C | 88.7% | 771.8hPa | 2.6V | 00:00:00 | 03:28:04 | 00:00:00 | |
| PG1ADW-2 | 2026-09-02 01:57:14 | 48.38326 | 13.48885 | 95° | 33km/h | 2393m | -3.4m/s | 4.7°C | 88.2% | 771.6hPa | 2.6V | 00:00:00 | 00:00:00 | 00:00:00 | |
| OE5WHR-10 | 2026-09-02 01:57:12 | 48.38327 | 13.48857 | 93° | 37km/h | 2400m | -3.4m/s | 4.7°C | 88.3% | 770.9hPa | 2.6V | 07:09:00 | 00:00:00 | 00:00:00 | |
| OE5MMP-10 | 2026-09-02 01:57:09 | 48.38328 | 13.48815 | 89° | 33km/h | 2409m | -3.0m/s | 4.5°C | 89.3% | 770.0hPa | 2.6V | 00:00:00 | 03:27:58 | 00:00:00 | |
| OE5DRO-10 | 2026-09-02 01:57:08 | 48.38328 | 13.48801 | 88° | 31km/h | 2412m | -3.0m/s | 4.4°C | 90.2% | 769.6hPa | 2.7V | 07:09:00 | 00:00:00 | 00:00:00 | |
| DO3MHA-11 | 2026-09-02 01:57:07 | 48.38327 | 13.48787 | 85° | 35km/h | 2416m | -3.0m/s | 4.4°C | 91.2% | 769.3hPa | 2.7V | 00:00:00 | 03:27:56 | 00:00:00 | |
| OE5WHR-10 | 2026-09-02 01:57:06 | 48.38326 | 13.48774 | 85° | 29km/h | 2419m | -3.1m/s | 4.3°C | 93.8% | 769.1hPa | 2.7V | 00:00:00 | 03:27:55 | 00:00:00 | |
| OE5HKT-10 | 2026-09-02 01:57:02 | 48.38321 | 13.48724 | 81° | 31km/h | 2431m | -3.3m/s | 4.1°C | 94.2% | 767.9hPa | 2.7V | 00:00:00 | 00:00:00 | 00:00:00 | |
| OE5DXL-15 | 2026-09-02 01:57:01 | 48.38320 | 13.48712 | 81° | 35km/h | 2434m | -3.2m/s | 4.1°C | 94.2% | 767.6hPa | 2.7V | 00:00:00 | 00:00:00 | 00:00:00 | |
| OE5MMP-10 | 2026-09-02 01:56:59 | 48.38318 | 13.48690 | 83° | 29km/h | 2441m | -3.1m/s | 4.2°C | 94.2% | 767.0hPa | 2.7V | 00:00:00 | 03:27:48 | 00:00:00 | |
| OE5FHM-15 | 2026-09-02 01:56:58 | 48.38317 | 13.48680 | 87° | 35km/h | 2444m | -3.4m/s | 4.1°C | 94.4% | 766.6hPa | 2.7V | 00:00:00 | 03:27:47 | 00:00:00 | |
| DO3MHA-11 | 2026-09-02 01:56:57 | 48.38317 | 13.48671 | 91° | 27km/h | 2448m | -3.1m/s | 4.1°C | 94.2% | 766.3hPa | 2.7V | 00:00:00 | 03:27:46 | 00:00:00 | |
| PG1ADW-2 | 2026-09-02 01:56:54 | 48.38319 | 13.48641 | 101° | 37km/h | 2457m | -3.2m/s | 4.0°C | 95.4% | 765.4hPa | 2.7V | 00:00:00 | 03:27:43 | 00:00:00 | |
| DO3MHA-11 | 2026-09-02 01:56:52 | 48.38322 | 13.48619 | 104° | 33km/h | 2464m | -3.4m/s | 3.9°C | 96.4% | 764.7hPa | 2.6V | 00:00:00 | 03:27:41 | 00:00:00 | |
| OE5WHR-10 | 2026-09-02 01:56:51 | 48.38324 | 13.48608 | 104° | 38km/h | 2467m | -3.6m/s | 3.8°C | 96.4% | 764.4hPa | 2.6V | 00:00:00 | 00:00:00 | 00:00:00 | |
| OE5MMP-10 | 2026-09-02 01:56:49 | 48.38328 | 13.48583 | 102° | 38km/h | 2474m | -3.0m/s | 3.7°C | 96.7% | 763.8hPa | 2.7V | 00:00:00 | 03:27:38 | 00:00:00 | |
| DO3MHA-11 | 2026-09-02 01:56:47 | 48.38332 | 13.48556 | 100° | 38km/h | 2481m | -3.2m/s | 3.7°C | 97.7% | 763.1hPa | 2.7V | 07:09:00 | 03:27:36 | 00:00:00 | |
| OE5HKT-10 | 2026-09-02 01:56:45 | 48.38334 | 13.48527 | 98° | 38km/h | 2488m | -3.3m/s | 3.6°C | 98.1% | 762.5hPa | 2.7V | 07:09:00 | 00:00:00 | 00:00:00 | |
| DO3MHA-11 | 2026-09-02 01:56:42 | 48.38337 | 13.48483 | 93° | 40km/h | 2498m | -3.4m/s | 3.5°C | 98.7% | 761.6hPa | 2.7V | 00:00:00 | 03:27:31 | 00:00:00 | |
| OE5DRO-10 | 2026-09-02 01:56:41 | 48.38337 | 13.48468 | 91° | 38km/h | 2501m | -3.2m/s | 3.5°C | 99.6% | 761.2hPa | 2.7V | 00:00:00 | 00:00:00 | 00:00:00 | |
| OE5MMP-10 | 2026-09-02 01:56:39 | 48.38337 | 13.48437 | 88° | 38km/h | 2508m | -3.1m/s | 3.4°C | 99.6% | 760.6hPa | 2.7V | 00:00:00 | 03:27:28 | 00:00:00 | |
| OE5FHM-15 | 2026-09-02 01:56:38 | 48.38336 | 13.48422 | 87° | 37km/h | 2511m | -3.2m/s | 3.4°C | 99.3% | 760.3hPa | 2.6V | 00:00:00 | 03:27:27 | 00:00:00 | |
| DO3MHA-11 | 2026-09-02 01:56:37 | 48.38336 | 13.48407 | 85° | 38km/h | 2515m | -3.2m/s | 3.4°C | 99.3% | 760.1hPa | 2.6V | 00:00:00 | 03:27:26 | 00:00:00 | |
| OE3JTB-15 | 2026-09-02 01:56:35 | 48.38333 | 13.48377 | 81° | 35km/h | 2521m | -3.3m/s | 3.4°C | 0% | 759.4hPa | 2.6V | 00:00:00 | 03:27:24 | 00:00:00 | |
| PG1ADW-2 | 2026-09-02 01:56:34 | 48.38331 | 13.48362 | 81° | 33km/h | 2524m | -3.3m/s | 3.4°C | 0% | 759.0hPa | 2.6V | 00:00:00 | 00:00:00 | 00:00:00 | |
| DO3MHA-11 | 2026-09-02 01:56:32 | 48.38328 | 13.48333 | 80° | 38km/h | 2531m | -3.4m/s | 3.3°C | 0% | 758.4hPa | 2.6V | 00:00:00 | 03:27:21 | 00:00:00 | |
| OE5DXL-15 | 2026-09-02 01:56:31 | 48.38326 | 13.48319 | 79° | 29km/h | 2534m | -3.3m/s | 3.3°C | 0% | 758.2hPa | 2.6V | 00:00:00 | 00:00:00 | 00:00:00 | |
| OE5MMP-10 | 2026-09-02 01:56:29 | 48.38322 | 13.48291 | 78° | 35km/h | 2541m | -3.3m/s | 3.3°C | 0% | 757.4hPa | 2.6V | 00:00:00 | 03:27:18 | 00:00:00 | |
| OE5HKT-10 | 2026-09-02 01:56:28 | 48.38320 | 13.48277 | 77° | 31km/h | 2544m | -3.2m/s | 3.3°C | 0% | 757.2hPa | 2.6V | 00:00:00 | 03:27:17 | 00:00:00 | |
| DO3MHA-11 | 2026-09-02 01:56:27 | 48.38318 | 13.48264 | 77° | 35km/h | 2548m | -3.2m/s | 3.3°C | 0% | 756.9hPa | 2.6V | 00:00:00 | 03:27:16 | 00:00:00 | |
| DO3MHA-11 | 2026-09-02 01:56:22 | 48.38306 | 13.48201 | 75° | 29km/h | 2564m | -3.1m/s | 2.9°C | 0% | 755.3hPa | 2.6V | 00:00:00 | 03:27:11 | 00:00:00 | |
| OE5MMP-10 | 2026-09-02 01:56:19 | 48.38300 | 13.48168 | 76° | 26km/h | 2573m | -3.0m/s | 2.9°C | 0% | 754.5hPa | 2.6V | 07:09:00 | 03:27:08 | 00:00:00 | |
| OE5FHM-15 | 2026-09-02 01:56:18 | 48.38298 | 13.48158 | 76° | 27km/h | 2576m | -3.0m/s | 2.9°C | 0% | 754.2hPa | 2.6V | 00:00:00 | 03:27:07 | 00:00:00 | |
| OE5WHR-10 | 2026-09-02 01:56:17 | 48.38296 | 13.48147 | 78° | 26km/h | 2580m | -2.9m/s | 2.9°C | 0% | 753.9hPa | 2.7V | 00:00:00 | 03:27:06 | 00:00:00 | |
| OE3JTB-15 | 2026-09-02 01:56:16 | 48.38295 | 13.48138 | 77° | 27km/h | 2583m | -2.9m/s | 2.9°C | 0% | 753.6hPa | 2.7V | 00:00:00 | 00:00:00 | 00:00:00 | |
| PG1ADW-2 | 2026-09-02 01:56:14 | 48.38292 | 13.48118 | 78° | 27km/h | 2588m | -2.9m/s | 2.8°C | 0% | 753.2hPa | 2.7V | 00:00:00 | 00:00:00 | 00:00:00 | |
| OE5HKT-10 | 2026-09-02 01:56:11 | 48.38288 | 13.48090 | 79° | 31km/h | 2598m | -3.0m/s | 2.9°C | 0% | 752.1hPa | 2.7V | 00:00:00 | 00:00:00 | 00:00:00 | |
| OE5MMP-10 | 2026-09-02 01:56:09 | 48.38286 | 13.48072 | 86° | 27km/h | 2603m | -2.8m/s | 3.2°C | 91.8% | 751.6hPa | 2.6V | 00:00:00 | 03:26:58 | 00:00:00 | |
| OE5DXL-15 | 2026-09-02 01:56:01 | 48.38288 | 13.47990 | 96° | 37km/h | 2627m | -2.8m/s | 3.2°C | 90.3% | 749.6hPa | 2.6V | 00:00:00 | 03:26:50 | 00:00:00 | |
| OE5WHR-10 | 2026-09-02 01:56:00 | 48.38289 | 13.47979 | 97° | 37km/h | 2630m | -3.2m/s | 3.1°C | 90.3% | 749.3hPa | 2.6V | 00:00:00 | 00:00:00 | 00:00:00 | |
| OE5MMP-10 | 2026-09-02 01:55:59 | 48.38290 | 13.47967 | 96° | 35km/h | 2633m | -2.9m/s | 3.1°C | 90.1% | 749.0hPa | 2.7V | 00:00:00 | 03:26:48 | 00:00:00 | |
| OE5FHM-15 | 2026-09-02 01:55:58 | 48.38291 | 13.47955 | 96° | 37km/h | 2636m | -2.8m/s | 3.1°C | 90.4% | 748.8hPa | 2.7V | 07:10:00 | 03:26:47 | 00:00:00 | |
| OE3JTB-15 | 2026-09-02 01:55:57 | 48.38292 | 13.47943 | 95° | 37km/h | 2639m | -2.9m/s | 3.1°C | 90.1% | 748.5hPa | 2.7V | 00:00:00 | 00:00:00 | 00:00:00 | |
| PG1ADW-2 | 2026-09-02 01:55:54 | 48.38293 | 13.47903 | 92° | 37km/h | 2647m | -2.9m/s | 3.0°C | 90.3% | 747.7hPa | 2.7V | 00:00:00 | 00:00:00 | 00:00:00 | |
| OE5DRO-10 | 2026-09-02 01:55:53 | 48.38293 | 13.47890 | 91° | 37km/h | 2650m | -2.8m/s | 3.0°C | 90.5% | 747.3hPa | 2.7V | 00:00:00 | 00:00:00 | 00:00:00 | |
| OE5MMP-10 | 2026-09-02 01:55:49 | 48.38292 | 13.47834 | 88° | 38km/h | 2662m | -2.9m/s | 2.9°C | 91.4% | 746.2hPa | 2.7V | 00:00:00 | 03:26:38 | 00:00:00 | |
| OE5WHR-10 | 2026-09-02 01:55:43 | 48.38286 | 13.47747 | 79° | 37km/h | 2679m | -2.8m/s | 2.7°C | 92.5% | 744.8hPa | 2.7V | 00:00:00 | 00:00:00 | 00:00:00 | |
| OE5MMP-10 | 2026-09-02 01:55:39 | 48.38277 | 13.47692 | 74° | 37km/h | 2690m | -3.0m/s | 2.6°C | 92.4% | 743.8hPa | 2.7V | 00:00:00 | 03:26:28 | 00:00:00 | |
| OE5FHM-15 | 2026-09-02 01:55:38 | 48.38274 | 13.47680 | 73° | 33km/h | 2693m | -2.7m/s | 2.6°C | 92.6% | 743.2hPa | 2.7V | 00:00:00 | 03:26:27 | 00:00:00 | |
| PG1ADW-2 | 2026-09-02 01:55:34 | 48.38263 | 13.47628 | 72° | 31km/h | 2705m | -2.9m/s | 2.6°C | 91.8% | 742.3hPa | 2.7V | 00:00:00 | 03:26:23 | 00:00:00 | |
| OE5DXL-15 | 2026-09-02 01:55:31 | 48.38254 | 13.47589 | 71° | 29km/h | 2714m | -3.0m/s | 2.5°C | 92.1% | 741.6hPa | 2.7V | 07:10:00 | 00:00:00 | 00:00:00 | |
| OE5MMP-10 | 2026-09-02 01:55:29 | 48.38247 | 13.47564 | 69° | 31km/h | 2720m | -3.1m/s | 2.4°C | 91.9% | 741.1hPa | 2.7V | 00:00:00 | 03:26:18 | 00:00:00 | |
| OE5HKT-10 | 2026-09-02 01:55:28 | 48.38244 | 13.47552 | 69° | 27km/h | 2723m | -3.0m/s | 2.4°C | 91.6% | 740.7hPa | 2.7V | 00:00:00 | 00:00:00 | 00:00:00 | |
| OE5WHR-10 | 2026-09-02 01:55:26 | 48.38238 | 13.47528 | 68° | 27km/h | 2729m | -2.9m/s | 2.3°C | 92.1% | 740.3hPa | 2.7V | 00:00:00 | 03:26:15 | 00:00:00 | |
| OE5REO-15 | 2026-09-02 01:55:22 | 48.38229 | 13.47495 | 67° | 29km/h | 2738m | -2.9m/s | 2.3°C | 91.8% | 739.3hPa | 2.7V | 07:11:00 | 00:00:00 | 00:00:00 | |
| OE5DRO-10 | 2026-09-02 01:55:21 | 48.38222 | 13.47475 | 67° | 26km/h | 2744m | -2.8m/s | 2.2°C | 92.6% | 738.9hPa | 2.7V | 00:00:00 | 00:00:00 | 00:00:00 | |
| OE5MMP-10 | 2026-09-02 01:55:19 | 48.38217 | 13.47456 | 69° | 26km/h | 2749m | -3.0m/s | 2.2°C | 92.6% | 738.2hPa | 2.7V | 00:00:00 | 03:26:08 | 00:00:00 | |
| OE5FHM-15 | 2026-09-02 01:55:18 | 48.38214 | 13.47447 | 70° | 27km/h | 2753m | -3.0m/s | 2.1°C | 92.9% | 738.0hPa | 2.7V | 00:00:00 | 03:26:07 | 00:00:00 | |
| PG1ADW-2 | 2026-09-02 01:55:14 | 48.38207 | 13.47402 | 84° | 29km/h | 2767m | -3.0m/s | 2.0°C | 93.0% | 736.7hPa | 2.7V | 00:00:00 | 00:00:00 | 00:00:00 | |
| OE5HKT-10 | 2026-09-02 01:55:11 | 48.38206 | 13.47384 | 87° | 31km/h | 2773m | -3.0m/s | 2.0°C | 93.6% | 736.1hPa | 2.7V | 00:00:00 | 03:26:00 | 00:00:00 | |
| OE5MMP-10 | 2026-09-02 01:55:09 | 48.38206 | 13.47364 | 91° | 29km/h | 2779m | -3.1m/s | 1.9°C | 93.8% | 735.6hPa | 2.7V | 00:00:00 | 03:25:58 | 00:00:00 | |
| OE5REO-15 | 2026-09-02 01:55:06 | 48.38206 | 13.47344 | 93° | 27km/h | 2785m | -2.8m/s | 1.9°C | 93.1% | 735.1hPa | 2.7V | 07:11:00 | 00:00:00 | 00:00:00 | |
| OE5DRO-10 | 2026-09-02 01:55:05 | 48.38206 | 13.47322 | 93° | 35km/h | 2790m | -2.5m/s | 1.8°C | 94.1% | 734.5hPa | 2.7V | 07:11:00 | 00:00:00 | 00:00:00 | |
| DO3MHA-11 | 2026-09-02 01:55:04 | 48.38207 | 13.47311 | 94° | 31km/h | 2793m | -3.0m/s | 1.8°C | 94.4% | 734.3hPa | 2.7V | 00:00:00 | 03:25:53 | 00:00:00 | |
| OE5DXL-15 | 2026-09-02 01:55:01 | 48.38208 | 13.47276 | 93° | 35km/h | 2802m | -3.1m/s | 1.7°C | 94.8% | 733.4hPa | 2.7V | 00:00:00 | 00:00:00 | 00:00:00 | |
| OE3JTB-15 | 2026-09-02 01:55:00 | 48.38208 | 13.47263 | 94° | 37km/h | 2805m | -3.0m/s | 1.7°C | 94.7% | 733.2hPa | 2.7V | 00:00:00 | 00:00:00 | 00:00:00 | |
| OE5MMP-10 | 2026-09-02 01:54:59 | 48.38209 | 13.47251 | 93° | 37km/h | 2808m | -2.9m/s | 1.6°C | 94.6% | 732.8hPa | 2.7V | 07:11:00 | 03:25:48 | 00:00:00 | |
| OE5FHM-15 | 2026-09-02 01:54:58 | 48.38209 | 13.47238 | 92° | 37km/h | 2811m | -2.9m/s | 1.6°C | 95.1% | 732.6hPa | 2.7V | 00:00:00 | 03:25:47 | 00:00:00 | |
| DO3MHA-11 | 2026-09-02 01:54:54 | 48.38210 | 13.47184 | 89° | 38km/h | 2823m | -2.8m/s | 1.5°C | 95.3% | 731.5hPa | 2.7V | 00:00:00 | 03:25:43 | 00:00:00 | |
| OE5WHR-10 | 2026-09-02 01:54:52 | 48.38209 | 13.47156 | 87° | 37km/h | 2829m | -2.9m/s | 1.4°C | 95.7% | 731.1hPa | 2.7V | 00:00:00 | 00:00:00 | 00:00:00 | |
| OE5REO-15 | 2026-09-02 01:54:51 | 48.38209 | 13.47156 | 87° | 38km/h | 2829m | -3.0m/s | 1.5°C | 94.8% | 731.1hPa | 2.7V | 07:12:00 | 00:00:00 | 00:00:00 | |
| OE5MMP-10 | 2026-09-02 01:54:49 | 48.38206 | 13.47112 | 81° | 37km/h | 2838m | -2.9m/s | 1.4°C | 95.7% | 730.2hPa | 2.7V | 00:00:00 | 03:25:38 | 00:00:00 | |
| DO3MHA-11 | 2026-09-02 01:54:44 | 48.38194 | 13.47041 | 72° | 35km/h | 2852m | -2.8m/s | 1.3°C | 95.7% | 728.8hPa | 2.7V | 00:00:00 | 03:25:33 | 00:00:00 | |
| OE3JTB-15 | 2026-09-02 01:54:41 | 48.38185 | 13.47003 | 68° | 27km/h | 2860m | -2.8m/s | 1.2°C | 96.2% | 728.0hPa | 2.7V | 07:11:00 | 03:25:30 | 00:00:00 | |
| DO3MHA-11 | 2026-09-02 01:54:39 | 48.38178 | 13.46980 | 67° | 29km/h | 2866m | -3.0m/s | 1.2°C | 96.1% | 727.5hPa | 2.7V | 00:00:00 | 03:25:28 | 00:00:00 | |
| OE5FHM-15 | 2026-09-02 01:54:38 | 48.38175 | 13.46969 | 67° | 27km/h | 2869m | -3.1m/s | 1.1°C | 95.7% | 727.4hPa | 2.7V | 00:00:00 | 03:25:27 | 00:00:00 | |
| OE5HKT-10 | 2026-09-02 01:54:37 | 48.38172 | 13.46958 | 67° | 35km/h | 2872m | -3.0m/s | 1.1°C | 96.1% | 727.1hPa | 2.7V | 00:00:00 | 00:00:00 | 00:00:00 | |
| OE5REO-15 | 2026-09-02 01:54:36 | 48.38172 | 13.46958 | 67° | 29km/h | 2872m | -3.0m/s | 1.2°C | 95.1% | 727.2hPa | 2.7V | 07:12:00 | 00:00:00 | 00:00:00 | |
| OE5WHR-10 | 2026-09-02 01:54:35 | 48.38166 | 13.46938 | 68° | 27km/h | 2879m | -3.2m/s | 1.1°C | 96.3% | 726.5hPa | 2.7V | 00:00:00 | 03:25:24 | 00:00:00 | |
| DO3MHA-11 | 2026-09-02 01:54:34 | 48.38163 | 13.46929 | 69° | 26km/h | 2882m | -3.2m/s | 1.1°C | 96.4% | 726.2hPa | 2.7V | 00:00:00 | 03:25:23 | 00:00:00 | |
| OE5DRO-10 | 2026-09-02 01:54:33 | 48.38161 | 13.46919 | 70° | 27km/h | 2885m | -3.2m/s | 1.0°C | 96.6% | 725.8hPa | 2.7V | 00:00:00 | 00:00:00 | 00:00:00 | |
| OE5DXL-15 | 2026-09-02 01:54:31 | 48.38156 | 13.46901 | 72° | 33km/h | 2892m | -3.2m/s | 1.0°C | 97.2% | 725.3hPa | 2.7V | 00:00:00 | 00:00:00 | 00:00:00 | |
| OE5MMP-10 | 2026-09-02 01:54:29 | 48.38153 | 13.46883 | 77° | 26km/h | 2898m | -3.0m/s | 0.9°C | 97.3% | 724.8hPa | 2.7V | 00:00:00 | 03:25:18 | 00:00:00 | |
| DO3MHA-11 | 2026-09-02 01:54:27 | 48.38151 | 13.46866 | 83° | 26km/h | 2905m | -3.1m/s | 0.9°C | 97.1% | 724.2hPa | 2.7V | 00:00:00 | 03:25:16 | 00:00:00 | |
| DO3MHA-11 | 2026-09-02 01:54:22 | 48.38151 | 13.46833 | 94° | 31km/h | 2920m | -2.9m/s | 0.8°C | 96.3% | 722.9hPa | 2.7V | 00:00:00 | 03:25:11 | 00:00:00 | |
| OE5MMP-10 | 2026-09-02 01:54:19 | 48.38152 | 13.46782 | 95° | 37km/h | 2929m | -3.2m/s | 0.7°C | 94.9% | 722.0hPa | 2.6V | 00:00:00 | 03:25:08 | 00:00:00 | |
| OE5FHM-15 | 2026-09-02 01:54:18 | 48.38153 | 13.46769 | 94° | 37km/h | 2932m | -2.9m/s | 0.7°C | 95.1% | 721.7hPa | 2.6V | 00:00:00 | 03:25:07 | 00:00:00 | |
| DO3MHA-11 | 2026-09-02 01:54:17 | 48.38153 | 13.46756 | 93° | 37km/h | 2935m | -3.1m/s | 0.7°C | 95.8% | 721.5hPa | 2.7V | 07:11:00 | 03:25:06 | 00:00:00 | |
| PG1ADW-2 | 2026-09-02 01:54:14 | 48.38154 | 13.46715 | 90° | 37km/h | 2945m | -3.1m/s | 0.6°C | 96.8% | 720.6hPa | 2.7V | 00:00:00 | 03:25:03 | 00:00:00 | |
| DO3MHA-11 | 2026-09-02 01:54:12 | 48.38153 | 13.46686 | 86° | 38km/h | 2951m | -3.0m/s | 0.5°C | 96.5% | 720.0hPa | 2.7V | 00:00:00 | 03:25:01 | 00:00:00 | |
| OE5MMP-10 | 2026-09-02 01:54:09 | 48.38149 | 13.46642 | 82° | 38km/h | 2961m | -3.3m/s | 0.5°C | 95.7% | 719.2hPa | 2.7V | 00:00:00 | 03:24:58 | 00:00:00 | |
| DO3MHA-11 | 2026-09-02 01:54:07 | 48.38146 | 13.46614 | 78° | 38km/h | 2967m | -3.1m/s | 0.4°C | 96.6% | 718.6hPa | 2.7V | 00:00:00 | 03:24:56 | 00:00:00 | |
| OE5REO-15 | 2026-09-02 01:54:04 | 48.38141 | 13.46585 | 76° | 38km/h | 2973m | -3.4m/s | 0.4°C | 94.9% | 718.1hPa | 2.7V | 07:12:00 | 00:00:00 | 00:00:00 | |
| OE3JTB-15 | 2026-09-02 01:54:03 | 48.38136 | 13.46558 | 74° | 35km/h | 2980m | -3.3m/s | 0.3°C | 96.2% | 717.4hPa | 2.7V | 00:00:00 | 00:00:00 | 00:00:00 | |
| DO3MHA-11 | 2026-09-02 01:54:02 | 48.38133 | 13.46544 | 73° | 37km/h | 2983m | -3.4m/s | 0.3°C | 96.3% | 717.1hPa | 2.7V | 00:00:00 | 03:24:51 | 00:00:00 | |
| OE5DXL-15 | 2026-09-02 01:54:01 | 48.38130 | 13.46530 | 72° | 29km/h | 2987m | -3.3m/s | 0.2°C | 96.6% | 716.7hPa | 2.7V | 00:00:00 | 00:00:00 | 00:00:00 | |
| OE5MMP-10 | 2026-09-02 01:53:59 | 48.38124 | 13.46504 | 70° | 35km/h | 2993m | -3.3m/s | 0.2°C | 96.7% | 716.2hPa | 2.7V | 00:00:00 | 03:24:48 | 00:00:00 | |
| OE5FHM-15 | 2026-09-02 01:53:58 | 48.38121 | 13.46491 | 70° | 29km/h | 2997m | -3.3m/s | 0.2°C | 96.7% | 715.9hPa | 2.7V | 00:00:00 | 03:24:47 | 00:00:00 | |
| DO3MHA-11 | 2026-09-02 01:53:57 | 48.38118 | 13.46479 | 69° | 35km/h | 3000m | -3.3m/s | 0.1°C | 96.9% | 715.6hPa | 2.7V | 00:00:00 | 03:24:46 | 00:00:00 | |
| PG1ADW-2 | 2026-09-02 01:53:54 | 48.38107 | 13.46442 | 66° | 27km/h | 3010m | -3.2m/s | 0.1°C | 96.8% | 714.8hPa | 2.7V | 00:00:00 | 00:00:00 | 00:00:00 | |
| DO3MHA-11 | 2026-09-02 01:53:52 | 48.38100 | 13.46418 | 65° | 33km/h | 3017m | -3.2m/s | 0.1°C | 96.2% | 714.1hPa | 2.7V | 00:00:00 | 03:24:41 | 00:00:00 | |
| OE5HKT-10 | 2026-09-02 01:53:49 | 48.38089 | 13.46384 | 64° | 27km/h | 3026m | -3.0m/s | 0.1°C | 92.6% | 713.3hPa | 2.6V | 00:00:00 | 03:24:38 | 00:00:00 | |
| DO3MHA-11 | 2026-09-02 01:53:47 | 48.38082 | 13.46363 | 63° | 27km/h | 3032m | -3.1m/s | 0.1°C | 92.9% | 712.7hPa | 2.6V | 00:00:00 | 03:24:36 | 00:00:00 | |
| OE5DRO-10 | 2026-09-02 01:53:45 | 48.38075 | 13.46343 | 63° | 26km/h | 3039m | -3.1m/s | 0.1°C | 92.0% | 712.2hPa | 2.6V | 00:00:00 | 00:00:00 | 00:00:00 | |
| OE5WHR-10 | 2026-09-02 01:53:44 | 48.38072 | 13.46334 | 62° | 27km/h | 3042m | -2.9m/s | 0.1°C | 91.5% | 712.0hPa | 2.6V | 00:00:00 | 03:24:33 | 00:00:00 | |
| DO3MHA-11 | 2026-09-02 01:53:42 | 48.38066 | 13.46317 | 66° | 24km/h | 3048m | -3.0m/s | 0.0°C | 91.0% | 711.5hPa | 2.6V | 00:00:00 | 03:24:31 | 00:00:00 | |
| OE5MMP-10 | 2026-09-02 01:53:39 | 48.38060 | 13.46292 | 75° | 27km/h | 3057m | -3.0m/s | 0.0°C | 91.4% | 710.6hPa | 2.6V | 07:12:00 | 03:24:28 | 00:00:00 | |
| DO3MHA-11 | 2026-09-02 01:53:37 | 48.38058 | 13.46275 | 83° | 27km/h | 3063m | -3.1m/s | -0.0°C | 91.9% | 710.1hPa | 2.7V | 07:12:00 | 03:24:26 | 00:00:00 | |
| PG1ADW-2 | 2026-09-02 01:53:34 | 48.38057 | 13.46245 | 89° | 33km/h | 3073m | -3.1m/s | -0.1°C | 91.9% | 709.3hPa | 2.7V | 00:00:00 | 00:00:00 | 00:00:00 | |
| DO3MHA-11 | 2026-09-02 01:53:32 | 48.38056 | 13.46223 | 90° | 31km/h | 3079m | -3.4m/s | -0.1°C | 92.4% | 708.9hPa | 2.7V | 00:00:00 | 03:24:21 | 00:00:00 | |
| OE5DXL-15 | 2026-09-02 01:53:31 | 48.38056 | 13.46212 | 89° | 29km/h | 3082m | -3.4m/s | -0.2°C | 92.4% | 708.4hPa | 2.7V | 00:00:00 | 00:00:00 | 00:00:00 | |
| OE5MMP-10 | 2026-09-02 01:53:29 | 48.38056 | 13.46188 | 88° | 37km/h | 3089m | -3.1m/s | -0.2°C | 92.3% | 707.8hPa | 2.7V | 00:00:00 | 03:24:18 | 00:00:00 | |
| OE5FHM-15 | 2026-09-02 01:53:28 | 48.38055 | 13.46175 | 88° | 29km/h | 3093m | -3.0m/s | -0.2°C | 92.1% | 707.5hPa | 2.7V | 00:00:00 | 03:24:17 | 00:00:00 | |
| DO3MHA-11 | 2026-09-02 01:53:27 | 48.38055 | 13.46162 | 87° | 37km/h | 3096m | -3.2m/s | -0.2°C | 91.6% | 707.3hPa | 2.7V | 00:00:00 | 03:24:16 | 00:00:00 | |
| OE3JTB-15 | 2026-09-02 01:53:25 | 48.38053 | 13.46135 | 85° | 31km/h | 3102m | -3.1m/s | -0.1°C | 89.2% | 706.7hPa | 2.7V | 00:00:00 | 00:00:00 | 00:00:00 | |
| DO3MHA-11 | 2026-09-02 01:53:22 | 48.38049 | 13.46093 | 78° | 37km/h | 3112m | -3.1m/s | -0.1°C | 86.3% | 706.0hPa | 2.6V | 00:00:00 | 03:24:11 | 00:00:00 | |
| OE5MMP-10 | 2026-09-02 01:53:19 | 48.38041 | 13.46052 | 69° | 29km/h | 3121m | -3.0m/s | -0.0°C | 80.7% | 705.0hPa | 2.7V | 00:00:00 | 03:24:08 | 00:00:00 | |
| DO3MHA-11 | 2026-09-02 01:53:17 | 48.38034 | 13.46028 | 65° | 29km/h | 3127m | -2.8m/s | -0.0°C | 81.6% | 704.6hPa | 2.7V | 00:00:00 | 03:24:06 | 00:00:00 | |
| OE5REO-15 | 2026-09-02 01:53:16 | 48.38034 | 13.46029 | 65° | 33km/h | 3127m | -2.9m/s | -0.1°C | 80.7% | 704.7hPa | 2.7V | 07:13:00 | 00:00:00 | 00:00:00 | |
| OE5HKT-10 | 2026-09-02 01:53:15 | 48.38027 | 13.46008 | 64° | 24km/h | 3132m | -2.8m/s | -0.0°C | 79.7% | 704.2hPa | 2.7V | 00:00:00 | 00:00:00 | 00:00:00 | |
| PG1ADW-2 | 2026-09-02 01:53:14 | 48.38024 | 13.45999 | 65° | 24km/h | 3135m | -3.0m/s | -0.0°C | 79.8% | 703.8hPa | 2.7V | 00:00:00 | 00:00:00 | 00:00:00 | |
| OE5DRO-10 | 2026-09-02 01:53:13 | 48.38021 | 13.45990 | 67° | 24km/h | 3138m | -3.1m/s | -0.0°C | 79.9% | 703.5hPa | 2.7V | 00:00:00 | 00:00:00 | 00:00:00 | |
| DO3MHA-11 | 2026-09-02 01:53:12 | 48.38019 | 13.45980 | 68° | 24km/h | 3141m | -3.0m/s | -0.1°C | 79.8% | 703.3hPa | 2.7V | 00:00:00 | 03:24:01 | 00:00:00 | |
| OE5WHR-10 | 2026-09-02 01:53:10 | 48.38014 | 13.45963 | 72° | 24km/h | 3147m | -2.9m/s | -0.1°C | 78.4% | 702.7hPa | 2.7V | 00:00:00 | 00:00:00 | 00:00:00 | |
| OE5MMP-10 | 2026-09-02 01:53:09 | 48.38012 | 13.45954 | 74° | 24km/h | 3150m | -3.0m/s | -0.1°C | 78.3% | 702.4hPa | 2.7V | 00:00:00 | 03:23:58 | 00:00:00 | |
| DO3MHA-11 | 2026-09-02 01:53:07 | 48.38010 | 13.45937 | 78° | 22km/h | 3156m | -3.0m/s | -0.1°C | 76.8% | 701.9hPa | 2.6V | 00:00:00 | 03:23:56 | 00:00:00 | |
| OE3JTB-15 | 2026-09-02 01:53:06 | 48.38008 | 13.45929 | 80° | 22km/h | 3159m | -3.1m/s | -0.1°C | 76.7% | 701.6hPa | 2.7V | 00:00:00 | 00:00:00 | 00:00:00 | |
| DO3MHA-11 | 2026-09-02 01:53:02 | 48.38007 | 13.45894 | 91° | 24km/h | 3172m | -3.1m/s | -0.1°C | 73.8% | 700.6hPa | 2.7V | 00:00:00 | 03:23:51 | 00:00:00 | |
| OE5DXL-15 | 2026-09-02 01:53:01 | 48.38007 | 13.45886 | 92° | 24km/h | 3175m | -3.1m/s | -0.1°C | 71.9% | 700.3hPa | 2.7V | 00:00:00 | 00:00:00 | 00:00:00 | |
| OE5MMP-10 | 2026-09-02 01:52:59 | 48.38007 | 13.45868 | 93° | 22km/h | 3182m | -3.2m/s | -0.0°C | 69.3% | 699.8hPa | 2.7V | 00:00:00 | 03:23:48 | 00:00:00 | |
| OE5HKT-10 | 2026-09-02 01:52:58 | 48.38008 | 13.45860 | 94° | 24km/h | 3185m | -3.2m/s | -0.0°C | 66.8% | 699.4hPa | 2.7V | 00:00:00 | 03:23:47 | 00:00:00 | |
| DO3MHA-11 | 2026-09-02 01:52:57 | 48.38008 | 13.45851 | 94° | 22km/h | 3188m | -3.1m/s | -0.0°C | 66.9% | 699.1hPa | 2.7V | 07:13:00 | 03:23:46 | 00:00:00 | |
| PG1ADW-2 | 2026-09-02 01:52:54 | 48.38009 | 13.45825 | 92° | 24km/h | 3197m | -2.9m/s | 0.0°C | 64.9% | 698.4hPa | 2.7V | 00:00:00 | 03:23:43 | 00:00:00 | |
| OE5WHR-10 | 2026-09-02 01:52:53 | 48.38009 | 13.45817 | 91° | 24km/h | 3200m | -3.1m/s | -0.0°C | 63.8% | 698.1hPa | 2.7V | 07:13:00 | 03:23:42 | 00:00:00 | |
| DO3MHA-11 | 2026-09-02 01:52:49 | 48.38009 | 13.45782 | 88° | 24km/h | 3212m | -2.9m/s | -0.0°C | 64.9% | 697.1hPa | 2.7V | 00:00:00 | 03:23:38 | 00:00:00 | |
| OE3JTB-15 | 2026-09-02 01:52:47 | 48.38008 | 13.45765 | 87° | 24km/h | 3218m | -2.7m/s | -0.0°C | 62.7% | 696.7hPa | 2.7V | 00:00:00 | 03:23:36 | 00:00:00 | |
| OE5REO-15 | 2026-09-02 01:52:45 | 48.38008 | 13.45756 | 88° | 24km/h | 3221m | -2.9m/s | -0.1°C | 62.2% | 696.5hPa | 2.7V | 07:13:00 | 00:00:00 | 00:00:00 | |
| OE5HKT-10 | 2026-09-02 01:52:41 | 48.38008 | 13.45712 | 94° | 26km/h | 3235m | -2.9m/s | 0.1°C | 56.5% | 695.1hPa | 2.7V | 00:00:00 | 00:00:00 | 00:00:00 | |
| OE5MMP-10 | 2026-09-02 01:52:39 | 48.38009 | 13.45695 | 99° | 26km/h | 3241m | -2.9m/s | 0.1°C | 56.0% | 694.5hPa | 2.7V | 00:00:00 | 03:23:28 | 00:00:00 | |
| OE5WHR-10 | 2026-09-02 01:52:36 | 48.38013 | 13.45669 | 106° | 29km/h | 3250m | -2.8m/s | 0.4°C | 49.0% | 693.9hPa | 2.7V | 00:00:00 | 00:00:00 | 00:00:00 | |
| PG1ADW-2 | 2026-09-02 01:52:34 | 48.38017 | 13.45652 | 109° | 31km/h | 3256m | -3.0m/s | 0.5°C | 46.3% | 693.2hPa | 2.7V | 00:00:00 | 00:00:00 | 00:00:00 | |
| DO3MHA-11 | 2026-09-02 01:52:33 | 48.38019 | 13.45643 | 110° | 26km/h | 3259m | -3.1m/s | 0.5°C | 45.2% | 693.1hPa | 2.7V | 00:00:00 | 03:23:22 | 00:00:00 | |
| OE5DXL-15 | 2026-09-02 01:52:31 | 48.38023 | 13.45624 | 114° | 35km/h | 3265m | -3.0m/s | 0.5°C | 44.5% | 692.4hPa | 2.7V | 00:00:00 | 00:00:00 | 00:00:00 | |
| OE5MMP-10 | 2026-09-02 01:52:29 | 48.38029 | 13.45605 | 114° | 31km/h | 3271m | -2.9m/s | 0.5°C | 44.3% | 692.0hPa | 2.7V | 00:00:00 | 03:23:18 | 00:00:00 | |
| OE5FHM-15 | 2026-09-02 01:52:28 | 48.38032 | 13.45595 | 114° | 35km/h | 3274m | -2.7m/s | 0.5°C | 44.2% | 691.7hPa | 2.7V | 00:00:00 | 03:23:17 | 00:00:00 | |
| DO3MHA-11 | 2026-09-02 01:52:27 | 48.38035 | 13.45585 | 115° | 31km/h | 3276m | -2.9m/s | 0.5°C | 44.3% | 691.3hPa | 2.7V | 00:00:00 | 03:23:16 | 00:00:00 | |
| OE5DRO-10 | 2026-09-02 01:52:25 | 48.38041 | 13.45564 | 115° | 37km/h | 3282m | -3.1m/s | 0.4°C | 44.4% | 691.1hPa | 2.7V | 00:00:00 | 00:00:00 | 00:00:00 | |
| OE5HKT-10 | 2026-09-02 01:52:24 | 48.38045 | 13.45554 | 116° | 37km/h | 3285m | -2.9m/s | 0.4°C | 44.4% | 690.7hPa | 2.6V | 00:00:00 | 00:00:00 | 00:00:00 | |
| DO3MHA-11 | 2026-09-02 01:52:22 | 48.38051 | 13.45532 | 114° | 35km/h | 3291m | -3.1m/s | 0.4°C | 44.6% | 690.2hPa | 2.6V | 00:00:00 | 03:23:11 | 00:00:00 | |
| OE5MMP-10 | 2026-09-02 01:52:19 | 48.38061 | 13.45495 | 112° | 38km/h | 3300m | -2.7m/s | 0.3°C | 45.1% | 689.4hPa | 2.7V | 07:13:00 | 03:23:08 | 00:00:00 | |
| DO3MHA-11 | 2026-09-02 01:52:17 | 48.38068 | 13.45469 | 110° | 38km/h | 3306m | -2.8m/s | 0.3°C | 45.3% | 688.8hPa | 2.7V | 00:00:00 | 03:23:06 | 00:00:00 | |
| PG1ADW-2 | 2026-09-02 01:52:14 | 48.38077 | 13.45427 | 106° | 33km/h | 3315m | -2.8m/s | 0.2°C | 45.2% | 688.0hPa | 2.7V | 07:14:00 | 00:00:00 | 00:00:00 | |
| DO3MHA-11 | 2026-09-02 01:52:12 | 48.38081 | 13.45397 | 102° | 38km/h | 3321m | -2.8m/s | 0.2°C | 45.0% | 687.7hPa | 2.7V | 00:00:00 | 03:23:01 | 00:00:00 | |
| OE5MMP-10 | 2026-09-02 01:52:09 | 48.38086 | 13.45353 | 96° | 33km/h | 3329m | -2.9m/s | 0.2°C | 44.6% | 686.9hPa | 2.7V | 00:00:00 | 03:22:58 | 00:00:00 | |
| DO3MHA-11 | 2026-09-02 01:52:07 | 48.38087 | 13.45324 | 91° | 33km/h | 3335m | -2.7m/s | 0.1°C | 44.7% | 686.4hPa | 2.6V | 00:00:00 | 03:22:56 | 00:00:00 | |
| DO3MHA-11 | 2026-09-02 01:52:02 | 48.38086 | 13.45263 | 93° | 27km/h | 3349m | -2.7m/s | 0.1°C | 43.8% | 685.2hPa | 2.7V | 07:14:00 | 03:22:51 | 00:00:00 | |
| OE5DXL-15 | 2026-09-02 01:52:01 | 48.38087 | 13.45253 | 95° | 37km/h | 3352m | -2.9m/s | 0.1°C | 43.7% | 685.0hPa | 2.7V | 00:00:00 | 00:00:00 | 00:00:00 | |
| OE5MMP-10 | 2026-09-02 01:51:59 | 48.38088 | 13.45233 | 101° | 29km/h | 3357m | -2.8m/s | 0.1°C | 43.5% | 684.4hPa | 2.7V | 00:00:00 | 03:22:48 | 00:00:00 | |
| OE5FHM-15 | 2026-09-02 01:51:58 | 48.38090 | 13.45223 | 105° | 38km/h | 3360m | -2.8m/s | 0.1°C | 43.6% | 684.2hPa | 2.7V | 00:00:00 | 03:22:47 | 00:00:00 | |
| DO3MHA-11 | 2026-09-02 01:51:57 | 48.38092 | 13.45214 | 107° | 29km/h | 3363m | -2.9m/s | 0.1°C | 43.7% | 683.9hPa | 2.7V | 00:00:00 | 03:22:46 | 00:00:00 | |
| PG1ADW-2 | 2026-09-02 01:51:54 | 48.38099 | 13.45184 | 114° | 38km/h | 3372m | -2.8m/s | 0.0°C | 43.4% | 683.3hPa | 2.7V | 00:00:00 | 00:00:00 | 00:00:00 | |
| OE5DRO-10 | 2026-09-02 01:51:53 | 48.38102 | 13.45173 | 115° | 37km/h | 3374m | -2.7m/s | 0.0°C | 43.1% | 683.0hPa | 2.6V | 00:00:00 | 00:00:00 | 00:00:00 | |
| DO3MHA-11 | 2026-09-02 01:51:52 | 48.38106 | 13.45162 | 116° | 35km/h | 3377m | -2.8m/s | 0.0°C | 42.6% | 682.8hPa | 2.6V | 00:00:00 | 03:22:41 | 00:00:00 | |
| OE5HKT-10 | 2026-09-02 01:51:50 | 48.38113 | 13.45139 | 116° | 38km/h | 3383m | -2.8m/s | 0.0°C | 42.4% | 682.4hPa | 2.7V | 00:00:00 | 00:00:00 | 00:00:00 | |
| OE5MMP-10 | 2026-09-02 01:51:49 | 48.38117 | 13.45127 | 116° | 38km/h | 3386m | -2.9m/s | 0.0°C | 42.4% | 682.0hPa | 2.6V | 00:00:00 | 03:22:38 | 00:00:00 | |
| DO3MHA-11 | 2026-09-02 01:51:47 | 48.38124 | 13.45101 | 115° | 38km/h | 3392m | -2.9m/s | -0.0°C | 42.5% | 681.5hPa | 2.6V | 00:00:00 | 03:22:36 | 00:00:00 | |
| OE5WHR-10 | 2026-09-02 01:51:45 | 48.38132 | 13.45076 | 115° | 42km/h | 3397m | -2.9m/s | -0.0°C | 42.6% | 681.0hPa | 2.6V | 00:00:00 | 00:00:00 | 00:00:00 | |
| OE5REO-15 | 2026-09-02 01:51:43 | 48.38136 | 13.45063 | 116° | 38km/h | 3400m | -3.0m/s | -0.1°C | 42.1% | 680.9hPa | 2.7V | 07:14:00 | 00:00:00 | 00:00:00 | |
| DO3MHA-11 | 2026-09-02 01:51:42 | 48.38144 | 13.45036 | 115° | 40km/h | 3406m | -2.9m/s | -0.1°C | 42.7% | 680.3hPa | 2.7V | 00:00:00 | 03:22:31 | 00:00:00 | |
| OE5MMP-10 | 2026-09-02 01:51:39 | 48.38156 | 13.44994 | 113° | 44km/h | 3415m | -2.9m/s | -0.1°C | 42.8% | 679.5hPa | 2.7V | 00:00:00 | 03:22:28 | 00:00:00 | |
| DO3MHA-11 | 2026-09-02 01:51:37 | 48.38164 | 13.44964 | 112° | 42km/h | 3421m | -2.8m/s | -0.1°C | 42.7% | 679.1hPa | 2.6V | 00:00:00 | 03:22:26 | 00:00:00 | |
| DG1MFX-10 | 2026-09-02 01:51:36 | 48.38164 | 13.44964 | 112° | 42km/h | 3421m | -2.9m/s | -0.2°C | 42.2% | 679.1hPa | 2.7V | 07:14:00 | 00:00:00 | 00:00:00 | |
| PG1ADW-2 | 2026-09-02 01:51:34 | 48.38176 | 13.44919 | 111° | 42km/h | 3429m | -3.0m/s | -0.2°C | 42.9% | 678.3hPa | 2.7V | 00:00:00 | 03:22:23 | 00:00:00 | |
| OE5HKT-10 | 2026-09-02 01:51:33 | 48.38180 | 13.44904 | 111° | 44km/h | 3432m | -2.9m/s | -0.2°C | 42.9% | 678.1hPa | 2.7V | 00:00:00 | 00:00:00 | 00:00:00 | |
| OE3JTB-15 | 2026-09-02 01:51:31 | 48.38187 | 13.44872 | 110° | 40km/h | 3438m | -2.9m/s | -0.2°C | 43.0% | 677.5hPa | 2.7V | 00:00:00 | 00:00:00 | 00:00:00 | |
| OE5MMP-10 | 2026-09-02 01:51:29 | 48.38195 | 13.44840 | 109° | 46km/h | 3444m | -2.9m/s | -0.2°C | 42.8% | 677.1hPa | 2.7V | 00:00:00 | 03:22:18 | 00:00:00 | |
| OE5FHM-15 | 2026-09-02 01:51:28 | 48.38198 | 13.44823 | 108° | 40km/h | 3447m | -2.9m/s | -0.2°C | 42.6% | 676.8hPa | 2.7V | 00:00:00 | 03:22:17 | 00:00:00 | |
| DO3MHA-11 | 2026-09-02 01:51:27 | 48.38201 | 13.44807 | 106° | 46km/h | 3449m | -3.0m/s | -0.2°C | 42.4% | 676.5hPa | 2.6V | 00:00:00 | 03:22:16 | 00:00:00 | |
| DO3MHA-11 | 2026-09-02 01:51:22 | 48.38213 | 13.44722 | 98° | 42km/h | 3464m | -2.6m/s | -0.3°C | 42.4% | 675.4hPa | 2.6V | 07:14:00 | 03:22:11 | 00:00:00 | |
| OE5DRO-10 | 2026-09-02 01:51:21 | 48.38214 | 13.44705 | 96° | 37km/h | 3466m | -2.8m/s | -0.3°C | 42.3% | 675.3hPa | 2.7V | 00:00:00 | 00:00:00 | 00:00:00 | |
| OE5MMP-10 | 2026-09-02 01:51:19 | 48.38216 | 13.44673 | 94° | 35km/h | 3472m | -2.5m/s | -0.3°C | 42.4% | 674.8hPa | 2.7V | 00:00:00 | 03:22:08 | 00:00:00 | |
| DO3MHA-11 | 2026-09-02 01:51:17 | 48.38217 | 13.44644 | 94° | 35km/h | 3477m | -2.5m/s | -0.4°C | 42.2% | 674.4hPa | 2.7V | 00:00:00 | 03:22:06 | 00:00:00 | |
| OE5HKT-10 | 2026-09-02 01:51:16 | 48.38217 | 13.44631 | 95° | 37km/h | 3480m | -2.8m/s | -0.4°C | 42.2% | 674.2hPa | 2.7V | 07:14:00 | 03:22:05 | 00:00:00 | |
| PG1ADW-2 | 2026-09-02 01:51:14 | 48.38219 | 13.44605 | 98° | 40km/h | 3485m | -2.7m/s | -0.4°C | 42.0% | 673.7hPa | 2.7V | 00:00:00 | 00:00:00 | 00:00:00 | |
| DO3MHA-11 | 2026-09-02 01:51:12 | 48.38222 | 13.44581 | 104° | 35km/h | 3490m | -2.8m/s | -0.4°C | 41.7% | 673.2hPa | 2.7V | 00:00:00 | 03:22:01 | 00:00:00 | |
| OE5WHR-10 | 2026-09-02 01:51:11 | 48.38224 | 13.44569 | 107° | 40km/h | 3493m | -2.5m/s | -0.4°C | 41.6% | 673.0hPa | 2.7V | 00:00:00 | 03:22:00 | 00:00:00 | |
| OE5MMP-10 | 2026-09-02 01:51:09 | 48.38230 | 13.44544 | 111° | 40km/h | 3498m | -2.6m/s | -0.4°C | 41.3% | 672.4hPa | 2.7V | 00:00:00 | 03:21:58 | 00:00:00 | |
| DO3MHA-11 | 2026-09-02 01:51:07 | 48.38236 | 13.44519 | 113° | 40km/h | 3503m | -2.4m/s | -0.4°C | 40.9% | 672.0hPa | 2.6V | 00:00:00 | 03:21:56 | 00:00:00 | |
| OE5DRO-10 | 2026-09-02 01:51:05 | 48.38244 | 13.44492 | 114° | 44km/h | 3509m | -2.5m/s | -0.4°C | 40.5% | 671.5hPa | 2.7V | 00:00:00 | 00:00:00 | 00:00:00 | |
| DO3MHA-11 | 2026-09-02 01:51:02 | 48.38257 | 13.44450 | 115° | 42km/h | 3517m | -2.6m/s | -0.4°C | 39.0% | 670.9hPa | 2.7V | 00:00:00 | 03:21:51 | 00:00:00 | |
| OE5DXL-15 | 2026-09-02 01:51:01 | 48.38261 | 13.44435 | 115° | 46km/h | 3520m | -2.8m/s | -0.4°C | 38.4% | 670.8hPa | 2.7V | 00:00:00 | 00:00:00 | 00:00:00 | |
| OE5MMP-10 | 2026-09-02 01:50:59 | 48.38270 | 13.44406 | 115° | 46km/h | 3525m | -2.9m/s | -0.5°C | 38.1% | 670.1hPa | 2.7V | 07:15:00 | 03:21:48 | 00:00:00 | |
| OE5FHM-15 | 2026-09-02 01:50:58 | 48.38275 | 13.44390 | 115° | 44km/h | 3528m | -2.7m/s | -0.5°C | 37.7% | 670.0hPa | 2.7V | 00:00:00 | 03:21:47 | 00:00:00 | |
| OE5REO-15 | 2026-09-02 01:50:57 | 48.38280 | 13.44375 | 116° | 44km/h | 3531m | -2.7m/s | -0.5°C | 36.8% | 669.9hPa | 2.7V | 07:15:00 | 00:00:00 | 00:00:00 | |
| DG1MFX-10 | 2026-09-02 01:50:56 | 48.38280 | 13.44375 | 116° | 44km/h | 3531m | -2.7m/s | -0.5°C | 36.8% | 669.9hPa | 2.7V | 07:15:00 | 00:00:00 | 00:00:00 | |
| OE5WHR-10 | 2026-09-02 01:50:54 | 48.38294 | 13.44328 | 114° | 47km/h | 3540m | -3.0m/s | -0.5°C | 37.8% | 669.0hPa | 2.7V | 00:00:00 | 00:00:00 | 00:00:00 | |
| DO3MHA-11 | 2026-09-02 01:50:52 | 48.38303 | 13.44295 | 112° | 49km/h | 3545m | -2.9m/s | -0.5°C | 38.2% | 668.6hPa | 2.6V | 00:00:00 | 03:21:41 | 00:00:00 | |
| OE5MMP-10 | 2026-09-02 01:50:49 | 48.38316 | 13.44242 | 108° | 49km/h | 3554m | -2.8m/s | -0.5°C | 38.3% | 667.9hPa | 2.7V | 00:00:00 | 03:21:38 | 00:00:00 | |
| DO3MHA-11 | 2026-09-02 01:50:47 | 48.38323 | 13.44206 | 105° | 51km/h | 3559m | -2.6m/s | -0.6°C | 39.0% | 667.4hPa | 2.7V | 00:00:00 | 03:21:36 | 00:00:00 | |
| DO3MHA-11 | 2026-09-02 01:50:42 | 48.38335 | 13.44112 | 98° | 46km/h | 3573m | -2.7m/s | -0.6°C | 38.6% | 666.3hPa | 2.7V | 07:15:00 | 03:21:31 | 00:00:00 | |
| OE5REO-15 | 2026-09-02 01:50:40 | 48.38336 | 13.44094 | 97° | 47km/h | 3576m | -2.6m/s | -0.6°C | 38.0% | 666.1hPa | 2.7V | 07:15:00 | 00:00:00 | 00:00:00 | |
| OE5MMP-10 | 2026-09-02 01:50:39 | 48.38338 | 13.44059 | 95° | 40km/h | 3581m | -2.6m/s | -0.6°C | 38.9% | 665.6hPa | 2.7V | 00:00:00 | 03:21:28 | 00:00:00 | |
| DO3MHA-11 | 2026-09-02 01:50:37 | 48.38340 | 13.44027 | 95° | 40km/h | 3586m | -2.6m/s | -0.7°C | 38.7% | 665.2hPa | 2.6V | 00:00:00 | 03:21:26 | 00:00:00 | |
| DG1MFX-10 | 2026-09-02 01:50:35 | 48.38341 | 13.44011 | 96° | 40km/h | 3589m | -2.7m/s | -0.7°C | 38.1% | 665.0hPa | 2.7V | 00:00:00 | 00:00:00 | 00:00:00 | |
| PG1ADW-2 | 2026-09-02 01:50:34 | 48.38344 | 13.43967 | 97° | 37km/h | 3597m | -2.8m/s | -0.7°C | 39.1% | 664.3hPa | 2.7V | 00:00:00 | 00:00:00 | 00:00:00 | |
| OE3JTB-15 | 2026-09-02 01:50:33 | 48.38344 | 13.43967 | 97° | 40km/h | 3597m | -2.8m/s | -0.7°C | 39.1% | 664.3hPa | 2.7V | 00:00:00 | 03:21:22 | 00:00:00 | |
| DO3MHA-11 | 2026-09-02 01:50:32 | 48.38345 | 13.43953 | 98° | 35km/h | 3600m | -2.8m/s | -0.8°C | 39.2% | 664.2hPa | 2.7V | 00:00:00 | 03:21:21 | 00:00:00 | |
| OE5DXL-15 | 2026-09-02 01:50:31 | 48.38347 | 13.43940 | 99° | 40km/h | 3603m | -2.6m/s | -0.8°C | 39.1% | 663.8hPa | 2.7V | 00:00:00 | 00:00:00 | 00:00:00 | |
| OE5MMP-10 | 2026-09-02 01:50:29 | 48.38350 | 13.43913 | 102° | 35km/h | 3609m | -2.8m/s | -0.8°C | 38.8% | 663.4hPa | 2.6V | 00:00:00 | 03:21:18 | 00:00:00 | |
| OE5FHM-15 | 2026-09-02 01:50:28 | 48.38352 | 13.43900 | 104° | 42km/h | 3611m | -2.8m/s | -0.8°C | 38.3% | 663.2hPa | 2.6V | 00:00:00 | 03:21:17 | 00:00:00 | |
| DO3MHA-11 | 2026-09-02 01:50:27 | 48.38354 | 13.43887 | 105° | 35km/h | 3614m | -2.7m/s | -0.8°C | 37.5% | 662.9hPa | 2.6V | 00:00:00 | 03:21:16 | 00:00:00 | |
| OE5HKT-10 | 2026-09-02 01:50:25 | 48.38359 | 13.43862 | 108° | 40km/h | 3620m | -2.6m/s | -0.9°C | 38.5% | 662.4hPa | 2.6V | 00:00:00 | 03:21:14 | 00:00:00 | |
| OE5REO-15 | 2026-09-02 01:50:24 | 48.38359 | 13.43862 | 108° | 35km/h | 3620m | -2.6m/s | -0.9°C | 38.0% | 662.4hPa | 2.6V | 07:16:00 | 00:00:00 | 00:00:00 | |
| DO3MHA-11 | 2026-09-02 01:50:22 | 48.38368 | 13.43825 | 113° | 37km/h | 3628m | -2.8m/s | -1.0°C | 38.9% | 661.7hPa | 2.6V | 00:00:00 | 03:21:11 | 00:00:00 | |
| OE5WHR-10 | 2026-09-02 01:50:20 | 48.38375 | 13.43800 | 115° | 44km/h | 3634m | -2.7m/s | -1.0°C | 38.8% | 661.1hPa | 2.6V | 00:00:00 | 03:21:09 | 00:00:00 | |
| OE5MMP-10 | 2026-09-02 01:50:19 | 48.38379 | 13.43787 | 116° | 42km/h | 3636m | -2.7m/s | -1.0°C | 38.1% | 661.0hPa | 2.6V | 00:00:00 | 03:21:08 | 00:00:00 | |
| DO3MHA-11 | 2026-09-02 01:50:17 | 48.38387 | 13.43762 | 118° | 40km/h | 3642m | -2.6m/s | -1.0°C | 35.5% | 660.5hPa | 2.6V | 00:00:00 | 03:21:06 | 00:00:00 | |
| DG1MFX-10 | 2026-09-02 01:50:15 | 48.38391 | 13.43749 | 119° | 38km/h | 3644m | -2.6m/s | -1.0°C | 34.0% | 660.3hPa | 2.6V | 00:00:00 | 00:00:00 | 00:00:00 | |
| PG1ADW-2 | 2026-09-02 01:50:14 | 48.38401 | 13.43721 | 119° | 47km/h | 3650m | -2.7m/s | -1.0°C | 33.1% | 659.9hPa | 2.6V | 00:00:00 | 03:21:03 | 00:00:00 | |
| DO3MHA-11 | 2026-09-02 01:50:12 | 48.38412 | 13.43692 | 118° | 46km/h | 3655m | -2.8m/s | -1.1°C | 32.7% | 659.5hPa | 2.6V | 00:00:00 | 03:21:01 | 00:00:00 | |
| OE5MMP-10 | 2026-09-02 01:50:09 | 48.38428 | 13.43646 | 117° | 49km/h | 3664m | -2.6m/s | -1.1°C | 32.1% | 658.8hPa | 2.6V | 00:00:00 | 03:20:58 | 00:00:00 | |
| OE5HKT-10 | 2026-09-02 01:50:08 | 48.38433 | 13.43629 | 115° | 46km/h | 3666m | -2.6m/s | -1.1°C | 32.0% | 658.4hPa | 2.6V | 00:00:00 | 00:00:00 | 00:00:00 | |
| DO3MHA-11 | 2026-09-02 01:50:07 | 48.38438 | 13.43613 | 114° | 49km/h | 3669m | -2.6m/s | -1.2°C | 32.0% | 658.2hPa | 2.7V | 00:00:00 | 03:20:56 | 00:00:00 | |
| OE3JTB-15 | 2026-09-02 01:50:04 | 48.38452 | 13.43560 | 110° | 42km/h | 3677m | -2.7m/s | -1.2°C | 32.1% | 657.6hPa | 2.7V | 00:00:00 | 00:00:00 | 00:00:00 | |
| OE5WHR-10 | 2026-09-02 01:50:03 | 48.38456 | 13.43542 | 109° | 42km/h | 3680m | -2.8m/s | -1.2°C | 32.2% | 657.3hPa | 2.7V | 00:00:00 | 00:00:00 | 00:00:00 | |
| DO3MHA-11 | 2026-09-02 01:50:02 | 48.38460 | 13.43524 | 107° | 47km/h | 3683m | -2.9m/s | -1.3°C | 32.4% | 657.1hPa | 2.7V | 07:16:00 | 03:20:51 | 00:00:00 | |
| OE5DXL-15 | 2026-09-02 01:50:01 | 48.38463 | 13.43506 | 106° | 42km/h | 3686m | -2.8m/s | -1.3°C | 32.5% | 656.9hPa | 2.7V | 00:00:00 | 00:00:00 | 00:00:00 | |
| OE5MMP-10 | 2026-09-02 01:49:59 | 48.38469 | 13.43470 | 102° | 42km/h | 3691m | -2.8m/s | -1.3°C | 32.6% | 656.4hPa | 2.7V | 00:00:00 | 03:20:48 | 00:00:00 | |
| OE5FHM-15 | 2026-09-02 01:49:58 | 48.38471 | 13.43453 | 101° | 42km/h | 3694m | -2.8m/s | -1.4°C | 32.8% | 656.2hPa | 2.7V | 00:00:00 | 03:20:47 | 00:00:00 | |
| DO3MHA-11 | 2026-09-02 01:49:57 | 48.38473 | 13.43435 | 100° | 42km/h | 3697m | -2.8m/s | -1.4°C | 32.8% | 656.0hPa | 2.6V | 00:00:00 | 03:20:46 | 00:00:00 | |
| PG1ADW-2 | 2026-09-02 01:49:54 | 48.38478 | 13.43386 | 98° | 40km/h | 3705m | -2.7m/s | -1.4°C | 33.2% | 655.3hPa | 2.6V | 00:00:00 | 00:00:00 | 00:00:00 | |
| DO3MHA-11 | 2026-09-02 01:49:52 | 48.38481 | 13.43356 | 99° | 37km/h | 3711m | -2.6m/s | -1.4°C | 33.8% | 654.8hPa | 2.7V | 00:00:00 | 03:20:41 | 00:00:00 | |
| OE5HKT-10 | 2026-09-02 01:49:51 | 48.38482 | 13.43342 | 101° | 40km/h | 3714m | -2.8m/s | -1.4°C | 34.1% | 654.6hPa | 2.7V | 00:00:00 | 00:00:00 | 00:00:00 | |
| OE5MMP-10 | 2026-09-02 01:49:49 | 48.38486 | 13.43316 | 106° | 38km/h | 3719m | -2.6m/s | -1.5°C | 33.6% | 654.2hPa | 2.7V | 00:00:00 | 03:20:38 | 00:00:00 | |
| DO3MHA-11 | 2026-09-02 01:49:47 | 48.38492 | 13.43291 | 113° | 37km/h | 3725m | -2.8m/s | -1.5°C | 33.8% | 653.7hPa | 2.7V | 00:00:00 | 03:20:36 | 00:00:00 | |
| OE5WHR-10 | 2026-09-02 01:49:46 | 48.38495 | 13.43279 | 115° | 44km/h | 3727m | -2.6m/s | -1.5°C | 33.9% | 653.5hPa | 2.7V | 00:00:00 | 00:00:00 | 00:00:00 | |
| OE5DRO-10 | 2026-09-02 01:49:45 | 48.38499 | 13.43266 | 117° | 44km/h | 3730m | -2.6m/s | -1.6°C | 34.1% | 653.3hPa | 2.7V | 00:00:00 | 00:00:00 | 00:00:00 | |
| DO3MHA-11 | 2026-09-02 01:49:42 | 48.38513 | 13.43228 | 119° | 42km/h | 3737m | -2.8m/s | -1.6°C | 33.8% | 652.7hPa | 2.7V | 00:00:00 | 03:20:31 | 00:00:00 | |
| OE5MMP-10 | 2026-09-02 01:49:39 | 48.38528 | 13.43186 | 119° | 47km/h | 3746m | -2.4m/s | -1.7°C | 34.0% | 652.0hPa | 2.7V | 07:16:00 | 03:20:28 | 00:00:00 | |
| OE5REO-15 | 2026-09-02 01:49:38 | 48.38528 | 13.43186 | 120° | 44km/h | 3746m | -2.5m/s | -1.7°C | 33.5% | 652.0hPa | 2.7V | 07:17:00 | 00:00:00 | 00:00:00 | |
| DO3MHA-11 | 2026-09-02 01:49:37 | 48.38539 | 13.43156 | 118° | 47km/h | 3751m | -2.7m/s | -1.7°C | 33.7% | 651.5hPa | 2.7V | 00:00:00 | 03:20:26 | 00:00:00 | |
| OE3JTB-15 | 2026-09-02 01:49:35 | 48.38549 | 13.43125 | 117° | 44km/h | 3757m | -2.8m/s | -1.7°C | 33.9% | 651.2hPa | 2.7V | 00:00:00 | 00:00:00 | 00:00:00 | |
| PG1ADW-2 | 2026-09-02 01:49:34 | 48.38555 | 13.43109 | 115° | 46km/h | 3759m | -2.6m/s | -1.8°C | 34.0% | 650.8hPa | 2.7V | 07:16:00 | 00:00:00 | 00:00:00 | |
| DO3MHA-11 | 2026-09-02 01:49:32 | 48.38564 | 13.43075 | 112° | 49km/h | 3765m | -2.5m/s | -1.8°C | 34.0% | 650.4hPa | 2.7V | 00:00:00 | 03:20:21 | 00:00:00 | |
| OE5DXL-15 | 2026-09-02 01:49:31 | 48.38569 | 13.43057 | 110° | 40km/h | 3768m | -2.6m/s | -1.8°C | 34.3% | 650.2hPa | 2.7V | 00:00:00 | 00:00:00 | 00:00:00 | |
| OE5FHM-15 | 2026-09-02 01:49:28 | 48.38580 | 13.43003 | 106° | 40km/h | 3776m | -2.6m/s | -1.9°C | 34.6% | 649.5hPa | 2.7V | 00:00:00 | 03:20:17 | 00:00:00 | |
| DO3MHA-11 | 2026-09-02 01:49:27 | 48.38583 | 13.42985 | 104° | 47km/h | 3778m | -2.7m/s | -1.9°C | 34.6% | 649.3hPa | 2.7V | 00:00:00 | 03:20:16 | 00:00:00 | |
| DO3MHA-11 | 2026-09-02 01:49:22 | 48.38594 | 13.42897 | 99° | 44km/h | 3792m | -2.7m/s | -2.0°C | 35.2% | 648.2hPa | 2.7V | 07:16:00 | 03:20:11 | 00:00:00 | |
| OE5MMP-10 | 2026-09-02 01:49:19 | 48.38599 | 13.42847 | 97° | 38km/h | 3800m | -2.8m/s | -2.1°C | 35.4% | 647.5hPa | 2.6V | 00:00:00 | 03:20:08 | 00:00:00 | |
| DO3MHA-11 | 2026-09-02 01:49:17 | 48.38601 | 13.42814 | 97° | 38km/h | 3805m | -2.8m/s | -2.1°C | 35.4% | 647.1hPa | 2.6V | 00:00:00 | 03:20:06 | 00:00:00 | |
| PG1ADW-2 | 2026-09-02 01:49:14 | 48.38604 | 13.42769 | 97° | 37km/h | 3814m | -2.8m/s | -2.2°C | 36.5% | 646.4hPa | 2.6V | 00:00:00 | 00:00:00 | 00:00:00 | |
| OE5DRO-10 | 2026-09-02 01:49:13 | 48.38605 | 13.42756 | 99° | 35km/h | 3816m | -2.7m/s | -2.2°C | 36.6% | 646.2hPa | 2.6V | 00:00:00 | 00:00:00 | 00:00:00 | |
| DO3MHA-11 | 2026-09-02 01:49:12 | 48.38607 | 13.42742 | 101° | 35km/h | 3819m | -2.6m/s | -2.2°C | 36.5% | 646.0hPa | 2.7V | 00:00:00 | 03:20:01 | 00:00:00 | |
| OE5MMP-10 | 2026-09-02 01:49:09 | 48.38612 | 13.42704 | 107° | 35km/h | 3827m | -2.7m/s | -2.3°C | 37.1% | 645.2hPa | 2.7V | 00:00:00 | 03:19:58 | 00:00:00 | |
| DO3MHA-11 | 2026-09-02 01:49:07 | 48.38618 | 13.42680 | 109° | 33km/h | 3833m | -2.8m/s | -2.3°C | 37.7% | 644.9hPa | 2.7V | 00:00:00 | 03:19:56 | 00:00:00 | |
| OE3JTB-15 | 2026-09-02 01:49:06 | 48.38620 | 13.42669 | 112° | 42km/h | 3835m | -2.7m/s | -2.3°C | 37.2% | 644.6hPa | 2.7V | 00:00:00 | 03:19:55 | 00:00:00 | |
| DO3MHA-11 | 2026-09-02 01:49:02 | 48.38635 | 13.42622 | 118° | 37km/h | 3847m | -2.9m/s | -2.4°C | 33.7% | 643.8hPa | 2.7V | 00:00:00 | 03:19:51 | 00:00:00 | |
| OE5DXL-15 | 2026-09-02 01:49:01 | 48.38639 | 13.42610 | 119° | 42km/h | 3850m | -2.7m/s | -2.4°C | 34.0% | 643.5hPa | 2.7V | 00:00:00 | 00:00:00 | 00:00:00 | |
| OE5HKT-10 | 2026-09-02 01:49:00 | 48.38643 | 13.42597 | 120° | 46km/h | 3853m | -2.9m/s | -2.4°C | 33.9% | 643.4hPa | 2.7V | 07:17:00 | 00:00:00 | 00:00:00 | |
| OE5MMP-10 | 2026-09-02 01:48:59 | 48.38648 | 13.42585 | 120° | 44km/h | 3856m | -2.7m/s | -2.4°C | 33.8% | 642.9hPa | 2.7V | 00:00:00 | 03:19:48 | 00:00:00 | |
| OE5FHM-15 | 2026-09-02 01:48:58 | 48.38653 | 13.42573 | 120° | 42km/h | 3858m | -2.8m/s | -2.5°C | 33.1% | 642.8hPa | 2.7V | 07:17:00 | 03:19:47 | 00:00:00 | |
| DO3MHA-11 | 2026-09-02 01:48:57 | 48.38658 | 13.42559 | 120° | 44km/h | 3862m | -2.9m/s | -2.5°C | 32.0% | 642.4hPa | 2.7V | 00:00:00 | 03:19:46 | 00:00:00 | |
| OE5WHR-10 | 2026-09-02 01:48:55 | 48.38668 | 13.42531 | 119° | 46km/h | 3867m | -2.8m/s | -2.5°C | 30.3% | 642.1hPa | 2.7V | 00:00:00 | 00:00:00 | 00:00:00 | |
| PG1ADW-2 | 2026-09-02 01:48:54 | 48.38674 | 13.42516 | 118° | 44km/h | 3870m | -2.9m/s | -2.5°C | 29.4% | 641.8hPa | 2.7V | 00:00:00 | 03:19:43 | 00:00:00 | |
| DO3MHA-11 | 2026-09-02 01:48:52 | 48.38684 | 13.42483 | 114° | 49km/h | 3876m | -2.7m/s | -2.5°C | 29.6% | 641.4hPa | 2.6V | 00:00:00 | 03:19:41 | 00:00:00 | |
| OE5REO-15 | 2026-09-02 01:48:51 | 48.38684 | 13.42483 | 115° | 49km/h | 3876m | -2.8m/s | -2.5°C | 29.1% | 641.4hPa | 2.6V | 07:18:00 | 00:00:00 | 00:00:00 | |
| OE5MMP-10 | 2026-09-02 01:48:49 | 48.38698 | 13.42430 | 109° | 47km/h | 3884m | -2.7m/s | -2.5°C | 28.9% | 640.8hPa | 2.6V | 00:00:00 | 03:19:38 | 00:00:00 | |
| DO3MHA-11 | 2026-09-02 01:48:47 | 48.38706 | 13.42394 | 106° | 47km/h | 3889m | -2.7m/s | -2.6°C | 27.5% | 640.2hPa | 2.6V | 00:00:00 | 03:19:36 | 00:00:00 | |
| OE5HKT-10 | 2026-09-02 01:48:43 | 48.38716 | 13.42322 | 100° | 37km/h | 3901m | -2.8m/s | -2.6°C | 23.4% | 639.3hPa | 2.6V | 00:00:00 | 03:19:32 | 00:00:00 | |
| DO3MHA-11 | 2026-09-02 01:48:42 | 48.38717 | 13.42305 | 99° | 40km/h | 3903m | -2.7m/s | -2.6°C | 23.2% | 639.2hPa | 2.6V | 07:17:00 | 03:19:31 | 00:00:00 | |
| OE5DRO-10 | 2026-09-02 01:48:41 | 48.38719 | 13.42289 | 99° | 37km/h | 3906m | -2.7m/s | -2.6°C | 23.0% | 638.9hPa | 2.6V | 07:17:00 | 00:00:00 | 00:00:00 | |
| OE5MMP-10 | 2026-09-02 01:48:39 | 48.38722 | 13.42260 | 102° | 35km/h | 3911m | -2.7m/s | -2.6°C | 22.7% | 638.6hPa | 2.6V | 00:00:00 | 03:19:28 | 00:00:00 | |
| OE5WHR-10 | 2026-09-02 01:48:38 | 48.38724 | 13.42246 | 104° | 38km/h | 3914m | -2.6m/s | -2.6°C | 22.6% | 638.2hPa | 2.7V | 00:00:00 | 03:19:27 | 00:00:00 | |
| DO3MHA-11 | 2026-09-02 01:48:37 | 48.38726 | 13.42233 | 106° | 35km/h | 3917m | -2.7m/s | -2.6°C | 22.5% | 638.1hPa | 2.7V | 00:00:00 | 03:19:26 | 00:00:00 | |
| OE5REO-15 | 2026-09-02 01:48:36 | 48.38726 | 13.42233 | 107° | 35km/h | 3917m | -2.8m/s | -2.7°C | 22.1% | 638.1hPa | 2.7V | 07:18:00 | 00:00:00 | 00:00:00 | |
| PG1ADW-2 | 2026-09-02 01:48:34 | 48.38735 | 13.42196 | 113° | 42km/h | 3926m | -2.8m/s | -2.7°C | 23.3% | 637.3hPa | 2.7V | 00:00:00 | 00:00:00 | 00:00:00 | |
| DO3MHA-11 | 2026-09-02 01:48:32 | 48.38742 | 13.42172 | 117° | 37km/h | 3931m | -2.9m/s | -2.7°C | 24.7% | 636.9hPa | 2.7V | 00:00:00 | 03:19:21 | 00:00:00 | |
| OE5DXL-15 | 2026-09-02 01:48:31 | 48.38746 | 13.42160 | 118° | 46km/h | 3934m | -3.0m/s | -2.7°C | 26.4% | 636.6hPa | 2.7V | 00:00:00 | 00:00:00 | 00:00:00 | |
| OE5MMP-10 | 2026-09-02 01:48:29 | 48.38755 | 13.42136 | 121° | 42km/h | 3940m | -3.1m/s | -2.8°C | 27.1% | 636.2hPa | 2.7V | 00:00:00 | 03:19:18 | 00:00:00 | |
| OE5FHM-15 | 2026-09-02 01:48:28 | 48.38760 | 13.42124 | 122° | 46km/h | 3943m | -3.0m/s | -2.7°C | 27.6% | 635.8hPa | 2.7V | 00:00:00 | 03:19:17 | 00:00:00 | |
| DO3MHA-11 | 2026-09-02 01:48:27 | 48.38765 | 13.42112 | 122° | 42km/h | 3946m | -2.9m/s | -2.7°C | 28.1% | 635.8hPa | 2.6V | 00:00:00 | 03:19:16 | 00:00:00 | |
| OE5HKT-10 | 2026-09-02 01:48:26 | 48.38770 | 13.42099 | 122° | 47km/h | 3949m | -2.9m/s | -2.8°C | 28.2% | 635.5hPa | 2.6V | 00:00:00 | 00:00:00 | 00:00:00 | |
| OE5DRO-10 | 2026-09-02 01:48:25 | 48.38776 | 13.42086 | 122° | 49km/h | 3952m | -2.8m/s | -2.8°C | 28.3% | 635.1hPa | 2.6V | 00:00:00 | 00:00:00 | 00:00:00 | |
| DO3MHA-11 | 2026-09-02 01:48:22 | 48.38793 | 13.42043 | 122° | 47km/h | 3961m | -2.7m/s | -2.8°C | 27.4% | 634.5hPa | 2.7V | 00:00:00 | 03:19:11 | 00:00:00 | |
| OE5WHR-10 | 2026-09-02 01:48:21 | 48.38799 | 13.42028 | 121° | 49km/h | 3964m | -2.8m/s | -2.8°C | 25.8% | 634.2hPa | 2.7V | 07:17:00 | 00:00:00 | 00:00:00 | |
| OE5REO-15 | 2026-09-02 01:48:20 | 48.38800 | 13.42028 | 122° | 47km/h | 3964m | -2.9m/s | -2.9°C | 25.4% | 634.2hPa | 2.7V | 07:18:00 | 00:00:00 | 00:00:00 | |
| OE5MMP-10 | 2026-09-02 01:48:19 | 48.38812 | 13.41996 | 119° | 51km/h | 3970m | -3.0m/s | -2.8°C | 21.1% | 633.8hPa | 2.7V | 07:17:00 | 03:19:08 | 00:00:00 | |
| DO3MHA-11 | 2026-09-02 01:48:17 | 48.38823 | 13.41962 | 117° | 51km/h | 3976m | -2.9m/s | -2.8°C | 20.0% | 633.3hPa | 2.7V | 00:00:00 | 03:19:06 | 00:00:00 | |
| PG1ADW-2 | 2026-09-02 01:48:14 | 48.38840 | 13.41909 | 112° | 44km/h | 3984m | -2.7m/s | -2.8°C | 20.0% | 632.5hPa | 2.7V | 00:00:00 | 00:00:00 | 00:00:00 | |
| DO3MHA-11 | 2026-09-02 01:48:12 | 48.38848 | 13.41872 | 108° | 49km/h | 3990m | -2.8m/s | -2.8°C | 19.3% | 632.2hPa | 2.7V | 00:00:00 | 03:19:01 | 00:00:00 | |
| OE5MMP-10 | 2026-09-02 01:48:09 | 48.38859 | 13.41818 | 106° | 44km/h | 3999m | -2.9m/s | -2.8°C | 16.7% | 631.5hPa | 2.7V | 00:00:00 | 03:18:58 | 00:00:00 | |
| OE3JTB-15 | 2026-09-02 01:48:08 | 48.38862 | 13.41801 | 105° | 44km/h | 4002m | -2.9m/s | -2.9°C | 16.9% | 631.3hPa | 2.7V | 00:00:00 | 00:00:00 | 00:00:00 | |
| DO3MHA-11 | 2026-09-02 01:48:07 | 48.38865 | 13.41783 | 104° | 44km/h | 4005m | -2.9m/s | -2.9°C | 16.9% | 631.0hPa | 2.7V | 00:00:00 | 03:18:56 | 00:00:00 | |
| OE5WHR-10 | 2026-09-02 01:48:04 | 48.38872 | 13.41733 | 103° | 40km/h | 4013m | -2.8m/s | -2.9°C | 17.4% | 630.4hPa | 2.7V | 00:00:00 | 00:00:00 | 00:00:00 | |
| DO3MHA-11 | 2026-09-02 01:48:02 | 48.38877 | 13.41703 | 104° | 37km/h | 4019m | -2.8m/s | -3.0°C | 17.5% | 629.8hPa | 2.7V | 07:18:00 | 03:18:51 | 00:00:00 | |
| OE5DXL-15 | 2026-09-02 01:48:01 | 48.38879 | 13.41689 | 106° | 47km/h | 4022m | -2.8m/s | -3.0°C | 17.9% | 629.6hPa | 2.7V | 00:00:00 | 00:00:00 | 00:00:00 | |
| OE5MMP-10 | 2026-09-02 01:47:59 | 48.38885 | 13.41662 | 110° | 38km/h | 4028m | -2.9m/s | -3.0°C | 18.7% | 629.2hPa | 2.7V | 00:00:00 | 03:18:48 | 00:00:00 | |
| OE5FHM-15 | 2026-09-02 01:47:58 | 48.38888 | 13.41649 | 112° | 47km/h | 4031m | -2.9m/s | -3.1°C | 19.5% | 629.0hPa | 2.7V | 00:00:00 | 03:18:47 | 00:00:00 | |
| DO3MHA-11 | 2026-09-02 01:47:57 | 48.38892 | 13.41636 | 114° | 37km/h | 4033m | -2.9m/s | -3.1°C | 19.7% | 628.7hPa | 2.7V | 00:00:00 | 03:18:46 | 00:00:00 | |
| PG1ADW-2 | 2026-09-02 01:47:54 | 48.38904 | 13.41599 | 121° | 49km/h | 4042m | -2.8m/s | -3.2°C | 20.2% | 628.0hPa | 2.7V | 00:00:00 | 00:00:00 | 00:00:00 | |
| OE5DRO-10 | 2026-09-02 01:47:53 | 48.38909 | 13.41586 | 122° | 49km/h | 4045m | -2.7m/s | -3.2°C | 20.4% | 627.8hPa | 2.6V | 00:00:00 | 00:00:00 | 00:00:00 | |
| DO3MHA-11 | 2026-09-02 01:47:52 | 48.38914 | 13.41573 | 123° | 46km/h | 4048m | -2.8m/s | -3.2°C | 20.4% | 627.6hPa | 2.6V | 00:00:00 | 03:18:41 | 00:00:00 | |
| OE5MMP-10 | 2026-09-02 01:47:49 | 48.38933 | 13.41531 | 123° | 51km/h | 4056m | -2.7m/s | -3.3°C | 20.3% | 626.9hPa | 2.6V | 00:00:00 | 03:18:38 | 00:00:00 | |
| OE5WHR-10 | 2026-09-02 01:47:47 | 48.38946 | 13.41500 | 122° | 53km/h | 4062m | -2.8m/s | -3.4°C | 20.5% | 626.4hPa | 2.6V | 00:00:00 | 03:18:36 | 00:00:00 | |
| DO3MHA-11 | 2026-09-02 01:47:42 | 48.38978 | 13.41414 | 117° | 55km/h | 4078m | -2.9m/s | -3.5°C | 21.2% | 625.2hPa | 2.6V | 00:00:00 | 03:18:31 | 00:00:00 | |
| OE5MMP-10 | 2026-09-02 01:47:39 | 48.38996 | 13.41358 | 115° | 53km/h | 4087m | -3.2m/s | -3.6°C | 21.9% | 624.5hPa | 2.6V | 00:00:00 | 03:18:28 | 00:00:00 | |
| DO3MHA-11 | 2026-09-02 01:47:37 | 48.39007 | 13.41320 | 112° | 55km/h | 4094m | -3.2m/s | -3.6°C | 22.2% | 623.9hPa | 2.7V | 00:00:00 | 03:18:26 | 00:00:00 | |
| OE5HKT-10 | 2026-09-02 01:47:35 | 48.39016 | 13.41282 | 109° | 46km/h | 4100m | -2.9m/s | -3.6°C | 22.2% | 623.5hPa | 2.7V | 00:00:00 | 00:00:00 | 00:00:00 | |
| PG1ADW-2 | 2026-09-02 01:47:34 | 48.39021 | 13.41262 | 108° | 47km/h | 4103m | -3.2m/s | -3.6°C | 22.2% | 623.2hPa | 2.7V | 00:00:00 | 03:18:23 | 00:00:00 | |
| OE5REO-15 | 2026-09-02 01:47:33 | 48.39021 | 13.41262 | 108° | 53km/h | 4103m | -3.2m/s | -3.7°C | 21.8% | 623.2hPa | 2.7V | 07:19:00 | 00:00:00 | 00:00:00 | |
| DO3MHA-11 | 2026-09-02 01:47:32 | 48.39028 | 13.41223 | 105° | 49km/h | 4109m | -3.1m/s | -3.7°C | 22.0% | 622.9hPa | 2.7V | 00:00:00 | 03:18:21 | 00:00:00 | |
| OE5WHR-10 | 2026-09-02 01:47:30 | 48.39034 | 13.41185 | 103° | 46km/h | 4116m | -2.9m/s | -3.8°C | 22.1% | 622.2hPa | 2.7V | 00:00:00 | 00:00:00 | 00:00:00 | |
| OE5MMP-10 | 2026-09-02 01:47:29 | 48.39036 | 13.41167 | 102° | 42km/h | 4118m | -3.0m/s | -3.8°C | 22.1% | 622.0hPa | 2.6V | 00:00:00 | 03:18:18 | 00:00:00 | |
| OE5DXL-15 | 2026-09-02 01:47:28 | 48.39038 | 13.41149 | 101° | 51km/h | 4122m | -3.0m/s | -3.8°C | 22.1% | 621.7hPa | 2.6V | 07:18:00 | 00:00:00 | 00:00:00 | |
| DO3MHA-11 | 2026-09-02 01:47:27 | 48.39041 | 13.41132 | 102° | 40km/h | 4125m | -2.9m/s | -3.9°C | 22.2% | 621.5hPa | 2.7V | 00:00:00 | 03:18:16 | 00:00:00 | |
| OE5DRO-10 | 2026-09-02 01:47:21 | 48.39061 | 13.41045 | 119° | 51km/h | 4141m | -2.6m/s | -4.0°C | 22.3% | 620.1hPa | 2.7V | 00:00:00 | 00:00:00 | 00:00:00 | |
| OE5MMP-10 | 2026-09-02 01:47:19 | 48.39073 | 13.41015 | 121° | 51km/h | 4147m | -2.8m/s | -4.1°C | 22.3% | 619.7hPa | 2.7V | 00:00:00 | 03:18:08 | 00:00:00 | |
| OE5HKT-10 | 2026-09-02 01:47:18 | 48.39079 | 13.40999 | 121° | 55km/h | 4150m | -2.7m/s | -4.1°C | 22.4% | 619.5hPa | 2.7V | 00:00:00 | 00:00:00 | 00:00:00 | |
| DO3MHA-11 | 2026-09-02 01:47:17 | 48.39085 | 13.40984 | 121° | 51km/h | 4153m | -2.8m/s | -4.1°C | 22.5% | 619.2hPa | 2.7V | 00:00:00 | 03:18:06 | 00:00:00 | |
| PG1ADW-2 | 2026-09-02 01:47:14 | 48.39104 | 13.40934 | 120° | 55km/h | 4162m | -3.2m/s | -4.2°C | 26.6% | 618.5hPa | 2.7V | 00:00:00 | 00:00:00 | 00:00:00 | |
| OE5WHR-10 | 2026-09-02 01:47:13 | 48.39111 | 13.40917 | 120° | 57km/h | 4165m | -3.1m/s | -4.2°C | 27.2% | 618.4hPa | 2.7V | 00:00:00 | 00:00:00 | 00:00:00 | |
| DO3MHA-11 | 2026-09-02 01:47:12 | 48.39117 | 13.40899 | 119° | 55km/h | 4168m | -2.9m/s | -4.2°C | 28.1% | 618.1hPa | 2.7V | 00:00:00 | 03:18:01 | 00:00:00 | |
| OE3JTB-15 | 2026-09-02 01:47:10 | 48.39130 | 13.40862 | 117° | 51km/h | 4174m | -2.8m/s | -4.3°C | 34.0% | 617.6hPa | 2.7V | 00:00:00 | 00:00:00 | 00:00:00 | |
| OE5MMP-10 | 2026-09-02 01:47:09 | 48.39136 | 13.40842 | 116° | 57km/h | 4177m | -3.1m/s | -4.3°C | 37.4% | 617.4hPa | 2.6V | 00:00:00 | 03:17:58 | 00:00:00 | |
| DO3MHA-11 | 2026-09-02 01:47:07 | 48.39148 | 13.40803 | 113° | 58km/h | 4183m | -3.0m/s | -4.4°C | 39.4% | 616.9hPa | 2.7V | 00:00:00 | 03:17:56 | 00:00:00 | |
| OE5DRO-10 | 2026-09-02 01:47:05 | 48.39158 | 13.40762 | 111° | 51km/h | 4189m | -3.1m/s | -4.5°C | 40.4% | 616.4hPa | 2.7V | 00:00:00 | 00:00:00 | 00:00:00 | |
| DO3MHA-11 | 2026-09-02 01:47:02 | 48.39173 | 13.40699 | 107° | 57km/h | 4199m | -3.2m/s | -4.5°C | 41.5% | 615.6hPa | 2.7V | 00:00:00 | 03:17:51 | 00:00:00 | |
| OE5HKT-10 | 2026-09-02 01:47:01 | 48.39177 | 13.40678 | 106° | 47km/h | 4202m | -3.1m/s | -4.6°C | 42.1% | 615.4hPa | 2.7V | 00:00:00 | 03:17:50 | 00:00:00 | |
| OE5MMP-10 | 2026-09-02 01:46:59 | 48.39183 | 13.40637 | 103° | 47km/h | 4208m | -3.0m/s | -4.6°C | 42.2% | 615.0hPa | 2.7V | 07:19:00 | 03:17:48 | 00:00:00 | |
| OE5DXL-15 | 2026-09-02 01:46:58 | 48.39186 | 13.40617 | 101° | 51km/h | 4211m | -3.0m/s | -4.7°C | 42.4% | 614.7hPa | 2.7V | 00:00:00 | 00:00:00 | 00:00:00 | |
| DO3MHA-11 | 2026-09-02 01:46:57 | 48.39188 | 13.40597 | 100° | 47km/h | 4215m | -3.0m/s | -4.7°C | 42.4% | 614.5hPa | 2.7V | 00:00:00 | 03:17:46 | 00:00:00 | |
| OE5WHR-10 | 2026-09-02 01:46:56 | 48.39190 | 13.40578 | 100° | 47km/h | 4218m | -2.7m/s | -4.7°C | 42.6% | 614.2hPa | 2.7V | 00:00:00 | 03:17:45 | 00:00:00 | |
| PG1ADW-2 | 2026-09-02 01:46:54 | 48.39195 | 13.40542 | 102° | 49km/h | 4223m | -2.8m/s | -4.8°C | 42.6% | 613.9hPa | 2.7V | 07:19:00 | 00:00:00 | 00:00:00 | |
| DO3MHA-11 | 2026-09-02 01:46:52 | 48.39200 | 13.40509 | 107° | 44km/h | 4229m | -2.9m/s | -4.8°C | 43.0% | 613.4hPa | 2.7V | 00:00:00 | 03:17:41 | 00:00:00 | |
| OE5MMP-10 | 2026-09-02 01:46:49 | 48.39211 | 13.40463 | 113° | 47km/h | 4238m | -2.7m/s | -4.9°C | 43.6% | 612.7hPa | 2.6V | 00:00:00 | 03:17:38 | 00:00:00 | |
| DO3MHA-11 | 2026-09-02 01:46:47 | 48.39220 | 13.40432 | 115° | 47km/h | 4243m | -2.8m/s | -5.0°C | 43.9% | 612.3hPa | 2.6V | 00:00:00 | 03:17:36 | 00:00:00 | |
| OE5REO-15 | 2026-09-02 01:46:45 | 48.39225 | 13.40416 | 116° | 47km/h | 4246m | -2.9m/s | -5.0°C | 43.1% | 612.1hPa | 2.6V | 07:19:00 | 00:00:00 | 00:00:00 | |
| OE5HKT-10 | 2026-09-02 01:46:44 | 48.39235 | 13.40383 | 116° | 57km/h | 4252m | -2.9m/s | -5.0°C | 44.2% | 611.6hPa | 2.6V | 07:19:00 | 00:00:00 | 00:00:00 | |
| DO3MHA-11 | 2026-09-02 01:46:42 | 48.39246 | 13.40349 | 117° | 53km/h | 4258m | -2.9m/s | -5.1°C | 44.4% | 611.2hPa | 2.7V | 07:19:00 | 03:17:31 | 00:00:00 | |
| OE3JTB-15 | 2026-09-02 01:46:41 | 48.39252 | 13.40332 | 116° | 53km/h | 4261m | -2.8m/s | -5.1°C | 44.5% | 610.9hPa | 2.7V | 00:00:00 | 00:00:00 | 00:00:00 | |
| OE5WHR-10 | 2026-09-02 01:46:39 | 48.39263 | 13.40295 | 115° | 58km/h | 4267m | -2.9m/s | -5.1°C | 44.5% | 610.5hPa | 2.7V | 00:00:00 | 00:00:00 | 00:00:00 | |
| DO3MHA-11 | 2026-09-02 01:46:37 | 48.39275 | 13.40256 | 112° | 58km/h | 4273m | -3.1m/s | -5.2°C | 44.7% | 610.0hPa | 2.6V | 00:00:00 | 03:17:26 | 00:00:00 | |
| PG1ADW-2 | 2026-09-02 01:46:34 | 48.39290 | 13.40194 | 109° | 53km/h | 4282m | -3.1m/s | -5.2°C | 44.9% | 609.3hPa | 2.7V | 00:00:00 | 00:00:00 | 00:00:00 | |
| OE5DRO-10 | 2026-09-02 01:46:33 | 48.39294 | 13.40173 | 107° | 55km/h | 4285m | -2.9m/s | -5.3°C | 45.0% | 609.0hPa | 2.7V | 07:19:00 | 00:00:00 | 00:00:00 | |
| DO3MHA-11 | 2026-09-02 01:46:32 | 48.39298 | 13.40151 | 106° | 60km/h | 4288m | -2.8m/s | -5.3°C | 45.1% | 608.8hPa | 2.7V | 00:00:00 | 03:17:21 | 00:00:00 | |
| OE5MMP-10 | 2026-09-02 01:46:29 | 48.39309 | 13.40084 | 102° | 55km/h | 4297m | -3.2m/s | -5.3°C | 45.0% | 608.0hPa | 2.7V | 00:00:00 | 03:17:18 | 00:00:00 | |
| OE5FHM-15 | 2026-09-02 01:46:28 | 48.39312 | 13.40062 | 101° | 51km/h | 4300m | -3.2m/s | -5.4°C | 45.1% | 607.9hPa | 2.7V | 00:00:00 | 03:17:17 | 00:00:00 | |
| DO3MHA-11 | 2026-09-02 01:46:27 | 48.39314 | 13.40040 | 99° | 57km/h | 4304m | -3.1m/s | -5.4°C | 45.1% | 607.6hPa | 2.7V | 00:00:00 | 03:17:16 | 00:00:00 | |
| OE5WHR-10 | 2026-09-02 01:46:22 | 48.39322 | 13.39936 | 95° | 47km/h | 4320m | -3.0m/s | -5.5°C | 45.5% | 606.3hPa | 2.7V | 00:00:00 | 00:00:00 | 00:00:00 | |
| OE5MMP-10 | 2026-09-02 01:46:19 | 48.39325 | 13.39880 | 95° | 46km/h | 4328m | -2.9m/s | -5.6°C | 45.6% | 605.6hPa | 2.7V | 00:00:00 | 03:17:08 | 00:00:00 | |
| DO3MHA-11 | 2026-09-02 01:46:17 | 48.39327 | 13.39845 | 98° | 44km/h | 4334m | -3.0m/s | -5.7°C | 45.6% | 605.1hPa | 2.7V | 00:00:00 | 03:17:06 | 00:00:00 | |
| PG1ADW-2 | 2026-09-02 01:46:14 | 48.39334 | 13.39796 | 105° | 55km/h | 4343m | -3.2m/s | -5.7°C | 45.7% | 604.4hPa | 2.7V | 00:00:00 | 03:17:03 | 00:00:00 | |
| DG1MFX-10 | 2026-09-02 01:46:13 | 48.39334 | 13.39796 | 105° | 44km/h | 4343m | -3.2m/s | -5.8°C | 44.8% | 604.4hPa | 2.7V | 00:00:00 | 00:00:00 | 00:00:00 | |
| DO3MHA-11 | 2026-09-02 01:46:12 | 48.39340 | 13.39764 | 109° | 47km/h | 4350m | -2.9m/s | -5.8°C | 45.7% | 604.0hPa | 2.7V | 00:00:00 | 03:17:01 | 00:00:00 | |
| OE5HKT-10 | 2026-09-02 01:46:10 | 48.39348 | 13.39731 | 112° | 57km/h | 4356m | -2.9m/s | -5.8°C | 45.9% | 603.6hPa | 2.7V | 00:00:00 | 03:16:59 | 00:00:00 | |
| OE5MMP-10 | 2026-09-02 01:46:09 | 48.39352 | 13.39714 | 112° | 57km/h | 4359m | -2.9m/s | -5.9°C | 45.9% | 603.3hPa | 2.7V | 00:00:00 | 03:16:58 | 00:00:00 | |
| DO3MHA-11 | 2026-09-02 01:46:07 | 48.39362 | 13.39677 | 111° | 57km/h | 4365m | -3.0m/s | -5.9°C | 46.0% | 602.9hPa | 2.6V | 00:00:00 | 03:16:56 | 00:00:00 | |
| OE5WHR-10 | 2026-09-02 01:46:05 | 48.39371 | 13.39638 | 109° | 57km/h | 4371m | -3.1m/s | -6.0°C | 46.2% | 602.4hPa | 2.6V | 07:20:00 | 03:16:54 | 00:00:00 | |
| DO3MHA-11 | 2026-09-02 01:46:02 | 48.39384 | 13.39575 | 105° | 60km/h | 4380m | -3.0m/s | -6.0°C | 46.5% | 601.6hPa | 2.6V | 07:20:00 | 03:16:51 | 00:00:00 | |
| OE5DRO-10 | 2026-09-02 01:46:01 | 48.39387 | 13.39553 | 104° | 55km/h | 4383m | -3.0m/s | -6.1°C | 46.6% | 601.4hPa | 2.6V | 00:00:00 | 00:00:00 | 00:00:00 | |
| OE5MMP-10 | 2026-09-02 01:45:59 | 48.39394 | 13.39509 | 102° | 57km/h | 4389m | -3.1m/s | -6.1°C | 46.6% | 600.9hPa | 2.7V | 00:00:00 | 03:16:48 | 00:00:00 | |
| OE5FHM-15 | 2026-09-02 01:45:58 | 48.39397 | 13.39487 | 101° | 51km/h | 4393m | -3.3m/s | -6.1°C | 46.7% | 600.6hPa | 2.7V | 00:00:00 | 03:16:47 | 00:00:00 | |
| DO3MHA-11 | 2026-09-02 01:45:57 | 48.39399 | 13.39464 | 99° | 58km/h | 4396m | -3.2m/s | -6.2°C | 46.8% | 600.4hPa | 2.7V | 00:00:00 | 03:16:46 | 00:00:00 | |
| PG1ADW-2 | 2026-09-02 01:45:54 | 48.39405 | 13.39397 | 95° | 47km/h | 4406m | -3.2m/s | -6.2°C | 46.6% | 599.7hPa | 2.7V | 00:00:00 | 00:00:00 | 00:00:00 | |
| OE5HKT-10 | 2026-09-02 01:45:53 | 48.39406 | 13.39375 | 94° | 47km/h | 4409m | -3.0m/s | -6.3°C | 46.6% | 599.5hPa | 2.7V | 00:00:00 | 00:00:00 | 00:00:00 | |
| DO3MHA-11 | 2026-09-02 01:45:52 | 48.39406 | 13.39354 | 93° | 51km/h | 4412m | -3.2m/s | -6.3°C | 46.3% | 599.2hPa | 2.7V | 00:00:00 | 03:16:41 | 00:00:00 | |
| OE5MMP-10 | 2026-09-02 01:45:49 | 48.39408 | 13.39295 | 93° | 44km/h | 4421m | -3.1m/s | -6.3°C | 44.9% | 598.5hPa | 2.7V | 00:00:00 | 03:16:38 | 00:00:00 | |
| OE5WHR-10 | 2026-09-02 01:45:48 | 48.39408 | 13.39277 | 94° | 47km/h | 4424m | -3.1m/s | -6.4°C | 44.7% | 598.2hPa | 2.7V | 00:00:00 | 00:00:00 | 00:00:00 | |
| DO3MHA-11 | 2026-09-02 01:45:47 | 48.39409 | 13.39260 | 95° | 44km/h | 4427m | -3.0m/s | -6.4°C | 44.4% | 597.9hPa | 2.6V | 00:00:00 | 03:16:36 | 00:00:00 | |
| OE5DRO-10 | 2026-09-02 01:45:45 | 48.39412 | 13.39226 | 99° | 49km/h | 4434m | -3.1m/s | -6.4°C | 41.9% | 597.5hPa | 2.6V | 00:00:00 | 00:00:00 | 00:00:00 | |
| OE3JTB-15 | 2026-09-02 01:45:43 | 48.39415 | 13.39194 | 103° | 51km/h | 4440m | -3.3m/s | -6.4°C | 42.7% | 597.1hPa | 2.6V | 00:00:00 | 00:00:00 | 00:00:00 | |
| DO3MHA-11 | 2026-09-02 01:45:42 | 48.39418 | 13.39178 | 105° | 46km/h | 4443m | -3.0m/s | -6.5°C | 42.7% | 596.8hPa | 2.7V | 00:00:00 | 03:16:31 | 00:00:00 | |
| OE5MMP-10 | 2026-09-02 01:45:39 | 48.39427 | 13.39129 | 109° | 53km/h | 4452m | -3.1m/s | -6.5°C | 43.4% | 596.1hPa | 2.7V | 07:20:00 | 03:16:28 | 00:00:00 | |
| DO3MHA-11 | 2026-09-02 01:45:37 | 48.39435 | 13.39095 | 110° | 53km/h | 4458m | -3.0m/s | -6.6°C | 42.6% | 595.7hPa | 2.6V | 00:00:00 | 03:16:26 | 00:00:00 | |
| OE5HKT-10 | 2026-09-02 01:45:36 | 48.39439 | 13.39077 | 110° | 57km/h | 4461m | -3.1m/s | -6.6°C | 42.2% | 595.4hPa | 2.7V | 00:00:00 | 00:00:00 | 00:00:00 | |
| PG1ADW-2 | 2026-09-02 01:45:34 | 48.39448 | 13.39039 | 109° | 55km/h | 4467m | -3.2m/s | -6.6°C | 41.8% | 594.9hPa | 2.7V | 00:00:00 | 00:00:00 | 00:00:00 | |
| DO3MHA-11 | 2026-09-02 01:45:32 | 48.39457 | 13.38998 | 107° | 58km/h | 4474m | -3.3m/s | -6.6°C | 41.9% | 594.5hPa | 2.7V | 00:00:00 | 03:16:21 | 00:00:00 | |
| OE5WHR-10 | 2026-09-02 01:45:31 | 48.39461 | 13.38976 | 105° | 53km/h | 4477m | -3.1m/s | -6.6°C | 42.3% | 594.2hPa | 2.7V | 00:00:00 | 00:00:00 | 00:00:00 | |
| OE5MMP-10 | 2026-09-02 01:45:29 | 48.39468 | 13.38932 | 101° | 57km/h | 4484m | -3.2m/s | -6.7°C | 43.6% | 593.8hPa | 2.7V | 00:00:00 | 03:16:18 | 00:00:00 | |
| OE5FHM-15 | 2026-09-02 01:45:28 | 48.39470 | 13.38910 | 99° | 51km/h | 4487m | -3.2m/s | -6.7°C | 43.4% | 593.4hPa | 2.7V | 00:00:00 | 03:16:17 | 00:00:00 | |
| DO3MHA-11 | 2026-09-02 01:45:27 | 48.39472 | 13.38887 | 97° | 57km/h | 4490m | -3.2m/s | -6.7°C | 43.5% | 593.2hPa | 2.7V | 00:00:00 | 03:16:16 | 00:00:00 | |
| OE5REO-15 | 2026-09-02 01:45:26 | 48.39472 | 13.38887 | 97° | 60km/h | 4490m | -3.3m/s | -6.8°C | 42.6% | 593.3hPa | 2.7V | 07:21:00 | 00:00:00 | 00:00:00 | |
| DO3MHA-11 | 2026-09-02 01:45:22 | 48.39475 | 13.38779 | 91° | 51km/h | 4506m | -3.0m/s | -6.9°C | 44.7% | 592.1hPa | 2.7V | 07:20:00 | 03:16:11 | 00:00:00 | |
| OE5MMP-10 | 2026-09-02 01:45:19 | 48.39475 | 13.38721 | 90° | 46km/h | 4515m | -3.0m/s | -7.0°C | 45.1% | 591.3hPa | 2.7V | 00:00:00 | 03:16:08 | 00:00:00 | |
| DO3MHA-11 | 2026-09-02 01:45:17 | 48.39475 | 13.38684 | 91° | 44km/h | 4521m | -3.2m/s | -7.0°C | 45.1% | 590.8hPa | 2.7V | 00:00:00 | 03:16:06 | 00:00:00 | |
| OE5WHR-10 | 2026-09-02 01:45:14 | 48.39477 | 13.38633 | 95° | 49km/h | 4531m | -3.1m/s | -7.1°C | 45.4% | 590.1hPa | 2.7V | 00:00:00 | 03:16:03 | 00:00:00 | |
| OE5DRO-10 | 2026-09-02 01:45:13 | 48.39478 | 13.38617 | 97° | 49km/h | 4534m | -3.1m/s | -7.1°C | 45.6% | 589.8hPa | 2.7V | 00:00:00 | 00:00:00 | 00:00:00 | |
| DO3MHA-11 | 2026-09-02 01:45:12 | 48.39479 | 13.38601 | 98° | 44km/h | 4537m | -3.1m/s | -7.1°C | 45.9% | 589.7hPa | 2.6V | 00:00:00 | 03:16:01 | 00:00:00 | |
| OE5REO-15 | 2026-09-02 01:45:10 | 48.39480 | 13.38585 | 101° | 42km/h | 4540m | -3.1m/s | -7.2°C | 44.8% | 589.5hPa | 2.6V | 07:21:00 | 00:00:00 | 00:00:00 | |
| OE5MMP-10 | 2026-09-02 01:45:09 | 48.39485 | 13.38553 | 104° | 51km/h | 4546m | -3.2m/s | -7.2°C | 46.3% | 588.9hPa | 2.6V | 00:00:00 | 03:15:58 | 00:00:00 | |
| DO3MHA-11 | 2026-09-02 01:45:07 | 48.39491 | 13.38520 | 107° | 51km/h | 4553m | -3.1m/s | -7.3°C | 46.4% | 588.4hPa | 2.7V | 00:00:00 | 03:15:56 | 00:00:00 | |
| DO3MHA-11 | 2026-09-02 01:45:02 | 48.39510 | 13.38426 | 106° | 58km/h | 4568m | -3.4m/s | -7.4°C | 47.0% | 587.2hPa | 2.7V | 00:00:00 | 03:15:51 | 00:00:00 | |
| OE5MMP-10 | 2026-09-02 01:44:59 | 48.39521 | 13.38362 | 103° | 58km/h | 4578m | -3.2m/s | -7.5°C | 46.9% | 586.5hPa | 2.7V | 00:00:00 | 03:15:48 | 00:00:00 | |
| OE5DXL-15 | 2026-09-02 01:44:58 | 48.39523 | 13.38340 | 101° | 51km/h | 4582m | -3.3m/s | -7.5°C | 47.0% | 586.2hPa | 2.7V | 00:00:00 | 00:00:00 | 00:00:00 | |
| DO3MHA-11 | 2026-09-02 01:44:57 | 48.39526 | 13.38318 | 99° | 58km/h | 4585m | -3.2m/s | -7.6°C | 47.5% | 586.0hPa | 2.7V | 00:00:00 | 03:15:46 | 00:00:00 | |
| PG1ADW-2 | 2026-09-02 01:44:54 | 48.39531 | 13.38251 | 94° | 49km/h | 4594m | -3.1m/s | -7.7°C | 47.7% | 585.2hPa | 2.7V | 00:00:00 | 03:15:43 | 00:00:00 | |
| DO3MHA-11 | 2026-09-02 01:44:52 | 48.39532 | 13.38206 | 91° | 53km/h | 4600m | -3.1m/s | -7.7°C | 48.1% | 584.8hPa | 2.6V | 00:00:00 | 03:15:41 | 00:00:00 | |
| OE5MMP-10 | 2026-09-02 01:44:49 | 48.39531 | 13.38145 | 88° | 46km/h | 4610m | -3.1m/s | -7.8°C | 47.9% | 584.1hPa | 2.6V | 00:00:00 | 03:15:38 | 00:00:00 | |
| DO3MHA-11 | 2026-09-02 01:44:47 | 48.39530 | 13.38106 | 88° | 47km/h | 4617m | -3.3m/s | -7.9°C | 48.2% | 583.7hPa | 2.6V | 00:00:00 | 03:15:36 | 00:00:00 | |
| OE5HKT-10 | 2026-09-02 01:44:45 | 48.39530 | 13.38069 | 89° | 47km/h | 4623m | -3.2m/s | -7.9°C | 48.1% | 583.1hPa | 2.6V | 00:00:00 | 00:00:00 | 00:00:00 | |
| DO3MHA-11 | 2026-09-02 01:44:42 | 48.39530 | 13.38018 | 93° | 42km/h | 4633m | -3.2m/s | -8.0°C | 48.8% | 582.3hPa | 2.6V | 07:21:00 | 03:15:31 | 00:00:00 | |
| OE5DRO-10 | 2026-09-02 01:44:41 | 48.39530 | 13.38002 | 95° | 51km/h | 4636m | -3.3m/s | -8.0°C | 48.8% | 582.1hPa | 2.6V | 00:00:00 | 00:00:00 | 00:00:00 | |
| OE5WHR-10 | 2026-09-02 01:44:40 | 48.39532 | 13.37986 | 97° | 53km/h | 4639m | -3.1m/s | -8.0°C | 48.8% | 581.9hPa | 2.6V | 00:00:00 | 00:00:00 | 00:00:00 | |
| OE5MMP-10 | 2026-09-02 01:44:39 | 48.39533 | 13.37970 | 100° | 49km/h | 4642m | -3.1m/s | -8.1°C | 48.9% | 581.6hPa | 2.6V | 00:00:00 | 03:15:28 | 00:00:00 | |
| OE5REO-15 | 2026-09-02 01:44:38 | 48.39533 | 13.37970 | 100° | 42km/h | 4642m | -3.2m/s | -8.1°C | 47.8% | 581.7hPa | 2.7V | 07:22:00 | 00:00:00 | 00:00:00 | |
| DO3MHA-11 | 2026-09-02 01:44:37 | 48.39538 | 13.37938 | 104° | 47km/h | 4649m | -3.0m/s | -8.1°C | 49.1% | 581.2hPa | 2.7V | 00:00:00 | 03:15:26 | 00:00:00 | |
| PG1ADW-2 | 2026-09-02 01:44:34 | 48.39547 | 13.37887 | 107° | 53km/h | 4658m | -2.9m/s | -8.2°C | 48.7% | 580.4hPa | 2.7V | 00:00:00 | 00:00:00 | 00:00:00 | |
| DO3MHA-11 | 2026-09-02 01:44:32 | 48.39555 | 13.37849 | 106° | 58km/h | 4664m | -3.3m/s | -8.3°C | 48.6% | 580.0hPa | 2.7V | 00:00:00 | 03:15:21 | 00:00:00 | |
| OE5MMP-10 | 2026-09-02 01:44:29 | 48.39564 | 13.37785 | 100° | 57km/h | 4674m | -3.0m/s | -8.3°C | 48.1% | 579.3hPa | 2.7V | 00:00:00 | 03:15:18 | 00:00:00 | |
| OE5FHM-15 | 2026-09-02 01:44:28 | 48.39566 | 13.37762 | 97° | 51km/h | 4677m | -3.3m/s | -8.4°C | 47.9% | 579.2hPa | 2.7V | 00:00:00 | 03:15:17 | 00:00:00 | |
| DO3MHA-11 | 2026-09-02 01:44:27 | 48.39568 | 13.37740 | 95° | 57km/h | 4680m | -3.2m/s | -8.4°C | 47.9% | 578.8hPa | 2.7V | 00:00:00 | 03:15:16 | 00:00:00 | |
| OE5DRO-10 | 2026-09-02 01:44:25 | 48.39569 | 13.37696 | 91° | 47km/h | 4687m | -3.2m/s | -8.4°C | 47.9% | 578.3hPa | 2.7V | 07:21:00 | 00:00:00 | 00:00:00 | |
| OE5WHR-10 | 2026-09-02 01:44:23 | 48.39569 | 13.37653 | 89° | 47km/h | 4693m | -3.1m/s | -8.5°C | 47.7% | 577.9hPa | 2.6V | 00:00:00 | 03:15:12 | 00:00:00 | |
| DO3MHA-11 | 2026-09-02 01:44:22 | 48.39568 | 13.37632 | 88° | 49km/h | 4696m | -3.2m/s | -8.5°C | 47.6% | 577.6hPa | 2.6V | 00:00:00 | 03:15:11 | 00:00:00 | |
| DG1MFX-10 | 2026-09-02 01:44:20 | 48.39568 | 13.37613 | 87° | 51km/h | 4699m | -3.3m/s | -8.6°C | 46.4% | 577.3hPa | 2.7V | 00:00:00 | 00:00:00 | 00:00:00 | |
| OE5MMP-10 | 2026-09-02 01:44:19 | 48.39566 | 13.37575 | 87° | 44km/h | 4706m | -3.0m/s | -8.6°C | 47.9% | 576.9hPa | 2.7V | 07:21:00 | 03:15:08 | 00:00:00 | |
| DO3MHA-11 | 2026-09-02 01:44:17 | 48.39565 | 13.37540 | 89° | 44km/h | 4712m | -3.2m/s | -8.7°C | 47.9% | 576.4hPa | 2.7V | 00:00:00 | 03:15:06 | 00:00:00 | |
| OE3JTB-15 | 2026-09-02 01:44:16 | 48.39565 | 13.37523 | 91° | 53km/h | 4715m | -3.2m/s | -8.7°C | 48.0% | 576.2hPa | 2.7V | 00:00:00 | 00:00:00 | 00:00:00 | |
| PG1ADW-2 | 2026-09-02 01:44:14 | 48.39566 | 13.37491 | 96° | 53km/h | 4721m | -3.2m/s | -8.8°C | 48.4% | 575.8hPa | 2.5V | 07:22:00 | 00:00:00 | 00:00:00 | |
| DO3MHA-11 | 2026-09-02 01:44:12 | 48.39569 | 13.37459 | 101° | 46km/h | 4727m | -3.1m/s | -8.8°C | 48.1% | 575.3hPa | 2.5V | 00:00:00 | 03:15:01 | 00:00:00 | |
| OE5HKT-10 | 2026-09-02 01:44:11 | 48.39571 | 13.37442 | 103° | 55km/h | 4730m | -3.1m/s | -8.8°C | 48.3% | 575.1hPa | 2.5V | 00:00:00 | 00:00:00 | 00:00:00 | |
| OE5MMP-10 | 2026-09-02 01:44:09 | 48.39576 | 13.37408 | 105° | 53km/h | 4737m | -2.8m/s | -8.9°C | 48.7% | 574.5hPa | 2.7V | 00:00:00 | 03:14:58 | 00:00:00 | |
| DO3MHA-11 | 2026-09-02 01:44:07 | 48.39583 | 13.37372 | 106° | 53km/h | 4743m | -3.2m/s | -8.9°C | 48.6% | 574.1hPa | 2.6V | 00:00:00 | 03:14:56 | 00:00:00 | |
| OE5WHR-10 | 2026-09-02 01:44:06 | 48.39586 | 13.37353 | 105° | 57km/h | 4746m | -3.1m/s | -9.0°C | 48.7% | 573.9hPa | 2.5V | 00:00:00 | 00:00:00 | 00:00:00 | |
| DO3MHA-11 | 2026-09-02 01:44:02 | 48.39599 | 13.37274 | 103° | 58km/h | 4759m | -3.3m/s | -9.1°C | 48.9% | 572.9hPa | 2.7V | 07:22:00 | 03:14:51 | 00:00:00 | |
| OE5MMP-10 | 2026-09-02 01:43:59 | 48.39608 | 13.37210 | 101° | 58km/h | 4769m | -3.3m/s | -9.2°C | 48.8% | 572.2hPa | 2.7V | 00:00:00 | 03:14:48 | 00:00:00 | |
| OE5FHM-15 | 2026-09-02 01:43:58 | 48.39610 | 13.37188 | 99° | 53km/h | 4772m | -3.1m/s | -9.2°C | 48.9% | 571.9hPa | 2.7V | 00:00:00 | 03:14:47 | 00:00:00 | |
| DO3MHA-11 | 2026-09-02 01:43:57 | 48.39612 | 13.37166 | 99° | 60km/h | 4776m | -3.2m/s | -9.2°C | 49.0% | 571.7hPa | 2.6V | 00:00:00 | 03:14:46 | 00:00:00 | |
| OE5HKT-10 | 2026-09-02 01:43:54 | 48.39617 | 13.37098 | 94° | 49km/h | 4785m | -3.3m/s | -9.3°C | 49.1% | 571.1hPa | 2.6V | 00:00:00 | 00:00:00 | 00:00:00 | |
| OE5DRO-10 | 2026-09-02 01:43:53 | 48.39618 | 13.37075 | 92° | 49km/h | 4788m | -3.2m/s | -9.3°C | 49.5% | 570.8hPa | 2.6V | 00:00:00 | 00:00:00 | 00:00:00 | |
| DO3MHA-11 | 2026-09-02 01:43:52 | 48.39618 | 13.37053 | 91° | 55km/h | 4791m | -3.1m/s | -9.4°C | 49.2% | 570.5hPa | 2.6V | 00:00:00 | 03:14:41 | 00:00:00 | |
| OE5REO-15 | 2026-09-02 01:43:51 | 48.39618 | 13.37053 | 91° | 58km/h | 4791m | -3.2m/s | -9.4°C | 48.0% | 570.5hPa | 2.5V | 07:22:00 | 00:00:00 | 00:00:00 | |
| OE5MMP-10 | 2026-09-02 01:43:49 | 48.39616 | 13.36989 | 86° | 46km/h | 4801m | -3.2m/s | -9.4°C | 48.4% | 569.8hPa | 2.5V | 00:00:00 | 03:14:38 | 00:00:00 | |
| DO3MHA-11 | 2026-09-02 01:43:47 | 48.39614 | 13.36950 | 86° | 46km/h | 4807m | -3.1m/s | -9.5°C | 48.2% | 569.4hPa | 2.5V | 00:00:00 | 03:14:36 | 00:00:00 | |
| DO3MHA-11 | 2026-09-02 01:43:42 | 48.39612 | 13.36864 | 93° | 44km/h | 4823m | -3.2m/s | -9.6°C | 48.0% | 568.2hPa | 2.5V | 00:00:00 | 03:14:31 | 00:00:00 | |
| DG1MFX-10 | 2026-09-02 01:43:41 | 48.39612 | 13.36864 | 94° | 44km/h | 4823m | -3.2m/s | -9.7°C | 46.8% | 568.2hPa | 2.5V | 07:23:00 | 00:00:00 | 00:00:00 | |
| OE5MMP-10 | 2026-09-02 01:43:39 | 48.39616 | 13.36814 | 100° | 51km/h | 4833m | -3.2m/s | -9.7°C | 48.0% | 567.4hPa | 2.5V | 00:00:00 | 03:14:28 | 00:00:00 | |
| DO3MHA-11 | 2026-09-02 01:43:37 | 48.39621 | 13.36780 | 103° | 49km/h | 4839m | -3.3m/s | -9.8°C | 48.5% | 567.1hPa | 2.7V | 00:00:00 | 03:14:26 | 00:00:00 | |
| OE5REO-15 | 2026-09-02 01:43:36 | 48.39623 | 13.36762 | 105° | 49km/h | 4843m | -3.3m/s | -9.8°C | 47.2% | 566.8hPa | 2.5V | 07:23:00 | 00:00:00 | 00:00:00 | |
| PG1ADW-2 | 2026-09-02 01:43:34 | 48.39630 | 13.36725 | 105° | 57km/h | 4849m | -3.1m/s | -9.9°C | 48.8% | 566.4hPa | 2.5V | 00:00:00 | 03:14:23 | 00:00:00 | |
| DO3MHA-11 | 2026-09-02 01:43:32 | 48.39636 | 13.36686 | 104° | 58km/h | 4856m | -3.2m/s | -9.9°C | 48.3% | 565.9hPa | 2.5V | 00:00:00 | 03:14:21 | 00:00:00 | |
| OE5DXL-15 | 2026-09-02 01:43:28 | 48.39647 | 13.36599 | 98° | 53km/h | 4868m | -3.2m/s | -10.0°C | 48.9% | 564.9hPa | 2.5V | 07:22:00 | 00:00:00 | 00:00:00 | |
| DO3MHA-11 | 2026-09-02 01:43:27 | 48.39649 | 13.36576 | 97° | 60km/h | 4872m | -3.3m/s | -10.0°C | 48.7% | 564.7hPa | 2.5V | 00:00:00 | 03:14:16 | 00:00:00 | |
| DO3MHA-11 | 2026-09-02 01:43:22 | 48.39651 | 13.36461 | 88° | 57km/h | 4888m | -3.2m/s | -10.2°C | 49.3% | 563.5hPa | 2.5V | 07:22:00 | 03:14:11 | 00:00:00 | |
| OE5DRO-10 | 2026-09-02 01:43:21 | 48.39650 | 13.36439 | 87° | 49km/h | 4891m | -3.3m/s | -10.2°C | 49.4% | 563.3hPa | 2.6V | 00:00:00 | 00:00:00 | 00:00:00 | |
| OE5HKT-10 | 2026-09-02 01:43:20 | 48.39649 | 13.36418 | 86° | 49km/h | 4894m | -3.1m/s | -10.2°C | 49.4% | 563.0hPa | 2.6V | 00:00:00 | 00:00:00 | 00:00:00 | |
| OE5MMP-10 | 2026-09-02 01:43:19 | 48.39648 | 13.36397 | 85° | 47km/h | 4898m | -3.2m/s | -10.3°C | 49.7% | 562.8hPa | 2.6V | 00:00:00 | 03:14:08 | 00:00:00 | |
| OE3JTB-15 | 2026-09-02 01:43:18 | 48.39647 | 13.36377 | 85° | 53km/h | 4901m | -3.1m/s | -10.3°C | 49.7% | 562.6hPa | 2.6V | 00:00:00 | 03:14:07 | 00:00:00 | |
| DO3MHA-11 | 2026-09-02 01:43:17 | 48.39645 | 13.36357 | 85° | 47km/h | 4904m | -3.2m/s | -10.3°C | 50.0% | 562.4hPa | 2.6V | 00:00:00 | 03:14:06 | 00:00:00 | |
| OE5WHR-10 | 2026-09-02 01:43:15 | 48.39643 | 13.36320 | 88° | 49km/h | 4910m | -3.0m/s | -10.4°C | 50.0% | 561.8hPa | 2.6V | 00:00:00 | 00:00:00 | 00:00:00 | |
| PG1ADW-2 | 2026-09-02 01:43:14 | 48.39643 | 13.36302 | 89° | 51km/h | 4913m | -3.3m/s | -10.4°C | 50.0% | 561.6hPa | 2.6V | 00:00:00 | 00:00:00 | 00:00:00 | |
| DG1MFX-10 | 2026-09-02 01:43:13 | 48.39643 | 13.36302 | 90° | 46km/h | 4913m | -3.3m/s | -10.5°C | 48.8% | 561.6hPa | 2.6V | 07:23:00 | 00:00:00 | 00:00:00 | |
| DO3MHA-11 | 2026-09-02 01:43:12 | 48.39643 | 13.36268 | 93° | 46km/h | 4919m | -3.2m/s | -10.5°C | 49.7% | 561.2hPa | 2.6V | 00:00:00 | 03:14:01 | 00:00:00 | |
| OE5MMP-10 | 2026-09-02 01:43:09 | 48.39647 | 13.36217 | 98° | 51km/h | 4929m | -3.3m/s | -10.5°C | 50.0% | 560.5hPa | 2.6V | 00:00:00 | 03:13:58 | 00:00:00 | |
| DO3MHA-11 | 2026-09-02 01:43:07 | 48.39651 | 13.36182 | 102° | 51km/h | 4935m | -3.2m/s | -10.6°C | 51.2% | 560.1hPa | 2.6V | 00:00:00 | 03:13:56 | 00:00:00 | |
| OE5DRO-10 | 2026-09-02 01:43:05 | 48.39656 | 13.36146 | 103° | 58km/h | 4942m | -3.2m/s | -10.7°C | 52.1% | 559.6hPa | 2.5V | 00:00:00 | 00:00:00 | 00:00:00 | |
| OE5HKT-10 | 2026-09-02 01:43:03 | 48.39661 | 13.36108 | 103° | 58km/h | 4948m | -3.2m/s | -10.7°C | 53.3% | 559.0hPa | 2.5V | 00:00:00 | 00:00:00 | 00:00:00 | |
| DO3MHA-11 | 2026-09-02 01:43:02 | 48.39664 | 13.36088 | 103° | 57km/h | 4952m | -3.4m/s | -10.7°C | 53.3% | 558.8hPa | 2.5V | 00:00:00 | 03:13:51 | 00:00:00 | |
| OE5MMP-10 | 2026-09-02 01:42:59 | 48.39673 | 13.36025 | 102° | 62km/h | 4962m | -3.2m/s | -10.8°C | 53.9% | 558.1hPa | 2.5V | 07:23:00 | 03:13:48 | 00:00:00 | |
| OE5FHM-15 | 2026-09-02 01:42:58 | 48.39676 | 13.36003 | 101° | 53km/h | 4965m | -3.2m/s | -10.9°C | 54.3% | 557.9hPa | 2.5V | 00:00:00 | 03:13:47 | 00:00:00 | |
| DO3MHA-11 | 2026-09-02 01:42:57 | 48.39679 | 13.35980 | 100° | 62km/h | 4969m | -3.1m/s | -10.9°C | 54.8% | 557.7hPa | 2.5V | 00:00:00 | 03:13:46 | 00:00:00 | |
| PG1ADW-2 | 2026-09-02 01:42:54 | 48.39685 | 13.35910 | 96° | 53km/h | 4978m | -3.2m/s | -11.0°C | 55.4% | 556.9hPa | 2.5V | 00:00:00 | 00:00:00 | 00:00:00 | |
| DO3MHA-11 | 2026-09-02 01:42:52 | 48.39687 | 13.35862 | 92° | 60km/h | 4984m | -3.2m/s | -11.0°C | 55.5% | 556.5hPa | 2.6V | 00:00:00 | 03:13:41 | 00:00:00 | |
| OE5MMP-10 | 2026-09-02 01:42:49 | 48.39686 | 13.35793 | 88° | 51km/h | 4994m | -3.2m/s | -11.1°C | 56.2% | 555.8hPa | 2.6V | 00:00:00 | 03:13:38 | 00:00:00 | |
| DG1MFX-10 | 2026-09-02 01:42:48 | 48.39686 | 13.35793 | 88° | 58km/h | 4994m | -3.2m/s | -11.2°C | 54.8% | 555.8hPa | 2.6V | 07:24:00 | 00:00:00 | 00:00:00 | |
| DO3MHA-11 | 2026-09-02 01:42:47 | 48.39684 | 13.35750 | 86° | 49km/h | 5000m | -3.1m/s | -11.2°C | 56.8% | 555.3hPa | 2.6V | 00:00:00 | 03:13:36 | 00:00:00 | |
| OE5HKT-10 | 2026-09-02 01:42:46 | 48.39683 | 13.35729 | 86° | 47km/h | 5003m | -3.2m/s | -11.2°C | 57.2% | 555.2hPa | 2.6V | 00:00:00 | 03:13:35 | 00:00:00 | |
| OE5WHR-10 | 2026-09-02 01:42:41 | 48.39680 | 13.35635 | 89° | 51km/h | 5019m | -3.0m/s | -11.4°C | 58.2% | 553.9hPa | 2.6V | 00:00:00 | 03:13:30 | 00:00:00 | |
| OE5MMP-10 | 2026-09-02 01:42:39 | 48.39679 | 13.35599 | 91° | 47km/h | 5026m | -3.3m/s | -11.4°C | 58.3% | 553.6hPa | 2.6V | 00:00:00 | 03:13:28 | 00:00:00 | |
| DO3MHA-11 | 2026-09-02 01:42:38 | 48.39680 | 13.35582 | 93° | 47km/h | 5029m | -3.3m/s | -11.4°C | 58.4% | 553.3hPa | 2.5V | 07:23:00 | 03:13:27 | 00:00:00 | |
| PG1ADW-2 | 2026-09-02 01:42:34 | 48.39685 | 13.35514 | 102° | 55km/h | 5042m | -3.3m/s | -11.6°C | 58.8% | 552.4hPa | 2.5V | 00:00:00 | 00:00:00 | 00:00:00 | |
| OE5DRO-10 | 2026-09-02 01:42:33 | 48.39688 | 13.35497 | 103° | 57km/h | 5045m | -3.2m/s | -11.6°C | 59.0% | 552.1hPa | 2.5V | 00:00:00 | 00:00:00 | 00:00:00 | |
| OE5REO-15 | 2026-09-02 01:42:31 | 48.39690 | 13.35479 | 105° | 49km/h | 5048m | -3.2m/s | -11.7°C | 57.5% | 551.9hPa | 2.5V | 07:24:00 | 00:00:00 | 00:00:00 | |
| OE5HKT-10 | 2026-09-02 01:42:29 | 48.39701 | 13.35421 | 106° | 57km/h | 5058m | -3.2m/s | -11.7°C | 58.8% | 551.2hPa | 2.5V | 00:00:00 | 00:00:00 | 00:00:00 | |
| DO3MHA-11 | 2026-09-02 01:42:28 | 48.39705 | 13.35401 | 105° | 60km/h | 5062m | -3.1m/s | -11.7°C | 58.2% | 551.0hPa | 2.5V | 00:00:00 | 03:13:17 | 00:00:00 | |
| DG1MFX-10 | 2026-09-02 01:42:27 | 48.39705 | 13.35401 | 106° | 57km/h | 5062m | -3.2m/s | -11.8°C | 56.7% | 551.0hPa | 2.6V | 07:24:00 | 00:00:00 | 00:00:00 | |
| OE5WHR-10 | 2026-09-02 01:42:24 | 48.39717 | 13.35311 | 99° | 51km/h | 5074m | -3.1m/s | -11.8°C | 57.5% | 550.1hPa | 2.6V | 00:00:00 | 00:00:00 | 00:00:00 | |
| OE3JTB-15 | 2026-09-02 01:42:20 | 48.39721 | 13.35219 | 91° | 47km/h | 5086m | -2.8m/s | -11.9°C | 55.3% | 549.2hPa | 2.6V | 00:00:00 | 00:00:00 | 00:00:00 | |
| OE5MMP-10 | 2026-09-02 01:42:19 | 48.39721 | 13.35198 | 90° | 49km/h | 5089m | -3.0m/s | -12.0°C | 55.1% | 549.1hPa | 2.6V | 00:00:00 | 03:13:08 | 00:00:00 | |
| DO3MHA-11 | 2026-09-02 01:42:18 | 48.39721 | 13.35177 | 89° | 47km/h | 5092m | -3.0m/s | -12.0°C | 54.9% | 548.8hPa | 2.6V | 00:00:00 | 03:13:07 | 00:00:00 | |
| OE5DRO-10 | 2026-09-02 01:42:17 | 48.39721 | 13.35157 | 89° | 46km/h | 5095m | -3.0m/s | -12.0°C | 54.4% | 548.7hPa | 2.6V | 07:23:00 | 00:00:00 | 00:00:00 | |
| OE5REO-15 | 2026-09-02 01:42:15 | 48.39721 | 13.35138 | 90° | 49km/h | 5098m | -3.2m/s | -12.1°C | 52.6% | 548.3hPa | 2.6V | 07:24:00 | 00:00:00 | 00:00:00 | |
| PG1ADW-2 | 2026-09-02 01:42:14 | 48.39720 | 13.35101 | 90° | 46km/h | 5104m | -3.1m/s | -12.1°C | 52.8% | 548.0hPa | 2.6V | 00:00:00 | 03:13:03 | 00:00:00 | |
| OE5HKT-10 | 2026-09-02 01:42:12 | 48.39720 | 13.35066 | 91° | 44km/h | 5111m | -3.2m/s | -12.1°C | 51.8% | 547.4hPa | 2.6V | 07:24:00 | 00:00:00 | 00:00:00 | |
| OE5MMP-10 | 2026-09-02 01:42:09 | 48.39721 | 13.35014 | 93° | 42km/h | 5120m | -3.3m/s | -12.2°C | 51.1% | 546.7hPa | 2.6V | 00:00:00 | 03:12:58 | 00:00:00 | |
| DO3MHA-11 | 2026-09-02 01:42:08 | 48.39721 | 13.34998 | 94° | 44km/h | 5123m | -3.3m/s | -12.2°C | 50.8% | 546.5hPa | 2.5V | 00:00:00 | 03:12:57 | 00:00:00 | |
| OE5WHR-10 | 2026-09-02 01:42:07 | 48.39722 | 13.34982 | 95° | 47km/h | 5127m | -3.2m/s | -12.3°C | 50.5% | 546.3hPa | 2.5V | 00:00:00 | 00:00:00 | 00:00:00 | |
| OE5DRO-10 | 2026-09-02 01:42:01 | 48.39734 | 13.34888 | 107° | 53km/h | 5146m | -3.0m/s | -12.3°C | 44.0% | 545.0hPa | 2.5V | 00:00:00 | 00:00:00 | 00:00:00 | |
| OE5REO-15 | 2026-09-02 01:42:00 | 48.39734 | 13.34888 | 107° | 44km/h | 5146m | -3.1m/s | -12.4°C | 42.7% | 545.0hPa | 2.5V | 07:24:00 | 00:00:00 | 00:00:00 | |
| OE5MMP-10 | 2026-09-02 01:41:59 | 48.39741 | 13.34855 | 109° | 53km/h | 5152m | -3.0m/s | -12.4°C | 42.5% | 544.4hPa | 2.5V | 00:00:00 | 03:12:48 | 00:00:00 | |
| OE5DXL-15 | 2026-09-02 01:41:58 | 48.39745 | 13.34839 | 110° | 49km/h | 5155m | -2.9m/s | -12.4°C | 42.0% | 544.2hPa | 2.5V | 00:00:00 | 00:00:00 | 00:00:00 | |
| OE5HKT-10 | 2026-09-02 01:41:55 | 48.39757 | 13.34784 | 108° | 55km/h | 5164m | -2.7m/s | -12.5°C | 42.3% | 543.7hPa | 2.5V | 00:00:00 | 03:12:44 | 00:00:00 | |
| PG1ADW-2 | 2026-09-02 01:41:54 | 48.39761 | 13.34764 | 106° | 51km/h | 5166m | -2.9m/s | -12.5°C | 42.8% | 543.4hPa | 2.5V | 00:00:00 | 00:00:00 | 00:00:00 | |
| OE3JTB-15 | 2026-09-02 01:41:51 | 48.39771 | 13.34701 | 101° | 47km/h | 5176m | -3.1m/s | -12.5°C | 42.9% | 542.8hPa | 2.6V | 00:00:00 | 03:12:40 | 00:00:00 | |
| OE5WHR-10 | 2026-09-02 01:41:50 | 48.39773 | 13.34680 | 99° | 49km/h | 5179m | -3.0m/s | -12.6°C | 42.8% | 542.6hPa | 2.6V | 00:00:00 | 03:12:39 | 00:00:00 | |
| OE5MMP-10 | 2026-09-02 01:41:49 | 48.39775 | 13.34658 | 97° | 53km/h | 5182m | -3.0m/s | -12.6°C | 42.9% | 542.3hPa | 2.6V | 00:00:00 | 03:12:38 | 00:00:00 | |
| DO3MHA-11 | 2026-09-02 01:41:48 | 48.39776 | 13.34637 | 96° | 53km/h | 5185m | -3.1m/s | -12.6°C | 42.9% | 542.1hPa | 2.6V | 00:00:00 | 03:12:37 | 00:00:00 | |
| OE5DRO-10 | 2026-09-02 01:41:45 | 48.39779 | 13.34573 | 92° | 46km/h | 5194m | -3.2m/s | -12.7°C | 43.1% | 541.5hPa | 2.6V | 00:00:00 | 00:00:00 | 00:00:00 | |
| OE5MMP-10 | 2026-09-02 01:41:39 | 48.39779 | 13.34456 | 89° | 42km/h | 5213m | -3.1m/s | -12.8°C | 43.9% | 540.2hPa | 2.6V | 07:24:00 | 03:12:28 | 00:00:00 | |
| OE5HKT-10 | 2026-09-02 01:41:38 | 48.39778 | 13.34439 | 89° | 46km/h | 5216m | -3.0m/s | -12.8°C | 43.6% | 539.9hPa | 2.6V | 00:00:00 | 00:00:00 | 00:00:00 | |
| PG1ADW-2 | 2026-09-02 01:41:34 | 48.39778 | 13.34375 | 94° | 49km/h | 5228m | -3.0m/s | -12.8°C | 43.2% | 539.1hPa | 2.6V | 07:24:00 | 00:00:00 | 00:00:00 | |
| OE5WHR-10 | 2026-09-02 01:41:33 | 48.39779 | 13.34360 | 97° | 49km/h | 5231m | -2.9m/s | -12.8°C | 43.1% | 538.9hPa | 2.6V | 07:24:00 | 00:00:00 | 00:00:00 | |
| OE5REO-15 | 2026-09-02 01:41:30 | 48.39782 | 13.34331 | 104° | 38km/h | 5237m | -3.0m/s | -12.9°C | 41.6% | 538.5hPa | 2.6V | 07:24:00 | 00:00:00 | 00:00:00 | |
| OE5MMP-10 | 2026-09-02 01:41:29 | 48.39788 | 13.34301 | 108° | 51km/h | 5243m | -2.8m/s | -12.9°C | 42.3% | 538.0hPa | 2.6V | 00:00:00 | 03:12:18 | 00:00:00 | |
| OE5FHM-15 | 2026-09-02 01:41:28 | 48.39791 | 13.34285 | 109° | 49km/h | 5246m | -3.0m/s | -12.9°C | 42.1% | 537.8hPa | 2.6V | 00:00:00 | 03:12:17 | 00:00:00 | |
| DG1MFX-10 | 2026-09-02 01:41:25 | 48.39799 | 13.34252 | 109° | 49km/h | 5252m | -3.2m/s | -13.0°C | 41.3% | 537.4hPa | 2.6V | 07:24:00 | 00:00:00 | 00:00:00 | |
| OE3JTB-15 | 2026-09-02 01:41:22 | 48.39813 | 13.34176 | 105° | 51km/h | 5265m | -3.2m/s | -13.0°C | 42.4% | 536.5hPa | 2.6V | 00:00:00 | 00:00:00 | 00:00:00 | |
| OE5HKT-10 | 2026-09-02 01:41:21 | 48.39816 | 13.34156 | 103° | 51km/h | 5268m | -3.0m/s | -13.0°C | 42.0% | 536.4hPa | 2.5V | 00:00:00 | 00:00:00 | 00:00:00 | |
| OE5MMP-10 | 2026-09-02 01:41:19 | 48.39822 | 13.34114 | 101° | 55km/h | 5274m | -3.2m/s | -13.0°C | 41.5% | 535.8hPa | 2.5V | 00:00:00 | 03:12:08 | 00:00:00 | |
| DO3MHA-11 | 2026-09-02 01:41:18 | 48.39825 | 13.34092 | 100° | 55km/h | 5277m | -3.4m/s | -13.0°C | 41.5% | 535.6hPa | 2.5V | 07:24:00 | 03:12:07 | 00:00:00 | |
| OE5WHR-10 | 2026-09-02 01:41:16 | 48.39828 | 13.34049 | 96° | 47km/h | 5284m | -3.0m/s | -13.1°C | 41.7% | 535.2hPa | 2.5V | 00:00:00 | 00:00:00 | 00:00:00 | |
| PG1ADW-2 | 2026-09-02 01:41:14 | 48.39830 | 13.34006 | 92° | 47km/h | 5290m | -3.2m/s | -13.1°C | 41.6% | 534.7hPa | 2.5V | 00:00:00 | 00:00:00 | 00:00:00 | |
| OE5DRO-10 | 2026-09-02 01:41:13 | 48.39830 | 13.33985 | 90° | 47km/h | 5293m | -3.0m/s | -13.1°C | 41.4% | 534.5hPa | 2.5V | 00:00:00 | 00:00:00 | 00:00:00 | |
| OE5MMP-10 | 2026-09-02 01:41:09 | 48.39827 | 13.33907 | 86° | 44km/h | 5306m | -2.9m/s | -13.2°C | 42.7% | 533.6hPa | 2.6V | 00:00:00 | 03:11:58 | 00:00:00 | |
| DO3MHA-11 | 2026-09-02 01:41:08 | 48.39827 | 13.33890 | 88° | 44km/h | 5309m | -3.0m/s | -13.2°C | 43.9% | 533.4hPa | 2.6V | 00:00:00 | 03:11:57 | 00:00:00 | |
| OE5HKT-10 | 2026-09-02 01:41:04 | 48.39829 | 13.33826 | 100° | 53km/h | 5320m | -2.9m/s | -13.3°C | 45.8% | 532.7hPa | 2.6V | 00:00:00 | 03:11:53 | 00:00:00 | |
| DG1MFX-10 | 2026-09-02 01:41:03 | 48.39829 | 13.33826 | 101° | 42km/h | 5320m | -3.0m/s | -13.4°C | 44.4% | 532.7hPa | 2.6V | 07:25:00 | 00:00:00 | 00:00:00 | |
| DL6DJ-15 | 2026-09-02 01:40:55 | 48.39875 | 13.33562 | 99° | 58km/h | 5364m | -3.0m/s | -13.8°C | 51.9% | 529.6hPa | 2.6V | 00:00:00 | 00:00:00 | 00:00:00 | |
| PG1ADW-2 | 2026-09-02 01:40:54 | 48.39862 | 13.33648 | 106° | 53km/h | 5352m | -3.3m/s | -13.6°C | 51.9% | 530.3hPa | 2.6V | 00:00:00 | 03:11:43 | 00:00:00 | |
| OE3JTB-15 | 2026-09-02 01:40:53 | 48.39866 | 13.33627 | 105° | 51km/h | 5355m | -3.2m/s | -13.6°C | 52.2% | 530.1hPa | 2.5V | 07:25:00 | 00:00:00 | 00:00:00 | |
| OE5MMP-10 | 2026-09-02 01:40:49 | 48.39877 | 13.33539 | 97° | 55km/h | 5367m | -3.1m/s | -13.7°C | 53.6% | 529.3hPa | 2.5V | 00:00:00 | 03:11:38 | 00:00:00 | |
| DO3MHA-11 | 2026-09-02 01:40:48 | 48.39878 | 13.33516 | 95° | 53km/h | 5371m | -3.1m/s | -13.8°C | 53.8% | 529.1hPa | 2.5V | 00:00:00 | 03:11:37 | 00:00:00 | |
| OE5HKT-10 | 2026-09-02 01:40:47 | 48.39879 | 13.33494 | 93° | 47km/h | 5374m | -3.1m/s | -13.8°C | 54.1% | 528.9hPa | 2.5V | 00:00:00 | 00:00:00 | 00:00:00 | |
| OE5REO-15 | 2026-09-02 01:40:43 | 48.39879 | 13.33429 | 89° | 55km/h | 5383m | -3.2m/s | -13.9°C | 54.6% | 528.3hPa | 2.5V | 07:25:00 | 00:00:00 | 00:00:00 | |
| OE5WHR-10 | 2026-09-02 01:40:42 | 48.39877 | 13.33388 | 87° | 47km/h | 5389m | -3.2m/s | -13.9°C | 61.0% | 527.8hPa | 2.5V | 00:00:00 | 00:00:00 | 00:00:00 | |
| OE5DRO-10 | 2026-09-02 01:40:41 | 48.39877 | 13.33369 | 88° | 47km/h | 5393m | -3.0m/s | -13.9°C | 64.2% | 527.7hPa | 2.6V | 00:00:00 | 00:00:00 | 00:00:00 | |
| OE5MMP-10 | 2026-09-02 01:40:39 | 48.39876 | 13.33333 | 90° | 44km/h | 5399m | -3.3m/s | -13.9°C | 69.6% | 527.2hPa | 2.6V | 00:00:00 | 03:11:28 | 00:00:00 | |
| DO3MHA-11 | 2026-09-02 01:40:38 | 48.39876 | 13.33316 | 92° | 44km/h | 5402m | -3.0m/s | -14.0°C | 70.6% | 526.9hPa | 2.5V | 00:00:00 | 03:11:27 | 00:00:00 | |
| PG1ADW-2 | 2026-09-02 01:40:34 | 48.39880 | 13.33250 | 100° | 53km/h | 5415m | -3.3m/s | -14.0°C | 71.8% | 526.0hPa | 2.5V | 00:00:00 | 00:00:00 | 00:00:00 | |
| OE5MMP-10 | 2026-09-02 01:40:29 | 48.39893 | 13.33169 | 108° | 53km/h | 5431m | -3.0m/s | -14.2°C | 73.1% | 524.9hPa | 2.5V | 00:00:00 | 03:11:18 | 00:00:00 | |
| DO3MHA-11 | 2026-09-02 01:40:28 | 48.39897 | 13.33151 | 108° | 55km/h | 5434m | -3.1m/s | -14.2°C | 73.4% | 524.8hPa | 2.5V | 00:00:00 | 03:11:17 | 00:00:00 | |
| OE5REO-15 | 2026-09-02 01:40:27 | 48.39897 | 13.33151 | 109° | 49km/h | 5434m | -3.1m/s | -14.3°C | 71.3% | 524.8hPa | 2.5V | 07:25:00 | 00:00:00 | 00:00:00 | |
| OE5HKT-10 | 2026-09-02 01:40:26 | 48.39905 | 13.33116 | 109° | 55km/h | 5440m | -3.2m/s | -14.2°C | 74.1% | 524.4hPa | 2.5V | 00:00:00 | 00:00:00 | 00:00:00 | |
| OE3JTB-15 | 2026-09-02 01:40:24 | 48.39913 | 13.33077 | 108° | 53km/h | 5446m | -3.0m/s | -14.3°C | 75.0% | 523.8hPa | 2.5V | 00:00:00 | 03:11:13 | 00:00:00 | |
| OE5DRO-10 | 2026-09-02 01:40:22 | 48.39921 | 13.33037 | 107° | 55km/h | 5453m | -3.2m/s | -14.3°C | 75.5% | 523.4hPa | 2.5V | 00:00:00 | 00:00:00 | 00:00:00 | |
| OE5WHR-10 | 2026-09-02 01:40:21 | 48.39925 | 13.33016 | 105° | 55km/h | 5456m | -3.2m/s | -14.4°C | 75.7% | 523.2hPa | 2.6V | 00:00:00 | 00:00:00 | 00:00:00 | |
| OE5MMP-10 | 2026-09-02 01:40:19 | 48.39932 | 13.32972 | 102° | 57km/h | 5462m | -2.9m/s | -14.4°C | 76.6% | 522.8hPa | 2.6V | 07:25:00 | 03:11:08 | 00:00:00 | |
| DO3MHA-11 | 2026-09-02 01:40:18 | 48.39935 | 13.32950 | 100° | 57km/h | 5465m | -3.0m/s | -14.4°C | 76.9% | 522.6hPa | 2.6V | 00:00:00 | 03:11:07 | 00:00:00 | |
| PG1ADW-2 | 2026-09-02 01:40:14 | 48.39941 | 13.32861 | 94° | 49km/h | 5478m | -3.0m/s | -14.5°C | 80.3% | 521.6hPa | 2.6V | 00:00:00 | 00:00:00 | 00:00:00 | |
| OE5REO-15 | 2026-09-02 01:40:12 | 48.39942 | 13.32839 | 93° | 57km/h | 5481m | -3.0m/s | -14.6°C | 78.5% | 521.5hPa | 2.6V | 07:26:00 | 00:00:00 | 00:00:00 | |
| OE5MMP-10 | 2026-09-02 01:40:09 | 48.39942 | 13.32756 | 89° | 49km/h | 5493m | -3.1m/s | -14.6°C | 82.2% | 520.6hPa | 2.6V | 00:00:00 | 03:10:58 | 00:00:00 | |
| DO3MHA-11 | 2026-09-02 01:40:08 | 48.39941 | 13.32737 | 89° | 47km/h | 5496m | -3.2m/s | -14.6°C | 82.6% | 520.4hPa | 2.5V | 00:00:00 | 03:10:57 | 00:00:00 | |
| OE5HKT-10 | 2026-09-02 01:40:05 | 48.39940 | 13.32679 | 88° | 44km/h | 5506m | -3.1m/s | -14.7°C | 82.8% | 519.8hPa | 2.5V | 00:00:00 | 03:10:54 | 00:00:00 | |
| OE5DRO-10 | 2026-09-02 01:40:03 | 48.39938 | 13.32642 | 88° | 44km/h | 5513m | -3.2m/s | -14.7°C | 82.5% | 519.3hPa | 2.5V | 07:26:00 | 00:00:00 | 00:00:00 | |
| DG1MFX-10 | 2026-09-02 01:40:01 | 48.39938 | 13.32623 | 88° | 47km/h | 5516m | -3.2m/s | -14.8°C | 80.0% | 519.1hPa | 2.5V | 07:26:00 | 00:00:00 | 00:00:00 | |
| OE5WHR-10 | 2026-09-02 01:40:00 | 48.39937 | 13.32588 | 88° | 46km/h | 5522m | -3.2m/s | -14.8°C | 82.0% | 518.5hPa | 2.5V | 00:00:00 | 03:10:49 | 00:00:00 | |
| OE5MMP-10 | 2026-09-02 01:39:59 | 48.39937 | 13.32572 | 89° | 42km/h | 5525m | -3.2m/s | -14.8°C | 81.9% | 518.4hPa | 2.5V | 00:00:00 | 03:10:48 | 00:00:00 | |
| OE5DXL-15 | 2026-09-02 01:39:58 | 48.39936 | 13.32555 | 90° | 47km/h | 5529m | -3.1m/s | -14.8°C | 81.6% | 518.2hPa | 2.5V | 00:00:00 | 00:00:00 | 00:00:00 | |
| OE5REO-15 | 2026-09-02 01:39:56 | 48.39937 | 13.32540 | 93° | 42km/h | 5532m | -3.2m/s | -14.9°C | 79.2% | 517.9hPa | 2.6V | 07:26:00 | 00:00:00 | 00:00:00 | |
| OE3JTB-15 | 2026-09-02 01:39:55 | 48.39938 | 13.32509 | 96° | 47km/h | 5538m | -3.1m/s | -14.9°C | 81.4% | 517.5hPa | 2.6V | 00:00:00 | 00:00:00 | 00:00:00 | |
| PG1ADW-2 | 2026-09-02 01:39:54 | 48.39939 | 13.32494 | 99° | 49km/h | 5541m | -3.1m/s | -14.9°C | 81.3% | 517.3hPa | 2.6V | 00:00:00 | 00:00:00 | 00:00:00 | |
| OE5MMP-10 | 2026-09-02 01:39:49 | 48.39952 | 13.32417 | 108° | 51km/h | 5557m | -3.2m/s | -15.1°C | 81.3% | 516.2hPa | 2.6V | 00:00:00 | 03:10:38 | 00:00:00 | |
| DO3MHA-11 | 2026-09-02 01:39:48 | 48.39956 | 13.32401 | 109° | 53km/h | 5560m | -3.1m/s | -15.1°C | 80.9% | 516.1hPa | 2.6V | 00:00:00 | 03:10:37 | 00:00:00 | |
| OE5HKT-10 | 2026-09-02 01:39:44 | 48.39971 | 13.32329 | 106° | 47km/h | 5573m | -3.3m/s | -15.2°C | 81.3% | 515.1hPa | 2.6V | 07:26:00 | 00:00:00 | 00:00:00 | |
| DG1MFX-10 | 2026-09-02 01:39:40 | 48.39979 | 13.32268 | 99° | 57km/h | 5582m | -3.1m/s | -15.3°C | 79.2% | 514.6hPa | 2.6V | 07:26:00 | 00:00:00 | 00:00:00 | |
| OE5WHR-10 | 2026-09-02 01:39:39 | 48.39982 | 13.32225 | 93° | 44km/h | 5589m | -3.0m/s | -15.3°C | 81.8% | 514.2hPa | 2.6V | 00:00:00 | 00:00:00 | 00:00:00 | |
| DO3MHA-11 | 2026-09-02 01:39:38 | 48.39982 | 13.32204 | 92° | 47km/h | 5592m | -3.3m/s | -15.4°C | 81.8% | 513.8hPa | 2.5V | 00:00:00 | 03:10:27 | 00:00:00 | |
| PG1ADW-2 | 2026-09-02 01:39:34 | 48.39981 | 13.32126 | 87° | 42km/h | 5605m | -3.3m/s | -15.5°C | 82.5% | 513.0hPa | 2.5V | 00:00:00 | 03:10:23 | 00:00:00 | |
| OE5MMP-10 | 2026-09-02 01:39:29 | 48.39976 | 13.32041 | 86° | 38km/h | 5621m | -3.4m/s | -15.6°C | 84.2% | 511.9hPa | 2.5V | 00:00:00 | 03:10:18 | 00:00:00 | |
| OE5DXL-15 | 2026-09-02 01:39:28 | 48.39976 | 13.32025 | 87° | 44km/h | 5624m | -3.4m/s | -15.6°C | 84.4% | 511.6hPa | 2.5V | 07:26:00 | 00:00:00 | 00:00:00 | |
| OE3JTB-15 | 2026-09-02 01:39:26 | 48.39975 | 13.31996 | 89° | 44km/h | 5631m | -3.4m/s | -15.7°C | 84.6% | 511.2hPa | 2.5V | 00:00:00 | 00:00:00 | 00:00:00 | |
| OE5DRO-10 | 2026-09-02 01:39:25 | 48.39975 | 13.31981 | 91° | 46km/h | 5635m | -3.3m/s | -15.7°C | 84.6% | 511.0hPa | 2.5V | 00:00:00 | 00:00:00 | 00:00:00 | |
| OE5REO-15 | 2026-09-02 01:39:24 | 48.39975 | 13.31981 | 91° | 37km/h | 5635m | -3.4m/s | -15.8°C | 82.1% | 511.0hPa | 2.6V | 07:27:00 | 00:00:00 | 00:00:00 | |
| OE5HKT-10 | 2026-09-02 01:39:23 | 48.39976 | 13.31954 | 98° | 46km/h | 5641m | -3.2m/s | -15.8°C | 85.0% | 510.5hPa | 2.6V | 00:00:00 | 00:00:00 | 00:00:00 | |
| DL6DJ-15 | 2026-09-02 01:39:22 | 48.39979 | 13.31927 | 104° | 37km/h | 5647m | -3.1m/s | -15.9°C | 83.6% | 510.0hPa | 2.6V | 00:00:00 | 00:00:00 | 00:00:00 | |
| OE5MMP-10 | 2026-09-02 01:39:19 | 48.39985 | 13.31898 | 110° | 49km/h | 5653m | -2.8m/s | -15.9°C | 87.7% | 509.6hPa | 2.6V | 00:00:00 | 03:10:08 | 00:00:00 | |
| OE5WHR-10 | 2026-09-02 01:39:18 | 48.39989 | 13.31882 | 109° | 46km/h | 5656m | -3.1m/s | -15.9°C | 88.2% | 509.4hPa | 2.6V | 00:00:00 | 00:00:00 | 00:00:00 | |
| PG1ADW-2 | 2026-09-02 01:39:14 | 48.40002 | 13.31809 | 100° | 42km/h | 5669m | -3.1m/s | -16.0°C | 88.4% | 508.6hPa | 2.6V | 00:00:00 | 00:00:00 | 00:00:00 | |
| OE5MMP-10 | 2026-09-02 01:39:09 | 48.40006 | 13.31711 | 89° | 42km/h | 5685m | -3.3m/s | -16.1°C | 88.1% | 507.5hPa | 2.6V | 00:00:00 | 03:09:58 | 00:00:00 | |
| DO3MHA-11 | 2026-09-02 01:39:08 | 48.40005 | 13.31692 | 87° | 40km/h | 5688m | -3.2m/s | -16.1°C | 87.6% | 507.2hPa | 2.6V | 00:00:00 | 03:09:57 | 00:00:00 | |
| OE5DRO-10 | 2026-09-02 01:39:06 | 48.40003 | 13.31656 | 84° | 40km/h | 5695m | -3.3m/s | -16.2°C | 87.5% | 506.8hPa | 2.6V | 00:00:00 | 00:00:00 | 00:00:00 | |
| DL6DJ-15 | 2026-09-02 01:38:51 | 48.40015 | 13.31442 | 104° | 46km/h | 5744m | -3.2m/s | -16.5°C | 81.1% | 503.6hPa | 2.6V | 00:00:00 | 00:00:00 | 00:00:00 | |
| OE5MMP-10 | 2026-09-02 01:38:49 | 48.40020 | 13.31408 | 102° | 49km/h | 5751m | -3.3m/s | -16.5°C | 83.4% | 503.1hPa | 2.6V | 00:00:00 | 03:09:38 | 00:00:00 | |
| DO3MHA-11 | 2026-09-02 01:38:48 | 48.40022 | 13.31389 | 100° | 49km/h | 5754m | -3.1m/s | -16.5°C | 82.6% | 502.9hPa | 2.6V | 00:00:00 | 03:09:37 | 00:00:00 | |
| OE5DRO-10 | 2026-09-02 01:38:47 | 48.40024 | 13.31371 | 98° | 42km/h | 5758m | -3.1m/s | -16.5°C | 82.4% | 502.7hPa | 2.6V | 00:00:00 | 00:00:00 | 00:00:00 | |
| OE5HKT-10 | 2026-09-02 01:38:41 | 48.40027 | 13.31258 | 87° | 38km/h | 5777m | -3.2m/s | -16.7°C | 83.2% | 501.4hPa | 2.6V | 00:00:00 | 00:00:00 | 00:00:00 | |
| OE5MMP-10 | 2026-09-02 01:38:39 | 48.40025 | 13.31222 | 84° | 38km/h | 5784m | -3.4m/s | -16.7°C | 83.6% | 501.0hPa | 2.6V | 00:00:00 | 03:09:28 | 00:00:00 | |
| DO3MHA-11 | 2026-09-02 01:38:38 | 48.40023 | 13.31205 | 83° | 37km/h | 5787m | -3.4m/s | -16.8°C | 83.5% | 500.6hPa | 2.6V | 07:27:00 | 03:09:27 | 00:00:00 | |
| OE5WHR-10 | 2026-09-02 01:38:36 | 48.40020 | 13.31173 | 81° | 38km/h | 5794m | -3.4m/s | -16.8°C | 83.6% | 500.2hPa | 2.6V | 00:00:00 | 00:00:00 | 00:00:00 | |
| PG1ADW-2 | 2026-09-02 01:38:34 | 48.40017 | 13.31143 | 81° | 38km/h | 5801m | -3.4m/s | -16.9°C | 83.6% | 499.8hPa | 2.6V | 00:00:00 | 00:00:00 | 00:00:00 | |
| OE5MMP-10 | 2026-09-02 01:38:29 | 48.40013 | 13.31081 | 93° | 37km/h | 5817m | -3.2m/s | -17.0°C | 83.7% | 498.6hPa | 2.6V | 00:00:00 | 03:09:18 | 00:00:00 | |
| DO3MHA-11 | 2026-09-02 01:38:28 | 48.40014 | 13.31069 | 97° | 37km/h | 5821m | -3.3m/s | -17.1°C | 84.0% | 498.5hPa | 2.6V | 00:00:00 | 03:09:17 | 00:00:00 | |
| OE5REO-15 | 2026-09-02 01:38:22 | 48.40024 | 13.31007 | 108° | 38km/h | 5838m | -3.5m/s | -17.3°C | 82.4% | 497.4hPa | 2.5V | 07:28:00 | 00:00:00 | 00:00:00 | |
| OE5HKT-10 | 2026-09-02 01:38:20 | 48.40033 | 13.30963 | 106° | 40km/h | 5848m | -3.2m/s | -17.3°C | 85.3% | 496.6hPa | 2.5V | 00:00:00 | 00:00:00 | 00:00:00 | |
| OE5MMP-10 | 2026-09-02 01:38:19 | 48.40036 | 13.30947 | 105° | 46km/h | 5852m | -3.3m/s | -17.3°C | 85.6% | 496.4hPa | 2.5V | 00:00:00 | 03:09:08 | 00:00:00 | |
| DO3MHA-11 | 2026-09-02 01:38:18 | 48.40038 | 13.30930 | 103° | 46km/h | 5855m | -3.3m/s | -17.4°C | 85.6% | 496.3hPa | 2.5V | 00:00:00 | 03:09:07 | 00:00:00 | |
| OE5WHR-10 | 2026-09-02 01:38:15 | 48.40044 | 13.30877 | 95° | 37km/h | 5865m | -3.4m/s | -17.4°C | 85.3% | 495.5hPa | 2.5V | 00:00:00 | 00:00:00 | 00:00:00 | |
| PG1ADW-2 | 2026-09-02 01:38:14 | 48.40044 | 13.30858 | 92° | 37km/h | 5869m | -3.2m/s | -17.5°C | 85.4% | 495.3hPa | 2.5V | 00:00:00 | 03:09:03 | 00:00:00 | |
| OE5MMP-10 | 2026-09-02 01:38:09 | 48.40039 | 13.30772 | 80° | 33km/h | 5885m | -3.2m/s | -17.6°C | 84.9% | 494.2hPa | 2.5V | 00:00:00 | 03:08:58 | 00:00:00 | |
| DO3MHA-11 | 2026-09-02 01:38:08 | 48.40037 | 13.30757 | 79° | 33km/h | 5889m | -3.4m/s | -17.7°C | 84.9% | 494.0hPa | 2.6V | 00:00:00 | 03:08:57 | 00:00:00 | |
| OE5REO-15 | 2026-09-02 01:38:06 | 48.40035 | 13.30743 | 78° | 38km/h | 5892m | -3.4m/s | -17.7°C | 82.2% | 493.8hPa | 2.6V | 07:28:00 | 00:00:00 | 00:00:00 | |
| OE5MMP-10 | 2026-09-02 01:37:59 | 48.40027 | 13.30648 | 95° | 37km/h | 5920m | -3.5m/s | -17.9°C | 86.6% | 492.0hPa | 2.6V | 00:00:00 | 03:08:48 | 00:00:00 | |
| OE5DXL-15 | 2026-09-02 01:37:58 | 48.40028 | 13.30637 | 99° | 38km/h | 5923m | -3.6m/s | -18.0°C | 86.7% | 491.7hPa | 2.6V | 00:00:00 | 00:00:00 | 00:00:00 | |
| OE5DRO-10 | 2026-09-02 01:37:50 | 48.40044 | 13.30526 | 97° | 42km/h | 5949m | -3.2m/s | -18.2°C | 87.5% | 490.0hPa | 2.6V | 00:00:00 | 00:00:00 | 00:00:00 | |
| OE5MMP-10 | 2026-09-02 01:37:49 | 48.40045 | 13.30509 | 96° | 46km/h | 5953m | -3.6m/s | -18.3°C | 87.5% | 489.7hPa | 2.6V | 00:00:00 | 03:08:38 | 00:00:00 | |
| DO3MHA-11 | 2026-09-02 01:37:48 | 48.40046 | 13.30491 | 93° | 46km/h | 5956m | -3.5m/s | -18.3°C | 87.6% | 489.5hPa | 2.6V | 00:00:00 | 03:08:37 | 00:00:00 | |
| OE5MMP-10 | 2026-09-02 01:37:39 | 48.40037 | 13.30335 | 77° | 35km/h | 5989m | -3.4m/s | -18.6°C | 88.7% | 487.4hPa | 2.6V | 07:28:00 | 03:08:28 | 00:00:00 | |
| DO3MHA-11 | 2026-09-02 01:37:38 | 48.40035 | 13.30320 | 76° | 33km/h | 5992m | -3.3m/s | -18.6°C | 88.9% | 487.1hPa | 2.6V | 00:00:00 | 03:08:27 | 00:00:00 | |
| DG1MFX-10 | 2026-09-02 01:37:37 | 48.40035 | 13.30320 | 76° | 40km/h | 5992m | -3.4m/s | -18.6°C | 86.0% | 487.2hPa | 2.6V | 07:29:00 | 00:00:00 | 00:00:00 | |
| OE5REO-15 | 2026-09-02 01:37:35 | 48.40030 | 13.30293 | 77° | 35km/h | 5999m | -3.2m/s | -18.7°C | 86.1% | 486.7hPa | 2.6V | 07:29:00 | 00:00:00 | 00:00:00 | |
| PG1ADW-2 | 2026-09-02 01:37:34 | 48.40027 | 13.30269 | 82° | 38km/h | 6005m | -3.4m/s | -18.7°C | 89.2% | 486.3hPa | 2.6V | 00:00:00 | 00:00:00 | 00:00:00 | |
| OE5WHR-10 | 2026-09-02 01:37:33 | 48.40026 | 13.30258 | 88° | 40km/h | 6009m | -3.2m/s | -18.7°C | 88.7% | 486.0hPa | 2.6V | 00:00:00 | 00:00:00 | 00:00:00 | |
| OE5DRO-10 | 2026-09-02 01:37:31 | 48.40027 | 13.30234 | 96° | 40km/h | 6016m | -3.5m/s | -18.8°C | 87.2% | 485.6hPa | 2.6V | 07:28:00 | 00:00:00 | 00:00:00 | |
| OE3JTB-15 | 2026-09-02 01:37:30 | 48.40028 | 13.30222 | 98° | 44km/h | 6019m | -3.3m/s | -18.8°C | 85.6% | 485.5hPa | 2.5V | 00:00:00 | 03:08:19 | 00:00:00 | |
| OE5MMP-10 | 2026-09-02 01:37:29 | 48.40029 | 13.30209 | 100° | 38km/h | 6023m | -3.5m/s | -18.7°C | 82.6% | 485.2hPa | 2.5V | 00:00:00 | 03:08:18 | 00:00:00 | |
| DO3MHA-11 | 2026-09-02 01:37:28 | 48.40030 | 13.30197 | 101° | 38km/h | 6026m | -3.5m/s | -18.7°C | 80.7% | 485.0hPa | 2.5V | 00:00:00 | 03:08:17 | 00:00:00 | |
| OE5REO-15 | 2026-09-02 01:37:20 | 48.40044 | 13.30100 | 104° | 42km/h | 6052m | -3.6m/s | -18.7°C | 70.8% | 483.3hPa | 2.6V | 07:29:00 | 00:00:00 | 00:00:00 | |
| OE5MMP-10 | 2026-09-02 01:37:19 | 48.40049 | 13.30068 | 102° | 49km/h | 6059m | -3.6m/s | -18.6°C | 72.1% | 482.7hPa | 2.6V | 00:00:00 | 03:08:08 | 00:00:00 | |
| DO3MHA-11 | 2026-09-02 01:37:18 | 48.40051 | 13.30051 | 101° | 49km/h | 6063m | -3.7m/s | -18.7°C | 71.1% | 482.5hPa | 2.6V | 07:28:00 | 03:08:07 | 00:00:00 | |
| OE5HKT-10 | 2026-09-02 01:37:17 | 48.40053 | 13.30034 | 100° | 46km/h | 6066m | -3.8m/s | -18.7°C | 70.1% | 482.3hPa | 2.6V | 00:00:00 | 00:00:00 | 00:00:00 | |
| PG1ADW-2 | 2026-09-02 01:37:14 | 48.40059 | 13.29979 | 99° | 44km/h | 6078m | -3.9m/s | -18.7°C | 67.2% | 481.6hPa | 2.6V | 00:00:00 | 00:00:00 | 00:00:00 | |
| OE5WHR-10 | 2026-09-02 01:37:12 | 48.40062 | 13.29940 | 95° | 44km/h | 6085m | -3.4m/s | -18.7°C | 66.1% | 481.1hPa | 2.6V | 00:00:00 | 00:00:00 | 00:00:00 | |
| OE5MMP-10 | 2026-09-02 01:37:09 | 48.40063 | 13.29881 | 88° | 44km/h | 6096m | -3.5m/s | -18.8°C | 66.2% | 480.4hPa | 2.6V | 00:00:00 | 03:07:58 | 00:00:00 | |
| DO3MHA-11 | 2026-09-02 01:37:08 | 48.40062 | 13.29862 | 85° | 42km/h | 6099m | -3.4m/s | -18.8°C | 66.5% | 480.2hPa | 2.6V | 00:00:00 | 03:07:57 | 00:00:00 | |
| OE5REO-15 | 2026-09-02 01:37:04 | 48.40056 | 13.29808 | 81° | 44km/h | 6110m | -3.5m/s | -18.9°C | 62.9% | 479.6hPa | 2.6V | 07:29:00 | 00:00:00 | 00:00:00 | |
| DL6DJ-15 | 2026-09-02 01:36:47 | 48.40084 | 13.29516 | 97° | 53km/h | 6173m | -3.6m/s | -18.5°C | 41.9% | 475.6hPa | 2.6V | 00:00:00 | 00:00:00 | 00:00:00 | |
| OE5MMP-10 | 2026-09-02 01:36:39 | 48.40084 | 13.29347 | 83° | 47km/h | 6202m | -3.7m/s | -18.4°C | 37.4% | 473.6hPa | 2.6V | 00:00:00 | 03:07:28 | 00:00:00 | |
| DO3MHA-11 | 2026-09-02 01:36:38 | 48.40082 | 13.29327 | 81° | 46km/h | 6206m | -3.9m/s | -18.4°C | 37.5% | 473.3hPa | 2.6V | 00:00:00 | 03:07:27 | 00:00:00 | |
| OE5HKT-10 | 2026-09-02 01:36:35 | 48.40074 | 13.29270 | 79° | 49km/h | 6217m | -3.7m/s | -18.5°C | 37.5% | 472.7hPa | 2.6V | 00:00:00 | 00:00:00 | 00:00:00 | |
| PG1ADW-2 | 2026-09-02 01:36:34 | 48.40072 | 13.29252 | 78° | 49km/h | 6221m | -3.7m/s | -18.6°C | 37.2% | 472.4hPa | 2.5V | 00:00:00 | 00:00:00 | 00:00:00 | |
| OE3JTB-15 | 2026-09-02 01:36:32 | 48.40067 | 13.29219 | 80° | 47km/h | 6228m | -3.6m/s | -18.6°C | 36.2% | 472.0hPa | 2.5V | 00:00:00 | 00:00:00 | 00:00:00 | |
| DG1MFX-10 | 2026-09-02 01:36:31 | 48.40067 | 13.29219 | 81° | 42km/h | 6228m | -3.6m/s | -18.6°C | 34.6% | 472.0hPa | 2.5V | 07:30:00 | 00:00:00 | 00:00:00 | |
| OE5WHR-10 | 2026-09-02 01:36:30 | 48.40065 | 13.29188 | 88° | 51km/h | 6235m | -3.4m/s | -18.5°C | 34.7% | 471.5hPa | 2.5V | 00:00:00 | 00:00:00 | 00:00:00 | |
| OE5MMP-10 | 2026-09-02 01:36:29 | 48.40065 | 13.29173 | 92° | 49km/h | 6238m | -3.4m/s | -18.6°C | 34.5% | 471.3hPa | 2.6V | 00:00:00 | 03:07:18 | 00:00:00 | |
| DO3MHA-11 | 2026-09-02 01:36:28 | 48.40065 | 13.29158 | 96° | 51km/h | 6242m | -3.6m/s | -18.6°C | 33.9% | 471.2hPa | 2.6V | 00:00:00 | 03:07:17 | 00:00:00 | |
| OE5MMP-10 | 2026-09-02 01:36:19 | 48.40076 | 13.28985 | 88° | 53km/h | 6273m | -3.5m/s | -18.4°C | 26.3% | 469.1hPa | 2.5V | 07:29:00 | 03:07:08 | 00:00:00 | |
| DO3MHA-11 | 2026-09-02 01:36:18 | 48.40075 | 13.28964 | 86° | 53km/h | 6277m | -3.6m/s | -18.4°C | 25.5% | 468.9hPa | 2.5V | 00:00:00 | 03:07:07 | 00:00:00 | |
| DL6DJ-15 | 2026-09-02 01:36:16 | 48.40072 | 13.28921 | 81° | 55km/h | 6284m | -3.5m/s | -18.4°C | 22.7% | 468.4hPa | 2.5V | 00:00:00 | 00:00:00 | 00:00:00 | |
| OE5DRO-10 | 2026-09-02 01:36:15 | 48.40069 | 13.28900 | 80° | 44km/h | 6288m | -3.5m/s | -18.3°C | 23.7% | 468.2hPa | 2.5V | 00:00:00 | 00:00:00 | 00:00:00 | |
| PG1ADW-2 | 2026-09-02 01:36:14 | 48.40067 | 13.28880 | 79° | 42km/h | 6291m | -3.5m/s | -18.4°C | 23.7% | 467.9hPa | 2.5V | 07:30:00 | 00:00:00 | 00:00:00 | |
| DG1MFX-10 | 2026-09-02 01:36:10 | 48.40057 | 13.28823 | 76° | 47km/h | 6302m | -3.5m/s | -18.4°C | 21.5% | 467.4hPa | 2.5V | 07:30:00 | 00:00:00 | 00:00:00 | |
| OE5WHR-10 | 2026-09-02 01:36:09 | 48.40051 | 13.28788 | 76° | 40km/h | 6309m | -3.5m/s | -18.4°C | 21.5% | 466.8hPa | 2.5V | 07:30:00 | 00:00:00 | 00:00:00 | |
| DO3MHA-11 | 2026-09-02 01:36:08 | 48.40049 | 13.28772 | 76° | 40km/h | 6312m | -3.7m/s | -18.3°C | 19.4% | 466.7hPa | 2.5V | 00:00:00 | 03:06:57 | 00:00:00 | |
| OE3JTB-15 | 2026-09-02 01:36:03 | 48.40038 | 13.28697 | 85° | 42km/h | 6330m | -3.6m/s | -18.3°C | 17.0% | 465.6hPa | 2.5V | 00:00:00 | 03:06:52 | 00:00:00 | |
| DL6DJ-15 | 2026-09-02 01:35:45 | 48.40053 | 13.28426 | 101° | 40km/h | 6395m | -3.6m/s | -18.8°C | 15.5% | 461.6hPa | 2.5V | 00:00:00 | 00:00:00 | 00:00:00 | |
| OE5MMP-10 | 2026-09-02 01:35:39 | 48.40070 | 13.28327 | 108° | 55km/h | 6416m | -3.5m/s | -18.8°C | 15.8% | 460.2hPa | 2.5V | 00:00:00 | 03:06:28 | 00:00:00 | |
| DO3MHA-11 | 2026-09-02 01:35:38 | 48.40074 | 13.28309 | 108° | 57km/h | 6420m | -3.6m/s | -18.8°C | 15.7% | 460.0hPa | 2.6V | 00:00:00 | 03:06:27 | 00:00:00 | |
| OE5DRO-10 | 2026-09-02 01:35:37 | 48.40077 | 13.28291 | 108° | 60km/h | 6423m | -3.6m/s | -18.8°C | 15.4% | 459.7hPa | 2.6V | 00:00:00 | 00:00:00 | 00:00:00 | |
| PG1ADW-2 | 2026-09-02 01:35:34 | 48.40090 | 13.28232 | 107° | 60km/h | 6435m | -3.5m/s | -18.9°C | 15.2% | 459.1hPa | 2.5V | 00:00:00 | 03:06:23 | 00:00:00 | |
| OE5HKT-10 | 2026-09-02 01:35:32 | 48.40097 | 13.28190 | 105° | 58km/h | 6442m | -3.5m/s | -18.9°C | 15.0% | 458.6hPa | 2.5V | 00:00:00 | 00:00:00 | 00:00:00 | |
| OE5REO-15 | 2026-09-02 01:35:30 | 48.40101 | 13.28169 | 104° | 58km/h | 6445m | -3.6m/s | -19.0°C | 13.6% | 458.4hPa | 2.5V | 07:30:00 | 00:00:00 | 00:00:00 | |
| OE5MMP-10 | 2026-09-02 01:35:29 | 48.40107 | 13.28124 | 102° | 62km/h | 6453m | -3.7m/s | -18.9°C | 13.8% | 458.0hPa | 2.5V | 00:00:00 | 03:06:18 | 00:00:00 | |
| OE5DXL-15 | 2026-09-02 01:35:28 | 48.40110 | 13.28101 | 101° | 55km/h | 6456m | -3.7m/s | -18.9°C | 13.6% | 457.7hPa | 2.5V | 07:30:00 | 00:00:00 | 00:00:00 | |
| OE5WHR-10 | 2026-09-02 01:35:27 | 48.40113 | 13.28077 | 99° | 55km/h | 6460m | -3.6m/s | -18.9°C | 13.4% | 457.5hPa | 2.5V | 00:00:00 | 00:00:00 | 00:00:00 | |
| OE5MMP-10 | 2026-09-02 01:35:19 | 48.40122 | 13.27890 | 90° | 53km/h | 6489m | -3.6m/s | -19.1°C | 12.9% | 455.8hPa | 2.6V | 00:00:00 | 03:06:08 | 00:00:00 | |
| DO3MHA-11 | 2026-09-02 01:35:18 | 48.40121 | 13.27867 | 89° | 51km/h | 6493m | -3.6m/s | -19.1°C | 12.7% | 455.5hPa | 2.6V | 00:00:00 | 03:06:07 | 00:00:00 | |
| PG1ADW-2 | 2026-09-02 01:35:14 | 48.40119 | 13.27783 | 87° | 53km/h | 6507m | -3.5m/s | -19.0°C | 12.0% | 454.6hPa | 2.6V | 00:00:00 | 00:00:00 | 00:00:00 | |
| OE5HKT-10 | 2026-09-02 01:35:11 | 48.40117 | 13.27726 | 89° | 55km/h | 6518m | -3.5m/s | -19.1°C | 11.6% | 454.0hPa | 2.6V | 00:00:00 | 00:00:00 | 00:00:00 | |
| OE5MMP-10 | 2026-09-02 01:35:09 | 48.40117 | 13.27690 | 92° | 49km/h | 6525m | -3.4m/s | -19.1°C | 11.5% | 453.6hPa | 2.6V | 00:00:00 | 03:05:58 | 00:00:00 | |
| DO3MHA-11 | 2026-09-02 01:35:08 | 48.40117 | 13.27673 | 94° | 51km/h | 6529m | -3.4m/s | -19.1°C | 11.4% | 453.4hPa | 2.6V | 00:00:00 | 03:05:57 | 00:00:00 | |
| OE3JTB-15 | 2026-09-02 01:35:05 | 48.40122 | 13.27620 | 103° | 57km/h | 6539m | -3.2m/s | -19.1°C | 11.2% | 452.8hPa | 2.6V | 00:00:00 | 00:00:00 | 00:00:00 | |
| OE5MMP-10 | 2026-09-02 01:34:59 | 48.40142 | 13.27504 | 106° | 62km/h | 6559m | -3.7m/s | -19.3°C | 11.0% | 451.6hPa | 2.6V | 07:31:00 | 03:05:48 | 00:00:00 | |
| OE5FHM-15 | 2026-09-02 01:34:58 | 48.40147 | 13.27482 | 105° | 57km/h | 6563m | -3.5m/s | -19.3°C | 10.9% | 451.4hPa | 2.6V | 00:00:00 | 03:05:47 | 00:00:00 | |
| PG1ADW-2 | 2026-09-02 01:34:54 | 48.40160 | 13.27392 | 101° | 57km/h | 6578m | -3.5m/s | -19.4°C | 10.7% | 450.4hPa | 2.5V | 00:00:00 | 00:00:00 | 00:00:00 | |
| OE5HKT-10 | 2026-09-02 01:34:50 | 48.40169 | 13.27294 | 93° | 53km/h | 6591m | -3.4m/s | -19.4°C | 10.3% | 449.6hPa | 2.5V | 00:00:00 | 03:05:39 | 00:00:00 | |
| OE5MMP-10 | 2026-09-02 01:34:49 | 48.40169 | 13.27269 | 91° | 57km/h | 6594m | -3.2m/s | -19.4°C | 10.2% | 449.4hPa | 2.5V | 00:00:00 | 03:05:38 | 00:00:00 | |
| DO3MHA-11 | 2026-09-02 01:34:48 | 48.40169 | 13.27245 | 89° | 57km/h | 6597m | -3.1m/s | -19.4°C | 10.1% | 449.2hPa | 2.5V | 00:00:00 | 03:05:37 | 00:00:00 | |
| OE5WHR-10 | 2026-09-02 01:34:45 | 48.40166 | 13.27176 | 86° | 53km/h | 6607m | -3.2m/s | -19.5°C | 9.9% | 448.6hPa | 2.5V | 00:00:00 | 03:05:34 | 00:00:00 | |
| DL6DJ-15 | 2026-09-02 01:34:43 | 48.40163 | 13.27113 | 85° | 51km/h | 6616m | -3.2m/s | -19.6°C | 9.1% | 448.1hPa | 2.5V | 00:00:00 | 00:00:00 | 00:00:00 | |
| OE5DRO-10 | 2026-09-02 01:34:40 | 48.40161 | 13.27074 | 87° | 55km/h | 6623m | -3.4m/s | -19.6°C | 9.7% | 447.6hPa | 2.5V | 00:00:00 | 00:00:00 | 00:00:00 | |
| OE5MMP-10 | 2026-09-02 01:34:39 | 48.40160 | 13.27055 | 88° | 49km/h | 6627m | -3.4m/s | -19.6°C | 9.6% | 447.5hPa | 2.5V | 00:00:00 | 03:05:28 | 00:00:00 | |
| DO3MHA-11 | 2026-09-02 01:34:38 | 48.40160 | 13.27037 | 90° | 49km/h | 6630m | -3.4m/s | -19.6°C | 9.3% | 447.1hPa | 2.5V | 07:31:00 | 03:05:27 | 00:00:00 | |
| OE3JTB-15 | 2026-09-02 01:34:36 | 48.40161 | 13.27001 | 94° | 58km/h | 6637m | -3.4m/s | -19.5°C | 8.8% | 446.8hPa | 2.5V | 00:00:00 | 03:05:25 | 00:00:00 | |
| PG1ADW-2 | 2026-09-02 01:34:34 | 48.40164 | 13.26966 | 100° | 60km/h | 6644m | -3.5m/s | -19.5°C | 8.6% | 446.4hPa | 2.5V | 00:00:00 | 00:00:00 | 00:00:00 | |
| OE5HKT-10 | 2026-09-02 01:34:29 | 48.40179 | 13.26871 | 105° | 62km/h | 6660m | -3.1m/s | -19.7°C | 8.7% | 445.4hPa | 2.5V | 00:00:00 | 00:00:00 | 00:00:00 | |
| OE5FHM-15 | 2026-09-02 01:34:28 | 48.40182 | 13.26849 | 104° | 57km/h | 6664m | -3.1m/s | -19.7°C | 8.8% | 445.2hPa | 2.6V | 00:00:00 | 03:05:17 | 00:00:00 | |
| OE5REO-15 | 2026-09-02 01:34:27 | 48.40182 | 13.26849 | 105° | 60km/h | 6664m | -3.2m/s | -19.8°C | 8.1% | 445.2hPa | 2.6V | 07:32:00 | 00:00:00 | 00:00:00 | |
| OE5WHR-10 | 2026-09-02 01:34:24 | 48.40194 | 13.26755 | 98° | 58km/h | 6676m | -3.1m/s | -19.8°C | 8.7% | 444.4hPa | 2.6V | 00:00:00 | 00:00:00 | 00:00:00 | |
| OE5DRO-10 | 2026-09-02 01:34:21 | 48.40199 | 13.26681 | 94° | 57km/h | 6686m | -3.3m/s | -19.9°C | 8.7% | 443.9hPa | 2.6V | 00:00:00 | 00:00:00 | 00:00:00 | |
| OE5MMP-10 | 2026-09-02 01:34:19 | 48.40200 | 13.26631 | 92° | 60km/h | 6693m | -3.4m/s | -19.9°C | 8.6% | 443.5hPa | 2.6V | 00:00:00 | 03:05:08 | 00:00:00 | |
| DO3MHA-11 | 2026-09-02 01:34:18 | 48.40200 | 13.26607 | 91° | 55km/h | 6696m | -3.2m/s | -19.9°C | 8.6% | 443.2hPa | 2.6V | 00:00:00 | 03:05:07 | 00:00:00 | |
| PG1ADW-2 | 2026-09-02 01:34:14 | 48.40197 | 13.26511 | 85° | 53km/h | 6710m | -3.4m/s | -19.9°C | 8.4% | 442.4hPa | 2.6V | 00:00:00 | 03:05:03 | 00:00:00 | |
| OE5REO-15 | 2026-09-02 01:34:11 | 48.40194 | 13.26466 | 84° | 58km/h | 6716m | -3.3m/s | -20.0°C | 7.6% | 442.0hPa | 2.6V | 07:32:00 | 00:00:00 | 00:00:00 | |
| OE5MMP-10 | 2026-09-02 01:34:09 | 48.40188 | 13.26404 | 82° | 47km/h | 6726m | -3.2m/s | -20.0°C | 8.2% | 441.4hPa | 2.6V | 00:00:00 | 03:04:58 | 00:00:00 | |
| OE5HKT-10 | 2026-09-02 01:34:08 | 48.40186 | 13.26385 | 83° | 57km/h | 6729m | -3.3m/s | -20.0°C | 8.1% | 441.2hPa | 2.6V | 07:32:00 | 00:00:00 | 00:00:00 | |
| OE3JTB-15 | 2026-09-02 01:34:07 | 48.40185 | 13.26367 | 84° | 55km/h | 6732m | -3.2m/s | -20.0°C | 8.1% | 441.0hPa | 2.6V | 00:00:00 | 00:00:00 | 00:00:00 | |
| OE5WHR-10 | 2026-09-02 01:34:03 | 48.40185 | 13.26298 | 97° | 58km/h | 6745m | -3.3m/s | -20.1°C | 8.1% | 440.2hPa | 2.6V | 00:00:00 | 00:00:00 | 00:00:00 | |
| OE5DRO-10 | 2026-09-02 01:34:02 | 48.40186 | 13.26280 | 99° | 58km/h | 6748m | -3.1m/s | -20.2°C | 8.1% | 440.1hPa | 2.6V | 00:00:00 | 00:00:00 | 00:00:00 | |
| OE5MMP-10 | 2026-09-02 01:33:59 | 48.40193 | 13.26222 | 100° | 62km/h | 6757m | -3.1m/s | -20.2°C | 8.0% | 439.6hPa | 2.6V | 00:00:00 | 03:04:48 | 00:00:00 | |
| OE5FHM-15 | 2026-09-02 01:33:58 | 48.40195 | 13.26200 | 100° | 53km/h | 6761m | -3.3m/s | -20.2°C | 8.0% | 439.4hPa | 2.6V | 00:00:00 | 03:04:47 | 00:00:00 | |
| OE5REO-15 | 2026-09-02 01:33:55 | 48.40200 | 13.26155 | 98° | 62km/h | 6767m | -3.3m/s | -20.3°C | 7.3% | 439.0hPa | 2.6V | 07:32:00 | 00:00:00 | 00:00:00 | |
| PG1ADW-2 | 2026-09-02 01:33:54 | 48.40203 | 13.26108 | 95° | 55km/h | 6774m | -3.4m/s | -20.3°C | 8.0% | 438.6hPa | 2.6V | 00:00:00 | 00:00:00 | 00:00:00 | |
| OE5MMP-10 | 2026-09-02 01:33:49 | 48.40202 | 13.25986 | 85° | 55km/h | 6790m | -3.2m/s | -20.4°C | 8.0% | 437.7hPa | 2.6V | 00:00:00 | 03:04:38 | 00:00:00 | |
| OE5HKT-10 | 2026-09-02 01:33:47 | 48.40198 | 13.25940 | 82° | 47km/h | 6796m | -3.0m/s | -20.5°C | 8.1% | 437.3hPa | 2.6V | 00:00:00 | 03:04:36 | 00:00:00 | |
| OE5DRO-10 | 2026-09-02 01:33:43 | 48.40188 | 13.25856 | 79° | 47km/h | 6808m | -3.1m/s | -20.6°C | 8.7% | 436.6hPa | 2.6V | 00:00:00 | 00:00:00 | 00:00:00 | |
| OE5WHR-10 | 2026-09-02 01:33:42 | 48.40185 | 13.25836 | 80° | 47km/h | 6811m | -3.1m/s | -20.6°C | 8.7% | 436.4hPa | 2.6V | 00:00:00 | 03:04:31 | 00:00:00 | |
| OE5REO-15 | 2026-09-02 01:33:40 | 48.40183 | 13.25818 | 81° | 49km/h | 6814m | -3.2m/s | -20.7°C | 8.1% | 436.3hPa | 2.6V | 07:32:00 | 00:00:00 | 00:00:00 | |
| OE5MMP-10 | 2026-09-02 01:33:39 | 48.40179 | 13.25782 | 82° | 44km/h | 6821m | -3.3m/s | -20.7°C | 9.1% | 435.8hPa | 2.6V | 07:32:00 | 03:04:28 | 00:00:00 | |
| OE3JTB-15 | 2026-09-02 01:33:38 | 48.40177 | 13.25764 | 83° | 51km/h | 6824m | -3.4m/s | -20.7°C | 9.3% | 435.5hPa | 2.6V | 00:00:00 | 00:00:00 | 00:00:00 | |
| PG1ADW-2 | 2026-09-02 01:33:34 | 48.40172 | 13.25680 | 90° | 53km/h | 6840m | -3.2m/s | -20.8°C | 9.2% | 434.6hPa | 2.6V | 07:32:00 | 00:00:00 | 00:00:00 | |
| DO3MHA-11 | 2026-09-02 01:33:31 | 48.40173 | 13.25647 | 94° | 49km/h | 6847m | -3.1m/s | -20.9°C | 9.1% | 434.3hPa | 2.6V | 00:00:00 | 03:04:20 | 00:00:00 | |
| OE5MMP-10 | 2026-09-02 01:33:29 | 48.40175 | 13.25614 | 98° | 53km/h | 6853m | -3.2m/s | -20.9°C | 9.1% | 433.9hPa | 2.6V | 00:00:00 | 03:04:18 | 00:00:00 | |
| OE5DXL-15 | 2026-09-02 01:33:28 | 48.40177 | 13.25596 | 100° | 51km/h | 6856m | -3.2m/s | -20.9°C | 9.1% | 433.7hPa | 2.6V | 00:00:00 | 00:00:00 | 00:00:00 | |
| OE5HKT-10 | 2026-09-02 01:33:26 | 48.40181 | 13.25560 | 101° | 55km/h | 6862m | -3.3m/s | -20.9°C | 9.0% | 433.4hPa | 2.6V | 00:00:00 | 00:00:00 | 00:00:00 | |
| OE5DRO-10 | 2026-09-02 01:33:24 | 48.40186 | 13.25521 | 101° | 57km/h | 6869m | -3.2m/s | -21.0°C | 9.0% | 433.0hPa | 2.6V | 00:00:00 | 00:00:00 | 00:00:00 | |
| OE5WHR-10 | 2026-09-02 01:33:21 | 48.40192 | 13.25456 | 97° | 53km/h | 6878m | -3.1m/s | -21.0°C | 9.2% | 432.4hPa | 2.6V | 07:32:00 | 00:00:00 | 00:00:00 | |
| OE5MMP-10 | 2026-09-02 01:33:19 | 48.40195 | 13.25411 | 92° | 58km/h | 6884m | -3.1m/s | -21.1°C | 9.2% | 432.1hPa | 2.5V | 00:00:00 | 03:04:08 | 00:00:00 | |
| PG1ADW-2 | 2026-09-02 01:33:14 | 48.40191 | 13.25297 | 83° | 46km/h | 6900m | -3.1m/s | -21.1°C | 9.3% | 431.2hPa | 2.5V | 00:00:00 | 00:00:00 | 00:00:00 | |
| DO3MHA-11 | 2026-09-02 01:33:11 | 48.40184 | 13.25235 | 80° | 47km/h | 6909m | -3.2m/s | -21.2°C | 9.3% | 430.6hPa | 2.5V | 00:00:00 | 03:04:00 | 00:00:00 | |
| OE5MMP-10 | 2026-09-02 01:33:09 | 48.40179 | 13.25196 | 79° | 44km/h | 6915m | -3.3m/s | -21.2°C | 9.4% | 430.2hPa | 2.5V | 00:00:00 | 03:03:58 | 00:00:00 | |
| OE5REO-15 | 2026-09-02 01:33:08 | 48.40179 | 13.25196 | 80° | 51km/h | 6915m | -3.4m/s | -21.3°C | 8.6% | 430.2hPa | 2.5V | 07:33:00 | 00:00:00 | 00:00:00 | |
| DG1MFX-10 | 2026-09-02 01:33:07 | 48.40176 | 13.25177 | 79° | 49km/h | 6919m | -3.3m/s | -21.3°C | 8.6% | 430.1hPa | 2.5V | 07:33:00 | 00:00:00 | 00:00:00 | |
| OE5DRO-10 | 2026-09-02 01:33:05 | 48.40169 | 13.25124 | 79° | 42km/h | 6928m | -3.1m/s | -21.3°C | 9.5% | 429.6hPa | 2.5V | 00:00:00 | 00:00:00 | 00:00:00 | |
| DO3MHA-11 | 2026-09-02 01:33:01 | 48.40163 | 13.25061 | 83° | 38km/h | 6941m | -3.1m/s | -21.4°C | 9.5% | 428.8hPa | 2.5V | 00:00:00 | 03:03:50 | 00:00:00 | |
| OE5WHR-10 | 2026-09-02 01:33:00 | 48.40162 | 13.25046 | 85° | 46km/h | 6944m | -3.2m/s | -21.4°C | 9.5% | 428.5hPa | 2.5V | 00:00:00 | 00:00:00 | 00:00:00 | |
| OE5MMP-10 | 2026-09-02 01:32:59 | 48.40161 | 13.25032 | 86° | 40km/h | 6947m | -3.3m/s | -21.4°C | 9.5% | 428.4hPa | 2.5V | 00:00:00 | 03:03:48 | 00:00:00 | |
| OE5FHM-15 | 2026-09-02 01:32:58 | 48.40160 | 13.25017 | 87° | 46km/h | 6950m | -3.2m/s | -21.4°C | 9.5% | 428.2hPa | 2.5V | 07:33:00 | 03:03:47 | 00:00:00 | |
| PG1ADW-2 | 2026-09-02 01:32:54 | 48.40161 | 13.24960 | 97° | 49km/h | 6963m | -3.0m/s | -21.5°C | 9.6% | 427.4hPa | 2.5V | 00:00:00 | 03:03:43 | 00:00:00 | |
| OE5REO-15 | 2026-09-02 01:32:52 | 48.40162 | 13.24945 | 100° | 38km/h | 6966m | -3.2m/s | -21.6°C | 8.9% | 427.3hPa | 2.6V | 07:33:00 | 00:00:00 | 00:00:00 | |
| DO3MHA-11 | 2026-09-02 01:32:51 | 48.40166 | 13.24914 | 103° | 51km/h | 6972m | -3.1m/s | -21.6°C | 10.1% | 426.9hPa | 2.6V | 00:00:00 | 03:03:40 | 00:00:00 | |
| OE5MMP-10 | 2026-09-02 01:32:49 | 48.40171 | 13.24881 | 103° | 53km/h | 6979m | -3.3m/s | -21.6°C | 10.3% | 426.6hPa | 2.6V | 00:00:00 | 03:03:38 | 00:00:00 | |
| DG1MFX-10 | 2026-09-02 01:32:47 | 48.40174 | 13.24862 | 103° | 49km/h | 6982m | -3.2m/s | -21.7°C | 9.5% | 426.4hPa | 2.6V | 07:33:00 | 00:00:00 | 00:00:00 | |
| OE5DRO-10 | 2026-09-02 01:32:46 | 48.40178 | 13.24823 | 98° | 46km/h | 6988m | -3.0m/s | -21.7°C | 10.5% | 426.1hPa | 2.6V | 00:00:00 | 00:00:00 | 00:00:00 | |
| OE5HKT-10 | 2026-09-02 01:32:44 | 48.40181 | 13.24782 | 94° | 44km/h | 6995m | -3.0m/s | -21.7°C | 10.7% | 425.6hPa | 2.6V | 00:00:00 | 03:03:33 | 00:00:00 | |
| DO3MHA-11 | 2026-09-02 01:32:41 | 48.40181 | 13.24718 | 87° | 46km/h | 7004m | -3.2m/s | -21.8°C | 11.2% | 425.1hPa | 2.6V | 07:33:00 | 03:03:30 | 00:00:00 | |
| OE3JTB-15 | 2026-09-02 01:32:40 | 48.40180 | 13.24697 | 85° | 46km/h | 7007m | -3.1m/s | -21.8°C | 11.4% | 424.9hPa | 2.6V | 00:00:00 | 00:00:00 | 00:00:00 | |
| OE5WHR-10 | 2026-09-02 01:32:39 | 48.40179 | 13.24677 | 83° | 42km/h | 7010m | -3.1m/s | -21.8°C | 11.7% | 424.8hPa | 2.5V | 00:00:00 | 03:03:28 | 00:00:00 | |
| DL6DJ-15 | 2026-09-02 01:32:38 | 48.40177 | 13.24658 | 80° | 49km/h | 7013m | -3.2m/s | -21.9°C | 11.0% | 424.6hPa | 2.5V | 00:00:00 | 00:00:00 | 00:00:00 | |
| OE5REO-15 | 2026-09-02 01:32:37 | 48.40177 | 13.24658 | 82° | 51km/h | 7013m | -3.2m/s | -21.9°C | 11.0% | 424.6hPa | 2.5V | 07:34:00 | 00:00:00 | 00:00:00 | |
| PG1ADW-2 | 2026-09-02 01:32:34 | 48.40169 | 13.24590 | 82° | 42km/h | 7026m | -3.0m/s | -22.0°C | 13.2% | 423.9hPa | 2.5V | 00:00:00 | 00:00:00 | 00:00:00 | |
| DO3MHA-11 | 2026-09-02 01:32:31 | 48.40166 | 13.24547 | 89° | 35km/h | 7035m | -3.1m/s | -22.0°C | 13.5% | 423.3hPa | 2.5V | 00:00:00 | 03:03:20 | 00:00:00 | |
| OE5MMP-10 | 2026-09-02 01:32:29 | 48.40167 | 13.24520 | 94° | 40km/h | 7041m | -3.1m/s | -22.1°C | 13.6% | 422.9hPa | 2.5V | 00:00:00 | 03:03:18 | 00:00:00 | |
| OE5FHM-15 | 2026-09-02 01:32:28 | 48.40167 | 13.24507 | 98° | 46km/h | 7045m | -3.2m/s | -22.1°C | 13.6% | 422.7hPa | 2.5V | 00:00:00 | 03:03:17 | 00:00:00 | |
| OE5DRO-10 | 2026-09-02 01:32:27 | 48.40169 | 13.24493 | 101° | 47km/h | 7048m | -3.2m/s | -22.1°C | 13.6% | 422.6hPa | 2.5V | 07:33:00 | 00:00:00 | 00:00:00 | |
| DG1MFX-10 | 2026-09-02 01:32:26 | 48.40169 | 13.24493 | 102° | 37km/h | 7048m | -3.2m/s | -22.2°C | 12.6% | 422.6hPa | 2.5V | 07:34:00 | 00:00:00 | 00:00:00 | |
| OE5HKT-10 | 2026-09-02 01:32:23 | 48.40178 | 13.24437 | 108° | 47km/h | 7061m | -3.3m/s | -22.2°C | 13.9% | 421.9hPa | 2.5V | 00:00:00 | 00:00:00 | 00:00:00 | |
| OE5REO-15 | 2026-09-02 01:32:22 | 48.40178 | 13.24437 | 108° | 42km/h | 7061m | -3.4m/s | -22.3°C | 12.9% | 421.9hPa | 2.5V | 07:34:00 | 00:00:00 | 00:00:00 | |
| OE5MMP-10 | 2026-09-02 01:32:19 | 48.40192 | 13.24372 | 107° | 53km/h | 7074m | -3.1m/s | -22.3°C | 14.6% | 421.1hPa | 2.5V | 07:33:00 | 03:03:08 | 00:00:00 | |
| OE5WHR-10 | 2026-09-02 01:32:18 | 48.40196 | 13.24353 | 106° | 46km/h | 7077m | -3.1m/s | -22.4°C | 14.7% | 420.8hPa | 2.5V | 00:00:00 | 00:00:00 | 00:00:00 | |
| PG1ADW-2 | 2026-09-02 01:32:14 | 48.40206 | 13.24273 | 96° | 46km/h | 7090m | -2.9m/s | -22.5°C | 15.0% | 420.2hPa | 2.6V | 00:00:00 | 00:00:00 | 00:00:00 | |
| OE3JTB-15 | 2026-09-02 01:32:11 | 48.40207 | 13.24210 | 88° | 49km/h | 7099m | -3.2m/s | -22.6°C | 15.0% | 419.6hPa | 2.6V | 00:00:00 | 00:00:00 | 00:00:00 | |
| DL6DJ-15 | 2026-09-02 01:32:08 | 48.40202 | 13.24136 | 82° | 44km/h | 7111m | -3.2m/s | -22.7°C | 14.2% | 419.0hPa | 2.6V | 00:00:00 | 00:00:00 | 00:00:00 | |
| DG1MFX-10 | 2026-09-02 01:32:06 | 48.40201 | 13.24136 | 84° | 44km/h | 7112m | -3.2m/s | -22.7°C | 14.2% | 419.0hPa | 2.6V | 07:34:00 | 00:00:00 | 00:00:00 | |
| OE5HKT-10 | 2026-09-02 01:32:02 | 48.40201 | 13.24063 | 100° | 51km/h | 7127m | -3.1m/s | -22.8°C | 15.5% | 418.0hPa | 2.6V | 00:00:00 | 00:00:00 | 00:00:00 | |
| OE5MMP-10 | 2026-09-02 01:31:59 | 48.40208 | 13.24021 | 109° | 51km/h | 7136m | -3.1m/s | -22.9°C | 15.8% | 417.4hPa | 2.6V | 00:00:00 | 03:02:48 | 00:00:00 | |
| OE5DXL-15 | 2026-09-02 01:31:58 | 48.40212 | 13.24005 | 110° | 49km/h | 7140m | -3.2m/s | -22.9°C | 15.7% | 417.3hPa | 2.6V | 00:00:00 | 00:00:00 | 00:00:00 | |
| OE5WHR-10 | 2026-09-02 01:31:57 | 48.40216 | 13.23988 | 108° | 51km/h | 7143m | -2.8m/s | -23.0°C | 15.9% | 417.1hPa | 2.6V | 00:00:00 | 00:00:00 | 00:00:00 | |
| PG1ADW-2 | 2026-09-02 01:31:54 | 48.40226 | 13.23932 | 103° | 51km/h | 7152m | -3.1m/s | -23.0°C | 16.1% | 416.6hPa | 2.6V | 00:00:00 | 00:00:00 | 00:00:00 | |
| OE5REO-15 | 2026-09-02 01:31:51 | 48.40231 | 13.23890 | 100° | 57km/h | 7159m | -3.1m/s | -23.1°C | 15.3% | 416.2hPa | 2.6V | 07:35:00 | 00:00:00 | 00:00:00 | |
| OE5DRO-10 | 2026-09-02 01:31:49 | 48.40236 | 13.23826 | 95° | 47km/h | 7168m | -3.2m/s | -23.2°C | 16.5% | 415.6hPa | 2.6V | 00:00:00 | 00:00:00 | 00:00:00 | |
| DG1MFX-10 | 2026-09-02 01:31:46 | 48.40238 | 13.23783 | 92° | 57km/h | 7175m | -3.3m/s | -23.3°C | 15.3% | 415.3hPa | 2.6V | 00:00:00 | 00:00:00 | 00:00:00 | |
| DO3MHA-11 | 2026-09-02 01:31:45 | 48.40237 | 13.23741 | 88° | 47km/h | 7181m | -3.3m/s | -23.3°C | 16.6% | 414.9hPa | 2.6V | 00:00:00 | 03:02:34 | 00:00:00 | |
| OE3JTB-15 | 2026-09-02 01:31:42 | 48.40234 | 13.23680 | 84° | 49km/h | 7191m | -3.2m/s | -23.4°C | 17.0% | 414.4hPa | 2.5V | 00:00:00 | 03:02:31 | 00:00:00 | |
| OE5HKT-10 | 2026-09-02 01:31:41 | 48.40232 | 13.23661 | 83° | 47km/h | 7195m | -3.2m/s | -23.4°C | 17.2% | 414.2hPa | 2.5V | 00:00:00 | 03:02:30 | 00:00:00 | |
| OE5MMP-10 | 2026-09-02 01:31:39 | 48.40229 | 13.23626 | 83° | 40km/h | 7201m | -3.2m/s | -23.5°C | 17.7% | 413.7hPa | 2.5V | 00:00:00 | 03:02:28 | 00:00:00 | |
| OE5WHR-10 | 2026-09-02 01:31:36 | 48.40226 | 13.23580 | 89° | 49km/h | 7211m | -3.1m/s | -23.5°C | 17.3% | 413.3hPa | 2.5V | 00:00:00 | 03:02:25 | 00:00:00 | |
| PG1ADW-2 | 2026-09-02 01:31:34 | 48.40227 | 13.23552 | 98° | 51km/h | 7217m | -3.1m/s | -23.6°C | 17.1% | 412.9hPa | 2.5V | 00:00:00 | 03:02:23 | 00:00:00 | |
| OE5DRO-10 | 2026-09-02 01:31:30 | 48.40236 | 13.23492 | 107° | 53km/h | 7230m | -3.3m/s | -23.7°C | 18.4% | 412.2hPa | 2.5V | 00:00:00 | 00:00:00 | 00:00:00 | |
| OE5MMP-10 | 2026-09-02 01:31:29 | 48.40240 | 13.23476 | 107° | 55km/h | 7234m | -3.5m/s | -23.7°C | 18.7% | 411.9hPa | 2.5V | 00:00:00 | 03:02:18 | 00:00:00 | |
| OE5FHM-15 | 2026-09-02 01:31:28 | 48.40243 | 13.23458 | 107° | 51km/h | 7237m | -3.2m/s | -23.7°C | 18.7% | 411.8hPa | 2.5V | 00:00:00 | 03:02:17 | 00:00:00 | |
| DO3MHA-11 | 2026-09-02 01:31:26 | 48.40250 | 13.23421 | 104° | 57km/h | 7243m | -3.0m/s | -23.8°C | 18.2% | 411.5hPa | 2.5V | 00:00:00 | 03:02:15 | 00:00:00 | |
| OE5HKT-10 | 2026-09-02 01:31:20 | 48.40262 | 13.23292 | 93° | 49km/h | 7263m | -3.4m/s | -23.9°C | 17.6% | 410.3hPa | 2.5V | 07:34:00 | 00:00:00 | 00:00:00 | |
| OE5MMP-10 | 2026-09-02 01:31:19 | 48.40263 | 13.23269 | 91° | 51km/h | 7266m | -3.4m/s | -24.0°C | 17.5% | 410.2hPa | 2.5V | 00:00:00 | 03:02:08 | 00:00:00 | |
| DO3MHA-11 | 2026-09-02 01:31:16 | 48.40261 | 13.23204 | 85° | 46km/h | 7276m | -3.4m/s | -24.0°C | 18.0% | 409.6hPa | 2.5V | 00:00:00 | 03:02:05 | 00:00:00 | |
| OE5WHR-10 | 2026-09-02 01:31:15 | 48.40259 | 13.23183 | 83° | 49km/h | 7280m | -3.4m/s | -24.1°C | 18.1% | 409.4hPa | 2.5V | 00:00:00 | 00:00:00 | 00:00:00 | |
| PG1ADW-2 | 2026-09-02 01:31:14 | 48.40257 | 13.23164 | 82° | 49km/h | 7283m | -3.5m/s | -24.1°C | 18.4% | 409.2hPa | 2.6V | 00:00:00 | 00:00:00 | 00:00:00 | |
| OE3JTB-15 | 2026-09-02 01:31:13 | 48.40255 | 13.23145 | 82° | 49km/h | 7287m | -3.3m/s | -24.2°C | 18.5% | 409.0hPa | 2.6V | 00:00:00 | 00:00:00 | 00:00:00 | |
| OE5DRO-10 | 2026-09-02 01:31:11 | 48.40253 | 13.23112 | 85° | 51km/h | 7293m | -3.2m/s | -24.2°C | 18.9% | 408.6hPa | 2.6V | 00:00:00 | 00:00:00 | 00:00:00 | |
| OE5MMP-10 | 2026-09-02 01:31:09 | 48.40252 | 13.23082 | 93° | 46km/h | 7299m | -3.3m/s | -24.3°C | 19.0% | 408.3hPa | 2.6V | 00:00:00 | 03:01:58 | 00:00:00 | |
| DO3MHA-11 | 2026-09-02 01:31:06 | 48.40256 | 13.23037 | 103° | 53km/h | 7309m | -3.4m/s | -24.4°C | 19.3% | 407.8hPa | 2.5V | 00:00:00 | 03:01:55 | 00:00:00 | |
| DL6DJ-15 | 2026-09-02 01:31:05 | 48.40259 | 13.23022 | 104° | 44km/h | 7312m | -3.2m/s | -24.5°C | 18.0% | 407.6hPa | 2.6V | 00:00:00 | 00:00:00 | 00:00:00 | |
| OE5MMP-10 | 2026-09-02 01:30:59 | 48.40278 | 13.22906 | 100° | 58km/h | 7333m | -3.4m/s | -24.6°C | 19.9% | 406.4hPa | 2.6V | 07:35:00 | 03:01:48 | 00:00:00 | |
| OE5FHM-15 | 2026-09-02 01:30:58 | 48.40280 | 13.22884 | 98° | 53km/h | 7337m | -3.3m/s | -24.6°C | 20.0% | 406.2hPa | 2.6V | 00:00:00 | 03:01:47 | 00:00:00 | |
| DO3MHA-11 | 2026-09-02 01:30:56 | 48.40283 | 13.22839 | 93° | 55km/h | 7343m | -3.6m/s | -24.7°C | 20.5% | 405.8hPa | 2.6V | 00:00:00 | 03:01:45 | 00:00:00 | |
| OE5WHR-10 | 2026-09-02 01:30:54 | 48.40283 | 13.22793 | 88° | 49km/h | 7350m | -3.4m/s | -24.8°C | 20.7% | 405.4hPa | 2.6V | 00:00:00 | 00:00:00 | 00:00:00 | |
| OE5DRO-10 | 2026-09-02 01:30:52 | 48.40280 | 13.22749 | 84° | 49km/h | 7357m | -3.3m/s | -24.8°C | 20.9% | 405.1hPa | 2.6V | 00:00:00 | 00:00:00 | 00:00:00 | |
| OE5MMP-10 | 2026-09-02 01:30:49 | 48.40275 | 13.22689 | 80° | 44km/h | 7367m | -3.4m/s | -24.9°C | 21.3% | 404.5hPa | 2.6V | 00:00:00 | 03:01:38 | 00:00:00 | |
| DO3MHA-11 | 2026-09-02 01:30:46 | 48.40269 | 13.22638 | 85° | 44km/h | 7377m | -3.2m/s | -25.0°C | 21.9% | 404.0hPa | 2.6V | 00:00:00 | 03:01:35 | 00:00:00 | |
| OE3JTB-15 | 2026-09-02 01:30:44 | 48.40269 | 13.22607 | 93° | 49km/h | 7384m | -3.4m/s | -25.1°C | 22.2% | 403.6hPa | 2.6V | 00:00:00 | 00:00:00 | 00:00:00 | |
| OE5MMP-10 | 2026-09-02 01:30:39 | 48.40279 | 13.22526 | 106° | 57km/h | 7401m | -3.5m/s | -25.2°C | 22.9% | 402.7hPa | 2.6V | 00:00:00 | 03:01:28 | 00:00:00 | |
| OE5HKT-10 | 2026-09-02 01:30:38 | 48.40282 | 13.22508 | 106° | 53km/h | 7405m | -3.6m/s | -25.3°C | 23.1% | 402.4hPa | 2.4V | 00:00:00 | 03:01:27 | 00:00:00 | |
| DO3MHA-11 | 2026-09-02 01:30:36 | 48.40289 | 13.22470 | 104° | 58km/h | 7412m | -3.4m/s | -25.3°C | 23.7% | 402.1hPa | 2.4V | 07:35:00 | 03:01:25 | 00:00:00 | |
| PG1ADW-2 | 2026-09-02 01:30:34 | 48.40295 | 13.22427 | 101° | 51km/h | 7419m | -3.3m/s | -25.4°C | 24.3% | 401.7hPa | 2.4V | 00:00:00 | 00:00:00 | 00:00:00 | |
| OE5WHR-10 | 2026-09-02 01:30:33 | 48.40297 | 13.22405 | 99° | 51km/h | 7422m | -3.3m/s | -25.4°C | 24.5% | 401.5hPa | 2.4V | 07:35:00 | 03:01:22 | 00:00:00 | |
| OE5MMP-10 | 2026-09-02 01:30:29 | 48.40301 | 13.22312 | 88° | 49km/h | 7435m | -3.4m/s | -25.5°C | 24.6% | 400.7hPa | 2.4V | 00:00:00 | 03:01:18 | 00:00:00 | |
| OE5FHM-15 | 2026-09-02 01:30:28 | 48.40299 | 13.22289 | 85° | 51km/h | 7438m | -3.4m/s | -25.5°C | 24.3% | 400.6hPa | 2.4V | 00:00:00 | 03:01:17 | 00:00:00 | |
| DO3MHA-11 | 2026-09-02 01:30:26 | 48.40296 | 13.22247 | 82° | 46km/h | 7445m | -3.5m/s | -25.6°C | 24.3% | 400.2hPa | 2.6V | 00:00:00 | 03:01:15 | 00:00:00 | |
| DG1MFX-10 | 2026-09-02 01:30:21 | 48.40288 | 13.22175 | 85° | 42km/h | 7459m | -3.4m/s | -25.8°C | 23.0% | 399.5hPa | 2.6V | 07:36:00 | 00:00:00 | 00:00:00 | |
| OE5MMP-10 | 2026-09-02 01:30:19 | 48.40288 | 13.22128 | 96° | 51km/h | 7469m | -3.5m/s | -25.8°C | 25.2% | 398.8hPa | 2.6V | 00:00:00 | 03:01:08 | 00:00:00 | |
| OE5HKT-10 | 2026-09-02 01:30:18 | 48.40292 | 13.22097 | 103° | 53km/h | 7476m | -3.6m/s | -25.9°C | 25.4% | 398.5hPa | 2.6V | 00:00:00 | 00:00:00 | 00:00:00 | |
| OE3JTB-15 | 2026-09-02 01:30:17 | 48.40297 | 13.22061 | 104° | 53km/h | 7483m | -3.3m/s | -25.9°C | 25.7% | 398.1hPa | 2.6V | 00:00:00 | 03:01:04 | 00:00:00 | |
| PG1ADW-2 | 2026-09-02 01:30:15 | 48.40300 | 13.22042 | 104° | 53km/h | 7486m | -3.4m/s | -26.0°C | 25.9% | 397.9hPa | 2.6V | 00:00:00 | 03:01:03 | 00:00:00 | |
| OE5DRO-10 | 2026-09-02 01:30:14 | 48.40300 | 13.22042 | 104° | 53km/h | 7486m | -3.4m/s | -26.0°C | 25.9% | 397.9hPa | 2.6V | 00:00:00 | 00:00:00 | 00:00:00 | |
| OE5WHR-10 | 2026-09-02 01:30:12 | 48.40306 | 13.22000 | 100° | 51km/h | 7493m | -3.6m/s | -26.0°C | 26.0% | 397.5hPa | 2.6V | 00:00:00 | 00:00:00 | 00:00:00 | |
| OE5MMP-10 | 2026-09-02 01:30:09 | 48.40310 | 13.21931 | 93° | 57km/h | 7504m | -3.4m/s | -26.1°C | 26.4% | 397.0hPa | 2.4V | 00:00:00 | 03:00:58 | 00:00:00 | |
| DO3MHA-11 | 2026-09-02 01:30:06 | 48.40309 | 13.21861 | 85° | 49km/h | 7514m | -3.6m/s | -26.2°C | 27.4% | 396.3hPa | 2.4V | 00:00:00 | 03:00:55 | 00:00:00 | |
| OE5REO-15 | 2026-09-02 01:30:03 | 48.40305 | 13.21817 | 82° | 57km/h | 7521m | -3.7m/s | -26.3°C | 27.6% | 396.0hPa | 2.4V | 07:36:00 | 00:00:00 | 00:00:00 | |
| DG1MFX-10 | 2026-09-02 01:30:00 | 48.40298 | 13.21758 | 79° | 47km/h | 7532m | -3.5m/s | -26.4°C | 29.2% | 395.4hPa | 2.4V | 07:36:00 | 00:00:00 | 00:00:00 | |
| OE5MMP-10 | 2026-09-02 01:29:59 | 48.40294 | 13.21725 | 81° | 44km/h | 7539m | -3.5m/s | -26.4°C | 32.0% | 394.9hPa | 2.4V | 00:00:00 | 03:00:48 | 00:00:00 | |
| OE5DXL-15 | 2026-09-02 01:29:58 | 48.40292 | 13.21709 | 84° | 47km/h | 7543m | -3.4m/s | -26.5°C | 32.3% | 394.7hPa | 2.4V | 00:00:00 | 00:00:00 | 00:00:00 | |
| DO3MHA-11 | 2026-09-02 01:29:56 | 48.40291 | 13.21679 | 92° | 49km/h | 7549m | -3.5m/s | -26.5°C | 32.9% | 394.4hPa | 2.4V | 00:00:00 | 03:00:45 | 00:00:00 | |
| OE5DRO-10 | 2026-09-02 01:29:55 | 48.40292 | 13.21664 | 96° | 53km/h | 7553m | -3.4m/s | -26.6°C | 33.2% | 394.2hPa | 2.4V | 07:36:00 | 00:00:00 | 00:00:00 | |
| PG1ADW-2 | 2026-09-02 01:29:54 | 48.40293 | 13.21648 | 100° | 53km/h | 7557m | -3.6m/s | -26.6°C | 33.4% | 394.1hPa | 2.5V | 00:00:00 | 00:00:00 | 00:00:00 | |
| OE5WHR-10 | 2026-09-02 01:29:51 | 48.40300 | 13.21597 | 103° | 51km/h | 7567m | -3.3m/s | -26.7°C | 34.1% | 393.5hPa | 2.4V | 00:00:00 | 00:00:00 | 00:00:00 | |
| OE5MMP-10 | 2026-09-02 01:29:49 | 48.40305 | 13.21557 | 101° | 58km/h | 7574m | -3.6m/s | -26.8°C | 34.4% | 393.1hPa | 2.4V | 00:00:00 | 03:00:38 | 00:00:00 | |
| OE5REO-15 | 2026-09-02 01:29:47 | 48.40308 | 13.21536 | 99° | 58km/h | 7578m | -3.6m/s | -26.8°C | 32.4% | 393.0hPa | 2.4V | 07:36:00 | 00:00:00 | 00:00:00 | |
| DO3MHA-11 | 2026-09-02 01:29:46 | 48.40311 | 13.21491 | 93° | 55km/h | 7585m | -3.8m/s | -26.9°C | 34.9% | 392.5hPa | 2.4V | 00:00:00 | 03:00:35 | 00:00:00 | |
| DG1MFX-10 | 2026-09-02 01:29:40 | 48.40305 | 13.21379 | 80° | 55km/h | 7603m | -3.6m/s | -27.1°C | 34.9% | 391.6hPa | 2.4V | 07:36:00 | 00:00:00 | 00:00:00 | |
| OE5MMP-10 | 2026-09-02 01:29:39 | 48.40299 | 13.21340 | 77° | 42km/h | 7610m | -3.6m/s | -27.1°C | 38.3% | 391.2hPa | 2.4V | 07:36:00 | 03:00:28 | 00:00:00 | |
| DO3MHA-11 | 2026-09-02 01:29:36 | 48.40291 | 13.21288 | 80° | 42km/h | 7620m | -3.6m/s | -27.2°C | 39.3% | 390.6hPa | 2.4V | 00:00:00 | 03:00:25 | 00:00:00 | |
| OE5HKT-10 | 2026-09-02 01:29:35 | 48.40290 | 13.21273 | 82° | 51km/h | 7624m | -3.5m/s | -27.2°C | 39.8% | 390.3hPa | 2.6V | 00:00:00 | 03:00:24 | 00:00:00 | |
| PG1ADW-2 | 2026-09-02 01:29:34 | 48.40288 | 13.21258 | 86° | 51km/h | 7628m | -3.6m/s | -27.2°C | 40.1% | 390.2hPa | 2.6V | 00:00:00 | 00:00:00 | 00:00:00 | |
| OE5REO-15 | 2026-09-02 01:29:32 | 48.40288 | 13.21243 | 91° | 38km/h | 7631m | -3.7m/s | -27.3°C | 37.9% | 390.1hPa | 2.6V | 07:36:00 | 00:00:00 | 00:00:00 | |
| OE5WHR-10 | 2026-09-02 01:29:30 | 48.40291 | 13.21197 | 99° | 53km/h | 7642m | -3.5m/s | -27.4°C | 41.3% | 389.4hPa | 2.6V | 00:00:00 | 03:00:19 | 00:00:00 | |
| OE5MMP-10 | 2026-09-02 01:29:29 | 48.40292 | 13.21181 | 101° | 55km/h | 7645m | -3.7m/s | -27.4°C | 41.5% | 389.3hPa | 2.6V | 00:00:00 | 03:00:18 | 00:00:00 | |
| OE5FHM-15 | 2026-09-02 01:29:28 | 48.40295 | 13.21164 | 102° | 51km/h | 7649m | -3.8m/s | -27.4°C | 41.7% | 389.0hPa | 2.6V | 00:00:00 | 03:00:17 | 00:00:00 | |
| DO3MHA-11 | 2026-09-02 01:29:26 | 48.40300 | 13.21127 | 101° | 58km/h | 7657m | -3.5m/s | -27.5°C | 42.1% | 388.6hPa | 2.6V | 00:00:00 | 03:00:15 | 00:00:00 | |
| OE5MMP-10 | 2026-09-02 01:29:19 | 48.40310 | 13.20975 | 89° | 55km/h | 7682m | -3.5m/s | -27.7°C | 43.7% | 387.3hPa | 2.6V | 00:00:00 | 03:00:08 | 00:00:00 | |
| OE5DRO-10 | 2026-09-02 01:29:17 | 48.40308 | 13.20929 | 85° | 49km/h | 7690m | -3.8m/s | -27.8°C | 43.7% | 386.8hPa | 2.6V | 00:00:00 | 00:00:00 | 00:00:00 | |
| DO3MHA-11 | 2026-09-02 01:29:16 | 48.40306 | 13.20906 | 82° | 47km/h | 7693m | -3.6m/s | -27.8°C | 43.8% | 386.7hPa | 2.6V | 07:36:00 | 03:00:05 | 00:00:00 | |
| PG1ADW-2 | 2026-09-02 01:29:14 | 48.40301 | 13.20864 | 78° | 49km/h | 7701m | -3.6m/s | -27.9°C | 44.0% | 386.2hPa | 2.6V | 00:00:00 | 00:00:00 | 00:00:00 | |
| OE5MMP-10 | 2026-09-02 01:29:09 | 48.40287 | 13.20776 | 81° | 46km/h | 7719m | -3.7m/s | -28.1°C | 43.2% | 385.2hPa | 2.6V | 00:00:00 | 02:59:58 | 00:00:00 | |
| DO3MHA-11 | 2026-09-02 01:29:06 | 48.40285 | 13.20730 | 94° | 51km/h | 7730m | -3.8m/s | -28.2°C | 41.6% | 384.7hPa | 2.4V | 00:00:00 | 02:59:55 | 00:00:00 | |
| OE5REO-15 | 2026-09-02 01:29:01 | 48.40292 | 13.20661 | 101° | 51km/h | 7744m | -3.9m/s | -28.3°C | 36.5% | 384.0hPa | 2.6V | 07:37:00 | 00:00:00 | 00:00:00 | |
| OE5MMP-10 | 2026-09-02 01:28:59 | 48.40298 | 13.20600 | 98° | 62km/h | 7756m | -3.7m/s | -28.4°C | 39.6% | 383.3hPa | 2.6V | 00:00:00 | 02:59:48 | 00:00:00 | |
| OE5DXL-15 | 2026-09-02 01:28:58 | 48.40299 | 13.20578 | 96° | 57km/h | 7759m | -3.4m/s | -28.4°C | 39.3% | 383.1hPa | 2.6V | 00:00:00 | 00:00:00 | 00:00:00 | |
| DO3MHA-11 | 2026-09-02 01:28:56 | 48.40302 | 13.20533 | 94° | 62km/h | 7767m | -3.8m/s | -28.4°C | 37.2% | 382.7hPa | 2.6V | 00:00:00 | 02:59:45 | 00:00:00 | |
| PG1ADW-2 | 2026-09-02 01:28:54 | 48.40303 | 13.20486 | 91° | 53km/h | 7775m | -4.1m/s | -28.5°C | 35.5% | 382.3hPa | 2.6V | 00:00:00 | 02:59:43 | 00:00:00 | |
| OE5HKT-10 | 2026-09-02 01:28:53 | 48.40303 | 13.20462 | 90° | 53km/h | 7778m | -3.7m/s | -28.5°C | 35.1% | 382.1hPa | 2.4V | 00:00:00 | 00:00:00 | 00:00:00 | |
| OE5MMP-10 | 2026-09-02 01:28:49 | 48.40298 | 13.20366 | 82° | 51km/h | 7794m | -3.8m/s | -28.6°C | 30.8% | 381.3hPa | 2.4V | 00:00:00 | 02:59:38 | 00:00:00 | |
| OE3JTB-15 | 2026-09-02 01:28:48 | 48.40296 | 13.20343 | 80° | 57km/h | 7798m | -3.7m/s | -28.7°C | 30.4% | 381.0hPa | 2.4V | 00:00:00 | 02:59:37 | 00:00:00 | |
| DO3MHA-11 | 2026-09-02 01:28:46 | 48.40289 | 13.20300 | 76° | 47km/h | 7805m | -3.5m/s | -28.8°C | 29.6% | 380.6hPa | 2.4V | 00:00:00 | 02:59:35 | 00:00:00 | |
| OE5REO-15 | 2026-09-02 01:28:45 | 48.40289 | 13.20300 | 77° | 55km/h | 7805m | -3.6m/s | -28.8°C | 27.5% | 380.7hPa | 2.4V | 07:37:00 | 00:00:00 | 00:00:00 | |
| OE5MMP-10 | 2026-09-02 01:28:39 | 48.40275 | 13.20178 | 93° | 53km/h | 7831m | -3.4m/s | -28.9°C | 25.9% | 379.3hPa | 2.4V | 00:00:00 | 02:59:28 | 00:00:00 | |
| DG1MFX-10 | 2026-09-02 01:28:38 | 48.40275 | 13.20178 | 94° | 44km/h | 7831m | -3.5m/s | -29.0°C | 23.9% | 379.4hPa | 2.6V | 07:37:00 | 00:00:00 | 00:00:00 | |
| DO3MHA-11 | 2026-09-02 01:28:36 | 48.40279 | 13.20124 | 98° | 60km/h | 7843m | -3.7m/s | -29.0°C | 25.4% | 378.7hPa | 2.6V | 00:00:00 | 02:59:25 | 00:00:00 | |
| PG1ADW-2 | 2026-09-02 01:28:34 | 48.40283 | 13.20084 | 99° | 60km/h | 7850m | -3.8m/s | -29.0°C | 24.1% | 378.3hPa | 2.5V | 00:00:00 | 00:00:00 | 00:00:00 | |
| OE5HKT-10 | 2026-09-02 01:28:32 | 48.40287 | 13.20041 | 98° | 58km/h | 7858m | -3.8m/s | -29.0°C | 22.2% | 377.8hPa | 2.5V | 07:37:00 | 02:59:21 | 00:00:00 | |
| OE5MMP-10 | 2026-09-02 01:28:29 | 48.40291 | 13.19971 | 94° | 64km/h | 7869m | -3.8m/s | -29.1°C | 22.0% | 377.3hPa | 2.5V | 00:00:00 | 02:59:18 | 00:00:00 | |
| OE5FHM-15 | 2026-09-02 01:28:28 | 48.40292 | 13.19946 | 92° | 60km/h | 7873m | -3.7m/s | -29.1°C | 21.8% | 377.0hPa | 2.5V | 00:00:00 | 02:59:17 | 00:00:00 | |
| OE5WHR-10 | 2026-09-02 01:28:27 | 48.40292 | 13.19921 | 89° | 57km/h | 7877m | -4.0m/s | -29.1°C | 21.7% | 376.8hPa | 2.5V | 00:00:00 | 02:59:16 | 00:00:00 | |
| DO3MHA-11 | 2026-09-02 01:28:26 | 48.40291 | 13.19896 | 87° | 60km/h | 7881m | -3.9m/s | -29.1°C | 21.5% | 376.6hPa | 2.5V | 00:00:00 | 02:59:15 | 00:00:00 | |
| OE5DRO-10 | 2026-09-02 01:28:20 | 48.40274 | 13.19752 | 76° | 55km/h | 7904m | -3.8m/s | -29.3°C | 21.8% | 375.4hPa | 2.5V | 00:00:00 | 00:00:00 | 00:00:00 | |
| OE5MMP-10 | 2026-09-02 01:28:19 | 48.40271 | 13.19732 | 75° | 49km/h | 7908m | -3.7m/s | -29.4°C | 21.9% | 375.2hPa | 2.5V | 07:37:00 | 02:59:08 | 00:00:00 | |
| DG1MFX-10 | 2026-09-02 01:28:17 | 48.40267 | 13.19712 | 77° | 53km/h | 7912m | -3.9m/s | -29.4°C | 20.2% | 375.1hPa | 2.5V | 07:38:00 | 00:00:00 | 00:00:00 | |
| DO3MHA-11 | 2026-09-02 01:28:16 | 48.40262 | 13.19675 | 81° | 51km/h | 7919m | -3.6m/s | -29.5°C | 22.2% | 374.7hPa | 2.5V | 00:00:00 | 02:59:05 | 00:00:00 | |
| PG1ADW-2 | 2026-09-02 01:28:14 | 48.40259 | 13.19640 | 88° | 60km/h | 7927m | -3.9m/s | -29.5°C | 22.5% | 374.3hPa | 2.5V | 07:38:00 | 00:00:00 | 00:00:00 | |
| OE5REO-15 | 2026-09-02 01:28:13 | 48.40259 | 13.19639 | 89° | 46km/h | 7927m | -4.0m/s | -29.6°C | 20.6% | 374.3hPa | 2.5V | 07:38:00 | 00:00:00 | 00:00:00 | |
| OE5HKT-10 | 2026-09-02 01:28:11 | 48.40261 | 13.19585 | 96° | 60km/h | 7939m | -3.9m/s | -29.6°C | 22.6% | 373.6hPa | 2.5V | 00:00:00 | 00:00:00 | 00:00:00 | |
| OE5MMP-10 | 2026-09-02 01:28:09 | 48.40264 | 13.19546 | 98° | 64km/h | 7946m | -3.8m/s | -29.7°C | 22.7% | 373.2hPa | 2.4V | 00:00:00 | 02:58:58 | 00:00:00 | |
| OE5WHR-10 | 2026-09-02 01:28:06 | 48.40270 | 13.19480 | 97° | 58km/h | 7958m | -3.6m/s | -29.7°C | 21.9% | 372.6hPa | 2.6V | 00:00:00 | 00:00:00 | 00:00:00 | |
| OE5DRO-10 | 2026-09-02 01:28:01 | 48.40272 | 13.19352 | 86° | 57km/h | 7977m | -3.6m/s | -29.9°C | 21.4% | 371.6hPa | 2.4V | 00:00:00 | 00:00:00 | 00:00:00 | |
| OE5MMP-10 | 2026-09-02 01:27:59 | 48.40267 | 13.19301 | 81° | 55km/h | 7985m | -3.9m/s | -29.9°C | 21.6% | 371.2hPa | 2.5V | 00:00:00 | 02:58:48 | 00:00:00 | |
| OE5DXL-15 | 2026-09-02 01:27:58 | 48.40264 | 13.19277 | 79° | 58km/h | 7989m | -3.8m/s | -30.0°C | 21.5% | 371.0hPa | 2.5V | 00:00:00 | 00:00:00 | 00:00:00 | |
| OE5REO-15 | 2026-09-02 01:27:57 | 48.40264 | 13.19277 | 79° | 64km/h | 7989m | -3.8m/s | -30.0°C | 19.7% | 371.1hPa | 2.4V | 07:38:00 | 00:00:00 | 00:00:00 | |
| DO3MHA-11 | 2026-09-02 01:27:56 | 48.40257 | 13.19231 | 76° | 51km/h | 7996m | -3.7m/s | -30.0°C | 21.4% | 370.6hPa | 2.4V | 07:38:00 | 02:58:45 | 00:00:00 | |
| PG1ADW-2 | 2026-09-02 01:27:54 | 48.40250 | 13.19190 | 77° | 58km/h | 8003m | -3.7m/s | -30.1°C | 21.2% | 370.2hPa | 2.4V | 00:00:00 | 00:00:00 | 00:00:00 | |
| OE5HKT-10 | 2026-09-02 01:27:50 | 48.40242 | 13.19118 | 87° | 60km/h | 8019m | -3.8m/s | -30.2°C | 21.5% | 369.4hPa | 2.5V | 00:00:00 | 00:00:00 | 00:00:00 | |
| OE5MMP-10 | 2026-09-02 01:27:49 | 48.40241 | 13.19100 | 90° | 58km/h | 8023m | -3.6m/s | -30.3°C | 21.6% | 369.3hPa | 2.5V | 00:00:00 | 02:58:38 | 00:00:00 | |
| DO3MHA-11 | 2026-09-02 01:27:46 | 48.40244 | 13.19043 | 98° | 64km/h | 8034m | -3.7m/s | -30.4°C | 22.0% | 368.6hPa | 2.5V | 00:00:00 | 02:58:35 | 00:00:00 | |
| OE5WHR-10 | 2026-09-02 01:27:45 | 48.40246 | 13.19023 | 98° | 60km/h | 8038m | -3.6m/s | -30.4°C | 22.0% | 368.5hPa | 2.5V | 07:38:00 | 00:00:00 | 00:00:00 | |
| OE5DRO-10 | 2026-09-02 01:27:42 | 48.40251 | 13.18952 | 94° | 58km/h | 8049m | -3.7m/s | -30.5°C | 22.2% | 367.8hPa | 2.5V | 00:00:00 | 00:00:00 | 00:00:00 | |
| OE5MMP-10 | 2026-09-02 01:27:39 | 48.40251 | 13.18874 | 87° | 64km/h | 8060m | -4.1m/s | -30.6°C | 22.3% | 367.2hPa | 2.5V | 00:00:00 | 02:58:28 | 00:00:00 | |
| DO3MHA-11 | 2026-09-02 01:27:36 | 48.40245 | 13.18797 | 81° | 57km/h | 8072m | -3.8m/s | -30.7°C | 22.4% | 366.6hPa | 2.4V | 00:00:00 | 02:58:25 | 00:00:00 | |
| DG1MFX-10 | 2026-09-02 01:27:35 | 48.40245 | 13.18797 | 81° | 68km/h | 8072m | -3.9m/s | -30.7°C | 20.4% | 366.7hPa | 2.4V | 00:00:00 | 00:00:00 | 00:00:00 | |
| PG1ADW-2 | 2026-09-02 01:27:34 | 48.40238 | 13.18748 | 77° | 57km/h | 8080m | -4.0m/s | -30.8°C | 22.3% | 366.3hPa | 2.4V | 00:00:00 | 02:58:23 | 00:00:00 | |
| OE5MMP-10 | 2026-09-02 01:27:29 | 48.40219 | 13.18642 | 76° | 51km/h | 8100m | -3.9m/s | -30.9°C | 22.5% | 365.2hPa | 2.4V | 00:00:00 | 02:58:18 | 00:00:00 | |
| OE5DXL-15 | 2026-09-02 01:27:28 | 48.40216 | 13.18624 | 78° | 57km/h | 8104m | -3.9m/s | -31.0°C | 22.6% | 365.0hPa | 2.4V | 07:38:00 | 00:00:00 | 00:00:00 | |
| DO3MHA-11 | 2026-09-02 01:27:26 | 48.40212 | 13.18588 | 85° | 57km/h | 8112m | -3.7m/s | -31.0°C | 22.6% | 364.6hPa | 2.4V | 00:00:00 | 02:58:15 | 00:00:00 | |
| OE5WHR-10 | 2026-09-02 01:27:24 | 48.40212 | 13.18553 | 92° | 58km/h | 8119m | -3.7m/s | -31.1°C | 23.0% | 364.2hPa | 2.4V | 00:00:00 | 02:58:13 | 00:00:00 | |
| OE5DRO-10 | 2026-09-02 01:27:23 | 48.40213 | 13.18534 | 95° | 60km/h | 8123m | -3.9m/s | -31.1°C | 23.1% | 364.0hPa | 2.4V | 07:38:00 | 00:00:00 | 00:00:00 | |
| OE3JTB-15 | 2026-09-02 01:27:21 | 48.40216 | 13.18493 | 97° | 58km/h | 8131m | -3.6m/s | -31.2°C | 23.0% | 363.6hPa | 2.4V | 00:00:00 | 02:58:10 | 00:00:00 | |
| OE5MMP-10 | 2026-09-02 01:27:19 | 48.40219 | 13.18448 | 96° | 66km/h | 8138m | -3.9m/s | -31.2°C | 23.4% | 363.3hPa | 2.4V | 00:00:00 | 02:58:08 | 00:00:00 | |
| DO3MHA-11 | 2026-09-02 01:27:16 | 48.40221 | 13.18372 | 89° | 64km/h | 8150m | -3.8m/s | -31.3°C | 24.3% | 362.7hPa | 2.4V | 00:00:00 | 02:58:05 | 00:00:00 | |
| DG1MFX-10 | 2026-09-02 01:27:15 | 48.40221 | 13.18372 | 89° | 69km/h | 8150m | -3.8m/s | -31.4°C | 22.1% | 362.8hPa | 2.4V | 00:00:00 | 00:00:00 | 00:00:00 | |
| PG1ADW-2 | 2026-09-02 01:27:14 | 48.40218 | 13.18320 | 84° | 58km/h | 8157m | -3.9m/s | -31.4°C | 25.3% | 362.3hPa | 2.4V | 00:00:00 | 00:00:00 | 00:00:00 | |
| OE5REO-15 | 2026-09-02 01:27:11 | 48.40212 | 13.18269 | 79° | 66km/h | 8165m | -3.8m/s | -31.5°C | 24.5% | 361.9hPa | 2.4V | 07:39:00 | 00:00:00 | 00:00:00 | |
| OE5MMP-10 | 2026-09-02 01:27:09 | 48.40200 | 13.18200 | 74° | 51km/h | 8176m | -3.6m/s | -31.6°C | 29.7% | 361.3hPa | 2.4V | 00:00:00 | 02:57:58 | 00:00:00 | |
| OE5HKT-10 | 2026-09-02 01:27:08 | 48.40196 | 13.18179 | 75° | 58km/h | 8180m | -3.6m/s | -31.6°C | 30.6% | 361.1hPa | 2.4V | 00:00:00 | 00:00:00 | 00:00:00 | |
| DO3MHA-11 | 2026-09-02 01:27:06 | 48.40189 | 13.18140 | 77° | 51km/h | 8187m | -3.7m/s | -31.7°C | 33.4% | 360.8hPa | 2.6V | 00:00:00 | 02:57:55 | 00:00:00 | |
| OE5DRO-10 | 2026-09-02 01:27:04 | 48.40185 | 13.18104 | 83° | 60km/h | 8194m | -3.8m/s | -31.7°C | 35.4% | 360.3hPa | 2.5V | 00:00:00 | 00:00:00 | 00:00:00 | |
| OE5WHR-10 | 2026-09-02 01:27:03 | 48.40184 | 13.18086 | 86° | 60km/h | 8198m | -3.7m/s | -31.8°C | 36.4% | 360.2hPa | 2.4V | 00:00:00 | 00:00:00 | 00:00:00 | |
| DL6DJ-15 | 2026-09-02 01:26:57 | 48.40188 | 13.17947 | 95° | 58km/h | 8225m | -3.8m/s | -32.1°C | 36.7% | 358.8hPa | 2.5V | 00:00:00 | 00:00:00 | 00:00:00 | |
| DO3MHA-11 | 2026-09-02 01:26:56 | 48.40188 | 13.17947 | 96° | 66km/h | 8225m | -3.8m/s | -32.0°C | 39.7% | 358.8hPa | 2.5V | 00:00:00 | 02:57:45 | 00:00:00 | |
| DG1MFX-10 | 2026-09-02 01:26:54 | 48.40189 | 13.17924 | 96° | 62km/h | 8229m | -4.0m/s | -32.1°C | 36.7% | 358.7hPa | 2.5V | 00:00:00 | 00:00:00 | 00:00:00 | |
| OE3JTB-15 | 2026-09-02 01:26:52 | 48.40192 | 13.17851 | 92° | 62km/h | 8241m | -3.7m/s | -32.1°C | 40.3% | 358.0hPa | 2.5V | 00:00:00 | 00:00:00 | 00:00:00 | |
| OE5MMP-10 | 2026-09-02 01:26:49 | 48.40190 | 13.17772 | 85° | 62km/h | 8252m | -3.9m/s | -32.2°C | 41.3% | 357.4hPa | 2.4V | 00:00:00 | 02:57:38 | 00:00:00 | |
| OE5HKT-10 | 2026-09-02 01:26:47 | 48.40186 | 13.17719 | 80° | 58km/h | 8260m | -3.9m/s | -32.3°C | 41.7% | 357.0hPa | 2.4V | 00:00:00 | 00:00:00 | 00:00:00 | |
| DO3MHA-11 | 2026-09-02 01:26:46 | 48.40182 | 13.17694 | 78° | 55km/h | 8263m | -3.7m/s | -32.4°C | 41.8% | 356.8hPa | 2.4V | 00:00:00 | 02:57:35 | 00:00:00 | |
| OE5DRO-10 | 2026-09-02 01:26:45 | 48.40178 | 13.17670 | 76° | 57km/h | 8267m | -3.8m/s | -32.4°C | 41.8% | 356.6hPa | 2.4V | 00:00:00 | 00:00:00 | 00:00:00 | |
| OE5REO-15 | 2026-09-02 01:26:40 | 48.40162 | 13.17585 | 76° | 53km/h | 8283m | -3.9m/s | -32.6°C | 39.1% | 355.9hPa | 2.4V | 07:40:00 | 00:00:00 | 00:00:00 | |
| OE5MMP-10 | 2026-09-02 01:26:39 | 48.40156 | 13.17548 | 80° | 53km/h | 8290m | -4.0m/s | -32.6°C | 42.8% | 355.5hPa | 2.4V | 00:00:00 | 02:57:28 | 00:00:00 | |
| DO3MHA-11 | 2026-09-02 01:26:36 | 48.40153 | 13.17493 | 91° | 60km/h | 8302m | -3.6m/s | -32.7°C | 43.2% | 354.9hPa | 2.5V | 07:39:00 | 02:57:25 | 00:00:00 | |
| PG1ADW-2 | 2026-09-02 01:26:32 | 48.40157 | 13.17412 | 96° | 62km/h | 8317m | -3.9m/s | -32.9°C | 44.0% | 354.2hPa | 2.5V | 00:00:00 | 00:00:00 | 00:00:00 | |
| OE5MMP-10 | 2026-09-02 01:26:29 | 48.40160 | 13.17341 | 93° | 68km/h | 8329m | -3.8m/s | -33.0°C | 44.4% | 353.5hPa | 2.4V | 00:00:00 | 02:57:18 | 00:00:00 | |
| OE5FHM-15 | 2026-09-02 01:26:28 | 48.40161 | 13.17315 | 91° | 62km/h | 8333m | -3.8m/s | -33.0°C | 44.7% | 353.4hPa | 2.4V | 00:00:00 | 02:57:17 | 00:00:00 | |
| DO3MHA-11 | 2026-09-02 01:26:26 | 48.40160 | 13.17262 | 86° | 64km/h | 8341m | -3.7m/s | -33.1°C | 44.9% | 353.0hPa | 2.4V | 00:00:00 | 02:57:15 | 00:00:00 | |
| OE5REO-15 | 2026-09-02 01:26:24 | 48.40158 | 13.17236 | 84° | 71km/h | 8345m | -4.1m/s | -33.2°C | 41.7% | 352.8hPa | 2.4V | 07:40:00 | 00:00:00 | 00:00:00 | |
| OE3JTB-15 | 2026-09-02 01:26:23 | 48.40153 | 13.17183 | 79° | 60km/h | 8353m | -3.9m/s | -33.2°C | 45.3% | 352.4hPa | 2.4V | 00:00:00 | 00:00:00 | 00:00:00 | |
| OE5WHR-10 | 2026-09-02 01:26:21 | 48.40145 | 13.17134 | 76° | 58km/h | 8360m | -3.9m/s | -33.3°C | 45.4% | 352.0hPa | 2.4V | 00:00:00 | 02:57:10 | 00:00:00 | |
| OE5MMP-10 | 2026-09-02 01:26:19 | 48.40136 | 13.17088 | 73° | 51km/h | 8368m | -3.7m/s | -33.3°C | 45.3% | 351.6hPa | 2.4V | 00:00:00 | 02:57:08 | 00:00:00 | |
| DO3MHA-11 | 2026-09-02 01:26:16 | 48.40124 | 13.17027 | 75° | 53km/h | 8380m | -3.8m/s | -33.4°C | 45.1% | 351.0hPa | 2.4V | 00:00:00 | 02:57:05 | 00:00:00 | |
| PG1ADW-2 | 2026-09-02 01:26:11 | 48.40115 | 13.16936 | 92° | 62km/h | 8399m | -3.8m/s | -33.6°C | 46.2% | 350.0hPa | 2.4V | 00:00:00 | 00:00:00 | 00:00:00 | |
| OE5MMP-10 | 2026-09-02 01:26:09 | 48.40117 | 13.16896 | 95° | 66km/h | 8406m | -3.8m/s | -33.7°C | 46.8% | 349.6hPa | 2.4V | 00:00:00 | 02:56:58 | 00:00:00 | |
| OE5REO-15 | 2026-09-02 01:26:08 | 48.40117 | 13.16897 | 96° | 55km/h | 8406m | -3.8m/s | -33.8°C | 43.3% | 349.7hPa | 2.5V | 07:40:00 | 00:00:00 | 00:00:00 | |
| OE5DRO-10 | 2026-09-02 01:26:07 | 48.40119 | 13.16852 | 94° | 60km/h | 8414m | -3.8m/s | -33.8°C | 47.1% | 349.3hPa | 2.5V | 00:00:00 | 00:00:00 | 00:00:00 | |
| DO3MHA-11 | 2026-09-02 01:26:06 | 48.40120 | 13.16827 | 93° | 68km/h | 8417m | -3.6m/s | -33.8°C | 47.5% | 349.1hPa | 2.4V | 00:00:00 | 02:56:55 | 00:00:00 | |
| OE5HKT-10 | 2026-09-02 01:26:05 | 48.40121 | 13.16802 | 91° | 58km/h | 8421m | -3.6m/s | -33.9°C | 47.8% | 349.0hPa | 2.4V | 00:00:00 | 00:00:00 | 00:00:00 | |
| DL6DJ-15 | 2026-09-02 01:25:55 | 48.40086 | 13.16535 | 72° | 53km/h | 8462m | -4.0m/s | -34.4°C | 46.7% | 347.0hPa | 2.5V | 00:00:00 | 00:00:00 | 00:00:00 | |
| OE3JTB-15 | 2026-09-02 01:25:54 | 48.40086 | 13.16535 | 73° | 57km/h | 8462m | -3.9m/s | -34.3°C | 50.4% | 346.9hPa | 2.5V | 00:00:00 | 02:56:43 | 00:00:00 | |
| OE5REO-15 | 2026-09-02 01:25:53 | 48.40086 | 13.16535 | 73° | 53km/h | 8462m | -4.0m/s | -34.4°C | 46.7% | 347.0hPa | 2.5V | 07:41:00 | 00:00:00 | 00:00:00 | |
| PG1ADW-2 | 2026-09-02 01:25:51 | 48.40077 | 13.16480 | 81° | 57km/h | 8474m | -3.9m/s | -34.4°C | 51.6% | 346.4hPa | 2.5V | 00:00:00 | 02:56:40 | 00:00:00 | |
| OE5MMP-10 | 2026-09-02 01:25:49 | 48.40074 | 13.16443 | 90° | 60km/h | 8481m | -3.7m/s | -34.5°C | 52.0% | 345.9hPa | 2.5V | 00:00:00 | 02:56:38 | 00:00:00 | |
| OE5DRO-10 | 2026-09-02 01:25:48 | 48.40075 | 13.16425 | 93° | 62km/h | 8485m | -3.8m/s | -34.6°C | 52.1% | 345.7hPa | 2.5V | 00:00:00 | 00:00:00 | 00:00:00 | |
| DO3MHA-11 | 2026-09-02 01:25:46 | 48.40076 | 13.16384 | 95° | 66km/h | 8493m | -4.0m/s | -34.6°C | 52.4% | 345.4hPa | 2.5V | 00:00:00 | 02:56:35 | 00:00:00 | |
| OE5HKT-10 | 2026-09-02 01:25:44 | 48.40078 | 13.16339 | 93° | 60km/h | 8500m | -3.6m/s | -34.7°C | 53.4% | 345.0hPa | 2.5V | 07:40:00 | 00:00:00 | 00:00:00 | |
| OE5WHR-10 | 2026-09-02 01:25:39 | 48.40073 | 13.16209 | 82° | 58km/h | 8520m | -3.9m/s | -34.9°C | 55.1% | 344.1hPa | 2.5V | 00:00:00 | 00:00:00 | 00:00:00 | |
| OE5REO-15 | 2026-09-02 01:25:38 | 48.40073 | 13.16209 | 83° | 69km/h | 8520m | -3.9m/s | -34.9°C | 51.2% | 344.1hPa | 2.5V | 07:41:00 | 00:00:00 | 00:00:00 | |
| DO3MHA-11 | 2026-09-02 01:25:36 | 48.40062 | 13.16132 | 75° | 55km/h | 8532m | -3.8m/s | -35.0°C | 52.6% | 343.5hPa | 2.5V | 00:00:00 | 02:56:25 | 00:00:00 | |
| PG1ADW-2 | 2026-09-02 01:25:31 | 48.40039 | 13.16024 | 72° | 58km/h | 8551m | -3.8m/s | -35.2°C | 47.9% | 342.5hPa | 2.5V | 00:00:00 | 00:00:00 | 00:00:00 | |
| OE5MMP-10 | 2026-09-02 01:25:29 | 48.40032 | 13.15988 | 77° | 55km/h | 8558m | -3.8m/s | -35.3°C | 44.7% | 342.1hPa | 2.5V | 00:00:00 | 02:56:18 | 00:00:00 | |
| OE5DXL-15 | 2026-09-02 01:25:28 | 48.40030 | 13.15970 | 81° | 57km/h | 8562m | -3.9m/s | -35.3°C | 44.0% | 341.9hPa | 2.5V | 00:00:00 | 00:00:00 | 00:00:00 | |
| DO3MHA-11 | 2026-09-02 01:25:26 | 48.40027 | 13.15934 | 89° | 60km/h | 8570m | -3.8m/s | -35.4°C | 44.9% | 341.6hPa | 2.5V | 00:00:00 | 02:56:15 | 00:00:00 | |
| OE3JTB-15 | 2026-09-02 01:25:25 | 48.40027 | 13.15916 | 92° | 58km/h | 8574m | -3.7m/s | -35.4°C | 45.7% | 341.4hPa | 2.5V | 07:40:00 | 00:00:00 | 00:00:00 | |
| DL6DJ-15 | 2026-09-02 01:25:24 | 48.40029 | 13.15875 | 94° | 57km/h | 8581m | -3.8m/s | -35.6°C | 39.5% | 341.1hPa | 2.5V | 00:00:00 | 00:00:00 | 00:00:00 | |
| OE5HKT-10 | 2026-09-02 01:25:23 | 48.40029 | 13.15875 | 95° | 58km/h | 8582m | -3.7m/s | -35.5°C | 43.0% | 341.0hPa | 2.5V | 00:00:00 | 02:56:12 | 00:00:00 | |
| OE5REO-15 | 2026-09-02 01:25:22 | 48.40029 | 13.15875 | 95° | 57km/h | 8582m | -3.8m/s | -35.6°C | 39.5% | 341.1hPa | 2.5V | 07:41:00 | 00:00:00 | 00:00:00 | |
| OE5MMP-10 | 2026-09-02 01:25:19 | 48.40031 | 13.15779 | 89° | 66km/h | 8597m | -3.9m/s | -35.7°C | 44.0% | 340.2hPa | 2.5V | 00:00:00 | 02:56:08 | 00:00:00 | |
| OE5WHR-10 | 2026-09-02 01:25:18 | 48.40030 | 13.15753 | 86° | 58km/h | 8601m | -3.9m/s | -35.7°C | 44.5% | 340.0hPa | 2.5V | 00:00:00 | 02:56:07 | 00:00:00 | |
| DO3MHA-11 | 2026-09-02 01:25:16 | 48.40026 | 13.15700 | 81° | 60km/h | 8609m | -3.9m/s | -35.8°C | 45.0% | 339.6hPa | 2.5V | 07:40:00 | 02:56:05 | 00:00:00 | |
| PG1ADW-2 | 2026-09-02 01:25:11 | 48.40004 | 13.15581 | 71° | 58km/h | 8628m | -3.9m/s | -36.0°C | 47.9% | 338.7hPa | 2.5V | 07:41:00 | 00:00:00 | 00:00:00 | |
| OE5DRO-10 | 2026-09-02 01:25:10 | 48.39999 | 13.15561 | 71° | 58km/h | 8632m | -3.8m/s | -36.0°C | 48.6% | 338.5hPa | 2.5V | 00:00:00 | 00:00:00 | 00:00:00 | |
| OE5MMP-10 | 2026-09-02 01:25:09 | 48.39995 | 13.15542 | 72° | 51km/h | 8636m | -4.0m/s | -36.1°C | 49.6% | 338.3hPa | 2.4V | 00:00:00 | 02:55:58 | 00:00:00 | |
| OE5REO-15 | 2026-09-02 01:25:07 | 48.39990 | 13.15523 | 75° | 49km/h | 8640m | -4.0m/s | -36.1°C | 46.7% | 338.1hPa | 2.4V | 07:41:00 | 00:00:00 | 00:00:00 | |
| DG1MFX-10 | 2026-09-02 01:25:03 | 48.39984 | 13.15452 | 90° | 49km/h | 8656m | -3.9m/s | -36.2°C | 54.4% | 337.4hPa | 2.4V | 00:00:00 | 00:00:00 | 00:00:00 | |
| DL6DJ-15 | 2026-09-02 01:24:53 | 48.39978 | 13.15165 | 77° | 69km/h | 8703m | -4.1m/s | -36.4°C | 71.2% | 335.0hPa | 2.4V | 00:00:00 | 00:00:00 | 00:00:00 | |
| OE5REO-15 | 2026-09-02 01:24:52 | 48.39981 | 13.15191 | 81° | 71km/h | 8700m | -3.9m/s | -36.4°C | 70.8% | 335.2hPa | 2.4V | 07:41:00 | 00:00:00 | 00:00:00 | |
| PG1ADW-2 | 2026-09-02 01:24:51 | 48.39974 | 13.15139 | 76° | 60km/h | 8708m | -4.0m/s | -36.4°C | 76.7% | 334.8hPa | 2.4V | 00:00:00 | 00:00:00 | 00:00:00 | |
| OE5MMP-10 | 2026-09-02 01:24:49 | 48.39964 | 13.15092 | 72° | 51km/h | 8715m | -3.8m/s | -36.5°C | 77.1% | 334.4hPa | 2.4V | 00:00:00 | 02:55:38 | 00:00:00 | |
| DO3MHA-11 | 2026-09-02 01:24:46 | 48.39951 | 13.15030 | 74° | 51km/h | 8727m | -3.8m/s | -36.6°C | 77.6% | 333.9hPa | 2.4V | 00:00:00 | 02:55:35 | 00:00:00 | |
| OE5HKT-10 | 2026-09-02 01:24:41 | 48.39942 | 13.14940 | 91° | 60km/h | 8747m | -3.9m/s | -36.7°C | 77.0% | 332.9hPa | 2.4V | 00:00:00 | 00:00:00 | 00:00:00 | |
| OE5MMP-10 | 2026-09-02 01:24:39 | 48.39943 | 13.14900 | 95° | 66km/h | 8755m | -4.1m/s | -36.8°C | 77.3% | 332.6hPa | 2.4V | 00:00:00 | 02:55:28 | 00:00:00 | |
| DG1MFX-10 | 2026-09-02 01:24:38 | 48.39943 | 13.14900 | 95° | 55km/h | 8755m | -4.1m/s | -36.8°C | 72.0% | 332.6hPa | 2.5V | 00:00:00 | 00:00:00 | 00:00:00 | |
| DO3MHA-11 | 2026-09-02 01:24:36 | 48.39947 | 13.14832 | 93° | 68km/h | 8767m | -4.0m/s | -36.9°C | 77.3% | 332.0hPa | 2.5V | 00:00:00 | 02:55:25 | 00:00:00 | |
| OE5DRO-10 | 2026-09-02 01:24:32 | 48.39944 | 13.14726 | 84° | 58km/h | 8783m | -3.8m/s | -37.0°C | 77.5% | 331.2hPa | 2.4V | 00:00:00 | 00:00:00 | 00:00:00 | |
| OE5MMP-10 | 2026-09-02 01:24:29 | 48.39935 | 13.14647 | 77° | 57km/h | 8794m | -3.9m/s | -37.1°C | 78.0% | 330.7hPa | 2.4V | 00:00:00 | 02:55:18 | 00:00:00 | |
| OE5FHM-15 | 2026-09-02 01:24:28 | 48.39931 | 13.14623 | 75° | 62km/h | 8798m | -3.9m/s | -37.2°C | 78.1% | 330.4hPa | 2.4V | 00:00:00 | 02:55:17 | 00:00:00 | |
| OE3JTB-15 | 2026-09-02 01:24:27 | 48.39926 | 13.14599 | 74° | 60km/h | 8802m | -3.7m/s | -37.2°C | 78.6% | 330.3hPa | 2.5V | 00:00:00 | 02:55:16 | 00:00:00 | |
| DO3MHA-11 | 2026-09-02 01:24:26 | 48.39922 | 13.14577 | 73° | 53km/h | 8806m | -3.9m/s | -37.2°C | 79.3% | 330.1hPa | 2.5V | 00:00:00 | 02:55:15 | 00:00:00 | |
| OE5REO-15 | 2026-09-02 01:24:21 | 48.39908 | 13.14499 | 80° | 49km/h | 8821m | -3.8m/s | -37.4°C | 76.7% | 329.5hPa | 2.5V | 07:41:00 | 00:00:00 | 00:00:00 | |
| OE5HKT-10 | 2026-09-02 01:24:20 | 48.39905 | 13.14463 | 87° | 64km/h | 8829m | -3.9m/s | -37.3°C | 83.6% | 329.0hPa | 2.5V | 00:00:00 | 02:55:09 | 00:00:00 | |
| OE5MMP-10 | 2026-09-02 01:24:19 | 48.39904 | 13.14444 | 90° | 62km/h | 8833m | -3.7m/s | -37.4°C | 83.5% | 328.8hPa | 2.5V | 07:41:00 | 02:55:08 | 00:00:00 | |
| DG1MFX-10 | 2026-09-02 01:24:17 | 48.39904 | 13.14424 | 93° | 53km/h | 8836m | -3.9m/s | -37.4°C | 77.9% | 328.7hPa | 2.5V | 00:00:00 | 00:00:00 | 00:00:00 | |
| DO3MHA-11 | 2026-09-02 01:24:16 | 48.39906 | 13.14382 | 95° | 69km/h | 8844m | -3.9m/s | -37.3°C | 82.4% | 328.3hPa | 2.5V | 00:00:00 | 02:55:05 | 00:00:00 | |
| OE5WHR-10 | 2026-09-02 01:24:15 | 48.39907 | 13.14359 | 95° | 64km/h | 8848m | -3.9m/s | -37.3°C | 81.3% | 328.1hPa | 2.5V | 00:00:00 | 02:55:04 | 00:00:00 | |
| OE5DRO-10 | 2026-09-02 01:24:13 | 48.39909 | 13.14310 | 92° | 64km/h | 8856m | -3.9m/s | -37.3°C | 80.1% | 327.7hPa | 2.5V | 00:00:00 | 00:00:00 | 00:00:00 | |
| OE5MMP-10 | 2026-09-02 01:24:09 | 48.39906 | 13.14201 | 84° | 66km/h | 8872m | -4.0m/s | -37.3°C | 79.5% | 326.9hPa | 2.4V | 00:00:00 | 02:54:58 | 00:00:00 | |
| DO3MHA-11 | 2026-09-02 01:24:06 | 48.39897 | 13.14119 | 78° | 60km/h | 8884m | -3.8m/s | -37.4°C | 79.7% | 326.4hPa | 2.4V | 00:00:00 | 02:54:55 | 00:00:00 | |
| OE5REO-15 | 2026-09-02 01:24:05 | 48.39897 | 13.14119 | 78° | 71km/h | 8884m | -3.9m/s | -37.4°C | 74.2% | 326.4hPa | 2.4V | 07:42:00 | 00:00:00 | 00:00:00 | |
| OE5MMP-10 | 2026-09-02 01:23:59 | 48.39866 | 13.13960 | 77° | 55km/h | 8911m | -3.9m/s | -37.6°C | 82.1% | 325.1hPa | 2.4V | 00:00:00 | 02:54:48 | 00:00:00 | |
| OE5DXL-15 | 2026-09-02 01:23:58 | 48.39863 | 13.13940 | 79° | 60km/h | 8915m | -3.8m/s | -37.6°C | 83.1% | 324.9hPa | 2.4V | 00:00:00 | 00:00:00 | 00:00:00 | |
| DO3MHA-11 | 2026-09-02 01:23:56 | 48.39859 | 13.13903 | 84° | 62km/h | 8923m | -4.1m/s | -37.7°C | 84.2% | 324.6hPa | 2.4V | 07:42:00 | 02:54:45 | 00:00:00 | |
| OE5WHR-10 | 2026-09-02 01:23:54 | 48.39858 | 13.13864 | 91° | 64km/h | 8932m | -4.1m/s | -37.7°C | 84.7% | 324.2hPa | 2.4V | 00:00:00 | 00:00:00 | 00:00:00 | |
| OE5REO-15 | 2026-09-02 01:23:50 | 48.39860 | 13.13798 | 94° | 62km/h | 8944m | -3.8m/s | -37.9°C | 79.3% | 323.6hPa | 2.5V | 07:42:00 | 00:00:00 | 00:00:00 | |
| OE5MMP-10 | 2026-09-02 01:23:49 | 48.39861 | 13.13748 | 91° | 71km/h | 8951m | -3.7m/s | -37.9°C | 85.9% | 323.2hPa | 2.5V | 00:00:00 | 02:54:38 | 00:00:00 | |
| DO3MHA-11 | 2026-09-02 01:23:46 | 48.39859 | 13.13665 | 84° | 68km/h | 8963m | -3.9m/s | -38.0°C | 86.8% | 322.7hPa | 2.5V | 00:00:00 | 02:54:35 | 00:00:00 | |
| OE5MMP-10 | 2026-09-02 01:23:39 | 48.39830 | 13.13484 | 71° | 55km/h | 8992m | -4.2m/s | -38.2°C | 87.0% | 321.3hPa | 2.5V | 00:00:00 | 02:54:28 | 00:00:00 | |
| OE5HKT-10 | 2026-09-02 01:23:38 | 48.39825 | 13.13462 | 71° | 57km/h | 8996m | -4.2m/s | -38.3°C | 87.0% | 321.1hPa | 2.4V | 00:00:00 | 00:00:00 | 00:00:00 | |
| DO3MHA-11 | 2026-09-02 01:23:36 | 48.39816 | 13.13422 | 75° | 55km/h | 9005m | -4.1m/s | -38.3°C | 87.4% | 320.8hPa | 2.4V | 00:00:00 | 02:54:25 | 00:00:00 | |
| OE5DRO-10 | 2026-09-02 01:23:35 | 48.39812 | 13.13403 | 77° | 64km/h | 9009m | -4.1m/s | -38.3°C | 87.5% | 320.6hPa | 2.4V | 00:00:00 | 00:00:00 | 00:00:00 | |
| PETON7-10 | 2026-09-02 01:23:34 | 48.39810 | 13.13384 | 82° | 64km/h | 9013m | -4.0m/s | -38.4°C | 87.7% | 320.4hPa | 2.4V | 00:00:00 | 02:54:23 | 00:00:00 | |
| OE5WHR-10 | 2026-09-02 01:23:33 | 48.39808 | 13.13366 | 86° | 64km/h | 9017m | -4.0m/s | -38.4°C | 87.9% | 320.2hPa | 2.4V | 00:00:00 | 00:00:00 | 00:00:00 | |
| OE5MMP-10 | 2026-09-02 01:23:29 | 48.39809 | 13.13283 | 94° | 69km/h | 9033m | -4.3m/s | -38.6°C | 87.9% | 319.4hPa | 2.4V | 00:00:00 | 02:54:18 | 00:00:00 | |
| OE5DXL-15 | 2026-09-02 01:23:28 | 48.39810 | 13.13259 | 93° | 66km/h | 9037m | -4.2m/s | -38.6°C | 87.5% | 319.2hPa | 2.4V | 07:42:00 | 00:00:00 | 00:00:00 | |
| DO3MHA-11 | 2026-09-02 01:23:26 | 48.39811 | 13.13209 | 90° | 71km/h | 9046m | -3.9m/s | -38.6°C | 87.2% | 318.9hPa | 2.5V | 00:00:00 | 02:54:15 | 00:00:00 | |
| OE5MMP-10 | 2026-09-02 01:23:19 | 48.39792 | 13.13019 | 74° | 58km/h | 9074m | -4.2m/s | -38.8°C | 86.2% | 317.5hPa | 2.5V | 00:00:00 | 02:54:08 | 00:00:00 | |
| OE5REO-15 | 2026-09-02 01:23:18 | 48.39792 | 13.13019 | 75° | 71km/h | 9074m | -4.2m/s | -38.8°C | 80.1% | 317.6hPa | 2.5V | 07:43:00 | 00:00:00 | 00:00:00 | |
| OE5DRO-10 | 2026-09-02 01:23:16 | 48.39776 | 13.12946 | 70° | 62km/h | 9087m | -4.3m/s | -38.8°C | 84.6% | 316.9hPa | 2.5V | 00:00:00 | 00:00:00 | 00:00:00 | |
| DG1MFX-10 | 2026-09-02 01:23:14 | 48.39771 | 13.12924 | 71° | 58km/h | 9091m | -4.1m/s | -38.9°C | 78.7% | 316.7hPa | 2.4V | 07:43:00 | 00:00:00 | 00:00:00 | |
| DO3MHA-11 | 2026-09-02 01:23:13 | 48.39762 | 13.12884 | 73° | 51km/h | 9099m | -4.2m/s | -38.9°C | 84.3% | 316.4hPa | 2.4V | 00:00:00 | 02:54:02 | 00:00:00 | |
| OE5WHR-10 | 2026-09-02 01:23:12 | 48.39758 | 13.12865 | 77° | 62km/h | 9103m | -4.3m/s | -38.9°C | 84.4% | 316.2hPa | 2.4V | 00:00:00 | 02:54:01 | 00:00:00 | |
| OE5MMP-10 | 2026-09-02 01:23:09 | 48.39754 | 13.12809 | 89° | 66km/h | 9116m | -4.0m/s | -39.0°C | 84.1% | 315.6hPa | 2.4V | 00:00:00 | 02:53:58 | 00:00:00 | |
| PETON7-10 | 2026-09-02 01:23:04 | 48.39756 | 13.12694 | 90° | 64km/h | 9137m | -3.9m/s | -39.2°C | 83.3% | 314.6hPa | 2.5V | 00:00:00 | 00:00:00 | 00:00:00 | |
| OE5REO-15 | 2026-09-02 01:23:03 | 48.39756 | 13.12667 | 89° | 71km/h | 9141m | -4.2m/s | -39.3°C | 77.2% | 314.5hPa | 2.5V | 07:43:00 | 00:00:00 | 00:00:00 | |
| DL6DJ-15 | 2026-09-02 01:22:48 | 48.39702 | 13.12326 | 89° | 53km/h | 9203m | -4.1m/s | -39.7°C | 75.5% | 311.6hPa | 2.5V | 00:00:00 | 00:00:00 | 00:00:00 | |
| OE5REO-15 | 2026-09-02 01:22:47 | 48.39702 | 13.12326 | 91° | 53km/h | 9203m | -4.1m/s | -39.7°C | 75.5% | 311.6hPa | 2.5V | 07:43:00 | 00:00:00 | 00:00:00 | |
| OE5MMP-10 | 2026-09-02 01:22:39 | 48.39695 | 13.12098 | 80° | 64km/h | 9240m | -4.2m/s | -40.0°C | 80.6% | 309.9hPa | 2.5V | 00:00:00 | 02:53:28 | 00:00:00 | |
| OE5DRO-10 | 2026-09-02 01:22:38 | 48.39692 | 13.12070 | 77° | 62km/h | 9245m | -4.2m/s | -40.0°C | 80.5% | 309.7hPa | 2.5V | 00:00:00 | 00:00:00 | 00:00:00 | |
| PETON7-10 | 2026-09-02 01:22:33 | 48.39665 | 13.11948 | 70° | 60km/h | 9265m | -4.1m/s | -40.2°C | 80.4% | 308.7hPa | 2.5V | 07:43:00 | 00:00:00 | 00:00:00 | |
| OE5REO-15 | 2026-09-02 01:22:32 | 48.39660 | 13.11927 | 71° | 57km/h | 9269m | -4.2m/s | -40.3°C | 74.6% | 308.6hPa | 2.4V | 07:44:00 | 00:00:00 | 00:00:00 | |
| OE3JTB-15 | 2026-09-02 01:22:31 | 48.39656 | 13.11908 | 73° | 68km/h | 9273m | -4.0m/s | -40.3°C | 80.6% | 308.4hPa | 2.4V | 00:00:00 | 00:00:00 | 00:00:00 | |
| OE5WHR-10 | 2026-09-02 01:22:30 | 48.39652 | 13.11888 | 77° | 68km/h | 9277m | -3.9m/s | -40.4°C | 80.3% | 308.3hPa | 2.5V | 00:00:00 | 00:00:00 | 00:00:00 | |
| OE5MMP-10 | 2026-09-02 01:22:29 | 48.39650 | 13.11869 | 82° | 60km/h | 9281m | -3.9m/s | -40.4°C | 80.5% | 308.0hPa | 2.5V | 00:00:00 | 02:53:18 | 00:00:00 | |
| OE5FHM-15 | 2026-09-02 01:22:28 | 48.39648 | 13.11849 | 85° | 69km/h | 9285m | -4.0m/s | -40.4°C | 80.9% | 307.9hPa | 2.5V | 00:00:00 | 02:53:17 | 00:00:00 | |
| OE5MMP-10 | 2026-09-02 01:22:19 | 48.39649 | 13.11636 | 91° | 77km/h | 9322m | -4.3m/s | -40.7°C | 80.8% | 306.2hPa | 2.5V | 00:00:00 | 02:53:08 | 00:00:00 | |
| PETON7-10 | 2026-09-02 01:22:18 | 48.39649 | 13.11609 | 90° | 77km/h | 9326m | -4.3m/s | -40.7°C | 80.7% | 306.0hPa | 2.5V | 00:00:00 | 00:00:00 | 00:00:00 | |
| DL6DJ-15 | 2026-09-02 01:22:17 | 48.39649 | 13.11581 | 88° | 73km/h | 9331m | -4.1m/s | -40.8°C | 74.2% | 305.8hPa | 2.5V | 00:00:00 | 00:00:00 | 00:00:00 | |
| OE5REO-15 | 2026-09-02 01:22:15 | 48.39648 | 13.11553 | 89° | 75km/h | 9335m | -4.3m/s | -40.9°C | 73.8% | 305.6hPa | 2.5V | 07:44:00 | 00:00:00 | 00:00:00 | |
| DG1MFX-10 | 2026-09-02 01:22:11 | 48.39642 | 13.11434 | 83° | 80km/h | 9352m | -4.3m/s | -41.0°C | 71.7% | 304.8hPa | 2.5V | 07:44:00 | 00:00:00 | 00:00:00 | |
| OE5WHR-10 | 2026-09-02 01:22:09 | 48.39630 | 13.11344 | 76° | 73km/h | 9365m | -4.0m/s | -41.0°C | 76.4% | 304.3hPa | 2.5V | 07:44:00 | 02:52:58 | 00:00:00 | |
| DL6DJ-15 | 2026-09-02 01:21:46 | 48.39568 | 13.10705 | 72° | 78km/h | 9458m | -4.2m/s | -41.6°C | 65.5% | 300.1hPa | 2.5V | 00:00:00 | 00:00:00 | 00:00:00 | |
| PETON7-10 | 2026-09-02 01:21:45 | 48.39562 | 13.10677 | 72° | 73km/h | 9463m | -4.1m/s | -41.6°C | 71.3% | 299.9hPa | 2.5V | 00:00:00 | 00:00:00 | 00:00:00 | |
| OE5REO-15 | 2026-09-02 01:21:44 | 48.39562 | 13.10677 | 72° | 77km/h | 9463m | -4.1m/s | -41.6°C | 65.4% | 300.0hPa | 2.5V | 07:44:00 | 00:00:00 | 00:00:00 | |
| OE5DRO-10 | 2026-09-02 01:21:41 | 48.39540 | 13.10575 | 76° | 80km/h | 9480m | -4.1m/s | -41.7°C | 71.5% | 299.2hPa | 2.5V | 00:00:00 | 00:00:00 | 00:00:00 | |
| OE5MMP-10 | 2026-09-02 01:21:39 | 48.39534 | 13.10527 | 83° | 77km/h | 9488m | -4.0m/s | -41.7°C | 72.2% | 298.8hPa | 2.5V | 07:44:00 | 02:52:28 | 00:00:00 | |
| OE3JTB-15 | 2026-09-02 01:21:33 | 48.39530 | 13.10361 | 89° | 84km/h | 9512m | -4.3m/s | -41.9°C | 73.1% | 297.7hPa | 2.5V | 07:44:00 | 02:52:22 | 00:00:00 | |
| PETON7-10 | 2026-09-02 01:21:30 | 48.39525 | 13.10263 | 84° | 89km/h | 9525m | -4.4m/s | -42.0°C | 71.7% | 297.1hPa | 2.5V | 00:00:00 | 00:00:00 | 00:00:00 | |
| OE5REO-15 | 2026-09-02 01:21:29 | 48.39523 | 13.10229 | 83° | 89km/h | 9530m | -4.4m/s | -42.1°C | 65.4% | 297.0hPa | 2.5V | 07:45:00 | 00:00:00 | 00:00:00 | |
| OE5FHM-15 | 2026-09-02 01:21:28 | 48.39519 | 13.10195 | 81° | 84km/h | 9534m | -4.5m/s | -42.1°C | 70.9% | 296.7hPa | 2.5V | 00:00:00 | 02:52:17 | 00:00:00 | |
| OE5WHR-10 | 2026-09-02 01:21:27 | 48.39514 | 13.10162 | 78° | 82km/h | 9538m | -4.5m/s | -42.1°C | 70.6% | 296.6hPa | 2.5V | 00:00:00 | 00:00:00 | 00:00:00 | |
| OE5DRO-10 | 2026-09-02 01:21:22 | 48.39483 | 13.10003 | 70° | 82km/h | 9560m | -4.0m/s | -42.2°C | 70.6% | 295.5hPa | 2.5V | 00:00:00 | 00:00:00 | 00:00:00 | |
| DL6DJ-15 | 2026-09-02 01:21:15 | 48.39450 | 13.09817 | 84° | 73km/h | 9588m | -4.2m/s | -42.5°C | 66.5% | 294.5hPa | 2.4V | 00:00:00 | 00:00:00 | 00:00:00 | |
| OE5REO-15 | 2026-09-02 01:21:12 | 48.39448 | 13.09758 | 88° | 80km/h | 9597m | -4.3m/s | -42.5°C | 67.5% | 294.0hPa | 2.4V | 07:45:00 | 00:00:00 | 00:00:00 | |
| DG1MFX-10 | 2026-09-02 01:21:10 | 48.39445 | 13.09695 | 87° | 86km/h | 9605m | -4.1m/s | -42.6°C | 67.7% | 293.7hPa | 2.4V | 07:45:00 | 00:00:00 | 00:00:00 | |
| OE5MMP-10 | 2026-09-02 01:21:09 | 48.39441 | 13.09628 | 84° | 93km/h | 9614m | -4.3m/s | -42.6°C | 73.3% | 293.3hPa | 2.4V | 00:00:00 | 02:51:58 | 00:00:00 | |
| OE5WHR-10 | 2026-09-02 01:21:06 | 48.39429 | 13.09522 | 78° | 88km/h | 9627m | -4.2m/s | -42.7°C | 71.9% | 292.7hPa | 2.5V | 00:00:00 | 02:51:55 | 00:00:00 | |
| PG1ADW-2 | 2026-09-02 01:21:05 | 48.39424 | 13.09486 | 76° | 86km/h | 9631m | -4.5m/s | -42.7°C | 71.3% | 292.5hPa | 2.5V | 00:00:00 | 00:00:00 | 00:00:00 | |
| OE3JTB-15 | 2026-09-02 01:21:04 | 48.39418 | 13.09451 | 74° | 88km/h | 9636m | -4.5m/s | -42.8°C | 70.9% | 292.3hPa | 2.5V | 00:00:00 | 00:00:00 | 00:00:00 | |
| OE5DRO-10 | 2026-09-02 01:21:03 | 48.39410 | 13.09417 | 73° | 86km/h | 9640m | -4.5m/s | -42.8°C | 70.6% | 292.1hPa | 2.4V | 00:00:00 | 00:00:00 | 00:00:00 | |
| OE5MMP-10 | 2026-09-02 01:20:59 | 48.39379 | 13.09290 | 69° | 80km/h | 9658m | -4.0m/s | -42.9°C | 71.0% | 291.4hPa | 2.4V | 00:00:00 | 02:51:48 | 00:00:00 | |
| OE5REO-15 | 2026-09-02 01:20:58 | 48.39372 | 13.09262 | 70° | 78km/h | 9662m | -4.1m/s | -43.0°C | 65.5% | 291.2hPa | 2.4V | 07:45:00 | 00:00:00 | 00:00:00 | |
| OE5HKT-10 | 2026-09-02 01:20:55 | 48.39356 | 13.09180 | 79° | 91km/h | 9674m | -3.9m/s | -43.1°C | 73.0% | 290.6hPa | 2.4V | 00:00:00 | 02:51:44 | 00:00:00 | |
| DG1MFX-10 | 2026-09-02 01:20:50 | 48.39343 | 13.09028 | 85° | 89km/h | 9695m | -4.5m/s | -43.3°C | 67.9% | 289.8hPa | 2.4V | 07:46:00 | 00:00:00 | 00:00:00 | |
| OE5MMP-10 | 2026-09-02 01:20:49 | 48.39341 | 13.08994 | 84° | 97km/h | 9699m | -4.3m/s | -43.3°C | 73.9% | 289.6hPa | 2.4V | 00:00:00 | 02:51:38 | 00:00:00 | |
| PG1ADW-2 | 2026-09-02 01:20:45 | 48.39326 | 13.08849 | 79° | 91km/h | 9717m | -4.4m/s | -43.4°C | 71.6% | 288.8hPa | 2.4V | 00:00:00 | 00:00:00 | 00:00:00 | |
| OE5DRO-10 | 2026-09-02 01:20:44 | 48.39320 | 13.08812 | 77° | 91km/h | 9721m | -4.4m/s | -43.4°C | 71.3% | 288.6hPa | 2.4V | 00:00:00 | 00:00:00 | 00:00:00 | |
| OE5REO-15 | 2026-09-02 01:20:41 | 48.39306 | 13.08738 | 73° | 100km/h | 9730m | -4.3m/s | -43.5°C | 64.7% | 288.3hPa | 2.4V | 07:46:00 | 00:00:00 | 00:00:00 | |
| OE5MMP-10 | 2026-09-02 01:20:39 | 48.39281 | 13.08637 | 68° | 84km/h | 9743m | -4.1m/s | -43.6°C | 71.1% | 287.7hPa | 2.4V | 00:00:00 | 02:51:28 | 00:00:00 | |
| OE3JTB-15 | 2026-09-02 01:20:35 | 48.39251 | 13.08519 | 74° | 93km/h | 9759m | -4.2m/s | -43.7°C | 71.2% | 287.0hPa | 2.4V | 00:00:00 | 00:00:00 | 00:00:00 | |
| OE5MMP-10 | 2026-09-02 01:20:29 | 48.39230 | 13.08331 | 83° | 102km/h | 9784m | -4.2m/s | -43.9°C | 73.2% | 286.0hPa | 2.4V | 00:00:00 | 02:51:18 | 00:00:00 | |
| OE5FHM-15 | 2026-09-02 01:20:28 | 48.39227 | 13.08295 | 82° | 99km/h | 9788m | -4.1m/s | -44.0°C | 73.0% | 285.8hPa | 2.4V | 00:00:00 | 02:51:17 | 00:00:00 | |
| PG1ADW-2 | 2026-09-02 01:20:25 | 48.39213 | 13.08182 | 78° | 95km/h | 9801m | -4.2m/s | -44.1°C | 72.1% | 285.2hPa | 2.4V | 00:00:00 | 02:51:14 | 00:00:00 | |
| OE5WHR-10 | 2026-09-02 01:20:24 | 48.39207 | 13.08143 | 77° | 95km/h | 9806m | -4.2m/s | -44.1°C | 71.7% | 285.1hPa | 2.4V | 00:00:00 | 00:00:00 | 00:00:00 | |
| OE5MMP-10 | 2026-09-02 01:20:19 | 48.39167 | 13.07955 | 69° | 89km/h | 9828m | -4.3m/s | -44.3°C | 69.9% | 284.1hPa | 2.4V | 07:45:00 | 02:51:08 | 00:00:00 | |
| PETON7-10 | 2026-09-02 01:20:13 | 48.39113 | 13.07761 | 71° | 95km/h | 9853m | -4.0m/s | -44.4°C | 71.6% | 283.1hPa | 2.4V | 00:00:00 | 02:51:02 | 00:00:00 | |
| OE5REO-15 | 2026-09-02 01:20:10 | 48.39101 | 13.07701 | 77° | 82km/h | 9861m | -4.0m/s | -44.5°C | 65.8% | 282.8hPa | 2.4V | 07:46:00 | 00:00:00 | 00:00:00 | |
| OE5MMP-10 | 2026-09-02 01:20:09 | 48.39093 | 13.07638 | 81° | 100km/h | 9869m | -4.4m/s | -44.5°C | 73.2% | 282.4hPa | 2.4V | 00:00:00 | 02:50:58 | 00:00:00 | |
| OE3JTB-15 | 2026-09-02 01:20:06 | 48.39082 | 13.07533 | 81° | 97km/h | 9882m | -4.2m/s | -44.6°C | 74.0% | 281.9hPa | 2.4V | 00:00:00 | 02:50:55 | 00:00:00 | |
| PG1ADW-2 | 2026-09-02 01:20:05 | 48.39077 | 13.07496 | 80° | 97km/h | 9886m | -4.2m/s | -44.6°C | 74.1% | 281.7hPa | 2.4V | 00:00:00 | 00:00:00 | 00:00:00 | |
| OE5WHR-10 | 2026-09-02 01:20:03 | 48.39066 | 13.07419 | 76° | 95km/h | 9894m | -4.0m/s | -44.7°C | 74.0% | 281.3hPa | 2.4V | 00:00:00 | 02:50:52 | 00:00:00 | |
| OE5MMP-10 | 2026-09-02 01:19:59 | 48.39033 | 13.07264 | 69° | 97km/h | 9911m | -4.3m/s | -44.8°C | 73.8% | 280.5hPa | 2.4V | 00:00:00 | 02:50:48 | 00:00:00 | |
| PETON7-10 | 2026-09-02 01:19:58 | 48.39023 | 13.07227 | 68° | 93km/h | 9915m | -4.1m/s | -44.9°C | 73.4% | 280.4hPa | 2.4V | 00:00:00 | 00:00:00 | 00:00:00 | |
| OE5REO-15 | 2026-09-02 01:19:54 | 48.38992 | 13.07122 | 66° | 99km/h | 9928m | -4.4m/s | -45.0°C | 66.2% | 279.9hPa | 2.5V | 07:47:00 | 00:00:00 | 00:00:00 | |
| OE5MMP-10 | 2026-09-02 01:19:49 | 48.38936 | 13.06936 | 71° | 91km/h | 9954m | -3.8m/s | -45.1°C | 75.2% | 278.8hPa | 2.5V | 00:00:00 | 02:50:38 | 00:00:00 | |
| DG1MFX-10 | 2026-09-02 01:19:48 | 48.38936 | 13.06936 | 72° | 82km/h | 9954m | -3.9m/s | -45.2°C | 68.4% | 278.8hPa | 2.5V | 07:47:00 | 00:00:00 | 00:00:00 | |
| OE5DRO-10 | 2026-09-02 01:19:47 | 48.38924 | 13.06875 | 76° | 100km/h | 9961m | -3.9m/s | -45.2°C | 76.3% | 278.5hPa | 2.5V | 07:46:00 | 00:00:00 | 00:00:00 | |
| PG1ADW-2 | 2026-09-02 01:19:45 | 48.38914 | 13.06811 | 80° | 99km/h | 9970m | -4.1m/s | -45.3°C | 75.7% | 278.1hPa | 2.5V | 07:46:00 | 00:00:00 | 00:00:00 | |
| PETON7-10 | 2026-09-02 01:19:43 | 48.38906 | 13.06741 | 80° | 102km/h | 9978m | -4.2m/s | -45.3°C | 75.7% | 277.8hPa | 2.4V | 00:00:00 | 00:00:00 | 00:00:00 | |
| OE5WHR-10 | 2026-09-02 01:19:42 | 48.38901 | 13.06705 | 80° | 99km/h | 9983m | -4.4m/s | -45.3°C | 75.5% | 277.6hPa | 2.4V | 00:00:00 | 00:00:00 | 00:00:00 | |
| OE5MMP-10 | 2026-09-02 01:19:39 | 48.38886 | 13.06591 | 77° | 106km/h | 9995m | -4.4m/s | -45.4°C | 74.6% | 277.1hPa | 2.5V | 00:00:00 | 02:50:28 | 00:00:00 | |
| OE3JTB-15 | 2026-09-02 01:19:37 | 48.38872 | 13.06512 | 75° | 102km/h | 10004m | -4.3m/s | -45.5°C | 73.9% | 276.7hPa | 2.4V | 00:00:00 | 00:00:00 | 00:00:00 | |
| OE5MMP-10 | 2026-09-02 01:19:29 | 48.38793 | 13.06220 | 66° | 91km/h | 10038m | -4.1m/s | -45.8°C | 78.8% | 275.3hPa | 2.4V | 00:00:00 | 02:50:18 | 00:00:00 | |
| PETON7-10 | 2026-09-02 01:19:28 | 48.38784 | 13.06189 | 68° | 100km/h | 10042m | -4.2m/s | -45.9°C | 79.8% | 275.1hPa | 2.4V | 07:46:00 | 02:50:17 | 00:00:00 | |
| DG1MFX-10 | 2026-09-02 01:19:27 | 48.38785 | 13.06189 | 68° | 86km/h | 10042m | -4.2m/s | -45.9°C | 72.6% | 275.2hPa | 2.4V | 07:47:00 | 00:00:00 | 00:00:00 | |
| PG1ADW-2 | 2026-09-02 01:19:25 | 48.38764 | 13.06097 | 76° | 104km/h | 10054m | -3.9m/s | -45.9°C | 80.9% | 274.6hPa | 2.4V | 00:00:00 | 00:00:00 | 00:00:00 | |
| OE5HKT-10 | 2026-09-02 01:19:24 | 48.38759 | 13.06064 | 79° | 95km/h | 10058m | -4.2m/s | -46.0°C | 81.2% | 274.4hPa | 2.4V | 00:00:00 | 00:00:00 | 00:00:00 | |
| OE5WHR-10 | 2026-09-02 01:19:21 | 48.38746 | 13.05958 | 81° | 102km/h | 10071m | -4.6m/s | -46.1°C | 80.8% | 273.9hPa | 2.4V | 07:46:00 | 00:00:00 | 00:00:00 | |
| OE5MMP-10 | 2026-09-02 01:19:19 | 48.38737 | 13.05881 | 80° | 111km/h | 10080m | -4.7m/s | -46.1°C | 80.2% | 273.5hPa | 2.4V | 00:00:00 | 02:50:08 | 00:00:00 | |
| PETON7-10 | 2026-09-02 01:19:13 | 48.38695 | 13.05634 | 71° | 100km/h | 10107m | -4.4m/s | -46.4°C | 80.0% | 272.5hPa | 2.4V | 00:00:00 | 00:00:00 | 00:00:00 | |
| DL6DJ-15 | 2026-09-02 01:19:11 | 48.38663 | 13.05517 | 65° | 106km/h | 10120m | -4.1m/s | -46.5°C | 73.9% | 272.0hPa | 2.5V | 00:00:00 | 00:00:00 | 00:00:00 | |
| OE5MMP-10 | 2026-09-02 01:19:09 | 48.38652 | 13.05480 | 66° | 95km/h | 10124m | -4.1m/s | -46.5°C | 81.7% | 271.8hPa | 2.5V | 00:00:00 | 02:49:58 | 00:00:00 | |
| OE3JTB-15 | 2026-09-02 01:19:08 | 48.38642 | 13.05445 | 66° | 102km/h | 10128m | -4.0m/s | -46.6°C | 81.7% | 271.6hPa | 2.5V | 00:00:00 | 00:00:00 | 00:00:00 | |
| DG1MFX-10 | 2026-09-02 01:19:07 | 48.38642 | 13.05445 | 66° | 99km/h | 10128m | -4.0m/s | -46.6°C | 74.3% | 271.7hPa | 2.5V | 00:00:00 | 00:00:00 | 00:00:00 | |
| PG1ADW-2 | 2026-09-02 01:19:05 | 48.38614 | 13.05347 | 71° | 104km/h | 10140m | -4.0m/s | -46.7°C | 82.4% | 271.1hPa | 2.5V | 00:00:00 | 02:49:54 | 00:00:00 | |
| OE5WHR-10 | 2026-09-02 01:19:00 | 48.38586 | 13.05175 | 80° | 104km/h | 10161m | -4.3m/s | -46.8°C | 83.8% | 270.3hPa | 2.5V | 00:00:00 | 02:49:49 | 00:00:00 | |
| OE5MMP-10 | 2026-09-02 01:18:59 | 48.38581 | 13.05136 | 80° | 113km/h | 10165m | -3.9m/s | -46.8°C | 83.8% | 270.1hPa | 2.5V | 07:47:00 | 02:49:48 | 00:00:00 | |
| OE5DXL-15 | 2026-09-02 01:18:58 | 48.38576 | 13.05096 | 79° | 108km/h | 10169m | -4.1m/s | -46.9°C | 84.0% | 269.9hPa | 2.5V | 00:00:00 | 00:00:00 | 00:00:00 | |
| OE5REO-15 | 2026-09-02 01:18:53 | 48.38547 | 13.04927 | 73° | 117km/h | 10186m | -4.2m/s | -47.1°C | 77.1% | 269.3hPa | 2.5V | 07:47:00 | 00:00:00 | 00:00:00 | |
| OE5DRO-10 | 2026-09-02 01:18:50 | 48.38505 | 13.04765 | 66° | 102km/h | 10203m | -4.1m/s | -47.2°C | 85.9% | 268.6hPa | 2.5V | 00:00:00 | 00:00:00 | 00:00:00 | |
| OE5MMP-10 | 2026-09-02 01:18:49 | 48.38493 | 13.04728 | 66° | 97km/h | 10207m | -4.1m/s | -47.2°C | 86.0% | 268.4hPa | 2.5V | 00:00:00 | 02:49:38 | 00:00:00 | |
| DG1MFX-10 | 2026-09-02 01:18:47 | 48.38482 | 13.04692 | 66° | 102km/h | 10211m | -4.1m/s | -47.3°C | 78.3% | 268.3hPa | 2.5V | 00:00:00 | 00:00:00 | 00:00:00 | |
| PG1ADW-2 | 2026-09-02 01:18:45 | 48.38453 | 13.04591 | 69° | 95km/h | 10223m | -4.2m/s | -47.4°C | 85.8% | 267.8hPa | 2.5V | 00:00:00 | 00:00:00 | 00:00:00 | |
| PETON7-10 | 2026-09-02 01:18:43 | 48.38438 | 13.04525 | 73° | 108km/h | 10232m | -4.3m/s | -47.4°C | 84.4% | 267.4hPa | 2.5V | 00:00:00 | 02:49:32 | 00:00:00 | |
| DL6DJ-15 | 2026-09-02 01:18:40 | 48.38416 | 13.04384 | 79° | 100km/h | 10248m | -4.0m/s | -47.6°C | 73.9% | 266.8hPa | 2.5V | 00:00:00 | 00:00:00 | 00:00:00 | |
| OE5MMP-10 | 2026-09-02 01:18:39 | 48.38416 | 13.04384 | 80° | 113km/h | 10248m | -3.9m/s | -47.5°C | 81.5% | 266.8hPa | 2.5V | 00:00:00 | 02:49:28 | 00:00:00 | |
| OE5REO-15 | 2026-09-02 01:18:38 | 48.38416 | 13.04384 | 80° | 100km/h | 10248m | -4.0m/s | -47.6°C | 73.9% | 266.8hPa | 2.4V | 07:47:00 | 00:00:00 | 00:00:00 | |
| OE5DRO-10 | 2026-09-02 01:18:31 | 48.38366 | 13.04052 | 73° | 106km/h | 10282m | -4.3m/s | -47.8°C | 78.5% | 265.3hPa | 2.4V | 00:00:00 | 00:00:00 | 00:00:00 | |
| OE5MMP-10 | 2026-09-02 01:18:29 | 48.38346 | 13.03968 | 69° | 100km/h | 10291m | -4.2m/s | -47.9°C | 78.5% | 265.0hPa | 2.5V | 00:00:00 | 02:49:18 | 00:00:00 | |
| OE5FHM-15 | 2026-09-02 01:18:28 | 48.38334 | 13.03927 | 67° | 106km/h | 10295m | -4.1m/s | -47.9°C | 79.0% | 264.8hPa | 2.5V | 00:00:00 | 02:49:17 | 00:00:00 | |
| DG1MFX-10 | 2026-09-02 01:18:26 | 48.38323 | 13.03889 | 67° | 110km/h | 10299m | -4.2m/s | -48.0°C | 71.8% | 264.7hPa | 2.5V | 00:00:00 | 00:00:00 | 00:00:00 | |
| DO3MHA-11 | 2026-09-02 01:18:25 | 48.38301 | 13.03816 | 67° | 99km/h | 10307m | -4.0m/s | -48.1°C | 79.1% | 264.3hPa | 2.5V | 00:00:00 | 02:49:14 | 00:00:00 | |
| OE5REO-15 | 2026-09-02 01:18:22 | 48.38283 | 13.03749 | 71° | 93km/h | 10315m | -4.1m/s | -48.2°C | 70.1% | 264.1hPa | 2.5V | 07:47:00 | 00:00:00 | 00:00:00 | |
| OE5MMP-10 | 2026-09-02 01:18:19 | 48.38259 | 13.03610 | 80° | 113km/h | 10332m | -4.4m/s | -48.3°C | 73.9% | 263.4hPa | 2.5V | 00:00:00 | 02:49:08 | 00:00:00 | |
| OE5WHR-10 | 2026-09-02 01:18:18 | 48.38254 | 13.03573 | 80° | 108km/h | 10337m | -4.2m/s | -48.3°C | 72.6% | 263.1hPa | 2.5V | 00:00:00 | 00:00:00 | 00:00:00 | |
| DO3MHA-11 | 2026-09-02 01:18:15 | 48.38240 | 13.03452 | 80° | 113km/h | 10349m | -4.3m/s | -48.4°C | 70.1% | 262.6hPa | 2.5V | 00:00:00 | 02:49:04 | 00:00:00 | |
| PETON7-10 | 2026-09-02 01:18:13 | 48.38228 | 13.03365 | 77° | 108km/h | 10358m | -4.2m/s | -48.5°C | 68.8% | 262.3hPa | 2.5V | 00:00:00 | 00:00:00 | 00:00:00 | |
| OE5DRO-10 | 2026-09-02 01:18:12 | 48.38221 | 13.03321 | 76° | 110km/h | 10362m | -4.3m/s | -48.5°C | 68.4% | 262.1hPa | 2.5V | 00:00:00 | 00:00:00 | 00:00:00 | |
| OE3JTB-15 | 2026-09-02 01:18:10 | 48.38203 | 13.03232 | 72° | 108km/h | 10371m | -4.1m/s | -48.6°C | 67.8% | 261.8hPa | 2.5V | 00:00:00 | 00:00:00 | 00:00:00 | |
| DL6DJ-15 | 2026-09-02 01:18:09 | 48.38182 | 13.03147 | 67° | 115km/h | 10379m | -4.2m/s | -48.7°C | 60.5% | 261.5hPa | 2.4V | 00:00:00 | 00:00:00 | 00:00:00 | |
| OE5HKT-10 | 2026-09-02 01:18:08 | 48.38182 | 13.03147 | 68° | 110km/h | 10379m | -4.2m/s | -48.7°C | 67.7% | 261.5hPa | 2.4V | 00:00:00 | 00:00:00 | 00:00:00 | |
| OE5REO-15 | 2026-09-02 01:18:07 | 48.38182 | 13.03147 | 69° | 117km/h | 10379m | -4.2m/s | -48.7°C | 60.6% | 261.5hPa | 2.5V | 07:48:00 | 00:00:00 | 00:00:00 | |
| PG1ADW-2 | 2026-09-02 01:18:05 | 48.38148 | 13.03032 | 67° | 110km/h | 10392m | -4.2m/s | -48.8°C | 68.4% | 260.9hPa | 2.5V | 00:00:00 | 00:00:00 | 00:00:00 | |
| DO3MHA-11 | 2026-09-02 01:18:03 | 48.38129 | 13.02962 | 70° | 106km/h | 10400m | -4.1m/s | -48.8°C | 68.6% | 260.6hPa | 2.5V | 07:48:00 | 02:48:52 | 00:00:00 | |
| OE5MMP-10 | 2026-09-02 01:17:59 | 48.38103 | 13.02822 | 80° | 115km/h | 10417m | -4.1m/s | -49.0°C | 70.8% | 260.0hPa | 2.5V | 00:00:00 | 02:48:48 | 00:00:00 | |
| PETON7-10 | 2026-09-02 01:17:58 | 48.38099 | 13.02784 | 81° | 113km/h | 10421m | -4.2m/s | -49.0°C | 71.0% | 259.8hPa | 2.5V | 00:00:00 | 02:48:47 | 00:00:00 | |
| OE5WHR-10 | 2026-09-02 01:17:57 | 48.38095 | 13.02744 | 81° | 110km/h | 10425m | -4.2m/s | -49.0°C | 71.3% | 259.6hPa | 2.5V | 00:00:00 | 02:48:46 | 00:00:00 | |
| DO3MHA-11 | 2026-09-02 01:17:53 | 48.38071 | 13.02570 | 76° | 100km/h | 10442m | -4.4m/s | -49.2°C | 72.6% | 259.0hPa | 2.5V | 00:00:00 | 02:48:42 | 00:00:00 | |
| OE5REO-15 | 2026-09-02 01:17:51 | 48.38062 | 13.02525 | 74° | 122km/h | 10446m | -4.4m/s | -49.3°C | 65.7% | 258.9hPa | 2.5V | 07:48:00 | 00:00:00 | 00:00:00 | |
| OE5MMP-10 | 2026-09-02 01:17:49 | 48.38031 | 13.02396 | 68° | 102km/h | 10460m | -4.3m/s | -49.3°C | 75.2% | 258.3hPa | 2.5V | 00:00:00 | 02:48:38 | 00:00:00 | |
| OE5HKT-10 | 2026-09-02 01:17:47 | 48.38009 | 13.02317 | 66° | 110km/h | 10468m | -4.1m/s | -49.4°C | 76.6% | 257.9hPa | 2.5V | 00:00:00 | 00:00:00 | 00:00:00 | |
| PG1ADW-2 | 2026-09-02 01:17:45 | 48.37988 | 13.02244 | 68° | 110km/h | 10476m | -4.1m/s | -49.5°C | 78.0% | 257.6hPa | 2.5V | 00:00:00 | 02:48:34 | 00:00:00 | |
| PETON7-10 | 2026-09-02 01:17:43 | 48.37970 | 13.02174 | 72° | 110km/h | 10484m | -4.1m/s | -49.6°C | 78.9% | 257.3hPa | 2.4V | 00:00:00 | 00:00:00 | 00:00:00 | |
| OE3JTB-15 | 2026-09-02 01:17:41 | 48.37957 | 13.02104 | 76° | 110km/h | 10493m | -4.3m/s | -49.7°C | 79.2% | 257.0hPa | 2.4V | 07:48:00 | 00:00:00 | 00:00:00 | |
| DO3MHA-11 | 2026-09-02 01:17:39 | 48.37946 | 13.02032 | 79° | 115km/h | 10502m | -4.4m/s | -49.7°C | 79.3% | 256.6hPa | 2.4V | 00:00:00 | 02:48:28 | 00:00:00 | |
| DL6DJ-15 | 2026-09-02 01:17:38 | 48.37937 | 13.01955 | 80° | 106km/h | 10510m | -4.4m/s | -49.8°C | 70.9% | 256.4hPa | 2.4V | 00:00:00 | 00:00:00 | 00:00:00 | |
| OE5WHR-10 | 2026-09-02 01:17:36 | 48.37932 | 13.01914 | 81° | 111km/h | 10515m | -4.3m/s | -49.8°C | 78.8% | 256.1hPa | 2.4V | 00:00:00 | 00:00:00 | 00:00:00 | |
| OE5DRO-10 | 2026-09-02 01:17:34 | 48.37921 | 13.01829 | 79° | 111km/h | 10524m | -4.3m/s | -49.9°C | 79.2% | 255.7hPa | 2.5V | 00:00:00 | 00:00:00 | 00:00:00 | |
| OE5MMP-10 | 2026-09-02 01:17:29 | 48.37879 | 13.01605 | 70° | 106km/h | 10545m | -4.2m/s | -50.0°C | 79.8% | 254.9hPa | 2.5V | 00:00:00 | 02:48:18 | 00:00:00 | |
| OE5DXL-15 | 2026-09-02 01:17:28 | 48.37868 | 13.01562 | 68° | 110km/h | 10549m | -4.3m/s | -50.1°C | 79.6% | 254.8hPa | 2.5V | 00:00:00 | 00:00:00 | 00:00:00 | |
| OE5HKT-10 | 2026-09-02 01:17:26 | 48.37845 | 13.01482 | 67° | 113km/h | 10558m | -4.4m/s | -50.2°C | 79.3% | 254.4hPa | 2.4V | 00:00:00 | 02:48:15 | 00:00:00 | |
| PG1ADW-2 | 2026-09-02 01:17:25 | 48.37834 | 13.01443 | 67° | 111km/h | 10562m | -4.3m/s | -50.2°C | 79.2% | 254.3hPa | 2.4V | 00:00:00 | 00:00:00 | 00:00:00 | |
| DO3MHA-11 | 2026-09-02 01:17:19 | 48.37787 | 13.01229 | 80° | 113km/h | 10587m | -4.3m/s | -50.4°C | 80.3% | 253.2hPa | 2.4V | 00:00:00 | 02:48:08 | 00:00:00 | |
| OE5WHR-10 | 2026-09-02 01:17:15 | 48.37769 | 13.01068 | 80° | 110km/h | 10605m | -4.4m/s | -50.6°C | 81.8% | 252.6hPa | 2.4V | 00:00:00 | 00:00:00 | 00:00:00 | |
| PETON7-10 | 2026-09-02 01:17:13 | 48.37757 | 13.00980 | 77° | 111km/h | 10613m | -4.1m/s | -50.7°C | 82.0% | 252.3hPa | 2.4V | 00:00:00 | 02:48:02 | 00:00:00 | |
| OE3JTB-15 | 2026-09-02 01:17:12 | 48.37750 | 13.00935 | 76° | 113km/h | 10617m | -4.3m/s | -50.7°C | 82.4% | 252.1hPa | 2.4V | 00:00:00 | 02:48:01 | 00:00:00 | |
| DO3MHA-11 | 2026-09-02 01:17:09 | 48.37721 | 13.00801 | 70° | 106km/h | 10631m | -4.4m/s | -50.8°C | 81.9% | 251.6hPa | 2.4V | 00:00:00 | 02:47:58 | 00:00:00 | |
| DL6DJ-15 | 2026-09-02 01:17:06 | 48.37687 | 13.00677 | 66° | 113km/h | 10644m | -4.7m/s | -51.0°C | 72.9% | 251.1hPa | 2.4V | 00:00:00 | 00:00:00 | 00:00:00 | |
| OE5HKT-10 | 2026-09-02 01:17:05 | 48.37676 | 13.00638 | 66° | 110km/h | 10648m | -4.4m/s | -51.0°C | 81.6% | 250.9hPa | 2.4V | 00:00:00 | 00:00:00 | 00:00:00 | |
| DB0ND-19 | 2026-09-02 01:17:00 | 48.37616 | 13.00390 | 77° | 97km/h | 10678m | -4.3m/s | 0°C | -1.0% | -1.0hPa | 2.4V | 00:00:00 | 00:00:00 | 00:00:00 | |
| DO3MHA-11 | 2026-09-02 01:16:59 | 48.37622 | 13.00426 | 76° | 110km/h | 10674m | -4.3m/s | -51.2°C | 83.2% | 249.9hPa | 2.4V | 00:00:00 | 02:47:48 | 00:00:00 | |
| PETON7-10 | 2026-09-02 01:16:58 | 48.37616 | 13.00390 | 78° | 115km/h | 10679m | -4.2m/s | -51.3°C | 83.7% | 249.7hPa | 2.5V | 00:00:00 | 00:00:00 | 00:00:00 | |
| OE5DRO-10 | 2026-09-02 01:16:56 | 48.37606 | 13.00314 | 80° | 111km/h | 10688m | -4.3m/s | -51.3°C | 84.8% | 249.4hPa | 2.5V | 00:00:00 | 00:00:00 | 00:00:00 | |
| OE5WHR-10 | 2026-09-02 01:16:54 | 48.37596 | 13.00232 | 79° | 110km/h | 10696m | -4.2m/s | -51.4°C | 84.9% | 249.0hPa | 2.5V | 00:00:00 | 02:47:43 | 00:00:00 | |
| OE5REO-15 | 2026-09-02 01:16:50 | 48.37576 | 13.00101 | 76° | 122km/h | 10709m | -4.4m/s | -51.6°C | 74.7% | 248.6hPa | 2.5V | 07:49:00 | 00:00:00 | 00:00:00 | |
| OE5MMP-10 | 2026-09-02 01:16:49 | 48.37557 | 13.00012 | 71° | 110km/h | 10718m | -4.3m/s | -51.6°C | 81.8% | 248.2hPa | 2.5V | 00:00:00 | 02:47:38 | 00:00:00 | |
| PG1ADW-2 | 2026-09-02 01:16:45 | 48.37511 | 12.99846 | 65° | 108km/h | 10735m | -4.2m/s | -51.7°C | 77.4% | 247.6hPa | 2.5V | 00:00:00 | 00:00:00 | 00:00:00 | |
| OE5HKT-10 | 2026-09-02 01:16:44 | 48.37499 | 12.99808 | 65° | 113km/h | 10740m | -4.5m/s | -51.8°C | 76.1% | 247.5hPa | 2.4V | 00:00:00 | 00:00:00 | 00:00:00 | |
| PETON7-10 | 2026-09-02 01:16:43 | 48.37487 | 12.99771 | 65° | 106km/h | 10744m | -4.4m/s | -51.8°C | 75.1% | 247.2hPa | 2.4V | 00:00:00 | 00:00:00 | 00:00:00 | |
| DO3MHA-11 | 2026-09-02 01:16:39 | 48.37447 | 12.99634 | 71° | 120km/h | 10762m | -4.1m/s | -51.9°C | 70.5% | 246.5hPa | 2.4V | 07:49:00 | 02:47:28 | 00:00:00 | |
| OE5DRO-10 | 2026-09-02 01:16:37 | 48.37434 | 12.99566 | 76° | 110km/h | 10770m | -4.4m/s | -51.9°C | 68.8% | 246.2hPa | 2.4V | 00:00:00 | 00:00:00 | 00:00:00 | |
| OE5REO-15 | 2026-09-02 01:16:35 | 48.37427 | 12.99530 | 78° | 99km/h | 10775m | -4.5m/s | -52.0°C | 60.0% | 246.1hPa | 2.5V | 07:50:00 | 00:00:00 | 00:00:00 | |
| OE5WHR-10 | 2026-09-02 01:16:33 | 48.37411 | 12.99414 | 79° | 110km/h | 10788m | -4.3m/s | -52.1°C | 64.5% | 245.6hPa | 2.5V | 07:49:00 | 00:00:00 | 00:00:00 | |
| OE5MMP-10 | 2026-09-02 01:16:29 | 48.37380 | 12.99240 | 71° | 111km/h | 10805m | -4.2m/s | -52.2°C | 59.4% | 245.0hPa | 2.4V | 00:00:00 | 02:47:18 | 00:00:00 | |
| OE5FHM-15 | 2026-09-02 01:16:28 | 48.37369 | 12.99197 | 69° | 113km/h | 10809m | -4.3m/s | -52.2°C | 58.3% | 244.8hPa | 2.4V | 00:00:00 | 02:47:17 | 00:00:00 | |
| PG1ADW-2 | 2026-09-02 01:16:25 | 48.37333 | 12.99073 | 65° | 110km/h | 10823m | -4.3m/s | -52.3°C | 56.2% | 244.3hPa | 2.4V | 00:00:00 | 02:47:14 | 00:00:00 | |
| OE5HKT-10 | 2026-09-02 01:16:23 | 48.37309 | 12.98998 | 65° | 117km/h | 10831m | -3.8m/s | -52.4°C | 54.5% | 244.0hPa | 2.4V | 07:49:00 | 02:47:12 | 00:00:00 | |
| OE5MMP-10 | 2026-09-02 01:16:19 | 48.37272 | 12.98858 | 73° | 106km/h | 10847m | -4.2m/s | -52.5°C | 50.8% | 243.4hPa | 2.4V | 07:49:00 | 02:47:08 | 00:00:00 | |
| OE5DRO-10 | 2026-09-02 01:16:18 | 48.37264 | 12.98822 | 75° | 117km/h | 10851m | -4.0m/s | -52.5°C | 50.1% | 0hPa | 2.4V | 00:00:00 | 00:00:00 | 00:00:00 | |
| PETON7-10 | 2026-09-02 01:16:13 | 48.37235 | 12.98631 | 79° | 120km/h | 10873m | -4.6m/s | -52.4°C | 46.1% | 242.4hPa | 2.4V | 00:00:00 | 00:00:00 | 00:00:00 | |
| OE5WHR-10 | 2026-09-02 01:16:12 | 48.37229 | 12.98590 | 79° | 117km/h | 10878m | -4.5m/s | -52.4°C | 45.1% | 242.2hPa | 2.5V | 00:00:00 | 00:00:00 | 00:00:00 | |
| OE5MMP-10 | 2026-09-02 01:16:09 | 48.37212 | 12.98461 | 79° | 124km/h | 10892m | -4.5m/s | -52.4°C | 43.0% | 241.7hPa | 2.5V | 00:00:00 | 02:46:58 | 00:00:00 | |
| PG1ADW-2 | 2026-09-02 01:16:05 | 48.37181 | 12.98277 | 73° | 115km/h | 10909m | -4.3m/s | -52.5°C | 42.6% | 241.0hPa | 2.4V | 00:00:00 | 00:00:00 | 00:00:00 | |
| DL6DJ-15 | 2026-09-02 01:16:04 | 48.37171 | 12.98230 | 71° | 128km/h | 10914m | -4.3m/s | -52.6°C | 36.3% | 240.9hPa | 2.4V | 00:00:00 | 00:00:00 | 00:00:00 | |
| DO3MHA-11 | 2026-09-02 01:16:02 | 48.37148 | 12.98140 | 69° | 126km/h | 10923m | -4.3m/s | -52.6°C | 42.4% | 240.5hPa | 2.4V | 00:00:00 | 02:46:51 | 00:00:00 | |
| OE5MMP-10 | 2026-09-02 01:15:59 | 48.37112 | 12.98014 | 66° | 106km/h | 10935m | -4.4m/s | -52.7°C | 42.5% | 240.1hPa | 2.5V | 00:00:00 | 02:46:48 | 00:00:00 | |
| OE5DXL-15 | 2026-09-02 01:15:58 | 48.37100 | 12.97975 | 66° | 113km/h | 10940m | -4.4m/s | -52.7°C | 42.5% | 239.9hPa | 2.5V | 00:00:00 | 00:00:00 | 00:00:00 | |
| OE5HKT-10 | 2026-09-02 01:15:53 | 48.37051 | 12.97790 | 74° | 119km/h | 10962m | -4.2m/s | -52.8°C | 42.3% | 239.1hPa | 2.4V | 00:00:00 | 00:00:00 | 00:00:00 | |
| OE5WHR-10 | 2026-09-02 01:15:51 | 48.37038 | 12.97714 | 78° | 117km/h | 10970m | -4.2m/s | -52.9°C | 42.4% | 238.8hPa | 2.5V | 00:00:00 | 02:46:40 | 00:00:00 | |
| OE5MMP-10 | 2026-09-02 01:15:49 | 48.37027 | 12.97633 | 80° | 124km/h | 10979m | -4.3m/s | -53.0°C | 42.8% | 238.4hPa | 2.5V | 00:00:00 | 02:46:38 | 00:00:00 | |
| PETON7-10 | 2026-09-02 01:15:43 | 48.36985 | 12.97360 | 74° | 115km/h | 11005m | -4.7m/s | -53.1°C | 42.3% | 237.5hPa | 2.5V | 00:00:00 | 02:46:32 | 00:00:00 | |
| DO3MHA-11 | 2026-09-02 01:15:42 | 48.36975 | 12.97313 | 72° | 120km/h | 11010m | -4.5m/s | -53.2°C | 42.3% | 237.3hPa | 2.5V | 00:00:00 | 02:46:31 | 00:00:00 | |
| OE5DRO-10 | 2026-09-02 01:15:40 | 48.36953 | 12.97221 | 69° | 115km/h | 11019m | -4.4m/s | -53.2°C | 42.3% | 236.9hPa | 2.5V | 00:00:00 | 00:00:00 | 00:00:00 | |
| OE5MMP-10 | 2026-09-02 01:15:39 | 48.36941 | 12.97176 | 67° | 111km/h | 11023m | -4.3m/s | -53.2°C | 42.2% | 236.8hPa | 2.5V | 00:00:00 | 02:46:28 | 00:00:00 | |
| DL6DJ-15 | 2026-09-02 01:15:33 | 48.36869 | 12.96939 | 67° | 104km/h | 11049m | -4.3m/s | -53.4°C | 35.2% | 235.9hPa | 2.4V | 00:00:00 | 00:00:00 | 00:00:00 | |
| OE5HKT-10 | 2026-09-02 01:15:31 | 48.36850 | 12.96866 | 72° | 115km/h | 11058m | -4.4m/s | -53.4°C | 41.7% | 235.5hPa | 2.4V | 00:00:00 | 00:00:00 | 00:00:00 | |
| OE5WHR-10 | 2026-09-02 01:15:30 | 48.36843 | 12.96828 | 75° | 115km/h | 11062m | -4.3m/s | -53.5°C | 41.7% | 235.4hPa | 2.4V | 00:00:00 | 00:00:00 | 00:00:00 | |
| OE5MMP-10 | 2026-09-02 01:15:29 | 48.36836 | 12.96790 | 77° | 120km/h | 11067m | -4.5m/s | -53.5°C | 41.7% | 235.2hPa | 2.5V | 00:00:00 | 02:46:18 | 00:00:00 | |
| DK5PH-5 | 2026-09-02 01:15:28 | 48.36830 | 12.96751 | 78° | 111km/h | 11072m | -4.6m/s | -53.5°C | 41.6% | 235.0hPa | 2.5V | 00:00:00 | 02:46:17 | 00:00:00 | |
| DB0ND-19 | 2026-09-02 01:15:27 | 48.36825 | 12.96710 | 78° | 111km/h | 11076m | -4.7m/s | 0°C | -1.0% | -1.0hPa | 2.5V | 00:00:00 | 00:00:00 | 00:00:00 | |
| PG1ADW-2 | 2026-09-02 01:15:25 | 48.36813 | 12.96622 | 79° | 115km/h | 11086m | -4.7m/s | -53.6°C | 41.8% | 234.6hPa | 2.5V | 00:00:00 | 00:00:00 | 00:00:00 | |
| OE5DRO-10 | 2026-09-02 01:15:21 | 48.36780 | 12.96435 | 72° | 113km/h | 11104m | -4.4m/s | -53.8°C | 42.1% | 233.8hPa | 2.5V | 00:00:00 | 00:00:00 | 00:00:00 | |
| OE5MMP-10 | 2026-09-02 01:15:19 | 48.36757 | 12.96344 | 68° | 111km/h | 11112m | -4.4m/s | -53.8°C | 42.2% | 233.5hPa | 2.5V | 00:00:00 | 02:46:08 | 00:00:00 | |
| OE5REO-15 | 2026-09-02 01:15:17 | 48.36744 | 12.96300 | 67° | 124km/h | 11117m | -4.4m/s | -53.9°C | 35.8% | 233.4hPa | 2.5V | 07:51:00 | 00:00:00 | 00:00:00 | |
| OE3JTB-15 | 2026-09-02 01:15:16 | 48.36719 | 12.96218 | 66° | 115km/h | 11126m | -4.6m/s | -53.9°C | 42.2% | 233.0hPa | 2.5V | 00:00:00 | 00:00:00 | 00:00:00 | |
| PETON7-10 | 2026-09-02 01:15:13 | 48.36684 | 12.96103 | 67° | 113km/h | 11139m | -4.8m/s | -54.0°C | 42.9% | 232.6hPa | 2.5V | 00:00:00 | 00:00:00 | 00:00:00 | |
| OE5HKT-10 | 2026-09-02 01:15:10 | 48.36657 | 12.95992 | 73° | 115km/h | 11154m | -4.6m/s | -54.1°C | 43.4% | 232.0hPa | 2.5V | 00:00:00 | 02:45:59 | 00:00:00 | |
| OE5MMP-10 | 2026-09-02 01:15:09 | 48.36649 | 12.95955 | 75° | 115km/h | 11158m | -4.7m/s | -54.1°C | 43.4% | 231.8hPa | 2.5V | 00:00:00 | 02:45:58 | 00:00:00 | |
| PG1ADW-2 | 2026-09-02 01:15:05 | 48.36627 | 12.95796 | 80° | 119km/h | 11177m | -4.6m/s | -54.3°C | 43.4% | 231.2hPa | 2.5V | 00:00:00 | 02:45:54 | 00:00:00 | |
| OE5MMP-10 | 2026-09-02 01:14:59 | 48.36588 | 12.95521 | 75° | 120km/h | 11205m | -4.9m/s | -54.4°C | 42.3% | 230.2hPa | 2.5V | 07:51:00 | 02:45:48 | 00:00:00 | |
| OE5DXL-15 | 2026-09-02 01:14:58 | 48.36578 | 12.95474 | 73° | 120km/h | 11211m | -5.0m/s | -54.5°C | 42.5% | 230.0hPa | 2.5V | 00:00:00 | 00:00:00 | 00:00:00 | |
| OE5MMP-10 | 2026-09-02 01:14:49 | 48.36479 | 12.95097 | 73° | 115km/h | 11251m | -4.6m/s | -54.7°C | 44.4% | 228.6hPa | 2.5V | 00:00:00 | 02:45:38 | 00:00:00 | |
| OE5WHR-10 | 2026-09-02 01:14:48 | 48.36471 | 12.95060 | 75° | 120km/h | 11256m | -4.9m/s | -54.8°C | 44.6% | 228.4hPa | 2.5V | 00:00:00 | 02:45:37 | 00:00:00 | |
| OE5REO-15 | 2026-09-02 01:14:47 | 48.36465 | 12.95021 | 78° | 106km/h | 11261m | -4.8m/s | -54.8°C | 37.7% | 228.3hPa | 2.5V | 07:52:00 | 00:00:00 | 00:00:00 | |
| OE5HKT-10 | 2026-09-02 01:14:45 | 48.36454 | 12.94940 | 80° | 120km/h | 11271m | -4.7m/s | -54.9°C | 44.5% | 227.9hPa | 2.5V | 00:00:00 | 00:00:00 | 00:00:00 | |
| PETON7-10 | 2026-09-02 01:14:43 | 48.36444 | 12.94853 | 81° | 124km/h | 11280m | -4.7m/s | -54.9°C | 44.7% | 227.5hPa | 2.4V | 00:00:00 | 00:00:00 | 00:00:00 | |
| OE5MMP-10 | 2026-09-02 01:14:39 | 48.36419 | 12.94663 | 76° | 124km/h | 11299m | -4.5m/s | -55.1°C | 45.1% | 226.8hPa | 2.5V | 00:00:00 | 02:45:28 | 00:00:00 | |
| BAUMI2-15 | 2026-09-02 01:14:38 | 48.36410 | 12.94615 | 74° | 126km/h | 11304m | -4.7m/s | -55.1°C | 45.4% | 226.7hPa | 2.4V | 00:00:00 | 02:45:27 | 00:00:00 | |
| DG1MFX-10 | 2026-09-02 01:14:34 | 48.36366 | 12.94427 | 69° | 126km/h | 11322m | -4.6m/s | -55.4°C | 39.2% | 226.1hPa | 2.5V | 07:52:00 | 00:00:00 | 00:00:00 | |
| DL6DJ-15 | 2026-09-02 01:14:31 | 48.36330 | 12.94302 | 66° | 113km/h | 11336m | -4.6m/s | -55.5°C | 39.1% | 225.6hPa | 2.5V | 00:00:00 | 00:00:00 | 00:00:00 | |
| BAUMI2-15 | 2026-09-02 01:14:30 | 48.36319 | 12.94262 | 69° | 108km/h | 11341m | -4.9m/s | -55.4°C | 45.9% | 225.3hPa | 2.5V | 07:51:00 | 02:45:19 | 00:00:00 | |
| OE5MMP-10 | 2026-09-02 01:14:29 | 48.36310 | 12.94224 | 70° | 111km/h | 11346m | -4.8m/s | -55.4°C | 45.5% | 225.2hPa | 2.5V | 00:00:00 | 02:45:18 | 00:00:00 | |
| OE5FHM-15 | 2026-09-02 01:14:28 | 48.36301 | 12.94185 | 72° | 115km/h | 11350m | -4.8m/s | -55.5°C | 45.2% | 225.1hPa | 2.5V | 00:00:00 | 02:45:17 | 00:00:00 | |
| OE5WHR-10 | 2026-09-02 01:14:27 | 48.36293 | 12.94147 | 75° | 119km/h | 11355m | -4.6m/s | -55.5°C | 44.9% | 224.9hPa | 2.5V | 00:00:00 | 00:00:00 | 00:00:00 | |
| PG1ADW-2 | 2026-09-02 01:14:25 | 48.36280 | 12.94069 | 79° | 120km/h | 11365m | -4.7m/s | -55.6°C | 44.5% | 224.5hPa | 2.5V | 07:51:00 | 00:00:00 | 00:00:00 | |
| OE5HKT-10 | 2026-09-02 01:14:24 | 48.36275 | 12.94028 | 80° | 119km/h | 11369m | -4.7m/s | -55.6°C | 44.6% | 224.3hPa | 2.5V | 00:00:00 | 00:00:00 | 00:00:00 | |
| OE5MMP-10 | 2026-09-02 01:14:19 | 48.36250 | 12.93805 | 79° | 128km/h | 11393m | -4.4m/s | -55.8°C | 46.0% | 223.5hPa | 2.5V | 00:00:00 | 02:45:08 | 00:00:00 | |
| OE3JTB-15 | 2026-09-02 01:14:18 | 48.36242 | 12.93756 | 77° | 120km/h | 11397m | -4.3m/s | -55.9°C | 46.4% | 223.4hPa | 2.5V | 00:00:00 | 02:45:07 | 00:00:00 | |
| OE5REO-15 | 2026-09-02 01:14:15 | 48.36225 | 12.93659 | 74° | 133km/h | 11406m | -4.7m/s | -56.0°C | 39.6% | 223.1hPa | 2.5V | 07:52:00 | 00:00:00 | 00:00:00 | |
| PETON7-10 | 2026-09-02 01:14:13 | 48.36192 | 12.93519 | 69° | 111km/h | 11420m | -4.9m/s | -56.1°C | 47.4% | 222.6hPa | 2.5V | 00:00:00 | 02:45:02 | 00:00:00 | |
| DG1MFX-10 | 2026-09-02 01:14:12 | 48.36192 | 12.93519 | 70° | 126km/h | 11420m | -4.9m/s | -56.1°C | 40.0% | 222.6hPa | 2.5V | 07:52:00 | 00:00:00 | 00:00:00 | |
| OE5MMP-10 | 2026-09-02 01:14:09 | 48.36145 | 12.93351 | 68° | 108km/h | 11439m | -4.9m/s | -56.2°C | 46.9% | 221.9hPa | 2.5V | 00:00:00 | 02:44:58 | 00:00:00 | |
| OE5WHR-10 | 2026-09-02 01:14:06 | 48.36116 | 12.93236 | 73° | 117km/h | 11454m | -4.8m/s | -56.4°C | 46.1% | 221.3hPa | 2.5V | 00:00:00 | 00:00:00 | 00:00:00 | |
| PG1ADW-2 | 2026-09-02 01:14:05 | 48.36109 | 12.93199 | 75° | 115km/h | 11459m | -4.9m/s | -56.4°C | 45.8% | 221.2hPa | 2.5V | 00:00:00 | 00:00:00 | 00:00:00 | |
| OE5HKT-10 | 2026-09-02 01:14:03 | 48.36096 | 12.93123 | 79° | 117km/h | 11468m | -4.9m/s | -56.4°C | 44.9% | 220.9hPa | 2.5V | 00:00:00 | 02:44:52 | 00:00:00 | |
| DL6DJ-15 | 2026-09-02 01:14:00 | 48.36083 | 12.93002 | 81° | 111km/h | 11483m | -4.9m/s | -56.5°C | 37.3% | 220.4hPa | 2.5V | 00:00:00 | 00:00:00 | 00:00:00 | |
| OE5MMP-10 | 2026-09-02 01:13:59 | 48.36078 | 12.92958 | 82° | 126km/h | 11488m | -4.7m/s | -56.5°C | 44.8% | 220.1hPa | 2.5V | 00:00:00 | 02:44:48 | 00:00:00 | |
| OE5FHM-15 | 2026-09-02 01:13:58 | 48.36073 | 12.92914 | 81° | 119km/h | 11493m | -4.7m/s | -56.5°C | 44.7% | 220.0hPa | 2.5V | 00:00:00 | 02:44:47 | 00:00:00 | |
| DG1MFX-10 | 2026-09-02 01:13:51 | 48.36027 | 12.92632 | 72° | 128km/h | 11521m | -4.8m/s | -56.7°C | 37.7% | 219.1hPa | 2.5V | 07:53:00 | 00:00:00 | 00:00:00 | |
| OE5MMP-10 | 2026-09-02 01:13:49 | 48.35995 | 12.92499 | 68° | 108km/h | 11535m | -5.1m/s | -56.7°C | 44.1% | 218.6hPa | 2.5V | 00:00:00 | 02:44:38 | 00:00:00 | |
| OE5DRO-10 | 2026-09-02 01:13:46 | 48.35960 | 12.92376 | 67° | 115km/h | 11550m | -5.1m/s | -56.9°C | 43.4% | 218.1hPa | 2.5V | 00:00:00 | 00:00:00 | 00:00:00 | |
| OE5WHR-10 | 2026-09-02 01:13:45 | 48.35949 | 12.92338 | 68° | 115km/h | 11555m | -5.1m/s | -56.9°C | 43.2% | 217.9hPa | 2.4V | 07:52:00 | 02:44:34 | 00:00:00 | |
| PETON7-10 | 2026-09-02 01:13:43 | 48.35930 | 12.92263 | 71° | 115km/h | 11565m | -4.7m/s | -57.0°C | 43.2% | 217.5hPa | 2.4V | 00:00:00 | 00:00:00 | 00:00:00 | |
| OE5HKT-10 | 2026-09-02 01:13:42 | 48.35922 | 12.92227 | 73° | 119km/h | 11570m | -4.8m/s | -57.0°C | 43.2% | 217.4hPa | 2.4V | 00:00:00 | 00:00:00 | 00:00:00 | |
| OE5MMP-10 | 2026-09-02 01:13:39 | 48.35904 | 12.92115 | 80° | 119km/h | 11584m | -4.7m/s | -57.1°C | 43.1% | 216.9hPa | 2.5V | 07:52:00 | 02:44:28 | 00:00:00 | |
| DK5PH-5 | 2026-09-02 01:13:31 | 48.35863 | 12.91765 | 77° | 124km/h | 11624m | -5.0m/s | -57.0°C | 39.8% | 215.5hPa | 2.4V | 00:00:00 | 02:44:20 | 00:00:00 | |
| DG1MFX-10 | 2026-09-02 01:13:30 | 48.35863 | 12.91764 | 77° | 128km/h | 11624m | -5.1m/s | -57.0°C | 32.8% | 215.6hPa | 2.4V | 07:53:00 | 00:00:00 | 00:00:00 | |
| OE5MMP-10 | 2026-09-02 01:13:29 | 48.35845 | 12.91671 | 73° | 117km/h | 11635m | -4.9m/s | -57.0°C | 39.1% | 215.2hPa | 2.4V | 00:00:00 | 02:44:18 | 00:00:00 | |
| OE5FHM-15 | 2026-09-02 01:13:28 | 48.35836 | 12.91624 | 72° | 117km/h | 11640m | -5.1m/s | -56.9°C | 38.9% | 215.0hPa | 2.4V | 00:00:00 | 02:44:17 | 00:00:00 | |
| OE5DRO-10 | 2026-09-02 01:13:27 | 48.35825 | 12.91578 | 70° | 115km/h | 11645m | -5.1m/s | -56.9°C | 38.7% | 214.9hPa | 2.4V | 00:00:00 | 00:00:00 | 00:00:00 | |
| PG1ADW-2 | 2026-09-02 01:13:25 | 48.35802 | 12.91490 | 68° | 115km/h | 11655m | -4.9m/s | -56.9°C | 38.3% | 214.5hPa | 2.4V | 00:00:00 | 00:00:00 | 00:00:00 | |
| OE5WHR-10 | 2026-09-02 01:13:24 | 48.35790 | 12.91448 | 67° | 115km/h | 11660m | -4.8m/s | -57.0°C | 38.3% | 214.3hPa | 2.4V | 00:00:00 | 00:00:00 | 00:00:00 | |
| OE5HKT-10 | 2026-09-02 01:13:21 | 48.35758 | 12.91333 | 70° | 113km/h | 11675m | -4.9m/s | -57.0°C | 37.7% | 213.9hPa | 2.4V | 07:52:00 | 00:00:00 | 00:00:00 | |
| OE3JTB-15 | 2026-09-02 01:13:20 | 48.35749 | 12.91297 | 72° | 119km/h | 11680m | -4.8m/s | -57.1°C | 37.6% | 213.7hPa | 2.4V | 00:00:00 | 00:00:00 | 00:00:00 | |
| OE5MMP-10 | 2026-09-02 01:13:19 | 48.35741 | 12.91260 | 75° | 113km/h | 11685m | -4.7m/s | -57.1°C | 37.4% | 213.5hPa | 2.4V | 00:00:00 | 02:44:08 | 00:00:00 | |
| PETON7-10 | 2026-09-02 01:13:13 | 48.35713 | 12.91018 | 82° | 120km/h | 11714m | -4.9m/s | -57.3°C | 36.7% | 212.6hPa | 2.4V | 00:00:00 | 00:00:00 | 00:00:00 | |
| DG1MFX-10 | 2026-09-02 01:13:10 | 48.35702 | 12.90925 | 80° | 128km/h | 11724m | -4.9m/s | -57.4°C | 29.6% | 212.2hPa | 2.5V | 07:53:00 | 00:00:00 | 00:00:00 | |
| OE5MMP-10 | 2026-09-02 01:13:09 | 48.35688 | 12.90829 | 76° | 120km/h | 11734m | -4.6m/s | -57.4°C | 36.2% | 211.9hPa | 2.5V | 00:00:00 | 02:43:58 | 00:00:00 | |
| OE5DRO-10 | 2026-09-02 01:13:08 | 48.35679 | 12.90782 | 74° | 113km/h | 11738m | -4.6m/s | -57.4°C | 36.1% | 211.7hPa | 2.5V | 00:00:00 | 00:00:00 | 00:00:00 | |
| PG1ADW-2 | 2026-09-02 01:13:05 | 48.35648 | 12.90647 | 69° | 111km/h | 11753m | -4.6m/s | -57.4°C | 35.5% | 211.2hPa | 2.5V | 00:00:00 | 00:00:00 | 00:00:00 | |
| OE5WHR-10 | 2026-09-02 01:13:03 | 48.35625 | 12.90563 | 68° | 111km/h | 11763m | -5.0m/s | -57.4°C | 34.8% | 210.9hPa | 2.5V | 00:00:00 | 00:00:00 | 00:00:00 | |
| DL6DJ-15 | 2026-09-02 01:12:58 | 48.35573 | 12.90371 | 70° | 102km/h | 11789m | -4.9m/s | -57.5°C | 26.8% | 210.1hPa | 2.5V | 00:00:00 | 00:00:00 | 00:00:00 | |
| DB0ND-19 | 2026-09-02 01:12:52 | 48.35529 | 12.90097 | 80° | 115km/h | 11821m | -4.6m/s | 0°C | -1.0% | -1.0hPa | 2.5V | 00:00:00 | 00:00:00 | 00:00:00 | |
| OE5MMP-10 | 2026-09-02 01:12:49 | 48.35520 | 12.90008 | 82° | 113km/h | 11831m | -5.0m/s | -57.5°C | 30.1% | 208.7hPa | 2.5V | 00:00:00 | 02:43:38 | 00:00:00 | |
| PG1ADW-2 | 2026-09-02 01:12:45 | 48.35503 | 12.89830 | 82° | 120km/h | 11852m | -5.1m/s | -57.5°C | 29.2% | 208.1hPa | 2.5V | 00:00:00 | 00:00:00 | 00:00:00 | |
| OE5REO-15 | 2026-09-02 01:12:43 | 48.35494 | 12.89746 | 81° | 110km/h | 11862m | -4.5m/s | -57.6°C | 22.7% | 207.7hPa | 2.5V | 07:53:00 | 00:00:00 | 00:00:00 | |
| OE5WHR-10 | 2026-09-02 01:12:42 | 48.35488 | 12.89705 | 78° | 124km/h | 11866m | -4.7m/s | -57.5°C | 28.6% | 207.6hPa | 2.5V | 00:00:00 | 02:43:31 | 00:00:00 | |
| OE5MMP-10 | 2026-09-02 01:12:39 | 48.35466 | 12.89588 | 72° | 124km/h | 11880m | -4.1m/s | -57.5°C | 27.7% | 207.1hPa | 2.5V | 00:00:00 | 02:43:28 | 00:00:00 | |
| DK5PH-5 | 2026-09-02 01:12:31 | 48.35387 | 12.89232 | 77° | 113km/h | 11916m | -4.4m/s | -57.3°C | 24.9% | 206.0hPa | 2.4V | 00:00:00 | 02:43:20 | 00:00:00 | |
| OE5DRO-10 | 2026-09-02 01:12:30 | 48.35379 | 12.89183 | 78° | 120km/h | 11920m | -4.0m/s | -57.3°C | 24.8% | 205.8hPa | 2.5V | 00:00:00 | 00:00:00 | 00:00:00 | |
| OE5MMP-10 | 2026-09-02 01:12:29 | 48.35371 | 12.89134 | 78° | 128km/h | 11925m | -4.8m/s | -57.3°C | 24.8% | 205.7hPa | 2.5V | 00:00:00 | 02:43:18 | 00:00:00 | |
| OE5FHM-15 | 2026-09-02 01:12:28 | 48.35364 | 12.89084 | 79° | 117km/h | 11930m | -4.4m/s | -57.3°C | 24.7% | 205.5hPa | 2.5V | 00:00:00 | 02:43:17 | 00:00:00 | |
| OE5REO-15 | 2026-09-02 01:12:26 | 48.35358 | 12.89035 | 80° | 131km/h | 11935m | -4.6m/s | -57.4°C | 18.9% | 205.4hPa | 2.5V | 07:53:00 | 00:00:00 | 00:00:00 | |
| PG1ADW-2 | 2026-09-02 01:12:25 | 48.35346 | 12.88936 | 82° | 113km/h | 11944m | -4.3m/s | -57.3°C | 24.4% | 205.0hPa | 2.5V | 00:00:00 | 02:43:14 | 00:00:00 | |
| OE5WHR-10 | 2026-09-02 01:12:21 | 48.35330 | 12.88747 | 84° | 111km/h | 11963m | -4.5m/s | -57.3°C | 23.1% | 204.5hPa | 2.5V | 00:00:00 | 00:00:00 | 00:00:00 | |
| OE5MMP-10 | 2026-09-02 01:12:19 | 48.35324 | 12.88657 | 85° | 110km/h | 11973m | -4.2m/s | -57.3°C | 22.6% | 204.2hPa | 2.5V | 07:53:00 | 02:43:08 | 00:00:00 | |
| BAUMI2-15 | 2026-09-02 01:12:16 | 48.35315 | 12.88527 | 86° | 108km/h | 11988m | -4.5m/s | -57.2°C | 21.5% | 203.7hPa | 2.5V | 00:00:00 | 02:43:05 | 00:00:00 | |
| PETON7-10 | 2026-09-02 01:12:13 | 48.35306 | 12.88403 | 83° | 111km/h | 12001m | -4.0m/s | -57.0°C | 20.4% | 203.3hPa | 2.5V | 00:00:00 | 00:00:00 | 00:00:00 | |
| BAUMI2-15 | 2026-09-02 01:12:11 | 48.35299 | 12.88325 | 81° | 102km/h | 12010m | -4.0m/s | -56.8°C | 19.6% | 202.9hPa | 2.5V | 00:00:00 | 02:43:00 | 00:00:00 | |
| OE5REO-15 | 2026-09-02 01:12:10 | 48.35299 | 12.88325 | 81° | 100km/h | 12010m | -4.1m/s | -56.8°C | 14.6% | 203.0hPa | 2.5V | 07:54:00 | 00:00:00 | 00:00:00 | |
| OE5MMP-10 | 2026-09-02 01:12:09 | 48.35288 | 12.88249 | 77° | 115km/h | 12019m | -4.4m/s | -56.6°C | 18.8% | 202.6hPa | 2.5V | 00:00:00 | 02:42:58 | 00:00:00 | |
| DG1MFX-10 | 2026-09-02 01:12:08 | 48.35288 | 12.88249 | 77° | 104km/h | 12019m | -4.4m/s | -56.6°C | 14.1% | 202.7hPa | 2.5V | 00:00:00 | 00:00:00 | 00:00:00 | |
| BAUMI2-15 | 2026-09-02 01:12:06 | 48.35264 | 12.88134 | 72° | 115km/h | 12033m | -4.2m/s | -56.6°C | 18.7% | 202.2hPa | 2.5V | 00:00:00 | 02:42:55 | 00:00:00 | |
| PG1ADW-2 | 2026-09-02 01:12:05 | 48.35255 | 12.88094 | 71° | 113km/h | 12037m | -4.7m/s | -56.5°C | 18.6% | 202.1hPa | 2.5V | 00:00:00 | 00:00:00 | 00:00:00 | |
| DK5PH-5 | 2026-09-02 01:12:01 | 48.35218 | 12.87921 | 76° | 115km/h | 12054m | -4.4m/s | -56.3°C | 18.1% | 201.5hPa | 2.5V | 00:00:00 | 02:42:50 | 00:00:00 | |
| OE5WHR-10 | 2026-09-02 01:12:00 | 48.35210 | 12.87874 | 78° | 111km/h | 12058m | -3.7m/s | -56.3°C | 17.9% | 201.3hPa | 2.5V | 00:00:00 | 00:00:00 | 00:00:00 | |
| OE5MMP-10 | 2026-09-02 01:11:59 | 48.35204 | 12.87827 | 81° | 115km/h | 12062m | -4.4m/s | -56.3°C | 17.7% | 201.2hPa | 2.5V | 00:00:00 | 02:42:48 | 00:00:00 | |
| PETON7-10 | 2026-09-02 01:11:58 | 48.35199 | 12.87781 | 82° | 108km/h | 12067m | -4.2m/s | -56.3°C | 17.5% | 201.1hPa | 2.5V | 00:00:00 | 02:42:47 | 00:00:00 | |
| BAUMI2-15 | 2026-09-02 01:11:56 | 48.35192 | 12.87689 | 86° | 115km/h | 12076m | -4.4m/s | -56.3°C | 17.2% | 200.8hPa | 2.5V | 00:00:00 | 02:42:45 | 00:00:00 | |
| OE5REO-15 | 2026-09-02 01:11:55 | 48.35192 | 12.87689 | 86° | 120km/h | 12076m | -4.5m/s | -56.4°C | 12.6% | 200.9hPa | 2.5V | 07:54:00 | 00:00:00 | 00:00:00 | |
| OE5DRO-10 | 2026-09-02 01:11:52 | 48.35185 | 12.87515 | 88° | 110km/h | 12096m | -4.5m/s | -56.3°C | 16.4% | 200.2hPa | 2.5V | 00:00:00 | 00:00:00 | 00:00:00 | |
| BAUMI2-15 | 2026-09-02 01:11:51 | 48.35183 | 12.87475 | 87° | 100km/h | 12101m | -4.3m/s | -56.3°C | 16.3% | 200.1hPa | 2.5V | 00:00:00 | 02:42:40 | 00:00:00 | |
| OE5MMP-10 | 2026-09-02 01:11:49 | 48.35179 | 12.87397 | 84° | 106km/h | 12110m | -4.1m/s | -56.2°C | 16.0% | 199.7hPa | 2.5V | 00:00:00 | 02:42:38 | 00:00:00 | |
| OE5HKT-10 | 2026-09-02 01:11:48 | 48.35176 | 12.87360 | 83° | 100km/h | 12115m | -4.7m/s | -56.1°C | 15.8% | 199.5hPa | 2.5V | 00:00:00 | 00:00:00 | 00:00:00 | |
| OE3JTB-15 | 2026-09-02 01:11:47 | 48.35172 | 12.87323 | 81° | 108km/h | 12119m | -3.8m/s | -56.0°C | 15.6% | 199.5hPa | 2.5V | 00:00:00 | 00:00:00 | 00:00:00 | |
| BAUMI2-15 | 2026-09-02 01:11:46 | 48.35167 | 12.87288 | 77° | 104km/h | 12124m | -4.1m/s | -56.0°C | 15.6% | 199.3hPa | 2.5V | 07:54:00 | 02:42:35 | 00:00:00 | |
| PG1ADW-2 | 2026-09-02 01:11:45 | 48.35161 | 12.87251 | 76° | 113km/h | 12128m | -3.9m/s | -56.0°C | 15.5% | 199.2hPa | 2.5V | 07:54:00 | 00:00:00 | 00:00:00 | |
| PETON7-10 | 2026-09-02 01:11:43 | 48.35146 | 12.87176 | 74° | 117km/h | 12136m | -4.1m/s | -56.0°C | 15.4% | 198.9hPa | 2.4V | 00:00:00 | 00:00:00 | 00:00:00 | |
| BAUMI2-15 | 2026-09-02 01:11:41 | 48.35131 | 12.87093 | 76° | 120km/h | 12145m | -4.1m/s | -56.1°C | 15.4% | 198.7hPa | 2.4V | 00:00:00 | 02:42:30 | 00:00:00 | |
| OE5REO-15 | 2026-09-02 01:11:39 | 48.35123 | 12.87049 | 77° | 119km/h | 12149m | -4.1m/s | -56.1°C | 11.0% | 198.5hPa | 2.4V | 07:54:00 | 00:00:00 | 00:00:00 | |
| BAUMI2-15 | 2026-09-02 01:11:36 | 48.35103 | 12.86868 | 84° | 120km/h | 12167m | -4.2m/s | -56.1°C | 15.0% | 197.9hPa | 2.4V | 00:00:00 | 02:42:25 | 00:00:00 | |
| OE5DRO-10 | 2026-09-02 01:11:33 | 48.35097 | 12.86731 | 89° | 102km/h | 12182m | -5.2m/s | -56.1°C | 14.5% | 197.5hPa | 2.4V | 00:00:00 | 00:00:00 | 00:00:00 | |
| BAUMI2-15 | 2026-09-02 01:11:31 | 48.35097 | 12.86642 | 90° | 108km/h | 12192m | -5.0m/s | -56.2°C | 14.3% | 197.2hPa | 2.4V | 00:00:00 | 02:42:20 | 00:00:00 | |
| OE5MMP-10 | 2026-09-02 01:11:29 | 48.35098 | 12.86558 | 93° | 97km/h | 12202m | -4.6m/s | -56.2°C | 14.1% | 196.9hPa | 2.4V | 00:00:00 | 02:42:18 | 00:00:00 | |
| PETON7-10 | 2026-09-02 01:11:28 | 48.35098 | 12.86517 | 92° | 99km/h | 12207m | -4.4m/s | -56.3°C | 14.1% | 196.8hPa | 2.4V | 07:54:00 | 00:00:00 | 00:00:00 | |
| BAUMI2-15 | 2026-09-02 01:11:26 | 48.35099 | 12.86440 | 92° | 95km/h | 12217m | -5.0m/s | -56.3°C | 13.9% | 196.4hPa | 2.4V | 00:00:00 | 02:42:15 | 00:00:00 | |
| DL6DJ-15 | 2026-09-02 01:11:25 | 48.35099 | 12.86366 | 87° | 89km/h | 12227m | -4.1m/s | -56.5°C | 9.6% | 196.2hPa | 2.4V | 00:00:00 | 00:00:00 | 00:00:00 | |
| OE5REO-15 | 2026-09-02 01:11:23 | 48.35099 | 12.86366 | 89° | 91km/h | 12227m | -4.1m/s | -56.5°C | 9.6% | 196.2hPa | 2.4V | 07:55:00 | 00:00:00 | 00:00:00 | |
| BAUMI2-15 | 2026-09-02 01:11:21 | 48.35093 | 12.86264 | 81° | 93km/h | 12241m | -4.6m/s | -56.5°C | 13.6% | 195.7hPa | 2.4V | 00:00:00 | 02:42:10 | 00:00:00 | |
| OE5MMP-10 | 2026-09-02 01:11:19 | 48.35084 | 12.86197 | 79° | 110km/h | 12251m | -4.8m/s | -56.5°C | 13.6% | 195.4hPa | 2.4V | 00:00:00 | 02:42:08 | 00:00:00 | |
| OE5WHR-10 | 2026-09-02 01:11:18 | 48.35079 | 12.86162 | 77° | 100km/h | 12255m | -4.4m/s | -56.6°C | 13.5% | 195.3hPa | 2.4V | 00:00:00 | 00:00:00 | 00:00:00 | |
| BAUMI2-15 | 2026-09-02 01:11:16 | 48.35066 | 12.86087 | 76° | 115km/h | 12265m | -4.0m/s | -56.5°C | 13.4% | 195.0hPa | 2.5V | 00:00:00 | 02:42:05 | 00:00:00 | |
| PETON7-10 | 2026-09-02 01:11:13 | 48.35050 | 12.85961 | 84° | 99km/h | 12278m | -4.3m/s | -56.5°C | 13.2% | 194.6hPa | 2.5V | 00:00:00 | 02:42:02 | 00:00:00 | |
| BAUMI2-15 | 2026-09-02 01:11:11 | 48.35045 | 12.85871 | 89° | 108km/h | 12287m | -4.4m/s | -56.4°C | 12.8% | 194.3hPa | 2.5V | 00:00:00 | 02:42:00 | 00:00:00 | |
| OE5MMP-10 | 2026-09-02 01:11:09 | 48.35045 | 12.85787 | 92° | 95km/h | 12297m | -4.5m/s | -56.3°C | 12.4% | 194.0hPa | 2.5V | 00:00:00 | 02:41:58 | 00:00:00 | |
| OE5REO-15 | 2026-09-02 01:11:08 | 48.35045 | 12.85787 | 92° | 110km/h | 12297m | -4.6m/s | -56.3°C | 8.4% | 194.1hPa | 2.5V | 07:55:00 | 00:00:00 | 00:00:00 | |
| BAUMI2-15 | 2026-09-02 01:11:06 | 48.35045 | 12.85671 | 89° | 89km/h | 12310m | -4.1m/s | -56.2°C | 12.2% | 193.6hPa | 2.5V | 07:55:00 | 02:41:55 | 00:00:00 | |
| PG1ADW-2 | 2026-09-02 01:11:05 | 48.35044 | 12.85636 | 89° | 99km/h | 12315m | -3.9m/s | -56.2°C | 12.0% | 193.4hPa | 2.5V | 00:00:00 | 02:41:54 | 00:00:00 | |
| OE5HKT-10 | 2026-09-02 01:11:04 | 48.35043 | 12.85603 | 84° | 86km/h | 12319m | -4.4m/s | -56.2°C | 12.0% | 193.3hPa | 2.5V | 00:00:00 | 00:00:00 | 00:00:00 | |
| DL6DJ-15 | 2026-09-02 01:10:54 | 48.34980 | 12.85231 | 71° | 104km/h | 12372m | -4.6m/s | -56.1°C | 7.1% | 191.7hPa | 2.5V | 00:00:00 | 00:00:00 | 00:00:00 | |
| OE5REO-15 | 2026-09-02 01:10:53 | 48.34988 | 12.85269 | 74° | 106km/h | 12367m | -4.6m/s | -56.1°C | 7.1% | 191.9hPa | 2.5V | 07:55:00 | 00:00:00 | 00:00:00 | |
| BAUMI2-15 | 2026-09-02 01:10:51 | 48.34964 | 12.85150 | 75° | 113km/h | 12382m | -5.1m/s | -56.1°C | 10.8% | 191.5hPa | 2.5V | 00:00:00 | 02:41:40 | 00:00:00 | |
| OE5MMP-10 | 2026-09-02 01:10:49 | 48.34949 | 12.85065 | 78° | 99km/h | 12392m | -4.5m/s | -56.1°C | 10.7% | 191.1hPa | 2.5V | 00:00:00 | 02:41:38 | 00:00:00 | |
| BAUMI2-15 | 2026-09-02 01:10:46 | 48.34936 | 12.84939 | 84° | 95km/h | 12405m | -3.8m/s | -56.0°C | 10.4% | 190.7hPa | 2.5V | 00:00:00 | 02:41:35 | 00:00:00 | |
| PG1ADW-2 | 2026-09-02 01:10:45 | 48.34933 | 12.84901 | 86° | 93km/h | 12409m | -4.1m/s | -56.0°C | 10.2% | 190.6hPa | 2.5V | 00:00:00 | 00:00:00 | 00:00:00 | |
| DG1MFX-10 | 2026-09-02 01:10:44 | 48.34933 | 12.84901 | 87° | 99km/h | 12409m | -4.2m/s | -56.1°C | 6.6% | 190.6hPa | 2.4V | 07:55:00 | 00:00:00 | 00:00:00 | |
| PETON7-10 | 2026-09-02 01:10:43 | 48.34929 | 12.84829 | 85° | 89km/h | 12418m | -4.5m/s | -56.0°C | 9.9% | 190.4hPa | 2.4V | 00:00:00 | 00:00:00 | 00:00:00 | |
| BAUMI2-15 | 2026-09-02 01:10:41 | 48.34924 | 12.84762 | 83° | 86km/h | 12427m | -4.6m/s | -56.0°C | 9.7% | 190.1hPa | 2.4V | 00:00:00 | 02:41:30 | 00:00:00 | |
| OE5MMP-10 | 2026-09-02 01:10:39 | 48.34919 | 12.84698 | 82° | 88km/h | 12437m | -5.1m/s | -56.0°C | 9.5% | 189.7hPa | 2.4V | 00:00:00 | 02:41:28 | 00:00:00 | |
| OE5REO-15 | 2026-09-02 01:10:38 | 48.34915 | 12.84667 | 81° | 86km/h | 12442m | -5.0m/s | -56.0°C | 5.8% | 189.6hPa | 2.4V | 07:56:00 | 00:00:00 | 00:00:00 | |
| OE5WHR-10 | 2026-09-02 01:10:36 | 48.34906 | 12.84605 | 76° | 104km/h | 12453m | -4.7m/s | -55.9°C | 9.1% | 189.3hPa | 2.4V | 00:00:00 | 02:41:25 | 00:00:00 | |
| BAUMI2-15 | 2026-09-02 01:10:31 | 48.34867 | 12.84447 | 68° | 102km/h | 12478m | -3.9m/s | -55.6°C | 8.5% | 188.6hPa | 2.4V | 00:00:00 | 02:41:20 | 00:00:00 | |
| OE5MMP-10 | 2026-09-02 01:10:29 | 48.34847 | 12.84378 | 68° | 110km/h | 12487m | -3.8m/s | -55.6°C | 8.3% | 188.3hPa | 2.4V | 00:00:00 | 02:41:18 | 00:00:00 | |
| OE5DXL-15 | 2026-09-02 01:10:28 | 48.34837 | 12.84342 | 69° | 104km/h | 12491m | -4.1m/s | -55.6°C | 8.3% | 188.2hPa | 2.4V | 00:00:00 | 00:00:00 | 00:00:00 | |
| DO3MHA-11 | 2026-09-02 01:10:26 | 48.34818 | 12.84267 | 71° | 111km/h | 12500m | -5.0m/s | -55.6°C | 8.1% | 187.9hPa | 2.4V | 00:00:00 | 02:41:15 | 00:00:00 | |
| PG1ADW-2 | 2026-09-02 01:10:25 | 48.34808 | 12.84227 | 72° | 110km/h | 12506m | -4.4m/s | -55.6°C | 8.2% | 187.7hPa | 2.4V | 00:00:00 | 00:00:00 | 00:00:00 | |
| DG1MFX-10 | 2026-09-02 01:10:23 | 48.34800 | 12.84187 | 75° | 110km/h | 12510m | -4.7m/s | -55.6°C | 4.8% | 187.6hPa | 2.4V | 07:56:00 | 00:00:00 | 00:00:00 | |
| OE5REO-15 | 2026-09-02 01:10:22 | 48.34792 | 12.84146 | 77° | 113km/h | 12516m | -4.6m/s | -55.7°C | 4.7% | 187.5hPa | 2.4V | 07:56:00 | 00:00:00 | 00:00:00 | |
| BAUMI2-15 | 2026-09-02 01:10:21 | 48.34778 | 12.84062 | 78° | 111km/h | 12526m | -4.9m/s | -55.6°C | 7.9% | 187.2hPa | 2.4V | 00:00:00 | 02:41:10 | 00:00:00 | |
| OE5MMP-10 | 2026-09-02 01:10:19 | 48.34767 | 12.83980 | 81° | 111km/h | 12538m | -4.8m/s | -55.6°C | 7.7% | 186.8hPa | 2.4V | 00:00:00 | 02:41:08 | 00:00:00 | |
| OE5DRO-10 | 2026-09-02 01:10:17 | 48.34758 | 12.83896 | 83° | 102km/h | 12548m | -4.5m/s | -55.5°C | 7.5% | 186.5hPa | 2.4V | 00:00:00 | 00:00:00 | 00:00:00 | |
| OE5WHR-10 | 2026-09-02 01:10:15 | 48.34751 | 12.83811 | 84° | 102km/h | 12559m | -4.3m/s | -55.3°C | 7.2% | 186.3hPa | 2.4V | 00:00:00 | 00:00:00 | 00:00:00 | |
| PETON7-10 | 2026-09-02 01:10:13 | 48.34745 | 12.83726 | 86° | 99km/h | 12569m | -4.7m/s | -55.3°C | 7.1% | 185.9hPa | 2.4V | 00:00:00 | 00:00:00 | 00:00:00 | |
| DO3MHA-11 | 2026-09-02 01:10:12 | 48.34742 | 12.83684 | 86° | 97km/h | 12574m | -4.5m/s | -55.3°C | 7.1% | 185.8hPa | 2.4V | 00:00:00 | 02:41:01 | 00:00:00 | |
| OE5MMP-10 | 2026-09-02 01:10:09 | 48.34738 | 12.83560 | 89° | 93km/h | 12589m | -5.1m/s | -55.1°C | 6.8% | 185.4hPa | 2.4V | 00:00:00 | 02:40:58 | 00:00:00 | |
| OE5REO-15 | 2026-09-02 01:10:06 | 48.34737 | 12.83484 | 90° | 99km/h | 12599m | -4.5m/s | -54.8°C | 3.6% | 185.1hPa | 2.4V | 07:56:00 | 00:00:00 | 00:00:00 | |
| PG1ADW-2 | 2026-09-02 01:10:05 | 48.34735 | 12.83412 | 86° | 100km/h | 12608m | -4.2m/s | -54.7°C | 6.4% | 184.8hPa | 2.4V | 00:00:00 | 00:00:00 | 00:00:00 | |
| DG1MFX-10 | 2026-09-02 01:10:02 | 48.34730 | 12.83347 | 82° | 88km/h | 12617m | -4.2m/s | -54.7°C | 3.5% | 184.6hPa | 2.4V | 07:56:00 | 00:00:00 | 00:00:00 | |
| DK5PH-5 | 2026-09-02 01:10:01 | 48.34722 | 12.83283 | 75° | 99km/h | 12626m | -4.4m/s | -54.5°C | 6.3% | 184.3hPa | 2.4V | 00:00:00 | 02:40:50 | 00:00:00 | |
| OE5MMP-10 | 2026-09-02 01:09:59 | 48.34707 | 12.83214 | 73° | 111km/h | 12635m | -4.4m/s | -54.6°C | 6.3% | 184.0hPa | 2.4V | 00:00:00 | 02:40:48 | 00:00:00 | |
| PETON7-10 | 2026-09-02 01:09:58 | 48.34699 | 12.83177 | 74° | 104km/h | 12639m | -5.2m/s | -54.6°C | 6.4% | 183.8hPa | 2.4V | 00:00:00 | 00:00:00 | 00:00:00 | |
| OE5WHR-10 | 2026-09-02 01:09:54 | 48.34674 | 12.83008 | 83° | 97km/h | 12660m | -5.0m/s | -54.7°C | 6.4% | 183.2hPa | 2.4V | 00:00:00 | 00:00:00 | 00:00:00 | |
| OE3JTB-15 | 2026-09-02 01:09:51 | 48.34667 | 12.82880 | 90° | 95km/h | 12676m | -4.3m/s | -54.7°C | 6.5% | 182.8hPa | 2.4V | 07:56:00 | 02:40:40 | 00:00:00 | |
| OE5REO-15 | 2026-09-02 01:09:50 | 48.34668 | 12.82880 | 90° | 111km/h | 12676m | -4.4m/s | -54.8°C | 3.4% | 182.9hPa | 2.4V | 07:56:00 | 00:00:00 | 00:00:00 | |
| OE5MMP-10 | 2026-09-02 01:09:49 | 48.34668 | 12.82799 | 93° | 88km/h | 12686m | -4.5m/s | -54.7°C | 6.4% | 182.5hPa | 2.4V | 00:00:00 | 02:40:38 | 00:00:00 | |
| PG1ADW-2 | 2026-09-02 01:09:45 | 48.34672 | 12.82658 | 90° | 95km/h | 12706m | -5.1m/s | -54.8°C | 6.3% | 182.0hPa | 2.4V | 00:00:00 | 02:40:34 | 00:00:00 | |
| PETON7-10 | 2026-09-02 01:09:43 | 48.34671 | 12.82596 | 89° | 97km/h | 12716m | -5.0m/s | -54.8°C | 6.3% | 181.7hPa | 2.4V | 00:00:00 | 02:40:32 | 00:00:00 | |
| DG1MFX-10 | 2026-09-02 01:09:41 | 48.34670 | 12.82565 | 84° | 84km/h | 12721m | -4.8m/s | -54.9°C | 3.3% | 181.6hPa | 2.4V | 07:57:00 | 00:00:00 | 00:00:00 | |
| OE5MMP-10 | 2026-09-02 01:09:39 | 48.34657 | 12.82473 | 76° | 102km/h | 12735m | -4.4m/s | -54.8°C | 6.3% | 181.1hPa | 2.4V | 07:56:00 | 02:40:28 | 00:00:00 | |
| OE5REO-15 | 2026-09-02 01:09:35 | 48.34637 | 12.82372 | 75° | 102km/h | 12749m | -4.5m/s | -54.6°C | 3.1% | 180.7hPa | 2.4V | 07:57:00 | 00:00:00 | 00:00:00 | |
| OE5WHR-10 | 2026-09-02 01:09:33 | 48.34614 | 12.82257 | 78° | 95km/h | 12763m | -5.1m/s | -54.2°C | 5.8% | 180.3hPa | 2.4V | 00:00:00 | 02:40:22 | 00:00:00 | |
| DK5PH-5 | 2026-09-02 01:09:31 | 48.34603 | 12.82175 | 81° | 95km/h | 12774m | -4.8m/s | -54.0°C | 5.8% | 179.9hPa | 2.4V | 00:00:00 | 02:40:20 | 00:00:00 | |
| OE5MMP-10 | 2026-09-02 01:09:29 | 48.34597 | 12.82092 | 87° | 89km/h | 12784m | -4.8m/s | -53.9°C | 5.9% | 179.7hPa | 2.4V | 00:00:00 | 02:40:18 | 00:00:00 | |
| PETON7-10 | 2026-09-02 01:09:28 | 48.34596 | 12.82052 | 89° | 89km/h | 12789m | -4.5m/s | -53.8°C | 5.8% | 179.6hPa | 2.4V | 07:56:00 | 00:00:00 | 00:00:00 | |
| PG1ADW-2 | 2026-09-02 01:09:25 | 48.34596 | 12.81942 | 90° | 97km/h | 12804m | -4.9m/s | -53.7°C | 5.7% | 179.1hPa | 2.4V | 00:00:00 | 00:00:00 | 00:00:00 | |
| OE5HKT-10 | 2026-09-02 01:09:23 | 48.34595 | 12.81878 | 87° | 75km/h | 12814m | -4.5m/s | -53.7°C | 5.7% | 178.9hPa | 2.4V | 00:00:00 | 00:00:00 | 00:00:00 | |
| OE3JTB-15 | 2026-09-02 01:09:22 | 48.34594 | 12.81848 | 86° | 89km/h | 12819m | -4.6m/s | -53.7°C | 5.7% | 178.8hPa | 2.4V | 00:00:00 | 00:00:00 | 00:00:00 | |
| OE5DRO-10 | 2026-09-02 01:09:20 | 48.34588 | 12.81790 | 77° | 97km/h | 12829m | -4.1m/s | -53.8°C | 5.7% | 178.5hPa | 2.5V | 00:00:00 | 00:00:00 | 00:00:00 | |
| OE5MMP-10 | 2026-09-02 01:09:19 | 48.34583 | 12.81761 | 76° | 99km/h | 12834m | -4.1m/s | -53.8°C | 5.6% | 178.4hPa | 2.5V | 00:00:00 | 02:40:08 | 00:00:00 | |
| PETON7-10 | 2026-09-02 01:09:13 | 48.34538 | 12.81560 | 74° | 97km/h | 12860m | -4.6m/s | -53.5°C | 5.6% | 177.5hPa | 2.5V | 00:00:00 | 00:00:00 | 00:00:00 | |
| OE5WHR-10 | 2026-09-02 01:09:12 | 48.34531 | 12.81520 | 77° | 89km/h | 12864m | -4.0m/s | -53.5°C | 5.6% | 177.5hPa | 2.5V | 00:00:00 | 00:00:00 | 00:00:00 | |
| DO3MHA-11 | 2026-09-02 01:09:11 | 48.34525 | 12.81480 | 80° | 106km/h | 12869m | -4.9m/s | -53.5°C | 5.6% | 177.3hPa | 2.4V | 07:57:00 | 02:40:00 | 00:00:00 | |
| OE5MMP-10 | 2026-09-02 01:09:09 | 48.34517 | 12.81399 | 84° | 95km/h | 12878m | -4.9m/s | -53.5°C | 5.7% | 177.0hPa | 2.4V | 00:00:00 | 02:39:58 | 00:00:00 | |
| PG1ADW-2 | 2026-09-02 01:09:05 | 48.34512 | 12.81245 | 91° | 86km/h | 12899m | -4.7m/s | -53.2°C | 5.5% | 176.5hPa | 2.4V | 07:57:00 | 00:00:00 | 00:00:00 | |
| DF3TZ-5 | 2026-09-02 01:09:03 | 48.34511 | 12.80959 | 86° | 73km/h | 12946m | -4.3m/s | -53.1°C | 2.6% | 175.3hPa | 2.4V | 00:00:00 | 00:00:00 | 00:00:00 | |
| DL6DJ-15 | 2026-09-02 01:08:50 | 48.34482 | 12.80765 | 71° | 88km/h | 12979m | -4.2m/s | -53.1°C | 2.5% | 174.4hPa | 2.4V | 00:00:00 | 00:00:00 | 00:00:00 | |
| OE5MMP-10 | 2026-09-02 01:08:49 | 48.34482 | 12.80765 | 72° | 99km/h | 12980m | -4.1m/s | -53.1°C | 5.1% | 174.3hPa | 2.4V | 00:00:00 | 02:39:38 | 00:00:00 | |
| OE5REO-15 | 2026-09-02 01:08:47 | 48.34474 | 12.80733 | 72° | 91km/h | 12984m | -4.5m/s | -53.1°C | 2.5% | 174.2hPa | 2.4V | 07:58:00 | 00:00:00 | 00:00:00 | |
| PG1ADW-2 | 2026-09-02 01:08:45 | 48.34455 | 12.80625 | 80° | 91km/h | 12999m | -4.6m/s | -53.2°C | 5.1% | 173.8hPa | 2.4V | 00:00:00 | 00:00:00 | 00:00:00 | |
| PETON7-10 | 2026-09-02 01:08:43 | 48.34446 | 12.80548 | 85° | 84km/h | 13009m | -4.7m/s | -53.2°C | 5.0% | 173.6hPa | 2.5V | 00:00:00 | 00:00:00 | 00:00:00 | |
| OE5DRO-10 | 2026-09-02 01:08:42 | 48.34444 | 12.80509 | 87° | 88km/h | 13014m | -4.8m/s | -53.2°C | 5.0% | 173.4hPa | 2.4V | 00:00:00 | 00:00:00 | 00:00:00 | |
| DO3MHA-11 | 2026-09-02 01:08:39 | 48.34445 | 12.80400 | 93° | 82km/h | 13031m | -5.0m/s | -53.3°C | 5.0% | 173.1hPa | 2.4V | 00:00:00 | 02:39:28 | 00:00:00 | |
| DG1MFX-10 | 2026-09-02 01:08:38 | 48.34445 | 12.80400 | 93° | 88km/h | 13031m | -5.0m/s | -53.4°C | 2.4% | 173.1hPa | 2.4V | 07:58:00 | 00:00:00 | 00:00:00 | |
| OE5HKT-10 | 2026-09-02 01:08:33 | 48.34441 | 12.80229 | 76° | 77km/h | 13058m | -4.0m/s | -53.2°C | 4.9% | 172.3hPa | 2.4V | 00:00:00 | 02:39:22 | 00:00:00 | |
| DF3TZ-5 | 2026-09-02 01:08:32 | 48.34436 | 12.80201 | 75° | 77km/h | 13063m | -4.0m/s | -53.3°C | 2.2% | 172.2hPa | 2.4V | 00:00:00 | 00:00:00 | 00:00:00 | |
| DK5PH-5 | 2026-09-02 01:08:31 | 48.34430 | 12.80172 | 72° | 91km/h | 13067m | -4.8m/s | -53.2°C | 4.9% | 172.0hPa | 2.4V | 00:00:00 | 02:39:20 | 00:00:00 | |
| OE5WHR-10 | 2026-09-02 01:08:30 | 48.34424 | 12.80142 | 74° | 91km/h | 13072m | -4.5m/s | -53.3°C | 4.9% | 171.9hPa | 2.4V | 00:00:00 | 02:39:19 | 00:00:00 | |
| DO3MHA-11 | 2026-09-02 01:08:29 | 48.34417 | 12.80110 | 72° | 102km/h | 13076m | -4.5m/s | -53.3°C | 4.8% | 171.7hPa | 2.4V | 00:00:00 | 02:39:18 | 00:00:00 | |
| OE5DXL-15 | 2026-09-02 01:08:28 | 48.34410 | 12.80076 | 75° | 93km/h | 13081m | -4.4m/s | -53.3°C | 4.8% | 171.6hPa | 2.4V | 00:00:00 | 00:00:00 | 00:00:00 | |
| PG1ADW-2 | 2026-09-02 01:08:25 | 48.34392 | 12.79963 | 78° | 89km/h | 13095m | -5.1m/s | -53.3°C | 4.8% | 171.2hPa | 2.5V | 00:00:00 | 02:39:14 | 00:00:00 | |
| OE3JTB-15 | 2026-09-02 01:08:24 | 48.34386 | 12.79924 | 80° | 93km/h | 13101m | -5.7m/s | -53.3°C | 4.7% | 171.1hPa | 2.5V | 00:00:00 | 02:39:13 | 00:00:00 | |
| OE5DRO-10 | 2026-09-02 01:08:23 | 48.34382 | 12.79885 | 82° | 88km/h | 13107m | -5.0m/s | -53.2°C | 4.7% | 171.0hPa | 2.5V | 00:00:00 | 00:00:00 | 00:00:00 | |
| DO3MHA-11 | 2026-09-02 01:08:19 | 48.34375 | 12.79727 | 92° | 78km/h | 13128m | -4.3m/s | -53.2°C | 4.7% | 170.4hPa | 2.5V | 00:00:00 | 02:39:08 | 00:00:00 | |
| DG1MFX-10 | 2026-09-02 01:08:18 | 48.34375 | 12.79727 | 92° | 97km/h | 13128m | -4.4m/s | -53.2°C | 2.1% | 170.4hPa | 2.4V | 07:58:00 | 00:00:00 | 00:00:00 | |
| BAUMI2-15 | 2026-09-02 01:08:16 | 48.34378 | 12.79624 | 94° | 77km/h | 13142m | -4.8m/s | -53.2°C | 4.6% | 170.0hPa | 2.4V | 00:00:00 | 02:39:05 | 00:00:00 | |
| DB0ND-19 | 2026-09-02 01:08:13 | 48.34379 | 12.79508 | 84° | 75km/h | 13159m | -5.3m/s | 0°C | -1.0% | -1.0hPa | 2.4V | 00:00:00 | 00:00:00 | 00:00:00 | |
| BAUMI2-15 | 2026-09-02 01:08:11 | 48.34376 | 12.79480 | 80° | 78km/h | 13165m | -4.9m/s | -53.2°C | 4.6% | 169.4hPa | 2.4V | 00:00:00 | 02:39:00 | 00:00:00 | |
| OE5MMP-10 | 2026-09-02 01:08:09 | 48.34368 | 12.79425 | 77° | 93km/h | 13174m | -4.6m/s | -53.2°C | 4.6% | 169.1hPa | 2.4V | 00:00:00 | 02:38:58 | 00:00:00 | |
| DO3MHA-11 | 2026-09-02 01:08:08 | 48.34362 | 12.79396 | 75° | 97km/h | 13179m | -4.5m/s | -53.1°C | 4.6% | 169.0hPa | 2.4V | 00:00:00 | 02:38:57 | 00:00:00 | |
| BAUMI2-15 | 2026-09-02 01:08:06 | 48.34349 | 12.79334 | 72° | 95km/h | 13187m | -4.6m/s | -53.0°C | 4.6% | 168.7hPa | 2.4V | 00:00:00 | 02:38:55 | 00:00:00 | |
| PG1ADW-2 | 2026-09-02 01:08:05 | 48.34342 | 12.79302 | 73° | 100km/h | 13192m | -4.1m/s | -53.0°C | 4.6% | 168.6hPa | 2.4V | 00:00:00 | 00:00:00 | 00:00:00 | |
| OE5DRO-10 | 2026-09-02 01:08:04 | 48.34335 | 12.79267 | 74° | 100km/h | 13195m | -4.4m/s | -52.9°C | 4.6% | 168.5hPa | 2.4V | 00:00:00 | 00:00:00 | 00:00:00 | |
| DF3TZ-5 | 2026-09-02 01:08:01 | 48.34315 | 12.79157 | 77° | 102km/h | 13209m | -4.4m/s | -52.9°C | 1.9% | 168.2hPa | 2.4V | 00:00:00 | 00:00:00 | 00:00:00 | |
| DL6DJ-15 | 2026-09-02 01:07:47 | 48.34294 | 12.78615 | 95° | 88km/h | 13289m | -5.0m/s | -52.5°C | 1.8% | 166.3hPa | 2.4V | 00:00:00 | 00:00:00 | 00:00:00 | |
| BAUMI2-15 | 2026-09-02 01:07:46 | 48.34295 | 12.78583 | 94° | 78km/h | 13294m | -4.7m/s | -52.5°C | 4.3% | 166.1hPa | 2.4V | 07:58:00 | 02:38:35 | 00:00:00 | |
| OE5HKT-10 | 2026-09-02 01:07:45 | 48.34296 | 12.78552 | 90° | 88km/h | 13299m | -4.4m/s | -52.5°C | 4.3% | 166.0hPa | 2.4V | 00:00:00 | 00:00:00 | 00:00:00 | |
| PETON7-10 | 2026-09-02 01:07:43 | 48.34294 | 12.78494 | 83° | 102km/h | 13308m | -4.6m/s | -52.4°C | 4.4% | 165.7hPa | 2.4V | 00:00:00 | 00:00:00 | 00:00:00 | |
| BAUMI2-15 | 2026-09-02 01:07:41 | 48.34286 | 12.78433 | 78° | 99km/h | 13317m | -4.2m/s | -52.4°C | 4.4% | 165.5hPa | 2.4V | 00:00:00 | 02:38:30 | 00:00:00 | |
| OE5MMP-10 | 2026-09-02 01:07:39 | 48.34275 | 12.78365 | 76° | 110km/h | 13326m | -4.5m/s | -52.3°C | 4.3% | 165.2hPa | 2.4V | 00:00:00 | 02:38:28 | 00:00:00 | |
| DG1MFX-10 | 2026-09-02 01:07:37 | 48.34269 | 12.78327 | 77° | 100km/h | 13330m | -4.6m/s | -52.3°C | 1.8% | 165.1hPa | 2.4V | 07:58:00 | 00:00:00 | 00:00:00 | |
| BAUMI2-15 | 2026-09-02 01:07:36 | 48.34257 | 12.78248 | 80° | 113km/h | 13340m | -5.0m/s | -52.2°C | 4.2% | 164.8hPa | 2.4V | 00:00:00 | 02:38:25 | 00:00:00 | |
| DK5PH-5 | 2026-09-02 01:07:31 | 48.34245 | 12.78035 | 93° | 95km/h | 13368m | -5.0m/s | -52.0°C | 4.1% | 164.1hPa | 2.4V | 00:00:00 | 02:38:20 | 00:00:00 | |
| OE5REO-15 | 2026-09-02 01:07:30 | 48.34245 | 12.78035 | 93° | 110km/h | 13368m | -5.0m/s | -52.1°C | 1.7% | 164.2hPa | 2.4V | 00:00:00 | 00:00:00 | 00:00:00 | |
| OE5MMP-10 | 2026-09-02 01:07:29 | 48.34249 | 12.77957 | 98° | 84km/h | 13379m | -4.9m/s | -52.0°C | 4.1% | 163.9hPa | 2.4V | 00:00:00 | 02:38:18 | 00:00:00 | |
| OE5DXL-15 | 2026-09-02 01:07:28 | 48.34252 | 12.77921 | 97° | 91km/h | 13384m | -4.1m/s | -51.9°C | 4.0% | 163.7hPa | 2.4V | 07:58:00 | 00:00:00 | 00:00:00 | |
| OE5WHR-10 | 2026-09-02 01:07:27 | 48.34255 | 12.77887 | 97° | 95km/h | 13389m | -5.1m/s | -51.9°C | 4.1% | 163.7hPa | 2.4V | 00:00:00 | 02:38:16 | 00:00:00 | |
| BAUMI2-15 | 2026-09-02 01:07:26 | 48.34257 | 12.77855 | 98° | 78km/h | 13394m | -4.9m/s | -52.0°C | 4.1% | 163.5hPa | 2.4V | 00:00:00 | 02:38:15 | 00:00:00 | |
| PG1ADW-2 | 2026-09-02 01:07:25 | 48.34260 | 12.77825 | 96° | 95km/h | 13400m | -5.1m/s | -52.0°C | 4.1% | 163.3hPa | 2.4V | 00:00:00 | 00:00:00 | 00:00:00 | |
| OE5HKT-10 | 2026-09-02 01:07:24 | 48.34261 | 12.77795 | 93° | 95km/h | 13406m | -4.7m/s | -52.1°C | 4.1% | 163.2hPa | 2.4V | 00:00:00 | 02:38:13 | 00:00:00 | |
| BAUMI2-15 | 2026-09-02 01:07:21 | 48.34258 | 12.77708 | 82° | 91km/h | 13421m | -5.4m/s | -52.2°C | 4.1% | 162.7hPa | 2.4V | 00:00:00 | 02:38:10 | 00:00:00 | |
| OE5MMP-10 | 2026-09-02 01:07:19 | 48.34249 | 12.77645 | 78° | 104km/h | 13432m | -5.0m/s | -52.3°C | 4.2% | 162.5hPa | 2.4V | 00:00:00 | 02:38:08 | 00:00:00 | |
| BAUMI2-15 | 2026-09-02 01:07:16 | 48.34236 | 12.77533 | 83° | 108km/h | 13443m | -5.1m/s | -52.4°C | 4.2% | 162.2hPa | 2.4V | 00:00:00 | 02:38:05 | 00:00:00 | |
| PETON7-10 | 2026-09-02 01:07:13 | 48.34230 | 12.77408 | 89° | 93km/h | 13458m | -5.1m/s | -52.3°C | 4.2% | 161.8hPa | 2.4V | 00:00:00 | 00:00:00 | 00:00:00 | |
| BAUMI2-15 | 2026-09-02 01:07:11 | 48.34230 | 12.77326 | 93° | 102km/h | 13469m | -5.1m/s | -52.3°C | 4.2% | 161.5hPa | 2.5V | 00:00:00 | 02:38:00 | 00:00:00 | |
| OE5MMP-10 | 2026-09-02 01:07:09 | 48.34234 | 12.77245 | 95° | 89km/h | 13480m | -5.6m/s | -52.3°C | 4.2% | 161.3hPa | 2.5V | 00:00:00 | 02:37:58 | 00:00:00 | |
| OE5DRO-10 | 2026-09-02 01:07:07 | 48.34240 | 12.77170 | 99° | 80km/h | 13492m | -5.4m/s | -52.3°C | 4.2% | 161.0hPa | 2.4V | 07:59:00 | 00:00:00 | 00:00:00 | |
| OE5WHR-10 | 2026-09-02 01:07:06 | 48.34243 | 12.77134 | 100° | 82km/h | 13497m | -5.2m/s | -52.3°C | 4.2% | 160.8hPa | 2.4V | 00:00:00 | 00:00:00 | 00:00:00 | |
| PG1ADW-2 | 2026-09-02 01:07:05 | 48.34247 | 12.77100 | 101° | 80km/h | 13503m | -5.4m/s | -52.3°C | 4.2% | 160.7hPa | 2.5V | 00:00:00 | 02:37:54 | 00:00:00 | |
| OE5HKT-10 | 2026-09-02 01:07:03 | 48.34256 | 12.77035 | 102° | 78km/h | 13515m | -5.2m/s | -52.4°C | 4.2% | 160.4hPa | 2.5V | 00:00:00 | 00:00:00 | 00:00:00 | |
| DK5PH-5 | 2026-09-02 01:07:01 | 48.34264 | 12.76973 | 102° | 78km/h | 13526m | -5.3m/s | -52.5°C | 4.2% | 160.2hPa | 2.4V | 00:00:00 | 02:37:50 | 00:00:00 | |
| OE5MMP-10 | 2026-09-02 01:06:59 | 48.34271 | 12.76917 | 100° | 75km/h | 13536m | -5.3m/s | -52.6°C | 4.2% | 159.9hPa | 2.4V | 07:59:00 | 02:37:48 | 00:00:00 | |
| OE5FHM-15 | 2026-09-02 01:06:58 | 48.34274 | 12.76888 | 99° | 75km/h | 13542m | -4.8m/s | -52.6°C | 4.2% | 159.8hPa | 2.4V | 00:00:00 | 02:37:47 | 00:00:00 | |
| OE3JTB-15 | 2026-09-02 01:06:57 | 48.34277 | 12.76834 | 95° | 71km/h | 13551m | -5.1m/s | -52.6°C | 4.2% | 159.5hPa | 2.4V | 00:00:00 | 02:37:45 | 00:00:00 | |
| BAUMI2-15 | 2026-09-02 01:06:56 | 48.34277 | 12.76834 | 95° | 69km/h | 13551m | -5.1m/s | -52.6°C | 4.2% | 159.5hPa | 2.4V | 00:00:00 | 02:37:45 | 00:00:00 | |
| OE5REO-15 | 2026-09-02 01:06:54 | 48.34278 | 12.76808 | 91° | 66km/h | 13556m | -5.1m/s | -52.6°C | 1.7% | 159.4hPa | 2.4V | 00:00:00 | 00:00:00 | 00:00:00 | |
| BAUMI2-15 | 2026-09-02 01:06:51 | 48.34269 | 12.76700 | 82° | 91km/h | 13575m | -4.9m/s | -52.5°C | 4.2% | 158.9hPa | 2.4V | 00:00:00 | 02:37:40 | 00:00:00 | |
| OE5MMP-10 | 2026-09-02 01:06:49 | 48.34262 | 12.76634 | 84° | 89km/h | 13585m | -4.5m/s | -52.4°C | 4.1% | 158.7hPa | 2.4V | 00:00:00 | 02:37:38 | 00:00:00 | |
| OE5DRO-10 | 2026-09-02 01:06:48 | 48.34260 | 12.76599 | 85° | 77km/h | 13590m | -4.7m/s | -52.4°C | 4.2% | 158.5hPa | 2.4V | 00:00:00 | 00:00:00 | 00:00:00 | |
| BAUMI2-15 | 2026-09-02 01:06:46 | 48.34259 | 12.76524 | 94° | 91km/h | 13599m | -5.1m/s | -52.4°C | 4.1% | 158.3hPa | 2.4V | 00:00:00 | 02:37:35 | 00:00:00 | |
| PG1ADW-2 | 2026-09-02 01:06:45 | 48.34260 | 12.76488 | 95° | 69km/h | 13604m | -5.4m/s | -52.4°C | 4.2% | 158.1hPa | 2.5V | 00:00:00 | 00:00:00 | 00:00:00 | |
| PETON7-10 | 2026-09-02 01:06:43 | 48.34266 | 12.76419 | 101° | 69km/h | 13615m | -4.4m/s | -52.4°C | 4.2% | 157.9hPa | 2.5V | 00:00:00 | 02:37:32 | 00:00:00 | |
| OE5HKT-10 | 2026-09-02 01:06:42 | 48.34270 | 12.76388 | 101° | 66km/h | 13620m | -5.2m/s | -52.4°C | 4.2% | 157.8hPa | 2.5V | 00:00:00 | 00:00:00 | 00:00:00 | |
| BAUMI2-15 | 2026-09-02 01:06:41 | 48.34274 | 12.76357 | 103° | 75km/h | 13626m | -4.8m/s | -52.4°C | 4.2% | 157.6hPa | 2.5V | 00:00:00 | 02:37:30 | 00:00:00 | |
| OE5MMP-10 | 2026-09-02 01:06:39 | 48.34282 | 12.76301 | 104° | 66km/h | 13636m | -4.8m/s | -52.4°C | 4.2% | 157.4hPa | 2.5V | 00:00:00 | 02:37:28 | 00:00:00 | |
| OE5REO-15 | 2026-09-02 01:06:38 | 48.34282 | 12.76301 | 105° | 73km/h | 13636m | -4.9m/s | -52.5°C | 1.7% | 157.4hPa | 2.4V | 00:00:00 | 00:00:00 | 00:00:00 | |
| DO7DH-14 | 2026-09-02 01:06:37 | 48.34290 | 12.76249 | 102° | 68km/h | 13647m | -5.0m/s | -52.5°C | 4.2% | 157.2hPa | 2.4V | 00:00:00 | 02:37:26 | 00:00:00 | |
| BAUMI2-15 | 2026-09-02 01:06:36 | 48.34294 | 12.76223 | 101° | 64km/h | 13653m | -5.6m/s | -52.5°C | 4.2% | 157.0hPa | 2.4V | 00:00:00 | 02:37:25 | 00:00:00 | |
| DK5PH-5 | 2026-09-02 01:06:31 | 48.34308 | 12.76106 | 100° | 71km/h | 13682m | -4.6m/s | -52.7°C | 4.2% | 156.3hPa | 2.4V | 00:00:00 | 02:37:20 | 00:00:00 | |
| OE5MMP-10 | 2026-09-02 01:06:29 | 48.34311 | 12.76062 | 94° | 66km/h | 13692m | -4.6m/s | -52.8°C | 4.2% | 156.0hPa | 2.5V | 00:00:00 | 02:37:18 | 00:00:00 | |
| OE5DXL-15 | 2026-09-02 01:06:28 | 48.34312 | 12.76041 | 90° | 73km/h | 13697m | -5.1m/s | -52.8°C | 4.2% | 155.9hPa | 2.5V | 00:00:00 | 00:00:00 | 00:00:00 | |
| DG1MFX-10 | 2026-09-02 01:06:27 | 48.34312 | 12.76041 | 90° | 53km/h | 13697m | -5.2m/s | -52.9°C | 1.7% | 156.0hPa | 2.5V | 00:00:00 | 00:00:00 | 00:00:00 | |
| BAUMI2-15 | 2026-09-02 01:06:26 | 48.34309 | 12.76000 | 80° | 66km/h | 13707m | -5.4m/s | -52.9°C | 4.3% | 155.7hPa | 2.5V | 07:59:00 | 02:37:15 | 00:00:00 | |
| PG1ADW-2 | 2026-09-02 01:06:25 | 48.34306 | 12.75978 | 77° | 77km/h | 13713m | -4.8m/s | -52.9°C | 4.3% | 155.5hPa | 2.5V | 07:59:00 | 00:00:00 | 00:00:00 | |
| OE5WHR-10 | 2026-09-02 01:06:24 | 48.34303 | 12.75956 | 75° | 75km/h | 13718m | -5.1m/s | -52.9°C | 4.3% | 155.4hPa | 2.5V | 00:00:00 | 02:37:13 | 00:00:00 | |
| OE5REO-15 | 2026-09-02 01:06:22 | 48.34297 | 12.75930 | 75° | 71km/h | 13723m | -4.4m/s | -52.9°C | 1.7% | 155.3hPa | 2.5V | 08:00:00 | 00:00:00 | 00:00:00 | |
| BAUMI2-15 | 2026-09-02 01:06:21 | 48.34287 | 12.75875 | 76° | 84km/h | 13732m | -4.4m/s | -52.8°C | 4.3% | 155.1hPa | 2.5V | 00:00:00 | 02:37:10 | 00:00:00 | |
| OE5MMP-10 | 2026-09-02 01:06:19 | 48.34278 | 12.75813 | 80° | 84km/h | 13742m | -4.8m/s | -52.7°C | 4.2% | 154.8hPa | 2.5V | 00:00:00 | 02:37:08 | 00:00:00 | |
| DL6DJ-15 | 2026-09-02 01:06:14 | 48.34268 | 12.75647 | 91° | 86km/h | 13771m | -6.3m/s | -52.8°C | 1.6% | 154.2hPa | 2.5V | 00:00:00 | 00:00:00 | 00:00:00 | |
| PETON7-10 | 2026-09-02 01:06:13 | 48.34269 | 12.75614 | 94° | 71km/h | 13777m | -5.6m/s | -52.7°C | 4.2% | 154.0hPa | 2.5V | 00:00:00 | 00:00:00 | 00:00:00 | |
| OE5DRO-10 | 2026-09-02 01:06:10 | 48.34277 | 12.75525 | 97° | 78km/h | 13794m | -5.3m/s | -52.7°C | 4.2% | 153.6hPa | 2.5V | 00:00:00 | 00:00:00 | 00:00:00 | |
| OE5MMP-10 | 2026-09-02 01:06:09 | 48.34279 | 12.75499 | 98° | 66km/h | 13799m | -4.7m/s | -52.8°C | 4.3% | 153.5hPa | 2.5V | 00:00:00 | 02:36:58 | 00:00:00 | |
| DO7DH-14 | 2026-09-02 01:06:07 | 48.34280 | 12.75452 | 87° | 69km/h | 13809m | -4.4m/s | -52.8°C | 4.3% | 153.2hPa | 2.4V | 00:00:00 | 02:36:56 | 00:00:00 | |
| PG1ADW-2 | 2026-09-02 01:06:06 | 48.34276 | 12.75406 | 76° | 88km/h | 13819m | -5.1m/s | -52.9°C | 4.3% | 153.0hPa | 2.5V | 00:00:00 | 00:00:00 | 00:00:00 | |
| DG1MFX-10 | 2026-09-02 01:06:04 | 48.34271 | 12.75382 | 73° | 64km/h | 13825m | -5.6m/s | -52.9°C | 1.7% | 152.9hPa | 2.5V | 00:00:00 | 00:00:00 | 00:00:00 | |
| OE5WHR-10 | 2026-09-02 01:06:03 | 48.34267 | 12.75358 | 72° | 89km/h | 13830m | -5.6m/s | -52.9°C | 4.3% | 152.7hPa | 2.5V | 00:00:00 | 00:00:00 | 00:00:00 | |
| DF3TZ-5 | 2026-09-02 01:05:57 | 48.34228 | 12.75187 | 75° | 93km/h | 13863m | -4.1m/s | -52.8°C | 1.7% | 152.1hPa | 2.5V | 00:00:00 | 00:00:00 | 00:00:00 | |
| OE3JTB-15 | 2026-09-02 01:05:54 | 48.34214 | 12.75078 | 84° | 89km/h | 13878m | -4.9m/s | -52.8°C | 4.2% | 151.6hPa | 2.5V | 00:00:00 | 00:00:00 | 00:00:00 | |
| OE5DRO-10 | 2026-09-02 01:05:51 | 48.34208 | 12.74966 | 88° | 86km/h | 13896m | -5.4m/s | -52.9°C | 4.2% | 151.2hPa | 2.5V | 00:00:00 | 00:00:00 | 00:00:00 | |
| OE5MMP-10 | 2026-09-02 01:05:49 | 48.34207 | 12.74890 | 93° | 84km/h | 13909m | -5.4m/s | -52.9°C | 4.2% | 150.9hPa | 2.5V | 00:00:00 | 02:36:38 | 00:00:00 | |
| PG1ADW-2 | 2026-09-02 01:05:45 | 48.34216 | 12.74749 | 99° | 88km/h | 13933m | -4.4m/s | -53.0°C | 4.3% | 150.4hPa | 2.5V | 08:00:00 | 02:36:34 | 00:00:00 | |
| PETON7-10 | 2026-09-02 01:05:43 | 48.34221 | 12.74688 | 99° | 84km/h | 13944m | -4.7m/s | -53.0°C | 4.3% | 150.2hPa | 2.4V | 08:00:00 | 00:00:00 | 00:00:00 | |
| OE5WHR-10 | 2026-09-02 01:05:42 | 48.34223 | 12.74661 | 97° | 84km/h | 13950m | -5.1m/s | -53.0°C | 4.3% | 150.0hPa | 2.5V | 00:00:00 | 00:00:00 | 00:00:00 | |
| OE5MMP-10 | 2026-09-02 01:05:39 | 48.34223 | 12.74584 | 84° | 89km/h | 13965m | -4.4m/s | -53.1°C | 4.2% | 149.7hPa | 2.5V | 08:00:00 | 02:36:28 | 00:00:00 | |
| OE5HKT-10 | 2026-09-02 01:05:38 | 48.34216 | 12.74530 | 78° | 75km/h | 13974m | -4.2m/s | -53.1°C | 4.3% | 149.4hPa | 2.5V | 00:00:00 | 00:00:00 | 00:00:00 | |
| DO7DH-14 | 2026-09-02 01:05:37 | 48.34216 | 12.74530 | 78° | 80km/h | 13974m | -4.2m/s | -53.1°C | 4.3% | 149.4hPa | 2.5V | 00:00:00 | 02:36:26 | 00:00:00 | |
| OE5REO-15 | 2026-09-02 01:05:34 | 48.34205 | 12.74468 | 75° | 89km/h | 13982m | -5.2m/s | -53.1°C | 1.7% | 149.2hPa | 2.5V | 08:00:00 | 00:00:00 | 00:00:00 | |
| OE5DRO-10 | 2026-09-02 01:05:32 | 48.34189 | 12.74362 | 83° | 80km/h | 13998m | -5.6m/s | -52.8°C | 4.2% | 148.8hPa | 2.5V | 00:00:00 | 00:00:00 | 00:00:00 | |
| DK5PH-5 | 2026-09-02 01:05:31 | 48.34187 | 12.74324 | 87° | 78km/h | 14003m | -4.2m/s | -52.7°C | 4.3% | 148.6hPa | 2.5V | 00:00:00 | 02:36:20 | 00:00:00 | |
| OE5MMP-10 | 2026-09-02 01:05:29 | 48.34186 | 12.74247 | 93° | 82km/h | 14012m | -5.3m/s | -52.6°C | 4.2% | 148.4hPa | 2.5V | 00:00:00 | 02:36:18 | 00:00:00 | |
| OE5FHM-15 | 2026-09-02 01:05:28 | 48.34188 | 12.74211 | 97° | 75km/h | 14018m | -5.5m/s | -52.7°C | 4.2% | 148.3hPa | 2.5V | 00:00:00 | 02:36:17 | 00:00:00 | |
| DF3TZ-5 | 2026-09-02 01:05:26 | 48.34195 | 12.74142 | 100° | 86km/h | 14029m | -5.9m/s | -52.8°C | -1.0% | -1.0hPa | 2.5V | 00:00:00 | 00:00:00 | 00:00:00 | |
| PG1ADW-2 | 2026-09-02 01:05:25 | 48.34199 | 12.74110 | 102° | 75km/h | 14035m | -5.4m/s | -52.8°C | 4.2% | 147.9hPa | 2.5V | 00:00:00 | 00:00:00 | 00:00:00 | |
| DO3MHA-11 | 2026-09-02 01:05:22 | 48.34212 | 12.74022 | 104° | 78km/h | 14052m | -5.2m/s | -52.9°C | 4.2% | 147.6hPa | 2.5V | 00:00:00 | 02:36:11 | 00:00:00 | |
| OE5WHR-10 | 2026-09-02 01:05:21 | 48.34217 | 12.73995 | 104° | 73km/h | 14057m | -5.2m/s | -52.9°C | 4.2% | 147.4hPa | 2.4V | 00:00:00 | 02:36:10 | 00:00:00 | |
| OE5MMP-10 | 2026-09-02 01:05:19 | 48.34224 | 12.73946 | 98° | 66km/h | 14067m | -5.2m/s | -53.0°C | 4.2% | 147.1hPa | 2.4V | 00:00:00 | 02:36:08 | 00:00:00 | |
| OE5HKT-10 | 2026-09-02 01:05:16 | 48.34224 | 12.73880 | 85° | 57km/h | 14084m | -5.4m/s | -53.0°C | 4.2% | 146.8hPa | 2.4V | 00:00:00 | 02:36:05 | 00:00:00 | |
| PETON7-10 | 2026-09-02 01:05:13 | 48.34215 | 12.73812 | 77° | 77km/h | 14100m | -5.3m/s | -53.0°C | 4.2% | 146.4hPa | 2.4V | 00:00:00 | 02:36:02 | 00:00:00 | |
| DL6DJ-15 | 2026-09-02 01:05:12 | 48.34211 | 12.73786 | 76° | 73km/h | 14105m | -5.5m/s | -53.0°C | 1.6% | 146.3hPa | 2.4V | 00:00:00 | 00:00:00 | 00:00:00 | |
| OE5MMP-10 | 2026-09-02 01:05:09 | 48.34200 | 12.73694 | 86° | 78km/h | 14121m | -5.0m/s | -53.1°C | 4.3% | 145.9hPa | 2.4V | 00:00:00 | 02:35:58 | 00:00:00 | |
| DO3MHA-11 | 2026-09-02 01:05:07 | 48.34200 | 12.73627 | 94° | 75km/h | 14131m | -5.0m/s | -53.1°C | 4.3% | 145.7hPa | 2.5V | 00:00:00 | 02:35:56 | 00:00:00 | |
| PG1ADW-2 | 2026-09-02 01:05:04 | 48.34209 | 12.73532 | 103° | 58km/h | 14147m | -5.3m/s | -52.9°C | 4.3% | 145.3hPa | 2.5V | 00:00:00 | 00:00:00 | 00:00:00 | |
| DF3TZ-5 | 2026-09-02 01:04:55 | 48.34242 | 12.73331 | 94° | 46km/h | 14196m | -5.5m/s | -53.0°C | -1.0% | -1.0hPa | 2.5V | 00:00:00 | 00:00:00 | 00:00:00 | |
| OE5DRO-10 | 2026-09-02 01:04:54 | 48.34242 | 12.73314 | 90° | 71km/h | 14202m | -4.9m/s | -52.9°C | 4.1% | 144.0hPa | 2.5V | 00:00:00 | 00:00:00 | 00:00:00 | |
| OE5REO-15 | 2026-09-02 01:04:49 | 48.34230 | 12.73225 | 72° | 53km/h | 14229m | -5.5m/s | -53.1°C | 1.6% | 143.5hPa | 2.5V | 08:01:00 | 00:00:00 | 00:00:00 | |
| DO3MHA-11 | 2026-09-02 01:04:47 | 48.34220 | 12.73184 | 70° | 75km/h | 14240m | -5.5m/s | -53.1°C | 4.1% | 143.2hPa | 2.5V | 00:00:00 | 02:35:36 | 00:00:00 | |
| PG1ADW-2 | 2026-09-02 01:04:44 | 48.34204 | 12.73109 | 75° | 62km/h | 14256m | -5.5m/s | -53.2°C | 4.2% | 142.8hPa | 2.4V | 00:00:00 | 00:00:00 | 00:00:00 | |
| PETON7-10 | 2026-09-02 01:04:43 | 48.34199 | 12.73081 | 77° | 64km/h | 14262m | -5.3m/s | -53.2°C | 4.2% | 142.7hPa | 2.4V | 00:00:00 | 00:00:00 | 00:00:00 | |
| DL6DJ-15 | 2026-09-02 01:04:41 | 48.34191 | 12.72990 | 87° | 80km/h | 14278m | -5.7m/s | -53.3°C | 1.6% | 142.4hPa | 2.4V | 00:00:00 | 00:00:00 | 00:00:00 | |
| OE5WHR-10 | 2026-09-02 01:04:39 | 48.34190 | 12.72960 | 92° | 64km/h | 14284m | -5.6m/s | -53.3°C | 4.3% | 142.2hPa | 2.4V | 00:00:00 | 00:00:00 | 00:00:00 | |
| DO7DH-14 | 2026-09-02 01:04:37 | 48.34194 | 12.72901 | 99° | 64km/h | 14295m | -5.3m/s | -53.4°C | 4.3% | 142.0hPa | 2.4V | 08:01:00 | 02:35:26 | 00:00:00 | |
| DO3MHA-11 | 2026-09-02 01:04:36 | 48.34197 | 12.72875 | 102° | 51km/h | 14300m | -5.3m/s | -53.4°C | 4.2% | 141.9hPa | 2.4V | 00:00:00 | 02:35:25 | 00:00:00 | |
| OE5DRO-10 | 2026-09-02 01:04:34 | 48.34204 | 12.72828 | 104° | 60km/h | 14311m | -5.4m/s | -53.5°C | 4.3% | 141.7hPa | 2.4V | 00:00:00 | 00:00:00 | 00:00:00 | |
| OE5REO-15 | 2026-09-02 01:04:33 | 48.34207 | 12.72808 | 103° | 51km/h | 14317m | -5.5m/s | -53.5°C | 1.6% | 141.6hPa | 2.4V | 08:02:00 | 00:00:00 | 00:00:00 | |
| DK5PH-5 | 2026-09-02 01:04:31 | 48.34210 | 12.72773 | 94° | 64km/h | 14328m | -5.6m/s | -53.5°C | 4.2% | 141.2hPa | 2.4V | 00:00:00 | 02:35:20 | 00:00:00 | |
| OE5MMP-10 | 2026-09-02 01:04:29 | 48.34209 | 12.72741 | 78° | 64km/h | 14339m | -5.6m/s | -53.6°C | 4.3% | 141.0hPa | 2.4V | 00:00:00 | 02:35:18 | 00:00:00 | |
| OE5DXL-15 | 2026-09-02 01:04:28 | 48.34206 | 12.72725 | 72° | 66km/h | 14345m | -5.6m/s | -53.6°C | 4.3% | 140.9hPa | 2.4V | 00:00:00 | 00:00:00 | 00:00:00 | |
| OE3JTB-15 | 2026-09-02 01:04:27 | 48.34202 | 12.72708 | 68° | 68km/h | 14351m | -5.2m/s | -53.6°C | 4.3% | 140.8hPa | 2.4V | 00:00:00 | 00:00:00 | 00:00:00 | |
| DO3MHA-11 | 2026-09-02 01:04:25 | 48.34190 | 12.72668 | 67° | 78km/h | 14361m | -5.2m/s | -53.7°C | 4.3% | 140.5hPa | 2.4V | 00:00:00 | 02:35:14 | 00:00:00 | |
| PG1ADW-2 | 2026-09-02 01:04:24 | 48.34184 | 12.72645 | 69° | 68km/h | 14367m | -5.3m/s | -53.7°C | 4.2% | 140.4hPa | 2.4V | 00:00:00 | 02:35:13 | 00:00:00 | |
| OE5HKT-10 | 2026-09-02 01:04:23 | 48.34177 | 12.72619 | 71° | 64km/h | 14372m | -5.0m/s | -53.6°C | 4.2% | 140.3hPa | 2.4V | 00:00:00 | 00:00:00 | 00:00:00 | |
| OE5MMP-10 | 2026-09-02 01:04:19 | 48.34158 | 12.72501 | 82° | 71km/h | 14394m | -5.4m/s | -53.5°C | 4.1% | 139.8hPa | 2.4V | 00:00:00 | 02:35:08 | 00:00:00 | |
| OE5WHR-10 | 2026-09-02 01:04:18 | 48.34156 | 12.72469 | 85° | 66km/h | 14399m | -5.9m/s | -53.5°C | 4.1% | 139.7hPa | 2.4V | 00:00:00 | 02:35:07 | 00:00:00 | |
| OE5REO-15 | 2026-09-02 01:04:16 | 48.34154 | 12.72437 | 89° | 84km/h | 14405m | -5.5m/s | -53.5°C | 1.5% | 139.6hPa | 2.4V | 08:02:00 | 00:00:00 | 00:00:00 | |
| DO3MHA-11 | 2026-09-02 01:04:15 | 48.34155 | 12.72375 | 94° | 66km/h | 14416m | -5.1m/s | -53.5°C | 4.1% | 139.4hPa | 2.4V | 08:01:00 | 02:35:04 | 00:00:00 | |
| PETON7-10 | 2026-09-02 01:04:13 | 48.34158 | 12.72321 | 98° | 60km/h | 14427m | -4.7m/s | -53.5°C | 4.1% | 139.1hPa | 2.4V | 00:00:00 | 00:00:00 | 00:00:00 | |
| BAUMI2-15 | 2026-09-02 01:04:10 | 48.34162 | 12.72259 | 90° | 49km/h | 14441m | -5.7m/s | -53.6°C | 4.1% | 138.8hPa | 2.4V | 00:00:00 | 02:34:59 | 00:00:00 | |
| OE5MMP-10 | 2026-09-02 01:04:09 | 48.34162 | 12.72241 | 85° | 60km/h | 14447m | -5.4m/s | -53.6°C | 4.1% | 138.7hPa | 2.4V | 08:02:00 | 02:34:58 | 00:00:00 | |
| DO7DH-14 | 2026-09-02 01:04:07 | 48.34157 | 12.72205 | 74° | 75km/h | 14458m | -5.2m/s | -53.7°C | 4.2% | 138.5hPa | 2.4V | 00:00:00 | 02:34:56 | 00:00:00 | |
| BAUMI2-15 | 2026-09-02 01:04:05 | 48.34148 | 12.72168 | 67° | 66km/h | 14469m | -5.3m/s | -53.8°C | 4.2% | 138.2hPa | 2.4V | 00:00:00 | 02:34:54 | 00:00:00 | |
| PG1ADW-2 | 2026-09-02 01:04:04 | 48.34142 | 12.72147 | 66° | 69km/h | 14474m | -5.3m/s | -53.8°C | 4.2% | 138.1hPa | 2.4V | 00:00:00 | 00:00:00 | 00:00:00 | |
| DO3MHA-11 | 2026-09-02 01:04:01 | 48.34120 | 12.72077 | 66° | 84km/h | 14490m | -5.1m/s | -53.9°C | 4.2% | 137.7hPa | 2.4V | 00:00:00 | 02:34:50 | 00:00:00 | |
| DK5PH-5 | 2026-09-02 01:04:00 | 48.34113 | 12.72051 | 67° | 80km/h | 14495m | -5.1m/s | -53.9°C | 4.2% | 137.6hPa | 2.4V | 00:00:00 | 02:34:49 | 00:00:00 | |
| OE5MMP-10 | 2026-09-02 01:03:59 | 48.34105 | 12.72023 | 68° | 88km/h | 14500m | -5.1m/s | -53.9°C | 4.2% | 137.5hPa | 2.4V | 00:00:00 | 02:34:48 | 00:00:00 | |
| OE5FHM-15 | 2026-09-02 01:03:58 | 48.34097 | 12.71994 | 69° | 82km/h | 14505m | -5.4m/s | -54.0°C | 4.2% | 137.4hPa | 2.4V | 00:00:00 | 02:34:47 | 00:00:00 | |
| OE5WHR-10 | 2026-09-02 01:03:57 | 48.34090 | 12.71964 | 70° | 78km/h | 14511m | -5.6m/s | -54.0°C | 4.2% | 137.3hPa | 2.4V | 08:02:00 | 00:00:00 | 00:00:00 | |
| BAUMI2-15 | 2026-09-02 01:03:55 | 48.34076 | 12.71901 | 74° | 91km/h | 14522m | -5.7m/s | -54.1°C | 4.2% | 137.0hPa | 2.4V | 00:00:00 | 02:34:44 | 00:00:00 | |
| BAUMI2-15 | 2026-09-02 01:03:50 | 48.34057 | 12.71730 | 89° | 78km/h | 14551m | -5.2m/s | -54.0°C | 4.2% | 136.5hPa | 2.4V | 00:00:00 | 02:34:39 | 00:00:00 | |
| OE5MMP-10 | 2026-09-02 01:03:49 | 48.34057 | 12.71697 | 92° | 68km/h | 14556m | -5.5m/s | -54.0°C | 4.2% | 136.3hPa | 2.4V | 00:00:00 | 02:34:38 | 00:00:00 | |
| DO3MHA-11 | 2026-09-02 01:03:47 | 48.34059 | 12.71637 | 95° | 68km/h | 14567m | -5.6m/s | -54.0°C | 4.2% | 136.1hPa | 2.4V | 00:00:00 | 02:34:36 | 00:00:00 | |
| BAUMI2-15 | 2026-09-02 01:03:45 | 48.34062 | 12.71585 | 93° | 60km/h | 14578m | -5.5m/s | -54.1°C | 4.2% | 135.9hPa | 2.4V | 00:00:00 | 02:34:34 | 00:00:00 | |
| PETON7-10 | 2026-09-02 01:03:43 | 48.34061 | 12.71539 | 83° | 80km/h | 14588m | -5.3m/s | -54.2°C | 4.3% | 135.7hPa | 2.4V | 00:00:00 | 02:34:32 | 00:00:00 | |
| OE5DRO-10 | 2026-09-02 01:03:41 | 48.34054 | 12.71495 | 72° | 88km/h | 14599m | -5.6m/s | -54.2°C | 4.3% | 135.4hPa | 2.4V | 00:00:00 | 00:00:00 | 00:00:00 | |
| BAUMI2-15 | 2026-09-02 01:03:40 | 48.34048 | 12.71472 | 70° | 77km/h | 14604m | -5.0m/s | -54.3°C | 4.3% | 135.3hPa | 2.4V | 00:00:00 | 02:34:29 | 00:00:00 | |
| OE5MMP-10 | 2026-09-02 01:03:39 | 48.34042 | 12.71447 | 68° | 88km/h | 14609m | -5.2m/s | -54.3°C | 4.3% | 135.2hPa | 2.4V | 00:00:00 | 02:34:28 | 00:00:00 | |
| DO7DH-14 | 2026-09-02 01:03:37 | 48.34027 | 12.71393 | 69° | 73km/h | 14620m | -5.1m/s | -54.3°C | 4.3% | 135.0hPa | 2.5V | 00:00:00 | 02:34:26 | 00:00:00 | |
| OE5WHR-10 | 2026-09-02 01:03:36 | 48.34019 | 12.71363 | 71° | 82km/h | 14625m | -5.1m/s | -54.3°C | 4.4% | 134.9hPa | 2.5V | 00:00:00 | 00:00:00 | 00:00:00 | |
| BAUMI2-15 | 2026-09-02 01:03:35 | 48.34012 | 12.71332 | 73° | 93km/h | 14630m | -5.4m/s | -54.3°C | 4.4% | 134.8hPa | 2.5V | 00:00:00 | 02:34:24 | 00:00:00 | |
| DK5PH-5 | 2026-09-02 01:03:30 | 48.33990 | 12.71158 | 87° | 84km/h | 14657m | -5.3m/s | -54.1°C | 4.4% | 134.2hPa | 2.5V | 00:00:00 | 02:34:19 | 00:00:00 | |
| OE5MMP-10 | 2026-09-02 01:03:29 | 48.33990 | 12.71123 | 90° | 84km/h | 14662m | -4.9m/s | -54.1°C | 4.4% | 134.1hPa | 2.4V | 00:00:00 | 02:34:18 | 00:00:00 | |
| DO3MHA-11 | 2026-09-02 01:03:26 | 48.33992 | 12.71019 | 95° | 77km/h | 14678m | -5.5m/s | -53.8°C | 4.3% | 133.8hPa | 2.4V | 00:00:00 | 02:34:15 | 00:00:00 | |
| BAUMI2-15 | 2026-09-02 01:03:25 | 48.33995 | 12.70986 | 97° | 80km/h | 14684m | -5.2m/s | -53.8°C | 4.2% | 133.6hPa | 2.4V | 00:00:00 | 02:34:14 | 00:00:00 | |
| DF3TZ-5 | 2026-09-02 01:03:22 | 48.34012 | 12.70841 | 102° | 68km/h | 14711m | -5.6m/s | -53.7°C | -1.0% | -1.0hPa | 2.4V | 00:00:00 | 00:00:00 | 00:00:00 | |
| BAUMI2-15 | 2026-09-02 01:03:20 | 48.34012 | 12.70841 | 103° | 62km/h | 14711m | -5.6m/s | -53.6°C | 4.2% | 133.0hPa | 2.4V | 00:00:00 | 02:34:09 | 00:00:00 | |
| OE5MMP-10 | 2026-09-02 01:03:19 | 48.34016 | 12.70816 | 103° | 53km/h | 14716m | -5.5m/s | -53.6°C | 4.2% | 132.9hPa | 2.4V | 00:00:00 | 02:34:08 | 00:00:00 | |
| OE5REO-15 | 2026-09-02 01:03:15 | 48.34027 | 12.70729 | 99° | 51km/h | 14739m | -5.8m/s | -53.6°C | 1.4% | 132.5hPa | 2.4V | 08:03:00 | 00:00:00 | 00:00:00 | |
| PETON7-10 | 2026-09-02 01:03:13 | 48.34029 | 12.70692 | 91° | 68km/h | 14750m | -5.9m/s | -53.5°C | 4.1% | 132.2hPa | 2.4V | 00:00:00 | 00:00:00 | 00:00:00 | |
| BAUMI2-15 | 2026-09-02 01:03:10 | 48.34024 | 12.70637 | 76° | 62km/h | 14768m | -5.6m/s | -53.6°C | 4.1% | 131.9hPa | 2.4V | 00:00:00 | 02:33:59 | 00:00:00 | |
| OE5MMP-10 | 2026-09-02 01:03:09 | 48.34021 | 12.70618 | 74° | 75km/h | 14773m | -5.5m/s | -53.6°C | 4.1% | 131.8hPa | 2.4V | 00:00:00 | 02:33:58 | 00:00:00 | |
| DL6DJ-15 | 2026-09-02 01:03:08 | 48.34011 | 12.70574 | 72° | 66km/h | 14784m | -5.3m/s | -53.7°C | 1.4% | 131.6hPa | 2.4V | 00:00:00 | 00:00:00 | 00:00:00 | |
| DO7DH-14 | 2026-09-02 01:03:07 | 48.34011 | 12.70573 | 73° | 68km/h | 14784m | -5.3m/s | -53.6°C | 4.1% | 131.6hPa | 2.4V | 00:00:00 | 02:33:56 | 00:00:00 | |
| BAUMI2-15 | 2026-09-02 01:03:05 | 48.34001 | 12.70521 | 77° | 82km/h | 14795m | -5.0m/s | -53.5°C | 4.1% | 131.3hPa | 2.4V | 00:00:00 | 02:33:54 | 00:00:00 | |
| OE5DRO-10 | 2026-09-02 01:03:03 | 48.33994 | 12.70461 | 83° | 64km/h | 14806m | -5.4m/s | -53.4°C | 4.0% | 131.1hPa | 2.4V | 00:00:00 | 00:00:00 | 00:00:00 | |
| DK5PH-5 | 2026-09-02 01:03:00 | 48.33992 | 12.70364 | 94° | 68km/h | 14823m | -5.9m/s | -53.4°C | 4.1% | 130.8hPa | 2.5V | 00:00:00 | 02:33:49 | 00:00:00 | |
| OE5MMP-10 | 2026-09-02 01:02:59 | 48.33994 | 12.70333 | 97° | 62km/h | 14829m | -5.2m/s | -53.4°C | 4.1% | 130.6hPa | 2.5V | 00:00:00 | 02:33:48 | 00:00:00 | |
| OE5FHM-15 | 2026-09-02 01:02:58 | 48.33997 | 12.70303 | 101° | 64km/h | 14834m | -5.8m/s | -53.3°C | 4.0% | 130.5hPa | 2.5V | 00:00:00 | 02:33:47 | 00:00:00 | |
| BAUMI2-15 | 2026-09-02 01:02:55 | 48.34009 | 12.70223 | 106° | 53km/h | 14851m | -5.2m/s | -53.3°C | 4.2% | 130.2hPa | 2.5V | 00:00:00 | 02:33:44 | 00:00:00 | |
| OE5WHR-10 | 2026-09-02 01:02:54 | 48.34013 | 12.70201 | 104° | 62km/h | 14856m | -5.3m/s | -53.3°C | 4.2% | 130.1hPa | 2.5V | 00:00:00 | 00:00:00 | 00:00:00 | |
| BAUMI2-15 | 2026-09-02 01:02:50 | 48.34018 | 12.70127 | 86° | 47km/h | 14878m | -5.6m/s | -53.2°C | 4.0% | 129.7hPa | 2.4V | 00:00:00 | 02:33:39 | 00:00:00 | |
| OE5MMP-10 | 2026-09-02 01:02:49 | 48.34017 | 12.70110 | 81° | 58km/h | 14883m | -5.9m/s | -53.2°C | 4.0% | 129.5hPa | 2.4V | 00:00:00 | 02:33:38 | 00:00:00 | |
| DO3MHA-11 | 2026-09-02 01:02:48 | 48.34014 | 12.70094 | 76° | 58km/h | 14889m | -5.6m/s | -53.2°C | 4.0% | 129.4hPa | 2.4V | 00:00:00 | 02:33:37 | 00:00:00 | |
| PG1ADW-2 | 2026-09-02 01:02:47 | 48.34011 | 12.70077 | 72° | 62km/h | 14895m | -6.1m/s | -53.2°C | 4.0% | 129.3hPa | 2.4V | 00:00:00 | 02:33:36 | 00:00:00 | |
| BAUMI2-15 | 2026-09-02 01:02:45 | 48.34002 | 12.70041 | 67° | 64km/h | 14907m | -6.1m/s | -53.2°C | 4.0% | 129.1hPa | 2.4V | 00:00:00 | 02:33:34 | 00:00:00 | |
| OE5DRO-10 | 2026-09-02 01:02:44 | 48.33996 | 12.70021 | 66° | 69km/h | 14913m | -5.6m/s | -53.2°C | 4.0% | 128.9hPa | 2.4V | 00:00:00 | 00:00:00 | 00:00:00 | |
| PETON7-10 | 2026-09-02 01:02:43 | 48.33989 | 12.70000 | 65° | 73km/h | 14918m | -5.6m/s | -53.2°C | 4.0% | 128.8hPa | 2.4V | 00:00:00 | 00:00:00 | 00:00:00 | |
| OE5HKT-10 | 2026-09-02 01:02:41 | 48.33975 | 12.69951 | 68° | 60km/h | 14930m | -5.7m/s | -53.1°C | 4.0% | 128.6hPa | 2.4V | 00:00:00 | 02:33:30 | 00:00:00 | |
| BAUMI2-15 | 2026-09-02 01:02:40 | 48.33968 | 12.69924 | 71° | 80km/h | 14936m | -5.7m/s | -53.1°C | 4.0% | 128.5hPa | 2.4V | 00:00:00 | 02:33:29 | 00:00:00 | |
| OE5MMP-10 | 2026-09-02 01:02:39 | 48.33962 | 12.69896 | 74° | 75km/h | 14941m | -5.3m/s | -53.1°C | 4.0% | 128.4hPa | 2.4V | 08:03:00 | 02:33:28 | 00:00:00 | |
| DO3MHA-11 | 2026-09-02 01:02:38 | 48.33957 | 12.69866 | 79° | 73km/h | 14946m | -5.4m/s | -53.1°C | 4.1% | 128.3hPa | 2.5V | 00:00:00 | 02:33:27 | 00:00:00 | |
| DL6DJ-15 | 2026-09-02 01:02:37 | 48.33952 | 12.69806 | 85° | 78km/h | 14957m | -5.6m/s | -53.1°C | 1.4% | 128.1hPa | 2.5V | 00:00:00 | 00:00:00 | 00:00:00 | |
| BAUMI2-15 | 2026-09-02 01:02:35 | 48.33951 | 12.69776 | 90° | 73km/h | 14963m | -5.3m/s | -53.1°C | 4.1% | 128.0hPa | 2.5V | 00:00:00 | 02:33:24 | 00:00:00 | |
| OE5WHR-10 | 2026-09-02 01:02:33 | 48.33952 | 12.69718 | 95° | 58km/h | 14974m | -5.4m/s | -53.0°C | 4.0% | 127.7hPa | 2.5V | 00:00:00 | 00:00:00 | 00:00:00 | |
| BAUMI2-15 | 2026-09-02 01:02:30 | 48.33959 | 12.69641 | 100° | 57km/h | 14992m | -6.2m/s | -53.1°C | 4.1% | 127.4hPa | 2.5V | 08:03:00 | 02:33:19 | 00:00:00 | |
| OE5MMP-10 | 2026-09-02 01:02:29 | 48.33962 | 12.69617 | 101° | 47km/h | 14998m | -6.1m/s | -53.2°C | 4.0% | 127.3hPa | 2.4V | 00:00:00 | 02:33:18 | 00:00:00 | |
| OE5DXL-15 | 2026-09-02 01:02:28 | 48.33964 | 12.69595 | 100° | 55km/h | 15004m | -6.0m/s | -53.2°C | 4.1% | 127.1hPa | 2.4V | 00:00:00 | 00:00:00 | 00:00:00 | |
| OE5REO-15 | 2026-09-02 01:02:26 | 48.33966 | 12.69575 | 99° | 51km/h | 15010m | -6.1m/s | -53.2°C | 1.4% | 127.1hPa | 2.5V | 08:04:00 | 00:00:00 | 00:00:00 | |
| BAUMI2-15 | 2026-09-02 01:02:25 | 48.33968 | 12.69540 | 89° | 42km/h | 15021m | -5.7m/s | -53.1°C | 4.1% | 126.8hPa | 2.5V | 00:00:00 | 02:33:14 | 00:00:00 | |
| PG1ADW-2 | 2026-09-02 01:02:24 | 48.33967 | 12.69525 | 82° | 60km/h | 15027m | -5.1m/s | -53.0°C | 4.1% | 126.7hPa | 2.5V | 08:03:00 | 00:00:00 | 00:00:00 | |
| BAUMI2-15 | 2026-09-02 01:02:21 | 48.33950 | 12.69465 | 59° | 55km/h | 15050m | -6.3m/s | -52.8°C | 3.9% | 126.2hPa | 2.4V | 00:00:00 | 02:33:09 | 00:00:00 | |
| OE5MMP-10 | 2026-09-02 01:02:19 | 48.33943 | 12.69448 | 58° | 69km/h | 15056m | -6.3m/s | -52.7°C | 3.9% | 126.1hPa | 2.4V | 00:00:00 | 02:33:08 | 00:00:00 | |
| DO3MHA-11 | 2026-09-02 01:02:18 | 48.33936 | 12.69430 | 59° | 71km/h | 15062m | -6.2m/s | -52.7°C | 3.9% | 126.0hPa | 2.4V | 00:00:00 | 02:33:07 | 00:00:00 | |
| PETON7-10 | 2026-09-02 01:02:13 | 48.33901 | 12.69309 | 76° | 55km/h | 15090m | -5.3m/s | -52.6°C | 3.9% | 125.5hPa | 2.4V | 00:00:00 | 02:33:02 | 00:00:00 | |
| OE5WHR-10 | 2026-09-02 01:02:12 | 48.33897 | 12.69281 | 80° | 55km/h | 15096m | -6.0m/s | -52.6°C | 3.9% | 125.4hPa | 2.4V | 00:00:00 | 02:33:01 | 00:00:00 | |
| OE5REO-15 | 2026-09-02 01:02:11 | 48.33897 | 12.69281 | 80° | 77km/h | 15096m | -6.1m/s | -52.6°C | 1.3% | 125.4hPa | 2.4V | 08:04:00 | 00:00:00 | 00:00:00 | |
| OE5HKT-10 | 2026-09-02 01:02:10 | 48.33892 | 12.69224 | 87° | 53km/h | 15108m | -6.0m/s | -52.5°C | 3.9% | 125.1hPa | 2.4V | 08:04:00 | 00:00:00 | 00:00:00 | |
| OE5MMP-10 | 2026-09-02 01:02:09 | 48.33891 | 12.69197 | 91° | 49km/h | 15114m | -5.6m/s | -52.5°C | 3.8% | 125.0hPa | 2.4V | 00:00:00 | 02:32:58 | 00:00:00 | |
| DO3MHA-11 | 2026-09-02 01:02:08 | 48.33892 | 12.69171 | 94° | 47km/h | 15119m | -5.8m/s | -52.4°C | 3.8% | 124.9hPa | 2.4V | 00:00:00 | 02:32:57 | 00:00:00 | |
| DO7DH-14 | 2026-09-02 01:02:07 | 48.33893 | 12.69147 | 96° | 60km/h | 15125m | -5.5m/s | -52.3°C | 3.8% | 124.8hPa | 2.4V | 00:00:00 | 02:32:56 | 00:00:00 | |
| DL6DJ-15 | 2026-09-02 01:02:06 | 48.33896 | 12.69106 | 95° | 47km/h | 15136m | -5.5m/s | -52.4°C | 1.3% | 124.6hPa | 2.4V | 00:00:00 | 00:00:00 | 00:00:00 | |
| OE5MMP-10 | 2026-09-02 01:01:59 | 48.33887 | 12.69019 | 61° | 58km/h | 15171m | -5.7m/s | -52.7°C | 3.9% | 123.9hPa | 2.4V | 00:00:00 | 02:32:48 | 00:00:00 | |
| PETON7-10 | 2026-09-02 01:01:58 | 48.33882 | 12.69006 | 57° | 68km/h | 15177m | -5.6m/s | -52.7°C | 3.9% | 123.8hPa | 2.4V | 00:00:00 | 00:00:00 | 00:00:00 | |
| DG1MFX-10 | 2026-09-02 01:01:57 | 48.33881 | 12.69006 | 58° | 44km/h | 15177m | -5.7m/s | -52.7°C | 1.4% | 123.9hPa | 2.4V | 00:00:00 | 00:00:00 | 00:00:00 | |
| OE5REO-15 | 2026-09-02 01:01:55 | 48.33868 | 12.68976 | 55° | 53km/h | 15188m | -5.8m/s | -52.8°C | 1.4% | 123.6hPa | 2.4V | 08:04:00 | 00:00:00 | 00:00:00 | |
| OE5WHR-10 | 2026-09-02 01:01:51 | 48.33825 | 12.68877 | 62° | 64km/h | 15218m | -5.5m/s | -53.0°C | 3.9% | 123.0hPa | 2.4V | 00:00:00 | 00:00:00 | 00:00:00 | |
| OE5MMP-10 | 2026-09-02 01:01:49 | 48.33809 | 12.68825 | 68° | 75km/h | 15229m | -5.7m/s | -53.1°C | 3.9% | 122.8hPa | 2.4V | 00:00:00 | 02:32:38 | 00:00:00 | |
| DO3MHA-11 | 2026-09-02 01:01:48 | 48.33801 | 12.68798 | 71° | 75km/h | 15235m | -6.1m/s | -53.1°C | 3.9% | 122.6hPa | 2.4V | 00:00:00 | 02:32:37 | 00:00:00 | |
| OE5DRO-10 | 2026-09-02 01:01:47 | 48.33795 | 12.68769 | 73° | 62km/h | 15241m | -6.0m/s | -53.2°C | 3.9% | 122.5hPa | 2.4V | 00:00:00 | 00:00:00 | 00:00:00 | |
| PETON7-10 | 2026-09-02 01:01:43 | 48.33780 | 12.68652 | 86° | 58km/h | 15266m | -6.0m/s | -53.4°C | 3.9% | 122.1hPa | 2.4V | 00:00:00 | 00:00:00 | 00:00:00 | |
| OE5MMP-10 | 2026-09-02 01:01:39 | 48.33781 | 12.68551 | 94° | 53km/h | 15289m | -5.8m/s | -53.5°C | 4.0% | 121.6hPa | 2.4V | 00:00:00 | 02:32:28 | 00:00:00 | |
| DO3MHA-11 | 2026-09-02 01:01:38 | 48.33782 | 12.68530 | 92° | 78km/h | 15295m | -5.4m/s | -53.6°C | 4.1% | 121.5hPa | 2.5V | 00:00:00 | 02:32:27 | 00:00:00 | |
| DO7DH-14 | 2026-09-02 01:01:37 | 48.33782 | 12.68512 | 88° | 73km/h | 15301m | -5.8m/s | -53.6°C | 4.1% | 121.4hPa | 2.5V | 00:00:00 | 02:32:26 | 00:00:00 | |
| DL6DJ-15 | 2026-09-02 01:01:34 | 48.33774 | 12.68463 | 68° | 46km/h | 15318m | -5.8m/s | -53.8°C | 1.4% | 121.1hPa | 2.5V | 00:00:00 | 00:00:00 | 00:00:00 | |
| OE5WHR-10 | 2026-09-02 01:01:30 | 48.33747 | 12.68387 | 61° | 82km/h | 15341m | -5.6m/s | -53.9°C | 4.2% | 120.7hPa | 2.5V | 00:00:00 | 00:00:00 | 00:00:00 | |
| OE5MMP-10 | 2026-09-02 01:01:29 | 48.33739 | 12.68364 | 61° | 84km/h | 15347m | -5.7m/s | -53.9°C | 4.2% | 120.6hPa | 2.5V | 00:00:00 | 02:32:18 | 00:00:00 | |
| OE5HKT-10 | 2026-09-02 01:01:28 | 48.33730 | 12.68340 | 63° | 69km/h | 15353m | -6.1m/s | -53.9°C | 4.2% | 120.5hPa | 2.5V | 00:00:00 | 02:32:17 | 00:00:00 | |
| DK5PH-5 | 2026-09-02 01:01:23 | 48.33687 | 12.68195 | 71° | 84km/h | 15384m | -6.0m/s | -54.1°C | 4.3% | 119.8hPa | 2.5V | 00:00:00 | 02:32:12 | 00:00:00 | |
| OE5MMP-10 | 2026-09-02 01:01:19 | 48.33666 | 12.68061 | 84° | 78km/h | 15408m | -6.1m/s | -54.1°C | 4.3% | 119.4hPa | 2.5V | 00:00:00 | 02:32:08 | 00:00:00 | |
| PETON7-10 | 2026-09-02 01:01:13 | 48.33668 | 12.67868 | 98° | 68km/h | 15445m | -6.3m/s | -54.2°C | 4.3% | 118.7hPa | 2.5V | 08:05:00 | 00:00:00 | 00:00:00 | |
| DO3MHA-11 | 2026-09-02 01:01:09 | 48.33677 | 12.67768 | 95° | 55km/h | 15470m | -6.0m/s | -54.2°C | 4.2% | 118.2hPa | 2.5V | 00:00:00 | 02:31:58 | 00:00:00 | |
| OE5REO-15 | 2026-09-02 01:01:08 | 48.33677 | 12.67768 | 96° | 57km/h | 15470m | -6.1m/s | -54.3°C | 1.5% | 118.3hPa | 2.5V | 00:00:00 | 00:00:00 | 00:00:00 | |
| OE5HKT-10 | 2026-09-02 01:01:07 | 48.33677 | 12.67727 | 84° | 58km/h | 15483m | -6.1m/s | -54.3°C | 4.2% | 118.0hPa | 2.5V | 00:00:00 | 00:00:00 | 00:00:00 | |
| DL6DJ-15 | 2026-09-02 01:01:03 | 48.33660 | 12.67643 | 67° | 68km/h | 15507m | -5.9m/s | -54.3°C | 1.5% | 117.6hPa | 2.4V | 00:00:00 | 00:00:00 | 00:00:00 | |
| DF3TZ-5 | 2026-09-02 01:00:46 | 48.33665 | 12.67167 | 100° | 47km/h | 15610m | -6.3m/s | -53.8°C | -1.0% | -1.0hPa | 2.4V | 00:00:00 | 00:00:00 | 00:00:00 | |
| PETON7-10 | 2026-09-02 01:00:43 | 48.33667 | 12.67117 | 82° | 69km/h | 15629m | -6.0m/s | -53.6°C | 4.1% | 115.3hPa | 2.4V | 00:00:00 | 02:31:32 | 00:00:00 | |
| DO3MHA-11 | 2026-09-02 01:00:42 | 48.33664 | 12.67100 | 76° | 53km/h | 15635m | -5.9m/s | -53.6°C | 4.1% | 115.2hPa | 2.4V | 08:05:00 | 02:31:31 | 00:00:00 | |
| OE5MMP-10 | 2026-09-02 01:00:39 | 48.33651 | 12.67042 | 70° | 77km/h | 15653m | -6.1m/s | -53.6°C | 4.1% | 114.9hPa | 2.4V | 00:00:00 | 02:31:28 | 00:00:00 | |
| DO7DH-14 | 2026-09-02 01:00:37 | 48.33640 | 12.66993 | 74° | 64km/h | 15665m | -6.1m/s | -53.7°C | 4.1% | 114.7hPa | 2.5V | 00:00:00 | 02:31:26 | 00:00:00 | |
| DL6DJ-15 | 2026-09-02 01:00:34 | 48.33625 | 12.66845 | 90° | 80km/h | 15696m | -6.1m/s | -53.9°C | 1.5% | 114.2hPa | 2.5V | 00:00:00 | 00:00:00 | 00:00:00 | |
| OE3JTB-15 | 2026-09-02 01:00:33 | 48.33626 | 12.66814 | 95° | 58km/h | 15702m | -6.0m/s | -53.9°C | 4.2% | 114.0hPa | 2.5V | 00:00:00 | 00:00:00 | 00:00:00 | |
| OE5DRO-10 | 2026-09-02 01:00:31 | 48.33626 | 12.66814 | 95° | 57km/h | 15702m | -6.0m/s | -53.9°C | 4.2% | 114.0hPa | 2.4V | 00:00:00 | 00:00:00 | 00:00:00 | |
| OE5MMP-10 | 2026-09-02 01:00:29 | 48.33631 | 12.66754 | 102° | 60km/h | 15714m | -6.2m/s | -53.9°C | 4.1% | 113.8hPa | 2.4V | 00:00:00 | 02:31:18 | 00:00:00 | |
| PETON7-10 | 2026-09-02 01:00:28 | 48.33635 | 12.66726 | 105° | 53km/h | 15720m | -6.2m/s | -54.0°C | 4.2% | 113.7hPa | 2.4V | 00:00:00 | 00:00:00 | 00:00:00 | |
| OE5WHR-10 | 2026-09-02 01:00:27 | 48.33640 | 12.66700 | 107° | 58km/h | 15726m | -5.8m/s | -54.0°C | 4.2% | 113.6hPa | 2.4V | 00:00:00 | 00:00:00 | 00:00:00 | |
| DK5PH-5 | 2026-09-02 01:00:23 | 48.33662 | 12.66609 | 113° | 66km/h | 15751m | -6.3m/s | -54.2°C | 4.2% | 113.2hPa | 2.4V | 00:00:00 | 02:31:12 | 00:00:00 | |
| OE5REO-15 | 2026-09-02 01:00:21 | 48.33671 | 12.66574 | 110° | 46km/h | 15764m | -6.5m/s | -54.3°C | 1.5% | 113.0hPa | 2.4V | 00:00:00 | 00:00:00 | 00:00:00 | |
| OE5MMP-10 | 2026-09-02 01:00:19 | 48.33677 | 12.66543 | 98° | 53km/h | 15776m | -6.3m/s | -54.3°C | 4.4% | 112.7hPa | 2.4V | 00:00:00 | 02:31:08 | 00:00:00 | |
| DH7VM-15 | 2026-09-02 01:00:18 | 48.33677 | 12.66543 | 99° | 38km/h | 15776m | -6.4m/s | 0°C | 0% | 0hPa | 2.4V | 00:00:00 | 00:00:00 | 00:00:00 | |
| DO3MHA-11 | 2026-09-02 01:00:17 | 48.33674 | 12.66498 | 75° | 60km/h | 15795m | -6.3m/s | -54.4°C | 4.4% | 112.4hPa | 2.4V | 00:00:00 | 02:31:05 | 00:00:00 | |
| DF3TZ-5 | 2026-09-02 01:00:16 | 48.33671 | 12.66482 | 71° | 47km/h | 15801m | -6.2m/s | -54.4°C | -1.0% | -1.0hPa | 2.4V | 00:00:00 | 00:00:00 | 00:00:00 | |
| BAUMI2-15 | 2026-09-02 01:00:15 | 48.33671 | 12.66482 | 72° | 58km/h | 15801m | -6.2m/s | -54.4°C | 4.4% | 112.2hPa | 2.4V | 00:00:00 | 02:31:04 | 00:00:00 | |
| PETON7-10 | 2026-09-02 01:00:13 | 48.33662 | 12.66443 | 70° | 73km/h | 15814m | -6.1m/s | -54.4°C | 4.4% | 112.0hPa | 2.4V | 00:00:00 | 00:00:00 | 00:00:00 | |
| OE5DRO-10 | 2026-09-02 01:00:12 | 48.33657 | 12.66422 | 71° | 66km/h | 15820m | -6.2m/s | -54.4°C | 4.3% | 111.9hPa | 2.4V | 00:00:00 | 00:00:00 | 00:00:00 | |
| DG1MFX-10 | 2026-09-02 01:00:11 | 48.33657 | 12.66422 | 72° | 64km/h | 15820m | -6.3m/s | -54.5°C | 1.5% | 112.0hPa | 2.5V | 08:06:00 | 00:00:00 | 00:00:00 | |
| BAUMI2-15 | 2026-09-02 01:00:10 | 48.33647 | 12.66372 | 76° | 78km/h | 15833m | -6.2m/s | -54.5°C | 4.3% | 111.7hPa | 2.5V | 00:00:00 | 02:30:59 | 00:00:00 | |
| OE5MMP-10 | 2026-09-02 01:00:09 | 48.33642 | 12.66344 | 79° | 77km/h | 15839m | -6.5m/s | -54.5°C | 4.2% | 111.6hPa | 2.5V | 00:00:00 | 02:30:58 | 00:00:00 | |
| DO7DH-14 | 2026-09-02 01:00:07 | 48.33636 | 12.66285 | 86° | 69km/h | 15852m | -6.5m/s | -54.4°C | 4.2% | 111.4hPa | 2.4V | 08:06:00 | 02:30:56 | 00:00:00 | |
| OE5WHR-10 | 2026-09-02 01:00:06 | 48.33635 | 12.66253 | 89° | 64km/h | 15858m | -6.2m/s | -54.4°C | 4.2% | 111.3hPa | 2.4V | 00:00:00 | 02:30:55 | 00:00:00 | |
| BAUMI2-15 | 2026-09-02 01:00:05 | 48.33636 | 12.66222 | 93° | 77km/h | 15865m | -6.3m/s | -54.5°C | 4.2% | 111.2hPa | 2.4V | 00:00:00 | 02:30:54 | 00:00:00 | |
| OE3JTB-15 | 2026-09-02 01:00:04 | 48.33649 | 12.66108 | 106° | 62km/h | 15889m | -5.6m/s | -54.6°C | 4.3% | 110.8hPa | 2.4V | 00:00:00 | 00:00:00 | 00:00:00 | |
| BAUMI2-15 | 2026-09-02 01:00:00 | 48.33654 | 12.66085 | 108° | 53km/h | 15895m | -6.2m/s | -54.6°C | 4.3% | 110.6hPa | 2.4V | 00:00:00 | 02:30:49 | 00:00:00 | |
| OE5MMP-10 | 2026-09-02 00:59:59 | 48.33658 | 12.66063 | 108° | 51km/h | 15901m | -6.0m/s | -54.6°C | 4.3% | 110.6hPa | 2.5V | 00:00:00 | 02:30:48 | 00:00:00 | |
| OE5DXL-15 | 2026-09-02 00:59:58 | 48.33662 | 12.66043 | 107° | 68km/h | 15908m | -6.4m/s | -54.6°C | 4.3% | 110.4hPa | 2.5V | 00:00:00 | 00:00:00 | 00:00:00 | |
| BAUMI2-15 | 2026-09-02 00:59:55 | 48.33669 | 12.65992 | 91° | 49km/h | 15927m | -6.5m/s | -54.7°C | 4.3% | 110.1hPa | 2.5V | 00:00:00 | 02:30:44 | 00:00:00 | |
| PG1ADW-2 | 2026-09-02 00:59:53 | 48.33666 | 12.65959 | 77° | 73km/h | 15940m | -6.5m/s | -54.7°C | 4.4% | 109.9hPa | 2.5V | 00:00:00 | 00:00:00 | 00:00:00 | |
| BAUMI2-15 | 2026-09-02 00:59:50 | 48.33653 | 12.65898 | 72° | 75km/h | 15958m | -6.1m/s | -54.8°C | 4.4% | 109.6hPa | 2.5V | 00:00:00 | 02:30:39 | 00:00:00 | |
| OE5MMP-10 | 2026-09-02 00:59:49 | 48.33648 | 12.65873 | 74° | 80km/h | 15965m | -6.1m/s | -54.9°C | 4.4% | 109.5hPa | 2.5V | 00:00:00 | 02:30:38 | 00:00:00 | |
| OE5WHR-10 | 2026-09-02 00:59:45 | 48.33635 | 12.65755 | 88° | 68km/h | 15989m | -5.9m/s | -54.9°C | 4.5% | 109.1hPa | 2.5V | 00:00:00 | 00:00:00 | 00:00:00 | |
| OE5REO-15 | 2026-09-02 00:59:44 | 48.33634 | 12.65755 | 88° | 84km/h | 15989m | -6.0m/s | -54.9°C | 1.5% | 109.1hPa | 2.4V | 00:00:00 | 00:00:00 | 00:00:00 | |
| PETON7-10 | 2026-09-02 00:59:43 | 48.33635 | 12.65691 | 94° | 71km/h | 16001m | -6.0m/s | -54.8°C | 4.4% | 108.8hPa | 2.4V | 00:00:00 | 00:00:00 | 00:00:00 | |
| DK5PH-5 | 2026-09-02 00:59:42 | 48.33637 | 12.65659 | 97° | 60km/h | 16007m | -6.3m/s | -54.8°C | 4.4% | 108.7hPa | 2.5V | 00:00:00 | 02:30:31 | 00:00:00 | |
| BAUMI2-15 | 2026-09-02 00:59:40 | 48.33644 | 12.65597 | 102° | 77km/h | 16020m | -6.1m/s | -54.7°C | 4.4% | 108.5hPa | 2.5V | 00:00:00 | 02:30:29 | 00:00:00 | |
| OE5MMP-10 | 2026-09-02 00:59:39 | 48.33648 | 12.65567 | 105° | 68km/h | 16026m | -6.0m/s | -54.8°C | 4.5% | 108.4hPa | 2.5V | 08:06:00 | 02:30:28 | 00:00:00 | |
| DO7DH-14 | 2026-09-02 00:59:37 | 48.33659 | 12.65512 | 109° | 60km/h | 16038m | -6.1m/s | -54.8°C | 4.4% | 108.2hPa | 2.5V | 00:00:00 | 02:30:26 | 00:00:00 | |
| BAUMI2-15 | 2026-09-02 00:59:35 | 48.33671 | 12.65461 | 112° | 66km/h | 16050m | -6.3m/s | -54.8°C | 4.4% | 108.0hPa | 2.5V | 00:00:00 | 02:30:24 | 00:00:00 | |
| OE5DRO-10 | 2026-09-02 00:59:34 | 48.33677 | 12.65437 | 113° | 51km/h | 16057m | -6.0m/s | -54.8°C | 4.4% | 107.9hPa | 2.5V | 00:00:00 | 00:00:00 | 00:00:00 | |
| PG1ADW-2 | 2026-09-02 00:59:33 | 48.33684 | 12.65414 | 115° | 53km/h | 16063m | -6.1m/s | -54.8°C | 4.4% | 107.8hPa | 2.5V | 00:00:00 | 00:00:00 | 00:00:00 | |
| BAUMI2-15 | 2026-09-02 00:59:30 | 48.33705 | 12.65351 | 119° | 53km/h | 16082m | -6.6m/s | -54.8°C | 4.4% | 107.5hPa | 2.4V | 00:00:00 | 02:30:19 | 00:00:00 | |
| OE5MMP-10 | 2026-09-02 00:59:29 | 48.33712 | 12.65333 | 120° | 44km/h | 16088m | -6.4m/s | -54.9°C | 4.4% | 107.3hPa | 2.5V | 00:00:00 | 02:30:18 | 00:00:00 | |
| PETON7-10 | 2026-09-02 00:59:28 | 48.33719 | 12.65315 | 120° | 51km/h | 16094m | -6.5m/s | -54.9°C | 4.4% | 107.2hPa | 2.5V | 00:00:00 | 00:00:00 | 00:00:00 | |
| BAUMI2-15 | 2026-09-02 00:59:25 | 48.33734 | 12.65269 | 113° | 38km/h | 16114m | -6.4m/s | -54.9°C | 4.4% | 106.9hPa | 2.5V | 00:00:00 | 02:30:14 | 00:00:00 | |
| OE5WHR-10 | 2026-09-02 00:59:24 | 48.33738 | 12.65255 | 107° | 60km/h | 16120m | -6.1m/s | -54.8°C | 4.4% | 106.8hPa | 2.5V | 00:00:00 | 00:00:00 | 00:00:00 | |
| BAUMI2-15 | 2026-09-02 00:59:20 | 48.33738 | 12.65195 | 79° | 57km/h | 16144m | -6.0m/s | -54.7°C | 4.3% | 106.4hPa | 2.5V | 00:00:00 | 02:30:09 | 00:00:00 | |
| OE5MMP-10 | 2026-09-02 00:59:19 | 48.33736 | 12.65177 | 77° | 68km/h | 16150m | -5.8m/s | -54.7°C | 4.3% | 106.3hPa | 2.5V | 00:00:00 | 02:30:08 | 00:00:00 | |
| BAUMI2-15 | 2026-09-02 00:59:15 | 48.33723 | 12.65088 | 82° | 73km/h | 16176m | -6.6m/s | -54.7°C | 4.3% | 105.8hPa | 2.5V | 00:00:00 | 02:30:04 | 00:00:00 | |
| OE5REO-15 | 2026-09-02 00:59:14 | 48.33723 | 12.65088 | 82° | 69km/h | 16176m | -6.7m/s | -54.7°C | 1.4% | 105.9hPa | 2.5V | 08:07:00 | 00:00:00 | 00:00:00 | |
| PETON7-10 | 2026-09-02 00:59:13 | 48.33720 | 12.65033 | 91° | 57km/h | 16189m | -6.5m/s | -54.6°C | 4.3% | 105.7hPa | 2.5V | 00:00:00 | 02:30:02 | 00:00:00 | |
| BAUMI2-15 | 2026-09-02 00:59:10 | 48.33727 | 12.64949 | 106° | 69km/h | 16207m | -6.0m/s | -54.6°C | 4.3% | 105.4hPa | 2.5V | 00:00:00 | 02:29:59 | 00:00:00 | |
| OE5MMP-10 | 2026-09-02 00:59:09 | 48.33733 | 12.64922 | 110° | 53km/h | 16213m | -6.1m/s | -54.6°C | 4.3% | 105.3hPa | 2.5V | 00:00:00 | 02:29:58 | 00:00:00 | |
| DO7DH-14 | 2026-09-02 00:59:07 | 48.33747 | 12.64874 | 117° | 53km/h | 16226m | -6.1m/s | -54.6°C | 4.3% | 105.0hPa | 2.4V | 00:00:00 | 02:29:56 | 00:00:00 | |
| BAUMI2-15 | 2026-09-02 00:59:05 | 48.33762 | 12.64834 | 122° | 44km/h | 16239m | -6.4m/s | -54.4°C | 4.2% | 104.8hPa | 2.4V | 00:00:00 | 02:29:54 | 00:00:00 | |
| OE5WHR-10 | 2026-09-02 00:59:03 | 48.33775 | 12.64801 | 122° | 51km/h | 16252m | -6.6m/s | -54.3°C | 4.2% | 104.6hPa | 2.4V | 00:00:00 | 02:29:52 | 00:00:00 | |
| BAUMI2-15 | 2026-09-02 00:59:00 | 48.33788 | 12.64764 | 109° | 31km/h | 16271m | -6.4m/s | -54.4°C | 4.3% | 104.3hPa | 2.4V | 08:07:00 | 02:29:49 | 00:00:00 | |
| OE5MMP-10 | 2026-09-02 00:58:59 | 48.33790 | 12.64753 | 98° | 44km/h | 16277m | -6.2m/s | -54.4°C | 4.3% | 104.2hPa | 2.5V | 00:00:00 | 02:29:48 | 00:00:00 | |
| OE5FHM-15 | 2026-09-02 00:58:58 | 48.33791 | 12.64742 | 89° | 51km/h | 16284m | -6.5m/s | -54.3°C | 4.2% | 104.1hPa | 2.5V | 08:07:00 | 02:29:47 | 00:00:00 | |
| OE5DRO-10 | 2026-09-02 00:58:56 | 48.33788 | 12.64717 | 76° | 58km/h | 16297m | -6.3m/s | -54.1°C | 4.2% | 103.9hPa | 2.4V | 00:00:00 | 00:00:00 | 00:00:00 | |
| BAUMI2-15 | 2026-09-02 00:58:55 | 48.33785 | 12.64703 | 73° | 51km/h | 16303m | -6.5m/s | -54.1°C | 4.2% | 103.8hPa | 2.4V | 00:00:00 | 02:29:44 | 00:00:00 | |
| PG1ADW-2 | 2026-09-02 00:58:53 | 48.33778 | 12.64671 | 71° | 57km/h | 16316m | -6.5m/s | -54.1°C | 4.1% | 103.6hPa | 2.4V | 00:00:00 | 00:00:00 | 00:00:00 | |
| BAUMI2-15 | 2026-09-02 00:58:50 | 48.33764 | 12.64608 | 76° | 68km/h | 16335m | -6.1m/s | -54.1°C | 4.0% | 103.3hPa | 2.4V | 00:00:00 | 02:29:39 | 00:00:00 | |
| OE5MMP-10 | 2026-09-02 00:58:49 | 48.33761 | 12.64584 | 78° | 68km/h | 16341m | -6.3m/s | -54.0°C | 4.0% | 103.2hPa | 2.4V | 00:00:00 | 02:29:38 | 00:00:00 | |
| BAUMI2-15 | 2026-09-02 00:58:45 | 48.33755 | 12.64479 | 94° | 68km/h | 16367m | -6.0m/s | -53.9°C | 4.0% | 102.7hPa | 2.4V | 00:00:00 | 02:29:34 | 00:00:00 | |
| OE5REO-15 | 2026-09-02 00:58:43 | 48.33760 | 12.64425 | 104° | 69km/h | 16379m | -6.1m/s | -53.9°C | 1.2% | 102.6hPa | 2.4V | 08:08:00 | 00:00:00 | 00:00:00 | |
| DK5PH-5 | 2026-09-02 00:58:42 | 48.33764 | 12.64401 | 107° | 60km/h | 16385m | -6.3m/s | -53.8°C | 3.9% | 102.5hPa | 2.4V | 00:00:00 | 02:29:31 | 00:00:00 | |
| BAUMI2-15 | 2026-09-02 00:58:40 | 48.33775 | 12.64357 | 113° | 46km/h | 16398m | -6.2m/s | -53.7°C | 3.9% | 102.3hPa | 2.4V | 00:00:00 | 02:29:29 | 00:00:00 | |
| OE5DRO-10 | 2026-09-02 00:58:37 | 48.33789 | 12.64306 | 110° | 57km/h | 16417m | -6.2m/s | -53.9°C | 4.1% | 102.0hPa | 2.4V | 00:00:00 | 00:00:00 | 00:00:00 | |
| BAUMI2-15 | 2026-09-02 00:58:35 | 48.33793 | 12.64278 | 96° | 37km/h | 16430m | -5.8m/s | -54.0°C | 4.1% | 101.8hPa | 2.4V | 00:00:00 | 02:29:24 | 00:00:00 | |
| PG1ADW-2 | 2026-09-02 00:58:33 | 48.33792 | 12.64253 | 75° | 64km/h | 16442m | -6.1m/s | -54.1°C | 4.1% | 101.6hPa | 2.4V | 08:07:00 | 00:00:00 | 00:00:00 | |
| BAUMI2-15 | 2026-09-02 00:58:30 | 48.33780 | 12.64213 | 62° | 55km/h | 16461m | -6.4m/s | -54.2°C | 4.0% | 101.3hPa | 2.4V | 00:00:00 | 02:29:19 | 00:00:00 | |
| OE5MMP-10 | 2026-09-02 00:58:29 | 48.33774 | 12.64197 | 60° | 68km/h | 16468m | -6.9m/s | -54.2°C | 4.0% | 101.1hPa | 2.4V | 00:00:00 | 02:29:18 | 00:00:00 | |
| OE5REO-15 | 2026-09-02 00:58:28 | 48.33768 | 12.64180 | 61° | 55km/h | 16475m | -6.9m/s | -54.3°C | 1.3% | 101.1hPa | 2.4V | 08:08:00 | 00:00:00 | 00:00:00 | |
| BAUMI2-15 | 2026-09-02 00:58:25 | 48.33747 | 12.64118 | 67° | 75km/h | 16495m | -6.1m/s | -54.3°C | 4.1% | 100.7hPa | 2.4V | 00:00:00 | 02:29:14 | 00:00:00 | |
| DO3MHA-11 | 2026-09-02 00:58:24 | 48.33740 | 12.64093 | 71° | 77km/h | 16501m | -6.1m/s | -54.4°C | 4.1% | 100.6hPa | 2.4V | 00:00:00 | 02:29:13 | 00:00:00 | |
| OE5WHR-10 | 2026-09-02 00:58:21 | 48.33726 | 12.64009 | 82° | 57km/h | 16519m | -6.4m/s | -54.3°C | 4.2% | 100.3hPa | 2.5V | 00:00:00 | 00:00:00 | 00:00:00 | |
| OE5MMP-10 | 2026-09-02 00:58:20 | 48.33722 | 12.63949 | 88° | 68km/h | 16532m | -6.5m/s | -54.2°C | 4.1% | 100.1hPa | 2.5V | 00:00:00 | 02:29:08 | 00:00:00 | |
| OE5DRO-10 | 2026-09-02 00:58:18 | 48.33722 | 12.63919 | 91° | 55km/h | 16539m | -6.4m/s | -54.3°C | 4.1% | 100.0hPa | 2.5V | 00:00:00 | 00:00:00 | 00:00:00 | |
| DO3MHA-11 | 2026-09-02 00:58:14 | 48.33729 | 12.63808 | 102° | 49km/h | 16565m | -6.5m/s | -54.2°C | 4.0% | 99.6hPa | 2.4V | 00:00:00 | 02:29:03 | 00:00:00 | |
| PG1ADW-2 | 2026-09-02 00:58:13 | 48.33733 | 12.63784 | 105° | 55km/h | 16572m | -6.5m/s | -54.2°C | 4.0% | 99.5hPa | 2.4V | 00:00:00 | 00:00:00 | 00:00:00 | |
| OE5REO-15 | 2026-09-02 00:58:12 | 48.33737 | 12.63761 | 107° | 58km/h | 16578m | -6.4m/s | -54.2°C | 1.2% | 99.4hPa | 2.4V | 08:08:00 | 00:00:00 | 00:00:00 | |
| OE5MMP-10 | 2026-09-02 00:58:09 | 48.33748 | 12.63706 | 105° | 44km/h | 16598m | -6.5m/s | -54.2°C | 4.1% | 99.1hPa | 2.4V | 08:08:00 | 02:28:58 | 00:00:00 | |
| DO7DH-14 | 2026-09-02 00:58:07 | 48.33751 | 12.63677 | 93° | 53km/h | 16610m | -6.3m/s | -54.2°C | 4.0% | 98.9hPa | 2.5V | 00:00:00 | 02:28:56 | 00:00:00 | |
| DO3MHA-11 | 2026-09-02 00:58:04 | 48.33747 | 12.63636 | 71° | 58km/h | 16630m | -6.5m/s | -54.3°C | 4.0% | 98.6hPa | 2.5V | 00:00:00 | 02:28:53 | 00:00:00 | |
| DL6DJ-15 | 2026-09-02 00:57:57 | 48.33706 | 12.63501 | 70° | 69km/h | 16675m | -6.6m/s | -54.3°C | 1.2% | 98.0hPa | 2.5V | 00:00:00 | 00:00:00 | 00:00:00 | |
| OE5REO-15 | 2026-09-02 00:57:56 | 48.33706 | 12.63501 | 72° | 71km/h | 16675m | -6.6m/s | -54.3°C | 1.2% | 98.0hPa | 2.5V | 08:08:00 | 00:00:00 | 00:00:00 | |
| DO3MHA-11 | 2026-09-02 00:57:54 | 48.33694 | 12.63421 | 85° | 64km/h | 16694m | -6.4m/s | -54.3°C | 4.2% | 97.6hPa | 2.5V | 00:00:00 | 02:28:43 | 00:00:00 | |
| PG1ADW-2 | 2026-09-02 00:57:53 | 48.33693 | 12.63393 | 89° | 49km/h | 16700m | -5.9m/s | -54.3°C | 4.2% | 97.6hPa | 2.4V | 00:00:00 | 02:28:42 | 00:00:00 | |
| OE5MMP-10 | 2026-09-02 00:57:49 | 48.33702 | 12.63288 | 106° | 46km/h | 16725m | -6.6m/s | -54.1°C | 4.1% | 97.2hPa | 2.4V | 00:00:00 | 02:28:38 | 00:00:00 | |
| DG1MFX-10 | 2026-09-02 00:57:46 | 48.33712 | 12.63242 | 112° | 60km/h | 16739m | -7.1m/s | -54.1°C | 1.3% | 97.0hPa | 2.4V | 08:09:00 | 00:00:00 | 00:00:00 | |
| DO3MHA-11 | 2026-09-02 00:57:44 | 48.33728 | 12.63187 | 116° | 38km/h | 16759m | -7.0m/s | -54.0°C | 4.0% | 96.6hPa | 2.4V | 00:00:00 | 02:28:33 | 00:00:00 | |
| PETON7-10 | 2026-09-02 00:57:43 | 48.33732 | 12.63173 | 114° | 46km/h | 16766m | -6.2m/s | -54.0°C | 3.9% | 96.5hPa | 2.4V | 00:00:00 | 02:28:32 | 00:00:00 | |
| OE5DRO-10 | 2026-09-02 00:57:40 | 48.33737 | 12.63141 | 81° | 51km/h | 16785m | -6.3m/s | -53.9°C | 3.9% | 96.2hPa | 2.4V | 00:00:00 | 00:00:00 | 00:00:00 | |
| OE5MMP-10 | 2026-09-02 00:57:39 | 48.33735 | 12.63130 | 69° | 49km/h | 16792m | -6.5m/s | -53.9°C | 3.9% | 96.1hPa | 2.4V | 00:00:00 | 02:28:28 | 00:00:00 | |
| DO7DH-14 | 2026-09-02 00:57:37 | 48.33727 | 12.63108 | 59° | 40km/h | 16805m | -7.1m/s | -54.0°C | 3.9% | 95.9hPa | 2.5V | 00:00:00 | 02:28:26 | 00:00:00 | |
| DK5PH-5 | 2026-09-02 00:57:36 | 48.33721 | 12.63095 | 59° | 42km/h | 16812m | -6.9m/s | -54.0°C | 3.9% | 95.9hPa | 2.5V | 00:00:00 | 02:28:25 | 00:00:00 | |
| DO3MHA-11 | 2026-09-02 00:57:33 | 48.33705 | 12.63042 | 73° | 60km/h | 16833m | -6.3m/s | -54.1°C | 4.0% | 95.6hPa | 2.4V | 00:00:00 | 02:28:22 | 00:00:00 | |
| OE5MMP-10 | 2026-09-02 00:57:29 | 48.33698 | 12.62947 | 94° | 53km/h | 16857m | -6.1m/s | -54.1°C | 4.0% | 95.2hPa | 2.4V | 00:00:00 | 02:28:18 | 00:00:00 | |
| OE5FHM-15 | 2026-09-02 00:57:28 | 48.33700 | 12.62923 | 98° | 42km/h | 16863m | -6.5m/s | -54.1°C | 4.0% | 95.1hPa | 2.4V | 00:00:00 | 02:28:17 | 00:00:00 | |
| DL6DJ-15 | 2026-09-02 00:57:26 | 48.33710 | 12.62856 | 108° | 57km/h | 16883m | -6.6m/s | -54.0°C | 1.2% | 94.8hPa | 2.4V | 00:00:00 | 00:00:00 | 00:00:00 | |
| OE5REO-15 | 2026-09-02 00:57:25 | 48.33710 | 12.62856 | 109° | 57km/h | 16883m | -6.6m/s | -54.0°C | 1.2% | 94.9hPa | 2.4V | 08:09:00 | 00:00:00 | 00:00:00 | |
| DO3MHA-11 | 2026-09-02 00:57:23 | 48.33720 | 12.62819 | 115° | 31km/h | 16896m | -6.7m/s | -54.0°C | 4.0% | 94.6hPa | 2.4V | 08:08:00 | 02:28:12 | 00:00:00 | |
| OE5DRO-10 | 2026-09-02 00:57:21 | 48.33730 | 12.62788 | 121° | 33km/h | 16909m | -6.1m/s | -54.0°C | 4.0% | 94.4hPa | 2.4V | 00:00:00 | 00:00:00 | 00:00:00 | |
| OE5MMP-10 | 2026-09-02 00:57:19 | 48.33740 | 12.62765 | 124° | 22km/h | 16922m | -6.3m/s | -54.0°C | 4.1% | 94.2hPa | 2.4V | 00:00:00 | 02:28:08 | 00:00:00 | |
| OE5WHR-10 | 2026-09-02 00:57:18 | 48.33744 | 12.62756 | 124° | 38km/h | 16928m | -6.4m/s | -54.0°C | 4.0% | 94.1hPa | 2.4V | 00:00:00 | 00:00:00 | 00:00:00 | |
| DB0UT-7 | 2026-09-02 00:57:16 | 48.33751 | 12.62741 | 116° | 53km/h | 16941m | -6.4m/s | 0°C | 0% | 0hPa | 2.4V | 00:00:00 | 02:28:05 | 00:00:00 | |
| DO3MHA-11 | 2026-09-02 00:57:13 | 48.33752 | 12.62722 | 74° | 35km/h | 16961m | -6.3m/s | -53.8°C | 3.9% | 93.6hPa | 2.4V | 00:00:00 | 02:28:02 | 00:00:00 | |
| OE5MMP-10 | 2026-09-02 00:57:09 | 48.33738 | 12.62694 | 47° | 51km/h | 16987m | -6.5m/s | -54.0°C | 3.9% | 93.2hPa | 2.4V | 00:00:00 | 02:27:58 | 00:00:00 | |
| DO7DH-14 | 2026-09-02 00:57:07 | 48.33726 | 12.62673 | 49° | 44km/h | 17001m | -6.7m/s | -54.0°C | 3.9% | 93.1hPa | 2.5V | 00:00:00 | 02:27:56 | 00:00:00 | |
| DK5PH-5 | 2026-09-02 00:57:06 | 48.33719 | 12.62660 | 52° | 46km/h | 17008m | -6.5m/s | -54.0°C | 3.9% | 93.0hPa | 2.4V | 00:00:00 | 02:27:55 | 00:00:00 | |
| DG1MFX-10 | 2026-09-02 00:57:05 | 48.33719 | 12.62660 | 53° | 47km/h | 17008m | -6.6m/s | -54.0°C | 1.2% | 93.0hPa | 2.4V | 08:09:00 | 00:00:00 | 00:00:00 | |
| DO3MHA-11 | 2026-09-02 00:57:03 | 48.33697 | 12.62608 | 65° | 57km/h | 17028m | -7.0m/s | -54.1°C | 3.9% | 92.6hPa | 2.4V | 00:00:00 | 02:27:52 | 00:00:00 | |
| DL6DJ-15 | 2026-09-02 00:56:55 | 48.33697 | 12.62420 | 115° | 40km/h | 17089m | -6.6m/s | -54.3°C | 1.2% | 91.8hPa | 2.4V | 00:00:00 | 00:00:00 | 00:00:00 | |
| OE5REO-15 | 2026-09-02 00:56:54 | 48.33692 | 12.62435 | 113° | 47km/h | 17083m | -6.9m/s | -54.2°C | 1.2% | 91.9hPa | 2.4V | 08:10:00 | 00:00:00 | 00:00:00 | |
| DO3MHA-11 | 2026-09-02 00:56:53 | 48.33701 | 12.62407 | 118° | 27km/h | 17096m | -6.8m/s | -54.3°C | 3.9% | 91.6hPa | 2.4V | 00:00:00 | 02:27:42 | 00:00:00 | |
| OM5KV | 2026-09-02 00:56:50 | 48.33708 | 12.62387 | 114° | 24km/h | 17109m | -6.7m/s | -54.4°C | 1.1% | 91.5hPa | 2.4V | 08:10:00 | 00:00:00 | 00:00:00 | |
| OE5MMP-10 | 2026-09-02 00:56:49 | 48.33710 | 12.62373 | 81° | 38km/h | 17123m | -6.4m/s | -54.4°C | 4.0% | 91.3hPa | 2.4V | 00:00:00 | 02:27:38 | 00:00:00 | |
| DG1MFX-10 | 2026-09-02 00:56:45 | 48.33701 | 12.62351 | 51° | 31km/h | 17143m | -6.5m/s | -54.2°C | 1.2% | 91.1hPa | 2.4V | 08:10:00 | 00:00:00 | 00:00:00 | |
| OM5KV | 2026-09-02 00:56:44 | 48.33696 | 12.62341 | 52° | 37km/h | 17149m | -6.9m/s | -54.2°C | 1.1% | 91.0hPa | 2.4V | 08:10:00 | 00:00:00 | 00:00:00 | |
| PETON7-10 | 2026-09-02 00:56:43 | 48.33684 | 12.62316 | 57° | 60km/h | 17163m | -6.4m/s | -54.2°C | 4.0% | 90.7hPa | 2.4V | 08:09:00 | 00:00:00 | 00:00:00 | |
| OE5MMP-10 | 2026-09-02 00:56:39 | 48.33662 | 12.62243 | 75° | 64km/h | 17190m | -6.2m/s | -54.3°C | 4.1% | 90.4hPa | 2.5V | 08:09:00 | 02:27:28 | 00:00:00 | |
| OE5REO-15 | 2026-09-02 00:56:38 | 48.33662 | 12.62243 | 76° | 60km/h | 17190m | -6.2m/s | -54.3°C | 1.2% | 90.4hPa | 2.4V | 08:10:00 | 00:00:00 | 00:00:00 | |
| DO7DH-14 | 2026-09-02 00:56:37 | 48.33656 | 12.62197 | 85° | 49km/h | 17202m | -6.7m/s | -54.3°C | 4.0% | 90.2hPa | 2.4V | 00:00:00 | 02:27:26 | 00:00:00 | |
| DK5PH-5 | 2026-09-02 00:56:36 | 48.33655 | 12.62173 | 88° | 60km/h | 17209m | -6.5m/s | -54.3°C | 4.0% | 90.1hPa | 2.4V | 00:00:00 | 02:27:25 | 00:00:00 | |
| DO3MHA-11 | 2026-09-02 00:56:33 | 48.33658 | 12.62098 | 98° | 60km/h | 17229m | -6.7m/s | -54.4°C | 4.0% | 89.8hPa | 2.4V | 00:00:00 | 02:27:22 | 00:00:00 | |
| OM5KV | 2026-09-02 00:56:32 | 48.33658 | 12.62098 | 99° | 68km/h | 17229m | -6.7m/s | -54.5°C | 1.2% | 89.9hPa | 2.4V | 08:10:00 | 00:00:00 | 00:00:00 | |
| OE5MMP-10 | 2026-09-02 00:56:29 | 48.33674 | 12.62001 | 111° | 51km/h | 17257m | -6.8m/s | -54.5°C | 4.1% | 89.4hPa | 2.4V | 00:00:00 | 02:27:18 | 00:00:00 | |
| PETON7-10 | 2026-09-02 00:56:28 | 48.33680 | 12.61979 | 114° | 40km/h | 17264m | -6.5m/s | -54.6°C | 4.1% | 89.3hPa | 2.4V | 00:00:00 | 00:00:00 | 00:00:00 | |
| OE5DXL-15 | 2026-09-02 00:56:27 | 48.33686 | 12.61958 | 118° | 49km/h | 17270m | -6.5m/s | -54.6°C | 4.1% | 89.2hPa | 2.4V | 00:00:00 | 00:00:00 | 00:00:00 | |
| DL6DJ-15 | 2026-09-02 00:56:24 | 48.33716 | 12.61891 | 129° | 46km/h | 17297m | -6.8m/s | -54.5°C | 1.2% | 88.9hPa | 2.4V | 00:00:00 | 00:00:00 | 00:00:00 | |
| DO3MHA-11 | 2026-09-02 00:56:23 | 48.33716 | 12.61891 | 130° | 33km/h | 17297m | -6.8m/s | -54.5°C | 4.2% | 88.8hPa | 2.4V | 00:00:00 | 02:27:12 | 00:00:00 | |
| OE5REO-15 | 2026-09-02 00:56:21 | 48.33723 | 12.61878 | 132° | 42km/h | 17304m | -7.0m/s | -54.5°C | 1.2% | 88.8hPa | 2.5V | 08:10:00 | 00:00:00 | 00:00:00 | |
| OE5MMP-10 | 2026-09-02 00:56:19 | 48.33740 | 12.61847 | 121° | 33km/h | 17325m | -6.5m/s | -54.1°C | 4.1% | 88.4hPa | 2.5V | 00:00:00 | 02:27:08 | 00:00:00 | |
| OE5WHR-10 | 2026-09-02 00:56:15 | 48.33744 | 12.61809 | 80° | 55km/h | 17350m | -6.5m/s | -53.9°C | 4.0% | 88.1hPa | 2.5V | 00:00:00 | 00:00:00 | 00:00:00 | |
| BAUMI2-15 | 2026-09-02 00:56:10 | 48.33729 | 12.61745 | 70° | 58km/h | 17385m | -6.6m/s | -53.7°C | 3.9% | 87.6hPa | 2.5V | 00:00:00 | 02:26:59 | 00:00:00 | |
| OE5MMP-10 | 2026-09-02 00:56:09 | 48.33724 | 12.61727 | 72° | 68km/h | 17391m | -6.7m/s | -53.7°C | 3.9% | 87.5hPa | 2.5V | 00:00:00 | 02:26:58 | 00:00:00 | |
| DO7DH-14 | 2026-09-02 00:56:07 | 48.33716 | 12.61685 | 77° | 57km/h | 17405m | -6.5m/s | -53.6°C | 3.8% | 87.3hPa | 2.5V | 00:00:00 | 02:26:56 | 00:00:00 | |
| OE5REO-15 | 2026-09-02 00:56:06 | 48.33716 | 12.61685 | 78° | 62km/h | 17405m | -6.6m/s | -53.6°C | 1.1% | 87.4hPa | 2.5V | 08:10:00 | 00:00:00 | 00:00:00 | |
| BAUMI2-15 | 2026-09-02 00:56:05 | 48.33711 | 12.61635 | 85° | 71km/h | 17418m | -6.7m/s | -53.4°C | 3.8% | 87.1hPa | 2.5V | 00:00:00 | 02:26:54 | 00:00:00 | |
| DG1MFX-10 | 2026-09-02 00:56:04 | 48.33711 | 12.61635 | 85° | 69km/h | 17418m | -6.7m/s | -53.5°C | 1.1% | 87.2hPa | 2.5V | 08:10:00 | 00:00:00 | 00:00:00 | |
| OM5KV | 2026-09-02 00:56:03 | 48.33710 | 12.61609 | 89° | 71km/h | 17425m | -6.8m/s | -53.4°C | 1.1% | 87.1hPa | 2.5V | 08:10:00 | 00:00:00 | 00:00:00 | |
| DL6DJ-15 | 2026-09-02 00:55:53 | 48.33763 | 12.61368 | 106° | 26km/h | 17506m | -7.2m/s | -53.7°C | 1.1% | 86.0hPa | 2.5V | 00:00:00 | 00:00:00 | 00:00:00 | |
| DO3MHA-11 | 2026-09-02 00:55:52 | 48.33762 | 12.61368 | 107° | 44km/h | 17506m | -7.1m/s | -53.7°C | 3.8% | 86.0hPa | 2.5V | 08:10:00 | 02:26:41 | 00:00:00 | |
| OE5REO-15 | 2026-09-02 00:55:51 | 48.33763 | 12.61368 | 108° | 27km/h | 17506m | -7.2m/s | -53.7°C | 1.1% | 86.0hPa | 2.4V | 08:10:00 | 00:00:00 | 00:00:00 | |
| BAUMI2-15 | 2026-09-02 00:55:50 | 48.33763 | 12.61349 | 81° | 38km/h | 17520m | -6.7m/s | -53.8°C | 3.8% | 85.8hPa | 2.4V | 00:00:00 | 02:26:39 | 00:00:00 | |
| OE5MMP-10 | 2026-09-02 00:55:49 | 48.33761 | 12.61338 | 71° | 57km/h | 17527m | -6.6m/s | -53.8°C | 3.8% | 85.7hPa | 2.4V | 00:00:00 | 02:26:38 | 00:00:00 | |
| OM5KV | 2026-09-02 00:55:46 | 48.33748 | 12.61295 | 64° | 51km/h | 17547m | -6.7m/s | -54.0°C | 1.1% | 85.5hPa | 2.4V | 08:10:00 | 00:00:00 | 00:00:00 | |
| BAUMI2-15 | 2026-09-02 00:55:45 | 48.33742 | 12.61277 | 66° | 66km/h | 17554m | -6.9m/s | -54.0°C | 3.9% | 85.3hPa | 2.4V | 00:00:00 | 02:26:34 | 00:00:00 | |
| PETON7-10 | 2026-09-02 00:55:43 | 48.33730 | 12.61233 | 72° | 69km/h | 17568m | -6.7m/s | -54.1°C | 4.0% | 85.1hPa | 2.4V | 00:00:00 | 00:00:00 | 00:00:00 | |
| DO3MHA-11 | 2026-09-02 00:55:42 | 48.33725 | 12.61208 | 76° | 75km/h | 17574m | -7.1m/s | -54.2°C | 4.0% | 85.0hPa | 2.4V | 00:00:00 | 02:26:31 | 00:00:00 | |
| BAUMI2-15 | 2026-09-02 00:55:40 | 48.33719 | 12.61152 | 86° | 78km/h | 17588m | -6.7m/s | -54.3°C | 4.0% | 84.9hPa | 2.4V | 00:00:00 | 02:26:29 | 00:00:00 | |
| OE5MMP-10 | 2026-09-02 00:55:39 | 48.33719 | 12.61123 | 91° | 69km/h | 17595m | -7.2m/s | -54.4°C | 4.0% | 84.8hPa | 2.4V | 00:00:00 | 02:26:28 | 00:00:00 | |
| OE3JTB-15 | 2026-09-02 00:55:38 | 48.33719 | 12.61093 | 95° | 60km/h | 17603m | -7.1m/s | -54.4°C | 4.1% | 84.7hPa | 2.4V | 00:00:00 | 00:00:00 | 00:00:00 | |
| DO7DH-14 | 2026-09-02 00:55:37 | 48.33722 | 12.61063 | 100° | 55km/h | 17610m | -7.2m/s | -54.5°C | 4.2% | 84.6hPa | 2.4V | 08:10:00 | 02:26:26 | 00:00:00 | |
| BAUMI2-15 | 2026-09-02 00:55:35 | 48.33731 | 12.61005 | 108° | 66km/h | 17624m | -7.0m/s | -54.6°C | 4.1% | 84.3hPa | 2.4V | 00:00:00 | 02:26:24 | 00:00:00 | |
| OE5WHR-10 | 2026-09-02 00:55:33 | 48.33744 | 12.60955 | 116° | 55km/h | 17638m | -6.8m/s | -54.6°C | 4.2% | 84.2hPa | 2.4V | 00:00:00 | 00:00:00 | 00:00:00 | |
| DO3MHA-11 | 2026-09-02 00:55:32 | 48.33751 | 12.60933 | 119° | 62km/h | 17645m | -6.5m/s | -54.7°C | 4.2% | 84.1hPa | 2.6V | 00:00:00 | 02:26:21 | 00:00:00 | |
| BAUMI2-15 | 2026-09-02 00:55:30 | 48.33765 | 12.60897 | 122° | 38km/h | 17659m | -6.8m/s | -54.7°C | 4.2% | 83.9hPa | 2.6V | 08:10:00 | 02:26:19 | 00:00:00 | |
| OE5MMP-10 | 2026-09-02 00:55:29 | 48.33771 | 12.60882 | 120° | 42km/h | 17665m | -6.9m/s | -54.6°C | 4.2% | 83.9hPa | 2.4V | 00:00:00 | 02:26:18 | 00:00:00 | |
| PETON7-10 | 2026-09-02 00:55:28 | 48.33775 | 12.60869 | 115° | 53km/h | 17673m | -7.2m/s | -54.4°C | 4.1% | 83.8hPa | 2.4V | 00:00:00 | 02:26:17 | 00:00:00 | |
| OE5DRO-10 | 2026-09-02 00:55:27 | 48.33780 | 12.60844 | 97° | 62km/h | 17687m | -6.8m/s | -54.1°C | 4.0% | 83.6hPa | 2.4V | 00:00:00 | 00:00:00 | 00:00:00 | |
| BAUMI2-15 | 2026-09-02 00:55:25 | 48.33780 | 12.60832 | 87° | 42km/h | 17694m | -7.2m/s | -54.1°C | 4.0% | 83.5hPa | 2.4V | 00:00:00 | 02:26:14 | 00:00:00 | |
| DG1MFX-10 | 2026-09-02 00:55:23 | 48.33780 | 12.60819 | 80° | 37km/h | 17701m | -6.9m/s | -54.0°C | 1.1% | 83.4hPa | 2.4V | 08:10:00 | 00:00:00 | 00:00:00 | |
| DL6DJ-15 | 2026-09-02 00:55:22 | 48.33770 | 12.60772 | 71° | 51km/h | 17722m | -6.7m/s | -53.6°C | 1.1% | 83.1hPa | 2.4V | 00:00:00 | 00:00:00 | 00:00:00 | |
| BAUMI2-15 | 2026-09-02 00:55:20 | 48.33766 | 12.60752 | 74° | 68km/h | 17728m | -6.8m/s | -53.6°C | 3.9% | 83.0hPa | 2.4V | 00:00:00 | 02:26:09 | 00:00:00 | |
| OE5MMP-10 | 2026-09-02 00:55:19 | 48.33762 | 12.60729 | 78° | 73km/h | 17735m | -7.1m/s | -53.6°C | 3.9% | 82.9hPa | 2.4V | 00:00:00 | 02:26:08 | 00:00:00 | |
| DO3MHA-11 | 2026-09-02 00:55:16 | 48.33756 | 12.60651 | 92° | 73km/h | 17756m | -6.4m/s | -53.6°C | 4.0% | 82.7hPa | 2.4V | 00:00:00 | 02:26:05 | 00:00:00 | |
| BAUMI2-15 | 2026-09-02 00:55:15 | 48.33758 | 12.60623 | 97° | 77km/h | 17762m | -6.6m/s | -53.6°C | 3.9% | 82.6hPa | 2.4V | 00:00:00 | 02:26:04 | 00:00:00 | |
| PETON7-10 | 2026-09-02 00:55:13 | 48.33765 | 12.60566 | 106° | 53km/h | 17776m | -6.7m/s | -53.4°C | 3.9% | 82.5hPa | 2.5V | 00:00:00 | 00:00:00 | 00:00:00 | |
| BAUMI2-15 | 2026-09-02 00:55:10 | 48.33787 | 12.60486 | 119° | 66km/h | 17797m | -7.0m/s | -53.4°C | 3.9% | 82.1hPa | 2.4V | 00:00:00 | 02:25:59 | 00:00:00 | |
| OE5MMP-10 | 2026-09-02 00:55:09 | 48.33796 | 12.60462 | 123° | 47km/h | 17804m | -7.4m/s | -53.4°C | 3.9% | 82.0hPa | 2.4V | 08:11:00 | 02:25:58 | 00:00:00 | |
| DO7DH-14 | 2026-09-02 00:55:07 | 48.33816 | 12.60421 | 130° | 47km/h | 17819m | -7.2m/s | -53.4°C | 4.0% | 81.8hPa | 2.5V | 00:00:00 | 02:25:56 | 00:00:00 | |
| BAUMI2-15 | 2026-09-02 00:55:05 | 48.33835 | 12.60390 | 136° | 38km/h | 17833m | -6.9m/s | -53.4°C | 4.0% | 81.6hPa | 2.5V | 00:00:00 | 02:25:54 | 00:00:00 | |
| OE5REO-15 | 2026-09-02 00:55:04 | 48.33835 | 12.60390 | 136° | 51km/h | 17833m | -7.0m/s | -53.4°C | 1.1% | 81.7hPa | 2.5V | 08:11:00 | 00:00:00 | 00:00:00 | |
| DG1MFX-10 | 2026-09-02 00:55:03 | 48.33843 | 12.60377 | 137° | 44km/h | 17840m | -6.6m/s | -53.4°C | 1.1% | 81.6hPa | 2.5V | 08:11:00 | 00:00:00 | 00:00:00 | |
| BAUMI2-15 | 2026-09-02 00:55:00 | 48.33863 | 12.60338 | 105° | 33km/h | 17867m | -7.1m/s | -53.3°C | 3.9% | 81.2hPa | 2.5V | 00:00:00 | 02:25:49 | 00:00:00 | |
| OE5HKT-10 | 2026-09-02 00:54:59 | 48.33864 | 12.60328 | 94° | 35km/h | 17874m | -6.9m/s | -53.3°C | 3.9% | 81.2hPa | 2.4V | 00:00:00 | 00:00:00 | 00:00:00 | |
| OE5FHM-15 | 2026-09-02 00:54:58 | 48.33864 | 12.60318 | 85° | 47km/h | 17881m | -6.9m/s | -53.3°C | 3.9% | 81.0hPa | 2.4V | 00:00:00 | 02:25:47 | 00:00:00 | |
| OE5DXL-15 | 2026-09-02 00:54:57 | 48.33862 | 12.60305 | 79° | 47km/h | 17888m | -7.3m/s | -53.3°C | 3.9% | 81.0hPa | 2.4V | 00:00:00 | 00:00:00 | 00:00:00 | |
| BAUMI2-15 | 2026-09-02 00:54:55 | 48.33857 | 12.60275 | 76° | 58km/h | 17903m | -7.2m/s | -53.2°C | 3.8% | 80.8hPa | 2.4V | 00:00:00 | 02:25:44 | 00:00:00 | |
| OM5KV | 2026-09-02 00:54:54 | 48.33854 | 12.60256 | 77° | 53km/h | 17910m | -7.5m/s | -53.0°C | 1.0% | 80.7hPa | 2.4V | 08:11:00 | 00:00:00 | 00:00:00 | |
| PG1ADW-2 | 2026-09-02 00:54:53 | 48.33851 | 12.60235 | 79° | 51km/h | 17917m | -7.2m/s | -52.7°C | 3.7% | 80.6hPa | 2.4V | 00:00:00 | 00:00:00 | 00:00:00 | |
| OE5WHR-10 | 2026-09-02 00:54:51 | 48.33847 | 12.60187 | 87° | 47km/h | 17932m | -6.8m/s | -52.6°C | 3.7% | 80.4hPa | 2.4V | 00:00:00 | 02:25:40 | 00:00:00 | |
| BAUMI2-15 | 2026-09-02 00:54:50 | 48.33847 | 12.60161 | 92° | 71km/h | 17939m | -6.8m/s | -52.7°C | 3.8% | 80.3hPa | 2.4V | 00:00:00 | 02:25:39 | 00:00:00 | |
| OE5MMP-10 | 2026-09-02 00:54:49 | 48.33848 | 12.60134 | 98° | 62km/h | 17945m | -6.9m/s | -52.7°C | 3.8% | 80.3hPa | 2.4V | 00:00:00 | 02:25:38 | 00:00:00 | |
| OM5KV | 2026-09-02 00:54:48 | 48.33848 | 12.60134 | 99° | 71km/h | 17945m | -7.0m/s | -52.7°C | 1.0% | 80.3hPa | 2.4V | 08:11:00 | 00:00:00 | 00:00:00 | |
| BAUMI2-15 | 2026-09-02 00:54:45 | 48.33870 | 12.60034 | 119° | 58km/h | 17973m | -6.8m/s | -52.8°C | 3.9% | 79.9hPa | 2.4V | 08:11:00 | 02:25:34 | 00:00:00 | |
| PETON7-10 | 2026-09-02 00:54:43 | 48.33887 | 12.59995 | 128° | 35km/h | 17987m | -7.1m/s | -52.7°C | 3.8% | 79.7hPa | 2.4V | 00:00:00 | 02:25:32 | 00:00:00 | |
| DG1MFX-10 | 2026-09-02 00:54:42 | 48.33887 | 12.59995 | 128° | 58km/h | 17987m | -7.1m/s | -52.8°C | 1.1% | 79.8hPa | 2.4V | 08:11:00 | 00:00:00 | 00:00:00 | |
| BAUMI2-15 | 2026-09-02 00:54:40 | 48.33913 | 12.59952 | 139° | 31km/h | 18009m | -7.4m/s | -52.5°C | 3.7% | 79.4hPa | 2.4V | 00:00:00 | 02:25:29 | 00:00:00 | |
| OE5MMP-10 | 2026-09-02 00:54:39 | 48.33921 | 12.59942 | 141° | 27km/h | 18016m | -7.5m/s | -52.5°C | 3.7% | 79.3hPa | 2.4V | 00:00:00 | 02:25:28 | 00:00:00 | |
| DO7DH-14 | 2026-09-02 00:54:37 | 48.33933 | 12.59927 | 140° | 31km/h | 18031m | -7.2m/s | -52.5°C | 3.7% | 79.2hPa | 2.5V | 00:00:00 | 02:25:26 | 00:00:00 | |
| OE5HKT-10 | 2026-09-02 00:54:36 | 48.33936 | 12.59922 | 129° | 13km/h | 18039m | -7.2m/s | -52.5°C | 3.7% | 79.1hPa | 2.5V | 00:00:00 | 02:25:25 | 00:00:00 | |
| BAUMI2-15 | 2026-09-02 00:54:35 | 48.33938 | 12.59917 | 105° | 24km/h | 18046m | -7.3m/s | -52.4°C | 3.7% | 79.0hPa | 2.5V | 00:00:00 | 02:25:24 | 00:00:00 | |
| OE5REO-15 | 2026-09-02 00:54:34 | 48.33938 | 12.59917 | 106° | 15km/h | 18046m | -7.3m/s | -52.4°C | 1.0% | 79.0hPa | 2.5V | 08:11:00 | 00:00:00 | 00:00:00 | |
| PG1ADW-2 | 2026-09-02 00:54:33 | 48.33937 | 12.59904 | 67° | 42km/h | 18060m | -6.9m/s | -52.2°C | 3.6% | 78.8hPa | 2.5V | 00:00:00 | 00:00:00 | 00:00:00 | |
| OM5KV | 2026-09-02 00:54:31 | 48.33934 | 12.59895 | 65° | 29km/h | 18067m | -7.4m/s | -52.2°C | 1.0% | 78.8hPa | 2.4V | 08:11:00 | 00:00:00 | 00:00:00 | |
| OE5WHR-10 | 2026-09-02 00:54:30 | 48.33927 | 12.59871 | 69° | 37km/h | 18081m | -7.0m/s | -52.2°C | 3.6% | 78.6hPa | 2.4V | 08:11:00 | 00:00:00 | 00:00:00 | |
| OE5MMP-10 | 2026-09-02 00:54:29 | 48.33923 | 12.59855 | 74° | 53km/h | 18088m | -7.2m/s | -52.2°C | 3.6% | 78.5hPa | 2.4V | 00:00:00 | 02:25:18 | 00:00:00 | |
| PETON7-10 | 2026-09-02 00:54:28 | 48.33921 | 12.59837 | 79° | 44km/h | 18095m | -6.8m/s | -52.2°C | 3.6% | 78.4hPa | 2.4V | 08:11:00 | 00:00:00 | 00:00:00 | |
| OE5DXL-15 | 2026-09-02 00:54:27 | 48.33918 | 12.59818 | 84° | 37km/h | 18102m | -7.0m/s | -52.2°C | 3.7% | 78.3hPa | 2.6V | 00:00:00 | 00:00:00 | 00:00:00 | |
| BAUMI2-15 | 2026-09-02 00:54:25 | 48.33918 | 12.59774 | 93° | 57km/h | 18116m | -6.9m/s | -52.1°C | 3.6% | 78.1hPa | 2.4V | 00:00:00 | 02:25:14 | 00:00:00 | |
| DG1MFX-10 | 2026-09-02 00:54:22 | 48.33925 | 12.59710 | 109° | 55km/h | 18138m | -6.8m/s | -52.0°C | 1.0% | 77.9hPa | 2.4V | 08:12:00 | 00:00:00 | 00:00:00 | |
| DO3MHA-11 | 2026-09-02 00:54:21 | 48.33930 | 12.59691 | 114° | 35km/h | 18145m | -6.7m/s | -51.9°C | 3.5% | 77.8hPa | 2.4V | 00:00:00 | 02:25:10 | 00:00:00 | |
| BAUMI2-15 | 2026-09-02 00:54:20 | 48.33935 | 12.59675 | 120° | 44km/h | 18151m | -6.5m/s | -52.0°C | 3.5% | 77.8hPa | 2.4V | 00:00:00 | 02:25:09 | 00:00:00 | |
| OE5MMP-10 | 2026-09-02 00:54:19 | 48.33941 | 12.59661 | 126° | 20km/h | 18158m | -6.7m/s | -52.0°C | 3.5% | 77.7hPa | 2.4V | 00:00:00 | 02:25:08 | 00:00:00 | |
| OE5REO-15 | 2026-09-02 00:54:18 | 48.33941 | 12.59661 | 126° | 40km/h | 18158m | -6.7m/s | -52.0°C | 1.0% | 77.7hPa | 2.4V | 08:12:00 | 00:00:00 | 00:00:00 | |
| OM5KV | 2026-09-02 00:54:15 | 48.33958 | 12.59635 | 144° | 26km/h | 18178m | -6.9m/s | -52.2°C | 1.0% | 77.4hPa | 2.4V | 08:12:00 | 00:00:00 | 00:00:00 | |
| PETON7-10 | 2026-09-02 00:54:13 | 48.33971 | 12.59625 | 160° | 29km/h | 18201m | -7.7m/s | -52.3°C | 3.6% | 77.1hPa | 2.4V | 00:00:00 | 00:00:00 | 00:00:00 | |
| OE3JTB-15 | 2026-09-02 00:54:11 | 48.33974 | 12.59623 | 168° | 33km/h | 18217m | -8.0m/s | -52.3°C | 3.6% | 76.9hPa | 2.4V | 00:00:00 | 00:00:00 | 00:00:00 | |
| OE5WHR-10 | 2026-09-02 00:54:09 | 48.33972 | 12.59622 | 9° | 42km/h | 18232m | -7.5m/s | -52.3°C | 3.6% | 76.7hPa | 2.4V | 00:00:00 | 00:00:00 | 00:00:00 | |
| OM5KV | 2026-09-02 00:54:08 | 48.33972 | 12.59622 | 9° | 11km/h | 18232m | -7.6m/s | -52.3°C | 1.0% | 76.8hPa | 2.4V | 08:12:00 | 00:00:00 | 00:00:00 | |
| DO7DH-14 | 2026-09-02 00:54:07 | 48.33964 | 12.59619 | 21° | 37km/h | 18247m | -7.1m/s | -52.3°C | 3.6% | 76.5hPa | 2.4V | 00:00:00 | 02:24:56 | 00:00:00 | |
| OM5KV | 2026-09-02 00:54:04 | 48.33951 | 12.59608 | 36° | 35km/h | 18261m | -7.3m/s | -52.3°C | 1.0% | 76.5hPa | 2.4V | 08:12:00 | 00:00:00 | 00:00:00 | |
| OM5KV | 2026-09-02 00:54:02 | 48.33937 | 12.59589 | 50° | 42km/h | 18276m | -7.2m/s | -52.3°C | 1.0% | 76.3hPa | 2.4V | 08:12:00 | 00:00:00 | 00:00:00 | |
| DG1MFX-10 | 2026-09-02 00:54:01 | 48.33930 | 12.59576 | 57° | 46km/h | 18283m | -7.3m/s | -52.3°C | 1.0% | 76.2hPa | 2.4V | 08:12:00 | 00:00:00 | 00:00:00 | |
| OE5MMP-10 | 2026-09-02 00:53:59 | 48.33915 | 12.59525 | 77° | 49km/h | 18305m | -7.6m/s | -52.3°C | 3.6% | 75.9hPa | 2.4V | 00:00:00 | 02:24:48 | 00:00:00 | |
| PETON7-10 | 2026-09-02 00:53:58 | 48.33913 | 12.59505 | 83° | 37km/h | 18313m | -7.4m/s | -52.4°C | 3.6% | 75.8hPa | 2.4V | 00:00:00 | 02:24:47 | 00:00:00 | |
| OE5DXL-15 | 2026-09-02 00:53:57 | 48.33912 | 12.59484 | 90° | 42km/h | 18320m | -7.5m/s | -52.4°C | 3.5% | 75.7hPa | 2.4V | 00:00:00 | 00:00:00 | 00:00:00 | |
| OM5KV | 2026-09-02 00:53:56 | 48.33912 | 12.59484 | 91° | 55km/h | 18320m | -7.6m/s | -52.5°C | 1.0% | 75.7hPa | 2.4V | 08:12:00 | 00:00:00 | 00:00:00 | |
| PG1ADW-2 | 2026-09-02 00:53:53 | 48.33924 | 12.59407 | 118° | 35km/h | 18350m | -7.8m/s | -52.6°C | 3.6% | 75.3hPa | 2.4V | 00:00:00 | 02:24:42 | 00:00:00 | |
| OE5DRO-10 | 2026-09-02 00:53:52 | 48.33937 | 12.59378 | 130° | 35km/h | 18366m | -7.4m/s | -52.7°C | 3.6% | 75.1hPa | 2.4V | 00:00:00 | 00:00:00 | 00:00:00 | |
| OM5KV | 2026-09-02 00:53:51 | 48.33937 | 12.59378 | 131° | 42km/h | 18366m | -7.5m/s | -52.7°C | 1.0% | 75.2hPa | 2.4V | 08:12:00 | 00:00:00 | 00:00:00 | |
| OE5MMP-10 | 2026-09-02 00:53:49 | 48.33949 | 12.59359 | 139° | 22km/h | 18381m | -7.1m/s | -52.8°C | 3.8% | 75.0hPa | 2.4V | 00:00:00 | 02:24:38 | 00:00:00 | |
| OE5WHR-10 | 2026-09-02 00:53:48 | 48.33954 | 12.59353 | 139° | 40km/h | 18388m | -7.0m/s | -52.8°C | 3.8% | 74.9hPa | 2.4V | 00:00:00 | 02:24:37 | 00:00:00 | |
| OE5REO-15 | 2026-09-02 00:53:47 | 48.33957 | 12.59348 | 129° | 13km/h | 18395m | -7.4m/s | -52.9°C | 1.0% | 74.9hPa | 2.4V | 08:12:00 | 00:00:00 | 00:00:00 | |
| OM5KV | 2026-09-02 00:53:46 | 48.33957 | 12.59348 | 129° | 13km/h | 18395m | -7.4m/s | 0°C | 0% | 74.9hPa | 2.4V | 08:12:00 | 00:00:00 | 00:00:00 | |
| OM5KV | 2026-09-02 00:53:45 | 48.33958 | 12.59344 | 99° | 9km/h | 18402m | -6.9m/s | 0°C | 0% | 74.8hPa | 2.4V | 08:12:00 | 00:00:00 | 00:00:00 | |
| OE5HKT-10 | 2026-09-02 00:53:44 | 48.33956 | 12.59337 | 42° | 22km/h | 18416m | -7.5m/s | -53.0°C | 3.8% | 74.6hPa | 2.4V | 00:00:00 | 00:00:00 | 00:00:00 | |
| PETON7-10 | 2026-09-02 00:53:43 | 48.33952 | 12.59332 | 36° | 47km/h | 18424m | -7.4m/s | -53.0°C | 3.8% | 74.5hPa | 2.4V | 00:00:00 | 00:00:00 | 00:00:00 | |
| OE3JTB-15 | 2026-09-02 00:53:42 | 48.33947 | 12.59327 | 37° | 37km/h | 18431m | -7.6m/s | -53.0°C | 3.7% | 74.4hPa | 2.4V | 00:00:00 | 02:24:31 | 00:00:00 | |
| OM5KV | 2026-09-02 00:53:40 | 48.33941 | 12.59320 | 39° | 33km/h | 18439m | -8.0m/s | 0°C | 0% | 74.4hPa | 2.4V | 08:12:00 | 00:00:00 | 00:00:00 | |
| OE5MMP-10 | 2026-09-02 00:53:39 | 48.33926 | 12.59301 | 46° | 55km/h | 18454m | -7.6m/s | -53.2°C | 3.7% | 74.1hPa | 2.4V | 08:12:00 | 02:24:28 | 00:00:00 | |
| DO7DH-14 | 2026-09-02 00:53:37 | 48.33911 | 12.59273 | 55° | 37km/h | 18470m | -7.5m/s | -53.2°C | 3.7% | 73.9hPa | 2.4V | 00:00:00 | 02:24:26 | 00:00:00 | |
| OM5KV | 2026-09-02 00:53:34 | 48.33897 | 12.59238 | 65° | 57km/h | 18485m | -7.5m/s | 0°C | 0% | 73.8hPa | 2.4V | 00:00:00 | 00:00:00 | 00:00:00 | |
| PG1ADW-2 | 2026-09-02 00:53:33 | 48.33887 | 12.59196 | 77° | 33km/h | 18499m | -7.2m/s | -52.9°C | 3.7% | 73.6hPa | 2.4V | 00:00:00 | 00:00:00 | 00:00:00 | |
| OE5REO-15 | 2026-09-02 00:53:31 | 48.33884 | 12.59175 | 85° | 58km/h | 18507m | -7.5m/s | -53.0°C | 1.0% | 73.6hPa | 2.4V | 08:13:00 | 00:00:00 | 00:00:00 | |
| OM5KV | 2026-09-02 00:53:29 | 48.33886 | 12.59111 | 103° | 53km/h | 18529m | -7.6m/s | 0°C | 0% | 0hPa | 2.4V | 00:00:00 | 00:00:00 | 00:00:00 | |
| OE5FHM-15 | 2026-09-02 00:53:28 | 48.33890 | 12.59092 | 109° | 31km/h | 18536m | -7.3m/s | -53.1°C | 3.8% | 73.2hPa | 2.4V | 00:00:00 | 02:24:17 | 00:00:00 | |
| OE5WHR-10 | 2026-09-02 00:53:27 | 48.33894 | 12.59075 | 115° | 27km/h | 18544m | -7.5m/s | -53.2°C | 3.8% | 73.1hPa | 2.4V | 00:00:00 | 00:00:00 | 00:00:00 | |
| OE5DXL-15 | 2026-09-02 00:53:25 | 48.33905 | 12.59046 | 127° | 29km/h | 18559m | -7.7m/s | -53.3°C | 3.8% | 73.0hPa | 2.5V | 00:00:00 | 00:00:00 | 00:00:00 | |
| DO3MHA-11 | 2026-09-02 00:53:22 | 48.33923 | 12.59020 | 147° | 16km/h | 18582m | -7.5m/s | -53.4°C | 3.8% | 72.7hPa | 2.5V | 00:00:00 | 02:24:11 | 00:00:00 | |
| OE5MMP-10 | 2026-09-02 00:53:19 | 48.33934 | 12.59012 | 175° | 18km/h | 18603m | -7.5m/s | -53.5°C | 3.9% | 72.4hPa | 2.5V | 00:00:00 | 02:24:08 | 00:00:00 | |
| DL6DJ-15 | 2026-09-02 00:53:17 | 48.33937 | 12.59013 | 276° | 2km/h | 18618m | -7.6m/s | -53.6°C | 1.1% | 72.3hPa | 2.5V | 00:00:00 | 00:00:00 | 00:00:00 | |
| OE5REO-15 | 2026-09-02 00:53:16 | 48.33936 | 12.59014 | 350° | 5km/h | 18626m | -7.7m/s | -53.6°C | 1.1% | 72.2hPa | 2.5V | 08:13:00 | 00:00:00 | 00:00:00 | |
| PG1ADW-2 | 2026-09-02 00:53:13 | 48.33925 | 12.59011 | 20° | 35km/h | 18649m | -7.6m/s | -53.4°C | 3.9% | 71.9hPa | 2.5V | 00:00:00 | 00:00:00 | 00:00:00 | |
| DO3MHA-11 | 2026-09-02 00:53:11 | 48.33912 | 12.59001 | 34° | 40km/h | 18664m | -7.5m/s | -53.3°C | 3.8% | 71.7hPa | 2.5V | 00:00:00 | 02:24:00 | 00:00:00 | |
| OE5MMP-10 | 2026-09-02 00:53:09 | 48.33898 | 12.58983 | 48° | 44km/h | 18680m | -7.9m/s | -53.3°C | 3.8% | 71.6hPa | 2.4V | 00:00:00 | 02:23:58 | 00:00:00 | |
| DO7DH-14 | 2026-09-02 00:53:07 | 48.33885 | 12.58955 | 62° | 35km/h | 18696m | -7.6m/s | -53.3°C | 3.8% | 71.4hPa | 2.4V | 00:00:00 | 02:23:56 | 00:00:00 | |
| OE5WHR-10 | 2026-09-02 00:53:06 | 48.33880 | 12.58939 | 70° | 29km/h | 18703m | -7.6m/s | -53.3°C | 3.8% | 71.3hPa | 2.4V | 00:00:00 | 00:00:00 | 00:00:00 | |
| OM5KV | 2026-09-02 00:53:05 | 48.33880 | 12.58939 | 70° | 47km/h | 18703m | -7.7m/s | 0°C | 0% | 0hPa | 2.4V | 00:00:00 | 00:00:00 | 00:00:00 | |
| DF3TZ-5 | 2026-09-02 00:53:01 | 48.33893 | 12.58811 | 359° | 24km/h | 18832m | -7.6m/s | 0°C | -1.0% | -1.0hPa | 2.4V | 00:00:00 | 00:00:00 | 00:00:00 | |
| DL6DJ-15 | 2026-09-02 00:52:46 | 48.33868 | 12.58802 | 26° | 38km/h | 18855m | -7.4m/s | -53.1°C | 1.0% | 69.7hPa | 2.4V | 00:00:00 | 00:00:00 | 00:00:00 | |
| OE5WHR-10 | 2026-09-02 00:52:45 | 48.33859 | 12.58794 | 35° | 33km/h | 18862m | -7.4m/s | -53.1°C | 3.7% | 69.6hPa | 2.4V | 00:00:00 | 02:23:34 | 00:00:00 | |
| OE3JTB-15 | 2026-09-02 00:52:44 | 48.33842 | 12.58770 | 51° | 33km/h | 18877m | -7.3m/s | -53.2°C | 3.7% | 69.4hPa | 2.4V | 00:00:00 | 00:00:00 | 00:00:00 | |
| PETON7-10 | 2026-09-02 00:52:43 | 48.33842 | 12.58770 | 51° | 38km/h | 18877m | -7.3m/s | -53.2°C | 3.7% | 69.4hPa | 2.4V | 00:00:00 | 00:00:00 | 00:00:00 | |
| OE5MMP-10 | 2026-09-02 00:52:39 | 48.33822 | 12.58702 | 83° | 35km/h | 18908m | -7.7m/s | -53.2°C | 3.7% | 69.1hPa | 2.4V | 00:00:00 | 02:23:28 | 00:00:00 | |
| DG1MFX-10 | 2026-09-02 00:52:38 | 48.33822 | 12.58702 | 83° | 49km/h | 18908m | -7.8m/s | -53.3°C | 1.1% | 69.1hPa | 2.6V | 08:14:00 | 00:00:00 | 00:00:00 | |
| DO7DH-14 | 2026-09-02 00:52:37 | 48.33822 | 12.58667 | 97° | 29km/h | 18924m | -7.4m/s | -53.3°C | 3.7% | 68.9hPa | 2.6V | 00:00:00 | 02:23:26 | 00:00:00 | |
| OE5DRO-10 | 2026-09-02 00:52:35 | 48.33832 | 12.58624 | 122° | 26km/h | 18946m | -7.8m/s | -53.3°C | 3.7% | 68.7hPa | 2.4V | 00:00:00 | 00:00:00 | 00:00:00 | |
| PG1ADW-2 | 2026-09-02 00:52:33 | 48.33836 | 12.58613 | 130° | 29km/h | 18954m | -7.5m/s | -53.3°C | 3.7% | 68.6hPa | 2.4V | 08:13:00 | 02:23:22 | 00:00:00 | |
| DO3MHA-11 | 2026-09-02 00:52:32 | 48.33842 | 12.58605 | 138° | 16km/h | 18962m | -7.9m/s | -53.3°C | 3.7% | 68.5hPa | 2.4V | 00:00:00 | 02:23:21 | 00:00:00 | |
| DF3TZ-5 | 2026-09-02 00:52:30 | 48.33855 | 12.58594 | 171° | 11km/h | 18986m | -8.1m/s | 0°C | -1.0% | -1.0hPa | 2.4V | 00:00:00 | 00:00:00 | 00:00:00 | |
| OE5MMP-10 | 2026-09-02 00:52:29 | 48.33855 | 12.58594 | 172° | 18km/h | 18986m | -8.1m/s | -53.4°C | 3.7% | 68.2hPa | 2.4V | 00:00:00 | 02:23:18 | 00:00:00 | |
| PETON7-10 | 2026-09-02 00:52:28 | 48.33857 | 12.58594 | 193° | 31km/h | 18994m | -8.0m/s | -53.5°C | 3.7% | 68.2hPa | 2.4V | 00:00:00 | 02:23:17 | 00:00:00 | |
| OE5DXL-15 | 2026-09-02 00:52:26 | 48.33858 | 12.58597 | 312° | 31km/h | 19010m | -7.9m/s | -53.6°C | 3.8% | 68.0hPa | 2.4V | 00:00:00 | 00:00:00 | 00:00:00 | |
| OE5WHR-10 | 2026-09-02 00:52:24 | 48.33851 | 12.58600 | 353° | 40km/h | 19026m | -7.6m/s | -53.7°C | 3.8% | 67.8hPa | 2.4V | 00:00:00 | 00:00:00 | 00:00:00 | |
| DO3MHA-11 | 2026-09-02 00:52:22 | 48.33839 | 12.58599 | 14° | 44km/h | 19041m | -8.1m/s | -53.8°C | 3.8% | 67.6hPa | 2.4V | 08:13:00 | 02:23:11 | 00:00:00 | |
| OE5MMP-10 | 2026-09-02 00:52:19 | 48.33815 | 12.58580 | 40° | 47km/h | 19066m | -8.3m/s | -54.0°C | 3.9% | 67.4hPa | 2.4V | 00:00:00 | 02:23:08 | 00:00:00 | |
| OE5DRO-10 | 2026-09-02 00:52:17 | 48.33795 | 12.58540 | 66° | 31km/h | 19089m | -7.7m/s | -54.2°C | 4.0% | 67.1hPa | 2.4V | 00:00:00 | 00:00:00 | 00:00:00 | |
| DL6DJ-15 | 2026-09-02 00:52:15 | 48.33790 | 12.58523 | 72° | 49km/h | 19097m | -7.8m/s | -54.3°C | 1.1% | 67.1hPa | 2.4V | 00:00:00 | 00:00:00 | 00:00:00 | |
| PETON7-10 | 2026-09-02 00:52:13 | 48.33786 | 12.58486 | 89° | 29km/h | 19112m | -8.2m/s | -54.3°C | 4.0% | 66.9hPa | 2.4V | 08:14:00 | 00:00:00 | 00:00:00 | |
| DO3MHA-11 | 2026-09-02 00:52:12 | 48.33786 | 12.58467 | 95° | 37km/h | 19120m | -8.0m/s | -54.3°C | 4.0% | 66.8hPa | 2.4V | 00:00:00 | 02:23:01 | 00:00:00 | |
| BAUMI2-15 | 2026-09-02 00:52:11 | 48.33788 | 12.58449 | 103° | 44km/h | 19129m | -8.1m/s | -54.4°C | 4.0% | 66.7hPa | 2.4V | 00:00:00 | 02:23:00 | 00:00:00 | |
| OE5MMP-10 | 2026-09-02 00:52:09 | 48.33797 | 12.58416 | 119° | 24km/h | 19145m | -8.2m/s | -54.5°C | 4.1% | 66.5hPa | 2.6V | 08:14:00 | 02:22:58 | 00:00:00 | |
| BAUMI2-15 | 2026-09-02 00:52:06 | 48.33816 | 12.58381 | 143° | 20km/h | 19170m | -8.4m/s | -54.6°C | 4.1% | 66.3hPa | 2.4V | 00:00:00 | 02:22:55 | 00:00:00 | |
| OE5WHR-10 | 2026-09-02 00:52:03 | 48.33832 | 12.58369 | 173° | 33km/h | 19193m | -7.4m/s | -54.7°C | 4.1% | 66.0hPa | 2.4V | 00:00:00 | 00:00:00 | 00:00:00 | |
| DF3TZ-5 | 2026-09-02 00:51:59 | 48.33829 | 12.58374 | 2° | 18km/h | 19232m | -8.2m/s | 0°C | -1.0% | -1.0hPa | 2.4V | 00:00:00 | 00:00:00 | 00:00:00 | |
| OE5FHM-15 | 2026-09-02 00:51:58 | 48.33829 | 12.58374 | 3° | 33km/h | 19233m | -8.2m/s | -54.9°C | 4.3% | 65.6hPa | 2.4V | 00:00:00 | 02:22:47 | 00:00:00 | |
| OE5DRO-10 | 2026-09-02 00:51:57 | 48.33818 | 12.58369 | 26° | 40km/h | 19249m | -8.6m/s | -54.9°C | 4.3% | 65.5hPa | 2.4V | 00:00:00 | 00:00:00 | 00:00:00 | |
| BAUMI2-15 | 2026-09-02 00:51:56 | 48.33818 | 12.58369 | 26° | 37km/h | 19249m | -8.6m/s | -54.9°C | 4.3% | 65.5hPa | 2.4V | 08:14:00 | 02:22:45 | 00:00:00 | |
| PG1ADW-2 | 2026-09-02 00:51:53 | 48.33798 | 12.58344 | 54° | 37km/h | 19274m | -7.9m/s | -54.6°C | 4.3% | 65.2hPa | 2.4V | 00:00:00 | 00:00:00 | 00:00:00 | |
| DO3MHA-11 | 2026-09-02 00:51:51 | 48.33788 | 12.58314 | 73° | 47km/h | 19289m | -7.5m/s | -54.4°C | 4.2% | 65.0hPa | 2.4V | 00:00:00 | 02:22:40 | 00:00:00 | |
| OE5MMP-10 | 2026-09-02 00:51:49 | 48.33784 | 12.58277 | 91° | 44km/h | 19305m | -8.3m/s | -54.2°C | 4.1% | 64.9hPa | 2.4V | 00:00:00 | 02:22:38 | 00:00:00 | |
| DL6DJ-15 | 2026-09-02 00:51:44 | 48.33806 | 12.58192 | 132° | 44km/h | 19345m | -8.0m/s | -53.7°C | 1.0% | 64.5hPa | 2.4V | 00:00:00 | 00:00:00 | 00:00:00 | |
| PETON7-10 | 2026-09-02 00:51:43 | 48.33814 | 12.58181 | 142° | 24km/h | 19354m | -8.2m/s | -53.6°C | 3.8% | 64.4hPa | 2.4V | 00:00:00 | 02:22:32 | 00:00:00 | |
| OE5WHR-10 | 2026-09-02 00:51:42 | 48.33822 | 12.58173 | 152° | 27km/h | 19362m | -7.9m/s | -53.5°C | 3.7% | 64.3hPa | 2.4V | 00:00:00 | 02:22:31 | 00:00:00 | |
| DO3MHA-11 | 2026-09-02 00:51:41 | 48.33830 | 12.58168 | 162° | 35km/h | 19369m | -7.6m/s | -53.5°C | 3.8% | 64.2hPa | 2.4V | 00:00:00 | 02:22:30 | 00:00:00 | |
| OE5MMP-10 | 2026-09-02 00:51:39 | 48.33844 | 12.58165 | 183° | 18km/h | 19385m | -8.0m/s | -53.5°C | 3.8% | 64.1hPa | 2.4V | 00:00:00 | 02:22:28 | 00:00:00 | |
| DG1MFX-10 | 2026-09-02 00:51:37 | 48.33850 | 12.58166 | 196° | 20km/h | 19393m | -7.9m/s | -53.6°C | 1.1% | 64.0hPa | 2.4V | 08:15:00 | 00:00:00 | 00:00:00 | |
| BAUMI2-15 | 2026-09-02 00:51:36 | 48.33857 | 12.58172 | 229° | 13km/h | 19409m | -8.2m/s | -53.6°C | 3.7% | 63.8hPa | 2.4V | 00:00:00 | 02:22:25 | 00:00:00 | |
| PG1ADW-2 | 2026-09-02 00:51:33 | 48.33857 | 12.58184 | 325° | 33km/h | 19433m | -8.2m/s | -53.8°C | 3.8% | 63.6hPa | 2.4V | 00:00:00 | 00:00:00 | 00:00:00 | |
| OE5HKT-10 | 2026-09-02 00:51:32 | 48.33854 | 12.58186 | 350° | 31km/h | 19442m | -8.4m/s | -53.9°C | 3.7% | 63.5hPa | 2.4V | 00:00:00 | 02:22:21 | 00:00:00 | |
| BAUMI2-15 | 2026-09-02 00:51:31 | 48.33849 | 12.58186 | 8° | 29km/h | 19450m | -8.2m/s | -54.0°C | 3.8% | 63.4hPa | 2.4V | 00:00:00 | 02:22:20 | 00:00:00 | |
| OE5MMP-10 | 2026-09-02 00:51:29 | 48.33837 | 12.58179 | 35° | 40km/h | 19466m | -8.5m/s | -54.1°C | 3.8% | 63.2hPa | 2.4V | 00:00:00 | 02:22:18 | 00:00:00 | |
| PETON7-10 | 2026-09-02 00:51:28 | 48.33831 | 12.58171 | 46° | 37km/h | 19475m | -8.2m/s | -54.2°C | 3.8% | 63.2hPa | 2.4V | 00:00:00 | 00:00:00 | 00:00:00 | |
| BAUMI2-15 | 2026-09-02 00:51:26 | 48.33821 | 12.58148 | 66° | 42km/h | 19491m | -8.3m/s | -54.3°C | 3.9% | 63.0hPa | 2.4V | 00:00:00 | 02:22:15 | 00:00:00 | |
| OE5REO-15 | 2026-09-02 00:51:25 | 48.33821 | 12.58148 | 67° | 40km/h | 19491m | -8.4m/s | -54.4°C | 1.1% | 63.1hPa | 2.4V | 08:15:00 | 00:00:00 | 00:00:00 | |
| OE5WHR-10 | 2026-09-02 00:51:21 | 48.33821 | 12.58070 | 117° | 29km/h | 19532m | -7.8m/s | -54.7°C | 4.0% | 62.6hPa | 2.4V | 08:14:00 | 00:00:00 | 00:00:00 | |
| OE5DRO-10 | 2026-09-02 00:51:20 | 48.33833 | 12.58047 | 139° | 27km/h | 19547m | -7.8m/s | -54.8°C | 4.1% | 62.5hPa | 2.4V | 00:00:00 | 00:00:00 | 00:00:00 | |
| OE5MMP-10 | 2026-09-02 00:51:19 | 48.33833 | 12.58047 | 139° | 26km/h | 19547m | -7.8m/s | -54.8°C | 4.1% | 62.5hPa | 2.4V | 00:00:00 | 02:22:08 | 00:00:00 | |
| OE3JTB-15 | 2026-09-02 00:51:17 | 48.33847 | 12.58034 | 163° | 29km/h | 19564m | -8.0m/s | -54.9°C | 4.1% | 62.3hPa | 2.4V | 00:00:00 | 00:00:00 | 00:00:00 | |
| BAUMI2-15 | 2026-09-02 00:51:16 | 48.33855 | 12.58032 | 175° | 24km/h | 19572m | -8.1m/s | -54.9°C | 4.0% | 62.2hPa | 2.4V | 00:00:00 | 02:22:05 | 00:00:00 | |
| DO3MHA-11 | 2026-09-02 00:51:15 | 48.33862 | 12.58032 | 186° | 22km/h | 19580m | -8.3m/s | -54.9°C | 4.0% | 62.1hPa | 2.4V | 00:00:00 | 02:22:04 | 00:00:00 | |
| PETON7-10 | 2026-09-02 00:51:13 | 48.33873 | 12.58037 | 214° | 27km/h | 19597m | -8.2m/s | -55.1°C | 4.1% | 62.0hPa | 2.4V | 00:00:00 | 00:00:00 | 00:00:00 | |
| BAUMI2-15 | 2026-09-02 00:51:11 | 48.33880 | 12.58049 | 253° | 20km/h | 19613m | -8.1m/s | -55.2°C | 4.1% | 61.8hPa | 2.4V | 08:15:00 | 02:22:00 | 00:00:00 | |
| OE5MMP-10 | 2026-09-02 00:51:09 | 48.33879 | 12.58064 | 292° | 29km/h | 19629m | -7.8m/s | -55.2°C | 4.2% | 61.7hPa | 2.4V | 00:00:00 | 02:21:58 | 00:00:00 | |
| BAUMI2-15 | 2026-09-02 00:51:06 | 48.33867 | 12.58080 | 340° | 31km/h | 19653m | -8.3m/s | -55.4°C | 4.2% | 61.4hPa | 2.4V | 00:00:00 | 02:21:55 | 00:00:00 | |
| DO3MHA-11 | 2026-09-02 00:51:05 | 48.33860 | 12.58083 | 352° | 37km/h | 19661m | -8.1m/s | -55.4°C | 4.2% | 61.3hPa | 2.4V | 00:00:00 | 02:21:54 | 00:00:00 | |
| DO7DH-14 | 2026-09-02 00:51:03 | 48.33845 | 12.58082 | 15° | 33km/h | 19678m | -8.4m/s | -55.5°C | 4.3% | 61.2hPa | 2.4V | 08:15:00 | 02:21:52 | 00:00:00 | |
| BAUMI2-15 | 2026-09-02 00:51:01 | 48.33829 | 12.58070 | 36° | 40km/h | 19694m | -8.2m/s | -55.6°C | 4.3% | 61.1hPa | 2.4V | 00:00:00 | 02:21:50 | 00:00:00 | |
| OE5WHR-10 | 2026-09-02 00:51:00 | 48.33821 | 12.58061 | 47° | 29km/h | 19702m | -8.2m/s | -55.7°C | 4.3% | 60.9hPa | 2.4V | 00:00:00 | 00:00:00 | 00:00:00 | |
| OE5MMP-10 | 2026-09-02 00:50:59 | 48.33815 | 12.58049 | 57° | 38km/h | 19711m | -8.4m/s | -55.7°C | 4.3% | 60.8hPa | 2.4V | 00:00:00 | 02:21:48 | 00:00:00 | |
| OE5FHM-15 | 2026-09-02 00:50:58 | 48.33810 | 12.58036 | 66° | 38km/h | 19719m | -8.2m/s | -55.8°C | 4.3% | 60.8hPa | 2.4V | 00:00:00 | 02:21:47 | 00:00:00 | |
| OE5DXL-15 | 2026-09-02 00:50:56 | 48.33805 | 12.57990 | 97° | 35km/h | 19744m | -8.5m/s | -55.9°C | 4.4% | 60.6hPa | 2.4V | 00:00:00 | 00:00:00 | 00:00:00 | |
| DO3MHA-11 | 2026-09-02 00:50:55 | 48.33805 | 12.57990 | 97° | 29km/h | 19744m | -8.5m/s | -55.9°C | 4.4% | 60.6hPa | 2.4V | 00:00:00 | 02:21:44 | 00:00:00 | |
| OE5REO-15 | 2026-09-02 00:50:54 | 48.33805 | 12.57990 | 97° | 40km/h | 19744m | -8.6m/s | -55.9°C | 1.2% | 60.6hPa | 2.4V | 08:15:00 | 00:00:00 | 00:00:00 | |
| PG1ADW-2 | 2026-09-02 00:50:53 | 48.33810 | 12.57961 | 118° | 29km/h | 19760m | -8.2m/s | -55.9°C | 4.4% | 60.4hPa | 2.4V | 00:00:00 | 00:00:00 | 00:00:00 | |
| BAUMI2-15 | 2026-09-02 00:50:51 | 48.33821 | 12.57941 | 140° | 24km/h | 19777m | -8.3m/s | -56.0°C | 4.4% | 60.2hPa | 2.4V | 00:00:00 | 02:21:40 | 00:00:00 | |
| OE5MMP-10 | 2026-09-02 00:50:49 | 48.33834 | 12.57930 | 164° | 20km/h | 19794m | -8.2m/s | -55.7°C | 4.4% | 60.1hPa | 2.4V | 00:00:00 | 02:21:38 | 00:00:00 | |
| OE3JTB-15 | 2026-09-02 00:50:48 | 48.33847 | 12.57932 | 222° | 33km/h | 19819m | -8.0m/s | -55.5°C | 4.3% | 59.8hPa | 2.4V | 00:00:00 | 02:21:35 | 00:00:00 | |
| BAUMI2-15 | 2026-09-02 00:50:46 | 48.33847 | 12.57932 | 222° | 15km/h | 19819m | -8.0m/s | -55.5°C | 4.3% | 59.8hPa | 2.4V | 00:00:00 | 02:21:35 | 00:00:00 | |
| DO3MHA-11 | 2026-09-02 00:50:45 | 48.33848 | 12.57936 | 260° | 29km/h | 19827m | -8.0m/s | -55.4°C | 4.3% | 59.7hPa | 2.4V | 00:00:00 | 02:21:34 | 00:00:00 | |
| PETON7-10 | 2026-09-02 00:50:43 | 48.33845 | 12.57943 | 330° | 42km/h | 19844m | -8.2m/s | -55.5°C | 4.3% | 59.6hPa | 2.4V | 00:00:00 | 00:00:00 | 00:00:00 | |
| DL6DJ-15 | 2026-09-02 00:50:42 | 48.33841 | 12.57946 | 347° | 20km/h | 19852m | -8.0m/s | -55.5°C | 1.2% | 59.6hPa | 2.4V | 00:00:00 | 00:00:00 | 00:00:00 | |
| BAUMI2-15 | 2026-09-02 00:50:41 | 48.33835 | 12.57946 | 3° | 35km/h | 19860m | -8.3m/s | -55.6°C | 4.3% | 59.5hPa | 2.4V | 00:00:00 | 02:21:30 | 00:00:00 | |
| OE5MMP-10 | 2026-09-02 00:50:39 | 48.33819 | 12.57940 | 25° | 47km/h | 19877m | -8.5m/s | -55.6°C | 4.4% | 59.3hPa | 2.6V | 08:15:00 | 02:21:28 | 00:00:00 | |
| BAUMI2-15 | 2026-09-02 00:50:36 | 48.33796 | 12.57910 | 56° | 51km/h | 19902m | -8.4m/s | -55.7°C | 4.4% | 59.1hPa | 2.4V | 00:00:00 | 02:21:25 | 00:00:00 | |
| DO3MHA-11 | 2026-09-02 00:50:35 | 48.33790 | 12.57895 | 66° | 49km/h | 19910m | -8.4m/s | -55.7°C | 4.4% | 59.0hPa | 2.4V | 08:15:00 | 02:21:24 | 00:00:00 | |
| DO7DH-14 | 2026-09-02 00:50:33 | 48.33783 | 12.57858 | 84° | 31km/h | 19927m | -8.1m/s | -55.7°C | 4.5% | 58.8hPa | 2.4V | 00:00:00 | 02:21:22 | 00:00:00 | |
| BAUMI2-15 | 2026-09-02 00:50:31 | 48.33784 | 12.57818 | 100° | 49km/h | 19944m | -8.7m/s | -55.7°C | 4.6% | 58.7hPa | 2.4V | 00:00:00 | 02:21:20 | 00:00:00 | |
| OE5MMP-10 | 2026-09-02 00:50:29 | 48.33791 | 12.57780 | 115° | 33km/h | 19961m | -8.2m/s | -55.8°C | 4.7% | 58.5hPa | 2.4V | 00:00:00 | 02:21:18 | 00:00:00 | |
| OE5FHM-15 | 2026-09-02 00:50:28 | 48.33797 | 12.57764 | 123° | 33km/h | 19969m | -8.3m/s | -55.8°C | 4.7% | 58.4hPa | 2.4V | 00:00:00 | 02:21:17 | 00:00:00 | |
| OE5DXL-15 | 2026-09-02 00:50:26 | 48.33812 | 12.57739 | 140° | 26km/h | 19986m | -8.1m/s | -55.8°C | 4.8% | 58.3hPa | 2.4V | 00:00:00 | 00:00:00 | 00:00:00 | |
| DO3MHA-11 | 2026-09-02 00:50:25 | 48.33819 | 12.57731 | 150° | 22km/h | 19994m | -7.9m/s | -55.8°C | 4.8% | 58.2hPa | 2.4V | 00:00:00 | 02:21:14 | 00:00:00 | |
| OE5REO-15 | 2026-09-02 00:50:24 | 48.33827 | 12.57725 | 160° | 31km/h | 20002m | -8.1m/s | -55.7°C | 1.3% | 58.2hPa | 2.4V | 08:15:00 | 00:00:00 | 00:00:00 | |
| OE5DRO-10 | 2026-09-02 00:50:22 | 48.33840 | 12.57722 | 185° | 29km/h | 20019m | -8.5m/s | -55.5°C | 4.7% | 58.0hPa | 2.4V | 00:00:00 | 00:00:00 | 00:00:00 | |
| BAUMI2-15 | 2026-09-02 00:50:21 | 48.33845 | 12.57723 | 200° | 16km/h | 20027m | -8.5m/s | -55.4°C | 4.7% | 57.9hPa | 2.4V | 00:00:00 | 02:21:10 | 00:00:00 | |
| OE5MMP-10 | 2026-09-02 00:50:19 | 48.33850 | 12.57730 | 255° | 27km/h | 20045m | -8.9m/s | -55.1°C | 4.7% | 57.7hPa | 2.4V | 00:00:00 | 02:21:08 | 00:00:00 | |
| OE5WHR-10 | 2026-09-02 00:50:18 | 48.33850 | 12.57734 | 293° | 29km/h | 20053m | -8.6m/s | -54.9°C | 4.5% | 57.7hPa | 2.4V | 00:00:00 | 00:00:00 | 00:00:00 | |
| DO3MHA-11 | 2026-09-02 00:50:15 | 48.33838 | 12.57744 | 356° | 37km/h | 20079m | -8.6m/s | -53.9°C | 4.1% | 57.4hPa | 2.4V | 00:00:00 | 02:21:04 | 00:00:00 | |
| PETON7-10 | 2026-09-02 00:50:13 | 48.33823 | 12.57740 | 19° | 33km/h | 20096m | -8.3m/s | -53.6°C | 4.0% | 57.3hPa | 2.4V | 00:00:00 | 02:21:02 | 00:00:00 | |
| DG1MFX-10 | 2026-09-02 00:50:10 | 48.33806 | 12.57726 | 42° | 38km/h | 20113m | -8.8m/s | -53.5°C | 1.1% | 57.2hPa | 2.4V | 08:16:00 | 00:00:00 | 00:00:00 | |
| OE5MMP-10 | 2026-09-02 00:50:09 | 48.33794 | 12.57703 | 62° | 31km/h | 20131m | -8.5m/s | -53.3°C | 3.9% | 57.0hPa | 2.4V | 00:00:00 | 02:20:58 | 00:00:00 | |
| OE5REO-15 | 2026-09-02 00:50:07 | 48.33790 | 12.57689 | 73° | 38km/h | 20139m | -8.2m/s | -53.2°C | 1.0% | 56.9hPa | 2.6V | 08:16:00 | 00:00:00 | 00:00:00 | |
| DO3MHA-11 | 2026-09-02 00:50:05 | 48.33791 | 12.57649 | 111° | 22km/h | 20164m | -8.3m/s | -52.8°C | 3.7% | 56.7hPa | 2.6V | 00:00:00 | 02:20:54 | 00:00:00 | |
| OE5DRO-10 | 2026-09-02 00:50:03 | 48.33799 | 12.57629 | 136° | 31km/h | 20181m | -8.6m/s | -52.8°C | 3.7% | 56.5hPa | 2.6V | 00:00:00 | 00:00:00 | 00:00:00 | |
| DO7DH-14 | 2026-09-02 00:50:02 | 48.33805 | 12.57622 | 149° | 35km/h | 20190m | -8.8m/s | -52.9°C | 3.7% | 56.4hPa | 2.6V | 00:00:00 | 02:20:51 | 00:00:00 | |
| OE5MMP-10 | 2026-09-02 00:49:59 | 48.33820 | 12.57618 | 199° | 24km/h | 20215m | -8.5m/s | -53.1°C | 3.8% | 56.2hPa | 2.6V | 00:00:00 | 02:20:48 | 00:00:00 | |
| OE5WHR-10 | 2026-09-02 00:49:57 | 48.33825 | 12.57626 | 255° | 40km/h | 20232m | -8.7m/s | -53.2°C | 3.9% | 56.1hPa | 2.6V | 00:00:00 | 00:00:00 | 00:00:00 | |
| DO3MHA-11 | 2026-09-02 00:49:55 | 48.33824 | 12.57638 | 304° | 27km/h | 20249m | -8.3m/s | -53.2°C | 3.9% | 55.9hPa | 2.6V | 00:00:00 | 02:20:44 | 00:00:00 | |
| PG1ADW-2 | 2026-09-02 00:49:53 | 48.33815 | 12.57648 | 336° | 42km/h | 20266m | -8.7m/s | -53.1°C | 3.8% | 55.8hPa | 2.6V | 00:00:00 | 02:20:42 | 00:00:00 | |
| OE5REO-15 | 2026-09-02 00:49:52 | 48.33814 | 12.57648 | 336° | 27km/h | 20266m | -8.8m/s | -53.2°C | 1.0% | 55.8hPa | 2.6V | 08:16:00 | 00:00:00 | 00:00:00 | |
| OE5MMP-10 | 2026-09-02 00:49:49 | 48.33779 | 12.57651 | 14° | 51km/h | 20302m | -9.1m/s | -53.2°C | 3.9% | 55.4hPa | 2.6V | 00:00:00 | 02:20:38 | 00:00:00 | |
| OE3JTB-15 | 2026-09-02 00:49:47 | 48.33736 | 12.57613 | 49° | 35km/h | 20337m | -9.0m/s | -53.0°C | 3.8% | 55.2hPa | 2.6V | 00:00:00 | 00:00:00 | 00:00:00 | |
| DO3MHA-11 | 2026-09-02 00:49:45 | 48.33736 | 12.57613 | 49° | 47km/h | 20337m | -9.0m/s | -53.0°C | 3.8% | 55.2hPa | 2.6V | 00:00:00 | 02:20:34 | 00:00:00 | |
| OE5DRO-10 | 2026-09-02 00:49:44 | 48.33728 | 12.57597 | 57° | 31km/h | 20346m | -8.9m/s | -52.9°C | 3.8% | 55.1hPa | 2.6V | 00:00:00 | 00:00:00 | 00:00:00 | |
| PETON7-10 | 2026-09-02 00:49:43 | 48.33722 | 12.57580 | 65° | 31km/h | 20355m | -8.7m/s | -52.9°C | 3.8% | 55.0hPa | 2.4V | 00:00:00 | 00:00:00 | 00:00:00 | |
| DL6DJ-15 | 2026-09-02 00:49:40 | 48.33713 | 12.57506 | 96° | 46km/h | 20391m | -9.0m/s | -53.2°C | 1.0% | 54.7hPa | 2.4V | 00:00:00 | 00:00:00 | 00:00:00 | |
| OE5MMP-10 | 2026-09-02 00:49:39 | 48.33713 | 12.57506 | 97° | 26km/h | 20391m | -9.0m/s | -53.2°C | 3.8% | 54.7hPa | 2.4V | 00:00:00 | 02:20:28 | 00:00:00 | |
| OE5WHR-10 | 2026-09-02 00:49:36 | 48.33723 | 12.57463 | 125° | 31km/h | 20419m | -9.4m/s | -53.4°C | 3.9% | 54.4hPa | 2.4V | 00:00:00 | 02:20:25 | 00:00:00 | |
| DO3MHA-11 | 2026-09-02 00:49:35 | 48.33728 | 12.57453 | 135° | 18km/h | 20428m | -9.2m/s | -53.4°C | 3.9% | 54.3hPa | 2.4V | 00:00:00 | 02:20:24 | 00:00:00 | |
| PG1ADW-2 | 2026-09-02 00:49:33 | 48.33738 | 12.57443 | 162° | 33km/h | 20446m | -8.8m/s | -53.3°C | 3.9% | 54.2hPa | 2.4V | 08:16:00 | 00:00:00 | 00:00:00 | |
| DO7DH-14 | 2026-09-02 00:49:32 | 48.33741 | 12.57443 | 185° | 31km/h | 20455m | -8.7m/s | -53.2°C | 3.8% | 54.1hPa | 2.6V | 00:00:00 | 02:20:21 | 00:00:00 | |
| OE5MMP-10 | 2026-09-02 00:49:29 | 48.33742 | 12.57449 | 326° | 33km/h | 20482m | -9.1m/s | -53.2°C | 3.9% | 53.9hPa | 2.6V | 00:00:00 | 02:20:18 | 00:00:00 | |
| OE5FHM-15 | 2026-09-02 00:49:28 | 48.33738 | 12.57452 | 342° | 37km/h | 20491m | -9.2m/s | -53.1°C | 3.8% | 53.8hPa | 2.6V | 00:00:00 | 02:20:17 | 00:00:00 | |
| DO3MHA-11 | 2026-09-02 00:49:25 | 48.33718 | 12.57450 | 21° | 44km/h | 20518m | -8.7m/s | -53.2°C | 3.9% | 53.6hPa | 2.6V | 00:00:00 | 02:20:14 | 00:00:00 | |
| OE5REO-15 | 2026-09-02 00:49:20 | 48.33690 | 12.57408 | 66° | 46km/h | 20553m | -8.8m/s | -53.4°C | 1.0% | 53.4hPa | 2.6V | 08:17:00 | 00:00:00 | 00:00:00 | |
| OE5MMP-10 | 2026-09-02 00:49:19 | 48.33683 | 12.57374 | 84° | 42km/h | 20571m | -9.0m/s | -53.2°C | 3.9% | 53.2hPa | 2.6V | 00:00:00 | 02:20:08 | 00:00:00 | |
| OE3JTB-15 | 2026-09-02 00:49:18 | 48.33687 | 12.57321 | 111° | 35km/h | 20598m | -8.9m/s | -53.1°C | 3.9% | 53.0hPa | 2.6V | 00:00:00 | 02:20:05 | 00:00:00 | |
| OE5WHR-10 | 2026-09-02 00:49:15 | 48.33692 | 12.57306 | 121° | 35km/h | 20607m | -9.0m/s | -53.0°C | 3.9% | 52.9hPa | 2.6V | 00:00:00 | 00:00:00 | 00:00:00 | |
| PETON7-10 | 2026-09-02 00:49:13 | 48.33706 | 12.57281 | 140° | 33km/h | 20624m | -8.7m/s | -52.9°C | 3.9% | 52.7hPa | 2.4V | 00:00:00 | 00:00:00 | 00:00:00 | |
| DL6DJ-15 | 2026-09-02 00:49:09 | 48.33747 | 12.57266 | 198° | 29km/h | 20670m | -9.0m/s | -52.7°C | 1.0% | 52.4hPa | 2.6V | 00:00:00 | 00:00:00 | 00:00:00 | |
| OE5DRO-10 | 2026-09-02 00:49:07 | 48.33759 | 12.57277 | 230° | 33km/h | 20688m | -8.9m/s | -52.7°C | 3.8% | 52.2hPa | 2.6V | 00:00:00 | 00:00:00 | 00:00:00 | |
| DG1MFX-10 | 2026-09-02 00:49:06 | 48.33759 | 12.57277 | 230° | 27km/h | 20688m | -9.0m/s | -52.8°C | 1.0% | 52.3hPa | 2.6V | 08:17:00 | 00:00:00 | 00:00:00 | |
| DO7DH-14 | 2026-09-02 00:49:02 | 48.33763 | 12.57317 | 293° | 35km/h | 20724m | -9.2m/s | -52.7°C | 3.8% | 51.9hPa | 2.6V | 00:00:00 | 02:19:51 | 00:00:00 | |
| OE5MMP-10 | 2026-09-02 00:48:59 | 48.33746 | 12.57343 | 334° | 37km/h | 20752m | -9.3m/s | -52.8°C | 3.8% | 51.7hPa | 2.6V | 00:00:00 | 02:19:48 | 00:00:00 | |
| OE5FHM-15 | 2026-09-02 00:48:58 | 48.33738 | 12.57347 | 347° | 33km/h | 20761m | -9.3m/s | -52.9°C | 3.8% | 51.6hPa | 2.6V | 00:00:00 | 02:19:47 | 00:00:00 | |
| OE5DXL-15 | 2026-09-02 00:48:55 | 48.33712 | 12.57343 | 25° | 37km/h | 20789m | -8.8m/s | -53.0°C | 3.8% | 51.4hPa | 2.6V | 00:00:00 | 00:00:00 | 00:00:00 | |
| OE5WHR-10 | 2026-09-02 00:48:54 | 48.33703 | 12.57336 | 38° | 31km/h | 20798m | -8.7m/s | -53.0°C | 3.8% | 51.3hPa | 2.6V | 00:00:00 | 00:00:00 | 00:00:00 | |
| PG1ADW-2 | 2026-09-02 00:48:53 | 48.33697 | 12.57327 | 50° | 31km/h | 20807m | -8.8m/s | -53.0°C | 3.8% | 51.2hPa | 2.6V | 00:00:00 | 00:00:00 | 00:00:00 | |
| OE5MMP-10 | 2026-09-02 00:48:49 | 48.33686 | 12.57277 | 95° | 22km/h | 20843m | -9.0m/s | -52.9°C | 3.7% | 51.0hPa | 2.6V | 00:00:00 | 02:19:38 | 00:00:00 | |
| OE5DRO-10 | 2026-09-02 00:48:47 | 48.33690 | 12.57256 | 123° | 37km/h | 20861m | -9.1m/s | -52.9°C | 3.8% | 50.8hPa | 2.6V | 00:00:00 | 00:00:00 | 00:00:00 | |
| DG1MFX-10 | 2026-09-02 00:48:44 | 48.33697 | 12.57247 | 166° | 15km/h | 20879m | -8.6m/s | -53.1°C | 1.1% | 50.7hPa | 2.4V | 08:17:00 | 00:00:00 | 00:00:00 | |
| PETON7-10 | 2026-09-02 00:48:43 | 48.33703 | 12.57251 | 239° | 40km/h | 20896m | -8.3m/s | -53.0°C | 3.9% | 50.6hPa | 2.4V | 00:00:00 | 02:19:32 | 00:00:00 | |
| OE5MMP-10 | 2026-09-02 00:48:39 | 48.33699 | 12.57285 | 303° | 47km/h | 20932m | -9.4m/s | -53.0°C | 3.9% | 50.3hPa | 2.4V | 00:00:00 | 02:19:28 | 00:00:00 | |
| DL6DJ-15 | 2026-09-02 00:48:38 | 48.33686 | 12.57305 | 323° | 40km/h | 20951m | -9.7m/s | -53.1°C | 1.0% | 50.1hPa | 2.4V | 00:00:00 | 00:00:00 | 00:00:00 | |
| OE5WHR-10 | 2026-09-02 00:48:33 | 48.33641 | 12.57324 | 4° | 35km/h | 20988m | -8.7m/s | -52.9°C | 3.8% | 49.8hPa | 2.4V | 00:00:00 | 02:19:22 | 00:00:00 | |
| DO7DH-14 | 2026-09-02 00:48:32 | 48.33628 | 12.57321 | 14° | 42km/h | 20997m | -8.7m/s | -52.8°C | 3.8% | 49.8hPa | 2.4V | 00:00:00 | 02:19:21 | 00:00:00 | |
| OE5MMP-10 | 2026-09-02 00:48:29 | 48.33592 | 12.57294 | 39° | 40km/h | 21024m | -8.9m/s | -52.9°C | 3.7% | 49.5hPa | 2.4V | 00:00:00 | 02:19:18 | 00:00:00 | |
| PETON7-10 | 2026-09-02 00:48:28 | 48.33582 | 12.57281 | 48° | 29km/h | 21033m | -9.1m/s | -53.0°C | 3.8% | 49.5hPa | 2.4V | 00:00:00 | 00:00:00 | 00:00:00 | |
| OE5DXL-15 | 2026-09-02 00:48:25 | 48.33564 | 12.57234 | 74° | 35km/h | 21061m | -9.7m/s | -53.1°C | 3.8% | 49.3hPa | 2.6V | 00:00:00 | 00:00:00 | 00:00:00 | |
| DO3MHA-11 | 2026-09-02 00:48:23 | 48.33561 | 12.57203 | 94° | 33km/h | 21080m | -9.2m/s | -53.2°C | 3.8% | 49.1hPa | 2.4V | 08:17:00 | 02:19:12 | 00:00:00 | |
| OE5MMP-10 | 2026-09-02 00:48:19 | 48.33572 | 12.57167 | 152° | 24km/h | 21117m | -9.0m/s | -53.3°C | 3.8% | 48.8hPa | 2.4V | 00:00:00 | 02:19:08 | 00:00:00 | |
| OE3JTB-15 | 2026-09-02 00:48:18 | 48.33580 | 12.57171 | 255° | 35km/h | 21144m | -9.0m/s | -53.4°C | 3.9% | 48.6hPa | 2.4V | 00:00:00 | 00:00:00 | 00:00:00 | |
| PG1ADW-2 | 2026-09-02 00:48:13 | 48.33574 | 12.57192 | 313° | 44km/h | 21171m | -9.1m/s | -53.4°C | 3.9% | 48.4hPa | 2.4V | 00:00:00 | 00:00:00 | 00:00:00 | |
| OE5WHR-10 | 2026-09-02 00:48:12 | 48.33569 | 12.57199 | 324° | 42km/h | 21181m | -8.9m/s | -53.4°C | 3.9% | 48.3hPa | 2.4V | 08:18:00 | 00:00:00 | 00:00:00 | |
| OE5HKT-10 | 2026-09-02 00:48:10 | 48.33552 | 12.57211 | 344° | 44km/h | 21199m | -9.1m/s | -53.4°C | 3.9% | 48.2hPa | 2.6V | 00:00:00 | 00:00:00 | 00:00:00 | |
| OE5MMP-10 | 2026-09-02 00:48:09 | 48.33541 | 12.57214 | 352° | 49km/h | 21208m | -9.0m/s | -53.4°C | 3.9% | 48.1hPa | 2.6V | 00:00:00 | 02:18:58 | 00:00:00 | |
| OE5FHM-15 | 2026-09-02 00:48:08 | 48.33530 | 12.57216 | 1° | 44km/h | 21217m | -9.3m/s | -53.3°C | 3.9% | 48.1hPa | 2.4V | 00:00:00 | 02:18:57 | 00:00:00 | |
| DL6DJ-15 | 2026-09-02 00:48:07 | 48.33505 | 12.57210 | 17° | 51km/h | 21235m | -8.9m/s | -53.4°C | 1.0% | 48.0hPa | 2.4V | 00:00:00 | 00:00:00 | 00:00:00 | |
| DO3MHA-11 | 2026-09-02 00:48:04 | 48.33482 | 12.57193 | 35° | 42km/h | 21253m | -9.0m/s | -53.4°C | 4.0% | 47.8hPa | 2.4V | 00:00:00 | 02:18:53 | 00:00:00 | |
| DG1MFX-10 | 2026-09-02 00:48:03 | 48.33482 | 12.57193 | 36° | 51km/h | 21253m | -9.0m/s | -53.4°C | 1.1% | 47.8hPa | 2.4V | 08:18:00 | 00:00:00 | 00:00:00 | |
| DO7DH-14 | 2026-09-02 00:48:02 | 48.33464 | 12.57166 | 54° | 38km/h | 21272m | -9.3m/s | -53.4°C | 4.0% | 47.7hPa | 2.4V | 00:00:00 | 02:18:51 | 00:00:00 | |
| OE5MMP-10 | 2026-09-02 00:47:59 | 48.33450 | 12.57117 | 83° | 33km/h | 21300m | -9.6m/s | -53.5°C | 4.0% | 47.4hPa | 2.6V | 00:00:00 | 02:18:48 | 00:00:00 | |
| PETON7-10 | 2026-09-02 00:47:58 | 48.33449 | 12.57100 | 94° | 27km/h | 21310m | -9.7m/s | -53.5°C | 3.9% | 47.3hPa | 2.6V | 00:00:00 | 02:18:47 | 00:00:00 | |
| BAUMI2-15 | 2026-09-02 00:47:57 | 48.33451 | 12.57085 | 105° | 35km/h | 21320m | -9.3m/s | -53.6°C | 3.9% | 47.3hPa | 2.6V | 00:00:00 | 02:18:46 | 00:00:00 | |
| OE5DXL-15 | 2026-09-02 00:47:55 | 48.33459 | 12.57060 | 131° | 31km/h | 21338m | -9.3m/s | -53.5°C | 3.9% | 47.1hPa | 2.6V | 00:00:00 | 00:00:00 | 00:00:00 | |
| PG1ADW-2 | 2026-09-02 00:47:53 | 48.33472 | 12.57047 | 162° | 35km/h | 21357m | -9.6m/s | -53.3°C | 3.9% | 47.0hPa | 2.6V | 00:00:00 | 00:00:00 | 00:00:00 | |
| BAUMI2-15 | 2026-09-02 00:47:52 | 48.33479 | 12.57045 | 179° | 18km/h | 21367m | -9.6m/s | -53.2°C | 3.9% | 46.9hPa | 2.6V | 00:00:00 | 02:18:41 | 00:00:00 | |
| OE5WHR-10 | 2026-09-02 00:47:51 | 48.33484 | 12.57046 | 198° | 38km/h | 21377m | -9.4m/s | -53.2°C | 3.8% | 46.9hPa | 2.4V | 00:00:00 | 00:00:00 | 00:00:00 | |
| OE3JTB-15 | 2026-09-02 00:47:50 | 48.33490 | 12.57054 | 253° | 35km/h | 21395m | -9.1m/s | -53.2°C | 3.9% | 46.7hPa | 2.4V | 00:00:00 | 02:18:38 | 00:00:00 | |
| OE5MMP-10 | 2026-09-02 00:47:49 | 48.33490 | 12.57054 | 253° | 31km/h | 21395m | -9.1m/s | -53.2°C | 3.9% | 46.7hPa | 2.4V | 00:00:00 | 02:18:38 | 00:00:00 | |
| BAUMI2-15 | 2026-09-02 00:47:47 | 48.33488 | 12.57064 | 319° | 27km/h | 21414m | -9.3m/s | -53.2°C | 3.9% | 46.6hPa | 2.4V | 00:00:00 | 02:18:36 | 00:00:00 | |
| PETON7-10 | 2026-09-02 00:47:43 | 48.33461 | 12.57063 | 27° | 46km/h | 21451m | -9.2m/s | -53.3°C | 3.9% | 46.3hPa | 2.4V | 08:18:00 | 00:00:00 | 00:00:00 | |
| OE8JPQ-2 | 2026-09-02 00:47:41 | 48.33444 | 12.57044 | 46° | 38km/h | 21470m | -9.9m/s | -53.4°C | 4.0% | 46.2hPa | 2.6V | 08:18:00 | 00:00:00 | 00:00:00 | |
| OE5MMP-10 | 2026-09-02 00:47:39 | 48.33430 | 12.57014 | 63° | 47km/h | 21490m | -9.9m/s | -53.3°C | 3.9% | 46.0hPa | 2.4V | 08:18:00 | 02:18:28 | 00:00:00 | |
| BAUMI2-15 | 2026-09-02 00:47:37 | 48.33421 | 12.56976 | 81° | 51km/h | 21509m | -9.3m/s | -53.2°C | 3.9% | 45.9hPa | 2.6V | 08:18:00 | 02:18:26 | 00:00:00 | |
| DG1MFX-10 | 2026-09-02 00:47:36 | 48.33421 | 12.56956 | 91° | 53km/h | 21518m | -9.5m/s | -53.2°C | 1.1% | 45.9hPa | 2.4V | 08:19:00 | 00:00:00 | 00:00:00 | |
| PG1ADW-2 | 2026-09-02 00:47:33 | 48.33430 | 12.56901 | 120° | 35km/h | 21547m | -9.6m/s | -53.0°C | 3.9% | 45.6hPa | 2.4V | 00:00:00 | 00:00:00 | 00:00:00 | |
| OE5FHM-15 | 2026-09-02 00:47:32 | 48.33436 | 12.56887 | 130° | 33km/h | 21556m | -9.5m/s | -53.0°C | 3.8% | 45.6hPa | 2.4V | 00:00:00 | 02:18:21 | 00:00:00 | |
| OE5DRO-10 | 2026-09-02 00:47:31 | 48.33444 | 12.56875 | 142° | 33km/h | 21566m | -9.4m/s | -53.0°C | 3.8% | 45.5hPa | 2.4V | 00:00:00 | 00:00:00 | 00:00:00 | |
| OE5WHR-10 | 2026-09-02 00:47:30 | 48.33452 | 12.56868 | 154° | 35km/h | 21575m | -9.4m/s | -52.9°C | 3.8% | 45.4hPa | 2.4V | 00:00:00 | 02:18:19 | 00:00:00 | |
| DO7DH-14 | 2026-09-02 00:47:29 | 48.33460 | 12.56863 | 167° | 33km/h | 21585m | -9.4m/s | -53.0°C | 3.8% | 45.4hPa | 2.4V | 00:00:00 | 02:18:18 | 00:00:00 | |
| PETON7-10 | 2026-09-02 00:47:28 | 48.33468 | 12.56862 | 182° | 33km/h | 21594m | -9.2m/s | -53.0°C | 3.8% | 45.3hPa | 2.4V | 00:00:00 | 00:00:00 | 00:00:00 | |
| BAUMI2-15 | 2026-09-02 00:47:27 | 48.33475 | 12.56864 | 199° | 27km/h | 21603m | -9.5m/s | -53.0°C | 3.8% | 45.2hPa | 2.4V | 00:00:00 | 02:18:16 | 00:00:00 | |
| OE5DXL-15 | 2026-09-02 00:47:25 | 48.33486 | 12.56876 | 234° | 33km/h | 21623m | -9.6m/s | -53.1°C | 3.9% | 45.1hPa | 2.4V | 00:00:00 | 00:00:00 | 00:00:00 | |
| BAUMI2-15 | 2026-09-02 00:47:22 | 48.33490 | 12.56906 | 285° | 33km/h | 21652m | -10.0m/s | -53.2°C | 3.9% | 44.9hPa | 2.4V | 00:00:00 | 02:18:11 | 00:00:00 | |
| OE3JTB-15 | 2026-09-02 00:47:20 | 48.33475 | 12.56935 | 332° | 35km/h | 21682m | -9.7m/s | -53.3°C | 3.9% | 44.7hPa | 2.6V | 00:00:00 | 00:00:00 | 00:00:00 | |
| BAUMI2-15 | 2026-09-02 00:47:17 | 48.33458 | 12.56942 | 359° | 38km/h | 21701m | -9.2m/s | -53.3°C | 4.0% | 44.5hPa | 2.4V | 00:00:00 | 02:18:06 | 00:00:00 | |
| OE5REO-15 | 2026-09-02 00:47:16 | 48.33458 | 12.56942 | 360° | 37km/h | 21701m | -9.2m/s | -53.3°C | 1.0% | 44.6hPa | 2.4V | 08:19:00 | 00:00:00 | 00:00:00 | |
| OE8JPQ-2 | 2026-09-02 00:47:15 | 48.33439 | 12.56936 | 24° | 35km/h | 21719m | -9.1m/s | -53.3°C | 4.0% | 44.4hPa | 2.4V | 00:00:00 | 00:00:00 | 00:00:00 | |
| PG1ADW-2 | 2026-09-02 00:47:13 | 48.33423 | 12.56919 | 49° | 35km/h | 21739m | -9.8m/s | -53.3°C | 3.9% | 44.3hPa | 2.4V | 00:00:00 | 02:18:02 | 00:00:00 | |
| BAUMI2-15 | 2026-09-02 00:47:12 | 48.33418 | 12.56907 | 61° | 40km/h | 21749m | -10.1m/s | -53.2°C | 3.9% | 44.2hPa | 2.4V | 00:00:00 | 02:18:01 | 00:00:00 | |
| OE5MMP-10 | 2026-09-02 00:47:09 | 48.33413 | 12.56864 | 100° | 35km/h | 21779m | -9.8m/s | -53.1°C | 3.8% | 44.0hPa | 2.4V | 00:00:00 | 02:17:58 | 00:00:00 | |
| BAUMI2-15 | 2026-09-02 00:47:07 | 48.33420 | 12.56837 | 128° | 35km/h | 21799m | -9.4m/s | -53.1°C | 3.8% | 43.8hPa | 2.6V | 00:00:00 | 02:17:56 | 00:00:00 | |
| DL6DJ-15 | 2026-09-02 00:47:05 | 48.33443 | 12.56817 | 172° | 33km/h | 21827m | -9.8m/s | -53.2°C | 1.0% | 43.7hPa | 2.6V | 00:00:00 | 00:00:00 | 00:00:00 | |
| BAUMI2-15 | 2026-09-02 00:47:02 | 48.33459 | 12.56820 | 203° | 29km/h | 21847m | -10.2m/s | -53.2°C | 3.9% | 43.5hPa | 2.6V | 00:00:00 | 02:17:51 | 00:00:00 | |
| OE5REO-15 | 2026-09-02 00:47:00 | 48.33466 | 12.56826 | 218° | 31km/h | 21857m | -10.1m/s | -53.2°C | 1.0% | 43.5hPa | 2.6V | 08:19:00 | 00:00:00 | 00:00:00 | |
| OE5MMP-10 | 2026-09-02 00:46:59 | 48.33475 | 12.56844 | 251° | 31km/h | 21877m | -10.1m/s | -52.9°C | 3.8% | 43.3hPa | 2.6V | 00:00:00 | 02:17:48 | 00:00:00 | |
| PETON7-10 | 2026-09-02 00:46:58 | 48.33476 | 12.56854 | 269° | 35km/h | 21887m | -9.8m/s | -52.8°C | 3.7% | 43.2hPa | 2.6V | 00:00:00 | 00:00:00 | 00:00:00 | |
| BAUMI2-15 | 2026-09-02 00:46:57 | 48.33475 | 12.56865 | 289° | 29km/h | 21897m | -9.9m/s | -52.8°C | 3.8% | 43.2hPa | 2.4V | 00:00:00 | 02:17:46 | 00:00:00 | |
| OE5DXL-15 | 2026-09-02 00:46:55 | 48.33467 | 12.56881 | 326° | 35km/h | 21917m | -9.7m/s | -52.9°C | 3.7% | 43.0hPa | 2.4V | 08:19:00 | 00:00:00 | 00:00:00 | |
| DG1MFX-10 | 2026-09-02 00:46:54 | 48.33467 | 12.56882 | 327° | 29km/h | 21917m | -9.7m/s | -52.9°C | 1.0% | 43.1hPa | 2.6V | 08:19:00 | 00:00:00 | 00:00:00 | |
| PG1ADW-2 | 2026-09-02 00:46:53 | 48.33453 | 12.56888 | 359° | 37km/h | 21936m | -9.6m/s | -52.9°C | 3.8% | 42.9hPa | 2.6V | 00:00:00 | 00:00:00 | 00:00:00 | |
| BAUMI2-15 | 2026-09-02 00:46:52 | 48.33444 | 12.56887 | 14° | 37km/h | 21946m | -9.8m/s | -52.9°C | 3.8% | 42.8hPa | 2.6V | 08:19:00 | 02:17:41 | 00:00:00 | |
| OE5FHM-15 | 2026-09-02 00:46:50 | 48.33429 | 12.56874 | 43° | 35km/h | 21966m | -10.0m/s | -53.0°C | 3.8% | 42.7hPa | 2.4V | 00:00:00 | 02:17:39 | 00:00:00 | |
| OE5MMP-10 | 2026-09-02 00:46:49 | 48.33423 | 12.56864 | 58° | 38km/h | 21976m | -10.2m/s | -53.1°C | 3.8% | 42.7hPa | 2.4V | 00:00:00 | 02:17:38 | 00:00:00 | |
| OE5WHR-10 | 2026-09-02 00:46:48 | 48.33419 | 12.56850 | 71° | 37km/h | 21986m | -10.2m/s | -53.1°C | 3.8% | 42.6hPa | 2.4V | 00:00:00 | 00:00:00 | 00:00:00 | |
| BAUMI2-15 | 2026-09-02 00:46:47 | 48.33417 | 12.56836 | 83° | 40km/h | 21996m | -10.0m/s | -53.2°C | 3.8% | 42.5hPa | 2.4V | 00:00:00 | 02:17:36 | 00:00:00 | |
| OE5REO-15 | 2026-09-02 00:46:45 | 48.33416 | 12.56821 | 96° | 40km/h | 22006m | -9.7m/s | -53.3°C | 1.0% | 42.5hPa | 2.4V | 08:20:00 | 00:00:00 | 00:00:00 | |
| PETON7-10 | 2026-09-02 00:46:43 | 48.33429 | 12.56780 | 134° | 35km/h | 22035m | -9.7m/s | -53.3°C | 3.9% | 42.3hPa | 2.4V | 00:00:00 | 00:00:00 | 00:00:00 | |
| BAUMI2-15 | 2026-09-02 00:46:41 | 48.33445 | 12.56764 | 160° | 35km/h | 22055m | -10.2m/s | -53.4°C | 3.9% | 42.1hPa | 2.4V | 00:00:00 | 02:17:30 | 00:00:00 | |
| DO3MHA-11 | 2026-09-02 00:46:40 | 48.33453 | 12.56760 | 173° | 35km/h | 22065m | -10.0m/s | -53.4°C | 4.0% | 42.1hPa | 2.4V | 00:00:00 | 02:17:29 | 00:00:00 | |
| OE5MMP-10 | 2026-09-02 00:46:39 | 48.33462 | 12.56760 | 187° | 33km/h | 22075m | -10.2m/s | -53.5°C | 4.0% | 42.0hPa | 2.4V | 00:00:00 | 02:17:28 | 00:00:00 | |
| BAUMI2-15 | 2026-09-02 00:46:36 | 48.33483 | 12.56777 | 235° | 33km/h | 22105m | -9.9m/s | -53.6°C | 4.0% | 41.8hPa | 2.6V | 00:00:00 | 02:17:25 | 00:00:00 | |
| OE5DRO-10 | 2026-09-02 00:46:34 | 48.33488 | 12.56800 | 268° | 35km/h | 22125m | -10.0m/s | -53.5°C | 4.0% | 41.6hPa | 2.4V | 00:00:00 | 00:00:00 | 00:00:00 | |
| PG1ADW-2 | 2026-09-02 00:46:33 | 48.33487 | 12.56812 | 284° | 35km/h | 22135m | -10.2m/s | -53.5°C | 4.0% | 41.6hPa | 2.4V | 08:19:00 | 00:00:00 | 00:00:00 | |
| BAUMI2-15 | 2026-09-02 00:46:31 | 48.33479 | 12.56835 | 314° | 40km/h | 22156m | -10.0m/s | -53.4°C | 4.0% | 41.5hPa | 2.5V | 00:00:00 | 02:17:20 | 00:00:00 | |
| OE5MMP-10 | 2026-09-02 00:46:29 | 48.33463 | 12.56851 | 340° | 38km/h | 22176m | -9.8m/s | -53.3°C | 3.9% | 41.3hPa | 2.5V | 00:00:00 | 02:17:18 | 00:00:00 | |
| PETON7-10 | 2026-09-02 00:46:28 | 48.33453 | 12.56854 | 352° | 35km/h | 22186m | -9.8m/s | -53.2°C | 3.9% | 41.3hPa | 2.5V | 00:00:00 | 02:17:17 | 00:00:00 | |
| OE5WHR-10 | 2026-09-02 00:46:27 | 48.33443 | 12.56855 | 4° | 33km/h | 22196m | -10.1m/s | -53.3°C | 3.9% | 41.2hPa | 2.5V | 00:00:00 | 02:17:16 | 00:00:00 | |
| BAUMI2-15 | 2026-09-02 00:46:26 | 48.33432 | 12.56853 | 15° | 38km/h | 22206m | -10.0m/s | -53.3°C | 3.9% | 41.1hPa | 2.5V | 00:00:00 | 02:17:15 | 00:00:00 | |
| OE8JPQ-2 | 2026-09-02 00:46:21 | 48.33399 | 12.56807 | 75° | 40km/h | 22256m | -9.8m/s | -53.4°C | 4.0% | 40.8hPa | 2.5V | 00:00:00 | 00:00:00 | 00:00:00 | |
| OE5MMP-10 | 2026-09-02 00:46:19 | 48.33399 | 12.56783 | 104° | 27km/h | 22276m | -10.0m/s | -53.4°C | 4.0% | 40.7hPa | 2.4V | 00:00:00 | 02:17:08 | 00:00:00 | |
| DO3MHA-11 | 2026-09-02 00:46:17 | 48.33406 | 12.56764 | 134° | 29km/h | 22296m | -10.4m/s | -53.2°C | 3.9% | 40.6hPa | 2.4V | 00:00:00 | 02:17:06 | 00:00:00 | |
| OE5DRO-10 | 2026-09-02 00:46:15 | 48.33417 | 12.56753 | 165° | 40km/h | 22318m | -10.7m/s | -53.2°C | 3.9% | 40.4hPa | 2.6V | 00:00:00 | 00:00:00 | 00:00:00 | |
| PETON7-10 | 2026-09-02 00:46:13 | 48.33430 | 12.56754 | 202° | 42km/h | 22339m | -10.3m/s | -53.2°C | 3.9% | 40.3hPa | 2.6V | 00:00:00 | 00:00:00 | 00:00:00 | |
| OE5FHM-15 | 2026-09-02 00:46:11 | 48.33440 | 12.56767 | 241° | 40km/h | 22359m | -9.8m/s | -53.2°C | 3.9% | 40.2hPa | 2.4V | 00:00:00 | 02:17:00 | 00:00:00 | |
| OE5MMP-10 | 2026-09-02 00:46:09 | 48.33444 | 12.56790 | 274° | 46km/h | 22379m | -10.1m/s | -53.1°C | 3.9% | 40.1hPa | 2.4V | 08:20:00 | 02:16:58 | 00:00:00 | |
| DO3MHA-11 | 2026-09-02 00:46:07 | 48.33438 | 12.56817 | 299° | 47km/h | 22400m | -10.7m/s | -53.2°C | 3.9% | 39.9hPa | 2.4V | 00:00:00 | 02:16:56 | 00:00:00 | |
| OE5WHR-10 | 2026-09-02 00:46:06 | 48.33432 | 12.56830 | 310° | 40km/h | 22411m | -10.5m/s | -53.2°C | 3.9% | 39.8hPa | 2.4V | 00:00:00 | 00:00:00 | 00:00:00 | |
| DL6DJ-15 | 2026-09-02 00:46:02 | 48.33391 | 12.56862 | 354° | 51km/h | 22454m | -10.4m/s | -53.3°C | 1.0% | 39.6hPa | 2.6V | 00:00:00 | 00:00:00 | 00:00:00 | |
| OE5MMP-10 | 2026-09-02 00:45:59 | 48.33353 | 12.56850 | 29° | 38km/h | 22485m | -10.3m/s | -53.2°C | 3.9% | 39.4hPa | 2.6V | 00:00:00 | 02:16:48 | 00:00:00 | |
| PETON7-10 | 2026-09-02 00:45:58 | 48.33343 | 12.56840 | 41° | 35km/h | 22495m | -10.6m/s | -53.1°C | 3.9% | 39.3hPa | 2.6V | 00:00:00 | 00:00:00 | 00:00:00 | |
| DO3MHA-11 | 2026-09-02 00:45:57 | 48.33334 | 12.56827 | 53° | 33km/h | 22506m | -10.9m/s | -53.1°C | 3.9% | 39.2hPa | 2.6V | 00:00:00 | 02:16:46 | 00:00:00 | |
| OE5DRO-10 | 2026-09-02 00:45:56 | 48.33328 | 12.56812 | 65° | 37km/h | 22517m | -10.9m/s | -52.9°C | 3.8% | 39.2hPa | 2.6V | 00:00:00 | 00:00:00 | 00:00:00 | |
| PG1ADW-2 | 2026-09-02 00:45:53 | 48.33325 | 12.56771 | 109° | 37km/h | 22549m | -10.6m/s | -53.0°C | 3.8% | 39.0hPa | 2.5V | 00:00:00 | 02:16:42 | 00:00:00 | |
| DG1MFX-10 | 2026-09-02 00:45:52 | 48.33325 | 12.56771 | 109° | 33km/h | 22549m | -10.6m/s | -53.1°C | 1.0% | 39.0hPa | 2.5V | 08:21:00 | 00:00:00 | 00:00:00 | |
| OE5MMP-10 | 2026-09-02 00:45:49 | 48.33347 | 12.56751 | 195° | 37km/h | 22592m | -10.8m/s | -53.0°C | 3.8% | 38.7hPa | 2.5V | 00:00:00 | 02:16:38 | 00:00:00 | |
| DO3MHA-11 | 2026-09-02 00:45:47 | 48.33358 | 12.56763 | 235° | 40km/h | 22613m | -11.0m/s | -53.0°C | 3.8% | 38.6hPa | 2.5V | 08:20:00 | 02:16:36 | 00:00:00 | |
| OE5WHR-10 | 2026-09-02 00:45:45 | 48.33364 | 12.56787 | 268° | 37km/h | 22636m | -11.0m/s | -53.0°C | 3.8% | 38.4hPa | 2.6V | 00:00:00 | 00:00:00 | 00:00:00 | |
| PETON7-10 | 2026-09-02 00:45:43 | 48.33360 | 12.56816 | 296° | 40km/h | 22658m | -11.1m/s | -53.0°C | 3.8% | 38.3hPa | 2.6V | 00:00:00 | 02:16:32 | 00:00:00 | |
| OE5FHM-15 | 2026-09-02 00:45:41 | 48.33346 | 12.56841 | 322° | 40km/h | 22679m | -10.4m/s | -53.1°C | 3.8% | 38.2hPa | 2.6V | 00:00:00 | 02:16:30 | 00:00:00 | |
| OE5MMP-10 | 2026-09-02 00:45:39 | 48.33327 | 12.56854 | 350° | 38km/h | 22700m | -10.5m/s | -53.1°C | 3.9% | 38.1hPa | 2.6V | 00:00:00 | 02:16:28 | 00:00:00 | |
| OE8JPQ-2 | 2026-09-02 00:45:38 | 48.33316 | 12.56855 | 4° | 37km/h | 22711m | -10.5m/s | -53.1°C | 3.9% | 38.0hPa | 2.4V | 00:00:00 | 02:16:27 | 00:00:00 | |
| OE5DRO-10 | 2026-09-02 00:45:36 | 48.33296 | 12.56846 | 30° | 40km/h | 22732m | -10.6m/s | -53.2°C | 3.9% | 37.9hPa | 2.4V | 00:00:00 | 00:00:00 | 00:00:00 | |
| DO3MHA-11 | 2026-09-02 00:45:35 | 48.33287 | 12.56837 | 43° | 35km/h | 22743m | -10.6m/s | -53.2°C | 3.8% | 37.8hPa | 2.4V | 00:00:00 | 02:16:24 | 00:00:00 | |
| PG1ADW-2 | 2026-09-02 00:45:33 | 48.33277 | 12.56814 | 71° | 38km/h | 22765m | -11.0m/s | -53.2°C | 3.9% | 37.7hPa | 2.4V | 00:00:00 | 00:00:00 | 00:00:00 | |
| DL6DJ-15 | 2026-09-02 00:45:31 | 48.33276 | 12.56787 | 102° | 33km/h | 22787m | -11.0m/s | -53.2°C | 1.0% | 37.6hPa | 2.4V | 00:00:00 | 00:00:00 | 00:00:00 | |
| OE5MMP-10 | 2026-09-02 00:45:29 | 48.33284 | 12.56766 | 138° | 35km/h | 22808m | -10.8m/s | -53.1°C | 3.8% | 37.4hPa | 2.4V | 00:00:00 | 02:16:18 | 00:00:00 | |
| PETON7-10 | 2026-09-02 00:45:28 | 48.33290 | 12.56759 | 155° | 38km/h | 22819m | -10.6m/s | -53.1°C | 3.9% | 37.3hPa | 2.4V | 08:20:00 | 00:00:00 | 00:00:00 | |
| DO3MHA-11 | 2026-09-02 00:45:25 | 48.33313 | 12.56760 | 207° | 42km/h | 22851m | -10.6m/s | -53.3°C | 3.9% | 37.2hPa | 2.5V | 00:00:00 | 02:16:14 | 00:00:00 | |
| DO7DH-14 | 2026-09-02 00:45:23 | 48.33326 | 12.56777 | 237° | 40km/h | 22872m | -10.6m/s | -53.3°C | 3.9% | 37.0hPa | 2.5V | 00:00:00 | 02:16:12 | 00:00:00 | |
| OE5WHR-10 | 2026-09-02 00:45:22 | 48.33330 | 12.56790 | 251° | 31km/h | 22883m | -10.8m/s | -53.3°C | 4.0% | 37.0hPa | 2.5V | 00:00:00 | 02:16:11 | 00:00:00 | |
| OE5MMP-10 | 2026-09-02 00:45:19 | 48.33330 | 12.56834 | 291° | 44km/h | 22916m | -10.9m/s | -53.4°C | 4.0% | 36.8hPa | 2.5V | 00:00:00 | 02:16:08 | 00:00:00 | |
| OE8JPQ-2 | 2026-09-02 00:45:18 | 48.33325 | 12.56848 | 306° | 37km/h | 22927m | -10.8m/s | -53.4°C | 4.0% | 36.7hPa | 2.5V | 00:00:00 | 00:00:00 | 00:00:00 | |
| PETON7-10 | 2026-09-02 00:45:13 | 48.33275 | 12.56877 | 9° | 31km/h | 22981m | -10.9m/s | -53.4°C | 3.9% | 36.4hPa | 2.6V | 00:00:00 | 00:00:00 | 00:00:00 | |
| OE5FHM-15 | 2026-09-02 00:45:11 | 48.33254 | 12.56866 | 31° | 46km/h | 23003m | -10.8m/s | -53.4°C | 4.0% | 36.3hPa | 2.6V | 00:00:00 | 02:16:00 | 00:00:00 | |
| OE5REO-15 | 2026-09-02 00:45:10 | 48.33254 | 12.56866 | 31° | 44km/h | 23003m | -10.9m/s | -53.5°C | 1.0% | 36.3hPa | 2.6V | 08:21:00 | 00:00:00 | 00:00:00 | |
| OE5MMP-10 | 2026-09-02 00:45:09 | 48.33239 | 12.56845 | 57° | 29km/h | 23025m | -10.5m/s | -53.3°C | 3.9% | 36.1hPa | 2.6V | 00:00:00 | 02:15:58 | 00:00:00 | |
| DL6DJ-15 | 2026-09-02 00:45:00 | 48.33260 | 12.56785 | 225° | 22km/h | 23123m | -11.1m/s | -53.4°C | 1.0% | 35.6hPa | 2.5V | 00:00:00 | 00:00:00 | 00:00:00 | |
| OE5MMP-10 | 2026-09-02 00:44:59 | 48.33263 | 12.56792 | 250° | 40km/h | 23135m | -11.0m/s | -53.4°C | 4.0% | 35.6hPa | 2.5V | 00:00:00 | 02:15:48 | 00:00:00 | |
| OE8JPQ-2 | 2026-09-02 00:44:58 | 48.33264 | 12.56802 | 271° | 53km/h | 23146m | -11.0m/s | -53.4°C | 4.1% | 35.5hPa | 2.5V | 00:00:00 | 00:00:00 | 00:00:00 | |
| PETON7-10 | 2026-09-02 00:44:57 | 48.33263 | 12.56813 | 288° | 51km/h | 23157m | -10.8m/s | -53.5°C | 4.1% | 35.4hPa | 2.5V | 00:00:00 | 02:15:46 | 00:00:00 | |
| OE5REO-15 | 2026-09-02 00:44:54 | 48.33253 | 12.56834 | 319° | 38km/h | 23179m | -11.1m/s | -53.6°C | 1.1% | 35.4hPa | 2.5V | 08:21:00 | 00:00:00 | 00:00:00 | |
| DO3MHA-11 | 2026-09-02 00:44:53 | 48.33235 | 12.56850 | 342° | 57km/h | 23201m | -11.0m/s | -53.5°C | 4.2% | 35.2hPa | 2.5V | 00:00:00 | 02:15:42 | 00:00:00 | |
| OE5DRO-10 | 2026-09-02 00:44:51 | 48.33211 | 12.56854 | 5° | 42km/h | 23223m | -11.1m/s | -53.3°C | 4.1% | 35.1hPa | 2.5V | 00:00:00 | 00:00:00 | 08:30:00 | |
| DG1MFX-10 | 2026-09-02 00:44:50 | 48.33211 | 12.56854 | 5° | 51km/h | 23223m | -11.2m/s | -53.4°C | 1.1% | 35.1hPa | 2.5V | 08:21:00 | 00:00:00 | 00:00:00 | |
| OE5MMP-10 | 2026-09-02 00:44:49 | 48.33185 | 12.56844 | 26° | 60km/h | 23245m | -11.0m/s | -53.1°C | 4.1% | 34.9hPa | 2.5V | 00:00:00 | 02:15:38 | 00:00:00 | |
| DO3MHA-11 | 2026-09-02 00:44:43 | 48.33135 | 12.56734 | 83° | 55km/h | 23313m | -11.3m/s | -52.3°C | 3.7% | 34.5hPa | 2.5V | 00:00:00 | 02:15:32 | 00:00:00 | |
| PETON7-10 | 2026-09-02 00:44:42 | 48.33134 | 12.56710 | 92° | 40km/h | 23324m | -11.5m/s | -52.3°C | 3.7% | 34.5hPa | 2.6V | 00:00:00 | 00:00:00 | 00:00:00 | |
| NBG1-10 | 2026-09-02 00:44:41 | 48.33136 | 12.56687 | 101° | 66km/h | 23336m | -11.2m/s | 0°C | 0% | 0hPa | 2.4V | 00:00:00 | 02:15:30 | 00:00:00 | |
| OE5MMP-10 | 2026-09-02 00:44:39 | 48.33146 | 12.56645 | 119° | 38km/h | 23358m | -11.0m/s | -52.3°C | 3.7% | 34.3hPa | 2.4V | 08:21:00 | 02:15:28 | 00:00:00 | |
| OE8JPQ-2 | 2026-09-02 00:44:38 | 48.33153 | 12.56627 | 128° | 37km/h | 23369m | -11.0m/s | -52.4°C | 3.7% | 34.3hPa | 2.4V | 00:00:00 | 02:15:27 | 00:00:00 | |
| OE5FHM-15 | 2026-09-02 00:44:37 | 48.33162 | 12.56612 | 138° | 37km/h | 23380m | -11.2m/s | -52.4°C | 3.7% | 34.2hPa | 2.4V | 08:21:00 | 02:15:26 | 00:00:00 | |
| PG1ADW-2 | 2026-09-02 00:44:33 | 48.33200 | 12.56589 | 184° | 38km/h | 23426m | -11.4m/s | -52.4°C | 3.7% | 34.0hPa | 2.4V | 00:00:00 | 02:15:22 | 00:00:00 | |
| OE5WHR-10 | 2026-09-02 00:44:32 | 48.33207 | 12.56591 | 201° | 44km/h | 23438m | -11.2m/s | -52.4°C | 3.7% | 33.9hPa | 2.5V | 00:00:00 | 00:00:00 | 00:00:00 | |
| OE5DRO-10 | 2026-09-02 00:44:30 | 48.33214 | 12.56601 | 256° | 33km/h | 23460m | -11.6m/s | -52.4°C | 3.7% | 33.7hPa | 2.5V | 00:00:00 | 00:00:00 | 00:00:00 | |
| OE5MMP-10 | 2026-09-02 00:44:29 | 48.33214 | 12.56607 | 290° | 35km/h | 23472m | -11.5m/s | -52.4°C | 3.7% | 33.7hPa | 2.5V | 00:00:00 | 02:15:18 | 00:00:00 | |
| PETON7-10 | 2026-09-02 00:44:27 | 48.33206 | 12.56616 | 345° | 47km/h | 23496m | -11.6m/s | -52.5°C | 3.8% | 33.6hPa | 2.5V | 00:00:00 | 00:00:00 | 00:00:00 | |
| DO7DH-14 | 2026-09-02 00:44:23 | 48.33177 | 12.56596 | 51° | 37km/h | 23542m | -11.3m/s | -52.7°C | 3.8% | 33.3hPa | 2.5V | 00:00:00 | 02:15:12 | 00:00:00 | |
| OE5HKT-10 | 2026-09-02 00:44:21 | 48.33167 | 12.56564 | 75° | 40km/h | 23565m | -11.7m/s | -52.8°C | 3.9% | 33.2hPa | 2.5V | 00:00:00 | 00:00:00 | 00:00:00 | |
| OE5MMP-10 | 2026-09-02 00:44:19 | 48.33165 | 12.56525 | 98° | 51km/h | 23588m | -11.6m/s | -52.8°C | 3.9% | 33.1hPa | 2.5V | 00:00:00 | 02:15:08 | 00:00:00 | |
| OE8JPQ-2 | 2026-09-02 00:44:18 | 48.33168 | 12.56504 | 109° | 38km/h | 23600m | -11.6m/s | -52.8°C | 3.9% | 33.0hPa | 2.5V | 08:21:00 | 00:00:00 | 00:00:00 | |
| BAUMI2-15 | 2026-09-02 00:44:14 | 48.33204 | 12.56442 | 153° | 47km/h | 23646m | -11.5m/s | -52.9°C | 4.0% | 32.8hPa | 2.6V | 00:00:00 | 02:15:03 | 00:00:00 | |
| PG1ADW-2 | 2026-09-02 00:44:13 | 48.33216 | 12.56435 | 164° | 42km/h | 23658m | -11.7m/s | -52.9°C | 4.0% | 32.7hPa | 2.6V | 00:00:00 | 00:00:00 | 00:00:00 | |
| PETON7-10 | 2026-09-02 00:44:12 | 48.33228 | 12.56431 | 175° | 35km/h | 23670m | -11.6m/s | -52.9°C | 4.0% | 32.7hPa | 2.6V | 00:00:00 | 02:15:01 | 00:00:00 | |
| OE5DRO-10 | 2026-09-02 00:44:11 | 48.33240 | 12.56432 | 187° | 37km/h | 23681m | -11.7m/s | -52.8°C | 4.0% | 32.6hPa | 2.6V | 00:00:00 | 00:00:00 | 00:00:00 | |
| OE5MMP-10 | 2026-09-02 00:44:09 | 48.33259 | 12.56441 | 215° | 29km/h | 23705m | -11.7m/s | -52.8°C | 4.0% | 32.5hPa | 2.6V | 00:00:00 | 02:14:58 | 00:00:00 | |
| OE5WHR-10 | 2026-09-02 00:44:08 | 48.33265 | 12.56449 | 232° | 44km/h | 23717m | -11.7m/s | -52.7°C | 4.0% | 32.4hPa | 2.5V | 00:00:00 | 02:14:57 | 00:00:00 | |
| OE5FHM-15 | 2026-09-02 00:44:07 | 48.33268 | 12.56458 | 251° | 40km/h | 23729m | -11.2m/s | -52.7°C | 4.0% | 32.4hPa | 2.5V | 00:00:00 | 02:14:56 | 00:00:00 | |
| BAUMI2-15 | 2026-09-02 00:44:04 | 48.33263 | 12.56481 | 330° | 33km/h | 23763m | -11.7m/s | -52.7°C | 4.0% | 32.2hPa | 2.5V | 08:22:00 | 02:14:53 | 00:00:00 | |
| OE5HKT-10 | 2026-09-02 00:44:00 | 48.33233 | 12.56472 | 41° | 51km/h | 23811m | -12.0m/s | -52.6°C | 4.0% | 31.9hPa | 2.5V | 00:00:00 | 02:14:49 | 00:00:00 | |
| OE5MMP-10 | 2026-09-02 00:43:59 | 48.33225 | 12.56460 | 54° | 62km/h | 23823m | -11.6m/s | -52.5°C | 4.0% | 31.9hPa | 2.5V | 00:00:00 | 02:14:48 | 00:00:00 | |
| OE8JPQ-2 | 2026-09-02 00:43:58 | 48.33219 | 12.56443 | 66° | 37km/h | 23835m | -11.5m/s | -52.4°C | 4.0% | 31.8hPa | 2.5V | 00:00:00 | 00:00:00 | 00:00:00 | |
| PETON7-10 | 2026-09-02 00:43:57 | 48.33215 | 12.56424 | 78° | 57km/h | 23847m | -11.7m/s | -52.3°C | 4.0% | 31.8hPa | 2.5V | 00:00:00 | 00:00:00 | 00:00:00 | |
| PG1ADW-2 | 2026-09-02 00:43:53 | 48.33225 | 12.56331 | 119° | 44km/h | 23896m | -12.4m/s | -51.5°C | 3.7% | 31.5hPa | 2.6V | 00:00:00 | 00:00:00 | 00:00:00 | |
| OE5REO-15 | 2026-09-02 00:43:52 | 48.33225 | 12.56331 | 120° | 68km/h | 23896m | -12.5m/s | -51.6°C | 0.9% | 31.6hPa | 2.6V | 08:22:00 | 00:00:00 | 00:00:00 | |
| OE3JTB-15 | 2026-09-02 00:43:49 | 48.33316 | 12.56262 | 198° | 46km/h | 23983m | -12.0m/s | -51.0°C | 3.5% | 31.1hPa | 2.6V | 00:00:00 | 02:14:35 | 00:00:00 | |
| BAUMI2-15 | 2026-09-02 00:43:44 | 48.33334 | 12.56279 | 228° | 27km/h | 24007m | -12.0m/s | -51.0°C | 3.5% | 31.0hPa | 2.6V | 00:00:00 | 02:14:33 | 00:00:00 | |
| OE5DRO-10 | 2026-09-02 00:43:43 | 48.33339 | 12.56289 | 248° | 47km/h | 24019m | -11.9m/s | -50.9°C | 3.5% | 31.0hPa | 2.6V | 00:00:00 | 00:00:00 | 00:00:00 | |
| PETON7-10 | 2026-09-02 00:43:42 | 48.33340 | 12.56300 | 271° | 46km/h | 24032m | -12.0m/s | -51.0°C | 3.5% | 30.9hPa | 2.4V | 00:00:00 | 00:00:00 | 00:00:00 | |
| DO7DH-14 | 2026-09-02 00:43:41 | 48.33339 | 12.56309 | 298° | 37km/h | 24044m | -12.1m/s | -51.0°C | 3.5% | 30.9hPa | 2.4V | 00:00:00 | 02:14:30 | 00:00:00 | |
| BAUMI2-15 | 2026-09-02 00:43:39 | 48.33330 | 12.56318 | 356° | 33km/h | 24069m | -12.1m/s | -51.1°C | 3.5% | 30.7hPa | 2.4V | 00:00:00 | 02:14:28 | 00:00:00 | |
| OE5FHM-15 | 2026-09-02 00:43:37 | 48.33317 | 12.56310 | 42° | 44km/h | 24093m | -11.8m/s | -51.1°C | 3.5% | 30.6hPa | 2.4V | 00:00:00 | 02:14:26 | 00:00:00 | |
| OE5REO-15 | 2026-09-02 00:43:36 | 48.33318 | 12.56310 | 43° | 31km/h | 24093m | -11.8m/s | -51.1°C | 0.9% | 30.7hPa | 2.4V | 08:22:00 | 00:00:00 | 00:00:00 | |
| OE8JPQ-2 | 2026-09-02 00:43:35 | 48.33309 | 12.56286 | 78° | 40km/h | 24116m | -11.6m/s | -51.1°C | 3.5% | 30.5hPa | 2.4V | 00:00:00 | 02:14:24 | 00:00:00 | |
| BAUMI2-15 | 2026-09-02 00:43:34 | 48.33308 | 12.56269 | 93° | 58km/h | 24128m | -12.0m/s | -51.1°C | 3.5% | 30.4hPa | 2.4V | 00:00:00 | 02:14:23 | 00:00:00 | |
| PG1ADW-2 | 2026-09-02 00:43:33 | 48.33310 | 12.56249 | 104° | 49km/h | 24141m | -12.3m/s | -51.0°C | 3.5% | 30.4hPa | 2.4V | 08:22:00 | 00:00:00 | 00:00:00 | |
| BAUMI2-15 | 2026-09-02 00:43:29 | 48.33347 | 12.56176 | 149° | 66km/h | 24190m | -11.9m/s | -50.9°C | 3.4% | 30.2hPa | 2.4V | 00:00:00 | 02:14:18 | 00:00:00 | |
| PETON7-10 | 2026-09-02 00:43:27 | 48.33378 | 12.56159 | 171° | 42km/h | 24215m | -12.2m/s | -51.0°C | 3.5% | 30.1hPa | 2.4V | 00:00:00 | 02:14:16 | 00:00:00 | |
| BAUMI2-15 | 2026-09-02 00:43:24 | 48.33424 | 12.56169 | 207° | 47km/h | 24251m | -12.3m/s | -51.0°C | 3.5% | 29.9hPa | 2.4V | 00:00:00 | 02:14:13 | 00:00:00 | |
| OE5DRO-10 | 2026-09-02 00:43:23 | 48.33436 | 12.56180 | 220° | 46km/h | 24264m | -12.8m/s | -51.1°C | 3.5% | 29.8hPa | 2.4V | 00:00:00 | 00:00:00 | 00:00:00 | |
| OE5MMP-10 | 2026-09-02 00:43:22 | 48.33444 | 12.56194 | 235° | 33km/h | 24276m | -12.5m/s | -51.1°C | 3.5% | 29.8hPa | 2.4V | 00:00:00 | 02:14:11 | 00:00:00 | |
| OE5REO-15 | 2026-09-02 00:43:21 | 48.33444 | 12.56193 | 236° | 47km/h | 24276m | -12.6m/s | -51.1°C | 0.9% | 29.8hPa | 2.4V | 08:23:00 | 00:00:00 | 00:00:00 | |
| BAUMI2-15 | 2026-09-02 00:43:19 | 48.33451 | 12.56234 | 288° | 27km/h | 24315m | -12.4m/s | -51.0°C | 3.5% | 29.6hPa | 2.4V | 08:22:00 | 02:14:08 | 00:00:00 | |
| OE5HKT-10 | 2026-09-02 00:43:18 | 48.33447 | 12.56244 | 314° | 49km/h | 24327m | -12.2m/s | -51.0°C | 3.5% | 29.5hPa | 2.4V | 00:00:00 | 00:00:00 | 00:00:00 | |
| DO3MHA-11 | 2026-09-02 00:43:15 | 48.33429 | 12.56246 | 36° | 46km/h | 24364m | -12.3m/s | -51.2°C | 3.6% | 29.3hPa | 2.4V | 08:22:00 | 02:14:04 | 00:00:00 | |
| PG1ADW-2 | 2026-09-02 00:43:14 | 48.33420 | 12.56225 | 77° | 51km/h | 24389m | -12.7m/s | -51.4°C | 3.6% | 29.2hPa | 2.5V | 00:00:00 | 02:14:02 | 00:00:00 | |
| OE5MMP-10 | 2026-09-02 00:43:12 | 48.33419 | 12.56210 | 92° | 55km/h | 24401m | -12.7m/s | -51.4°C | 3.6% | 29.2hPa | 2.5V | 00:00:00 | 02:14:01 | 00:00:00 | |
| BAUMI2-15 | 2026-09-02 00:43:09 | 48.33434 | 12.56162 | 135° | 57km/h | 24439m | -12.3m/s | -51.5°C | 3.6% | 29.0hPa | 2.5V | 00:00:00 | 02:13:58 | 00:00:00 | |
| OE5FHM-15 | 2026-09-02 00:43:07 | 48.33457 | 12.56141 | 163° | 49km/h | 24464m | -12.2m/s | -51.5°C | 3.6% | 28.9hPa | 2.5V | 00:00:00 | 02:13:56 | 00:00:00 | |
| OE5REO-15 | 2026-09-02 00:43:06 | 48.33457 | 12.56141 | 163° | 57km/h | 24464m | -12.2m/s | -51.5°C | 0.9% | 28.9hPa | 2.6V | 08:23:00 | 00:00:00 | 00:00:00 | |
| DO3MHA-11 | 2026-09-02 00:43:05 | 48.33486 | 12.56137 | 187° | 51km/h | 24489m | -12.8m/s | -51.4°C | 3.6% | 28.8hPa | 2.6V | 00:00:00 | 02:13:54 | 00:00:00 | |
| BAUMI2-15 | 2026-09-02 00:43:04 | 48.33501 | 12.56142 | 200° | 62km/h | 24502m | -13.0m/s | -51.4°C | 3.6% | 28.7hPa | 2.6V | 00:00:00 | 02:13:53 | 00:00:00 | |
| DL6DJ-15 | 2026-09-02 00:42:56 | 48.33535 | 12.56293 | 321° | 37km/h | 24616m | -12.8m/s | -51.4°C | 0.9% | 28.3hPa | 2.5V | 00:00:00 | 00:00:00 | 00:00:00 | |
| BAUMI2-15 | 2026-09-02 00:42:54 | 48.33527 | 12.56299 | 339° | 31km/h | 24629m | -12.9m/s | -51.3°C | 3.6% | 28.1hPa | 2.5V | 00:00:00 | 02:13:43 | 00:00:00 | |
| PG1ADW-2 | 2026-09-02 00:42:53 | 48.33519 | 12.56301 | 4° | 46km/h | 24642m | -12.9m/s | -51.3°C | 3.6% | 28.1hPa | 2.5V | 00:00:00 | 00:00:00 | 00:00:00 | |
| OE8JPQ-2 | 2026-09-02 00:42:51 | 48.33508 | 12.56290 | 58° | 47km/h | 24668m | -13.3m/s | -51.4°C | 3.6% | 28.0hPa | 2.5V | 00:00:00 | 00:00:00 | 00:00:00 | |
| OE5MMP-10 | 2026-09-02 00:42:50 | 48.33505 | 12.56279 | 86° | 46km/h | 24681m | -13.0m/s | -51.5°C | 3.6% | 27.9hPa | 2.5V | 00:00:00 | 02:13:39 | 00:00:00 | |
| BAUMI2-15 | 2026-09-02 00:42:49 | 48.33506 | 12.56267 | 103° | 42km/h | 24694m | -13.2m/s | -51.5°C | 3.6% | 27.9hPa | 2.5V | 00:00:00 | 02:13:38 | 00:00:00 | |
| OE5WHR-10 | 2026-09-02 00:42:47 | 48.33516 | 12.56242 | 140° | 47km/h | 24720m | -12.4m/s | -51.5°C | 3.7% | 27.8hPa | 2.6V | 00:00:00 | 00:00:00 | 00:00:00 | |
| DO3MHA-11 | 2026-09-02 00:42:44 | 48.33551 | 12.56229 | 186° | 46km/h | 24758m | -13.1m/s | -51.5°C | 3.7% | 27.6hPa | 2.4V | 00:00:00 | 02:13:33 | 00:00:00 | |
| PETON7-10 | 2026-09-02 00:42:41 | 48.33587 | 12.56258 | 227° | 55km/h | 24797m | -12.8m/s | -51.4°C | 3.6% | 27.4hPa | 2.4V | 00:00:00 | 02:13:30 | 00:00:00 | |
| OE5MMP-10 | 2026-09-02 00:42:40 | 48.33595 | 12.56275 | 242° | 49km/h | 24810m | -12.2m/s | -51.4°C | 3.6% | 27.4hPa | 2.4V | 00:00:00 | 02:13:29 | 00:00:00 | |
| BAUMI2-15 | 2026-09-02 00:42:39 | 48.33600 | 12.56295 | 254° | 53km/h | 24823m | -13.1m/s | -51.3°C | 3.6% | 27.3hPa | 2.4V | 00:00:00 | 02:13:28 | 00:00:00 | |
| OE5FHM-15 | 2026-09-02 00:42:37 | 48.33602 | 12.56336 | 280° | 46km/h | 24849m | -12.0m/s | -51.3°C | 3.6% | 27.2hPa | 2.4V | 00:00:00 | 02:13:26 | 00:00:00 | |
| BAUMI2-15 | 2026-09-02 00:42:34 | 48.33584 | 12.56383 | 323° | 44km/h | 24886m | -11.9m/s | -51.3°C | 3.6% | 27.0hPa | 2.4V | 08:23:00 | 02:13:23 | 00:00:00 | |
| PG1ADW-2 | 2026-09-02 00:42:33 | 48.33574 | 12.56391 | 343° | 47km/h | 24898m | -12.3m/s | -51.3°C | 3.6% | 27.0hPa | 2.5V | 00:00:00 | 00:00:00 | 00:00:00 | |
| OE5MMP-10 | 2026-09-02 00:42:30 | 48.33541 | 12.56386 | 26° | 46km/h | 24936m | -13.3m/s | -51.5°C | 3.6% | 26.8hPa | 2.6V | 00:00:00 | 02:13:19 | 00:00:00 | |
| BAUMI2-15 | 2026-09-02 00:42:29 | 48.33532 | 12.56377 | 43° | 44km/h | 24950m | -12.8m/s | -51.6°C | 3.6% | 26.8hPa | 2.5V | 00:00:00 | 02:13:18 | 00:00:00 | |
| DL6DJ-15 | 2026-09-02 00:42:25 | 48.33534 | 12.56304 | 135° | 46km/h | 25012m | -12.3m/s | -51.6°C | 0.9% | 26.6hPa | 2.5V | 00:00:00 | 00:00:00 | 00:00:00 | |
| DO3MHA-11 | 2026-09-02 00:42:24 | 48.33534 | 12.56304 | 136° | 49km/h | 25012m | -12.2m/s | -51.5°C | 3.6% | 26.5hPa | 2.5V | 00:00:00 | 02:13:13 | 00:00:00 | |
| BAUMI2-15 | 2026-09-02 00:42:21 | 48.33568 | 12.56283 | 181° | 51km/h | 25050m | -12.7m/s | -51.4°C | 3.6% | 26.4hPa | 2.5V | 00:00:00 | 02:13:10 | 00:00:00 | |
| OE5WHR-10 | 2026-09-02 00:42:20 | 48.33580 | 12.56286 | 195° | 51km/h | 25063m | -12.8m/s | -51.4°C | 3.5% | 26.3hPa | 2.5V | 00:00:00 | 00:00:00 | 00:00:00 | |
| OE5REO-15 | 2026-09-02 00:42:19 | 48.33580 | 12.56286 | 195° | 51km/h | 25063m | -12.8m/s | -51.4°C | 0.9% | 26.3hPa | 2.5V | 08:24:00 | 00:00:00 | 00:00:00 | |
| OE5MMP-10 | 2026-09-02 00:42:18 | 48.33603 | 12.56304 | 223° | 53km/h | 25090m | -13.3m/s | -51.3°C | 3.5% | 26.2hPa | 2.5V | 00:00:00 | 02:13:07 | 00:00:00 | |
| OE5HKT-10 | 2026-09-02 00:42:15 | 48.33621 | 12.56355 | 264° | 49km/h | 25130m | -13.5m/s | -51.4°C | 3.6% | 26.0hPa | 2.5V | 00:00:00 | 00:00:00 | 00:00:00 | |
| DO7DH-14 | 2026-09-02 00:42:14 | 48.33621 | 12.56373 | 280° | 49km/h | 25144m | -13.5m/s | -51.4°C | 3.6% | 25.9hPa | 2.5V | 00:00:00 | 02:13:03 | 00:00:00 | |
| PG1ADW-2 | 2026-09-02 00:42:13 | 48.33617 | 12.56389 | 296° | 49km/h | 25157m | -13.2m/s | -51.5°C | 3.6% | 25.9hPa | 2.5V | 00:00:00 | 00:00:00 | 00:00:00 | |
| DO3MHA-11 | 2026-09-02 00:42:12 | 48.33612 | 12.56401 | 314° | 44km/h | 25170m | -13.2m/s | -51.5°C | 3.6% | 25.8hPa | 2.5V | 00:00:00 | 02:13:01 | 00:00:00 | |
| OE5DXL-15 | 2026-09-02 00:42:11 | 48.33604 | 12.56410 | 335° | 49km/h | 25184m | -13.0m/s | -51.5°C | 3.6% | 25.8hPa | 2.5V | 00:00:00 | 00:00:00 | 00:00:00 | |
| OE5FHM-15 | 2026-09-02 00:42:07 | 48.33569 | 12.56396 | 55° | 51km/h | 25237m | -13.8m/s | -51.6°C | 3.6% | 25.6hPa | 2.5V | 00:00:00 | 02:12:56 | 00:00:00 | |
| OE5REO-15 | 2026-09-02 00:42:04 | 48.33563 | 12.56365 | 91° | 47km/h | 25265m | -14.1m/s | -51.8°C | 0.9% | 25.5hPa | 2.5V | 08:24:00 | 00:00:00 | 00:00:00 | |
| DL6DJ-15 | 2026-09-02 00:41:54 | 48.33676 | 12.56366 | 262° | 53km/h | 25428m | -12.9m/s | -51.8°C | 0.9% | 24.9hPa | 2.5V | 00:00:00 | 00:00:00 | 00:00:00 | |
| PG1ADW-2 | 2026-09-02 00:41:53 | 48.33676 | 12.56366 | 263° | 47km/h | 25428m | -12.9m/s | -51.7°C | 3.7% | 24.9hPa | 2.5V | 00:00:00 | 02:12:42 | 00:00:00 | |
| OE5DRO-10 | 2026-09-02 00:41:52 | 48.33676 | 12.56386 | 278° | 53km/h | 25441m | -13.0m/s | -51.7°C | 3.7% | 24.8hPa | 2.5V | 00:00:00 | 00:00:00 | 00:00:00 | |
| OE5REO-15 | 2026-09-02 00:41:48 | 48.33657 | 12.56435 | 324° | 49km/h | 25480m | -12.4m/s | -51.9°C | 0.9% | 24.7hPa | 2.5V | 08:24:00 | 00:00:00 | 00:00:00 | |
| OE8JPQ-2 | 2026-09-02 00:41:47 | 48.33634 | 12.56447 | 358° | 47km/h | 25505m | -12.8m/s | -51.9°C | 3.8% | 24.6hPa | 2.5V | 00:00:00 | 00:00:00 | 00:00:00 | |
| DO3MHA-11 | 2026-09-02 00:41:46 | 48.33623 | 12.56445 | 17° | 42km/h | 25518m | -13.7m/s | -51.9°C | 3.8% | 24.5hPa | 2.5V | 00:00:00 | 02:12:35 | 00:00:00 | |
| OE5WHR-10 | 2026-09-02 00:41:38 | 48.33617 | 12.56349 | 159° | 49km/h | 25631m | -13.3m/s | -51.8°C | 3.8% | 24.0hPa | 2.5V | 00:00:00 | 00:00:00 | 00:00:00 | |
| DO3MHA-11 | 2026-09-02 00:41:36 | 48.33640 | 12.56347 | 195° | 53km/h | 25658m | -13.0m/s | -51.6°C | 3.8% | 24.0hPa | 2.4V | 00:00:00 | 02:12:25 | 00:00:00 | |
| OE5DXL-15 | 2026-09-02 00:41:35 | 48.33652 | 12.56354 | 210° | 55km/h | 25672m | -13.1m/s | -51.5°C | 3.8% | 23.9hPa | 2.4V | 08:24:00 | 00:00:00 | 00:00:00 | |
| OE5MMP-10 | 2026-09-02 00:41:34 | 48.33663 | 12.56366 | 224° | 49km/h | 25686m | -13.3m/s | -51.3°C | 3.7% | 23.9hPa | 2.5V | 00:00:00 | 02:12:23 | 00:00:00 | |
| OE5HKT-10 | 2026-09-02 00:41:33 | 48.33672 | 12.56382 | 237° | 49km/h | 25700m | -13.4m/s | -51.2°C | 3.7% | 23.8hPa | 2.5V | 00:00:00 | 00:00:00 | 00:00:00 | |
| OE5FHM-15 | 2026-09-02 00:41:32 | 48.33678 | 12.56400 | 252° | 53km/h | 25714m | -13.4m/s | -51.0°C | 3.6% | 23.8hPa | 2.6V | 00:00:00 | 02:12:21 | 00:00:00 | |
| OE5DRO-10 | 2026-09-02 00:41:31 | 48.33681 | 12.56420 | 264° | 57km/h | 25727m | -12.8m/s | -50.9°C | 3.6% | 23.7hPa | 2.6V | 00:00:00 | 00:00:00 | 08:30:00 | |
| DO7DH-14 | 2026-09-02 00:41:28 | 48.33672 | 12.56472 | 308° | 57km/h | 25767m | -13.1m/s | -50.6°C | 3.5% | 23.5hPa | 2.5V | 00:00:00 | 02:12:17 | 00:00:00 | |
| OE8JPQ-2 | 2026-09-02 00:41:25 | 48.33643 | 12.56495 | 359° | 55km/h | 25809m | -14.3m/s | -50.5°C | 3.4% | 23.4hPa | 2.5V | 00:00:00 | 02:12:14 | 00:00:00 | |
| OE5MMP-10 | 2026-09-02 00:41:24 | 48.33631 | 12.56493 | 15° | 49km/h | 25823m | -14.5m/s | -50.5°C | 3.4% | 23.3hPa | 2.5V | 00:00:00 | 02:12:13 | 00:00:00 | |
| DO3MHA-11 | 2026-09-02 00:41:23 | 48.33620 | 12.56486 | 32° | 44km/h | 25838m | -14.2m/s | -50.6°C | 3.4% | 23.3hPa | 2.5V | 08:24:00 | 02:12:12 | 00:00:00 | |
| DL6DJ-15 | 2026-09-02 00:41:22 | 48.33610 | 12.56474 | 48° | 49km/h | 25853m | -13.9m/s | -50.7°C | 0.9% | 23.3hPa | 2.5V | 00:00:00 | 00:00:00 | 00:00:00 | |
| OE5WHR-10 | 2026-09-02 00:41:17 | 48.33608 | 12.56386 | 129° | 55km/h | 25921m | -14.2m/s | -51.0°C | 3.6% | 23.0hPa | 2.5V | 00:00:00 | 00:00:00 | 00:00:00 | |
| OE5REO-15 | 2026-09-02 00:41:16 | 48.33608 | 12.56386 | 129° | 49km/h | 25921m | -14.2m/s | -51.1°C | 0.9% | 23.0hPa | 2.5V | 08:25:00 | 00:00:00 | 00:00:00 | |
| OE5MMP-10 | 2026-09-02 00:41:14 | 48.33641 | 12.56362 | 177° | 60km/h | 25965m | -14.3m/s | -51.0°C | 3.6% | 22.8hPa | 2.5V | 00:00:00 | 02:12:03 | 00:00:00 | |
| OE5HKT-10 | 2026-09-02 00:41:12 | 48.33668 | 12.56371 | 207° | 53km/h | 25994m | -15.2m/s | -51.1°C | 3.7% | 22.7hPa | 2.5V | 00:00:00 | 00:00:00 | 00:00:00 | |
| OE5DRO-10 | 2026-09-02 00:41:06 | 48.33697 | 12.56490 | 292° | 58km/h | 26087m | -14.2m/s | -51.1°C | 3.7% | 22.4hPa | 2.5V | 00:00:00 | 00:00:00 | 00:00:00 | |
| OE8JPQ-2 | 2026-09-02 00:41:05 | 48.33689 | 12.56510 | 307° | 57km/h | 26101m | -14.1m/s | -51.0°C | 3.7% | 22.3hPa | 2.5V | 08:25:00 | 00:00:00 | 00:00:00 | |
| OE5MMP-10 | 2026-09-02 00:41:04 | 48.33679 | 12.56525 | 323° | 46km/h | 26116m | -13.8m/s | -51.0°C | 3.7% | 22.3hPa | 2.6V | 08:25:00 | 02:11:53 | 00:00:00 | |
| OE5FHM-15 | 2026-09-02 00:41:02 | 48.33653 | 12.56540 | 357° | 51km/h | 26145m | -14.4m/s | -51.0°C | 3.8% | 22.2hPa | 2.6V | 00:00:00 | 02:11:51 | 00:00:00 | |
| OE5REO-15 | 2026-09-02 00:41:00 | 48.33640 | 12.56538 | 14° | 53km/h | 26159m | -14.7m/s | -51.0°C | 0.9% | 22.2hPa | 2.6V | 08:25:00 | 00:00:00 | 00:00:00 | |
| OE5WHR-10 | 2026-09-02 00:40:56 | 48.33611 | 12.56479 | 114° | 53km/h | 26231m | -13.2m/s | -50.8°C | 3.8% | 21.9hPa | 2.6V | 00:00:00 | 02:11:45 | 00:00:00 | |
| DO3MHA-11 | 2026-09-02 00:40:55 | 48.33616 | 12.56468 | 142° | 49km/h | 26244m | -13.7m/s | -50.8°C | 3.8% | 21.8hPa | 2.6V | 00:00:00 | 02:11:44 | 00:00:00 | |
| OE5MMP-10 | 2026-09-02 00:40:54 | 48.33624 | 12.56463 | 169° | 55km/h | 26259m | -14.5m/s | -50.8°C | 3.8% | 21.8hPa | 2.6V | 00:00:00 | 02:11:43 | 00:00:00 | |
| OE5HKT-10 | 2026-09-02 00:40:51 | 48.33657 | 12.56478 | 220° | 57km/h | 26304m | -15.3m/s | -50.3°C | 3.7% | 21.6hPa | 2.6V | 00:00:00 | 02:11:40 | 00:00:00 | |
| OE5DRO-10 | 2026-09-02 00:40:46 | 48.33671 | 12.56581 | 293° | 55km/h | 26380m | -15.3m/s | -49.7°C | 3.6% | 21.3hPa | 2.6V | 00:00:00 | 00:00:00 | 00:00:00 | |
| OE8JPQ-2 | 2026-09-02 00:40:45 | 48.33664 | 12.56601 | 310° | 58km/h | 26395m | -14.9m/s | -49.5°C | 3.6% | 21.3hPa | 2.6V | 00:00:00 | 00:00:00 | 00:00:00 | |
| OE5MMP-10 | 2026-09-02 00:40:44 | 48.33652 | 12.56616 | 327° | 55km/h | 26410m | -15.1m/s | -49.4°C | 3.5% | 21.3hPa | 2.6V | 00:00:00 | 02:11:33 | 00:00:00 | |
| DO3MHA-11 | 2026-09-02 00:40:36 | 48.33575 | 12.56547 | 102° | 47km/h | 26533m | -15.7m/s | -48.3°C | 3.2% | 20.8hPa | 2.6V | 00:00:00 | 02:11:25 | 00:00:00 | |
| OE5WHR-10 | 2026-09-02 00:40:35 | 48.33579 | 12.56530 | 122° | 53km/h | 26549m | -14.9m/s | -48.3°C | 3.2% | 20.8hPa | 2.6V | 08:25:00 | 00:00:00 | 00:00:00 | |
| OE5MMP-10 | 2026-09-02 00:40:34 | 48.33587 | 12.56517 | 141° | 51km/h | 26564m | -15.4m/s | -48.3°C | 3.2% | 20.7hPa | 2.4V | 00:00:00 | 02:11:23 | 00:00:00 | |
| OE5FHM-15 | 2026-09-02 00:40:32 | 48.33608 | 12.56507 | 186° | 55km/h | 26595m | -15.0m/s | -48.4°C | 3.3% | 20.6hPa | 2.6V | 00:00:00 | 02:11:21 | 00:00:00 | |
| OE5HKT-10 | 2026-09-02 00:40:30 | 48.33628 | 12.56523 | 230° | 53km/h | 26626m | -15.4m/s | -48.3°C | 3.3% | 20.6hPa | 2.6V | 00:00:00 | 00:00:00 | 00:00:00 | |
| OE5REO-15 | 2026-09-02 00:40:28 | 48.33634 | 12.56538 | 250° | 49km/h | 26642m | -16.2m/s | -48.3°C | 0.8% | 20.5hPa | 2.6V | 08:26:00 | 00:00:00 | 00:00:00 | |
| OE5DRO-10 | 2026-09-02 00:40:26 | 48.33629 | 12.56596 | 304° | 60km/h | 26690m | -14.7m/s | -47.9°C | 3.1% | 20.4hPa | 2.6V | 00:00:00 | 00:00:00 | 00:00:00 | |
| OE8JPQ-2 | 2026-09-02 00:40:25 | 48.33619 | 12.56612 | 321° | 60km/h | 26704m | -14.5m/s | -47.8°C | 3.1% | 20.3hPa | 2.6V | 00:00:00 | 02:11:14 | 00:00:00 | |
| OE5MMP-10 | 2026-09-02 00:40:24 | 48.33607 | 12.56624 | 338° | 57km/h | 26719m | -14.6m/s | -47.7°C | 3.1% | 20.2hPa | 2.6V | 00:00:00 | 02:11:13 | 00:00:00 | |
| DO3MHA-11 | 2026-09-02 00:40:21 | 48.33563 | 12.56621 | 28° | 60km/h | 26764m | -15.4m/s | -47.7°C | 3.1% | 20.1hPa | 2.6V | 00:00:00 | 02:11:10 | 00:00:00 | |
| DL6DJ-15 | 2026-09-02 00:40:20 | 48.33551 | 12.56608 | 43° | 60km/h | 26779m | -15.1m/s | -47.8°C | 0.7% | 20.1hPa | 2.4V | 00:00:00 | 00:00:00 | 00:00:00 | |
| OE5WHR-10 | 2026-09-02 00:40:14 | 48.33554 | 12.56508 | 156° | 58km/h | 26873m | -15.9m/s | -47.7°C | 3.1% | 19.8hPa | 2.4V | 00:00:00 | 00:00:00 | 00:00:00 | |
| OE5REO-15 | 2026-09-02 00:40:13 | 48.33554 | 12.56507 | 157° | 44km/h | 26873m | -16.0m/s | -47.8°C | 0.7% | 19.8hPa | 2.4V | 08:26:00 | 00:00:00 | 00:00:00 | |
| OE5HKT-10 | 2026-09-02 00:40:09 | 48.33595 | 12.56553 | 267° | 58km/h | 26953m | -15.8m/s | -47.9°C | 3.2% | 19.5hPa | 2.4V | 00:00:00 | 00:00:00 | 00:00:00 | |
| DO7DH-14 | 2026-09-02 00:40:06 | 48.33577 | 12.56614 | 319° | 60km/h | 27001m | -16.0m/s | -47.6°C | 3.1% | 19.4hPa | 2.4V | 00:00:00 | 02:10:55 | 00:00:00 | |
| OE8JPQ-2 | 2026-09-02 00:40:05 | 48.33563 | 12.56628 | 335° | 62km/h | 27017m | -16.0m/s | -47.6°C | 3.1% | 19.3hPa | 2.4V | 00:00:00 | 00:00:00 | 00:00:00 | |
| OE5MMP-10 | 2026-09-02 00:40:04 | 48.33547 | 12.56636 | 350° | 66km/h | 27032m | -15.8m/s | -47.6°C | 3.0% | 19.2hPa | 2.4V | 00:00:00 | 02:10:53 | 00:00:00 | |
| OE5FHM-15 | 2026-09-02 00:40:02 | 48.33512 | 12.56632 | 21° | 60km/h | 27064m | -16.2m/s | -47.7°C | 3.1% | 19.2hPa | 2.6V | 08:26:00 | 02:10:51 | 00:00:00 | |
| BAUMI2-15 | 2026-09-02 00:39:59 | 48.33473 | 12.56579 | 67° | 62km/h | 27111m | -15.6m/s | -47.8°C | 3.1% | 19.1hPa | 2.5V | 00:00:00 | 02:10:48 | 00:00:00 | |
| OE5REO-15 | 2026-09-02 00:39:57 | 48.33469 | 12.56555 | 84° | 64km/h | 27127m | -15.9m/s | -47.9°C | 0.8% | 19.0hPa | 2.6V | 08:27:00 | 00:00:00 | 00:00:00 | |
| OE5MMP-10 | 2026-09-02 00:39:54 | 48.33494 | 12.56483 | 157° | 53km/h | 27190m | -16.5m/s | -47.9°C | 3.2% | 18.8hPa | 2.6V | 00:00:00 | 02:10:43 | 00:00:00 | |
| OE5WHR-10 | 2026-09-02 00:39:53 | 48.33506 | 12.56478 | 176° | 58km/h | 27206m | -16.7m/s | -47.9°C | 3.2% | 18.8hPa | 2.6V | 00:00:00 | 02:10:42 | 00:00:00 | |
| BAUMI2-15 | 2026-09-02 00:39:49 | 48.33542 | 12.56520 | 262° | 55km/h | 27271m | -16.4m/s | -47.9°C | 3.3% | 18.5hPa | 2.6V | 00:00:00 | 02:10:38 | 00:00:00 | |
| OE5HKT-10 | 2026-09-02 00:39:48 | 48.33542 | 12.56539 | 283° | 60km/h | 27287m | -16.4m/s | -47.8°C | 3.3% | 18.5hPa | 2.6V | 00:00:00 | 02:10:37 | 00:00:00 | |
| DK5PH-5 | 2026-09-02 00:39:45 | 48.33514 | 12.56582 | 342° | 60km/h | 27338m | -17.3m/s | 0°C | 0% | 0hPa | 2.6V | 08:26:00 | 02:10:34 | 00:00:00 | |
| OE5MMP-10 | 2026-09-02 00:39:44 | 48.33500 | 12.56586 | 360° | 62km/h | 27355m | -17.2m/s | -47.5°C | 3.2% | 18.3hPa | 2.6V | 00:00:00 | 02:10:33 | 00:00:00 | |
| BAUMI2-15 | 2026-09-02 00:39:42 | 48.33472 | 12.56572 | 38° | 62km/h | 27388m | -17.1m/s | -47.3°C | 3.2% | 18.2hPa | 2.6V | 08:26:00 | 02:10:31 | 00:00:00 | |
| OE5REO-15 | 2026-09-02 00:39:41 | 48.33472 | 12.56572 | 38° | 60km/h | 27388m | -17.2m/s | -47.3°C | 0.8% | 18.2hPa | 2.4V | 08:27:00 | 00:00:00 | 00:00:00 | |
| DO3MHA-11 | 2026-09-02 00:39:35 | 48.33495 | 12.56443 | 166° | 62km/h | 27508m | -17.9m/s | -46.8°C | 3.1% | 17.9hPa | 2.4V | 00:00:00 | 02:10:24 | 00:00:00 | |
| OE5MMP-10 | 2026-09-02 00:39:34 | 48.33510 | 12.56441 | 185° | 62km/h | 27526m | -17.6m/s | -46.8°C | 3.1% | 17.8hPa | 2.4V | 08:26:00 | 02:10:23 | 00:00:00 | |
| OE5FHM-15 | 2026-09-02 00:39:32 | 48.33539 | 12.56458 | 221° | 60km/h | 27559m | -16.7m/s | -46.5°C | 3.0% | 17.7hPa | 2.4V | 00:00:00 | 02:10:21 | 00:00:00 | |
| BAUMI2-15 | 2026-09-02 00:39:30 | 48.33554 | 12.56498 | 261° | 62km/h | 27592m | -17.0m/s | -46.4°C | 3.0% | 17.6hPa | 2.4V | 00:00:00 | 02:10:19 | 00:00:00 | |
| OE5HKT-10 | 2026-09-02 00:39:27 | 48.33540 | 12.56560 | 317° | 58km/h | 27644m | -18.1m/s | -46.4°C | 3.0% | 17.5hPa | 2.4V | 08:26:00 | 00:00:00 | 00:00:00 | |
| OE5DXL-15 | 2026-09-02 00:39:26 | 48.33527 | 12.56573 | 335° | 60km/h | 27662m | -18.4m/s | -46.4°C | 3.0% | 17.4hPa | 2.6V | 00:00:00 | 00:00:00 | 00:00:00 | |
| BAUMI2-15 | 2026-09-02 00:39:25 | 48.33512 | 12.56580 | 354° | 62km/h | 27679m | -18.3m/s | -46.4°C | 3.0% | 17.4hPa | 2.6V | 00:00:00 | 02:10:14 | 00:00:00 | |
| OE5MMP-10 | 2026-09-02 00:39:24 | 48.33497 | 12.56580 | 11° | 60km/h | 27697m | -17.9m/s | -46.4°C | 3.1% | 17.3hPa | 2.6V | 00:00:00 | 02:10:13 | 00:00:00 | |
| BAUMI2-15 | 2026-09-02 00:39:20 | 48.33459 | 12.56517 | 88° | 58km/h | 27766m | -18.0m/s | -46.2°C | 3.0% | 17.2hPa | 2.6V | 00:00:00 | 02:10:09 | 00:00:00 | |
| DL6DJ-15 | 2026-09-02 00:39:18 | 48.33467 | 12.56475 | 124° | 58km/h | 27802m | -17.5m/s | -46.2°C | 0.7% | 17.1hPa | 2.6V | 00:00:00 | 00:00:00 | 00:00:00 | |
| DO3MHA-11 | 2026-09-02 00:39:16 | 48.33490 | 12.56449 | 161° | 64km/h | 27837m | -17.8m/s | -46.0°C | 3.0% | 17.0hPa | 2.6V | 00:00:00 | 02:10:05 | 00:00:00 | |
| BAUMI2-15 | 2026-09-02 00:39:15 | 48.33504 | 12.56445 | 182° | 55km/h | 27854m | -17.2m/s | -45.9°C | 3.0% | 16.9hPa | 2.6V | 00:00:00 | 02:10:04 | 00:00:00 | |
| OE5MMP-10 | 2026-09-02 00:39:14 | 48.33518 | 12.56450 | 201° | 58km/h | 27872m | -17.9m/s | -45.7°C | 2.9% | 16.9hPa | 2.6V | 00:00:00 | 02:10:03 | 00:00:00 | |
| BAUMI2-15 | 2026-09-02 00:39:10 | 48.33541 | 12.56516 | 285° | 60km/h | 27943m | -18.5m/s | -45.6°C | 2.9% | 16.7hPa | 2.6V | 00:00:00 | 02:09:59 | 00:00:00 | |
| OE5REO-15 | 2026-09-02 00:39:07 | 48.33524 | 12.56550 | 326° | 58km/h | 27979m | -18.1m/s | -45.4°C | 0.7% | 16.6hPa | 2.6V | 08:27:00 | 00:00:00 | 00:00:00 | |
| BAUMI2-15 | 2026-09-02 00:39:05 | 48.33479 | 12.56558 | 22° | 68km/h | 28033m | -18.3m/s | -45.1°C | 2.9% | 16.4hPa | 2.6V | 00:00:00 | 02:09:54 | 00:00:00 | |
| OE5MMP-10 | 2026-09-02 00:39:04 | 48.33465 | 12.56546 | 38° | 64km/h | 28052m | -18.8m/s | -45.2°C | 2.9% | 16.4hPa | 2.6V | 00:00:00 | 02:09:53 | 00:00:00 | |
| DL6DJ-15 | 2026-09-02 00:38:47 | 48.33474 | 12.56518 | 16° | 66km/h | 28385m | -20.7m/s | -43.9°C | 0.6% | 15.7hPa | 2.4V | 00:00:00 | 00:00:00 | 00:00:00 | |
| OE5MMP-10 | 2026-09-02 00:38:44 | 48.33447 | 12.56490 | 52° | 69km/h | 28424m | -19.0m/s | -43.7°C | 2.6% | 15.5hPa | 2.4V | 00:00:00 | 02:09:33 | 00:00:00 | |
| OE5WHR-10 | 2026-09-02 00:38:40 | 48.33442 | 12.56386 | 116° | 68km/h | 28499m | -21.0m/s | -43.8°C | 2.6% | 15.3hPa | 2.4V | 00:00:00 | 02:09:29 | 00:00:00 | |
| OE5HKT-10 | 2026-09-02 00:38:39 | 48.33452 | 12.56363 | 130° | 60km/h | 28519m | -19.7m/s | -43.8°C | 2.6% | 15.3hPa | 2.4V | 00:00:00 | 02:09:28 | 00:00:00 | |
| OE5REO-15 | 2026-09-02 00:38:37 | 48.33480 | 12.56334 | 165° | 66km/h | 28557m | -19.1m/s | -43.9°C | 0.6% | 15.2hPa | 2.4V | 08:27:00 | 00:00:00 | 00:00:00 | |
| OE5MMP-10 | 2026-09-02 00:38:34 | 48.33522 | 12.56342 | 219° | 55km/h | 28613m | -18.7m/s | -43.7°C | 2.6% | 15.0hPa | 2.4V | 00:00:00 | 02:09:23 | 00:00:00 | |
| OE5FHM-15 | 2026-09-02 00:38:32 | 48.33533 | 12.56373 | 264° | 62km/h | 28650m | -19.6m/s | -43.7°C | 2.6% | 15.0hPa | 2.6V | 00:00:00 | 02:09:21 | 00:00:00 | |
| OE8JPQ-2 | 2026-09-02 00:38:31 | 48.33532 | 12.56390 | 290° | 55km/h | 28669m | -18.1m/s | -43.6°C | 2.6% | 14.9hPa | 2.4V | 00:00:00 | 00:00:00 | 00:00:00 | |
| DK5PH-5 | 2026-09-02 00:38:29 | 48.33515 | 12.56417 | 334° | 66km/h | 28707m | -18.8m/s | 0°C | 0% | 0hPa | 2.4V | 00:00:00 | 02:09:18 | 00:00:00 | |
| BAUMI2-15 | 2026-09-02 00:38:28 | 48.33502 | 12.56423 | 355° | 64km/h | 28726m | -20.4m/s | -43.4°C | 2.5% | 14.8hPa | 2.4V | 08:27:00 | 02:09:17 | 00:00:00 | |
| OE5MMP-10 | 2026-09-02 00:38:24 | 48.33448 | 12.56379 | 63° | 64km/h | 28803m | -20.1m/s | -43.6°C | 2.6% | 14.6hPa | 2.4V | 00:00:00 | 02:09:13 | 00:00:00 | |
| BAUMI2-15 | 2026-09-02 00:38:23 | 48.33442 | 12.56356 | 78° | 68km/h | 28823m | -20.0m/s | -43.6°C | 2.5% | 14.5hPa | 2.4V | 00:00:00 | 02:09:12 | 00:00:00 | |
| DO3MHA-11 | 2026-09-02 00:38:22 | 48.33441 | 12.56330 | 94° | 68km/h | 28843m | -21.1m/s | -43.7°C | 2.6% | 14.5hPa | 2.4V | 00:00:00 | 02:09:11 | 00:00:00 | |
| OE5REO-15 | 2026-09-02 00:38:20 | 48.33444 | 12.56306 | 112° | 68km/h | 28863m | -19.5m/s | -43.7°C | 0.6% | 14.5hPa | 2.4V | 08:28:00 | 00:00:00 | 00:00:00 | |
| OE5HKT-10 | 2026-09-02 00:38:17 | 48.33492 | 12.56253 | 179° | 62km/h | 28942m | -19.6m/s | -43.9°C | 2.6% | 14.3hPa | 2.4V | 00:00:00 | 00:00:00 | 00:00:00 | |
| OE5MMP-10 | 2026-09-02 00:38:14 | 48.33527 | 12.56283 | 239° | 62km/h | 28999m | -20.3m/s | -43.9°C | 2.6% | 14.2hPa | 2.6V | 00:00:00 | 02:09:03 | 00:00:00 | |
| OE8JPQ-2 | 2026-09-02 00:38:11 | 48.33527 | 12.56344 | 299° | 62km/h | 29057m | -20.0m/s | -43.9°C | 2.6% | 14.1hPa | 2.6V | 00:00:00 | 02:09:00 | 00:00:00 | |
| DO7DH-14 | 2026-09-02 00:38:09 | 48.33504 | 12.56374 | 339° | 58km/h | 29097m | -19.2m/s | -44.0°C | 2.6% | 13.9hPa | 2.6V | 00:00:00 | 02:08:58 | 00:00:00 | |
| OE5MMP-10 | 2026-09-02 00:38:04 | 48.33430 | 12.56332 | 62° | 60km/h | 29199m | -21.5m/s | -44.1°C | 2.7% | 13.8hPa | 2.6V | 08:28:00 | 02:08:53 | 00:00:00 | |
| DO3MHA-11 | 2026-09-02 00:38:02 | 48.33423 | 12.56283 | 95° | 68km/h | 29239m | -19.1m/s | -44.2°C | 2.7% | 13.6hPa | 2.4V | 08:28:00 | 02:08:51 | 00:00:00 | |
| OE5HKT-10 | 2026-09-02 00:37:56 | 48.33488 | 12.56225 | 211° | 66km/h | 29358m | -21.4m/s | -44.4°C | 2.7% | 13.4hPa | 2.6V | 00:00:00 | 00:00:00 | 00:00:00 | |
| OE5MMP-10 | 2026-09-02 00:37:54 | 48.33503 | 12.56256 | 256° | 66km/h | 29398m | -19.8m/s | -44.4°C | 2.7% | 13.3hPa | 2.6V | 00:00:00 | 02:08:43 | 00:00:00 | |
| OE5DXL-15 | 2026-09-02 00:37:51 | 48.33492 | 12.56311 | 321° | 58km/h | 29456m | -21.0m/s | -44.4°C | 2.7% | 13.2hPa | 2.6V | 00:00:00 | 00:00:00 | 00:00:00 | |
| OE5REO-15 | 2026-09-02 00:37:47 | 48.33443 | 12.56326 | 14° | 71km/h | 29517m | -21.5m/s | -44.5°C | 0.7% | 13.1hPa | 2.6V | 08:28:00 | 00:00:00 | 00:00:00 | |
| OE5MMP-10 | 2026-09-02 00:37:44 | 48.33391 | 12.56253 | 73° | 68km/h | 29600m | -19.1m/s | -44.1°C | 2.7% | 12.9hPa | 2.6V | 00:00:00 | 02:08:33 | 00:00:00 | |
| DK5PH-5 | 2026-09-02 00:37:43 | 48.33388 | 12.56226 | 90° | 64km/h | 29619m | -19.6m/s | 0°C | 0% | 0hPa | 2.6V | 00:00:00 | 02:08:32 | 00:00:00 | |
| OE5WHR-10 | 2026-09-02 00:37:41 | 48.33397 | 12.56175 | 124° | 73km/h | 29658m | -21.5m/s | -44.0°C | 2.6% | 12.8hPa | 2.6V | 00:00:00 | 00:00:00 | 00:00:00 | |
| OE5HKT-10 | 2026-09-02 00:37:35 | 48.33484 | 12.56153 | 224° | 64km/h | 29781m | -21.1m/s | -44.0°C | 2.7% | 12.6hPa | 2.6V | 00:00:00 | 02:08:24 | 00:00:00 | |
| OE5MMP-10 | 2026-09-02 00:37:34 | 48.33492 | 12.56169 | 246° | 58km/h | 29801m | -19.7m/s | -44.0°C | 2.7% | 12.5hPa | 2.6V | 00:00:00 | 02:08:23 | 00:00:00 | |
| OE5FHM-15 | 2026-09-02 00:37:32 | 48.33492 | 12.56204 | 297° | 64km/h | 29839m | -20.1m/s | -43.7°C | 2.6% | 12.4hPa | 2.4V | 00:00:00 | 02:08:21 | 00:00:00 | |
| DO7DH-14 | 2026-09-02 00:37:31 | 48.33484 | 12.56218 | 319° | 57km/h | 29859m | -20.7m/s | -43.8°C | 2.6% | 12.4hPa | 2.4V | 00:00:00 | 02:08:20 | 00:00:00 | |
| OE5REO-15 | 2026-09-02 00:37:25 | 48.33416 | 12.56197 | 51° | 69km/h | 29961m | -21.2m/s | -44.0°C | 0.6% | 12.2hPa | 2.4V | 08:29:00 | 00:00:00 | 00:00:00 | |
| OE5MMP-10 | 2026-09-02 00:37:24 | 48.33401 | 12.56148 | 82° | 69km/h | 30003m | -21.9m/s | -43.7°C | 2.6% | 12.1hPa | 2.4V | 00:00:00 | 02:08:13 | 00:00:00 | |
| OE5WHR-10 | 2026-09-02 00:37:17 | 48.33475 | 12.56026 | 192° | 62km/h | 30153m | -20.2m/s | -43.8°C | 2.6% | 11.8hPa | 2.4V | 00:00:00 | 02:08:06 | 00:00:00 | |
| OE5HKT-10 | 2026-09-02 00:37:14 | 48.33507 | 12.56064 | 248° | 62km/h | 30215m | -22.3m/s | -43.7°C | 2.6% | 11.7hPa | 2.4V | 00:00:00 | 00:00:00 | 00:00:00 | |
| OE5DXL-15 | 2026-09-02 00:37:09 | 48.33476 | 12.56147 | 345° | 64km/h | 30323m | -21.4m/s | -43.6°C | 2.6% | 11.6hPa | 2.6V | 00:00:00 | 00:00:00 | 00:00:00 | |
| DK5PH-5 | 2026-09-02 00:37:06 | 48.33430 | 12.56129 | 39° | 71km/h | 30384m | -20.4m/s | 0°C | 0% | 0hPa | 2.6V | 00:00:00 | 02:07:55 | 00:00:00 | |
| OE9MKV-15 | 2026-09-02 00:37:05 | 48.33417 | 12.56110 | 52° | 73km/h | 30404m | -21.6m/s | 0°C | 0% | 0hPa | 2.6V | 00:00:00 | 02:07:54 | 00:00:00 | |
| OE5MMP-10 | 2026-09-02 00:37:04 | 48.33408 | 12.56087 | 68° | 64km/h | 30426m | -22.8m/s | -43.6°C | 2.6% | 11.4hPa | 2.6V | 00:00:00 | 02:07:53 | 00:00:00 | |
| DF3TZ-5 | 2026-09-02 00:36:58 | 48.33464 | 12.56065 | 324° | 69km/h | 30748m | -21.8m/s | 0°C | -1.0% | -1.0hPa | 2.4V | 00:00:00 | 00:00:00 | 00:00:00 | |
| OE5WHR-10 | 2026-09-02 00:36:56 | 48.33462 | 12.55947 | 194° | 62km/h | 30599m | -21.4m/s | -43.7°C | 2.7% | 11.0hPa | 2.4V | 08:29:00 | 00:00:00 | 00:00:00 | |
| DO7DH-14 | 2026-09-02 00:36:54 | 48.33482 | 12.55967 | 237° | 57km/h | 30642m | -21.3m/s | -43.6°C | 2.6% | 11.0hPa | 2.6V | 00:00:00 | 02:07:43 | 00:00:00 | |
| OE5REO-15 | 2026-09-02 00:36:53 | 48.33482 | 12.55967 | 237° | 53km/h | 30642m | -21.4m/s | -43.7°C | 0.6% | 11.0hPa | 2.4V | 08:29:00 | 00:00:00 | 00:00:00 | |
| OE5HKT-10 | 2026-09-02 00:36:48 | 48.33448 | 12.56078 | 340° | 66km/h | 30769m | -21.4m/s | -43.8°C | 2.8% | 10.8hPa | 2.4V | 00:00:00 | 00:00:00 | 00:00:00 | |
| OE5MMP-10 | 2026-09-02 00:36:44 | 48.33374 | 12.56066 | 32° | 75km/h | 30855m | -21.6m/s | -43.4°C | 2.7% | 10.6hPa | 2.4V | 00:00:00 | 02:07:33 | 00:00:00 | |
| DL6DJ-15 | 2026-09-02 00:36:43 | 48.33346 | 12.56025 | 56° | 80km/h | 30898m | -20.6m/s | -43.2°C | 0.6% | 10.6hPa | 2.4V | 00:00:00 | 00:00:00 | 00:00:00 | |
| DO3MHA-11 | 2026-09-02 00:36:42 | 48.33346 | 12.56025 | 57° | 60km/h | 30898m | -20.5m/s | -43.2°C | 2.6% | 10.5hPa | 2.4V | 00:00:00 | 02:07:31 | 00:00:00 | |
| OE5REO-15 | 2026-09-02 00:36:37 | 48.33329 | 12.55914 | 100° | 75km/h | 30982m | -20.9m/s | -43.1°C | 0.6% | 10.4hPa | 2.4V | 00:00:00 | 00:00:00 | 00:00:00 | |
| OE5MMP-10 | 2026-09-02 00:36:34 | 48.33361 | 12.55830 | 142° | 47km/h | 31064m | -19.5m/s | -43.2°C | 2.7% | 10.3hPa | 2.4V | 00:00:00 | 02:07:23 | 08:30:00 | |
| OE5DXL-15 | 2026-09-02 00:36:33 | 48.33373 | 12.55819 | 158° | 47km/h | 31083m | -19.1m/s | -43.0°C | 2.7% | 10.2hPa | 2.4V | 00:00:00 | 00:00:00 | 00:00:00 | |
| OE5FHM-15 | 2026-09-02 00:36:32 | 48.33385 | 12.55814 | 171° | 47km/h | 31102m | -19.3m/s | -42.8°C | 2.6% | 10.2hPa | 2.4V | 00:00:00 | 02:07:21 | 00:00:00 | |
| OE5WHR-10 | 2026-09-02 00:36:30 | 48.33410 | 12.55816 | 195° | 46km/h | 31141m | -19.6m/s | -42.6°C | 2.6% | 10.1hPa | 2.4V | 00:00:00 | 00:00:00 | 00:00:00 | |
| OE5HKT-10 | 2026-09-02 00:36:27 | 48.33436 | 12.55844 | 235° | 47km/h | 31202m | -20.5m/s | -42.6°C | 2.6% | 10.0hPa | 2.4V | 00:00:00 | 02:07:16 | 00:00:00 | |
| OE5MMP-10 | 2026-09-02 00:36:24 | 48.33445 | 12.55886 | 274° | 44km/h | 31264m | -20.4m/s | -42.3°C | 2.6% | 10.0hPa | 2.4V | 00:00:00 | 02:07:13 | 00:00:00 | |
| DK5PH-5 | 2026-09-02 00:36:23 | 48.33443 | 12.55900 | 293° | 47km/h | 31284m | -19.7m/s | 0°C | 0% | 0hPa | 2.4V | 00:00:00 | 02:07:12 | 00:00:00 | |
| OE5REO-15 | 2026-09-02 00:36:22 | 48.33443 | 12.55900 | 294° | 37km/h | 31284m | -19.7m/s | -42.2°C | 0.6% | 10.0hPa | 2.4V | 00:00:00 | 00:00:00 | 00:00:00 | |
| BAUMI2-15 | 2026-09-02 00:36:15 | 48.33364 | 12.55950 | 353° | 57km/h | 31433m | -18.9m/s | -41.8°C | 2.5% | 9.7hPa | 2.4V | 00:00:00 | 02:07:04 | 00:00:00 | |
| OE5MMP-10 | 2026-09-02 00:36:14 | 48.33351 | 12.55953 | 353° | 51km/h | 31452m | -19.4m/s | -41.7°C | 2.5% | 9.7hPa | 2.4V | 00:00:00 | 02:07:03 | 00:00:00 | |
| DL6DJ-15 | 2026-09-02 00:36:12 | 48.33309 | 12.55966 | 342° | 53km/h | 31511m | -20.2m/s | -41.5°C | 0.6% | 9.6hPa | 2.4V | 00:00:00 | 00:00:00 | 00:00:00 | |
| BAUMI2-15 | 2026-09-02 00:36:10 | 48.33296 | 12.55973 | 337° | 49km/h | 31531m | -19.9m/s | -41.4°C | 2.4% | 9.5hPa | 2.4V | 00:00:00 | 02:06:59 | 00:00:00 | |
| OE5WHR-10 | 2026-09-02 00:36:09 | 48.33284 | 12.55982 | 331° | 46km/h | 31551m | -20.0m/s | -41.4°C | 2.5% | 9.5hPa | 2.4V | 00:00:00 | 02:06:58 | 00:00:00 | |
| DO3MHA-11 | 2026-09-02 00:36:07 | 48.33265 | 12.56004 | 313° | 47km/h | 31591m | -19.3m/s | -41.4°C | 2.5% | 9.5hPa | 2.4V | 00:00:00 | 02:06:56 | 00:00:00 | |
| OE5HKT-10 | 2026-09-02 00:36:06 | 48.33258 | 12.56018 | 303° | 38km/h | 31611m | -19.4m/s | -41.4°C | 2.5% | 9.4hPa | 2.6V | 00:00:00 | 00:00:00 | 08:30:00 | |
| BAUMI2-15 | 2026-09-02 00:36:05 | 48.33253 | 12.56034 | 293° | 53km/h | 31630m | -20.0m/s | -41.4°C | 2.5% | 9.4hPa | 2.4V | 00:00:00 | 02:06:54 | 00:00:00 | |
| OE5MMP-10 | 2026-09-02 00:36:04 | 48.33249 | 12.56051 | 283° | 37km/h | 31650m | -20.0m/s | -41.4°C | 2.5% | 9.4hPa | 2.4V | 00:00:00 | 02:06:53 | 00:00:00 | |
| OE5FHM-15 | 2026-09-02 00:36:02 | 48.33247 | 12.56092 | 269° | 24km/h | 31694m | -23.9m/s | -41.3°C | 2.5% | 9.3hPa | 2.6V | 00:00:00 | 02:06:51 | 00:00:00 | |
| BAUMI2-15 | 2026-09-02 00:36:00 | 48.33250 | 12.56133 | 261° | 27km/h | 31748m | -29.4m/s | -41.1°C | 2.5% | 9.2hPa | 2.6V | 00:00:00 | 02:06:49 | 00:00:00 | |
| DO3MHA-11 | 2026-09-02 00:35:57 | 48.33255 | 12.56169 | 252° | 31km/h | 31837m | -25.9m/s | -41.1°C | 2.5% | 9.1hPa | 2.6V | 00:00:00 | 02:06:46 | 00:00:00 | |
| BAUMI2-15 | 2026-09-02 00:35:55 | 48.33256 | 12.56170 | 70° | 46km/h | 31882m | -18.9m/s | -40.9°C | 2.4% | 9.0hPa | 2.6V | 00:00:00 | 02:06:44 | 00:00:00 | |
| OE5MMP-10 | 2026-09-02 00:35:54 | 48.33253 | 12.56159 | 72° | 31km/h | 31901m | -20.2m/s | -40.6°C | 2.4% | 9.0hPa | 2.6V | 00:00:00 | 02:06:43 | 00:00:00 | |
| OE5REO-15 | 2026-09-02 00:35:51 | 48.33245 | 12.56119 | 76° | 57km/h | 31960m | -37.9m/s | -40.0°C | 0.5% | 9.0hPa | 2.6V | 00:00:00 | 00:00:00 | 00:00:00 | |
| BAUMI2-15 | 2026-09-02 00:35:50 | 48.33240 | 12.56086 | 80° | 18km/h | 32040m | -43.0m/s | -39.5°C | 2.1% | 8.8hPa | 2.6V | 00:00:00 | 02:06:39 | 00:00:00 | |
| DK5PH-5 | 2026-09-02 00:35:49 | 48.33239 | 12.56078 | 81° | 15km/h | 32080m | -37.8m/s | 0°C | 0% | 0hPa | 2.6V | 00:00:00 | 02:06:38 | 00:00:00 | |
| OE5WHR-10 | 2026-09-02 00:35:48 | 48.33238 | 12.56070 | 84° | 11km/h | 32115m | -31.1m/s | -39.5°C | 2.1% | 8.7hPa | 2.6V | 00:00:00 | 00:00:00 | 00:00:00 | |
| DO3MHA-11 | 2026-09-02 00:35:47 | 48.33238 | 12.56064 | 86° | 11km/h | 32143m | -23.5m/s | -39.5°C | 2.2% | 8.7hPa | 2.6V | 00:00:00 | 02:06:36 | 00:00:00 | |
| OE5HKT-10 | 2026-09-02 00:35:45 | 48.33238 | 12.56053 | 90° | 9km/h | 32174m | -7.3m/s | -39.5°C | 2.1% | 8.6hPa | 2.6V | 00:00:00 | 00:00:00 | 00:00:00 | |
| OE5MMP-10 | 2026-09-02 00:35:44 | 48.33238 | 12.56048 | 91° | 9km/h | 32177m | 2.3m/s | -39.5°C | 2.2% | 8.6hPa | 2.6V | 00:00:00 | 02:06:33 | 00:00:00 | |
| DL6DJ-15 | 2026-09-02 00:35:41 | 48.33232 | 12.56040 | 339° | 11km/h | 32148m | 6.0m/s | -39.6°C | 0.5% | 8.7hPa | 2.6V | 00:00:00 | 00:00:00 | 00:00:00 | |
| BAUMI2-15 | 2026-09-02 00:35:40 | 48.33232 | 12.56040 | 340° | 9km/h | 32148m | 6.0m/s | -39.6°C | 2.2% | 8.7hPa | 2.6V | 00:00:00 | 02:06:29 | 08:30:00 | |
| OE5REO-15 | 2026-09-02 00:35:36 | 48.33226 | 12.56046 | 278° | 4km/h | 32132m | 6.2m/s | -39.7°C | 0.5% | 8.7hPa | 2.6V | 00:00:00 | 00:00:00 | 00:00:00 | |
| DO3MHA-11 | 2026-09-02 00:35:35 | 48.33229 | 12.56045 | 153° | 9km/h | 32120m | 5.0m/s | -39.7°C | 2.1% | 8.7hPa | 2.6V | 00:00:00 | 02:06:24 | 00:00:00 | |
| OE5MMP-10 | 2026-09-02 00:35:33 | 48.33233 | 12.56040 | 128° | 9km/h | 32110m | 5.2m/s | -39.8°C | 2.2% | 8.7hPa | 2.5V | 00:00:00 | 02:06:22 | 00:00:00 | |
| OE5FHM-15 | 2026-09-02 00:35:32 | 48.33234 | 12.56037 | 101° | 9km/h | 32105m | 6.1m/s | -39.8°C | 2.2% | 8.7hPa | 2.5V | 00:00:00 | 02:06:21 | 08:30:00 | |
| BAUMI2-15 | 2026-09-02 00:35:30 | 48.33231 | 12.56034 | 13° | 11km/h | 32092m | 6.0m/s | -39.9°C | 2.2% | 8.7hPa | 2.5V | 00:00:00 | 02:06:19 | 00:00:00 | |
| OE5WHR-10 | 2026-09-02 00:35:27 | 48.33222 | 12.56033 | 8° | 9km/h | 32076m | 5.8m/s | -40.0°C | 2.2% | 8.8hPa | 2.5V | 00:00:00 | 00:00:00 | 00:00:00 | |
| BAUMI2-15 | 2026-09-02 00:35:25 | 48.33219 | 12.56031 | 81° | 4km/h | 32064m | 5.4m/s | -40.1°C | 2.2% | 8.7hPa | 2.5V | 00:00:00 | 02:06:14 | 00:00:00 | |
| OE5HKT-10 | 2026-09-02 00:35:24 | 48.33219 | 12.56030 | 137° | 9km/h | 32058m | 5.0m/s | -40.1°C | 2.2% | 8.8hPa | 2.5V | 00:00:00 | 02:06:13 | 00:00:00 | |
| OE5MMP-10 | 2026-09-02 00:35:23 | 48.33220 | 12.56029 | 160° | 7km/h | 32053m | 5.1m/s | -40.1°C | 2.2% | 8.8hPa | 2.5V | 00:00:00 | 02:06:12 | 00:00:00 | |
| OE5REO-15 | 2026-09-02 00:35:21 | 48.33221 | 12.56029 | 197° | 4km/h | 32048m | 6.0m/s | -40.2°C | 0.5% | 8.9hPa | 2.5V | 00:00:00 | 00:00:00 | 00:00:00 | |
| BAUMI2-15 | 2026-09-02 00:35:20 | 48.33221 | 12.56031 | 301° | 7km/h | 32035m | 5.6m/s | -40.2°C | 2.2% | 8.8hPa | 2.5V | 00:00:00 | 02:06:09 | 00:00:00 | |
| BAUMI2-15 | 2026-09-02 00:35:15 | 48.33219 | 12.56024 | 98° | 18km/h | 32007m | 6.1m/s | -40.3°C | 2.2% | 8.9hPa | 2.5V | 00:00:00 | 02:06:04 | 00:00:00 | |
| OE5MMP-10 | 2026-09-02 00:35:13 | 48.33219 | 12.56009 | 91° | 11km/h | 31995m | 6.1m/s | -40.4°C | 2.2% | 8.8hPa | 2.5V | 00:00:00 | 02:06:02 | 00:00:00 | |
| DL6DJ-15 | 2026-09-02 00:35:10 | 48.33216 | 12.55985 | 70° | 11km/h | 31971m | 5.7m/s | -40.7°C | -1.0% | 8.9hPa | 2.5V | 00:00:00 | 00:00:00 | 00:00:00 | |
| OE5WHR-10 | 2026-09-02 00:35:06 | 48.33215 | 12.55975 | 94° | 18km/h | 31953m | 5.1m/s | -40.8°C | 2.3% | 8.9hPa | 2.5V | 00:00:00 | 02:05:55 | 00:00:00 | |
| DO3MHA-11 | 2026-09-02 00:35:05 | 48.33215 | 12.55973 | 69° | 18km/h | 31948m | 5.3m/s | -40.8°C | 2.3% | 8.9hPa | 2.5V | 00:00:00 | 02:05:54 | 08:30:00 | |
| OE5HKT-10 | 2026-09-02 00:35:03 | 48.33212 | 12.55971 | 18° | 24km/h | 31935m | 6.0m/s | -40.8°C | 2.3% | 8.9hPa | 2.6V | 00:00:00 | 00:00:00 | 00:00:00 | |
| OE5FHM-15 | 2026-09-02 00:35:02 | 48.33209 | 12.55969 | 25° | 22km/h | 31930m | 4.9m/s | -40.9°C | 2.3% | 9.0hPa | 2.5V | 00:00:00 | 02:05:51 | 00:00:00 | |
| BAUMI2-15 | 2026-09-02 00:35:00 | 48.33203 | 12.55962 | 53° | 22km/h | 31919m | 6.3m/s | -40.9°C | 2.3% | 9.0hPa | 2.5V | 00:00:00 | 02:05:49 | 00:00:00 | |
| DK5PH-5 | 2026-09-02 00:34:59 | 48.33201 | 12.55955 | 68° | 24km/h | 31913m | 6.8m/s | 0°C | 0% | 0hPa | 2.5V | 00:00:00 | 02:05:48 | 00:00:00 | |
| BAUMI2-15 | 2026-09-02 00:34:55 | 48.33194 | 12.55924 | 58° | 20km/h | 31891m | 5.8m/s | -41.0°C | 2.3% | 9.0hPa | 2.5V | 00:00:00 | 02:05:44 | 08:30:00 | |
| DO3MHA-11 | 2026-09-02 00:34:54 | 48.33191 | 12.55919 | 32° | 24km/h | 31885m | 6.7m/s | -41.0°C | 2.4% | 9.0hPa | 2.6V | 00:00:00 | 02:05:43 | 00:00:00 | |
| OE5MMP-10 | 2026-09-02 00:34:53 | 48.33187 | 12.55917 | 9° | 26km/h | 31878m | 6.4m/s | -41.1°C | 2.3% | 9.0hPa | 2.6V | 00:00:00 | 02:05:42 | 00:00:00 | |
| BAUMI2-15 | 2026-09-02 00:34:50 | 48.33171 | 12.55916 | 9° | 24km/h | 31862m | 5.1m/s | -41.0°C | 2.3% | 9.1hPa | 2.6V | 00:00:00 | 02:05:39 | 00:00:00 | |
| OE5REO-15 | 2026-09-02 00:34:49 | 48.33171 | 12.55916 | 9° | 20km/h | 31862m | 5.1m/s | -41.1°C | 0.6% | 9.1hPa | 2.6V | 00:00:00 | 00:00:00 | 00:00:00 | |
| BAUMI2-15 | 2026-09-02 00:34:46 | 48.33155 | 12.55876 | 68° | 35km/h | 31834m | 5.2m/s | -41.1°C | 2.3% | 9.1hPa | 2.6V | 00:00:00 | 02:05:34 | 00:00:00 | |
| OE5WHR-10 | 2026-09-02 00:34:45 | 48.33155 | 12.55876 | 68° | 24km/h | 31834m | 5.2m/s | -41.1°C | 2.3% | 9.1hPa | 2.6V | 00:00:00 | 00:00:00 | 00:00:00 | |
| DO3MHA-11 | 2026-09-02 00:34:44 | 48.33150 | 12.55863 | 59° | 22km/h | 31828m | 5.9m/s | -41.2°C | 2.3% | 9.1hPa | 2.5V | 00:00:00 | 02:05:33 | 00:00:00 | |
| OE5MMP-10 | 2026-09-02 00:34:43 | 48.33145 | 12.55852 | 47° | 26km/h | 31822m | 6.4m/s | -41.2°C | 2.4% | 9.1hPa | 2.5V | 00:00:00 | 02:05:32 | 00:00:00 | |
| OE5HKT-10 | 2026-09-02 00:34:42 | 48.33138 | 12.55844 | 32° | 18km/h | 31816m | 6.2m/s | -41.2°C | 2.3% | 9.1hPa | 2.5V | 00:00:00 | 00:00:00 | 00:00:00 | |
| DL6DJ-15 | 2026-09-02 00:34:39 | 48.33116 | 12.55839 | 347° | 11km/h | 31792m | 6.1m/s | 0°C | -1.0% | -1.0hPa | 2.5V | 00:00:00 | 00:00:00 | 00:00:00 | |
| BAUMI2-15 | 2026-09-02 00:34:35 | 48.33114 | 12.55832 | 91° | 27km/h | 31776m | 5.1m/s | -41.1°C | 2.4% | 9.2hPa | 2.5V | 00:00:00 | 02:05:24 | 00:00:00 | |
| DO3MHA-11 | 2026-09-02 00:34:34 | 48.33113 | 12.55824 | 80° | 18km/h | 31770m | 5.9m/s | -41.1°C | 2.3% | 9.2hPa | 2.5V | 00:00:00 | 02:05:23 | 00:00:00 | |
| OE5DXL-15 | 2026-09-02 00:34:33 | 48.33111 | 12.55815 | 69° | 15km/h | 31764m | 6.4m/s | -41.1°C | 2.3% | 9.2hPa | 2.6V | 00:00:00 | 00:00:00 | 00:00:00 | |
| BAUMI2-15 | 2026-09-02 00:34:30 | 48.33096 | 12.55786 | 38° | 22km/h | 31746m | 5.0m/s | -41.1°C | 2.3% | 9.2hPa | 2.6V | 00:00:00 | 02:05:19 | 00:00:00 | |
| BAUMI2-15 | 2026-09-02 00:34:25 | 48.33077 | 12.55769 | 65° | 5km/h | 31717m | 5.9m/s | -41.0°C | 2.4% | 9.3hPa | 2.6V | 00:00:00 | 02:05:14 | 00:00:00 | |
| OE5WHR-10 | 2026-09-02 00:34:24 | 48.33077 | 12.55768 | 97° | 11km/h | 31711m | 5.0m/s | -41.1°C | 2.4% | 9.3hPa | 2.5V | 00:00:00 | 00:00:00 | 00:00:00 | |
| OE5MMP-10 | 2026-09-02 00:34:23 | 48.33076 | 12.55767 | 60° | 16km/h | 31706m | 5.9m/s | -41.1°C | 2.3% | 9.3hPa | 2.5V | 00:00:00 | 02:05:12 | 00:00:00 | |
| OE5HKT-10 | 2026-09-02 00:34:21 | 48.33073 | 12.55763 | 39° | 11km/h | 31693m | 5.8m/s | -41.1°C | 2.3% | 9.3hPa | 2.5V | 00:00:00 | 02:05:10 | 00:00:00 | |
| BAUMI2-15 | 2026-09-02 00:34:20 | 48.33071 | 12.55759 | 43° | 20km/h | 31688m | 5.4m/s | -41.1°C | 2.4% | 9.3hPa | 2.5V | 00:00:00 | 02:05:09 | 00:00:00 | |
| OE5REO-15 | 2026-09-02 00:34:18 | 48.33067 | 12.55754 | 51° | 20km/h | 31682m | 6.0m/s | -41.2°C | 0.5% | 9.4hPa | 2.5V | 00:00:00 | 00:00:00 | 00:00:00 | |
| DO3MHA-11 | 2026-09-02 00:34:14 | 48.33056 | 12.55723 | 54° | 7km/h | 31653m | 5.8m/s | -41.3°C | 2.4% | 9.4hPa | 2.5V | 00:00:00 | 02:05:03 | 00:00:00 | |
| OE5MMP-10 | 2026-09-02 00:34:13 | 48.33053 | 12.55718 | 43° | 7km/h | 31647m | 6.0m/s | -41.4°C | 2.4% | 9.4hPa | 2.5V | 00:00:00 | 02:05:02 | 00:00:00 | |
| DL6DJ-15 | 2026-09-02 00:34:07 | 48.33053 | 12.55705 | 155° | 5km/h | 31607m | 5.8m/s | 0°C | -1.0% | -1.0hPa | 2.5V | 00:00:00 | 00:00:00 | 00:00:00 | |
| DO3MHA-11 | 2026-09-02 00:34:04 | 48.33053 | 12.55704 | 7° | 9km/h | 31594m | 6.0m/s | -41.2°C | 2.4% | 9.4hPa | 2.5V | 00:00:00 | 02:04:53 | 00:00:00 | |
| OE5WHR-10 | 2026-09-02 00:34:03 | 48.33051 | 12.55703 | 14° | 11km/h | 31588m | 5.4m/s | -41.2°C | 2.3% | 9.4hPa | 2.5V | 00:00:00 | 02:04:52 | 00:00:00 | |
| OE5FHM-15 | 2026-09-02 00:34:02 | 48.33049 | 12.55702 | 27° | 13km/h | 31583m | 5.6m/s | -41.1°C | 2.4% | 9.4hPa | 2.5V | 00:00:00 | 02:04:51 | 00:00:00 | |
| OE5HKT-10 | 2026-09-02 00:34:00 | 48.33046 | 12.55698 | 57° | 9km/h | 31571m | 5.7m/s | -41.1°C | 2.3% | 9.5hPa | 2.6V | 00:00:00 | 00:00:00 | 00:00:00 | |
| DO3MHA-11 | 2026-09-02 00:33:54 | 48.33036 | 12.55689 | 350° | 11km/h | 31536m | 5.3m/s | -41.1°C | 2.3% | 9.5hPa | 2.5V | 00:00:00 | 02:04:43 | 00:00:00 | |
| OE5MMP-10 | 2026-09-02 00:33:53 | 48.33035 | 12.55689 | 349° | 13km/h | 31530m | 6.2m/s | -41.1°C | 2.3% | 9.5hPa | 2.5V | 00:00:00 | 02:04:42 | 00:00:00 | |
| OE5REO-15 | 2026-09-02 00:33:46 | 48.33027 | 12.55675 | 42° | 20km/h | 31496m | 5.3m/s | -41.3°C | 0.5% | 9.6hPa | 2.5V | 00:00:00 | 00:00:00 | 00:00:00 | |
| DO3MHA-11 | 2026-09-02 00:33:44 | 48.33017 | 12.55660 | 51° | 22km/h | 31481m | 5.4m/s | -41.3°C | 2.3% | 9.6hPa | 2.5V | 00:00:00 | 02:04:33 | 00:00:00 | |
| OE5MMP-10 | 2026-09-02 00:33:43 | 48.33014 | 12.55656 | 54° | 15km/h | 31475m | 5.4m/s | -41.3°C | 2.3% | 9.6hPa | 2.5V | 00:00:00 | 02:04:32 | 00:00:00 | |
| OE5WHR-10 | 2026-09-02 00:33:42 | 48.33013 | 12.55653 | 48° | 15km/h | 31470m | 5.1m/s | -41.4°C | 2.4% | 9.6hPa | 2.5V | 00:00:00 | 00:00:00 | 08:30:00 | |
| DL6DJ-15 | 2026-09-02 00:33:37 | 48.32997 | 12.55641 | 70° | 24km/h | 31434m | 6.0m/s | 0°C | -1.0% | -1.0hPa | 2.5V | 00:00:00 | 00:00:00 | 00:00:00 | |
| OE5MMP-10 | 2026-09-02 00:33:33 | 48.32995 | 12.55622 | 96° | 15km/h | 31423m | 4.7m/s | -41.6°C | 2.4% | 9.7hPa | 2.5V | 00:00:00 | 02:04:22 | 08:30:00 | |
| OE5FHM-15 | 2026-09-02 00:33:32 | 48.32996 | 12.55613 | 104° | 16km/h | 31419m | 4.2m/s | -41.6°C | 2.4% | 9.7hPa | 2.5V | 00:00:00 | 02:04:21 | 00:00:00 | |
| DO3MHA-11 | 2026-09-02 00:33:31 | 48.32997 | 12.55606 | 107° | 15km/h | 31415m | 4.5m/s | -41.6°C | 2.3% | 9.7hPa | 2.5V | 00:00:00 | 02:04:20 | 08:30:00 | |
| OE5MMP-10 | 2026-09-02 00:33:23 | 48.32980 | 12.55587 | 83° | 20km/h | 31372m | 5.5m/s | -41.9°C | 2.4% | 9.8hPa | 2.6V | 00:00:00 | 02:04:12 | 00:00:00 | |
| DO3MHA-11 | 2026-09-02 00:33:21 | 48.32981 | 12.55573 | 113° | 20km/h | 31361m | 5.3m/s | -41.9°C | 2.4% | 9.8hPa | 2.6V | 00:00:00 | 02:04:10 | 00:00:00 | |
| OE5DRO-10 | 2026-09-02 00:33:18 | 48.32986 | 12.55552 | 96° | 13km/h | 31346m | 5.4m/s | -42.0°C | 2.4% | 9.8hPa | 2.6V | 00:00:00 | 00:00:00 | 00:00:00 | |
| OE5REO-15 | 2026-09-02 00:33:15 | 48.32984 | 12.55536 | 70° | 24km/h | 31335m | 5.3m/s | -42.1°C | 0.6% | 9.9hPa | 2.6V | 00:00:00 | 00:00:00 | 00:00:00 | |
| OE5MMP-10 | 2026-09-02 00:33:13 | 48.32976 | 12.55515 | 52° | 11km/h | 31322m | 4.3m/s | -42.1°C | 2.4% | 9.9hPa | 2.6V | 00:00:00 | 02:04:02 | 00:00:00 | |
| DO3MHA-11 | 2026-09-02 00:33:11 | 48.32972 | 12.55509 | 31° | 15km/h | 31311m | 6.4m/s | -42.1°C | 2.4% | 9.9hPa | 2.6V | 00:00:00 | 02:04:00 | 00:00:00 | |
| OE5MMP-10 | 2026-09-02 00:33:03 | 48.32965 | 12.55477 | 72° | 15km/h | 31268m | 5.6m/s | -42.5°C | 2.4% | 9.9hPa | 2.6V | 00:00:00 | 02:03:52 | 00:00:00 | |
| OE5FHM-15 | 2026-09-02 00:33:02 | 48.32963 | 12.55469 | 72° | 20km/h | 31263m | 4.9m/s | -42.5°C | 2.5% | 10.0hPa | 2.5V | 00:00:00 | 02:03:51 | 00:00:00 | |
| DO3MHA-11 | 2026-09-02 00:33:00 | 48.32960 | 12.55456 | 69° | 13km/h | 31253m | 5.5m/s | -42.7°C | 2.5% | 10.0hPa | 2.5V | 00:00:00 | 02:03:49 | 00:00:00 | |
| OE5HKT-10 | 2026-09-02 00:32:57 | 48.32956 | 12.55440 | 81° | 20km/h | 31237m | 4.2m/s | -42.8°C | 2.5% | 10.0hPa | 2.6V | 00:00:00 | 00:00:00 | 08:30:00 | |
| OE5DRO-10 | 2026-09-02 00:32:55 | 48.32958 | 12.55434 | 145° | 20km/h | 31227m | 6.2m/s | -42.9°C | 2.5% | 10.0hPa | 2.5V | 00:00:00 | 00:00:00 | 00:00:00 | |
| OE5MMP-10 | 2026-09-02 00:32:53 | 48.32963 | 12.55430 | 156° | 24km/h | 31217m | 3.9m/s | -42.9°C | 2.5% | 10.0hPa | 2.6V | 00:00:00 | 02:03:42 | 00:00:00 | |
| DO7DH-14 | 2026-09-02 00:32:51 | 48.32968 | 12.55422 | 109° | 27km/h | 31208m | 5.4m/s | -42.9°C | 2.4% | 10.0hPa | 2.6V | 00:00:00 | 02:03:40 | 08:30:00 | |
| DO3MHA-11 | 2026-09-02 00:32:50 | 48.32969 | 12.55414 | 88° | 22km/h | 31203m | 6.0m/s | -43.0°C | 2.5% | 10.0hPa | 2.5V | 00:00:00 | 02:03:39 | 00:00:00 | |
| OE5REO-15 | 2026-09-02 00:32:44 | 48.32961 | 12.55359 | 90° | 22km/h | 31178m | 5.5m/s | -43.0°C | 0.6% | 10.1hPa | 2.5V | 00:00:00 | 00:00:00 | 00:00:00 | |
| OE5MMP-10 | 2026-09-02 00:32:43 | 48.32963 | 12.55347 | 124° | 24km/h | 31168m | 4.6m/s | -43.0°C | 2.4% | 10.1hPa | 2.5V | 00:00:00 | 02:03:32 | 00:00:00 | |
| DO3MHA-11 | 2026-09-02 00:32:40 | 48.32967 | 12.55335 | 88° | 27km/h | 31155m | 5.3m/s | -43.2°C | 2.5% | 10.1hPa | 2.5V | 00:00:00 | 02:03:29 | 00:00:00 | |
| OE5WHR-10 | 2026-09-02 00:32:39 | 48.32966 | 12.55329 | 72° | 27km/h | 31149m | 5.5m/s | -43.3°C | 2.5% | 10.1hPa | 2.5V | 00:00:00 | 00:00:00 | 00:00:00 | |
| OE5HKT-10 | 2026-09-02 00:32:36 | 48.32958 | 12.55298 | 72° | 27km/h | 31133m | 5.1m/s | -43.6°C | 2.6% | 10.1hPa | 2.5V | 00:00:00 | 00:00:00 | 00:00:00 | |
| DL6DJ-15 | 2026-09-02 00:32:34 | 48.32953 | 12.55273 | 79° | 31km/h | 31123m | 4.6m/s | 0°C | -1.0% | -1.0hPa | 2.5V | 00:00:00 | 00:00:00 | 00:00:00 | |
| OE5DXL-15 | 2026-09-02 00:32:33 | 48.32952 | 12.55261 | 81° | 24km/h | 31119m | 4.3m/s | -43.7°C | 2.6% | 10.2hPa | 2.5V | 00:00:00 | 00:00:00 | 00:00:00 | |
| OE5FHM-15 | 2026-09-02 00:32:32 | 48.32951 | 12.55251 | 80° | 24km/h | 31114m | 4.9m/s | -43.8°C | 2.6% | 10.2hPa | 2.5V | 00:00:00 | 02:03:21 | 00:00:00 | |
| DO3MHA-11 | 2026-09-02 00:32:30 | 48.32947 | 12.55230 | 73° | 24km/h | 31104m | 5.2m/s | -43.8°C | 2.6% | 10.2hPa | 2.6V | 00:00:00 | 02:03:19 | 00:00:00 | |
| OE5REO-15 | 2026-09-02 00:32:29 | 48.32945 | 12.55220 | 71° | 27km/h | 31098m | 4.6m/s | -43.8°C | 0.6% | 10.3hPa | 2.5V | 00:00:00 | 00:00:00 | 00:00:00 | |
| HSKMA3-T | 2026-09-02 00:32:10 | 48.32898 | 12.55077 | 61° | 31km/h | 31006m | 4.6m/s | 0°C | 0% | 0hPa | 2.5V | 18:12:15 | 02:02:59 | 00:00:00 | |
| BAUMI2-15 | 2026-09-02 00:32:10 | 48.32898 | 12.55077 | 62° | 27km/h | 31006m | 4.5m/s | -44.0°C | 2.6% | 10.4hPa | 2.5V | 00:00:00 | 02:02:59 | 08:30:00 | |
| BAUMI2-15 | 2026-09-02 00:32:05 | 48.32881 | 12.55035 | 47° | 16km/h | 30982m | 4.9m/s | -44.2°C | 2.6% | 10.4hPa | 2.6V | 00:00:00 | 02:02:54 | 00:00:00 | |
| OE5MMP-10 | 2026-09-02 00:32:03 | 48.32875 | 12.55029 | 24° | 20km/h | 30971m | 6.0m/s | -44.3°C | 2.6% | 10.4hPa | 2.6V | 00:00:00 | 02:02:52 | 08:30:00 | |
| OE5FHM-15 | 2026-09-02 00:32:02 | 48.32871 | 12.55026 | 20° | 20km/h | 30966m | 5.3m/s | -44.3°C | 2.6% | 10.4hPa | 2.6V | 00:00:00 | 02:02:51 | 00:00:00 | |
| OE5WHR-10 | 2026-09-02 00:31:57 | 48.32852 | 12.55011 | 55° | 22km/h | 30941m | 4.8m/s | -44.6°C | 2.7% | 10.5hPa | 2.6V | 00:00:00 | 02:02:46 | 00:00:00 | |
| BAUMI2-15 | 2026-09-02 00:31:55 | 48.32847 | 12.54997 | 63° | 29km/h | 30930m | 6.1m/s | -44.7°C | 2.7% | 10.5hPa | 2.6V | 00:00:00 | 02:02:44 | 00:00:00 | |
| OE5HKT-10 | 2026-09-02 00:31:54 | 48.32843 | 12.54987 | 62° | 20km/h | 30924m | 5.7m/s | -44.7°C | 2.7% | 10.5hPa | 2.6V | 00:00:00 | 00:00:00 | 00:00:00 | |
| OE5MMP-10 | 2026-09-02 00:31:53 | 48.32839 | 12.54977 | 59° | 22km/h | 30919m | 4.2m/s | -44.8°C | 2.8% | 10.5hPa | 2.6V | 00:00:00 | 02:02:42 | 00:00:00 | |
| DO7DH-14 | 2026-09-02 00:31:51 | 48.32831 | 12.54959 | 50° | 18km/h | 30910m | 5.4m/s | -44.8°C | 2.8% | 10.5hPa | 2.6V | 00:00:00 | 02:02:40 | 00:00:00 | |
| BAUMI2-15 | 2026-09-02 00:31:50 | 48.32827 | 12.54953 | 38° | 18km/h | 30905m | 5.5m/s | -44.9°C | 2.8% | 10.5hPa | 2.6V | 00:00:00 | 02:02:39 | 00:00:00 | |
| BAUMI2-15 | 2026-09-02 00:31:45 | 48.32804 | 12.54952 | 356° | 20km/h | 30878m | 5.0m/s | -44.9°C | 2.8% | 10.6hPa | 2.6V | 00:00:00 | 02:02:34 | 00:00:00 | |
| OE5MMP-10 | 2026-09-02 00:31:43 | 48.32792 | 12.54953 | 3° | 18km/h | 30869m | 4.5m/s | -44.8°C | 2.8% | 10.6hPa | 2.6V | 00:00:00 | 02:02:32 | 00:00:00 | |
| DK5PH-5 | 2026-09-02 00:31:42 | 48.32787 | 12.54952 | 6° | 55km/h | 30863m | 5.6m/s | 0°C | 0% | 0hPa | 2.6V | 00:00:00 | 02:02:31 | 00:00:00 | |
| OE5REO-15 | 2026-09-02 00:31:41 | 48.32787 | 12.54952 | 7° | 18km/h | 30863m | 5.6m/s | -44.9°C | 0.7% | 10.6hPa | 2.6V | 00:00:00 | 00:00:00 | 00:00:00 | |
| BAUMI2-15 | 2026-09-02 00:31:40 | 48.32780 | 12.54949 | 34° | 18km/h | 30852m | 5.3m/s | -44.8°C | 2.8% | 10.6hPa | 2.6V | 00:00:00 | 02:02:29 | 00:00:00 | |
| DO3MHA-11 | 2026-09-02 00:31:38 | 48.32776 | 12.54941 | 65° | 20km/h | 30841m | 6.3m/s | -44.8°C | 2.8% | 10.6hPa | 2.5V | 00:00:00 | 02:02:27 | 00:00:00 | |
| OE5DRO-10 | 2026-09-02 00:31:36 | 48.32771 | 12.54927 | 59° | 15km/h | 30830m | 4.3m/s | -44.8°C | 2.8% | 10.6hPa | 2.5V | 00:00:00 | 00:00:00 | 00:00:00 | |
| OE5WHR-10 | 2026-09-02 00:31:35 | 48.32768 | 12.54920 | 49° | 16km/h | 30826m | 3.7m/s | -44.8°C | 2.8% | 10.7hPa | 2.5V | 00:00:00 | 00:00:00 | 00:00:00 | |
| OE5HKT-10 | 2026-09-02 00:31:33 | 48.32760 | 12.54914 | 1° | 15km/h | 30816m | 6.5m/s | -44.8°C | 2.8% | 10.7hPa | 2.5V | 00:00:00 | 00:00:00 | 00:00:00 | |
| OE5FHM-15 | 2026-09-02 00:31:32 | 48.32757 | 12.54915 | 331° | 15km/h | 30809m | 5.9m/s | -44.8°C | 2.8% | 10.7hPa | 2.5V | 00:00:00 | 02:02:21 | 00:00:00 | |
| BAUMI2-15 | 2026-09-02 00:31:30 | 48.32749 | 12.54925 | 322° | 16km/h | 30799m | 5.4m/s | -44.7°C | 2.8% | 10.7hPa | 2.5V | 00:00:00 | 02:02:19 | 00:00:00 | |
| DO3MHA-11 | 2026-09-02 00:31:28 | 48.32740 | 12.54932 | 345° | 13km/h | 30787m | 5.3m/s | -44.7°C | 2.8% | 10.7hPa | 2.5V | 00:00:00 | 02:02:17 | 00:00:00 | |
| BAUMI2-15 | 2026-09-02 00:31:25 | 48.32731 | 12.54929 | 37° | 11km/h | 30772m | 5.6m/s | -44.6°C | 2.7% | 10.7hPa | 2.5V | 00:00:00 | 02:02:14 | 08:30:00 | |
| OE5MMP-10 | 2026-09-02 00:31:23 | 48.32727 | 12.54925 | 38° | 15km/h | 30760m | 5.3m/s | -44.6°C | 2.8% | 10.8hPa | 2.6V | 00:00:00 | 02:02:12 | 00:00:00 | |
| BAUMI2-15 | 2026-09-02 00:31:20 | 48.32719 | 12.54919 | 21° | 20km/h | 30744m | 6.3m/s | -44.6°C | 2.7% | 10.8hPa | 2.6V | 00:00:00 | 02:02:09 | 00:00:00 | |
| DO7DH-14 | 2026-09-02 00:31:19 | 48.32713 | 12.54916 | 18° | 16km/h | 30738m | 5.1m/s | -44.5°C | 2.7% | 10.8hPa | 2.6V | 00:00:00 | 02:02:08 | 00:00:00 | |
| BAUMI2-15 | 2026-09-02 00:31:15 | 48.32695 | 12.54914 | 339° | 7km/h | 30717m | 5.6m/s | -44.5°C | 2.7% | 10.8hPa | 2.5V | 00:00:00 | 02:02:04 | 00:00:00 | |
| OE5WHR-10 | 2026-09-02 00:31:14 | 48.32693 | 12.54916 | 331° | 13km/h | 30711m | 4.9m/s | -44.5°C | 2.8% | 10.9hPa | 2.5V | 00:00:00 | 00:00:00 | 00:00:00 | |
| OE5MMP-10 | 2026-09-02 00:31:13 | 48.32692 | 12.54916 | 40° | 13km/h | 30706m | 5.1m/s | -44.6°C | 2.7% | 10.9hPa | 2.5V | 00:00:00 | 02:02:02 | 00:00:00 | |
| OE5HKT-10 | 2026-09-02 00:31:12 | 48.32692 | 12.54914 | 71° | 13km/h | 30701m | 5.6m/s | -44.6°C | 2.8% | 10.9hPa | 2.5V | 00:00:00 | 02:02:01 | 00:00:00 | |
| BAUMI2-15 | 2026-09-02 00:31:10 | 48.32689 | 12.54907 | 54° | 16km/h | 30689m | 5.5m/s | -44.6°C | 2.8% | 10.9hPa | 2.5V | 00:00:00 | 02:01:59 | 00:00:00 | |
| OE5REO-15 | 2026-09-02 00:31:09 | 48.32689 | 12.54907 | 55° | 16km/h | 30689m | 5.5m/s | -44.7°C | 0.7% | 10.9hPa | 2.5V | 00:00:00 | 00:00:00 | 00:00:00 | |
| BAUMI2-15 | 2026-09-02 00:31:06 | 48.32671 | 12.54892 | 344° | 9km/h | 30662m | 5.5m/s | -44.6°C | 2.8% | 10.9hPa | 2.5V | 00:00:00 | 02:01:54 | 00:00:00 | |
| OE5DXL-15 | 2026-09-02 00:31:03 | 48.32668 | 12.54895 | 340° | 11km/h | 30651m | 5.4m/s | -44.6°C | 2.7% | 11.0hPa | 2.5V | 00:00:00 | 00:00:00 | 00:00:00 | |
| DO3MHA-11 | 2026-09-02 00:31:02 | 48.32666 | 12.54895 | 12° | 13km/h | 30646m | 5.7m/s | -44.6°C | 2.8% | 11.0hPa | 2.5V | 00:00:00 | 02:01:51 | 00:00:00 | |
| BAUMI2-15 | 2026-09-02 00:31:00 | 48.32662 | 12.54891 | 53° | 15km/h | 30634m | 5.5m/s | -44.5°C | 2.8% | 11.0hPa | 2.6V | 00:00:00 | 02:01:49 | 00:00:00 | |
| BAUMI2-15 | 2026-09-02 00:30:55 | 48.32661 | 12.54866 | 119° | 15km/h | 30605m | 5.1m/s | -44.5°C | 2.8% | 11.0hPa | 2.6V | 00:00:00 | 02:01:44 | 00:00:00 | |
| OE5MMP-10 | 2026-09-02 00:30:53 | 48.32664 | 12.54855 | 107° | 9km/h | 30593m | 6.5m/s | -44.5°C | 2.8% | 11.1hPa | 2.5V | 00:00:00 | 02:01:42 | 00:00:00 | |
| DO3MHA-11 | 2026-09-02 00:30:52 | 48.32665 | 12.54849 | 97° | 15km/h | 30587m | 5.6m/s | -44.5°C | 2.8% | 11.1hPa | 2.5V | 00:00:00 | 02:01:41 | 00:00:00 | |
| OE5HKT-10 | 2026-09-02 00:30:51 | 48.32665 | 12.54844 | 90° | 11km/h | 30582m | 4.9m/s | -44.5°C | 2.8% | 11.1hPa | 2.5V | 00:00:00 | 00:00:00 | 00:00:00 | |
| BAUMI2-15 | 2026-09-02 00:30:50 | 48.32665 | 12.54840 | 85° | 5km/h | 30576m | 5.6m/s | -44.4°C | 2.7% | 11.1hPa | 2.6V | 00:00:00 | 02:01:39 | 00:00:00 | |
| DO7DH-14 | 2026-09-02 00:30:49 | 48.32664 | 12.54837 | 80° | 9km/h | 30570m | 6.9m/s | -44.4°C | 2.8% | 11.1hPa | 2.6V | 00:00:00 | 02:01:38 | 00:00:00 | |
| BAUMI2-15 | 2026-09-02 00:30:45 | 48.32663 | 12.54831 | 72° | 15km/h | 30546m | 6.6m/s | -44.4°C | 2.7% | 11.1hPa | 2.6V | 00:00:00 | 02:01:34 | 00:00:00 | |
| OE5MMP-10 | 2026-09-02 00:30:43 | 48.32662 | 12.54821 | 86° | 13km/h | 30535m | 5.1m/s | -44.4°C | 2.7% | 11.1hPa | 2.6V | 00:00:00 | 02:01:32 | 00:00:00 | |
| BAUMI2-15 | 2026-09-02 00:30:40 | 48.32665 | 12.54803 | 132° | 9km/h | 30517m | 5.9m/s | -44.4°C | 2.8% | 11.2hPa | 2.6V | 00:00:00 | 02:01:29 | 08:30:00 | |
| OE5REO-15 | 2026-09-02 00:30:38 | 48.32668 | 12.54800 | 143° | 13km/h | 30511m | 5.3m/s | -44.4°C | 0.7% | 11.2hPa | 2.6V | 00:00:00 | 00:00:00 | 00:00:00 | |
| BAUMI2-15 | 2026-09-02 00:30:35 | 48.32669 | 12.54790 | 33° | 11km/h | 30487m | 6.1m/s | -44.3°C | 2.8% | 11.2hPa | 2.6V | 00:00:00 | 02:01:24 | 00:00:00 | |
| OE5MMP-10 | 2026-09-02 00:30:33 | 48.32663 | 12.54787 | 10° | 9km/h | 30476m | 5.3m/s | -44.3°C | 2.7% | 11.2hPa | 2.6V | 00:00:00 | 02:01:22 | 08:30:00 | |
| OE5FHM-15 | 2026-09-02 00:30:32 | 48.32660 | 12.54787 | 360° | 9km/h | 30470m | 6.7m/s | -44.3°C | 2.7% | 11.3hPa | 2.5V | 00:00:00 | 02:01:21 | 00:00:00 | |
| OE5HKT-10 | 2026-09-02 00:30:30 | 48.32657 | 12.54787 | 15° | 9km/h | 30458m | 5.4m/s | -44.3°C | 2.8% | 11.3hPa | 2.5V | 00:00:00 | 00:00:00 | 00:00:00 | |
| BAUMI2-15 | 2026-09-02 00:30:25 | 48.32658 | 12.54767 | 106° | 11km/h | 30428m | 5.2m/s | -44.2°C | 2.8% | 11.3hPa | 2.5V | 00:00:00 | 02:01:14 | 00:00:00 | |
| OE5MMP-10 | 2026-09-02 00:30:23 | 48.32662 | 12.54758 | 134° | 7km/h | 30415m | 6.4m/s | -44.1°C | 2.7% | 11.4hPa | 2.6V | 00:00:00 | 02:01:12 | 00:00:00 | |
| OE5REO-15 | 2026-09-02 00:30:22 | 48.32661 | 12.54758 | 135° | 11km/h | 30415m | 6.5m/s | -44.2°C | 0.7% | 11.4hPa | 2.6V | 00:00:00 | 00:00:00 | 00:00:00 | |
| BAUMI2-15 | 2026-09-02 00:30:20 | 48.32665 | 12.54754 | 63° | 7km/h | 30397m | 7.1m/s | -44.1°C | 2.7% | 11.4hPa | 2.6V | 00:00:00 | 02:01:09 | 00:00:00 | |
| DO7DH-14 | 2026-09-02 00:30:17 | 48.32660 | 12.54752 | 12° | 11km/h | 30379m | 5.1m/s | -44.1°C | 2.7% | 11.5hPa | 2.6V | 00:00:00 | 02:01:06 | 00:00:00 | |
| OE5MMP-10 | 2026-09-02 00:30:13 | 48.32658 | 12.54747 | 139° | 11km/h | 30354m | 5.5m/s | -44.0°C | 2.7% | 11.5hPa | 2.6V | 00:00:00 | 02:01:02 | 00:00:00 | |
| OE5WHR-10 | 2026-09-02 00:30:09 | 48.32664 | 12.54729 | 104° | 13km/h | 30329m | 5.4m/s | -44.0°C | 2.7% | 11.5hPa | 2.6V | 00:00:00 | 00:00:00 | 00:00:00 | |
| OE5FHM-15 | 2026-09-02 00:30:02 | 48.32660 | 12.54716 | 24° | 11km/h | 30286m | 5.2m/s | -44.0°C | 2.7% | 11.6hPa | 2.6V | 00:00:00 | 02:00:51 | 00:00:00 | |
| DO3MHA-11 | 2026-09-02 00:29:59 | 48.32658 | 12.54710 | 127° | 9km/h | 30268m | 7.2m/s | -44.0°C | 2.7% | 11.6hPa | 2.6V | 00:00:00 | 02:00:48 | 00:00:00 | |
| OE5MMP-10 | 2026-09-02 00:29:57 | 48.32662 | 12.54704 | 140° | 11km/h | 30255m | 6.0m/s | -44.0°C | 2.7% | 11.7hPa | 2.6V | 00:00:00 | 02:00:46 | 00:00:00 | |
| OE5HKT-10 | 2026-09-02 00:29:48 | 48.32673 | 12.54671 | 73° | 11km/h | 30200m | 6.8m/s | -44.0°C | 2.7% | 11.8hPa | 2.5V | 00:00:00 | 00:00:00 | 08:30:00 | |
| DO3MHA-11 | 2026-09-02 00:29:47 | 48.32673 | 12.54669 | 56° | 11km/h | 30194m | 6.5m/s | -44.0°C | 2.7% | 11.8hPa | 2.5V | 00:00:00 | 02:00:36 | 00:00:00 | |
| DO7DH-14 | 2026-09-02 00:29:45 | 48.32671 | 12.54663 | 88° | 13km/h | 30183m | 5.3m/s | -43.9°C | 2.7% | 11.8hPa | 2.6V | 00:00:00 | 02:00:34 | 00:00:00 | |
| OE5MMP-10 | 2026-09-02 00:29:37 | 48.32690 | 12.54634 | 114° | 9km/h | 30133m | 6.0m/s | -43.8°C | 2.7% | 11.9hPa | 2.5V | 00:00:00 | 02:00:26 | 00:00:00 | |
| OE5DXL-15 | 2026-09-02 00:29:33 | 48.32692 | 12.54627 | 68° | 13km/h | 30109m | 5.7m/s | -43.7°C | 2.7% | 11.9hPa | 2.5V | 00:00:00 | 00:00:00 | 00:00:00 | |
| OE5FHM-15 | 2026-09-02 00:29:32 | 48.32692 | 12.54625 | 54° | 13km/h | 30103m | 6.9m/s | -43.7°C | 2.7% | 11.9hPa | 2.5V | 00:00:00 | 02:00:21 | 00:00:00 | |
| OE5MMP-10 | 2026-09-02 00:29:17 | 48.32702 | 12.54561 | 53° | 15km/h | 30015m | 5.2m/s | -43.7°C | 2.6% | 12.1hPa | 2.5V | 00:00:00 | 02:00:06 | 00:00:00 | |
| DO7DH-14 | 2026-09-02 00:29:13 | 48.32701 | 12.54546 | 109° | 15km/h | 29993m | 5.1m/s | -43.8°C | 2.7% | 12.2hPa | 2.5V | 00:00:00 | 02:00:02 | 00:00:00 | |
| OE5MMP-10 | 2026-09-02 00:29:07 | 48.32720 | 12.54519 | 121° | 13km/h | 29958m | 6.5m/s | -43.8°C | 2.7% | 12.2hPa | 2.5V | 00:00:00 | 01:59:56 | 00:00:00 | |
| OE5HKT-10 | 2026-09-02 00:29:06 | 48.32719 | 12.54517 | 49° | 15km/h | 29952m | 5.8m/s | -43.8°C | 2.7% | 12.2hPa | 2.5V | 00:00:00 | 01:59:55 | 00:00:00 | |
| OE5DXL-15 | 2026-09-02 00:29:03 | 48.32714 | 12.54512 | 49° | 16km/h | 29936m | 5.9m/s | -43.8°C | 2.7% | 12.3hPa | 2.5V | 00:00:00 | 00:00:00 | 00:00:00 | |
| OE5FHM-15 | 2026-09-02 00:29:02 | 48.32713 | 12.54508 | 89° | 16km/h | 29930m | 5.5m/s | -43.8°C | 2.7% | 12.3hPa | 2.5V | 00:00:00 | 01:59:51 | 00:00:00 | |
| OE5MMP-10 | 2026-09-02 00:28:57 | 48.32721 | 12.54474 | 115° | 13km/h | 29902m | 5.2m/s | -43.8°C | 2.7% | 12.3hPa | 2.5V | 00:00:00 | 01:59:46 | 08:30:00 | |
| OE5MMP-10 | 2026-09-02 00:28:47 | 48.32737 | 12.54444 | 93° | 24km/h | 29848m | 6.3m/s | -43.7°C | 2.6% | 12.4hPa | 2.5V | 00:00:00 | 01:59:36 | 00:00:00 | |
| OE5HKT-10 | 2026-09-02 00:28:45 | 48.32740 | 12.54429 | 120° | 20km/h | 29836m | 5.7m/s | -43.7°C | 2.6% | 12.4hPa | 2.5V | 00:00:00 | 00:00:00 | 00:00:00 | |
| DO7DH-14 | 2026-09-02 00:28:41 | 48.32757 | 12.54389 | 121° | 9km/h | 29814m | 4.6m/s | -43.8°C | 2.7% | 12.5hPa | 2.6V | 00:00:00 | 01:59:30 | 00:00:00 | |
| OE5MMP-10 | 2026-09-02 00:28:37 | 48.32769 | 12.54370 | 188° | 16km/h | 29792m | 5.0m/s | -43.9°C | 2.7% | 12.5hPa | 2.6V | 00:00:00 | 01:59:26 | 00:00:00 | |
| OE5DXL-15 | 2026-09-02 00:28:33 | 48.32770 | 12.54366 | 84° | 15km/h | 29771m | 5.5m/s | -43.9°C | 2.7% | 12.6hPa | 2.6V | 00:00:00 | 00:00:00 | 00:00:00 | |
| OE5FHM-15 | 2026-09-02 00:28:32 | 48.32770 | 12.54359 | 95° | 15km/h | 29766m | 4.5m/s | -43.9°C | 2.7% | 12.6hPa | 2.6V | 00:00:00 | 01:59:21 | 00:00:00 | |
| OE5MMP-10 | 2026-09-02 00:28:27 | 48.32789 | 12.54318 | 152° | 15km/h | 29741m | 4.7m/s | -43.8°C | 2.6% | 12.6hPa | 2.6V | 00:00:00 | 01:59:16 | 00:00:00 | |
| OE5HKT-10 | 2026-09-02 00:28:24 | 48.32800 | 12.54310 | 131° | 13km/h | 29726m | 6.0m/s | -43.7°C | 2.6% | 12.7hPa | 2.6V | 00:00:00 | 00:00:00 | 00:00:00 | |
| OE5MMP-10 | 2026-09-02 00:28:17 | 48.32799 | 12.54278 | 135° | 11km/h | 29688m | 5.0m/s | -43.7°C | 2.6% | 12.7hPa | 2.6V | 00:00:00 | 01:59:06 | 00:00:00 | |
| BAUMI2-15 | 2026-09-02 00:28:15 | 48.32803 | 12.54273 | 138° | 9km/h | 29678m | 5.4m/s | -43.7°C | 2.6% | 12.8hPa | 2.6V | 00:00:00 | 01:59:04 | 00:00:00 | |
| DO7DH-14 | 2026-09-02 00:28:11 | 48.32804 | 12.54260 | 78° | 13km/h | 29656m | 5.2m/s | -43.8°C | 2.6% | 12.8hPa | 2.6V | 00:00:00 | 01:59:00 | 08:30:00 | |
| BAUMI2-15 | 2026-09-02 00:28:10 | 48.32803 | 12.54256 | 87° | 13km/h | 29651m | 5.9m/s | -43.8°C | 2.6% | 12.8hPa | 2.6V | 00:00:00 | 01:58:59 | 00:00:00 | |
| OE5MMP-10 | 2026-09-02 00:28:07 | 48.32803 | 12.54243 | 68° | 11km/h | 29636m | 4.2m/s | -44.0°C | 2.7% | 12.8hPa | 2.6V | 00:00:00 | 01:58:56 | 00:00:00 | |
| BAUMI2-15 | 2026-09-02 00:28:05 | 48.32798 | 12.54236 | 30° | 13km/h | 29625m | 5.8m/s | -44.0°C | 2.7% | 12.9hPa | 2.6V | 00:00:00 | 01:58:54 | 00:00:00 | |
| OE5HKT-10 | 2026-09-02 00:28:03 | 48.32791 | 12.54232 | 20° | 11km/h | 29615m | 4.2m/s | -44.0°C | 2.6% | 12.9hPa | 2.6V | 00:00:00 | 01:58:52 | 00:00:00 | |
| OE5FHM-15 | 2026-09-02 00:28:02 | 48.32788 | 12.54230 | 22° | 11km/h | 29610m | 5.9m/s | -44.0°C | 2.7% | 12.9hPa | 2.6V | 00:00:00 | 01:58:51 | 00:00:00 | |
| BAUMI2-15 | 2026-09-02 00:28:00 | 48.32784 | 12.54227 | 51° | 9km/h | 29599m | 4.8m/s | -44.0°C | 2.6% | 12.9hPa | 2.5V | 00:00:00 | 01:58:49 | 00:00:00 | |
| OE5MMP-10 | 2026-09-02 00:27:57 | 48.32780 | 12.54222 | 21° | 13km/h | 29583m | 6.0m/s | -44.0°C | 2.6% | 12.9hPa | 2.5V | 00:00:00 | 01:58:46 | 00:00:00 | |
| BAUMI2-15 | 2026-09-02 00:27:55 | 48.32772 | 12.54218 | 20° | 15km/h | 29573m | 4.8m/s | -44.1°C | 2.7% | 13.0hPa | 2.6V | 00:00:00 | 01:58:44 | 08:30:00 | |
| BAUMI2-15 | 2026-09-02 00:27:50 | 48.32757 | 12.54201 | 53° | 9km/h | 29546m | 5.6m/s | -44.2°C | 2.7% | 13.0hPa | 2.5V | 00:00:00 | 01:58:39 | 00:00:00 | |
| OE5MMP-10 | 2026-09-02 00:27:47 | 48.32756 | 12.54194 | 145° | 13km/h | 29532m | 5.5m/s | -44.3°C | 2.7% | 13.1hPa | 2.5V | 00:00:00 | 01:58:36 | 00:00:00 | |
| NBG1-10 | 2026-09-02 00:27:46 | 48.32758 | 12.54193 | 173° | 11km/h | 29526m | 6.5m/s | 0°C | 0% | 0hPa | 2.5V | 00:00:00 | 01:58:35 | 00:00:00 | |
| BAUMI2-15 | 2026-09-02 00:27:45 | 48.32760 | 12.54193 | 182° | 9km/h | 29520m | 5.4m/s | -44.3°C | 2.7% | 13.1hPa | 2.5V | 00:00:00 | 01:58:34 | 00:00:00 | |
| OE5HKT-10 | 2026-09-02 00:27:42 | 48.32766 | 12.54192 | 79° | 11km/h | 29506m | 5.8m/s | -44.3°C | 2.7% | 13.1hPa | 2.5V | 00:00:00 | 00:00:00 | 00:00:00 | |
| DO7DH-14 | 2026-09-02 00:27:41 | 48.32765 | 12.54190 | 48° | 11km/h | 29500m | 5.2m/s | -44.3°C | 2.7% | 13.1hPa | 2.6V | 00:00:00 | 01:58:30 | 00:00:00 | |
| BAUMI2-15 | 2026-09-02 00:27:40 | 48.32763 | 12.54186 | 49° | 18km/h | 29495m | 4.6m/s | -44.4°C | 2.7% | 13.1hPa | 2.6V | 00:00:00 | 01:58:29 | 00:00:00 | |
| OE5MMP-10 | 2026-09-02 00:27:37 | 48.32756 | 12.54166 | 81° | 9km/h | 29479m | 4.8m/s | -44.4°C | 2.8% | 13.2hPa | 2.5V | 00:00:00 | 01:58:26 | 00:00:00 | |
| BAUMI2-15 | 2026-09-02 00:27:35 | 48.32756 | 12.54154 | 99° | 5km/h | 29470m | 4.1m/s | -44.4°C | 2.8% | 13.2hPa | 2.5V | 00:00:00 | 01:58:24 | 00:00:00 | |
| OE5DXL-15 | 2026-09-02 00:27:33 | 48.32757 | 12.54147 | 101° | 9km/h | 29459m | 5.8m/s | -44.4°C | 2.7% | 13.2hPa | 2.5V | 00:00:00 | 00:00:00 | 00:00:00 | |
| OE5FHM-15 | 2026-09-02 00:27:32 | 48.32757 | 12.54146 | 116° | 9km/h | 29454m | 5.3m/s | -44.4°C | 2.7% | 13.2hPa | 2.5V | 00:00:00 | 01:58:21 | 00:00:00 | |
| Es werden nur die letzten 3500 von 5720 Frames angezeigt. GPX/KML und Diagramme bleiben verfügbar. | |||||||||||||||